<?xml version="1.0" encoding="UTF-8"?>
<gpx version="1.1" creator="https://www.youtrack.es" xsi:schemaLocation="http://www.topografix.com/GPX/1/1 http://www.topografix.com/GPX/1/1/gpx.xsd http://www.garmin.com/xmlschemas/GpxExtensions/v3 http://www.garmin.com/xmlschemas/GpxExtensionsv3.xsd http://www.garmin.com/xmlschemas/TrackPointExtension/v1 http://www.garmin.com/xmlschemas/TrackPointExtensionv1.xsd" xmlns:gpxtpx="http://www.garmin.com/xmlschemas/TrackPointExtension/v1" xmlns:gpxx="http://www.garmin.com/xmlschemas/GpxExtensions/v3" xmlns:xsi="http://www.w3.org/2001/XMLSchema-instance">
  <metadata>
    <link href="https://www.youtrack.es">
      <text>YouTrack.es</text>
    </link>
    <time>2026-05-08T09:09:04Z</time>
  </metadata>
  <trk>
    <src>https://www.youtrack.es</src>
    <link href="https://www.youtrack.es/ruta/7586-campin-vilanova-gerb-camping">
      <text>YouTrack.es</text>
    </link>
    <trkseg>
      <trkpt lat="41.794632" lon="0.808995">
        <ele>228.649</ele>
        <time>1998-01-15T08:31:38Z</time>
      </trkpt>
      <trkpt lat="41.794644" lon="0.809026">
        <ele>228.002</ele>
        <time>1998-01-15T08:33:03Z</time>
      </trkpt>
      <trkpt lat="41.794671" lon="0.809044">
        <ele>227.622</ele>
        <time>1998-01-15T08:33:05Z</time>
      </trkpt>
      <trkpt lat="41.794685" lon="0.809049">
        <ele>227.608</ele>
        <time>1998-01-15T08:33:06Z</time>
      </trkpt>
      <trkpt lat="41.794804" lon="0.809141">
        <ele>227.026</ele>
        <time>1998-01-15T08:33:12Z</time>
      </trkpt>
      <trkpt lat="41.795018" lon="0.809230">
        <ele>227.486</ele>
        <time>1998-01-15T08:33:19Z</time>
      </trkpt>
      <trkpt lat="41.795212" lon="0.809306">
        <ele>228.277</ele>
        <time>1998-01-15T08:33:25Z</time>
      </trkpt>
      <trkpt lat="41.795485" lon="0.809439">
        <ele>226.649</ele>
        <time>1998-01-15T08:33:31Z</time>
      </trkpt>
      <trkpt lat="41.795572" lon="0.809488">
        <ele>226.447</ele>
        <time>1998-01-15T08:33:33Z</time>
      </trkpt>
      <trkpt lat="41.795743" lon="0.809577">
        <ele>225.034</ele>
        <time>1998-01-15T08:33:37Z</time>
      </trkpt>
      <trkpt lat="41.795785" lon="0.809596">
        <ele>224.841</ele>
        <time>1998-01-15T08:33:38Z</time>
      </trkpt>
      <trkpt lat="41.796092" lon="0.809730">
        <ele>224.232</ele>
        <time>1998-01-15T08:33:45Z</time>
      </trkpt>
      <trkpt lat="41.796270" lon="0.809803">
        <ele>223.835</ele>
        <time>1998-01-15T08:33:49Z</time>
      </trkpt>
      <trkpt lat="41.796498" lon="0.809885">
        <ele>223.486</ele>
        <time>1998-01-15T08:33:54Z</time>
      </trkpt>
      <trkpt lat="41.796863" lon="0.810021">
        <ele>224.014</ele>
        <time>1998-01-15T08:34:02Z</time>
      </trkpt>
      <trkpt lat="41.797004" lon="0.810073">
        <ele>224.608</ele>
        <time>1998-01-15T08:34:05Z</time>
      </trkpt>
      <trkpt lat="41.797184" lon="0.810157">
        <ele>223.885</ele>
        <time>1998-01-15T08:34:09Z</time>
      </trkpt>
      <trkpt lat="41.797538" lon="0.810334">
        <ele>223.845</ele>
        <time>1998-01-15T08:34:17Z</time>
      </trkpt>
      <trkpt lat="41.797798" lon="0.810468">
        <ele>223.086</ele>
        <time>1998-01-15T08:34:23Z</time>
      </trkpt>
      <trkpt lat="41.798025" lon="0.810562">
        <ele>222.818</ele>
        <time>1998-01-15T08:34:28Z</time>
      </trkpt>
      <trkpt lat="41.798218" lon="0.810614">
        <ele>222.056</ele>
        <time>1998-01-15T08:34:32Z</time>
      </trkpt>
      <trkpt lat="41.798627" lon="0.810644">
        <ele>222.833</ele>
        <time>1998-01-15T08:34:40Z</time>
      </trkpt>
      <trkpt lat="41.799045" lon="0.810682">
        <ele>222.220</ele>
        <time>1998-01-15T08:34:48Z</time>
      </trkpt>
      <trkpt lat="41.799309" lon="0.810704">
        <ele>221.861</ele>
        <time>1998-01-15T08:34:53Z</time>
      </trkpt>
      <trkpt lat="41.799362" lon="0.810703">
        <ele>221.649</ele>
        <time>1998-01-15T08:34:54Z</time>
      </trkpt>
      <trkpt lat="41.799736" lon="0.810719">
        <ele>221.402</ele>
        <time>1998-01-15T08:35:01Z</time>
      </trkpt>
      <trkpt lat="41.799951" lon="0.810713">
        <ele>220.422</ele>
        <time>1998-01-15T08:35:05Z</time>
      </trkpt>
      <trkpt lat="41.800058" lon="0.810711">
        <ele>220.208</ele>
        <time>1998-01-15T08:35:07Z</time>
      </trkpt>
      <trkpt lat="41.800385" lon="0.810737">
        <ele>219.236</ele>
        <time>1998-01-15T08:35:13Z</time>
      </trkpt>
      <trkpt lat="41.800490" lon="0.810753">
        <ele>218.836</ele>
        <time>1998-01-15T08:35:15Z</time>
      </trkpt>
      <trkpt lat="41.800699" lon="0.810793">
        <ele>218.657</ele>
        <time>1998-01-15T08:35:19Z</time>
      </trkpt>
      <trkpt lat="41.800796" lon="0.810855">
        <ele>218.659</ele>
        <time>1998-01-15T08:35:21Z</time>
      </trkpt>
      <trkpt lat="41.800883" lon="0.810923">
        <ele>218.257</ele>
        <time>1998-01-15T08:35:23Z</time>
      </trkpt>
      <trkpt lat="41.801092" lon="0.811107">
        <ele>217.414</ele>
        <time>1998-01-15T08:35:28Z</time>
      </trkpt>
      <trkpt lat="41.801330" lon="0.811358">
        <ele>218.041</ele>
        <time>1998-01-15T08:35:34Z</time>
      </trkpt>
      <trkpt lat="41.801358" lon="0.811417">
        <ele>217.842</ele>
        <time>1998-01-15T08:35:35Z</time>
      </trkpt>
      <trkpt lat="41.801412" lon="0.811685">
        <ele>217.013</ele>
        <time>1998-01-15T08:35:39Z</time>
      </trkpt>
      <trkpt lat="41.801481" lon="0.812215">
        <ele>217.043</ele>
        <time>1998-01-15T08:35:47Z</time>
      </trkpt>
      <trkpt lat="41.801531" lon="0.812469">
        <ele>217.607</ele>
        <time>1998-01-15T08:35:51Z</time>
      </trkpt>
      <trkpt lat="41.801553" lon="0.812523">
        <ele>218.008</ele>
        <time>1998-01-15T08:35:52Z</time>
      </trkpt>
      <trkpt lat="41.801579" lon="0.812572">
        <ele>218.443</ele>
        <time>1998-01-15T08:35:53Z</time>
      </trkpt>
      <trkpt lat="41.801712" lon="0.812738">
        <ele>219.083</ele>
        <time>1998-01-15T08:35:57Z</time>
      </trkpt>
      <trkpt lat="41.801790" lon="0.812818">
        <ele>219.054</ele>
        <time>1998-01-15T08:35:59Z</time>
      </trkpt>
      <trkpt lat="41.801830" lon="0.812855">
        <ele>219.086</ele>
        <time>1998-01-15T08:36:00Z</time>
      </trkpt>
      <trkpt lat="41.802029" lon="0.813058">
        <ele>220.284</ele>
        <time>1998-01-15T08:36:05Z</time>
      </trkpt>
      <trkpt lat="41.802110" lon="0.813129">
        <ele>220.611</ele>
        <time>1998-01-15T08:36:07Z</time>
      </trkpt>
      <trkpt lat="41.802154" lon="0.813157">
        <ele>220.848</ele>
        <time>1998-01-15T08:36:08Z</time>
      </trkpt>
      <trkpt lat="41.802241" lon="0.813203">
        <ele>221.229</ele>
        <time>1998-01-15T08:36:10Z</time>
      </trkpt>
      <trkpt lat="41.802323" lon="0.813245">
        <ele>221.433</ele>
        <time>1998-01-15T08:36:12Z</time>
      </trkpt>
      <trkpt lat="41.802378" lon="0.813397">
        <ele>221.823</ele>
        <time>1998-01-15T08:36:15Z</time>
      </trkpt>
      <trkpt lat="41.802385" lon="0.813458">
        <ele>222.015</ele>
        <time>1998-01-15T08:36:16Z</time>
      </trkpt>
      <trkpt lat="41.802398" lon="0.813651">
        <ele>222.208</ele>
        <time>1998-01-15T08:36:19Z</time>
      </trkpt>
      <trkpt lat="41.802429" lon="0.813980">
        <ele>222.875</ele>
        <time>1998-01-15T08:36:24Z</time>
      </trkpt>
      <trkpt lat="41.802459" lon="0.814305">
        <ele>223.245</ele>
        <time>1998-01-15T08:36:29Z</time>
      </trkpt>
      <trkpt lat="41.802486" lon="0.814694">
        <ele>224.076</ele>
        <time>1998-01-15T08:36:35Z</time>
      </trkpt>
      <trkpt lat="41.802530" lon="0.815428">
        <ele>223.898</ele>
        <time>1998-01-15T08:36:46Z</time>
      </trkpt>
      <trkpt lat="41.802534" lon="0.815564">
        <ele>223.896</ele>
        <time>1998-01-15T08:36:48Z</time>
      </trkpt>
      <trkpt lat="41.802567" lon="0.816238">
        <ele>222.853</ele>
        <time>1998-01-15T08:36:58Z</time>
      </trkpt>
      <trkpt lat="41.802569" lon="0.816836">
        <ele>222.470</ele>
        <time>1998-01-15T08:37:07Z</time>
      </trkpt>
      <trkpt lat="41.802593" lon="0.817434">
        <ele>222.621</ele>
        <time>1998-01-15T08:37:16Z</time>
      </trkpt>
      <trkpt lat="41.802616" lon="0.817980">
        <ele>222.212</ele>
        <time>1998-01-15T08:37:24Z</time>
      </trkpt>
      <trkpt lat="41.802622" lon="0.818194">
        <ele>222.032</ele>
        <time>1998-01-15T08:37:27Z</time>
      </trkpt>
      <trkpt lat="41.802658" lon="0.818889">
        <ele>222.205</ele>
        <time>1998-01-15T08:37:37Z</time>
      </trkpt>
      <trkpt lat="41.802687" lon="0.819367">
        <ele>222.208</ele>
        <time>1998-01-15T08:37:44Z</time>
      </trkpt>
      <trkpt lat="41.802702" lon="0.819431">
        <ele>222.433</ele>
        <time>1998-01-15T08:37:45Z</time>
      </trkpt>
      <trkpt lat="41.802824" lon="0.819657">
        <ele>222.843</ele>
        <time>1998-01-15T08:37:49Z</time>
      </trkpt>
      <trkpt lat="41.802904" lon="0.819760">
        <ele>223.474</ele>
        <time>1998-01-15T08:37:51Z</time>
      </trkpt>
      <trkpt lat="41.803060" lon="0.819976">
        <ele>224.626</ele>
        <time>1998-01-15T08:37:55Z</time>
      </trkpt>
      <trkpt lat="41.803096" lon="0.820030">
        <ele>224.614</ele>
        <time>1998-01-15T08:37:56Z</time>
      </trkpt>
      <trkpt lat="41.803310" lon="0.820461">
        <ele>225.631</ele>
        <time>1998-01-15T08:38:03Z</time>
      </trkpt>
      <trkpt lat="41.803488" lon="0.820893">
        <ele>226.668</ele>
        <time>1998-01-15T08:38:10Z</time>
      </trkpt>
      <trkpt lat="41.803543" lon="0.821098">
        <ele>227.049</ele>
        <time>1998-01-15T08:38:13Z</time>
      </trkpt>
      <trkpt lat="41.803559" lon="0.821304">
        <ele>227.213</ele>
        <time>1998-01-15T08:38:16Z</time>
      </trkpt>
      <trkpt lat="41.803550" lon="0.821584">
        <ele>227.443</ele>
        <time>1998-01-15T08:38:20Z</time>
      </trkpt>
      <trkpt lat="41.803537" lon="0.821792">
        <ele>227.007</ele>
        <time>1998-01-15T08:38:23Z</time>
      </trkpt>
      <trkpt lat="41.803541" lon="0.821922">
        <ele>227.008</ele>
        <time>1998-01-15T08:38:25Z</time>
      </trkpt>
      <trkpt lat="41.803565" lon="0.822086">
        <ele>227.613</ele>
        <time>1998-01-15T08:38:28Z</time>
      </trkpt>
      <trkpt lat="41.803581" lon="0.822133">
        <ele>227.883</ele>
        <time>1998-01-15T08:38:29Z</time>
      </trkpt>
      <trkpt lat="41.803718" lon="0.822304">
        <ele>228.294</ele>
        <time>1998-01-15T08:38:34Z</time>
      </trkpt>
      <trkpt lat="41.803981" lon="0.822338">
        <ele>228.286</ele>
        <time>1998-01-15T08:38:39Z</time>
      </trkpt>
      <trkpt lat="41.804431" lon="0.822448">
        <ele>228.054</ele>
        <time>1998-01-15T08:38:47Z</time>
      </trkpt>
      <trkpt lat="41.804985" lon="0.822616">
        <ele>228.261</ele>
        <time>1998-01-15T08:38:57Z</time>
      </trkpt>
      <trkpt lat="41.805038" lon="0.822633">
        <ele>228.268</ele>
        <time>1998-01-15T08:38:58Z</time>
      </trkpt>
      <trkpt lat="41.805497" lon="0.822824">
        <ele>227.839</ele>
        <time>1998-01-15T08:39:07Z</time>
      </trkpt>
      <trkpt lat="41.805706" lon="0.822997">
        <ele>228.024</ele>
        <time>1998-01-15T08:39:12Z</time>
      </trkpt>
      <trkpt lat="41.805751" lon="0.823105">
        <ele>228.004</ele>
        <time>1998-01-15T08:39:14Z</time>
      </trkpt>
      <trkpt lat="41.805849" lon="0.823429">
        <ele>228.414</ele>
        <time>1998-01-15T08:39:19Z</time>
      </trkpt>
      <trkpt lat="41.805901" lon="0.823555">
        <ele>228.808</ele>
        <time>1998-01-15T08:39:21Z</time>
      </trkpt>
      <trkpt lat="41.806120" lon="0.824052">
        <ele>229.464</ele>
        <time>1998-01-15T08:39:29Z</time>
      </trkpt>
      <trkpt lat="41.806385" lon="0.824759">
        <ele>229.614</ele>
        <time>1998-01-15T08:39:39Z</time>
      </trkpt>
      <trkpt lat="41.806666" lon="0.825351">
        <ele>229.295</ele>
        <time>1998-01-15T08:39:48Z</time>
      </trkpt>
      <trkpt lat="41.806947" lon="0.825837">
        <ele>229.657</ele>
        <time>1998-01-15T08:39:56Z</time>
      </trkpt>
      <trkpt lat="41.807063" lon="0.826013">
        <ele>229.815</ele>
        <time>1998-01-15T08:39:59Z</time>
      </trkpt>
      <trkpt lat="41.807192" lon="0.826167">
        <ele>229.672</ele>
        <time>1998-01-15T08:40:02Z</time>
      </trkpt>
      <trkpt lat="41.807609" lon="0.826605">
        <ele>230.029</ele>
        <time>1998-01-15T08:40:11Z</time>
      </trkpt>
      <trkpt lat="41.807662" lon="0.826641">
        <ele>230.030</ele>
        <time>1998-01-15T08:40:12Z</time>
      </trkpt>
      <trkpt lat="41.807929" lon="0.826848">
        <ele>229.412</ele>
        <time>1998-01-15T08:40:17Z</time>
      </trkpt>
      <trkpt lat="41.808183" lon="0.827059">
        <ele>229.232</ele>
        <time>1998-01-15T08:40:22Z</time>
      </trkpt>
      <trkpt lat="41.808291" lon="0.827114">
        <ele>229.405</ele>
        <time>1998-01-15T08:40:24Z</time>
      </trkpt>
      <trkpt lat="41.808765" lon="0.827348">
        <ele>229.608</ele>
        <time>1998-01-15T08:40:33Z</time>
      </trkpt>
      <trkpt lat="41.809318" lon="0.827610">
        <ele>229.883</ele>
        <time>1998-01-15T08:40:43Z</time>
      </trkpt>
      <trkpt lat="41.809801" lon="0.827823">
        <ele>230.293</ele>
        <time>1998-01-15T08:40:52Z</time>
      </trkpt>
      <trkpt lat="41.810142" lon="0.827972">
        <ele>230.874</ele>
        <time>1998-01-15T08:40:58Z</time>
      </trkpt>
      <trkpt lat="41.810367" lon="0.828081">
        <ele>230.876</ele>
        <time>1998-01-15T08:41:02Z</time>
      </trkpt>
      <trkpt lat="41.810864" lon="0.828305">
        <ele>231.424</ele>
        <time>1998-01-15T08:41:11Z</time>
      </trkpt>
      <trkpt lat="41.811406" lon="0.828555">
        <ele>231.621</ele>
        <time>1998-01-15T08:41:21Z</time>
      </trkpt>
      <trkpt lat="41.811459" lon="0.828583">
        <ele>231.878</ele>
        <time>1998-01-15T08:41:22Z</time>
      </trkpt>
      <trkpt lat="41.811623" lon="0.828653">
        <ele>231.869</ele>
        <time>1998-01-15T08:41:25Z</time>
      </trkpt>
      <trkpt lat="41.811997" lon="0.828823">
        <ele>232.274</ele>
        <time>1998-01-15T08:41:32Z</time>
      </trkpt>
      <trkpt lat="41.812524" lon="0.829058">
        <ele>232.056</ele>
        <time>1998-01-15T08:41:42Z</time>
      </trkpt>
      <trkpt lat="41.812576" lon="0.829083">
        <ele>232.021</ele>
        <time>1998-01-15T08:41:43Z</time>
      </trkpt>
      <trkpt lat="41.813112" lon="0.829325">
        <ele>232.608</ele>
        <time>1998-01-15T08:41:53Z</time>
      </trkpt>
      <trkpt lat="41.813168" lon="0.829352">
        <ele>232.849</ele>
        <time>1998-01-15T08:41:54Z</time>
      </trkpt>
      <trkpt lat="41.813684" lon="0.829595">
        <ele>232.829</ele>
        <time>1998-01-15T08:42:03Z</time>
      </trkpt>
      <trkpt lat="41.813794" lon="0.829665">
        <ele>232.890</ele>
        <time>1998-01-15T08:42:05Z</time>
      </trkpt>
      <trkpt lat="41.813992" lon="0.829857">
        <ele>232.422</ele>
        <time>1998-01-15T08:42:09Z</time>
      </trkpt>
      <trkpt lat="41.814038" lon="0.829912">
        <ele>232.450</ele>
        <time>1998-01-15T08:42:10Z</time>
      </trkpt>
      <trkpt lat="41.814434" lon="0.830392">
        <ele>232.857</ele>
        <time>1998-01-15T08:42:19Z</time>
      </trkpt>
      <trkpt lat="41.814740" lon="0.830719">
        <ele>233.484</ele>
        <time>1998-01-15T08:42:26Z</time>
      </trkpt>
      <trkpt lat="41.814788" lon="0.830754">
        <ele>233.825</ele>
        <time>1998-01-15T08:42:27Z</time>
      </trkpt>
      <trkpt lat="41.814836" lon="0.830785">
        <ele>234.217</ele>
        <time>1998-01-15T08:42:28Z</time>
      </trkpt>
      <trkpt lat="41.814988" lon="0.830873">
        <ele>235.287</ele>
        <time>1998-01-15T08:42:31Z</time>
      </trkpt>
      <trkpt lat="41.815039" lon="0.830904">
        <ele>235.415</ele>
        <time>1998-01-15T08:42:32Z</time>
      </trkpt>
      <trkpt lat="41.815199" lon="0.831005">
        <ele>236.808</ele>
        <time>1998-01-15T08:42:35Z</time>
      </trkpt>
      <trkpt lat="41.815367" lon="0.831111">
        <ele>238.223</ele>
        <time>1998-01-15T08:42:38Z</time>
      </trkpt>
      <trkpt lat="41.815426" lon="0.831144">
        <ele>238.633</ele>
        <time>1998-01-15T08:42:39Z</time>
      </trkpt>
      <trkpt lat="41.815535" lon="0.831206">
        <ele>239.214</ele>
        <time>1998-01-15T08:42:41Z</time>
      </trkpt>
      <trkpt lat="41.815689" lon="0.831299">
        <ele>240.296</ele>
        <time>1998-01-15T08:42:44Z</time>
      </trkpt>
      <trkpt lat="41.815751" lon="0.831326">
        <ele>240.044</ele>
        <time>1998-01-15T08:42:45Z</time>
      </trkpt>
      <trkpt lat="41.815952" lon="0.831344">
        <ele>240.081</ele>
        <time>1998-01-15T08:42:48Z</time>
      </trkpt>
      <trkpt lat="41.816436" lon="0.831325">
        <ele>238.638</ele>
        <time>1998-01-15T08:42:55Z</time>
      </trkpt>
      <trkpt lat="41.816963" lon="0.831263">
        <ele>238.619</ele>
        <time>1998-01-15T08:43:03Z</time>
      </trkpt>
      <trkpt lat="41.817149" lon="0.831200">
        <ele>238.294</ele>
        <time>1998-01-15T08:43:06Z</time>
      </trkpt>
      <trkpt lat="41.817208" lon="0.831164">
        <ele>238.257</ele>
        <time>1998-01-15T08:43:07Z</time>
      </trkpt>
      <trkpt lat="41.817268" lon="0.831129">
        <ele>238.022</ele>
        <time>1998-01-15T08:43:08Z</time>
      </trkpt>
      <trkpt lat="41.817757" lon="0.830888">
        <ele>237.608</ele>
        <time>1998-01-15T08:43:16Z</time>
      </trkpt>
      <trkpt lat="41.818006" lon="0.830785">
        <ele>237.071</ele>
        <time>1998-01-15T08:43:20Z</time>
      </trkpt>
      <trkpt lat="41.818369" lon="0.830622">
        <ele>236.051</ele>
        <time>1998-01-15T08:43:26Z</time>
      </trkpt>
      <trkpt lat="41.818689" lon="0.830593">
        <ele>235.292</ele>
        <time>1998-01-15T08:43:31Z</time>
      </trkpt>
      <trkpt lat="41.818813" lon="0.830593">
        <ele>234.844</ele>
        <time>1998-01-15T08:43:33Z</time>
      </trkpt>
      <trkpt lat="41.819189" lon="0.830593">
        <ele>234.432</ele>
        <time>1998-01-15T08:43:39Z</time>
      </trkpt>
      <trkpt lat="41.819634" lon="0.830581">
        <ele>233.899</ele>
        <time>1998-01-15T08:43:46Z</time>
      </trkpt>
      <trkpt lat="41.819818" lon="0.830576">
        <ele>233.416</ele>
        <time>1998-01-15T08:43:49Z</time>
      </trkpt>
      <trkpt lat="41.820295" lon="0.830546">
        <ele>233.457</ele>
        <time>1998-01-15T08:43:57Z</time>
      </trkpt>
      <trkpt lat="41.820652" lon="0.830502">
        <ele>232.619</ele>
        <time>1998-01-15T08:44:03Z</time>
      </trkpt>
      <trkpt lat="41.820838" lon="0.830480">
        <ele>231.809</ele>
        <time>1998-01-15T08:44:06Z</time>
      </trkpt>
      <trkpt lat="41.820901" lon="0.830475">
        <ele>231.419</ele>
        <time>1998-01-15T08:44:07Z</time>
      </trkpt>
      <trkpt lat="41.821206" lon="0.830456">
        <ele>230.408</ele>
        <time>1998-01-15T08:44:12Z</time>
      </trkpt>
      <trkpt lat="41.821332" lon="0.830448">
        <ele>230.233</ele>
        <time>1998-01-15T08:44:14Z</time>
      </trkpt>
      <trkpt lat="41.821663" lon="0.830421">
        <ele>229.273</ele>
        <time>1998-01-15T08:44:19Z</time>
      </trkpt>
      <trkpt lat="41.821925" lon="0.830414">
        <ele>228.634</ele>
        <time>1998-01-15T08:44:23Z</time>
      </trkpt>
      <trkpt lat="41.821990" lon="0.830417">
        <ele>228.236</ele>
        <time>1998-01-15T08:44:24Z</time>
      </trkpt>
      <trkpt lat="41.822258" lon="0.830472">
        <ele>227.684</ele>
        <time>1998-01-15T08:44:28Z</time>
      </trkpt>
      <trkpt lat="41.822321" lon="0.830511">
        <ele>227.651</ele>
        <time>1998-01-15T08:44:29Z</time>
      </trkpt>
      <trkpt lat="41.822726" lon="0.830826">
        <ele>227.618</ele>
        <time>1998-01-15T08:44:36Z</time>
      </trkpt>
      <trkpt lat="41.823126" lon="0.831132">
        <ele>228.289</ele>
        <time>1998-01-15T08:44:43Z</time>
      </trkpt>
      <trkpt lat="41.823424" lon="0.831279">
        <ele>227.847</ele>
        <time>1998-01-15T08:44:48Z</time>
      </trkpt>
      <trkpt lat="41.823488" lon="0.831286">
        <ele>227.829</ele>
        <time>1998-01-15T08:44:49Z</time>
      </trkpt>
      <trkpt lat="41.823738" lon="0.831294">
        <ele>227.221</ele>
        <time>1998-01-15T08:44:53Z</time>
      </trkpt>
      <trkpt lat="41.823921" lon="0.831324">
        <ele>227.208</ele>
        <time>1998-01-15T08:44:56Z</time>
      </trkpt>
      <trkpt lat="41.823980" lon="0.831350">
        <ele>227.226</ele>
        <time>1998-01-15T08:44:57Z</time>
      </trkpt>
      <trkpt lat="41.824213" lon="0.831460">
        <ele>227.296</ele>
        <time>1998-01-15T08:45:01Z</time>
      </trkpt>
      <trkpt lat="41.824392" lon="0.831521">
        <ele>227.057</ele>
        <time>1998-01-15T08:45:04Z</time>
      </trkpt>
      <trkpt lat="41.824522" lon="0.831518">
        <ele>226.869</ele>
        <time>1998-01-15T08:45:06Z</time>
      </trkpt>
      <trkpt lat="41.824710" lon="0.831453">
        <ele>227.217</ele>
        <time>1998-01-15T08:45:09Z</time>
      </trkpt>
      <trkpt lat="41.824831" lon="0.831398">
        <ele>227.294</ele>
        <time>1998-01-15T08:45:11Z</time>
      </trkpt>
      <trkpt lat="41.825010" lon="0.831309">
        <ele>227.291</ele>
        <time>1998-01-15T08:45:14Z</time>
      </trkpt>
      <trkpt lat="41.825131" lon="0.831294">
        <ele>227.032</ele>
        <time>1998-01-15T08:45:16Z</time>
      </trkpt>
      <trkpt lat="41.825421" lon="0.831349">
        <ele>227.429</ele>
        <time>1998-01-15T08:45:21Z</time>
      </trkpt>
      <trkpt lat="41.825476" lon="0.831378">
        <ele>227.600</ele>
        <time>1998-01-15T08:45:22Z</time>
      </trkpt>
      <trkpt lat="41.825708" lon="0.831472">
        <ele>227.620</ele>
        <time>1998-01-15T08:45:26Z</time>
      </trkpt>
      <trkpt lat="41.826054" lon="0.831523">
        <ele>228.008</ele>
        <time>1998-01-15T08:45:32Z</time>
      </trkpt>
      <trkpt lat="41.826105" lon="0.831536">
        <ele>228.434</ele>
        <time>1998-01-15T08:45:33Z</time>
      </trkpt>
      <trkpt lat="41.826260" lon="0.831586">
        <ele>229.074</ele>
        <time>1998-01-15T08:45:36Z</time>
      </trkpt>
      <trkpt lat="41.826359" lon="0.831654">
        <ele>229.285</ele>
        <time>1998-01-15T08:45:38Z</time>
      </trkpt>
      <trkpt lat="41.826568" lon="0.831798">
        <ele>229.657</ele>
        <time>1998-01-15T08:45:42Z</time>
      </trkpt>
      <trkpt lat="41.826828" lon="0.831974">
        <ele>230.695</ele>
        <time>1998-01-15T08:45:47Z</time>
      </trkpt>
      <trkpt lat="41.827260" lon="0.832214">
        <ele>231.022</ele>
        <time>1998-01-15T08:45:55Z</time>
      </trkpt>
      <trkpt lat="41.827435" lon="0.832255">
        <ele>231.059</ele>
        <time>1998-01-15T08:45:58Z</time>
      </trkpt>
      <trkpt lat="41.827616" lon="0.832266">
        <ele>230.890</ele>
        <time>1998-01-15T08:46:01Z</time>
      </trkpt>
      <trkpt lat="41.828149" lon="0.832272">
        <ele>231.288</ele>
        <time>1998-01-15T08:46:10Z</time>
      </trkpt>
      <trkpt lat="41.828560" lon="0.832195">
        <ele>231.024</ele>
        <time>1998-01-15T08:46:17Z</time>
      </trkpt>
      <trkpt lat="41.828842" lon="0.832103">
        <ele>231.826</ele>
        <time>1998-01-15T08:46:22Z</time>
      </trkpt>
      <trkpt lat="41.828950" lon="0.832067">
        <ele>231.808</ele>
        <time>1998-01-15T08:46:24Z</time>
      </trkpt>
      <trkpt lat="41.829289" lon="0.831954">
        <ele>232.670</ele>
        <time>1998-01-15T08:46:30Z</time>
      </trkpt>
      <trkpt lat="41.829353" lon="0.831937">
        <ele>232.850</ele>
        <time>1998-01-15T08:46:31Z</time>
      </trkpt>
      <trkpt lat="41.829847" lon="0.831829">
        <ele>232.211</ele>
        <time>1998-01-15T08:46:39Z</time>
      </trkpt>
      <trkpt lat="41.830181" lon="0.831780">
        <ele>233.063</ele>
        <time>1998-01-15T08:46:45Z</time>
      </trkpt>
      <trkpt lat="41.830225" lon="0.831789">
        <ele>233.441</ele>
        <time>1998-01-15T08:46:46Z</time>
      </trkpt>
      <trkpt lat="41.830347" lon="0.831796">
        <ele>234.038</ele>
        <time>1998-01-15T08:46:49Z</time>
      </trkpt>
      <trkpt lat="41.830467" lon="0.831806">
        <ele>235.245</ele>
        <time>1998-01-15T08:46:52Z</time>
      </trkpt>
      <trkpt lat="41.830643" lon="0.831818">
        <ele>236.216</ele>
        <time>1998-01-15T08:46:56Z</time>
      </trkpt>
      <trkpt lat="41.830783" lon="0.831826">
        <ele>236.898</ele>
        <time>1998-01-15T08:46:59Z</time>
      </trkpt>
      <trkpt lat="41.830872" lon="0.831835">
        <ele>237.415</ele>
        <time>1998-01-15T08:47:01Z</time>
      </trkpt>
      <trkpt lat="41.831064" lon="0.831846">
        <ele>238.426</ele>
        <time>1998-01-15T08:47:05Z</time>
      </trkpt>
      <trkpt lat="41.831112" lon="0.831848">
        <ele>238.608</ele>
        <time>1998-01-15T08:47:06Z</time>
      </trkpt>
      <trkpt lat="41.831548" lon="0.831887">
        <ele>239.631</ele>
        <time>1998-01-15T08:47:15Z</time>
      </trkpt>
      <trkpt lat="41.831881" lon="0.831941">
        <ele>239.861</ele>
        <time>1998-01-15T08:47:22Z</time>
      </trkpt>
      <trkpt lat="41.832306" lon="0.831977">
        <ele>238.632</ele>
        <time>1998-01-15T08:47:30Z</time>
      </trkpt>
      <trkpt lat="41.832361" lon="0.831998">
        <ele>238.224</ele>
        <time>1998-01-15T08:47:31Z</time>
      </trkpt>
      <trkpt lat="41.832487" lon="0.832165">
        <ele>237.442</ele>
        <time>1998-01-15T08:47:34Z</time>
      </trkpt>
      <trkpt lat="41.832505" lon="0.832248">
        <ele>237.019</ele>
        <time>1998-01-15T08:47:35Z</time>
      </trkpt>
      <trkpt lat="41.832521" lon="0.832425">
        <ele>236.446</ele>
        <time>1998-01-15T08:47:37Z</time>
      </trkpt>
      <trkpt lat="41.832537" lon="0.832512">
        <ele>236.227</ele>
        <time>1998-01-15T08:47:38Z</time>
      </trkpt>
      <trkpt lat="41.832566" lon="0.832599">
        <ele>235.898</ele>
        <time>1998-01-15T08:47:39Z</time>
      </trkpt>
      <trkpt lat="41.832608" lon="0.832681">
        <ele>235.615</ele>
        <time>1998-01-15T08:47:40Z</time>
      </trkpt>
      <trkpt lat="41.832719" lon="0.832848">
        <ele>234.626</ele>
        <time>1998-01-15T08:47:42Z</time>
      </trkpt>
      <trkpt lat="41.832818" lon="0.833039">
        <ele>233.608</ele>
        <time>1998-01-15T08:47:44Z</time>
      </trkpt>
      <trkpt lat="41.832854" lon="0.833141">
        <ele>233.461</ele>
        <time>1998-01-15T08:47:45Z</time>
      </trkpt>
      <trkpt lat="41.832964" lon="0.833411">
        <ele>232.691</ele>
        <time>1998-01-15T08:47:48Z</time>
      </trkpt>
      <trkpt lat="41.833123" lon="0.833878">
        <ele>233.072</ele>
        <time>1998-01-15T08:47:54Z</time>
      </trkpt>
      <trkpt lat="41.833296" lon="0.834393">
        <ele>234.024</ele>
        <time>1998-01-15T08:48:02Z</time>
      </trkpt>
      <trkpt lat="41.833400" lon="0.834447">
        <ele>234.482</ele>
        <time>1998-01-15T08:48:05Z</time>
      </trkpt>
      <trkpt lat="41.833440" lon="0.834438">
        <ele>234.439</ele>
        <time>1998-01-15T08:48:06Z</time>
      </trkpt>
      <trkpt lat="41.833544" lon="0.834390">
        <ele>235.846</ele>
        <time>1998-01-15T08:48:09Z</time>
      </trkpt>
      <trkpt lat="41.833596" lon="0.834368">
        <ele>236.687</ele>
        <time>1998-01-15T08:48:11Z</time>
      </trkpt>
      <trkpt lat="41.833614" lon="0.834353">
        <ele>237.262</ele>
        <time>1998-01-15T08:48:12Z</time>
      </trkpt>
      <trkpt lat="41.833665" lon="0.834341">
        <ele>238.683</ele>
        <time>1998-01-15T08:48:15Z</time>
      </trkpt>
      <trkpt lat="41.833677" lon="0.834332">
        <ele>239.011</ele>
        <time>1998-01-15T08:48:16Z</time>
      </trkpt>
      <trkpt lat="41.833699" lon="0.834306">
        <ele>239.608</ele>
        <time>1998-01-15T08:48:18Z</time>
      </trkpt>
      <trkpt lat="41.833730" lon="0.834258">
        <ele>240.898</ele>
        <time>1998-01-15T08:48:21Z</time>
      </trkpt>
      <trkpt lat="41.833739" lon="0.834245">
        <ele>241.028</ele>
        <time>1998-01-15T08:48:22Z</time>
      </trkpt>
      <trkpt lat="41.833748" lon="0.834231">
        <ele>241.299</ele>
        <time>1998-01-15T08:48:23Z</time>
      </trkpt>
      <trkpt lat="41.833753" lon="0.834213">
        <ele>241.451</ele>
        <time>1998-01-15T08:48:24Z</time>
      </trkpt>
      <trkpt lat="41.833769" lon="0.834166">
        <ele>241.839</ele>
        <time>1998-01-15T08:48:26Z</time>
      </trkpt>
      <trkpt lat="41.833786" lon="0.834095">
        <ele>242.286</ele>
        <time>1998-01-15T08:48:28Z</time>
      </trkpt>
      <trkpt lat="41.833838" lon="0.833843">
        <ele>242.423</ele>
        <time>1998-01-15T08:48:33Z</time>
      </trkpt>
      <trkpt lat="41.833910" lon="0.833470">
        <ele>242.274</ele>
        <time>1998-01-15T08:48:40Z</time>
      </trkpt>
      <trkpt lat="41.833989" lon="0.833258">
        <ele>242.226</ele>
        <time>1998-01-15T08:48:45Z</time>
      </trkpt>
      <trkpt lat="41.834142" lon="0.833080">
        <ele>242.247</ele>
        <time>1998-01-15T08:48:51Z</time>
      </trkpt>
      <trkpt lat="41.834300" lon="0.832906">
        <ele>241.811</ele>
        <time>1998-01-15T08:48:56Z</time>
      </trkpt>
      <trkpt lat="41.834458" lon="0.832770">
        <ele>241.608</ele>
        <time>1998-01-15T08:49:01Z</time>
      </trkpt>
      <trkpt lat="41.834681" lon="0.832580">
        <ele>241.254</ele>
        <time>1998-01-15T08:49:07Z</time>
      </trkpt>
      <trkpt lat="41.834871" lon="0.832410">
        <ele>241.884</ele>
        <time>1998-01-15T08:49:13Z</time>
      </trkpt>
      <trkpt lat="41.835038" lon="0.832272">
        <ele>241.655</ele>
        <time>1998-01-15T08:49:18Z</time>
      </trkpt>
      <trkpt lat="41.835282" lon="0.832103">
        <ele>242.097</ele>
        <time>1998-01-15T08:49:24Z</time>
      </trkpt>
      <trkpt lat="41.835328" lon="0.832077">
        <ele>241.825</ele>
        <time>1998-01-15T08:49:25Z</time>
      </trkpt>
      <trkpt lat="41.835623" lon="0.831870">
        <ele>242.242</ele>
        <time>1998-01-15T08:49:31Z</time>
      </trkpt>
      <trkpt lat="41.835678" lon="0.831841">
        <ele>242.279</ele>
        <time>1998-01-15T08:49:32Z</time>
      </trkpt>
      <trkpt lat="41.835909" lon="0.831732">
        <ele>242.410</ele>
        <time>1998-01-15T08:49:36Z</time>
      </trkpt>
      <trkpt lat="41.836019" lon="0.831711">
        <ele>242.678</ele>
        <time>1998-01-15T08:49:38Z</time>
      </trkpt>
      <trkpt lat="41.836213" lon="0.831670">
        <ele>243.033</ele>
        <time>1998-01-15T08:49:42Z</time>
      </trkpt>
      <trkpt lat="41.836309" lon="0.831657">
        <ele>243.026</ele>
        <time>1998-01-15T08:49:44Z</time>
      </trkpt>
      <trkpt lat="41.836611" lon="0.831642">
        <ele>243.808</ele>
        <time>1998-01-15T08:49:50Z</time>
      </trkpt>
      <trkpt lat="41.836766" lon="0.831672">
        <ele>244.039</ele>
        <time>1998-01-15T08:49:53Z</time>
      </trkpt>
      <trkpt lat="41.836928" lon="0.831710">
        <ele>244.619</ele>
        <time>1998-01-15T08:49:56Z</time>
      </trkpt>
      <trkpt lat="41.837338" lon="0.831718">
        <ele>244.680</ele>
        <time>1998-01-15T08:50:03Z</time>
      </trkpt>
      <trkpt lat="41.837704" lon="0.831733">
        <ele>245.252</ele>
        <time>1998-01-15T08:50:10Z</time>
      </trkpt>
      <trkpt lat="41.838130" lon="0.831760">
        <ele>246.290</ele>
        <time>1998-01-15T08:50:19Z</time>
      </trkpt>
      <trkpt lat="41.838436" lon="0.831772">
        <ele>247.277</ele>
        <time>1998-01-15T08:50:26Z</time>
      </trkpt>
      <trkpt lat="41.838481" lon="0.831767">
        <ele>247.444</ele>
        <time>1998-01-15T08:50:27Z</time>
      </trkpt>
      <trkpt lat="41.838602" lon="0.831750">
        <ele>247.645</ele>
        <time>1998-01-15T08:50:31Z</time>
      </trkpt>
      <trkpt lat="41.838704" lon="0.831681">
        <ele>247.691</ele>
        <time>1998-01-15T08:50:37Z</time>
      </trkpt>
      <trkpt lat="41.838835" lon="0.831608">
        <ele>248.281</ele>
        <time>1998-01-15T08:50:41Z</time>
      </trkpt>
      <trkpt lat="41.838874" lon="0.831584">
        <ele>248.219</ele>
        <time>1998-01-15T08:50:42Z</time>
      </trkpt>
      <trkpt lat="41.839030" lon="0.831522">
        <ele>248.808</ele>
        <time>1998-01-15T08:50:46Z</time>
      </trkpt>
      <trkpt lat="41.839072" lon="0.831505">
        <ele>248.811</ele>
        <time>1998-01-15T08:50:47Z</time>
      </trkpt>
      <trkpt lat="41.839154" lon="0.831483">
        <ele>248.811</ele>
        <time>1998-01-15T08:50:49Z</time>
      </trkpt>
      <trkpt lat="41.839328" lon="0.831478">
        <ele>249.282</ele>
        <time>1998-01-15T08:50:53Z</time>
      </trkpt>
      <trkpt lat="41.839373" lon="0.831475">
        <ele>249.444</ele>
        <time>1998-01-15T08:50:54Z</time>
      </trkpt>
      <trkpt lat="41.839678" lon="0.831445">
        <ele>250.282</ele>
        <time>1998-01-15T08:51:01Z</time>
      </trkpt>
      <trkpt lat="41.839917" lon="0.831393">
        <ele>250.219</ele>
        <time>1998-01-15T08:51:06Z</time>
      </trkpt>
      <trkpt lat="41.840053" lon="0.831354">
        <ele>250.256</ele>
        <time>1998-01-15T08:51:09Z</time>
      </trkpt>
      <trkpt lat="41.840200" lon="0.831286">
        <ele>249.417</ele>
        <time>1998-01-15T08:51:12Z</time>
      </trkpt>
      <trkpt lat="41.840364" lon="0.831184">
        <ele>248.291</ele>
        <time>1998-01-15T08:51:15Z</time>
      </trkpt>
      <trkpt lat="41.840444" lon="0.831084">
        <ele>247.281</ele>
        <time>1998-01-15T08:51:17Z</time>
      </trkpt>
      <trkpt lat="41.840471" lon="0.831035">
        <ele>246.419</ele>
        <time>1998-01-15T08:51:18Z</time>
      </trkpt>
      <trkpt lat="41.840501" lon="0.830908">
        <ele>245.008</ele>
        <time>1998-01-15T08:51:20Z</time>
      </trkpt>
      <trkpt lat="41.840495" lon="0.830835">
        <ele>244.271</ele>
        <time>1998-01-15T08:51:21Z</time>
      </trkpt>
      <trkpt lat="41.840478" lon="0.830768">
        <ele>243.651</ele>
        <time>1998-01-15T08:51:22Z</time>
      </trkpt>
      <trkpt lat="41.840490" lon="0.830662">
        <ele>242.462</ele>
        <time>1998-01-15T08:51:24Z</time>
      </trkpt>
      <trkpt lat="41.840600" lon="0.830571">
        <ele>241.234</ele>
        <time>1998-01-15T08:51:27Z</time>
      </trkpt>
      <trkpt lat="41.840922" lon="0.830347">
        <ele>240.432</ele>
        <time>1998-01-15T08:51:34Z</time>
      </trkpt>
      <trkpt lat="41.841091" lon="0.830228">
        <ele>241.219</ele>
        <time>1998-01-15T08:51:39Z</time>
      </trkpt>
      <trkpt lat="41.841279" lon="0.830094">
        <ele>242.246</ele>
        <time>1998-01-15T08:51:44Z</time>
      </trkpt>
      <trkpt lat="41.841360" lon="0.830030">
        <ele>242.247</ele>
        <time>1998-01-15T08:51:46Z</time>
      </trkpt>
      <trkpt lat="41.841722" lon="0.829772">
        <ele>242.876</ele>
        <time>1998-01-15T08:51:54Z</time>
      </trkpt>
      <trkpt lat="41.842107" lon="0.829499">
        <ele>243.290</ele>
        <time>1998-01-15T08:52:02Z</time>
      </trkpt>
      <trkpt lat="41.842157" lon="0.829463">
        <ele>243.419</ele>
        <time>1998-01-15T08:52:03Z</time>
      </trkpt>
      <trkpt lat="41.842557" lon="0.829192">
        <ele>243.008</ele>
        <time>1998-01-15T08:52:11Z</time>
      </trkpt>
      <trkpt lat="41.843020" lon="0.828868">
        <ele>243.099</ele>
        <time>1998-01-15T08:52:20Z</time>
      </trkpt>
      <trkpt lat="41.843444" lon="0.828589">
        <ele>242.869</ele>
        <time>1998-01-15T08:52:28Z</time>
      </trkpt>
      <trkpt lat="41.843707" lon="0.828406">
        <ele>242.240</ele>
        <time>1998-01-15T08:52:33Z</time>
      </trkpt>
      <trkpt lat="41.843812" lon="0.828325">
        <ele>242.052</ele>
        <time>1998-01-15T08:52:35Z</time>
      </trkpt>
      <trkpt lat="41.844101" lon="0.828157">
        <ele>241.090</ele>
        <time>1998-01-15T08:52:40Z</time>
      </trkpt>
      <trkpt lat="41.844170" lon="0.828133">
        <ele>240.657</ele>
        <time>1998-01-15T08:52:41Z</time>
      </trkpt>
      <trkpt lat="41.844242" lon="0.828120">
        <ele>240.284</ele>
        <time>1998-01-15T08:52:42Z</time>
      </trkpt>
      <trkpt lat="41.844313" lon="0.828120">
        <ele>239.865</ele>
        <time>1998-01-15T08:52:43Z</time>
      </trkpt>
      <trkpt lat="41.844443" lon="0.828158">
        <ele>239.218</ele>
        <time>1998-01-15T08:52:45Z</time>
      </trkpt>
      <trkpt lat="41.844562" lon="0.828217">
        <ele>238.898</ele>
        <time>1998-01-15T08:52:47Z</time>
      </trkpt>
      <trkpt lat="41.844766" lon="0.828340">
        <ele>238.617</ele>
        <time>1998-01-15T08:52:51Z</time>
      </trkpt>
      <trkpt lat="41.844859" lon="0.828398">
        <ele>238.408</ele>
        <time>1998-01-15T08:52:53Z</time>
      </trkpt>
      <trkpt lat="41.845035" lon="0.828490">
        <ele>238.443</ele>
        <time>1998-01-15T08:52:57Z</time>
      </trkpt>
      <trkpt lat="41.845272" lon="0.828601">
        <ele>239.643</ele>
        <time>1998-01-15T08:53:03Z</time>
      </trkpt>
      <trkpt lat="41.845531" lon="0.828754">
        <ele>239.684</ele>
        <time>1998-01-15T08:53:09Z</time>
      </trkpt>
      <trkpt lat="41.845623" lon="0.828824">
        <ele>239.866</ele>
        <time>1998-01-15T08:53:11Z</time>
      </trkpt>
      <trkpt lat="41.845941" lon="0.829081">
        <ele>239.694</ele>
        <time>1998-01-15T08:53:18Z</time>
      </trkpt>
      <trkpt lat="41.846341" lon="0.829383">
        <ele>240.211</ele>
        <time>1998-01-15T08:53:27Z</time>
      </trkpt>
      <trkpt lat="41.846696" lon="0.829677">
        <ele>240.898</ele>
        <time>1998-01-15T08:53:35Z</time>
      </trkpt>
      <trkpt lat="41.847018" lon="0.830062">
        <ele>241.229</ele>
        <time>1998-01-15T08:53:43Z</time>
      </trkpt>
      <trkpt lat="41.847259" lon="0.830438">
        <ele>241.457</ele>
        <time>1998-01-15T08:53:50Z</time>
      </trkpt>
      <trkpt lat="41.847293" lon="0.830496">
        <ele>241.400</ele>
        <time>1998-01-15T08:53:51Z</time>
      </trkpt>
      <trkpt lat="41.847487" lon="0.830854">
        <ele>241.820</ele>
        <time>1998-01-15T08:53:57Z</time>
      </trkpt>
      <trkpt lat="41.847517" lon="0.830918">
        <ele>242.008</ele>
        <time>1998-01-15T08:53:58Z</time>
      </trkpt>
      <trkpt lat="41.847715" lon="0.831365">
        <ele>242.047</ele>
        <time>1998-01-15T08:54:05Z</time>
      </trkpt>
      <trkpt lat="41.847904" lon="0.831803">
        <ele>242.487</ele>
        <time>1998-01-15T08:54:12Z</time>
      </trkpt>
      <trkpt lat="41.848101" lon="0.832235">
        <ele>242.868</ele>
        <time>1998-01-15T08:54:19Z</time>
      </trkpt>
      <trkpt lat="41.848302" lon="0.832676">
        <ele>242.620</ele>
        <time>1998-01-15T08:54:26Z</time>
      </trkpt>
      <trkpt lat="41.848538" lon="0.833231">
        <ele>242.838</ele>
        <time>1998-01-15T08:54:35Z</time>
      </trkpt>
      <trkpt lat="41.848592" lon="0.833360">
        <ele>243.275</ele>
        <time>1998-01-15T08:54:37Z</time>
      </trkpt>
      <trkpt lat="41.848710" lon="0.833602">
        <ele>243.042</ele>
        <time>1998-01-15T08:54:41Z</time>
      </trkpt>
      <trkpt lat="41.848761" lon="0.833726">
        <ele>242.473</ele>
        <time>1998-01-15T08:54:43Z</time>
      </trkpt>
      <trkpt lat="41.848782" lon="0.833791">
        <ele>242.057</ele>
        <time>1998-01-15T08:54:44Z</time>
      </trkpt>
      <trkpt lat="41.848810" lon="0.833851">
        <ele>242.000</ele>
        <time>1998-01-15T08:54:45Z</time>
      </trkpt>
      <trkpt lat="41.848890" lon="0.834029">
        <ele>242.620</ele>
        <time>1998-01-15T08:54:48Z</time>
      </trkpt>
      <trkpt lat="41.848983" lon="0.834196">
        <ele>243.008</ele>
        <time>1998-01-15T08:54:51Z</time>
      </trkpt>
      <trkpt lat="41.849090" lon="0.834355">
        <ele>242.617</ele>
        <time>1998-01-15T08:54:54Z</time>
      </trkpt>
      <trkpt lat="41.849135" lon="0.834398">
        <ele>242.627</ele>
        <time>1998-01-15T08:54:55Z</time>
      </trkpt>
      <trkpt lat="41.849417" lon="0.834623">
        <ele>242.238</ele>
        <time>1998-01-15T08:55:01Z</time>
      </trkpt>
      <trkpt lat="41.849461" lon="0.834664">
        <ele>242.220</ele>
        <time>1998-01-15T08:55:02Z</time>
      </trkpt>
      <trkpt lat="41.849505" lon="0.834704">
        <ele>242.078</ele>
        <time>1998-01-15T08:55:03Z</time>
      </trkpt>
      <trkpt lat="41.849683" lon="0.834890">
        <ele>241.835</ele>
        <time>1998-01-15T08:55:07Z</time>
      </trkpt>
      <trkpt lat="41.849989" lon="0.835177">
        <ele>241.472</ele>
        <time>1998-01-15T08:55:14Z</time>
      </trkpt>
      <trkpt lat="41.850364" lon="0.835439">
        <ele>241.223</ele>
        <time>1998-01-15T08:55:22Z</time>
      </trkpt>
      <trkpt lat="41.850711" lon="0.835564">
        <ele>241.654</ele>
        <time>1998-01-15T08:55:29Z</time>
      </trkpt>
      <trkpt lat="41.851048" lon="0.835635">
        <ele>241.856</ele>
        <time>1998-01-15T08:55:36Z</time>
      </trkpt>
      <trkpt lat="41.851232" lon="0.835691">
        <ele>241.811</ele>
        <time>1998-01-15T08:55:40Z</time>
      </trkpt>
      <trkpt lat="41.851306" lon="0.835759">
        <ele>241.408</ele>
        <time>1998-01-15T08:55:42Z</time>
      </trkpt>
      <trkpt lat="41.851357" lon="0.835739">
        <ele>241.437</ele>
        <time>1998-01-15T08:55:45Z</time>
      </trkpt>
      <trkpt lat="41.851410" lon="0.835704">
        <ele>241.847</ele>
        <time>1998-01-15T08:55:49Z</time>
      </trkpt>
      <trkpt lat="41.851463" lon="0.835764">
        <ele>241.888</ele>
        <time>1998-01-15T08:55:52Z</time>
      </trkpt>
      <trkpt lat="41.851489" lon="0.835796">
        <ele>242.080</ele>
        <time>1998-01-15T08:55:53Z</time>
      </trkpt>
      <trkpt lat="41.851580" lon="0.835938">
        <ele>242.028</ele>
        <time>1998-01-15T08:55:56Z</time>
      </trkpt>
      <trkpt lat="41.851605" lon="0.835991">
        <ele>242.035</ele>
        <time>1998-01-15T08:55:57Z</time>
      </trkpt>
      <trkpt lat="41.851637" lon="0.836046">
        <ele>242.062</ele>
        <time>1998-01-15T08:55:58Z</time>
      </trkpt>
      <trkpt lat="41.851681" lon="0.836152">
        <ele>242.493</ele>
        <time>1998-01-15T08:56:01Z</time>
      </trkpt>
      <trkpt lat="41.851696" lon="0.836199">
        <ele>243.291</ele>
        <time>1998-01-15T08:56:03Z</time>
      </trkpt>
      <trkpt lat="41.851710" lon="0.836220">
        <ele>243.481</ele>
        <time>1998-01-15T08:56:04Z</time>
      </trkpt>
      <trkpt lat="41.851732" lon="0.836251">
        <ele>244.219</ele>
        <time>1998-01-15T08:56:06Z</time>
      </trkpt>
      <trkpt lat="41.851751" lon="0.836272">
        <ele>244.608</ele>
        <time>1998-01-15T08:56:07Z</time>
      </trkpt>
      <trkpt lat="41.851824" lon="0.836319">
        <ele>245.621</ele>
        <time>1998-01-15T08:56:11Z</time>
      </trkpt>
      <trkpt lat="41.851908" lon="0.836372">
        <ele>246.071</ele>
        <time>1998-01-15T08:56:16Z</time>
      </trkpt>
      <trkpt lat="41.851967" lon="0.836413">
        <ele>246.812</ele>
        <time>1998-01-15T08:56:20Z</time>
      </trkpt>
      <trkpt lat="41.851981" lon="0.836423">
        <ele>246.854</ele>
        <time>1998-01-15T08:56:21Z</time>
      </trkpt>
      <trkpt lat="41.852028" lon="0.836504">
        <ele>247.832</ele>
        <time>1998-01-15T08:56:26Z</time>
      </trkpt>
      <trkpt lat="41.852111" lon="0.836649">
        <ele>248.889</ele>
        <time>1998-01-15T08:56:31Z</time>
      </trkpt>
      <trkpt lat="41.852121" lon="0.836674">
        <ele>249.026</ele>
        <time>1998-01-15T08:56:32Z</time>
      </trkpt>
      <trkpt lat="41.852314" lon="0.837038">
        <ele>241.237</ele>
        <time>1998-01-15T08:57:49Z</time>
      </trkpt>
      <trkpt lat="41.852375" lon="0.836981">
        <ele>242.454</ele>
        <time>1998-01-15T08:57:53Z</time>
      </trkpt>
      <trkpt lat="41.852407" lon="0.836940">
        <ele>243.256</ele>
        <time>1998-01-15T08:57:55Z</time>
      </trkpt>
      <trkpt lat="41.852424" lon="0.836919">
        <ele>243.611</ele>
        <time>1998-01-15T08:57:56Z</time>
      </trkpt>
      <trkpt lat="41.852522" lon="0.836826">
        <ele>243.408</ele>
        <time>1998-01-15T08:58:01Z</time>
      </trkpt>
      <trkpt lat="41.852652" lon="0.836684">
        <ele>244.437</ele>
        <time>1998-01-15T08:58:07Z</time>
      </trkpt>
      <trkpt lat="41.852670" lon="0.836659">
        <ele>244.817</ele>
        <time>1998-01-15T08:58:08Z</time>
      </trkpt>
      <trkpt lat="41.852809" lon="0.836471">
        <ele>245.068</ele>
        <time>1998-01-15T08:58:14Z</time>
      </trkpt>
      <trkpt lat="41.852931" lon="0.836343">
        <ele>245.280</ele>
        <time>1998-01-15T08:58:19Z</time>
      </trkpt>
      <trkpt lat="41.853142" lon="0.836090">
        <ele>245.658</ele>
        <time>1998-01-15T08:58:27Z</time>
      </trkpt>
      <trkpt lat="41.853200" lon="0.836017">
        <ele>246.025</ele>
        <time>1998-01-15T08:58:29Z</time>
      </trkpt>
      <trkpt lat="41.853277" lon="0.835909">
        <ele>247.292</ele>
        <time>1998-01-15T08:58:32Z</time>
      </trkpt>
      <trkpt lat="41.853320" lon="0.835847">
        <ele>247.833</ele>
        <time>1998-01-15T08:58:34Z</time>
      </trkpt>
      <trkpt lat="41.853353" lon="0.835833">
        <ele>248.012</ele>
        <time>1998-01-15T08:58:35Z</time>
      </trkpt>
      <trkpt lat="41.853438" lon="0.835831">
        <ele>248.232</ele>
        <time>1998-01-15T08:58:37Z</time>
      </trkpt>
      <trkpt lat="41.853483" lon="0.835838">
        <ele>248.605</ele>
        <time>1998-01-15T08:58:38Z</time>
      </trkpt>
      <trkpt lat="41.853742" lon="0.835904">
        <ele>249.208</ele>
        <time>1998-01-15T08:58:44Z</time>
      </trkpt>
      <trkpt lat="41.854109" lon="0.836007">
        <ele>249.433</ele>
        <time>1998-01-15T08:58:52Z</time>
      </trkpt>
      <trkpt lat="41.854551" lon="0.836142">
        <ele>249.493</ele>
        <time>1998-01-15T08:59:01Z</time>
      </trkpt>
      <trkpt lat="41.854957" lon="0.836265">
        <ele>249.484</ele>
        <time>1998-01-15T08:59:09Z</time>
      </trkpt>
      <trkpt lat="41.855311" lon="0.836319">
        <ele>249.046</ele>
        <time>1998-01-15T08:59:16Z</time>
      </trkpt>
      <trkpt lat="41.855610" lon="0.836261">
        <ele>248.624</ele>
        <time>1998-01-15T08:59:22Z</time>
      </trkpt>
      <trkpt lat="41.855658" lon="0.836239">
        <ele>248.691</ele>
        <time>1998-01-15T08:59:23Z</time>
      </trkpt>
      <trkpt lat="41.855889" lon="0.836104">
        <ele>249.038</ele>
        <time>1998-01-15T08:59:28Z</time>
      </trkpt>
      <trkpt lat="41.856204" lon="0.835903">
        <ele>249.439</ele>
        <time>1998-01-15T08:59:35Z</time>
      </trkpt>
      <trkpt lat="41.856248" lon="0.835874">
        <ele>249.689</ele>
        <time>1998-01-15T08:59:36Z</time>
      </trkpt>
      <trkpt lat="41.856511" lon="0.835706">
        <ele>250.006</ele>
        <time>1998-01-15T08:59:42Z</time>
      </trkpt>
      <trkpt lat="41.856788" lon="0.835527">
        <ele>250.226</ele>
        <time>1998-01-15T08:59:48Z</time>
      </trkpt>
      <trkpt lat="41.857080" lon="0.835347">
        <ele>250.808</ele>
        <time>1998-01-15T08:59:54Z</time>
      </trkpt>
      <trkpt lat="41.857432" lon="0.835119">
        <ele>251.030</ele>
        <time>1998-01-15T09:00:01Z</time>
      </trkpt>
      <trkpt lat="41.857764" lon="0.834917">
        <ele>251.010</ele>
        <time>1998-01-15T09:00:08Z</time>
      </trkpt>
      <trkpt lat="41.858039" lon="0.834726">
        <ele>251.021</ele>
        <time>1998-01-15T09:00:14Z</time>
      </trkpt>
      <trkpt lat="41.858329" lon="0.834531">
        <ele>251.893</ele>
        <time>1998-01-15T09:00:20Z</time>
      </trkpt>
      <trkpt lat="41.858471" lon="0.834442">
        <ele>252.031</ele>
        <time>1998-01-15T09:00:23Z</time>
      </trkpt>
      <trkpt lat="41.858918" lon="0.834149">
        <ele>252.298</ele>
        <time>1998-01-15T09:00:32Z</time>
      </trkpt>
      <trkpt lat="41.859250" lon="0.833932">
        <ele>251.855</ele>
        <time>1998-01-15T09:00:39Z</time>
      </trkpt>
      <trkpt lat="41.859539" lon="0.833764">
        <ele>252.046</ele>
        <time>1998-01-15T09:00:45Z</time>
      </trkpt>
      <trkpt lat="41.859580" lon="0.833727">
        <ele>252.284</ele>
        <time>1998-01-15T09:00:46Z</time>
      </trkpt>
      <trkpt lat="41.859673" lon="0.833665">
        <ele>252.407</ele>
        <time>1998-01-15T09:00:48Z</time>
      </trkpt>
      <trkpt lat="41.859861" lon="0.833547">
        <ele>252.817</ele>
        <time>1998-01-15T09:00:52Z</time>
      </trkpt>
      <trkpt lat="41.860029" lon="0.833423">
        <ele>253.008</ele>
        <time>1998-01-15T09:00:57Z</time>
      </trkpt>
      <trkpt lat="41.860089" lon="0.833375">
        <ele>254.010</ele>
        <time>1998-01-15T09:01:00Z</time>
      </trkpt>
      <trkpt lat="41.860127" lon="0.833344">
        <ele>254.050</ele>
        <time>1998-01-15T09:01:02Z</time>
      </trkpt>
      <trkpt lat="41.860164" lon="0.833316">
        <ele>254.061</ele>
        <time>1998-01-15T09:01:05Z</time>
      </trkpt>
      <trkpt lat="41.860176" lon="0.833318">
        <ele>254.213</ele>
        <time>1998-01-15T09:01:06Z</time>
      </trkpt>
      <trkpt lat="41.860297" lon="0.833379">
        <ele>254.211</ele>
        <time>1998-01-15T09:01:10Z</time>
      </trkpt>
      <trkpt lat="41.860466" lon="0.833371">
        <ele>253.498</ele>
        <time>1998-01-15T09:01:14Z</time>
      </trkpt>
      <trkpt lat="41.860514" lon="0.833396">
        <ele>252.815</ele>
        <time>1998-01-15T09:01:16Z</time>
      </trkpt>
      <trkpt lat="41.860552" lon="0.833451">
        <ele>252.426</ele>
        <time>1998-01-15T09:01:18Z</time>
      </trkpt>
      <trkpt lat="41.860575" lon="0.833487">
        <ele>252.495</ele>
        <time>1998-01-15T09:01:19Z</time>
      </trkpt>
      <trkpt lat="41.860657" lon="0.833610">
        <ele>252.049</ele>
        <time>1998-01-15T09:01:23Z</time>
      </trkpt>
      <trkpt lat="41.860776" lon="0.833733">
        <ele>251.823</ele>
        <time>1998-01-15T09:01:27Z</time>
      </trkpt>
      <trkpt lat="41.860833" lon="0.833798">
        <ele>251.808</ele>
        <time>1998-01-15T09:01:29Z</time>
      </trkpt>
      <trkpt lat="41.860971" lon="0.834025">
        <ele>251.431</ele>
        <time>1998-01-15T09:01:35Z</time>
      </trkpt>
      <trkpt lat="41.861061" lon="0.834258">
        <ele>251.421</ele>
        <time>1998-01-15T09:01:40Z</time>
      </trkpt>
      <trkpt lat="41.861211" lon="0.834556">
        <ele>252.242</ele>
        <time>1998-01-15T09:01:47Z</time>
      </trkpt>
      <trkpt lat="41.861279" lon="0.834706">
        <ele>251.634</ele>
        <time>1998-01-15T09:01:50Z</time>
      </trkpt>
      <trkpt lat="41.861317" lon="0.834809">
        <ele>251.052</ele>
        <time>1998-01-15T09:01:52Z</time>
      </trkpt>
      <trkpt lat="41.861381" lon="0.834991">
        <ele>250.839</ele>
        <time>1998-01-15T09:01:55Z</time>
      </trkpt>
      <trkpt lat="41.861443" lon="0.835159">
        <ele>250.246</ele>
        <time>1998-01-15T09:01:58Z</time>
      </trkpt>
      <trkpt lat="41.861470" lon="0.835211">
        <ele>250.047</ele>
        <time>1998-01-15T09:01:59Z</time>
      </trkpt>
      <trkpt lat="41.861575" lon="0.835425">
        <ele>250.414</ele>
        <time>1998-01-15T09:02:03Z</time>
      </trkpt>
      <trkpt lat="41.861678" lon="0.835580">
        <ele>251.254</ele>
        <time>1998-01-15T09:02:07Z</time>
      </trkpt>
      <trkpt lat="41.861705" lon="0.835628">
        <ele>251.409</ele>
        <time>1998-01-15T09:02:08Z</time>
      </trkpt>
      <trkpt lat="41.861757" lon="0.835708">
        <ele>251.808</ele>
        <time>1998-01-15T09:02:10Z</time>
      </trkpt>
      <trkpt lat="41.861870" lon="0.835899">
        <ele>253.063</ele>
        <time>1998-01-15T09:02:14Z</time>
      </trkpt>
      <trkpt lat="41.861932" lon="0.836004">
        <ele>253.683</ele>
        <time>1998-01-15T09:02:16Z</time>
      </trkpt>
      <trkpt lat="41.861964" lon="0.836046">
        <ele>254.074</ele>
        <time>1998-01-15T09:02:17Z</time>
      </trkpt>
      <trkpt lat="41.862025" lon="0.836133">
        <ele>254.436</ele>
        <time>1998-01-15T09:02:19Z</time>
      </trkpt>
      <trkpt lat="41.862202" lon="0.836403">
        <ele>253.624</ele>
        <time>1998-01-15T09:02:25Z</time>
      </trkpt>
      <trkpt lat="41.862282" lon="0.836557">
        <ele>252.861</ele>
        <time>1998-01-15T09:02:28Z</time>
      </trkpt>
      <trkpt lat="41.862395" lon="0.836766">
        <ele>253.038</ele>
        <time>1998-01-15T09:02:32Z</time>
      </trkpt>
      <trkpt lat="41.862622" lon="0.837142">
        <ele>253.639</ele>
        <time>1998-01-15T09:02:39Z</time>
      </trkpt>
      <trkpt lat="41.862700" lon="0.837246">
        <ele>254.017</ele>
        <time>1998-01-15T09:02:41Z</time>
      </trkpt>
      <trkpt lat="41.862837" lon="0.837438">
        <ele>254.287</ele>
        <time>1998-01-15T09:02:45Z</time>
      </trkpt>
      <trkpt lat="41.863084" lon="0.837713">
        <ele>254.615</ele>
        <time>1998-01-15T09:02:52Z</time>
      </trkpt>
      <trkpt lat="41.863304" lon="0.837948">
        <ele>255.008</ele>
        <time>1998-01-15T09:02:58Z</time>
      </trkpt>
      <trkpt lat="41.863343" lon="0.837988">
        <ele>255.073</ele>
        <time>1998-01-15T09:02:59Z</time>
      </trkpt>
      <trkpt lat="41.863619" lon="0.838293">
        <ele>254.813</ele>
        <time>1998-01-15T09:03:06Z</time>
      </trkpt>
      <trkpt lat="41.863776" lon="0.838492">
        <ele>254.434</ele>
        <time>1998-01-15T09:03:10Z</time>
      </trkpt>
      <trkpt lat="41.863897" lon="0.838655">
        <ele>254.036</ele>
        <time>1998-01-15T09:03:13Z</time>
      </trkpt>
      <trkpt lat="41.863936" lon="0.838706">
        <ele>253.854</ele>
        <time>1998-01-15T09:03:14Z</time>
      </trkpt>
      <trkpt lat="41.864131" lon="0.838966">
        <ele>252.821</ele>
        <time>1998-01-15T09:03:19Z</time>
      </trkpt>
      <trkpt lat="41.864204" lon="0.839073">
        <ele>252.688</ele>
        <time>1998-01-15T09:03:21Z</time>
      </trkpt>
      <trkpt lat="41.864467" lon="0.839408">
        <ele>252.289</ele>
        <time>1998-01-15T09:03:28Z</time>
      </trkpt>
      <trkpt lat="41.864508" lon="0.839445">
        <ele>252.289</ele>
        <time>1998-01-15T09:03:29Z</time>
      </trkpt>
      <trkpt lat="41.864676" lon="0.839676">
        <ele>252.206</ele>
        <time>1998-01-15T09:03:33Z</time>
      </trkpt>
      <trkpt lat="41.864974" lon="0.840068">
        <ele>251.626</ele>
        <time>1998-01-15T09:03:40Z</time>
      </trkpt>
      <trkpt lat="41.865013" lon="0.840110">
        <ele>251.608</ele>
        <time>1998-01-15T09:03:41Z</time>
      </trkpt>
      <trkpt lat="41.865173" lon="0.840235">
        <ele>251.440</ele>
        <time>1998-01-15T09:03:45Z</time>
      </trkpt>
      <trkpt lat="41.865211" lon="0.840253">
        <ele>251.480</ele>
        <time>1998-01-15T09:03:46Z</time>
      </trkpt>
      <trkpt lat="41.865356" lon="0.840311">
        <ele>251.431</ele>
        <time>1998-01-15T09:03:49Z</time>
      </trkpt>
      <trkpt lat="41.865465" lon="0.840341">
        <ele>251.643</ele>
        <time>1998-01-15T09:03:51Z</time>
      </trkpt>
      <trkpt lat="41.865792" lon="0.840419">
        <ele>250.891</ele>
        <time>1998-01-15T09:03:58Z</time>
      </trkpt>
      <trkpt lat="41.866070" lon="0.840483">
        <ele>251.228</ele>
        <time>1998-01-15T09:04:04Z</time>
      </trkpt>
      <trkpt lat="41.866383" lon="0.840579">
        <ele>251.855</ele>
        <time>1998-01-15T09:04:12Z</time>
      </trkpt>
      <trkpt lat="41.866547" lon="0.840622">
        <ele>252.216</ele>
        <time>1998-01-15T09:04:16Z</time>
      </trkpt>
      <trkpt lat="41.866677" lon="0.840665">
        <ele>252.662</ele>
        <time>1998-01-15T09:04:19Z</time>
      </trkpt>
      <trkpt lat="41.866835" lon="0.840712">
        <ele>252.683</ele>
        <time>1998-01-15T09:04:23Z</time>
      </trkpt>
      <trkpt lat="41.866995" lon="0.840752">
        <ele>253.011</ele>
        <time>1998-01-15T09:04:27Z</time>
      </trkpt>
      <trkpt lat="41.867258" lon="0.840835">
        <ele>253.808</ele>
        <time>1998-01-15T09:04:34Z</time>
      </trkpt>
      <trkpt lat="41.867296" lon="0.840847">
        <ele>253.878</ele>
        <time>1998-01-15T09:04:35Z</time>
      </trkpt>
      <trkpt lat="41.867417" lon="0.840896">
        <ele>254.468</ele>
        <time>1998-01-15T09:04:38Z</time>
      </trkpt>
      <trkpt lat="41.867494" lon="0.840937">
        <ele>255.019</ele>
        <time>1998-01-15T09:04:40Z</time>
      </trkpt>
      <trkpt lat="41.867537" lon="0.840956">
        <ele>255.271</ele>
        <time>1998-01-15T09:04:41Z</time>
      </trkpt>
      <trkpt lat="41.867745" lon="0.841067">
        <ele>256.229</ele>
        <time>1998-01-15T09:04:46Z</time>
      </trkpt>
      <trkpt lat="41.867868" lon="0.841146">
        <ele>256.856</ele>
        <time>1998-01-15T09:04:49Z</time>
      </trkpt>
      <trkpt lat="41.868029" lon="0.841251">
        <ele>257.293</ele>
        <time>1998-01-15T09:04:53Z</time>
      </trkpt>
      <trkpt lat="41.868196" lon="0.841368">
        <ele>257.424</ele>
        <time>1998-01-15T09:04:57Z</time>
      </trkpt>
      <trkpt lat="41.868468" lon="0.841571">
        <ele>257.429</ele>
        <time>1998-01-15T09:05:04Z</time>
      </trkpt>
      <trkpt lat="41.868555" lon="0.841633">
        <ele>257.800</ele>
        <time>1998-01-15T09:05:06Z</time>
      </trkpt>
      <trkpt lat="41.868714" lon="0.841659">
        <ele>258.020</ele>
        <time>1998-01-15T09:05:09Z</time>
      </trkpt>
      <trkpt lat="41.868838" lon="0.841639">
        <ele>258.008</ele>
        <time>1998-01-15T09:05:11Z</time>
      </trkpt>
      <trkpt lat="41.869034" lon="0.841651">
        <ele>257.684</ele>
        <time>1998-01-15T09:05:14Z</time>
      </trkpt>
      <trkpt lat="41.869310" lon="0.841707">
        <ele>257.294</ele>
        <time>1998-01-15T09:05:18Z</time>
      </trkpt>
      <trkpt lat="41.869390" lon="0.841692">
        <ele>256.835</ele>
        <time>1998-01-15T09:05:19Z</time>
      </trkpt>
      <trkpt lat="41.869545" lon="0.841649">
        <ele>256.017</ele>
        <time>1998-01-15T09:05:21Z</time>
      </trkpt>
      <trkpt lat="41.869616" lon="0.841621">
        <ele>255.815</ele>
        <time>1998-01-15T09:05:22Z</time>
      </trkpt>
      <trkpt lat="41.869753" lon="0.841568">
        <ele>255.412</ele>
        <time>1998-01-15T09:05:24Z</time>
      </trkpt>
      <trkpt lat="41.869823" lon="0.841568">
        <ele>254.819</ele>
        <time>1998-01-15T09:05:25Z</time>
      </trkpt>
      <trkpt lat="41.869944" lon="0.841612">
        <ele>254.440</ele>
        <time>1998-01-15T09:05:27Z</time>
      </trkpt>
      <trkpt lat="41.870059" lon="0.841677">
        <ele>253.814</ele>
        <time>1998-01-15T09:05:29Z</time>
      </trkpt>
      <trkpt lat="41.870241" lon="0.841778">
        <ele>253.454</ele>
        <time>1998-01-15T09:05:32Z</time>
      </trkpt>
      <trkpt lat="41.870475" lon="0.841922">
        <ele>252.809</ele>
        <time>1998-01-15T09:05:36Z</time>
      </trkpt>
      <trkpt lat="41.870687" lon="0.842073">
        <ele>252.208</ele>
        <time>1998-01-15T09:05:40Z</time>
      </trkpt>
      <trkpt lat="41.870982" lon="0.842301">
        <ele>252.243</ele>
        <time>1998-01-15T09:05:46Z</time>
      </trkpt>
      <trkpt lat="41.871179" lon="0.842481">
        <ele>252.023</ele>
        <time>1998-01-15T09:05:51Z</time>
      </trkpt>
      <trkpt lat="41.871218" lon="0.842515">
        <ele>252.284</ele>
        <time>1998-01-15T09:05:52Z</time>
      </trkpt>
      <trkpt lat="41.871583" lon="0.842767">
        <ele>252.446</ele>
        <time>1998-01-15T09:06:00Z</time>
      </trkpt>
      <trkpt lat="41.871927" lon="0.843035">
        <ele>252.844</ele>
        <time>1998-01-15T09:06:07Z</time>
      </trkpt>
      <trkpt lat="41.872019" lon="0.843133">
        <ele>252.861</ele>
        <time>1998-01-15T09:06:09Z</time>
      </trkpt>
      <trkpt lat="41.872134" lon="0.843268">
        <ele>253.088</ele>
        <time>1998-01-15T09:06:12Z</time>
      </trkpt>
      <trkpt lat="41.872283" lon="0.843389">
        <ele>253.219</ele>
        <time>1998-01-15T09:06:15Z</time>
      </trkpt>
      <trkpt lat="41.872392" lon="0.843432">
        <ele>253.229</ele>
        <time>1998-01-15T09:06:17Z</time>
      </trkpt>
      <trkpt lat="41.872507" lon="0.843458">
        <ele>253.000</ele>
        <time>1998-01-15T09:06:19Z</time>
      </trkpt>
      <trkpt lat="41.872710" lon="0.843514">
        <ele>252.220</ele>
        <time>1998-01-15T09:06:23Z</time>
      </trkpt>
      <trkpt lat="41.872761" lon="0.843550">
        <ele>252.208</ele>
        <time>1998-01-15T09:06:24Z</time>
      </trkpt>
      <trkpt lat="41.872827" lon="0.843678">
        <ele>252.294</ele>
        <time>1998-01-15T09:06:26Z</time>
      </trkpt>
      <trkpt lat="41.872877" lon="0.843814">
        <ele>252.434</ele>
        <time>1998-01-15T09:06:28Z</time>
      </trkpt>
      <trkpt lat="41.873003" lon="0.844152">
        <ele>252.465</ele>
        <time>1998-01-15T09:06:33Z</time>
      </trkpt>
      <trkpt lat="41.873216" lon="0.844571">
        <ele>252.677</ele>
        <time>1998-01-15T09:06:40Z</time>
      </trkpt>
      <trkpt lat="41.873506" lon="0.844942">
        <ele>252.865</ele>
        <time>1998-01-15T09:06:48Z</time>
      </trkpt>
      <trkpt lat="41.873619" lon="0.845089">
        <ele>253.292</ele>
        <time>1998-01-15T09:06:51Z</time>
      </trkpt>
      <trkpt lat="41.873718" lon="0.845253">
        <ele>253.629</ele>
        <time>1998-01-15T09:06:54Z</time>
      </trkpt>
      <trkpt lat="41.873872" lon="0.845520">
        <ele>253.840</ele>
        <time>1998-01-15T09:06:59Z</time>
      </trkpt>
      <trkpt lat="41.873980" lon="0.845722">
        <ele>254.441</ele>
        <time>1998-01-15T09:07:03Z</time>
      </trkpt>
      <trkpt lat="41.874124" lon="0.846151">
        <ele>254.681</ele>
        <time>1998-01-15T09:07:11Z</time>
      </trkpt>
      <trkpt lat="41.874163" lon="0.846311">
        <ele>255.009</ele>
        <time>1998-01-15T09:07:14Z</time>
      </trkpt>
      <trkpt lat="41.874248" lon="0.846620">
        <ele>255.808</ele>
        <time>1998-01-15T09:07:20Z</time>
      </trkpt>
      <trkpt lat="41.874262" lon="0.846674">
        <ele>256.016</ele>
        <time>1998-01-15T09:07:21Z</time>
      </trkpt>
      <trkpt lat="41.874303" lon="0.846938">
        <ele>257.256</ele>
        <time>1998-01-15T09:07:26Z</time>
      </trkpt>
      <trkpt lat="41.874306" lon="0.847053">
        <ele>257.687</ele>
        <time>1998-01-15T09:07:28Z</time>
      </trkpt>
      <trkpt lat="41.874275" lon="0.847205">
        <ele>258.249</ele>
        <time>1998-01-15T09:07:31Z</time>
      </trkpt>
      <trkpt lat="41.874266" lon="0.847315">
        <ele>258.697</ele>
        <time>1998-01-15T09:07:33Z</time>
      </trkpt>
      <trkpt lat="41.874264" lon="0.847628">
        <ele>259.234</ele>
        <time>1998-01-15T09:07:38Z</time>
      </trkpt>
      <trkpt lat="41.874270" lon="0.847776">
        <ele>259.221</ele>
        <time>1998-01-15T09:07:40Z</time>
      </trkpt>
      <trkpt lat="41.874297" lon="0.848412">
        <ele>259.052</ele>
        <time>1998-01-15T09:07:49Z</time>
      </trkpt>
      <trkpt lat="41.874343" lon="0.848753">
        <ele>258.257</ele>
        <time>1998-01-15T09:07:54Z</time>
      </trkpt>
      <trkpt lat="41.874372" lon="0.848883">
        <ele>258.200</ele>
        <time>1998-01-15T09:07:56Z</time>
      </trkpt>
      <trkpt lat="41.874413" lon="0.849176">
        <ele>257.220</ele>
        <time>1998-01-15T09:08:00Z</time>
      </trkpt>
      <trkpt lat="41.874405" lon="0.849256">
        <ele>257.008</ele>
        <time>1998-01-15T09:08:01Z</time>
      </trkpt>
      <trkpt lat="41.874339" lon="0.849492">
        <ele>255.847</ele>
        <time>1998-01-15T09:08:04Z</time>
      </trkpt>
      <trkpt lat="41.874324" lon="0.849563">
        <ele>255.437</ele>
        <time>1998-01-15T09:08:05Z</time>
      </trkpt>
      <trkpt lat="41.874285" lon="0.849719">
        <ele>254.628</ele>
        <time>1998-01-15T09:08:07Z</time>
      </trkpt>
      <trkpt lat="41.874230" lon="0.849986">
        <ele>253.630</ele>
        <time>1998-01-15T09:08:10Z</time>
      </trkpt>
      <trkpt lat="41.874224" lon="0.850081">
        <ele>253.268</ele>
        <time>1998-01-15T09:08:11Z</time>
      </trkpt>
      <trkpt lat="41.874185" lon="0.850246">
        <ele>252.485</ele>
        <time>1998-01-15T09:08:13Z</time>
      </trkpt>
      <trkpt lat="41.874107" lon="0.850363">
        <ele>251.822</ele>
        <time>1998-01-15T09:08:15Z</time>
      </trkpt>
      <trkpt lat="41.874004" lon="0.850533">
        <ele>251.453</ele>
        <time>1998-01-15T09:08:18Z</time>
      </trkpt>
      <trkpt lat="41.873935" lon="0.850634">
        <ele>251.292</ele>
        <time>1998-01-15T09:08:20Z</time>
      </trkpt>
      <trkpt lat="41.873899" lon="0.850677">
        <ele>251.273</ele>
        <time>1998-01-15T09:08:21Z</time>
      </trkpt>
      <trkpt lat="41.873710" lon="0.850980">
        <ele>251.820</ele>
        <time>1998-01-15T09:08:28Z</time>
      </trkpt>
      <trkpt lat="41.873658" lon="0.851056">
        <ele>252.408</ele>
        <time>1998-01-15T09:08:30Z</time>
      </trkpt>
      <trkpt lat="41.873571" lon="0.851183">
        <ele>253.281</ele>
        <time>1998-01-15T09:08:33Z</time>
      </trkpt>
      <trkpt lat="41.873555" lon="0.851241">
        <ele>253.411</ele>
        <time>1998-01-15T09:08:34Z</time>
      </trkpt>
      <trkpt lat="41.873531" lon="0.851350">
        <ele>253.412</ele>
        <time>1998-01-15T09:08:36Z</time>
      </trkpt>
      <trkpt lat="41.873593" lon="0.851487">
        <ele>253.864</ele>
        <time>1998-01-15T09:08:39Z</time>
      </trkpt>
      <trkpt lat="41.873734" lon="0.851504">
        <ele>254.052</ele>
        <time>1998-01-15T09:08:43Z</time>
      </trkpt>
      <trkpt lat="41.873833" lon="0.851465">
        <ele>254.459</ele>
        <time>1998-01-15T09:08:46Z</time>
      </trkpt>
      <trkpt lat="41.873897" lon="0.851434">
        <ele>254.436</ele>
        <time>1998-01-15T09:08:48Z</time>
      </trkpt>
      <trkpt lat="41.874016" lon="0.851397">
        <ele>255.627</ele>
        <time>1998-01-15T09:08:52Z</time>
      </trkpt>
      <trkpt lat="41.874094" lon="0.851367">
        <ele>256.879</ele>
        <time>1998-01-15T09:08:55Z</time>
      </trkpt>
      <trkpt lat="41.874141" lon="0.851352">
        <ele>257.605</ele>
        <time>1998-01-15T09:08:57Z</time>
      </trkpt>
      <trkpt lat="41.874165" lon="0.851344">
        <ele>258.025</ele>
        <time>1998-01-15T09:08:58Z</time>
      </trkpt>
      <trkpt lat="41.874289" lon="0.851256">
        <ele>259.008</ele>
        <time>1998-01-15T09:09:03Z</time>
      </trkpt>
      <trkpt lat="41.874314" lon="0.851240">
        <ele>259.219</ele>
        <time>1998-01-15T09:09:04Z</time>
      </trkpt>
      <trkpt lat="41.874406" lon="0.851176">
        <ele>260.449</ele>
        <time>1998-01-15T09:09:08Z</time>
      </trkpt>
      <trkpt lat="41.874482" lon="0.851148">
        <ele>260.850</ele>
        <time>1998-01-15T09:09:11Z</time>
      </trkpt>
      <trkpt lat="41.874584" lon="0.851136">
        <ele>261.612</ele>
        <time>1998-01-15T09:09:15Z</time>
      </trkpt>
      <trkpt lat="41.874611" lon="0.851128">
        <ele>261.680</ele>
        <time>1998-01-15T09:09:16Z</time>
      </trkpt>
      <trkpt lat="41.874670" lon="0.851125">
        <ele>262.857</ele>
        <time>1998-01-15T09:09:19Z</time>
      </trkpt>
      <trkpt lat="41.874706" lon="0.851121">
        <ele>263.824</ele>
        <time>1998-01-15T09:09:21Z</time>
      </trkpt>
      <trkpt lat="41.874726" lon="0.851119">
        <ele>264.295</ele>
        <time>1998-01-15T09:09:22Z</time>
      </trkpt>
      <trkpt lat="41.874766" lon="0.851124">
        <ele>265.014</ele>
        <time>1998-01-15T09:09:24Z</time>
      </trkpt>
      <trkpt lat="41.874813" lon="0.851118">
        <ele>266.254</ele>
        <time>1998-01-15T09:09:27Z</time>
      </trkpt>
      <trkpt lat="41.874847" lon="0.851114">
        <ele>267.409</ele>
        <time>1998-01-15T09:09:29Z</time>
      </trkpt>
      <trkpt lat="41.874876" lon="0.851112">
        <ele>268.408</ele>
        <time>1998-01-15T09:09:31Z</time>
      </trkpt>
      <trkpt lat="41.874905" lon="0.851111">
        <ele>269.443</ele>
        <time>1998-01-15T09:09:34Z</time>
      </trkpt>
      <trkpt lat="41.874917" lon="0.851106">
        <ele>269.693</ele>
        <time>1998-01-15T09:09:35Z</time>
      </trkpt>
      <trkpt lat="41.874996" lon="0.851085">
        <ele>270.664</ele>
        <time>1998-01-15T09:13:16Z</time>
      </trkpt>
      <trkpt lat="41.875010" lon="0.851081">
        <ele>270.636</ele>
        <time>1998-01-15T09:13:17Z</time>
      </trkpt>
      <trkpt lat="41.875109" lon="0.851080">
        <ele>271.684</ele>
        <time>1998-01-15T09:13:22Z</time>
      </trkpt>
      <trkpt lat="41.875149" lon="0.851084">
        <ele>272.071</ele>
        <time>1998-01-15T09:13:24Z</time>
      </trkpt>
      <trkpt lat="41.875216" lon="0.851081">
        <ele>272.818</ele>
        <time>1998-01-15T09:13:27Z</time>
      </trkpt>
      <trkpt lat="41.875283" lon="0.851076">
        <ele>273.699</ele>
        <time>1998-01-15T09:13:30Z</time>
      </trkpt>
      <trkpt lat="41.875398" lon="0.851017">
        <ele>273.882</ele>
        <time>1998-01-15T09:13:35Z</time>
      </trkpt>
      <trkpt lat="41.875444" lon="0.850996">
        <ele>274.443</ele>
        <time>1998-01-15T09:13:37Z</time>
      </trkpt>
      <trkpt lat="41.875491" lon="0.850980">
        <ele>275.217</ele>
        <time>1998-01-15T09:13:39Z</time>
      </trkpt>
      <trkpt lat="41.875624" lon="0.850942">
        <ele>275.808</ele>
        <time>1998-01-15T09:13:44Z</time>
      </trkpt>
      <trkpt lat="41.875721" lon="0.850879">
        <ele>276.290</ele>
        <time>1998-01-15T09:13:48Z</time>
      </trkpt>
      <trkpt lat="41.875761" lon="0.850821">
        <ele>276.490</ele>
        <time>1998-01-15T09:13:50Z</time>
      </trkpt>
      <trkpt lat="41.875886" lon="0.850579">
        <ele>275.241</ele>
        <time>1998-01-15T09:13:57Z</time>
      </trkpt>
      <trkpt lat="41.876023" lon="0.850238">
        <ele>275.493</ele>
        <time>1998-01-15T09:14:06Z</time>
      </trkpt>
      <trkpt lat="41.876138" lon="0.850003">
        <ele>275.821</ele>
        <time>1998-01-15T09:14:13Z</time>
      </trkpt>
      <trkpt lat="41.876275" lon="0.849727">
        <ele>275.648</ele>
        <time>1998-01-15T09:14:21Z</time>
      </trkpt>
      <trkpt lat="41.876381" lon="0.849464">
        <ele>276.275</ele>
        <time>1998-01-15T09:14:28Z</time>
      </trkpt>
      <trkpt lat="41.876394" lon="0.849426">
        <ele>276.416</ele>
        <time>1998-01-15T09:14:29Z</time>
      </trkpt>
      <trkpt lat="41.876492" lon="0.849214">
        <ele>277.212</ele>
        <time>1998-01-15T09:14:35Z</time>
      </trkpt>
      <trkpt lat="41.876514" lon="0.849186">
        <ele>277.432</ele>
        <time>1998-01-15T09:14:36Z</time>
      </trkpt>
      <trkpt lat="41.876661" lon="0.848986">
        <ele>278.405</ele>
        <time>1998-01-15T09:14:43Z</time>
      </trkpt>
      <trkpt lat="41.876740" lon="0.848762">
        <ele>279.008</ele>
        <time>1998-01-15T09:14:49Z</time>
      </trkpt>
      <trkpt lat="41.876786" lon="0.848551">
        <ele>279.413</ele>
        <time>1998-01-15T09:14:54Z</time>
      </trkpt>
      <trkpt lat="41.876815" lon="0.848425">
        <ele>280.093</ele>
        <time>1998-01-15T09:14:57Z</time>
      </trkpt>
      <trkpt lat="41.876885" lon="0.848098">
        <ele>279.894</ele>
        <time>1998-01-15T09:15:05Z</time>
      </trkpt>
      <trkpt lat="41.876915" lon="0.847936">
        <ele>280.646</ele>
        <time>1998-01-15T09:15:09Z</time>
      </trkpt>
      <trkpt lat="41.876924" lon="0.847843">
        <ele>280.224</ele>
        <time>1998-01-15T09:15:11Z</time>
      </trkpt>
      <trkpt lat="41.876899" lon="0.847532">
        <ele>280.291</ele>
        <time>1998-01-15T09:15:18Z</time>
      </trkpt>
      <trkpt lat="41.876821" lon="0.847230">
        <ele>280.038</ele>
        <time>1998-01-15T09:15:25Z</time>
      </trkpt>
      <trkpt lat="41.876746" lon="0.846854">
        <ele>281.279</ele>
        <time>1998-01-15T09:15:34Z</time>
      </trkpt>
      <trkpt lat="41.876721" lon="0.846781">
        <ele>281.671</ele>
        <time>1998-01-15T09:15:36Z</time>
      </trkpt>
      <trkpt lat="41.876688" lon="0.846677">
        <ele>282.641</ele>
        <time>1998-01-15T09:15:39Z</time>
      </trkpt>
      <trkpt lat="41.876678" lon="0.846642">
        <ele>282.815</ele>
        <time>1998-01-15T09:15:40Z</time>
      </trkpt>
      <trkpt lat="41.876621" lon="0.846474">
        <ele>284.008</ele>
        <time>1998-01-15T09:15:45Z</time>
      </trkpt>
      <trkpt lat="41.876592" lon="0.846414">
        <ele>285.069</ele>
        <time>1998-01-15T09:15:47Z</time>
      </trkpt>
      <trkpt lat="41.876579" lon="0.846383">
        <ele>285.459</ele>
        <time>1998-01-15T09:15:48Z</time>
      </trkpt>
      <trkpt lat="41.876544" lon="0.846259">
        <ele>286.860</ele>
        <time>1998-01-15T09:15:52Z</time>
      </trkpt>
      <trkpt lat="41.876542" lon="0.846231">
        <ele>287.062</ele>
        <time>1998-01-15T09:15:53Z</time>
      </trkpt>
      <trkpt lat="41.876548" lon="0.846144">
        <ele>288.010</ele>
        <time>1998-01-15T09:15:56Z</time>
      </trkpt>
      <trkpt lat="41.876570" lon="0.846087">
        <ele>288.417</ele>
        <time>1998-01-15T09:15:58Z</time>
      </trkpt>
      <trkpt lat="41.876589" lon="0.846067">
        <ele>289.094</ele>
        <time>1998-01-15T09:15:59Z</time>
      </trkpt>
      <trkpt lat="41.876634" lon="0.846034">
        <ele>290.245</ele>
        <time>1998-01-15T09:16:01Z</time>
      </trkpt>
      <trkpt lat="41.876732" lon="0.846024">
        <ele>291.222</ele>
        <time>1998-01-15T09:16:05Z</time>
      </trkpt>
      <trkpt lat="41.876824" lon="0.846058">
        <ele>292.662</ele>
        <time>1998-01-15T09:16:09Z</time>
      </trkpt>
      <trkpt lat="41.876872" lon="0.846069">
        <ele>293.208</ele>
        <time>1998-01-15T09:16:11Z</time>
      </trkpt>
      <trkpt lat="41.876923" lon="0.846075">
        <ele>294.008</ele>
        <time>1998-01-15T09:16:13Z</time>
      </trkpt>
      <trkpt lat="41.877007" lon="0.846072">
        <ele>295.224</ele>
        <time>1998-01-15T09:16:16Z</time>
      </trkpt>
      <trkpt lat="41.877062" lon="0.846044">
        <ele>295.884</ele>
        <time>1998-01-15T09:16:18Z</time>
      </trkpt>
      <trkpt lat="41.877137" lon="0.845984">
        <ele>296.255</ele>
        <time>1998-01-15T09:16:21Z</time>
      </trkpt>
      <trkpt lat="41.877237" lon="0.845911">
        <ele>296.887</ele>
        <time>1998-01-15T09:16:25Z</time>
      </trkpt>
      <trkpt lat="41.877380" lon="0.845796">
        <ele>297.495</ele>
        <time>1998-01-15T09:16:31Z</time>
      </trkpt>
      <trkpt lat="41.877416" lon="0.845749">
        <ele>298.062</ele>
        <time>1998-01-15T09:16:33Z</time>
      </trkpt>
      <trkpt lat="41.877441" lon="0.845694">
        <ele>298.619</ele>
        <time>1998-01-15T09:16:35Z</time>
      </trkpt>
      <trkpt lat="41.877455" lon="0.845590">
        <ele>299.870</ele>
        <time>1998-01-15T09:16:38Z</time>
      </trkpt>
      <trkpt lat="41.877463" lon="0.845452">
        <ele>301.092</ele>
        <time>1998-01-15T09:16:42Z</time>
      </trkpt>
      <trkpt lat="41.877468" lon="0.845354">
        <ele>302.273</ele>
        <time>1998-01-15T09:16:45Z</time>
      </trkpt>
      <trkpt lat="41.877468" lon="0.845300">
        <ele>303.220</ele>
        <time>1998-01-15T09:16:47Z</time>
      </trkpt>
      <trkpt lat="41.877484" lon="0.845212">
        <ele>304.408</ele>
        <time>1998-01-15T09:16:50Z</time>
      </trkpt>
      <trkpt lat="41.877494" lon="0.845182">
        <ele>304.831</ele>
        <time>1998-01-15T09:16:51Z</time>
      </trkpt>
      <trkpt lat="41.877528" lon="0.845094">
        <ele>305.681</ele>
        <time>1998-01-15T09:16:54Z</time>
      </trkpt>
      <trkpt lat="41.877563" lon="0.844976">
        <ele>306.852</ele>
        <time>1998-01-15T09:16:58Z</time>
      </trkpt>
      <trkpt lat="41.877586" lon="0.844857">
        <ele>308.014</ele>
        <time>1998-01-15T09:17:02Z</time>
      </trkpt>
      <trkpt lat="41.877582" lon="0.844735">
        <ele>307.822</ele>
        <time>1998-01-15T09:17:06Z</time>
      </trkpt>
      <trkpt lat="41.877480" lon="0.844570">
        <ele>308.049</ele>
        <time>1998-01-15T09:17:12Z</time>
      </trkpt>
      <trkpt lat="41.877310" lon="0.844467">
        <ele>307.436</ele>
        <time>1998-01-15T09:17:19Z</time>
      </trkpt>
      <trkpt lat="41.877231" lon="0.844336">
        <ele>308.227</ele>
        <time>1998-01-15T09:17:24Z</time>
      </trkpt>
      <trkpt lat="41.877207" lon="0.844168">
        <ele>309.226</ele>
        <time>1998-01-15T09:17:29Z</time>
      </trkpt>
      <trkpt lat="41.877211" lon="0.844136">
        <ele>309.447</ele>
        <time>1998-01-15T09:17:30Z</time>
      </trkpt>
      <trkpt lat="41.877227" lon="0.844078">
        <ele>310.411</ele>
        <time>1998-01-15T09:17:32Z</time>
      </trkpt>
      <trkpt lat="41.877244" lon="0.844031">
        <ele>311.608</ele>
        <time>1998-01-15T09:17:34Z</time>
      </trkpt>
      <trkpt lat="41.877267" lon="0.843994">
        <ele>312.844</ele>
        <time>1998-01-15T09:17:36Z</time>
      </trkpt>
      <trkpt lat="41.877374" lon="0.843879">
        <ele>313.644</ele>
        <time>1998-01-15T09:17:41Z</time>
      </trkpt>
      <trkpt lat="41.877424" lon="0.843858">
        <ele>313.825</ele>
        <time>1998-01-15T09:17:43Z</time>
      </trkpt>
      <trkpt lat="41.877497" lon="0.843855">
        <ele>314.657</ele>
        <time>1998-01-15T09:17:46Z</time>
      </trkpt>
      <trkpt lat="41.877554" lon="0.843864">
        <ele>315.085</ele>
        <time>1998-01-15T09:17:48Z</time>
      </trkpt>
      <trkpt lat="41.877690" lon="0.843891">
        <ele>314.892</ele>
        <time>1998-01-15T09:17:53Z</time>
      </trkpt>
      <trkpt lat="41.877876" lon="0.843845">
        <ele>315.249</ele>
        <time>1998-01-15T09:18:00Z</time>
      </trkpt>
      <trkpt lat="41.877945" lon="0.843666">
        <ele>315.840</ele>
        <time>1998-01-15T09:18:06Z</time>
      </trkpt>
      <trkpt lat="41.877951" lon="0.843635">
        <ele>316.256</ele>
        <time>1998-01-15T09:18:07Z</time>
      </trkpt>
      <trkpt lat="41.877945" lon="0.843539">
        <ele>317.259</ele>
        <time>1998-01-15T09:18:10Z</time>
      </trkpt>
      <trkpt lat="41.877929" lon="0.843478">
        <ele>317.614</ele>
        <time>1998-01-15T09:18:12Z</time>
      </trkpt>
      <trkpt lat="41.877895" lon="0.843378">
        <ele>318.408</ele>
        <time>1998-01-15T09:18:15Z</time>
      </trkpt>
      <trkpt lat="41.877857" lon="0.843261">
        <ele>319.627</ele>
        <time>1998-01-15T09:18:19Z</time>
      </trkpt>
      <trkpt lat="41.877842" lon="0.843205">
        <ele>320.287</ele>
        <time>1998-01-15T09:18:21Z</time>
      </trkpt>
      <trkpt lat="41.877826" lon="0.843149">
        <ele>320.898</ele>
        <time>1998-01-15T09:18:23Z</time>
      </trkpt>
      <trkpt lat="41.877812" lon="0.843023">
        <ele>321.440</ele>
        <time>1998-01-15T09:18:27Z</time>
      </trkpt>
      <trkpt lat="41.877815" lon="0.842960">
        <ele>321.898</ele>
        <time>1998-01-15T09:18:29Z</time>
      </trkpt>
      <trkpt lat="41.877832" lon="0.842876">
        <ele>323.085</ele>
        <time>1998-01-15T09:18:32Z</time>
      </trkpt>
      <trkpt lat="41.877835" lon="0.842850">
        <ele>323.262</ele>
        <time>1998-01-15T09:18:33Z</time>
      </trkpt>
      <trkpt lat="41.877848" lon="0.842768">
        <ele>324.253</ele>
        <time>1998-01-15T09:18:36Z</time>
      </trkpt>
      <trkpt lat="41.877866" lon="0.842684">
        <ele>325.226</ele>
        <time>1998-01-15T09:18:39Z</time>
      </trkpt>
      <trkpt lat="41.877892" lon="0.842632">
        <ele>326.047</ele>
        <time>1998-01-15T09:18:41Z</time>
      </trkpt>
      <trkpt lat="41.877907" lon="0.842608">
        <ele>326.411</ele>
        <time>1998-01-15T09:18:42Z</time>
      </trkpt>
      <trkpt lat="41.877968" lon="0.842523">
        <ele>327.408</ele>
        <time>1998-01-15T09:18:46Z</time>
      </trkpt>
      <trkpt lat="41.877988" lon="0.842506">
        <ele>327.634</ele>
        <time>1998-01-15T09:18:47Z</time>
      </trkpt>
      <trkpt lat="41.878098" lon="0.842448">
        <ele>328.624</ele>
        <time>1998-01-15T09:18:52Z</time>
      </trkpt>
      <trkpt lat="41.878167" lon="0.842412">
        <ele>329.615</ele>
        <time>1998-01-15T09:18:55Z</time>
      </trkpt>
      <trkpt lat="41.878188" lon="0.842395">
        <ele>329.857</ele>
        <time>1998-01-15T09:18:56Z</time>
      </trkpt>
      <trkpt lat="41.878337" lon="0.842272">
        <ele>330.255</ele>
        <time>1998-01-15T09:19:03Z</time>
      </trkpt>
      <trkpt lat="41.878380" lon="0.842234">
        <ele>330.812</ele>
        <time>1998-01-15T09:19:05Z</time>
      </trkpt>
      <trkpt lat="41.878486" lon="0.842129">
        <ele>330.889</ele>
        <time>1998-01-15T09:19:10Z</time>
      </trkpt>
      <trkpt lat="41.878632" lon="0.841974">
        <ele>331.230</ele>
        <time>1998-01-15T09:19:17Z</time>
      </trkpt>
      <trkpt lat="41.878837" lon="0.841749">
        <ele>331.642</ele>
        <time>1998-01-15T09:19:26Z</time>
      </trkpt>
      <trkpt lat="41.878860" lon="0.841720">
        <ele>331.822</ele>
        <time>1998-01-15T09:19:27Z</time>
      </trkpt>
      <trkpt lat="41.878960" lon="0.841535">
        <ele>332.414</ele>
        <time>1998-01-15T09:19:33Z</time>
      </trkpt>
      <trkpt lat="41.878990" lon="0.841299">
        <ele>332.808</ele>
        <time>1998-01-15T09:19:40Z</time>
      </trkpt>
      <trkpt lat="41.878991" lon="0.841193">
        <ele>333.086</ele>
        <time>1998-01-15T09:19:44Z</time>
      </trkpt>
      <trkpt lat="41.878979" lon="0.841130">
        <ele>333.466</ele>
        <time>1998-01-15T09:19:46Z</time>
      </trkpt>
      <trkpt lat="41.878954" lon="0.841069">
        <ele>334.017</ele>
        <time>1998-01-15T09:19:48Z</time>
      </trkpt>
      <trkpt lat="41.878896" lon="0.841005">
        <ele>334.689</ele>
        <time>1998-01-15T09:19:51Z</time>
      </trkpt>
      <trkpt lat="41.878779" lon="0.840947">
        <ele>335.447</ele>
        <time>1998-01-15T09:19:56Z</time>
      </trkpt>
      <trkpt lat="41.878717" lon="0.840917">
        <ele>336.654</ele>
        <time>1998-01-15T09:19:59Z</time>
      </trkpt>
      <trkpt lat="41.878615" lon="0.840863">
        <ele>337.631</ele>
        <time>1998-01-15T09:20:04Z</time>
      </trkpt>
      <trkpt lat="41.878597" lon="0.840847">
        <ele>338.012</ele>
        <time>1998-01-15T09:20:05Z</time>
      </trkpt>
      <trkpt lat="41.878552" lon="0.840789">
        <ele>338.863</ele>
        <time>1998-01-15T09:20:08Z</time>
      </trkpt>
      <trkpt lat="41.878515" lon="0.840716">
        <ele>340.044</ele>
        <time>1998-01-15T09:20:11Z</time>
      </trkpt>
      <trkpt lat="41.878505" lon="0.840663">
        <ele>340.618</ele>
        <time>1998-01-15T09:20:13Z</time>
      </trkpt>
      <trkpt lat="41.878497" lon="0.840608">
        <ele>340.608</ele>
        <time>1998-01-15T09:20:15Z</time>
      </trkpt>
      <trkpt lat="41.878503" lon="0.840519">
        <ele>341.288</ele>
        <time>1998-01-15T09:20:18Z</time>
      </trkpt>
      <trkpt lat="41.878530" lon="0.840435">
        <ele>342.218</ele>
        <time>1998-01-15T09:20:21Z</time>
      </trkpt>
      <trkpt lat="41.878542" lon="0.840410">
        <ele>342.629</ele>
        <time>1998-01-15T09:20:22Z</time>
      </trkpt>
      <trkpt lat="41.878568" lon="0.840364">
        <ele>343.241</ele>
        <time>1998-01-15T09:20:24Z</time>
      </trkpt>
      <trkpt lat="41.878630" lon="0.840276">
        <ele>344.259</ele>
        <time>1998-01-15T09:20:28Z</time>
      </trkpt>
      <trkpt lat="41.878647" lon="0.840251">
        <ele>344.436</ele>
        <time>1998-01-15T09:20:29Z</time>
      </trkpt>
      <trkpt lat="41.878697" lon="0.840136">
        <ele>345.473</ele>
        <time>1998-01-15T09:20:33Z</time>
      </trkpt>
      <trkpt lat="41.878706" lon="0.840037">
        <ele>345.674</ele>
        <time>1998-01-15T09:20:36Z</time>
      </trkpt>
      <trkpt lat="41.878652" lon="0.839867">
        <ele>346.071</ele>
        <time>1998-01-15T09:20:42Z</time>
      </trkpt>
      <trkpt lat="41.878620" lon="0.839818">
        <ele>346.441</ele>
        <time>1998-01-15T09:20:44Z</time>
      </trkpt>
      <trkpt lat="41.878550" lon="0.839714">
        <ele>347.015</ele>
        <time>1998-01-15T09:20:48Z</time>
      </trkpt>
      <trkpt lat="41.878512" lon="0.839500">
        <ele>347.408</ele>
        <time>1998-01-15T09:20:54Z</time>
      </trkpt>
      <trkpt lat="41.878489" lon="0.839187">
        <ele>347.099</ele>
        <time>1998-01-15T09:21:00Z</time>
      </trkpt>
      <trkpt lat="41.878485" lon="0.838915">
        <ele>347.479</ele>
        <time>1998-01-15T09:21:06Z</time>
      </trkpt>
      <trkpt lat="41.878477" lon="0.838825">
        <ele>347.650</ele>
        <time>1998-01-15T09:21:08Z</time>
      </trkpt>
      <trkpt lat="41.878423" lon="0.838635">
        <ele>347.492</ele>
        <time>1998-01-15T09:21:13Z</time>
      </trkpt>
      <trkpt lat="41.878343" lon="0.838390">
        <ele>348.640</ele>
        <time>1998-01-15T09:21:20Z</time>
      </trkpt>
      <trkpt lat="41.878282" lon="0.838116">
        <ele>349.697</ele>
        <time>1998-01-15T09:21:28Z</time>
      </trkpt>
      <trkpt lat="41.878274" lon="0.838083">
        <ele>349.874</ele>
        <time>1998-01-15T09:21:29Z</time>
      </trkpt>
      <trkpt lat="41.878245" lon="0.837985">
        <ele>351.255</ele>
        <time>1998-01-15T09:21:32Z</time>
      </trkpt>
      <trkpt lat="41.878220" lon="0.837888">
        <ele>351.833</ele>
        <time>1998-01-15T09:21:35Z</time>
      </trkpt>
      <trkpt lat="41.878197" lon="0.837829">
        <ele>352.223</ele>
        <time>1998-01-15T09:21:37Z</time>
      </trkpt>
      <trkpt lat="41.878158" lon="0.837710">
        <ele>353.415</ele>
        <time>1998-01-15T09:21:41Z</time>
      </trkpt>
      <trkpt lat="41.878148" lon="0.837680">
        <ele>353.808</ele>
        <time>1998-01-15T09:21:42Z</time>
      </trkpt>
      <trkpt lat="41.878118" lon="0.837589">
        <ele>354.895</ele>
        <time>1998-01-15T09:21:45Z</time>
      </trkpt>
      <trkpt lat="41.878083" lon="0.837400">
        <ele>355.845</ele>
        <time>1998-01-15T09:21:51Z</time>
      </trkpt>
      <trkpt lat="41.878073" lon="0.837217">
        <ele>356.826</ele>
        <time>1998-01-15T09:21:57Z</time>
      </trkpt>
      <trkpt lat="41.878074" lon="0.837188">
        <ele>357.048</ele>
        <time>1998-01-15T09:21:58Z</time>
      </trkpt>
      <trkpt lat="41.878090" lon="0.837044">
        <ele>358.076</ele>
        <time>1998-01-15T09:22:03Z</time>
      </trkpt>
      <trkpt lat="41.878094" lon="0.836986">
        <ele>358.873</ele>
        <time>1998-01-15T09:22:05Z</time>
      </trkpt>
      <trkpt lat="41.878102" lon="0.836922">
        <ele>359.480</ele>
        <time>1998-01-15T09:22:07Z</time>
      </trkpt>
      <trkpt lat="41.878125" lon="0.836809">
        <ele>360.221</ele>
        <time>1998-01-15T09:22:11Z</time>
      </trkpt>
      <trkpt lat="41.878134" lon="0.836748">
        <ele>360.455</ele>
        <time>1998-01-15T09:22:13Z</time>
      </trkpt>
      <trkpt lat="41.878163" lon="0.836565">
        <ele>360.807</ele>
        <time>1998-01-15T09:22:19Z</time>
      </trkpt>
      <trkpt lat="41.878175" lon="0.836383">
        <ele>361.017</ele>
        <time>1998-01-15T09:22:25Z</time>
      </trkpt>
      <trkpt lat="41.878148" lon="0.836049">
        <ele>361.408</ele>
        <time>1998-01-15T09:22:35Z</time>
      </trkpt>
      <trkpt lat="41.878142" lon="0.836016">
        <ele>361.477</ele>
        <time>1998-01-15T09:22:36Z</time>
      </trkpt>
      <trkpt lat="41.878092" lon="0.835803">
        <ele>362.287</ele>
        <time>1998-01-15T09:22:42Z</time>
      </trkpt>
      <trkpt lat="41.878072" lon="0.835732">
        <ele>362.698</ele>
        <time>1998-01-15T09:22:44Z</time>
      </trkpt>
      <trkpt lat="41.877991" lon="0.835565">
        <ele>362.650</ele>
        <time>1998-01-15T09:22:50Z</time>
      </trkpt>
      <trkpt lat="41.877861" lon="0.835414">
        <ele>362.838</ele>
        <time>1998-01-15T09:22:57Z</time>
      </trkpt>
      <trkpt lat="41.877811" lon="0.835318">
        <ele>364.065</ele>
        <time>1998-01-15T09:23:01Z</time>
      </trkpt>
      <trkpt lat="41.877791" lon="0.835259">
        <ele>365.022</ele>
        <time>1998-01-15T09:23:03Z</time>
      </trkpt>
      <trkpt lat="41.877784" lon="0.835229">
        <ele>365.423</ele>
        <time>1998-01-15T09:23:04Z</time>
      </trkpt>
      <trkpt lat="41.877766" lon="0.835147">
        <ele>366.679</ele>
        <time>1998-01-15T09:23:07Z</time>
      </trkpt>
      <trkpt lat="41.877760" lon="0.835070">
        <ele>367.805</ele>
        <time>1998-01-15T09:23:10Z</time>
      </trkpt>
      <trkpt lat="41.877758" lon="0.835048">
        <ele>368.225</ele>
        <time>1998-01-15T09:23:11Z</time>
      </trkpt>
      <trkpt lat="41.877748" lon="0.834983">
        <ele>368.808</ele>
        <time>1998-01-15T09:23:14Z</time>
      </trkpt>
      <trkpt lat="41.877750" lon="0.834863">
        <ele>370.299</ele>
        <time>1998-01-15T09:23:19Z</time>
      </trkpt>
      <trkpt lat="41.877753" lon="0.834790">
        <ele>371.269</ele>
        <time>1998-01-15T09:23:22Z</time>
      </trkpt>
      <trkpt lat="41.877747" lon="0.834729">
        <ele>372.490</ele>
        <time>1998-01-15T09:23:25Z</time>
      </trkpt>
      <trkpt lat="41.877748" lon="0.834667">
        <ele>373.682</ele>
        <time>1998-01-15T09:23:28Z</time>
      </trkpt>
      <trkpt lat="41.877750" lon="0.834623">
        <ele>374.690</ele>
        <time>1998-01-15T09:23:30Z</time>
      </trkpt>
      <trkpt lat="41.877752" lon="0.834584">
        <ele>375.417</ele>
        <time>1998-01-15T09:23:32Z</time>
      </trkpt>
      <trkpt lat="41.877752" lon="0.834566">
        <ele>375.614</ele>
        <time>1998-01-15T09:23:33Z</time>
      </trkpt>
      <trkpt lat="41.877752" lon="0.834470">
        <ele>377.075</ele>
        <time>1998-01-15T09:23:38Z</time>
      </trkpt>
      <trkpt lat="41.877756" lon="0.834418">
        <ele>378.017</ele>
        <time>1998-01-15T09:23:41Z</time>
      </trkpt>
      <trkpt lat="41.877763" lon="0.834374">
        <ele>379.287</ele>
        <time>1998-01-15T09:23:44Z</time>
      </trkpt>
      <trkpt lat="41.877775" lon="0.834311">
        <ele>380.415</ele>
        <time>1998-01-15T09:23:48Z</time>
      </trkpt>
      <trkpt lat="41.877784" lon="0.834279">
        <ele>380.808</ele>
        <time>1998-01-15T09:23:50Z</time>
      </trkpt>
      <trkpt lat="41.877791" lon="0.834226">
        <ele>381.433</ele>
        <time>1998-01-15T09:23:53Z</time>
      </trkpt>
      <trkpt lat="41.877795" lon="0.834209">
        <ele>381.873</ele>
        <time>1998-01-15T09:23:54Z</time>
      </trkpt>
      <trkpt lat="41.877802" lon="0.834176">
        <ele>382.054</ele>
        <time>1998-01-15T09:23:56Z</time>
      </trkpt>
      <trkpt lat="41.877810" lon="0.834073">
        <ele>382.616</ele>
        <time>1998-01-15T09:24:02Z</time>
      </trkpt>
      <trkpt lat="41.877816" lon="0.834058">
        <ele>382.814</ele>
        <time>1998-01-15T09:24:03Z</time>
      </trkpt>
      <trkpt lat="41.877822" lon="0.834009">
        <ele>383.831</ele>
        <time>1998-01-15T09:24:06Z</time>
      </trkpt>
      <trkpt lat="41.877819" lon="0.833961">
        <ele>385.018</ele>
        <time>1998-01-15T09:24:09Z</time>
      </trkpt>
      <trkpt lat="41.877825" lon="0.833925">
        <ele>385.269</ele>
        <time>1998-01-15T09:24:11Z</time>
      </trkpt>
      <trkpt lat="41.877835" lon="0.833877">
        <ele>386.253</ele>
        <time>1998-01-15T09:24:14Z</time>
      </trkpt>
      <trkpt lat="41.877848" lon="0.833828">
        <ele>387.204</ele>
        <time>1998-01-15T09:24:17Z</time>
      </trkpt>
      <trkpt lat="41.877849" lon="0.833793">
        <ele>387.814</ele>
        <time>1998-01-15T09:24:19Z</time>
      </trkpt>
      <trkpt lat="41.877859" lon="0.833720">
        <ele>388.208</ele>
        <time>1998-01-15T09:24:23Z</time>
      </trkpt>
      <trkpt lat="41.877873" lon="0.833654">
        <ele>389.027</ele>
        <time>1998-01-15T09:24:27Z</time>
      </trkpt>
      <trkpt lat="41.877872" lon="0.833640">
        <ele>389.017</ele>
        <time>1998-01-15T09:24:28Z</time>
      </trkpt>
      <trkpt lat="41.877850" lon="0.833621">
        <ele>389.418</ele>
        <time>1998-01-15T09:24:30Z</time>
      </trkpt>
      <trkpt lat="41.877825" lon="0.833620">
        <ele>389.680</ele>
        <time>1998-01-15T09:24:32Z</time>
      </trkpt>
      <trkpt lat="41.877777" lon="0.833705">
        <ele>389.668</ele>
        <time>1998-01-15T09:24:37Z</time>
      </trkpt>
      <trkpt lat="41.877727" lon="0.833950">
        <ele>389.825</ele>
        <time>1998-01-15T09:24:45Z</time>
      </trkpt>
      <trkpt lat="41.877688" lon="0.834076">
        <ele>389.642</ele>
        <time>1998-01-15T09:24:49Z</time>
      </trkpt>
      <trkpt lat="41.877647" lon="0.834095">
        <ele>390.013</ele>
        <time>1998-01-15T09:24:51Z</time>
      </trkpt>
      <trkpt lat="41.877615" lon="0.834062">
        <ele>390.296</ele>
        <time>1998-01-15T09:24:53Z</time>
      </trkpt>
      <trkpt lat="41.877605" lon="0.834042">
        <ele>390.431</ele>
        <time>1998-01-15T09:24:54Z</time>
      </trkpt>
      <trkpt lat="41.877605" lon="0.834022">
        <ele>390.624</ele>
        <time>1998-01-15T09:24:55Z</time>
      </trkpt>
      <trkpt lat="41.877611" lon="0.833948">
        <ele>391.208</ele>
        <time>1998-01-15T09:24:59Z</time>
      </trkpt>
      <trkpt lat="41.877616" lon="0.833910">
        <ele>391.691</ele>
        <time>1998-01-15T09:25:01Z</time>
      </trkpt>
      <trkpt lat="41.877627" lon="0.833764">
        <ele>392.411</ele>
        <time>1998-01-15T09:25:08Z</time>
      </trkpt>
      <trkpt lat="41.877630" lon="0.833745">
        <ele>392.652</ele>
        <time>1998-01-15T09:25:09Z</time>
      </trkpt>
      <trkpt lat="41.877629" lon="0.833635">
        <ele>394.054</ele>
        <time>1998-01-15T09:25:15Z</time>
      </trkpt>
      <trkpt lat="41.877630" lon="0.833509">
        <ele>394.092</ele>
        <time>1998-01-15T09:25:22Z</time>
      </trkpt>
      <trkpt lat="41.877628" lon="0.833437">
        <ele>395.029</ele>
        <time>1998-01-15T09:25:26Z</time>
      </trkpt>
      <trkpt lat="41.877630" lon="0.833344">
        <ele>395.456</ele>
        <time>1998-01-15T09:25:31Z</time>
      </trkpt>
      <trkpt lat="41.877628" lon="0.833211">
        <ele>396.037</ele>
        <time>1998-01-15T09:25:38Z</time>
      </trkpt>
      <trkpt lat="41.877626" lon="0.833193">
        <ele>396.464</ele>
        <time>1998-01-15T09:25:39Z</time>
      </trkpt>
      <trkpt lat="41.877622" lon="0.833064">
        <ele>397.006</ele>
        <time>1998-01-15T09:25:46Z</time>
      </trkpt>
      <trkpt lat="41.877622" lon="0.833045">
        <ele>397.216</ele>
        <time>1998-01-15T09:25:47Z</time>
      </trkpt>
      <trkpt lat="41.877607" lon="0.832914">
        <ele>398.208</ele>
        <time>1998-01-15T09:25:54Z</time>
      </trkpt>
      <trkpt lat="41.877596" lon="0.832810">
        <ele>399.418</ele>
        <time>1998-01-15T09:25:59Z</time>
      </trkpt>
      <trkpt lat="41.877589" lon="0.832738">
        <ele>400.438</ele>
        <time>1998-01-15T09:26:03Z</time>
      </trkpt>
      <trkpt lat="41.877579" lon="0.832626">
        <ele>401.619</ele>
        <time>1998-01-15T09:26:09Z</time>
      </trkpt>
      <trkpt lat="41.877575" lon="0.832569">
        <ele>402.621</ele>
        <time>1998-01-15T09:26:12Z</time>
      </trkpt>
      <trkpt lat="41.877573" lon="0.832551">
        <ele>402.689</ele>
        <time>1998-01-15T09:26:13Z</time>
      </trkpt>
      <trkpt lat="41.877548" lon="0.832403">
        <ele>403.436</ele>
        <time>1998-01-15T09:26:21Z</time>
      </trkpt>
      <trkpt lat="41.877538" lon="0.832367">
        <ele>403.643</ele>
        <time>1998-01-15T09:26:23Z</time>
      </trkpt>
      <trkpt lat="41.877493" lon="0.832260">
        <ele>404.054</ele>
        <time>1998-01-15T09:26:28Z</time>
      </trkpt>
      <trkpt lat="41.877401" lon="0.832069">
        <ele>404.483</ele>
        <time>1998-01-15T09:26:34Z</time>
      </trkpt>
      <trkpt lat="41.877302" lon="0.831874">
        <ele>403.825</ele>
        <time>1998-01-15T09:26:39Z</time>
      </trkpt>
      <trkpt lat="41.877192" lon="0.831642">
        <ele>402.617</ele>
        <time>1998-01-15T09:26:44Z</time>
      </trkpt>
      <trkpt lat="41.877164" lon="0.831585">
        <ele>402.408</ele>
        <time>1998-01-15T09:26:45Z</time>
      </trkpt>
      <trkpt lat="41.877073" lon="0.831403">
        <ele>401.410</ele>
        <time>1998-01-15T09:26:48Z</time>
      </trkpt>
      <trkpt lat="41.876949" lon="0.831166">
        <ele>400.880</ele>
        <time>1998-01-15T09:26:52Z</time>
      </trkpt>
      <trkpt lat="41.876907" lon="0.831047">
        <ele>400.651</ele>
        <time>1998-01-15T09:26:54Z</time>
      </trkpt>
      <trkpt lat="41.876874" lon="0.830868">
        <ele>400.883</ele>
        <time>1998-01-15T09:26:57Z</time>
      </trkpt>
      <trkpt lat="41.876820" lon="0.830538">
        <ele>401.641</ele>
        <time>1998-01-15T09:27:03Z</time>
      </trkpt>
      <trkpt lat="41.876791" lon="0.830398">
        <ele>402.638</ele>
        <time>1998-01-15T09:27:06Z</time>
      </trkpt>
      <trkpt lat="41.876763" lon="0.830215">
        <ele>403.465</ele>
        <time>1998-01-15T09:27:10Z</time>
      </trkpt>
      <trkpt lat="41.876755" lon="0.830168">
        <ele>403.646</ele>
        <time>1998-01-15T09:27:11Z</time>
      </trkpt>
      <trkpt lat="41.876700" lon="0.829880">
        <ele>404.678</ele>
        <time>1998-01-15T09:27:17Z</time>
      </trkpt>
      <trkpt lat="41.876693" lon="0.829832">
        <ele>404.833</ele>
        <time>1998-01-15T09:27:18Z</time>
      </trkpt>
      <trkpt lat="41.876660" lon="0.829603">
        <ele>405.826</ele>
        <time>1998-01-15T09:27:23Z</time>
      </trkpt>
      <trkpt lat="41.876653" lon="0.829517">
        <ele>406.408</ele>
        <time>1998-01-15T09:27:25Z</time>
      </trkpt>
      <trkpt lat="41.876641" lon="0.829440">
        <ele>407.039</ele>
        <time>1998-01-15T09:27:27Z</time>
      </trkpt>
      <trkpt lat="41.876613" lon="0.829268">
        <ele>408.299</ele>
        <time>1998-01-15T09:27:32Z</time>
      </trkpt>
      <trkpt lat="41.876566" lon="0.829131">
        <ele>409.410</ele>
        <time>1998-01-15T09:27:36Z</time>
      </trkpt>
      <trkpt lat="41.876546" lon="0.829061">
        <ele>410.062</ele>
        <time>1998-01-15T09:27:38Z</time>
      </trkpt>
      <trkpt lat="41.876523" lon="0.829006">
        <ele>410.670</ele>
        <time>1998-01-15T09:27:40Z</time>
      </trkpt>
      <trkpt lat="41.876482" lon="0.828939">
        <ele>411.697</ele>
        <time>1998-01-15T09:27:43Z</time>
      </trkpt>
      <trkpt lat="41.876467" lon="0.828920">
        <ele>412.054</ele>
        <time>1998-01-15T09:27:44Z</time>
      </trkpt>
      <trkpt lat="41.876440" lon="0.828882">
        <ele>412.615</ele>
        <time>1998-01-15T09:27:46Z</time>
      </trkpt>
      <trkpt lat="41.876416" lon="0.828827">
        <ele>413.898</ele>
        <time>1998-01-15T09:27:49Z</time>
      </trkpt>
      <trkpt lat="41.876403" lon="0.828785">
        <ele>414.415</ele>
        <time>1998-01-15T09:27:51Z</time>
      </trkpt>
      <trkpt lat="41.876373" lon="0.828704">
        <ele>415.026</ele>
        <time>1998-01-15T09:27:55Z</time>
      </trkpt>
      <trkpt lat="41.876344" lon="0.828649">
        <ele>416.208</ele>
        <time>1998-01-15T09:27:58Z</time>
      </trkpt>
      <trkpt lat="41.876319" lon="0.828600">
        <ele>417.611</ele>
        <time>1998-01-15T09:28:01Z</time>
      </trkpt>
      <trkpt lat="41.876313" lon="0.828565">
        <ele>418.851</ele>
        <time>1998-01-15T09:28:03Z</time>
      </trkpt>
      <trkpt lat="41.876312" lon="0.828544">
        <ele>419.012</ele>
        <time>1998-01-15T09:28:04Z</time>
      </trkpt>
      <trkpt lat="41.876293" lon="0.828437">
        <ele>419.894</ele>
        <time>1998-01-15T09:28:09Z</time>
      </trkpt>
      <trkpt lat="41.876281" lon="0.828375">
        <ele>420.862</ele>
        <time>1998-01-15T09:28:12Z</time>
      </trkpt>
      <trkpt lat="41.876276" lon="0.828355">
        <ele>421.049</ele>
        <time>1998-01-15T09:28:13Z</time>
      </trkpt>
      <trkpt lat="41.876250" lon="0.828210">
        <ele>421.016</ele>
        <time>1998-01-15T09:28:20Z</time>
      </trkpt>
      <trkpt lat="41.876248" lon="0.828122">
        <ele>422.217</ele>
        <time>1998-01-15T09:28:24Z</time>
      </trkpt>
      <trkpt lat="41.876254" lon="0.828031">
        <ele>422.299</ele>
        <time>1998-01-15T09:28:28Z</time>
      </trkpt>
      <trkpt lat="41.876241" lon="0.827867">
        <ele>423.407</ele>
        <time>1998-01-15T09:28:35Z</time>
      </trkpt>
      <trkpt lat="41.876235" lon="0.827772">
        <ele>423.827</ele>
        <time>1998-01-15T09:28:39Z</time>
      </trkpt>
      <trkpt lat="41.876227" lon="0.827574">
        <ele>423.808</ele>
        <time>1998-01-15T09:28:47Z</time>
      </trkpt>
      <trkpt lat="41.876216" lon="0.827359">
        <ele>423.841</ele>
        <time>1998-01-15T09:28:55Z</time>
      </trkpt>
      <trkpt lat="41.876193" lon="0.827114">
        <ele>424.481</ele>
        <time>1998-01-15T09:29:03Z</time>
      </trkpt>
      <trkpt lat="41.876167" lon="0.826988">
        <ele>424.422</ele>
        <time>1998-01-15T09:29:07Z</time>
      </trkpt>
      <trkpt lat="41.876147" lon="0.826904">
        <ele>425.434</ele>
        <time>1998-01-15T09:29:10Z</time>
      </trkpt>
      <trkpt lat="41.876142" lon="0.826871">
        <ele>425.452</ele>
        <time>1998-01-15T09:29:11Z</time>
      </trkpt>
      <trkpt lat="41.876106" lon="0.826676">
        <ele>426.089</ele>
        <time>1998-01-15T09:29:17Z</time>
      </trkpt>
      <trkpt lat="41.876088" lon="0.826568">
        <ele>426.646</ele>
        <time>1998-01-15T09:29:20Z</time>
      </trkpt>
      <trkpt lat="41.876057" lon="0.826396">
        <ele>426.627</ele>
        <time>1998-01-15T09:29:25Z</time>
      </trkpt>
      <trkpt lat="41.876014" lon="0.826122">
        <ele>427.896</ele>
        <time>1998-01-15T09:29:33Z</time>
      </trkpt>
      <trkpt lat="41.876007" lon="0.826086">
        <ele>427.831</ele>
        <time>1998-01-15T09:29:34Z</time>
      </trkpt>
      <trkpt lat="41.875962" lon="0.825804">
        <ele>428.824</ele>
        <time>1998-01-15T09:29:42Z</time>
      </trkpt>
      <trkpt lat="41.875958" lon="0.825766">
        <ele>429.008</ele>
        <time>1998-01-15T09:29:43Z</time>
      </trkpt>
      <trkpt lat="41.875947" lon="0.825512">
        <ele>429.891</ele>
        <time>1998-01-15T09:29:50Z</time>
      </trkpt>
      <trkpt lat="41.875944" lon="0.825479">
        <ele>430.061</ele>
        <time>1998-01-15T09:29:51Z</time>
      </trkpt>
      <trkpt lat="41.875941" lon="0.825326">
        <ele>431.252</ele>
        <time>1998-01-15T09:29:55Z</time>
      </trkpt>
      <trkpt lat="41.875929" lon="0.825218">
        <ele>431.664</ele>
        <time>1998-01-15T09:29:58Z</time>
      </trkpt>
      <trkpt lat="41.875909" lon="0.824982">
        <ele>432.222</ele>
        <time>1998-01-15T09:30:05Z</time>
      </trkpt>
      <trkpt lat="41.875909" lon="0.824949">
        <ele>432.489</ele>
        <time>1998-01-15T09:30:06Z</time>
      </trkpt>
      <trkpt lat="41.875908" lon="0.824692">
        <ele>433.276</ele>
        <time>1998-01-15T09:30:14Z</time>
      </trkpt>
      <trkpt lat="41.875909" lon="0.824661">
        <ele>433.287</ele>
        <time>1998-01-15T09:30:15Z</time>
      </trkpt>
      <trkpt lat="41.875922" lon="0.824400">
        <ele>434.442</ele>
        <time>1998-01-15T09:30:23Z</time>
      </trkpt>
      <trkpt lat="41.875914" lon="0.824202">
        <ele>435.622</ele>
        <time>1998-01-15T09:30:29Z</time>
      </trkpt>
      <trkpt lat="41.875904" lon="0.824102">
        <ele>436.214</ele>
        <time>1998-01-15T09:30:32Z</time>
      </trkpt>
      <trkpt lat="41.875895" lon="0.824036">
        <ele>436.608</ele>
        <time>1998-01-15T09:30:34Z</time>
      </trkpt>
      <trkpt lat="41.875883" lon="0.823905">
        <ele>437.876</ele>
        <time>1998-01-15T09:30:38Z</time>
      </trkpt>
      <trkpt lat="41.875873" lon="0.823834">
        <ele>437.816</ele>
        <time>1998-01-15T09:30:40Z</time>
      </trkpt>
      <trkpt lat="41.875823" lon="0.823635">
        <ele>439.267</ele>
        <time>1998-01-15T09:30:46Z</time>
      </trkpt>
      <trkpt lat="41.875761" lon="0.823403">
        <ele>440.249</ele>
        <time>1998-01-15T09:30:54Z</time>
      </trkpt>
      <trkpt lat="41.875752" lon="0.823374">
        <ele>440.417</ele>
        <time>1998-01-15T09:30:55Z</time>
      </trkpt>
      <trkpt lat="41.875726" lon="0.823288">
        <ele>441.444</ele>
        <time>1998-01-15T09:30:58Z</time>
      </trkpt>
      <trkpt lat="41.875685" lon="0.823110">
        <ele>442.461</ele>
        <time>1998-01-15T09:31:04Z</time>
      </trkpt>
      <trkpt lat="41.875676" lon="0.823081">
        <ele>442.672</ele>
        <time>1998-01-15T09:31:05Z</time>
      </trkpt>
      <trkpt lat="41.875650" lon="0.823003">
        <ele>443.627</ele>
        <time>1998-01-15T09:31:08Z</time>
      </trkpt>
      <trkpt lat="41.875621" lon="0.822895">
        <ele>444.868</ele>
        <time>1998-01-15T09:31:12Z</time>
      </trkpt>
      <trkpt lat="41.875546" lon="0.822704">
        <ele>445.814</ele>
        <time>1998-01-15T09:31:19Z</time>
      </trkpt>
      <trkpt lat="41.875539" lon="0.822675">
        <ele>446.208</ele>
        <time>1998-01-15T09:31:20Z</time>
      </trkpt>
      <trkpt lat="41.875515" lon="0.822600">
        <ele>447.094</ele>
        <time>1998-01-15T09:31:23Z</time>
      </trkpt>
      <trkpt lat="41.875475" lon="0.822501">
        <ele>447.694</ele>
        <time>1998-01-15T09:31:27Z</time>
      </trkpt>
      <trkpt lat="41.875430" lon="0.822387">
        <ele>448.295</ele>
        <time>1998-01-15T09:31:32Z</time>
      </trkpt>
      <trkpt lat="41.875408" lon="0.822320">
        <ele>448.887</ele>
        <time>1998-01-15T09:31:35Z</time>
      </trkpt>
      <trkpt lat="41.875378" lon="0.822236">
        <ele>449.455</ele>
        <time>1998-01-15T09:31:39Z</time>
      </trkpt>
      <trkpt lat="41.875348" lon="0.822138">
        <ele>450.272</ele>
        <time>1998-01-15T09:31:43Z</time>
      </trkpt>
      <trkpt lat="41.875339" lon="0.822110">
        <ele>450.629</ele>
        <time>1998-01-15T09:31:44Z</time>
      </trkpt>
      <trkpt lat="41.875299" lon="0.822001">
        <ele>451.650</ele>
        <time>1998-01-15T09:31:48Z</time>
      </trkpt>
      <trkpt lat="41.875269" lon="0.821921">
        <ele>452.014</ele>
        <time>1998-01-15T09:31:51Z</time>
      </trkpt>
      <trkpt lat="41.875243" lon="0.821838">
        <ele>452.654</ele>
        <time>1998-01-15T09:31:54Z</time>
      </trkpt>
      <trkpt lat="41.875202" lon="0.821716">
        <ele>453.609</ele>
        <time>1998-01-15T09:31:59Z</time>
      </trkpt>
      <trkpt lat="41.875195" lon="0.821691">
        <ele>453.608</ele>
        <time>1998-01-15T09:32:00Z</time>
      </trkpt>
      <trkpt lat="41.875184" lon="0.821529">
        <ele>454.273</ele>
        <time>1998-01-15T09:32:06Z</time>
      </trkpt>
      <trkpt lat="41.875166" lon="0.821299">
        <ele>454.233</ele>
        <time>1998-01-15T09:32:13Z</time>
      </trkpt>
      <trkpt lat="41.875152" lon="0.821085">
        <ele>454.624</ele>
        <time>1998-01-15T09:32:18Z</time>
      </trkpt>
      <trkpt lat="41.875152" lon="0.821036">
        <ele>454.836</ele>
        <time>1998-01-15T09:32:19Z</time>
      </trkpt>
      <trkpt lat="41.875227" lon="0.820823">
        <ele>453.894</ele>
        <time>1998-01-15T09:32:25Z</time>
      </trkpt>
      <trkpt lat="41.875267" lon="0.820799">
        <ele>453.631</ele>
        <time>1998-01-15T09:32:26Z</time>
      </trkpt>
      <trkpt lat="41.875406" lon="0.820732">
        <ele>453.238</ele>
        <time>1998-01-15T09:32:29Z</time>
      </trkpt>
      <trkpt lat="41.875458" lon="0.820713">
        <ele>453.039</ele>
        <time>1998-01-15T09:32:30Z</time>
      </trkpt>
      <trkpt lat="41.875567" lon="0.820682">
        <ele>452.682</ele>
        <time>1998-01-15T09:32:32Z</time>
      </trkpt>
      <trkpt lat="41.875775" lon="0.820618">
        <ele>451.643</ele>
        <time>1998-01-15T09:32:36Z</time>
      </trkpt>
      <trkpt lat="41.875824" lon="0.820604">
        <ele>451.617</ele>
        <time>1998-01-15T09:32:37Z</time>
      </trkpt>
      <trkpt lat="41.875996" lon="0.820545">
        <ele>451.808</ele>
        <time>1998-01-15T09:32:41Z</time>
      </trkpt>
      <trkpt lat="41.876056" lon="0.820488">
        <ele>452.450</ele>
        <time>1998-01-15T09:32:43Z</time>
      </trkpt>
      <trkpt lat="41.876086" lon="0.820346">
        <ele>452.440</ele>
        <time>1998-01-15T09:32:46Z</time>
      </trkpt>
      <trkpt lat="41.876080" lon="0.820294">
        <ele>452.671</ele>
        <time>1998-01-15T09:32:47Z</time>
      </trkpt>
      <trkpt lat="41.876057" lon="0.820194">
        <ele>452.843</ele>
        <time>1998-01-15T09:32:49Z</time>
      </trkpt>
      <trkpt lat="41.876025" lon="0.820024">
        <ele>453.611</ele>
        <time>1998-01-15T09:32:52Z</time>
      </trkpt>
      <trkpt lat="41.876022" lon="0.819970">
        <ele>453.828</ele>
        <time>1998-01-15T09:32:53Z</time>
      </trkpt>
      <trkpt lat="41.876026" lon="0.819858">
        <ele>454.255</ele>
        <time>1998-01-15T09:32:55Z</time>
      </trkpt>
      <trkpt lat="41.876046" lon="0.819744">
        <ele>454.686</ele>
        <time>1998-01-15T09:32:57Z</time>
      </trkpt>
      <trkpt lat="41.876171" lon="0.819269">
        <ele>454.856</ele>
        <time>1998-01-15T09:33:05Z</time>
      </trkpt>
      <trkpt lat="41.876253" lon="0.818913">
        <ele>454.059</ele>
        <time>1998-01-15T09:33:11Z</time>
      </trkpt>
      <trkpt lat="41.876342" lon="0.818549">
        <ele>454.014</ele>
        <time>1998-01-15T09:33:18Z</time>
      </trkpt>
      <trkpt lat="41.876384" lon="0.818276">
        <ele>453.608</ele>
        <time>1998-01-15T09:33:24Z</time>
      </trkpt>
      <trkpt lat="41.876377" lon="0.818014">
        <ele>454.647</ele>
        <time>1998-01-15T09:33:29Z</time>
      </trkpt>
      <trkpt lat="41.876367" lon="0.817914">
        <ele>455.067</ele>
        <time>1998-01-15T09:33:31Z</time>
      </trkpt>
      <trkpt lat="41.876324" lon="0.817689">
        <ele>455.468</ele>
        <time>1998-01-15T09:33:36Z</time>
      </trkpt>
      <trkpt lat="41.876292" lon="0.817558">
        <ele>456.270</ele>
        <time>1998-01-15T09:33:39Z</time>
      </trkpt>
      <trkpt lat="41.876189" lon="0.817159">
        <ele>456.278</ele>
        <time>1998-01-15T09:33:48Z</time>
      </trkpt>
      <trkpt lat="41.876095" lon="0.816924">
        <ele>456.675</ele>
        <time>1998-01-15T09:33:54Z</time>
      </trkpt>
      <trkpt lat="41.875995" lon="0.816760">
        <ele>457.492</ele>
        <time>1998-01-15T09:33:59Z</time>
      </trkpt>
      <trkpt lat="41.875956" lon="0.816701">
        <ele>458.033</ele>
        <time>1998-01-15T09:34:01Z</time>
      </trkpt>
      <trkpt lat="41.875921" lon="0.816635">
        <ele>458.615</ele>
        <time>1998-01-15T09:34:03Z</time>
      </trkpt>
      <trkpt lat="41.875828" lon="0.816447">
        <ele>459.465</ele>
        <time>1998-01-15T09:34:08Z</time>
      </trkpt>
      <trkpt lat="41.875807" lon="0.816414">
        <ele>459.811</ele>
        <time>1998-01-15T09:34:09Z</time>
      </trkpt>
      <trkpt lat="41.875679" lon="0.816289">
        <ele>460.808</ele>
        <time>1998-01-15T09:34:14Z</time>
      </trkpt>
      <trkpt lat="41.875649" lon="0.816270">
        <ele>460.843</ele>
        <time>1998-01-15T09:34:15Z</time>
      </trkpt>
      <trkpt lat="41.875444" lon="0.816112">
        <ele>461.063</ele>
        <time>1998-01-15T09:34:22Z</time>
      </trkpt>
      <trkpt lat="41.875267" lon="0.815834">
        <ele>461.074</ele>
        <time>1998-01-15T09:34:29Z</time>
      </trkpt>
      <trkpt lat="41.875242" lon="0.815791">
        <ele>461.066</ele>
        <time>1998-01-15T09:34:30Z</time>
      </trkpt>
      <trkpt lat="41.875109" lon="0.815542">
        <ele>460.074</ele>
        <time>1998-01-15T09:34:35Z</time>
      </trkpt>
      <trkpt lat="41.875079" lon="0.815490">
        <ele>459.821</ele>
        <time>1998-01-15T09:34:36Z</time>
      </trkpt>
      <trkpt lat="41.874991" lon="0.815319">
        <ele>459.098</ele>
        <time>1998-01-15T09:34:39Z</time>
      </trkpt>
      <trkpt lat="41.874935" lon="0.815200">
        <ele>458.649</ele>
        <time>1998-01-15T09:34:41Z</time>
      </trkpt>
      <trkpt lat="41.874912" lon="0.815137">
        <ele>458.449</ele>
        <time>1998-01-15T09:34:42Z</time>
      </trkpt>
      <trkpt lat="41.874877" lon="0.814998">
        <ele>457.802</ele>
        <time>1998-01-15T09:34:44Z</time>
      </trkpt>
      <trkpt lat="41.874858" lon="0.814929">
        <ele>457.622</ele>
        <time>1998-01-15T09:34:45Z</time>
      </trkpt>
      <trkpt lat="41.874846" lon="0.814859">
        <ele>457.408</ele>
        <time>1998-01-15T09:34:46Z</time>
      </trkpt>
      <trkpt lat="41.874828" lon="0.814793">
        <ele>457.436</ele>
        <time>1998-01-15T09:34:47Z</time>
      </trkpt>
      <trkpt lat="41.874758" lon="0.814616">
        <ele>457.296</ele>
        <time>1998-01-15T09:34:50Z</time>
      </trkpt>
      <trkpt lat="41.874692" lon="0.814523">
        <ele>457.297</ele>
        <time>1998-01-15T09:34:52Z</time>
      </trkpt>
      <trkpt lat="41.874524" lon="0.814337">
        <ele>456.889</ele>
        <time>1998-01-15T09:34:57Z</time>
      </trkpt>
      <trkpt lat="41.874497" lon="0.814296">
        <ele>456.677</ele>
        <time>1998-01-15T09:34:58Z</time>
      </trkpt>
      <trkpt lat="41.874417" lon="0.814025">
        <ele>457.294</ele>
        <time>1998-01-15T09:35:03Z</time>
      </trkpt>
      <trkpt lat="41.874413" lon="0.813967">
        <ele>457.491</ele>
        <time>1998-01-15T09:35:04Z</time>
      </trkpt>
      <trkpt lat="41.874446" lon="0.813746">
        <ele>458.292</ele>
        <time>1998-01-15T09:35:08Z</time>
      </trkpt>
      <trkpt lat="41.874490" lon="0.813590">
        <ele>458.683</ele>
        <time>1998-01-15T09:35:11Z</time>
      </trkpt>
      <trkpt lat="41.874571" lon="0.813300">
        <ele>459.825</ele>
        <time>1998-01-15T09:35:17Z</time>
      </trkpt>
      <trkpt lat="41.874625" lon="0.813006">
        <ele>460.017</ele>
        <time>1998-01-15T09:35:23Z</time>
      </trkpt>
      <trkpt lat="41.874632" lon="0.812869">
        <ele>461.008</ele>
        <time>1998-01-15T09:35:26Z</time>
      </trkpt>
      <trkpt lat="41.874623" lon="0.812739">
        <ele>462.220</ele>
        <time>1998-01-15T09:35:29Z</time>
      </trkpt>
      <trkpt lat="41.874620" lon="0.812656">
        <ele>462.610</ele>
        <time>1998-01-15T09:35:31Z</time>
      </trkpt>
      <trkpt lat="41.874620" lon="0.812526">
        <ele>463.261</ele>
        <time>1998-01-15T09:35:34Z</time>
      </trkpt>
      <trkpt lat="41.874607" lon="0.812297">
        <ele>464.443</ele>
        <time>1998-01-15T09:35:39Z</time>
      </trkpt>
      <trkpt lat="41.874599" lon="0.812252">
        <ele>464.891</ele>
        <time>1998-01-15T09:35:40Z</time>
      </trkpt>
      <trkpt lat="41.874546" lon="0.811993">
        <ele>465.278</ele>
        <time>1998-01-15T09:35:46Z</time>
      </trkpt>
      <trkpt lat="41.874527" lon="0.811958">
        <ele>465.635</ele>
        <time>1998-01-15T09:35:47Z</time>
      </trkpt>
      <trkpt lat="41.874447" lon="0.811832">
        <ele>466.826</ele>
        <time>1998-01-15T09:35:51Z</time>
      </trkpt>
      <trkpt lat="41.874428" lon="0.811803">
        <ele>467.257</ele>
        <time>1998-01-15T09:35:52Z</time>
      </trkpt>
      <trkpt lat="41.874279" lon="0.811598">
        <ele>468.000</ele>
        <time>1998-01-15T09:35:59Z</time>
      </trkpt>
      <trkpt lat="41.874255" lon="0.811570">
        <ele>468.220</ele>
        <time>1998-01-15T09:36:00Z</time>
      </trkpt>
      <trkpt lat="41.874179" lon="0.811496">
        <ele>469.208</ele>
        <time>1998-01-15T09:36:03Z</time>
      </trkpt>
      <trkpt lat="41.874070" lon="0.811410">
        <ele>469.267</ele>
        <time>1998-01-15T09:36:07Z</time>
      </trkpt>
      <trkpt lat="41.873921" lon="0.811338">
        <ele>470.467</ele>
        <time>1998-01-15T09:36:12Z</time>
      </trkpt>
      <trkpt lat="41.873891" lon="0.811324">
        <ele>470.628</ele>
        <time>1998-01-15T09:36:13Z</time>
      </trkpt>
      <trkpt lat="41.873698" lon="0.811258">
        <ele>471.670</ele>
        <time>1998-01-15T09:36:19Z</time>
      </trkpt>
      <trkpt lat="41.873667" lon="0.811251">
        <ele>471.868</ele>
        <time>1998-01-15T09:36:20Z</time>
      </trkpt>
      <trkpt lat="41.873500" lon="0.811208">
        <ele>472.615</ele>
        <time>1998-01-15T09:36:25Z</time>
      </trkpt>
      <trkpt lat="41.873466" lon="0.811200">
        <ele>472.622</ele>
        <time>1998-01-15T09:36:26Z</time>
      </trkpt>
      <trkpt lat="41.873221" lon="0.811159">
        <ele>472.893</ele>
        <time>1998-01-15T09:36:33Z</time>
      </trkpt>
      <trkpt lat="41.872960" lon="0.811111">
        <ele>473.028</ele>
        <time>1998-01-15T09:36:41Z</time>
      </trkpt>
      <trkpt lat="41.872850" lon="0.811078">
        <ele>473.689</ele>
        <time>1998-01-15T09:36:45Z</time>
      </trkpt>
      <trkpt lat="41.872795" lon="0.811064">
        <ele>474.017</ele>
        <time>1998-01-15T09:36:47Z</time>
      </trkpt>
      <trkpt lat="41.872716" lon="0.811049">
        <ele>474.608</ele>
        <time>1998-01-15T09:36:50Z</time>
      </trkpt>
      <trkpt lat="41.872617" lon="0.811039">
        <ele>475.234</ele>
        <time>1998-01-15T09:36:54Z</time>
      </trkpt>
      <trkpt lat="41.872571" lon="0.811036">
        <ele>475.694</ele>
        <time>1998-01-15T09:36:56Z</time>
      </trkpt>
      <trkpt lat="41.872499" lon="0.811015">
        <ele>476.885</ele>
        <time>1998-01-15T09:36:59Z</time>
      </trkpt>
      <trkpt lat="41.872454" lon="0.810997">
        <ele>477.237</ele>
        <time>1998-01-15T09:37:01Z</time>
      </trkpt>
      <trkpt lat="41.872411" lon="0.810976">
        <ele>477.895</ele>
        <time>1998-01-15T09:37:03Z</time>
      </trkpt>
      <trkpt lat="41.872339" lon="0.810915">
        <ele>479.072</ele>
        <time>1998-01-15T09:37:07Z</time>
      </trkpt>
      <trkpt lat="41.872298" lon="0.810888">
        <ele>480.099</ele>
        <time>1998-01-15T09:37:09Z</time>
      </trkpt>
      <trkpt lat="41.872279" lon="0.810874">
        <ele>480.470</ele>
        <time>1998-01-15T09:37:10Z</time>
      </trkpt>
      <trkpt lat="41.872198" lon="0.810792">
        <ele>481.684</ele>
        <time>1998-01-15T09:37:15Z</time>
      </trkpt>
      <trkpt lat="41.872168" lon="0.810761">
        <ele>482.407</ele>
        <time>1998-01-15T09:37:17Z</time>
      </trkpt>
      <trkpt lat="41.872153" lon="0.810740">
        <ele>482.817</ele>
        <time>1998-01-15T09:37:18Z</time>
      </trkpt>
      <trkpt lat="41.872099" lon="0.810656">
        <ele>484.008</ele>
        <time>1998-01-15T09:37:22Z</time>
      </trkpt>
      <trkpt lat="41.872071" lon="0.810610">
        <ele>484.290</ele>
        <time>1998-01-15T09:37:24Z</time>
      </trkpt>
      <trkpt lat="41.871996" lon="0.810457">
        <ele>485.040</ele>
        <time>1998-01-15T09:37:31Z</time>
      </trkpt>
      <trkpt lat="41.871985" lon="0.810435">
        <ele>485.271</ele>
        <time>1998-01-15T09:37:32Z</time>
      </trkpt>
      <trkpt lat="41.871936" lon="0.810360">
        <ele>485.833</ele>
        <time>1998-01-15T09:37:36Z</time>
      </trkpt>
      <trkpt lat="41.871906" lon="0.810295">
        <ele>486.041</ele>
        <time>1998-01-15T09:37:39Z</time>
      </trkpt>
      <trkpt lat="41.871870" lon="0.810230">
        <ele>486.278</ele>
        <time>1998-01-15T09:37:42Z</time>
      </trkpt>
      <trkpt lat="41.871838" lon="0.810131">
        <ele>486.665</ele>
        <time>1998-01-15T09:37:46Z</time>
      </trkpt>
      <trkpt lat="41.871872" lon="0.810011">
        <ele>486.216</ele>
        <time>1998-01-15T09:37:50Z</time>
      </trkpt>
      <trkpt lat="41.871977" lon="0.809923">
        <ele>485.425</ele>
        <time>1998-01-15T09:37:55Z</time>
      </trkpt>
      <trkpt lat="41.872001" lon="0.809906">
        <ele>485.226</ele>
        <time>1998-01-15T09:37:56Z</time>
      </trkpt>
      <trkpt lat="41.872160" lon="0.809818">
        <ele>484.808</ele>
        <time>1998-01-15T09:38:02Z</time>
      </trkpt>
      <trkpt lat="41.872378" lon="0.809767">
        <ele>485.208</ele>
        <time>1998-01-15T09:38:10Z</time>
      </trkpt>
      <trkpt lat="41.872632" lon="0.809758">
        <ele>485.264</ele>
        <time>1998-01-15T09:38:19Z</time>
      </trkpt>
      <trkpt lat="41.872741" lon="0.809646">
        <ele>485.414</ele>
        <time>1998-01-15T09:38:24Z</time>
      </trkpt>
      <trkpt lat="41.872778" lon="0.809464">
        <ele>485.435</ele>
        <time>1998-01-15T09:38:29Z</time>
      </trkpt>
      <trkpt lat="41.872725" lon="0.809273">
        <ele>485.857</ele>
        <time>1998-01-15T09:38:34Z</time>
      </trkpt>
      <trkpt lat="41.872677" lon="0.809013">
        <ele>486.065</ele>
        <time>1998-01-15T09:38:41Z</time>
      </trkpt>
      <trkpt lat="41.872658" lon="0.808938">
        <ele>486.242</ele>
        <time>1998-01-15T09:38:43Z</time>
      </trkpt>
      <trkpt lat="41.872555" lon="0.808686">
        <ele>487.249</ele>
        <time>1998-01-15T09:38:50Z</time>
      </trkpt>
      <trkpt lat="41.872522" lon="0.808608">
        <ele>487.440</ele>
        <time>1998-01-15T09:38:52Z</time>
      </trkpt>
      <trkpt lat="41.872445" lon="0.808422">
        <ele>487.684</ele>
        <time>1998-01-15T09:38:57Z</time>
      </trkpt>
      <trkpt lat="41.872370" lon="0.808157">
        <ele>488.407</ele>
        <time>1998-01-15T09:39:04Z</time>
      </trkpt>
      <trkpt lat="41.872361" lon="0.808119">
        <ele>488.617</ele>
        <time>1998-01-15T09:39:05Z</time>
      </trkpt>
      <trkpt lat="41.872329" lon="0.807915">
        <ele>489.608</ele>
        <time>1998-01-15T09:39:10Z</time>
      </trkpt>
      <trkpt lat="41.872319" lon="0.807792">
        <ele>489.820</ele>
        <time>1998-01-15T09:39:13Z</time>
      </trkpt>
      <trkpt lat="41.872293" lon="0.807511">
        <ele>490.610</ele>
        <time>1998-01-15T09:39:20Z</time>
      </trkpt>
      <trkpt lat="41.872290" lon="0.807436">
        <ele>491.291</ele>
        <time>1998-01-15T09:39:22Z</time>
      </trkpt>
      <trkpt lat="41.872265" lon="0.807182">
        <ele>491.473</ele>
        <time>1998-01-15T09:39:29Z</time>
      </trkpt>
      <trkpt lat="41.872261" lon="0.807145">
        <ele>491.641</ele>
        <time>1998-01-15T09:39:30Z</time>
      </trkpt>
      <trkpt lat="41.872226" lon="0.806933">
        <ele>492.888</ele>
        <time>1998-01-15T09:39:36Z</time>
      </trkpt>
      <trkpt lat="41.872213" lon="0.806904">
        <ele>492.845</ele>
        <time>1998-01-15T09:39:37Z</time>
      </trkpt>
      <trkpt lat="41.872089" lon="0.806742">
        <ele>493.656</ele>
        <time>1998-01-15T09:39:43Z</time>
      </trkpt>
      <trkpt lat="41.872058" lon="0.806727">
        <ele>493.878</ele>
        <time>1998-01-15T09:39:44Z</time>
      </trkpt>
      <trkpt lat="41.871940" lon="0.806708">
        <ele>494.233</ele>
        <time>1998-01-15T09:39:48Z</time>
      </trkpt>
      <trkpt lat="41.871721" lon="0.806680">
        <ele>494.426</ele>
        <time>1998-01-15T09:39:55Z</time>
      </trkpt>
      <trkpt lat="41.871669" lon="0.806637">
        <ele>494.808</ele>
        <time>1998-01-15T09:39:57Z</time>
      </trkpt>
      <trkpt lat="41.871573" lon="0.806532">
        <ele>494.489</ele>
        <time>1998-01-15T09:40:01Z</time>
      </trkpt>
      <trkpt lat="41.871412" lon="0.806342">
        <ele>496.089</ele>
        <time>1998-01-15T09:40:08Z</time>
      </trkpt>
      <trkpt lat="41.871344" lon="0.806274">
        <ele>496.260</ele>
        <time>1998-01-15T09:40:11Z</time>
      </trkpt>
      <trkpt lat="41.871196" lon="0.806154">
        <ele>497.282</ele>
        <time>1998-01-15T09:40:17Z</time>
      </trkpt>
      <trkpt lat="41.871120" lon="0.806101">
        <ele>498.020</ele>
        <time>1998-01-15T09:40:20Z</time>
      </trkpt>
      <trkpt lat="41.870983" lon="0.805976">
        <ele>498.097</ele>
        <time>1998-01-15T09:40:26Z</time>
      </trkpt>
      <trkpt lat="41.870966" lon="0.805948">
        <ele>498.214</ele>
        <time>1998-01-15T09:40:27Z</time>
      </trkpt>
      <trkpt lat="41.870938" lon="0.805818">
        <ele>499.015</ele>
        <time>1998-01-15T09:40:32Z</time>
      </trkpt>
      <trkpt lat="41.870908" lon="0.805763">
        <ele>499.034</ele>
        <time>1998-01-15T09:40:36Z</time>
      </trkpt>
      <trkpt lat="41.870896" lon="0.805750">
        <ele>499.055</ele>
        <time>1998-01-15T09:40:37Z</time>
      </trkpt>
      <trkpt lat="41.870874" lon="0.805733">
        <ele>499.410</ele>
        <time>1998-01-15T09:40:39Z</time>
      </trkpt>
      <trkpt lat="41.870854" lon="0.805735">
        <ele>499.608</ele>
        <time>1998-01-15T09:40:41Z</time>
      </trkpt>
      <trkpt lat="41.870831" lon="0.805738">
        <ele>499.645</ele>
        <time>1998-01-15T09:40:43Z</time>
      </trkpt>
      <trkpt lat="41.870793" lon="0.805739">
        <ele>499.465</ele>
        <time>1998-01-15T09:40:46Z</time>
      </trkpt>
      <trkpt lat="41.870784" lon="0.805734">
        <ele>499.276</ele>
        <time>1998-01-15T09:40:47Z</time>
      </trkpt>
      <trkpt lat="41.870772" lon="0.805716">
        <ele>499.278</ele>
        <time>1998-01-15T09:40:49Z</time>
      </trkpt>
      <trkpt lat="41.870759" lon="0.805714">
        <ele>499.296</ele>
        <time>1998-01-15T09:40:50Z</time>
      </trkpt>
      <trkpt lat="41.870680" lon="0.805706">
        <ele>499.453</ele>
        <time>1998-01-15T09:40:54Z</time>
      </trkpt>
      <trkpt lat="41.870555" lon="0.805673">
        <ele>499.660</ele>
        <time>1998-01-15T09:41:01Z</time>
      </trkpt>
      <trkpt lat="41.870483" lon="0.805648">
        <ele>500.431</ele>
        <time>1998-01-15T09:41:05Z</time>
      </trkpt>
      <trkpt lat="41.870451" lon="0.805620">
        <ele>501.072</ele>
        <time>1998-01-15T09:41:07Z</time>
      </trkpt>
      <trkpt lat="41.870377" lon="0.805570">
        <ele>501.613</ele>
        <time>1998-01-15T09:41:11Z</time>
      </trkpt>
      <trkpt lat="41.870322" lon="0.805537">
        <ele>502.614</ele>
        <time>1998-01-15T09:41:14Z</time>
      </trkpt>
      <trkpt lat="41.870298" lon="0.805525">
        <ele>503.008</ele>
        <time>1998-01-15T09:41:15Z</time>
      </trkpt>
      <trkpt lat="41.870196" lon="0.805523">
        <ele>503.479</ele>
        <time>1998-01-15T09:41:20Z</time>
      </trkpt>
      <trkpt lat="41.870118" lon="0.805556">
        <ele>504.039</ele>
        <time>1998-01-15T09:41:24Z</time>
      </trkpt>
      <trkpt lat="41.870056" lon="0.805582">
        <ele>504.470</ele>
        <time>1998-01-15T09:41:27Z</time>
      </trkpt>
      <trkpt lat="41.869898" lon="0.805659">
        <ele>505.042</ele>
        <time>1998-01-15T09:41:35Z</time>
      </trkpt>
      <trkpt lat="41.869781" lon="0.805738">
        <ele>505.830</ele>
        <time>1998-01-15T09:41:42Z</time>
      </trkpt>
      <trkpt lat="41.869708" lon="0.805788">
        <ele>506.087</ele>
        <time>1998-01-15T09:41:46Z</time>
      </trkpt>
      <trkpt lat="41.869634" lon="0.805806">
        <ele>506.234</ele>
        <time>1998-01-15T09:41:49Z</time>
      </trkpt>
      <trkpt lat="41.869475" lon="0.805811">
        <ele>505.875</ele>
        <time>1998-01-15T09:41:55Z</time>
      </trkpt>
      <trkpt lat="41.869336" lon="0.805795">
        <ele>505.424</ele>
        <time>1998-01-15T09:42:01Z</time>
      </trkpt>
      <trkpt lat="41.869168" lon="0.805803">
        <ele>506.204</ele>
        <time>1998-01-15T09:42:08Z</time>
      </trkpt>
      <trkpt lat="41.868967" lon="0.805866">
        <ele>507.214</ele>
        <time>1998-01-15T09:42:16Z</time>
      </trkpt>
      <trkpt lat="41.868893" lon="0.805887">
        <ele>508.208</ele>
        <time>1998-01-15T09:42:20Z</time>
      </trkpt>
      <trkpt lat="41.868873" lon="0.805886">
        <ele>508.454</ele>
        <time>1998-01-15T09:42:21Z</time>
      </trkpt>
      <trkpt lat="41.868833" lon="0.805892">
        <ele>509.214</ele>
        <time>1998-01-15T09:42:23Z</time>
      </trkpt>
      <trkpt lat="41.868814" lon="0.805899">
        <ele>509.475</ele>
        <time>1998-01-15T09:42:24Z</time>
      </trkpt>
      <trkpt lat="41.868741" lon="0.805931">
        <ele>510.687</ele>
        <time>1998-01-15T09:42:28Z</time>
      </trkpt>
      <trkpt lat="41.868698" lon="0.805953">
        <ele>511.475</ele>
        <time>1998-01-15T09:42:31Z</time>
      </trkpt>
      <trkpt lat="41.868629" lon="0.805976">
        <ele>511.812</ele>
        <time>1998-01-15T09:42:34Z</time>
      </trkpt>
      <trkpt lat="41.868568" lon="0.806000">
        <ele>512.099</ele>
        <time>1998-01-15T09:42:36Z</time>
      </trkpt>
      <trkpt lat="41.868403" lon="0.806113">
        <ele>512.670</ele>
        <time>1998-01-15T09:42:42Z</time>
      </trkpt>
      <trkpt lat="41.868321" lon="0.806160">
        <ele>512.879</ele>
        <time>1998-01-15T09:42:45Z</time>
      </trkpt>
      <trkpt lat="41.868243" lon="0.806194">
        <ele>513.205</ele>
        <time>1998-01-15T09:42:48Z</time>
      </trkpt>
      <trkpt lat="41.868148" lon="0.806232">
        <ele>514.025</ele>
        <time>1998-01-15T09:42:52Z</time>
      </trkpt>
      <trkpt lat="41.868099" lon="0.806238">
        <ele>514.408</ele>
        <time>1998-01-15T09:42:54Z</time>
      </trkpt>
      <trkpt lat="41.868028" lon="0.806259">
        <ele>515.089</ele>
        <time>1998-01-15T09:42:57Z</time>
      </trkpt>
      <trkpt lat="41.867915" lon="0.806262">
        <ele>515.649</ele>
        <time>1998-01-15T09:43:01Z</time>
      </trkpt>
      <trkpt lat="41.867891" lon="0.806259">
        <ele>516.070</ele>
        <time>1998-01-15T09:43:02Z</time>
      </trkpt>
      <trkpt lat="41.867733" lon="0.806207">
        <ele>516.652</ele>
        <time>1998-01-15T09:43:08Z</time>
      </trkpt>
      <trkpt lat="41.867603" lon="0.806132">
        <ele>517.270</ele>
        <time>1998-01-15T09:43:13Z</time>
      </trkpt>
      <trkpt lat="41.867579" lon="0.806116">
        <ele>517.657</ele>
        <time>1998-01-15T09:43:14Z</time>
      </trkpt>
      <trkpt lat="41.867427" lon="0.805977">
        <ele>518.284</ele>
        <time>1998-01-15T09:43:21Z</time>
      </trkpt>
      <trkpt lat="41.867407" lon="0.805949">
        <ele>518.445</ele>
        <time>1998-01-15T09:43:22Z</time>
      </trkpt>
      <trkpt lat="41.867265" lon="0.805833">
        <ele>519.236</ele>
        <time>1998-01-15T09:43:28Z</time>
      </trkpt>
      <trkpt lat="41.867185" lon="0.805767">
        <ele>519.417</ele>
        <time>1998-01-15T09:43:32Z</time>
      </trkpt>
      <trkpt lat="41.867103" lon="0.805755">
        <ele>519.418</ele>
        <time>1998-01-15T09:43:35Z</time>
      </trkpt>
      <trkpt lat="41.867012" lon="0.805874">
        <ele>519.008</ele>
        <time>1998-01-15T09:43:39Z</time>
      </trkpt>
      <trkpt lat="41.866881" lon="0.806099">
        <ele>518.625</ele>
        <time>1998-01-15T09:43:47Z</time>
      </trkpt>
      <trkpt lat="41.866771" lon="0.806162">
        <ele>519.895</ele>
        <time>1998-01-15T09:43:53Z</time>
      </trkpt>
      <trkpt lat="41.866752" lon="0.806151">
        <ele>520.256</ele>
        <time>1998-01-15T09:43:54Z</time>
      </trkpt>
      <trkpt lat="41.866734" lon="0.806145">
        <ele>520.668</ele>
        <time>1998-01-15T09:43:55Z</time>
      </trkpt>
      <trkpt lat="41.866674" lon="0.806115">
        <ele>521.876</ele>
        <time>1998-01-15T09:43:58Z</time>
      </trkpt>
      <trkpt lat="41.866605" lon="0.806063">
        <ele>523.033</ele>
        <time>1998-01-15T09:44:01Z</time>
      </trkpt>
      <trkpt lat="41.866523" lon="0.806002">
        <ele>523.640</ele>
        <time>1998-01-15T09:44:05Z</time>
      </trkpt>
      <trkpt lat="41.866458" lon="0.805985">
        <ele>524.091</ele>
        <time>1998-01-15T09:44:08Z</time>
      </trkpt>
      <trkpt lat="41.866369" lon="0.805959">
        <ele>525.073</ele>
        <time>1998-01-15T09:44:12Z</time>
      </trkpt>
      <trkpt lat="41.866348" lon="0.805949">
        <ele>525.285</ele>
        <time>1998-01-15T09:44:13Z</time>
      </trkpt>
      <trkpt lat="41.866231" lon="0.805875">
        <ele>525.413</ele>
        <time>1998-01-15T09:44:18Z</time>
      </trkpt>
      <trkpt lat="41.866046" lon="0.805807">
        <ele>525.408</ele>
        <time>1998-01-15T09:44:25Z</time>
      </trkpt>
      <trkpt lat="41.865868" lon="0.805878">
        <ele>526.029</ele>
        <time>1998-01-15T09:44:33Z</time>
      </trkpt>
      <trkpt lat="41.865843" lon="0.805886">
        <ele>526.429</ele>
        <time>1998-01-15T09:44:34Z</time>
      </trkpt>
      <trkpt lat="41.865738" lon="0.805953">
        <ele>527.280</ele>
        <time>1998-01-15T09:44:39Z</time>
      </trkpt>
      <trkpt lat="41.865641" lon="0.805986">
        <ele>527.662</ele>
        <time>1998-01-15T09:44:43Z</time>
      </trkpt>
      <trkpt lat="41.865593" lon="0.806023">
        <ele>528.070</ele>
        <time>1998-01-15T09:44:45Z</time>
      </trkpt>
      <trkpt lat="41.865486" lon="0.806148">
        <ele>528.097</ele>
        <time>1998-01-15T09:44:51Z</time>
      </trkpt>
      <trkpt lat="41.865433" lon="0.806293">
        <ele>528.464</ele>
        <time>1998-01-15T09:44:57Z</time>
      </trkpt>
      <trkpt lat="41.865421" lon="0.806341">
        <ele>528.645</ele>
        <time>1998-01-15T09:44:59Z</time>
      </trkpt>
      <trkpt lat="41.865375" lon="0.806505">
        <ele>529.465</ele>
        <time>1998-01-15T09:45:05Z</time>
      </trkpt>
      <trkpt lat="41.865342" lon="0.806594">
        <ele>529.668</ele>
        <time>1998-01-15T09:45:08Z</time>
      </trkpt>
      <trkpt lat="41.865317" lon="0.806691">
        <ele>529.814</ele>
        <time>1998-01-15T09:45:11Z</time>
      </trkpt>
      <trkpt lat="41.865266" lon="0.806936">
        <ele>529.208</ele>
        <time>1998-01-15T09:45:18Z</time>
      </trkpt>
      <trkpt lat="41.865205" lon="0.807199">
        <ele>529.268</ele>
        <time>1998-01-15T09:45:26Z</time>
      </trkpt>
      <trkpt lat="41.865145" lon="0.807451">
        <ele>529.298</ele>
        <time>1998-01-15T09:45:34Z</time>
      </trkpt>
      <trkpt lat="41.865070" lon="0.807646">
        <ele>529.249</ele>
        <time>1998-01-15T09:45:41Z</time>
      </trkpt>
      <trkpt lat="41.865061" lon="0.807799">
        <ele>529.271</ele>
        <time>1998-01-15T09:45:47Z</time>
      </trkpt>
      <trkpt lat="41.865056" lon="0.807933">
        <ele>531.039</ele>
        <time>1998-01-15T09:45:53Z</time>
      </trkpt>
      <trkpt lat="41.865058" lon="0.807953">
        <ele>531.246</ele>
        <time>1998-01-15T09:45:54Z</time>
      </trkpt>
      <trkpt lat="41.865062" lon="0.808017">
        <ele>532.093</ele>
        <time>1998-01-15T09:45:57Z</time>
      </trkpt>
      <trkpt lat="41.865051" lon="0.808088">
        <ele>533.264</ele>
        <time>1998-01-15T09:46:01Z</time>
      </trkpt>
      <trkpt lat="41.865049" lon="0.808104">
        <ele>533.835</ele>
        <time>1998-01-15T09:46:02Z</time>
      </trkpt>
      <trkpt lat="41.865040" lon="0.808136">
        <ele>534.486</ele>
        <time>1998-01-15T09:46:04Z</time>
      </trkpt>
      <trkpt lat="41.865021" lon="0.808201">
        <ele>535.014</ele>
        <time>1998-01-15T09:46:08Z</time>
      </trkpt>
      <trkpt lat="41.865008" lon="0.808233">
        <ele>535.408</ele>
        <time>1998-01-15T09:46:10Z</time>
      </trkpt>
      <trkpt lat="41.864975" lon="0.808328">
        <ele>536.625</ele>
        <time>1998-01-15T09:46:16Z</time>
      </trkpt>
      <trkpt lat="41.864930" lon="0.808414">
        <ele>537.815</ele>
        <time>1998-01-15T09:46:21Z</time>
      </trkpt>
      <trkpt lat="41.864911" lon="0.808466">
        <ele>538.846</ele>
        <time>1998-01-15T09:46:24Z</time>
      </trkpt>
      <trkpt lat="41.864887" lon="0.808518">
        <ele>540.048</ele>
        <time>1998-01-15T09:46:27Z</time>
      </trkpt>
      <trkpt lat="41.864858" lon="0.808576">
        <ele>541.446</ele>
        <time>1998-01-15T09:46:31Z</time>
      </trkpt>
      <trkpt lat="41.864842" lon="0.808618">
        <ele>542.613</ele>
        <time>1998-01-15T09:46:34Z</time>
      </trkpt>
      <trkpt lat="41.864814" lon="0.808675">
        <ele>543.650</ele>
        <time>1998-01-15T09:46:38Z</time>
      </trkpt>
      <trkpt lat="41.864802" lon="0.808700">
        <ele>543.841</ele>
        <time>1998-01-15T09:46:40Z</time>
      </trkpt>
      <trkpt lat="41.864781" lon="0.808755">
        <ele>544.826</ele>
        <time>1998-01-15T09:46:44Z</time>
      </trkpt>
      <trkpt lat="41.864755" lon="0.808816">
        <ele>545.847</ele>
        <time>1998-01-15T09:46:48Z</time>
      </trkpt>
      <trkpt lat="41.864742" lon="0.808849">
        <ele>546.011</ele>
        <time>1998-01-15T09:46:50Z</time>
      </trkpt>
      <trkpt lat="41.864705" lon="0.808936">
        <ele>547.208</ele>
        <time>1998-01-15T09:46:56Z</time>
      </trkpt>
      <trkpt lat="41.864693" lon="0.808945">
        <ele>547.414</ele>
        <time>1998-01-15T09:46:57Z</time>
      </trkpt>
      <trkpt lat="41.864687" lon="0.808964">
        <ele>547.654</ele>
        <time>1998-01-15T09:46:58Z</time>
      </trkpt>
      <trkpt lat="41.864671" lon="0.809019">
        <ele>547.865</ele>
        <time>1998-01-15T09:47:01Z</time>
      </trkpt>
      <trkpt lat="41.864664" lon="0.809067">
        <ele>548.497</ele>
        <time>1998-01-15T09:47:04Z</time>
      </trkpt>
      <trkpt lat="41.864658" lon="0.809082">
        <ele>548.625</ele>
        <time>1998-01-15T09:47:05Z</time>
      </trkpt>
      <trkpt lat="41.864654" lon="0.809139">
        <ele>549.692</ele>
        <time>1998-01-15T09:47:08Z</time>
      </trkpt>
      <trkpt lat="41.864650" lon="0.809244">
        <ele>549.879</ele>
        <time>1998-01-15T09:47:13Z</time>
      </trkpt>
      <trkpt lat="41.864628" lon="0.809387">
        <ele>550.410</ele>
        <time>1998-01-15T09:47:18Z</time>
      </trkpt>
      <trkpt lat="41.864558" lon="0.809620">
        <ele>549.289</ele>
        <time>1998-01-15T09:47:23Z</time>
      </trkpt>
      <trkpt lat="41.864493" lon="0.809728">
        <ele>548.606</ele>
        <time>1998-01-15T09:47:25Z</time>
      </trkpt>
      <trkpt lat="41.864423" lon="0.809834">
        <ele>548.026</ele>
        <time>1998-01-15T09:47:27Z</time>
      </trkpt>
      <trkpt lat="41.864252" lon="0.810084">
        <ele>547.208</ele>
        <time>1998-01-15T09:47:32Z</time>
      </trkpt>
      <trkpt lat="41.864215" lon="0.810114">
        <ele>547.040</ele>
        <time>1998-01-15T09:47:33Z</time>
      </trkpt>
      <trkpt lat="41.864107" lon="0.810211">
        <ele>546.290</ele>
        <time>1998-01-15T09:47:37Z</time>
      </trkpt>
      <trkpt lat="41.863921" lon="0.810440">
        <ele>545.271</ele>
        <time>1998-01-15T09:47:43Z</time>
      </trkpt>
      <trkpt lat="41.863905" lon="0.810496">
        <ele>544.853</ele>
        <time>1998-01-15T09:47:44Z</time>
      </trkpt>
      <trkpt lat="41.863889" lon="0.810616">
        <ele>544.081</ele>
        <time>1998-01-15T09:47:46Z</time>
      </trkpt>
      <trkpt lat="41.863874" lon="0.810671">
        <ele>543.648</ele>
        <time>1998-01-15T09:47:47Z</time>
      </trkpt>
      <trkpt lat="41.863820" lon="0.810821">
        <ele>542.835</ele>
        <time>1998-01-15T09:47:51Z</time>
      </trkpt>
      <trkpt lat="41.863724" lon="0.811096">
        <ele>543.056</ele>
        <time>1998-01-15T09:48:00Z</time>
      </trkpt>
      <trkpt lat="41.863556" lon="0.811298">
        <ele>544.477</ele>
        <time>1998-01-15T09:48:11Z</time>
      </trkpt>
      <trkpt lat="41.863491" lon="0.811353">
        <ele>544.861</ele>
        <time>1998-01-15T09:48:15Z</time>
      </trkpt>
      <trkpt lat="41.863427" lon="0.811409">
        <ele>545.227</ele>
        <time>1998-01-15T09:48:19Z</time>
      </trkpt>
      <trkpt lat="41.863370" lon="0.811464">
        <ele>545.808</ele>
        <time>1998-01-15T09:48:23Z</time>
      </trkpt>
      <trkpt lat="41.863308" lon="0.811516">
        <ele>546.649</ele>
        <time>1998-01-15T09:48:27Z</time>
      </trkpt>
      <trkpt lat="41.863270" lon="0.811535">
        <ele>547.099</ele>
        <time>1998-01-15T09:48:29Z</time>
      </trkpt>
      <trkpt lat="41.863201" lon="0.811585">
        <ele>547.410</ele>
        <time>1998-01-15T09:48:34Z</time>
      </trkpt>
      <trkpt lat="41.863187" lon="0.811649">
        <ele>547.462</ele>
        <time>1998-01-15T09:48:37Z</time>
      </trkpt>
      <trkpt lat="41.863203" lon="0.811683">
        <ele>547.810</ele>
        <time>1998-01-15T09:48:39Z</time>
      </trkpt>
      <trkpt lat="41.863219" lon="0.811717">
        <ele>548.067</ele>
        <time>1998-01-15T09:48:41Z</time>
      </trkpt>
      <trkpt lat="41.863233" lon="0.811753">
        <ele>548.264</ele>
        <time>1998-01-15T09:48:43Z</time>
      </trkpt>
      <trkpt lat="41.863247" lon="0.811808">
        <ele>548.835</ele>
        <time>1998-01-15T09:48:46Z</time>
      </trkpt>
      <trkpt lat="41.863258" lon="0.811841">
        <ele>549.455</ele>
        <time>1998-01-15T09:48:48Z</time>
      </trkpt>
      <trkpt lat="41.863296" lon="0.811911">
        <ele>550.607</ele>
        <time>1998-01-15T09:48:53Z</time>
      </trkpt>
      <trkpt lat="41.863347" lon="0.811979">
        <ele>551.817</ele>
        <time>1998-01-15T09:48:58Z</time>
      </trkpt>
      <trkpt lat="41.863382" lon="0.812011">
        <ele>552.408</ele>
        <time>1998-01-15T09:49:01Z</time>
      </trkpt>
      <trkpt lat="41.863399" lon="0.812038">
        <ele>553.087</ele>
        <time>1998-01-15T09:49:03Z</time>
      </trkpt>
      <trkpt lat="41.863415" lon="0.812080">
        <ele>553.637</ele>
        <time>1998-01-15T09:49:06Z</time>
      </trkpt>
      <trkpt lat="41.863425" lon="0.812093">
        <ele>554.098</ele>
        <time>1998-01-15T09:49:07Z</time>
      </trkpt>
      <trkpt lat="41.863446" lon="0.812155">
        <ele>555.280</ele>
        <time>1998-01-15T09:49:11Z</time>
      </trkpt>
      <trkpt lat="41.863451" lon="0.812188">
        <ele>555.678</ele>
        <time>1998-01-15T09:49:13Z</time>
      </trkpt>
      <trkpt lat="41.863457" lon="0.812216">
        <ele>556.225</ele>
        <time>1998-01-15T09:49:15Z</time>
      </trkpt>
      <trkpt lat="41.863463" lon="0.812230">
        <ele>556.232</ele>
        <time>1998-01-15T09:49:16Z</time>
      </trkpt>
      <trkpt lat="41.863490" lon="0.812332">
        <ele>557.433</ele>
        <time>1998-01-15T09:49:22Z</time>
      </trkpt>
      <trkpt lat="41.863492" lon="0.812348">
        <ele>557.612</ele>
        <time>1998-01-15T09:49:23Z</time>
      </trkpt>
      <trkpt lat="41.863492" lon="0.812410">
        <ele>558.632</ele>
        <time>1998-01-15T09:49:27Z</time>
      </trkpt>
      <trkpt lat="41.863483" lon="0.812459">
        <ele>559.005</ele>
        <time>1998-01-15T09:49:30Z</time>
      </trkpt>
      <trkpt lat="41.863469" lon="0.812500">
        <ele>559.808</ele>
        <time>1998-01-15T09:49:33Z</time>
      </trkpt>
      <trkpt lat="41.863448" lon="0.812543">
        <ele>560.433</ele>
        <time>1998-01-15T09:49:36Z</time>
      </trkpt>
      <trkpt lat="41.863445" lon="0.812562">
        <ele>560.613</ele>
        <time>1998-01-15T09:49:37Z</time>
      </trkpt>
      <trkpt lat="41.863442" lon="0.812599">
        <ele>561.064</ele>
        <time>1998-01-15T09:49:39Z</time>
      </trkpt>
      <trkpt lat="41.863434" lon="0.812658">
        <ele>561.616</ele>
        <time>1998-01-15T09:49:43Z</time>
      </trkpt>
      <trkpt lat="41.863435" lon="0.812670">
        <ele>561.894</ele>
        <time>1998-01-15T09:49:44Z</time>
      </trkpt>
      <trkpt lat="41.863438" lon="0.812686">
        <ele>562.091</ele>
        <time>1998-01-15T09:49:45Z</time>
      </trkpt>
      <trkpt lat="41.863431" lon="0.812745">
        <ele>563.288</ele>
        <time>1998-01-15T09:49:49Z</time>
      </trkpt>
      <trkpt lat="41.863426" lon="0.812777">
        <ele>563.859</ele>
        <time>1998-01-15T09:49:51Z</time>
      </trkpt>
      <trkpt lat="41.863412" lon="0.812820">
        <ele>564.278</ele>
        <time>1998-01-15T09:49:54Z</time>
      </trkpt>
      <trkpt lat="41.863403" lon="0.812866">
        <ele>564.833</ele>
        <time>1998-01-15T09:49:57Z</time>
      </trkpt>
      <trkpt lat="41.863398" lon="0.812921">
        <ele>565.626</ele>
        <time>1998-01-15T09:50:00Z</time>
      </trkpt>
      <trkpt lat="41.863398" lon="0.812986">
        <ele>566.808</ele>
        <time>1998-01-15T09:50:04Z</time>
      </trkpt>
      <trkpt lat="41.863397" lon="0.813087">
        <ele>568.039</ele>
        <time>1998-01-15T09:50:11Z</time>
      </trkpt>
      <trkpt lat="41.863396" lon="0.813173">
        <ele>569.029</ele>
        <time>1998-01-15T09:50:17Z</time>
      </trkpt>
      <trkpt lat="41.863395" lon="0.813217">
        <ele>569.660</ele>
        <time>1998-01-15T09:50:20Z</time>
      </trkpt>
      <trkpt lat="41.863401" lon="0.813247">
        <ele>570.022</ele>
        <time>1998-01-15T09:50:22Z</time>
      </trkpt>
      <trkpt lat="41.863441" lon="0.813302">
        <ele>571.010</ele>
        <time>1998-01-15T09:50:27Z</time>
      </trkpt>
      <trkpt lat="41.863444" lon="0.813320">
        <ele>571.277</ele>
        <time>1998-01-15T09:50:28Z</time>
      </trkpt>
      <trkpt lat="41.863488" lon="0.813412">
        <ele>571.824</ele>
        <time>1998-01-15T09:50:35Z</time>
      </trkpt>
      <trkpt lat="41.863537" lon="0.813508">
        <ele>572.045</ele>
        <time>1998-01-15T09:50:43Z</time>
      </trkpt>
      <trkpt lat="41.863545" lon="0.813535">
        <ele>572.251</ele>
        <time>1998-01-15T09:50:45Z</time>
      </trkpt>
      <trkpt lat="41.863500" lon="0.813455">
        <ele>571.401</ele>
        <time>1998-01-15T09:55:19Z</time>
      </trkpt>
      <trkpt lat="41.863404" lon="0.813523">
        <ele>571.611</ele>
        <time>1998-01-15T09:55:25Z</time>
      </trkpt>
      <trkpt lat="41.863349" lon="0.813555">
        <ele>571.008</ele>
        <time>1998-01-15T09:55:28Z</time>
      </trkpt>
      <trkpt lat="41.863310" lon="0.813577">
        <ele>570.017</ele>
        <time>1998-01-15T09:55:31Z</time>
      </trkpt>
      <trkpt lat="41.863306" lon="0.813591">
        <ele>569.877</ele>
        <time>1998-01-15T09:55:32Z</time>
      </trkpt>
      <trkpt lat="41.863293" lon="0.813638">
        <ele>569.618</ele>
        <time>1998-01-15T09:55:35Z</time>
      </trkpt>
      <trkpt lat="41.863281" lon="0.813644">
        <ele>569.480</ele>
        <time>1998-01-15T09:55:36Z</time>
      </trkpt>
      <trkpt lat="41.863186" lon="0.813606">
        <ele>570.298</ele>
        <time>1998-01-15T09:55:42Z</time>
      </trkpt>
      <trkpt lat="41.863158" lon="0.813621">
        <ele>571.015</ele>
        <time>1998-01-15T09:55:44Z</time>
      </trkpt>
      <trkpt lat="41.863106" lon="0.813661">
        <ele>571.832</ele>
        <time>1998-01-15T09:55:48Z</time>
      </trkpt>
      <trkpt lat="41.863048" lon="0.813750">
        <ele>571.653</ele>
        <time>1998-01-15T09:55:52Z</time>
      </trkpt>
      <trkpt lat="41.863004" lon="0.813856">
        <ele>571.212</ele>
        <time>1998-01-15T09:55:55Z</time>
      </trkpt>
      <trkpt lat="41.862962" lon="0.813898">
        <ele>571.232</ele>
        <time>1998-01-15T09:55:57Z</time>
      </trkpt>
      <trkpt lat="41.862825" lon="0.814055">
        <ele>571.005</ele>
        <time>1998-01-15T09:56:03Z</time>
      </trkpt>
      <trkpt lat="41.862800" lon="0.814072">
        <ele>571.208</ele>
        <time>1998-01-15T09:56:04Z</time>
      </trkpt>
      <trkpt lat="41.862727" lon="0.814109">
        <ele>571.663</ele>
        <time>1998-01-15T09:56:07Z</time>
      </trkpt>
      <trkpt lat="41.862690" lon="0.814140">
        <ele>571.813</ele>
        <time>1998-01-15T09:56:09Z</time>
      </trkpt>
      <trkpt lat="41.862674" lon="0.814200">
        <ele>571.834</ele>
        <time>1998-01-15T09:56:11Z</time>
      </trkpt>
      <trkpt lat="41.862597" lon="0.814251">
        <ele>571.876</ele>
        <time>1998-01-15T09:56:14Z</time>
      </trkpt>
      <trkpt lat="41.862566" lon="0.814251">
        <ele>572.014</ele>
        <time>1998-01-15T09:56:15Z</time>
      </trkpt>
      <trkpt lat="41.862470" lon="0.814270">
        <ele>573.071</ele>
        <time>1998-01-15T09:56:19Z</time>
      </trkpt>
      <trkpt lat="41.862391" lon="0.814330">
        <ele>573.218</ele>
        <time>1998-01-15T09:56:23Z</time>
      </trkpt>
      <trkpt lat="41.862293" lon="0.814287">
        <ele>573.469</ele>
        <time>1998-01-15T09:56:27Z</time>
      </trkpt>
      <trkpt lat="41.862237" lon="0.814281">
        <ele>573.495</ele>
        <time>1998-01-15T09:56:29Z</time>
      </trkpt>
      <trkpt lat="41.862125" lon="0.814309">
        <ele>574.049</ele>
        <time>1998-01-15T09:56:33Z</time>
      </trkpt>
      <trkpt lat="41.861992" lon="0.814427">
        <ele>574.023</ele>
        <time>1998-01-15T09:56:39Z</time>
      </trkpt>
      <trkpt lat="41.861913" lon="0.814571">
        <ele>573.208</ele>
        <time>1998-01-15T09:56:43Z</time>
      </trkpt>
      <trkpt lat="41.861885" lon="0.814590">
        <ele>573.031</ele>
        <time>1998-01-15T09:56:44Z</time>
      </trkpt>
      <trkpt lat="41.861837" lon="0.814623">
        <ele>572.471</ele>
        <time>1998-01-15T09:56:47Z</time>
      </trkpt>
      <trkpt lat="41.861809" lon="0.814600">
        <ele>572.042</ele>
        <time>1998-01-15T09:57:00Z</time>
      </trkpt>
      <trkpt lat="41.861796" lon="0.814578">
        <ele>572.024</ele>
        <time>1998-01-15T09:57:01Z</time>
      </trkpt>
      <trkpt lat="41.861693" lon="0.814492">
        <ele>572.422</ele>
        <time>1998-01-15T09:57:06Z</time>
      </trkpt>
      <trkpt lat="41.861614" lon="0.814424">
        <ele>572.239</ele>
        <time>1998-01-15T09:57:09Z</time>
      </trkpt>
      <trkpt lat="41.861593" lon="0.814398">
        <ele>572.296</ele>
        <time>1998-01-15T09:57:10Z</time>
      </trkpt>
      <trkpt lat="41.861475" lon="0.814222">
        <ele>572.217</ele>
        <time>1998-01-15T09:57:16Z</time>
      </trkpt>
      <trkpt lat="41.861369" lon="0.814106">
        <ele>572.419</ele>
        <time>1998-01-15T09:57:21Z</time>
      </trkpt>
      <trkpt lat="41.861289" lon="0.814052">
        <ele>572.009</ele>
        <time>1998-01-15T09:57:24Z</time>
      </trkpt>
      <trkpt lat="41.861256" lon="0.813997">
        <ele>572.019</ele>
        <time>1998-01-15T09:57:26Z</time>
      </trkpt>
      <trkpt lat="41.861183" lon="0.813920">
        <ele>571.608</ele>
        <time>1998-01-15T09:57:29Z</time>
      </trkpt>
      <trkpt lat="41.861113" lon="0.813795">
        <ele>571.083</ele>
        <time>1998-01-15T09:57:33Z</time>
      </trkpt>
      <trkpt lat="41.861082" lon="0.813706">
        <ele>570.863</ele>
        <time>1998-01-15T09:57:35Z</time>
      </trkpt>
      <trkpt lat="41.861046" lon="0.813632">
        <ele>570.214</ele>
        <time>1998-01-15T09:57:37Z</time>
      </trkpt>
      <trkpt lat="41.861009" lon="0.813555">
        <ele>569.696</ele>
        <time>1998-01-15T09:57:39Z</time>
      </trkpt>
      <trkpt lat="41.860981" lon="0.813518">
        <ele>569.474</ele>
        <time>1998-01-15T09:57:40Z</time>
      </trkpt>
      <trkpt lat="41.860947" lon="0.813477">
        <ele>569.031</ele>
        <time>1998-01-15T09:57:41Z</time>
      </trkpt>
      <trkpt lat="41.860909" lon="0.813439">
        <ele>568.678</ele>
        <time>1998-01-15T09:57:42Z</time>
      </trkpt>
      <trkpt lat="41.860854" lon="0.813348">
        <ele>567.419</ele>
        <time>1998-01-15T09:57:44Z</time>
      </trkpt>
      <trkpt lat="41.860833" lon="0.813302">
        <ele>566.845</ele>
        <time>1998-01-15T09:57:45Z</time>
      </trkpt>
      <trkpt lat="41.860808" lon="0.813268">
        <ele>566.047</ele>
        <time>1998-01-15T09:57:46Z</time>
      </trkpt>
      <trkpt lat="41.860758" lon="0.813183">
        <ele>564.811</ele>
        <time>1998-01-15T09:57:48Z</time>
      </trkpt>
      <trkpt lat="41.860710" lon="0.813073">
        <ele>563.408</ele>
        <time>1998-01-15T09:57:50Z</time>
      </trkpt>
      <trkpt lat="41.860650" lon="0.812980">
        <ele>562.076</ele>
        <time>1998-01-15T09:57:52Z</time>
      </trkpt>
      <trkpt lat="41.860614" lon="0.812940">
        <ele>561.216</ele>
        <time>1998-01-15T09:57:53Z</time>
      </trkpt>
      <trkpt lat="41.860581" lon="0.812904">
        <ele>560.627</ele>
        <time>1998-01-15T09:57:54Z</time>
      </trkpt>
      <trkpt lat="41.860535" lon="0.812818">
        <ele>559.239</ele>
        <time>1998-01-15T09:57:56Z</time>
      </trkpt>
      <trkpt lat="41.860511" lon="0.812775">
        <ele>558.457</ele>
        <time>1998-01-15T09:57:57Z</time>
      </trkpt>
      <trkpt lat="41.860484" lon="0.812748">
        <ele>557.814</ele>
        <time>1998-01-15T09:57:58Z</time>
      </trkpt>
      <trkpt lat="41.860431" lon="0.812708">
        <ele>556.821</ele>
        <time>1998-01-15T09:58:00Z</time>
      </trkpt>
      <trkpt lat="41.860422" lon="0.812673">
        <ele>556.262</ele>
        <time>1998-01-15T09:58:01Z</time>
      </trkpt>
      <trkpt lat="41.860399" lon="0.812588">
        <ele>555.255</ele>
        <time>1998-01-15T09:58:03Z</time>
      </trkpt>
      <trkpt lat="41.860390" lon="0.812543">
        <ele>554.607</ele>
        <time>1998-01-15T09:58:04Z</time>
      </trkpt>
      <trkpt lat="41.860373" lon="0.812513">
        <ele>554.217</ele>
        <time>1998-01-15T09:58:05Z</time>
      </trkpt>
      <trkpt lat="41.860354" lon="0.812504">
        <ele>553.808</ele>
        <time>1998-01-15T09:58:06Z</time>
      </trkpt>
      <trkpt lat="41.860281" lon="0.812539">
        <ele>552.437</ele>
        <time>1998-01-15T09:58:09Z</time>
      </trkpt>
      <trkpt lat="41.860252" lon="0.812550">
        <ele>552.097</ele>
        <time>1998-01-15T09:58:10Z</time>
      </trkpt>
      <trkpt lat="41.860211" lon="0.812515">
        <ele>551.428</ele>
        <time>1998-01-15T09:58:12Z</time>
      </trkpt>
      <trkpt lat="41.860210" lon="0.812481">
        <ele>551.450</ele>
        <time>1998-01-15T09:58:13Z</time>
      </trkpt>
      <trkpt lat="41.860198" lon="0.812327">
        <ele>550.618</ele>
        <time>1998-01-15T09:58:17Z</time>
      </trkpt>
      <trkpt lat="41.860170" lon="0.812317">
        <ele>550.285</ele>
        <time>1998-01-15T09:58:18Z</time>
      </trkpt>
      <trkpt lat="41.860108" lon="0.812350">
        <ele>549.632</ele>
        <time>1998-01-15T09:58:20Z</time>
      </trkpt>
      <trkpt lat="41.860051" lon="0.812366">
        <ele>548.833</ele>
        <time>1998-01-15T09:58:22Z</time>
      </trkpt>
      <trkpt lat="41.860021" lon="0.812360">
        <ele>548.622</ele>
        <time>1998-01-15T09:58:23Z</time>
      </trkpt>
      <trkpt lat="41.859991" lon="0.812350">
        <ele>548.262</ele>
        <time>1998-01-15T09:58:24Z</time>
      </trkpt>
      <trkpt lat="41.859947" lon="0.812308">
        <ele>547.608</ele>
        <time>1998-01-15T09:58:26Z</time>
      </trkpt>
      <trkpt lat="41.859931" lon="0.812273">
        <ele>547.208</ele>
        <time>1998-01-15T09:58:27Z</time>
      </trkpt>
      <trkpt lat="41.859884" lon="0.812196">
        <ele>546.094</ele>
        <time>1998-01-15T09:58:29Z</time>
      </trkpt>
      <trkpt lat="41.859826" lon="0.812098">
        <ele>544.684</ele>
        <time>1998-01-15T09:58:31Z</time>
      </trkpt>
      <trkpt lat="41.859780" lon="0.812024">
        <ele>543.815</ele>
        <time>1998-01-15T09:58:33Z</time>
      </trkpt>
      <trkpt lat="41.859761" lon="0.811998">
        <ele>543.627</ele>
        <time>1998-01-15T09:58:34Z</time>
      </trkpt>
      <trkpt lat="41.859743" lon="0.811969">
        <ele>543.665</ele>
        <time>1998-01-15T09:58:35Z</time>
      </trkpt>
      <trkpt lat="41.859715" lon="0.811912">
        <ele>543.862</ele>
        <time>1998-01-15T09:58:37Z</time>
      </trkpt>
      <trkpt lat="41.859704" lon="0.811807">
        <ele>544.639</ele>
        <time>1998-01-15T09:58:40Z</time>
      </trkpt>
      <trkpt lat="41.859722" lon="0.811626">
        <ele>546.080</ele>
        <time>1998-01-15T09:58:45Z</time>
      </trkpt>
      <trkpt lat="41.859732" lon="0.811592">
        <ele>546.422</ele>
        <time>1998-01-15T09:58:46Z</time>
      </trkpt>
      <trkpt lat="41.859731" lon="0.811526">
        <ele>547.262</ele>
        <time>1998-01-15T09:58:48Z</time>
      </trkpt>
      <trkpt lat="41.859713" lon="0.811471">
        <ele>548.408</ele>
        <time>1998-01-15T09:58:50Z</time>
      </trkpt>
      <trkpt lat="41.859683" lon="0.811417">
        <ele>549.608</ele>
        <time>1998-01-15T09:58:52Z</time>
      </trkpt>
      <trkpt lat="41.859625" lon="0.811318">
        <ele>551.044</ele>
        <time>1998-01-15T09:58:56Z</time>
      </trkpt>
      <trkpt lat="41.859590" lon="0.811243">
        <ele>552.064</ele>
        <time>1998-01-15T09:58:59Z</time>
      </trkpt>
      <trkpt lat="41.859530" lon="0.811174">
        <ele>553.245</ele>
        <time>1998-01-15T09:59:02Z</time>
      </trkpt>
      <trkpt lat="41.859506" lon="0.811118">
        <ele>553.827</ele>
        <time>1998-01-15T09:59:04Z</time>
      </trkpt>
      <trkpt lat="41.859499" lon="0.811060">
        <ele>554.295</ele>
        <time>1998-01-15T09:59:06Z</time>
      </trkpt>
      <trkpt lat="41.859484" lon="0.810953">
        <ele>555.422</ele>
        <time>1998-01-15T09:59:10Z</time>
      </trkpt>
      <trkpt lat="41.859479" lon="0.810902">
        <ele>555.889</ele>
        <time>1998-01-15T09:59:12Z</time>
      </trkpt>
      <trkpt lat="41.859475" lon="0.810856">
        <ele>556.440</ele>
        <time>1998-01-15T09:59:14Z</time>
      </trkpt>
      <trkpt lat="41.859447" lon="0.810746">
        <ele>557.413</ele>
        <time>1998-01-15T09:59:19Z</time>
      </trkpt>
      <trkpt lat="41.859441" lon="0.810723">
        <ele>557.643</ele>
        <time>1998-01-15T09:59:20Z</time>
      </trkpt>
      <trkpt lat="41.859420" lon="0.810652">
        <ele>558.607</ele>
        <time>1998-01-15T09:59:23Z</time>
      </trkpt>
      <trkpt lat="41.859409" lon="0.810583">
        <ele>559.608</ele>
        <time>1998-01-15T09:59:26Z</time>
      </trkpt>
      <trkpt lat="41.859397" lon="0.810413">
        <ele>560.433</ele>
        <time>1998-01-15T09:59:33Z</time>
      </trkpt>
      <trkpt lat="41.859324" lon="0.810328">
        <ele>559.813</ele>
        <time>1998-01-15T09:59:37Z</time>
      </trkpt>
      <trkpt lat="41.859256" lon="0.810279">
        <ele>558.814</ele>
        <time>1998-01-15T09:59:40Z</time>
      </trkpt>
      <trkpt lat="41.859250" lon="0.810251">
        <ele>558.436</ele>
        <time>1998-01-15T09:59:41Z</time>
      </trkpt>
      <trkpt lat="41.859247" lon="0.810118">
        <ele>557.224</ele>
        <time>1998-01-15T09:59:45Z</time>
      </trkpt>
      <trkpt lat="41.859245" lon="0.809957">
        <ele>556.461</ele>
        <time>1998-01-15T09:59:48Z</time>
      </trkpt>
      <trkpt lat="41.859249" lon="0.809897">
        <ele>556.298</ele>
        <time>1998-01-15T09:59:49Z</time>
      </trkpt>
      <trkpt lat="41.859273" lon="0.809699">
        <ele>555.079</ele>
        <time>1998-01-15T09:59:52Z</time>
      </trkpt>
      <trkpt lat="41.859291" lon="0.809655">
        <ele>554.857</ele>
        <time>1998-01-15T09:59:53Z</time>
      </trkpt>
      <trkpt lat="41.859335" lon="0.809587">
        <ele>555.000</ele>
        <time>1998-01-15T09:59:56Z</time>
      </trkpt>
      <trkpt lat="41.859352" lon="0.809472">
        <ele>555.420</ele>
        <time>1998-01-15T10:00:00Z</time>
      </trkpt>
      <trkpt lat="41.859356" lon="0.809412">
        <ele>555.608</ele>
        <time>1998-01-15T10:00:02Z</time>
      </trkpt>
      <trkpt lat="41.859365" lon="0.809197">
        <ele>555.897</ele>
        <time>1998-01-15T10:00:09Z</time>
      </trkpt>
      <trkpt lat="41.859367" lon="0.809137">
        <ele>555.867</ele>
        <time>1998-01-15T10:00:11Z</time>
      </trkpt>
      <trkpt lat="41.859374" lon="0.809080">
        <ele>555.678</ele>
        <time>1998-01-15T10:00:13Z</time>
      </trkpt>
      <trkpt lat="41.859353" lon="0.808984">
        <ele>555.430</ele>
        <time>1998-01-15T10:00:16Z</time>
      </trkpt>
      <trkpt lat="41.859336" lon="0.808921">
        <ele>555.428</ele>
        <time>1998-01-15T10:00:18Z</time>
      </trkpt>
      <trkpt lat="41.859294" lon="0.808799">
        <ele>556.085</ele>
        <time>1998-01-15T10:00:22Z</time>
      </trkpt>
      <trkpt lat="41.859285" lon="0.808762">
        <ele>556.032</ele>
        <time>1998-01-15T10:00:23Z</time>
      </trkpt>
      <trkpt lat="41.859263" lon="0.808658">
        <ele>556.283</ele>
        <time>1998-01-15T10:00:26Z</time>
      </trkpt>
      <trkpt lat="41.859242" lon="0.808630">
        <ele>556.251</ele>
        <time>1998-01-15T10:00:27Z</time>
      </trkpt>
      <trkpt lat="41.859097" lon="0.808460">
        <ele>557.001</ele>
        <time>1998-01-15T10:00:33Z</time>
      </trkpt>
      <trkpt lat="41.859075" lon="0.808433">
        <ele>557.211</ele>
        <time>1998-01-15T10:00:34Z</time>
      </trkpt>
      <trkpt lat="41.859011" lon="0.808296">
        <ele>557.808</ele>
        <time>1998-01-15T10:00:38Z</time>
      </trkpt>
      <trkpt lat="41.858989" lon="0.808240">
        <ele>558.247</ele>
        <time>1998-01-15T10:00:40Z</time>
      </trkpt>
      <trkpt lat="41.858938" lon="0.808205">
        <ele>558.417</ele>
        <time>1998-01-15T10:00:42Z</time>
      </trkpt>
      <trkpt lat="41.858827" lon="0.808080">
        <ele>559.248</ele>
        <time>1998-01-15T10:00:46Z</time>
      </trkpt>
      <trkpt lat="41.858799" lon="0.808047">
        <ele>559.450</ele>
        <time>1998-01-15T10:00:47Z</time>
      </trkpt>
      <trkpt lat="41.858676" lon="0.807928">
        <ele>559.268</ele>
        <time>1998-01-15T10:00:51Z</time>
      </trkpt>
      <trkpt lat="41.858646" lon="0.807893">
        <ele>559.295</ele>
        <time>1998-01-15T10:00:52Z</time>
      </trkpt>
      <trkpt lat="41.858541" lon="0.807769">
        <ele>559.852</ele>
        <time>1998-01-15T10:00:56Z</time>
      </trkpt>
      <trkpt lat="41.858507" lon="0.807746">
        <ele>559.823</ele>
        <time>1998-01-15T10:00:57Z</time>
      </trkpt>
      <trkpt lat="41.858382" lon="0.807672">
        <ele>559.259</ele>
        <time>1998-01-15T10:01:01Z</time>
      </trkpt>
      <trkpt lat="41.858366" lon="0.807638">
        <ele>559.203</ele>
        <time>1998-01-15T10:01:02Z</time>
      </trkpt>
      <trkpt lat="41.858304" lon="0.807443">
        <ele>559.423</ele>
        <time>1998-01-15T10:01:07Z</time>
      </trkpt>
      <trkpt lat="41.858199" lon="0.807346">
        <ele>558.808</ele>
        <time>1998-01-15T10:01:10Z</time>
      </trkpt>
      <trkpt lat="41.858171" lon="0.807303">
        <ele>558.467</ele>
        <time>1998-01-15T10:01:11Z</time>
      </trkpt>
      <trkpt lat="41.858136" lon="0.807219">
        <ele>558.237</ele>
        <time>1998-01-15T10:01:13Z</time>
      </trkpt>
      <trkpt lat="41.858118" lon="0.807182">
        <ele>558.268</ele>
        <time>1998-01-15T10:01:14Z</time>
      </trkpt>
      <trkpt lat="41.858022" lon="0.807050">
        <ele>556.880</ele>
        <time>1998-01-15T10:01:18Z</time>
      </trkpt>
      <trkpt lat="41.857995" lon="0.807017">
        <ele>556.678</ele>
        <time>1998-01-15T10:01:19Z</time>
      </trkpt>
      <trkpt lat="41.857900" lon="0.806831">
        <ele>556.275</ele>
        <time>1998-01-15T10:01:24Z</time>
      </trkpt>
      <trkpt lat="41.857814" lon="0.806609">
        <ele>556.482</ele>
        <time>1998-01-15T10:01:30Z</time>
      </trkpt>
      <trkpt lat="41.857819" lon="0.806496">
        <ele>556.893</ele>
        <time>1998-01-15T10:01:34Z</time>
      </trkpt>
      <trkpt lat="41.857873" lon="0.806302">
        <ele>557.421</ele>
        <time>1998-01-15T10:01:39Z</time>
      </trkpt>
      <trkpt lat="41.857944" lon="0.806046">
        <ele>557.641</ele>
        <time>1998-01-15T10:01:45Z</time>
      </trkpt>
      <trkpt lat="41.858045" lon="0.805897">
        <ele>557.605</ele>
        <time>1998-01-15T10:01:50Z</time>
      </trkpt>
      <trkpt lat="41.858059" lon="0.805864">
        <ele>557.808</ele>
        <time>1998-01-15T10:01:51Z</time>
      </trkpt>
      <trkpt lat="41.858067" lon="0.805825">
        <ele>558.014</ele>
        <time>1998-01-15T10:01:52Z</time>
      </trkpt>
      <trkpt lat="41.858078" lon="0.805753">
        <ele>558.284</ele>
        <time>1998-01-15T10:01:54Z</time>
      </trkpt>
      <trkpt lat="41.858097" lon="0.805636">
        <ele>558.825</ele>
        <time>1998-01-15T10:01:58Z</time>
      </trkpt>
      <trkpt lat="41.858086" lon="0.805614">
        <ele>559.067</ele>
        <time>1998-01-15T10:01:59Z</time>
      </trkpt>
      <trkpt lat="41.858070" lon="0.805589">
        <ele>559.045</ele>
        <time>1998-01-15T10:02:00Z</time>
      </trkpt>
      <trkpt lat="41.858051" lon="0.805526">
        <ele>559.052</ele>
        <time>1998-01-15T10:02:02Z</time>
      </trkpt>
      <trkpt lat="41.858054" lon="0.805461">
        <ele>559.219</ele>
        <time>1998-01-15T10:02:04Z</time>
      </trkpt>
      <trkpt lat="41.858059" lon="0.805370">
        <ele>560.270</ele>
        <time>1998-01-15T10:02:07Z</time>
      </trkpt>
      <trkpt lat="41.858081" lon="0.805286">
        <ele>560.646</ele>
        <time>1998-01-15T10:02:10Z</time>
      </trkpt>
      <trkpt lat="41.858172" lon="0.805097">
        <ele>560.688</ele>
        <time>1998-01-15T10:02:17Z</time>
      </trkpt>
      <trkpt lat="41.858171" lon="0.805066">
        <ele>560.816</ele>
        <time>1998-01-15T10:02:18Z</time>
      </trkpt>
      <trkpt lat="41.858166" lon="0.804973">
        <ele>561.208</ele>
        <time>1998-01-15T10:02:21Z</time>
      </trkpt>
      <trkpt lat="41.858172" lon="0.804945">
        <ele>561.416</ele>
        <time>1998-01-15T10:02:22Z</time>
      </trkpt>
      <trkpt lat="41.858175" lon="0.804918">
        <ele>561.696</ele>
        <time>1998-01-15T10:02:23Z</time>
      </trkpt>
      <trkpt lat="41.858194" lon="0.804840">
        <ele>562.017</ele>
        <time>1998-01-15T10:02:26Z</time>
      </trkpt>
      <trkpt lat="41.858207" lon="0.804828">
        <ele>562.449</ele>
        <time>1998-01-15T10:02:27Z</time>
      </trkpt>
      <trkpt lat="41.858221" lon="0.804814">
        <ele>562.897</ele>
        <time>1998-01-15T10:02:28Z</time>
      </trkpt>
      <trkpt lat="41.858236" lon="0.804781">
        <ele>563.624</ele>
        <time>1998-01-15T10:02:30Z</time>
      </trkpt>
      <trkpt lat="41.858238" lon="0.804766">
        <ele>564.061</ele>
        <time>1998-01-15T10:02:31Z</time>
      </trkpt>
      <trkpt lat="41.858237" lon="0.804722">
        <ele>564.242</ele>
        <time>1998-01-15T10:02:33Z</time>
      </trkpt>
      <trkpt lat="41.858198" lon="0.804623">
        <ele>564.254</ele>
        <time>1998-01-15T10:02:37Z</time>
      </trkpt>
      <trkpt lat="41.858201" lon="0.804592">
        <ele>564.456</ele>
        <time>1998-01-15T10:02:38Z</time>
      </trkpt>
      <trkpt lat="41.858230" lon="0.804483">
        <ele>564.611</ele>
        <time>1998-01-15T10:02:42Z</time>
      </trkpt>
      <trkpt lat="41.858241" lon="0.804396">
        <ele>564.408</ele>
        <time>1998-01-15T10:02:45Z</time>
      </trkpt>
      <trkpt lat="41.858226" lon="0.804247">
        <ele>563.837</ele>
        <time>1998-01-15T10:02:50Z</time>
      </trkpt>
      <trkpt lat="41.858236" lon="0.804226">
        <ele>563.887</ele>
        <time>1998-01-15T10:02:51Z</time>
      </trkpt>
      <trkpt lat="41.858311" lon="0.804201">
        <ele>565.098</ele>
        <time>1998-01-15T10:02:55Z</time>
      </trkpt>
      <trkpt lat="41.858345" lon="0.804187">
        <ele>565.670</ele>
        <time>1998-01-15T10:02:57Z</time>
      </trkpt>
      <trkpt lat="41.858362" lon="0.804188">
        <ele>565.848</ele>
        <time>1998-01-15T10:02:58Z</time>
      </trkpt>
      <trkpt lat="41.858394" lon="0.804198">
        <ele>566.265</ele>
        <time>1998-01-15T10:03:00Z</time>
      </trkpt>
      <trkpt lat="41.858424" lon="0.804211">
        <ele>566.662</ele>
        <time>1998-01-15T10:03:02Z</time>
      </trkpt>
      <trkpt lat="41.858436" lon="0.804207">
        <ele>566.853</ele>
        <time>1998-01-15T10:03:03Z</time>
      </trkpt>
      <trkpt lat="41.858470" lon="0.804159">
        <ele>567.252</ele>
        <time>1998-01-15T10:03:06Z</time>
      </trkpt>
      <trkpt lat="41.858443" lon="0.804046">
        <ele>567.053</ele>
        <time>1998-01-15T10:03:10Z</time>
      </trkpt>
      <trkpt lat="41.858450" lon="0.804015">
        <ele>567.008</ele>
        <time>1998-01-15T10:03:11Z</time>
      </trkpt>
      <trkpt lat="41.858491" lon="0.803966">
        <ele>567.008</ele>
        <time>1998-01-15T10:03:13Z</time>
      </trkpt>
      <trkpt lat="41.858528" lon="0.803930">
        <ele>567.417</ele>
        <time>1998-01-15T10:03:15Z</time>
      </trkpt>
      <trkpt lat="41.858600" lon="0.803821">
        <ele>567.847</ele>
        <time>1998-01-15T10:03:19Z</time>
      </trkpt>
      <trkpt lat="41.858686" lon="0.803717">
        <ele>567.678</ele>
        <time>1998-01-15T10:03:23Z</time>
      </trkpt>
      <trkpt lat="41.858746" lon="0.803694">
        <ele>567.670</ele>
        <time>1998-01-15T10:03:25Z</time>
      </trkpt>
      <trkpt lat="41.858871" lon="0.803592">
        <ele>566.878</ele>
        <time>1998-01-15T10:03:30Z</time>
      </trkpt>
      <trkpt lat="41.858937" lon="0.803554">
        <ele>566.675</ele>
        <time>1998-01-15T10:03:32Z</time>
      </trkpt>
      <trkpt lat="41.858968" lon="0.803544">
        <ele>566.452</ele>
        <time>1998-01-15T10:03:33Z</time>
      </trkpt>
      <trkpt lat="41.859023" lon="0.803438">
        <ele>566.263</ele>
        <time>1998-01-15T10:03:37Z</time>
      </trkpt>
      <trkpt lat="41.859042" lon="0.803344">
        <ele>565.856</ele>
        <time>1998-01-15T10:03:39Z</time>
      </trkpt>
      <trkpt lat="41.859048" lon="0.803289">
        <ele>565.459</ele>
        <time>1998-01-15T10:03:40Z</time>
      </trkpt>
      <trkpt lat="41.859060" lon="0.803228">
        <ele>565.014</ele>
        <time>1998-01-15T10:03:41Z</time>
      </trkpt>
      <trkpt lat="41.859109" lon="0.803102">
        <ele>564.408</ele>
        <time>1998-01-15T10:03:43Z</time>
      </trkpt>
      <trkpt lat="41.859150" lon="0.802962">
        <ele>563.837</ele>
        <time>1998-01-15T10:03:45Z</time>
      </trkpt>
      <trkpt lat="41.859161" lon="0.802885">
        <ele>563.487</ele>
        <time>1998-01-15T10:03:46Z</time>
      </trkpt>
      <trkpt lat="41.859178" lon="0.802809">
        <ele>563.238</ele>
        <time>1998-01-15T10:03:47Z</time>
      </trkpt>
      <trkpt lat="41.859190" lon="0.802730">
        <ele>562.820</ele>
        <time>1998-01-15T10:03:48Z</time>
      </trkpt>
      <trkpt lat="41.859217" lon="0.802499">
        <ele>562.068</ele>
        <time>1998-01-15T10:03:51Z</time>
      </trkpt>
      <trkpt lat="41.859234" lon="0.802434">
        <ele>561.875</ele>
        <time>1998-01-15T10:03:52Z</time>
      </trkpt>
      <trkpt lat="41.859237" lon="0.802373">
        <ele>561.872</ele>
        <time>1998-01-15T10:03:53Z</time>
      </trkpt>
      <trkpt lat="41.859209" lon="0.802260">
        <ele>561.213</ele>
        <time>1998-01-15T10:03:55Z</time>
      </trkpt>
      <trkpt lat="41.859185" lon="0.802207">
        <ele>561.068</ele>
        <time>1998-01-15T10:03:56Z</time>
      </trkpt>
      <trkpt lat="41.859157" lon="0.802152">
        <ele>560.842</ele>
        <time>1998-01-15T10:03:57Z</time>
      </trkpt>
      <trkpt lat="41.859084" lon="0.801962">
        <ele>559.626</ele>
        <time>1998-01-15T10:04:00Z</time>
      </trkpt>
      <trkpt lat="41.859065" lon="0.801892">
        <ele>559.408</ele>
        <time>1998-01-15T10:04:01Z</time>
      </trkpt>
      <trkpt lat="41.859051" lon="0.801819">
        <ele>559.228</ele>
        <time>1998-01-15T10:04:02Z</time>
      </trkpt>
      <trkpt lat="41.859036" lon="0.801657">
        <ele>558.468</ele>
        <time>1998-01-15T10:04:04Z</time>
      </trkpt>
      <trkpt lat="41.859021" lon="0.801574">
        <ele>557.839</ele>
        <time>1998-01-15T10:04:05Z</time>
      </trkpt>
      <trkpt lat="41.859005" lon="0.801494">
        <ele>557.491</ele>
        <time>1998-01-15T10:04:06Z</time>
      </trkpt>
      <trkpt lat="41.858995" lon="0.801422">
        <ele>557.079</ele>
        <time>1998-01-15T10:04:07Z</time>
      </trkpt>
      <trkpt lat="41.859018" lon="0.801307">
        <ele>556.266</ele>
        <time>1998-01-15T10:04:09Z</time>
      </trkpt>
      <trkpt lat="41.859031" lon="0.801247">
        <ele>555.893</ele>
        <time>1998-01-15T10:04:10Z</time>
      </trkpt>
      <trkpt lat="41.859042" lon="0.801185">
        <ele>555.264</ele>
        <time>1998-01-15T10:04:11Z</time>
      </trkpt>
      <trkpt lat="41.859049" lon="0.801117">
        <ele>554.854</ele>
        <time>1998-01-15T10:04:12Z</time>
      </trkpt>
      <trkpt lat="41.859043" lon="0.801043">
        <ele>554.456</ele>
        <time>1998-01-15T10:04:13Z</time>
      </trkpt>
      <trkpt lat="41.858968" lon="0.800816">
        <ele>552.811</ele>
        <time>1998-01-15T10:04:16Z</time>
      </trkpt>
      <trkpt lat="41.858939" lon="0.800741">
        <ele>552.208</ele>
        <time>1998-01-15T10:04:17Z</time>
      </trkpt>
      <trkpt lat="41.858917" lon="0.800673">
        <ele>551.637</ele>
        <time>1998-01-15T10:04:18Z</time>
      </trkpt>
      <trkpt lat="41.858905" lon="0.800561">
        <ele>550.457</ele>
        <time>1998-01-15T10:04:20Z</time>
      </trkpt>
      <trkpt lat="41.858898" lon="0.800478">
        <ele>549.078</ele>
        <time>1998-01-15T10:04:55Z</time>
      </trkpt>
      <trkpt lat="41.858902" lon="0.800457">
        <ele>549.090</ele>
        <time>1998-01-15T10:04:56Z</time>
      </trkpt>
      <trkpt lat="41.858895" lon="0.800384">
        <ele>548.048</ele>
        <time>1998-01-15T10:05:25Z</time>
      </trkpt>
      <trkpt lat="41.858902" lon="0.800332">
        <ele>547.075</ele>
        <time>1998-01-15T10:05:27Z</time>
      </trkpt>
      <trkpt lat="41.858904" lon="0.800294">
        <ele>546.812</ele>
        <time>1998-01-15T10:05:28Z</time>
      </trkpt>
      <trkpt lat="41.858887" lon="0.800158">
        <ele>546.013</ele>
        <time>1998-01-15T10:05:31Z</time>
      </trkpt>
      <trkpt lat="41.858869" lon="0.800105">
        <ele>545.894</ele>
        <time>1998-01-15T10:05:32Z</time>
      </trkpt>
      <trkpt lat="41.858796" lon="0.799954">
        <ele>544.857</ele>
        <time>1998-01-15T10:05:35Z</time>
      </trkpt>
      <trkpt lat="41.858776" lon="0.799898">
        <ele>544.022</ele>
        <time>1998-01-15T10:05:36Z</time>
      </trkpt>
      <trkpt lat="41.858756" lon="0.799840">
        <ele>543.408</ele>
        <time>1998-01-15T10:05:37Z</time>
      </trkpt>
      <trkpt lat="41.858717" lon="0.799714">
        <ele>542.281</ele>
        <time>1998-01-15T10:05:39Z</time>
      </trkpt>
      <trkpt lat="41.858666" lon="0.799599">
        <ele>541.021</ele>
        <time>1998-01-15T10:05:41Z</time>
      </trkpt>
      <trkpt lat="41.858633" lon="0.799555">
        <ele>540.682</ele>
        <time>1998-01-15T10:05:42Z</time>
      </trkpt>
      <trkpt lat="41.858569" lon="0.799471">
        <ele>540.024</ele>
        <time>1998-01-15T10:05:44Z</time>
      </trkpt>
      <trkpt lat="41.858540" lon="0.799359">
        <ele>539.632</ele>
        <time>1998-01-15T10:05:46Z</time>
      </trkpt>
      <trkpt lat="41.858548" lon="0.799202">
        <ele>539.499</ele>
        <time>1998-01-15T10:05:49Z</time>
      </trkpt>
      <trkpt lat="41.858558" lon="0.799151">
        <ele>539.646</ele>
        <time>1998-01-15T10:05:50Z</time>
      </trkpt>
      <trkpt lat="41.858572" lon="0.799098">
        <ele>539.687</ele>
        <time>1998-01-15T10:05:51Z</time>
      </trkpt>
      <trkpt lat="41.858669" lon="0.798904">
        <ele>540.035</ele>
        <time>1998-01-15T10:05:55Z</time>
      </trkpt>
      <trkpt lat="41.858708" lon="0.798807">
        <ele>540.286</ele>
        <time>1998-01-15T10:05:57Z</time>
      </trkpt>
      <trkpt lat="41.858758" lon="0.798725">
        <ele>540.414</ele>
        <time>1998-01-15T10:05:59Z</time>
      </trkpt>
      <trkpt lat="41.858790" lon="0.798692">
        <ele>540.408</ele>
        <time>1998-01-15T10:06:00Z</time>
      </trkpt>
      <trkpt lat="41.858940" lon="0.798526">
        <ele>541.075</ele>
        <time>1998-01-15T10:06:05Z</time>
      </trkpt>
      <trkpt lat="41.858969" lon="0.798494">
        <ele>541.485</ele>
        <time>1998-01-15T10:06:06Z</time>
      </trkpt>
      <trkpt lat="41.859133" lon="0.798289">
        <ele>542.236</ele>
        <time>1998-01-15T10:06:12Z</time>
      </trkpt>
      <trkpt lat="41.859199" lon="0.798225">
        <ele>542.298</ele>
        <time>1998-01-15T10:06:14Z</time>
      </trkpt>
      <trkpt lat="41.859269" lon="0.798158">
        <ele>542.486</ele>
        <time>1998-01-15T10:06:16Z</time>
      </trkpt>
      <trkpt lat="41.859319" lon="0.798069">
        <ele>542.873</ele>
        <time>1998-01-15T10:06:18Z</time>
      </trkpt>
      <trkpt lat="41.859352" lon="0.797981">
        <ele>543.040</ele>
        <time>1998-01-15T10:06:20Z</time>
      </trkpt>
      <trkpt lat="41.859369" lon="0.797938">
        <ele>543.291</ele>
        <time>1998-01-15T10:06:21Z</time>
      </trkpt>
      <trkpt lat="41.859430" lon="0.797805">
        <ele>543.435</ele>
        <time>1998-01-15T10:06:24Z</time>
      </trkpt>
      <trkpt lat="41.859616" lon="0.797358">
        <ele>544.286</ele>
        <time>1998-01-15T10:06:34Z</time>
      </trkpt>
      <trkpt lat="41.859647" lon="0.797324">
        <ele>544.214</ele>
        <time>1998-01-15T10:06:35Z</time>
      </trkpt>
      <trkpt lat="41.859782" lon="0.797237">
        <ele>543.408</ele>
        <time>1998-01-15T10:06:38Z</time>
      </trkpt>
      <trkpt lat="41.860046" lon="0.796991">
        <ele>543.075</ele>
        <time>1998-01-15T10:06:44Z</time>
      </trkpt>
      <trkpt lat="41.860205" lon="0.796841">
        <ele>543.025</ele>
        <time>1998-01-15T10:06:49Z</time>
      </trkpt>
      <trkpt lat="41.860248" lon="0.796786">
        <ele>543.496</ele>
        <time>1998-01-15T10:06:51Z</time>
      </trkpt>
      <trkpt lat="41.860257" lon="0.796720">
        <ele>543.418</ele>
        <time>1998-01-15T10:06:53Z</time>
      </trkpt>
      <trkpt lat="41.860206" lon="0.796630">
        <ele>543.666</ele>
        <time>1998-01-15T10:06:56Z</time>
      </trkpt>
      <trkpt lat="41.860189" lon="0.796601">
        <ele>543.863</ele>
        <time>1998-01-15T10:06:57Z</time>
      </trkpt>
      <trkpt lat="41.860139" lon="0.796512">
        <ele>544.440</ele>
        <time>1998-01-15T10:07:00Z</time>
      </trkpt>
      <trkpt lat="41.860096" lon="0.796421">
        <ele>545.671</ele>
        <time>1998-01-15T10:07:03Z</time>
      </trkpt>
      <trkpt lat="41.860083" lon="0.796393">
        <ele>546.011</ele>
        <time>1998-01-15T10:07:04Z</time>
      </trkpt>
      <trkpt lat="41.860048" lon="0.796341">
        <ele>546.821</ele>
        <time>1998-01-15T10:07:06Z</time>
      </trkpt>
      <trkpt lat="41.859973" lon="0.796249">
        <ele>547.003</ele>
        <time>1998-01-15T10:07:10Z</time>
      </trkpt>
      <trkpt lat="41.859919" lon="0.796143">
        <ele>547.808</ele>
        <time>1998-01-15T10:07:14Z</time>
      </trkpt>
      <trkpt lat="41.859908" lon="0.796083">
        <ele>548.013</ele>
        <time>1998-01-15T10:07:16Z</time>
      </trkpt>
      <trkpt lat="41.859847" lon="0.795893">
        <ele>548.843</ele>
        <time>1998-01-15T10:07:23Z</time>
      </trkpt>
      <trkpt lat="41.859797" lon="0.795780">
        <ele>549.814</ele>
        <time>1998-01-15T10:07:27Z</time>
      </trkpt>
      <trkpt lat="41.859763" lon="0.795650">
        <ele>550.416</ele>
        <time>1998-01-15T10:07:31Z</time>
      </trkpt>
      <trkpt lat="41.859753" lon="0.795581">
        <ele>550.854</ele>
        <time>1998-01-15T10:07:33Z</time>
      </trkpt>
      <trkpt lat="41.859745" lon="0.795408">
        <ele>552.071</ele>
        <time>1998-01-15T10:07:38Z</time>
      </trkpt>
      <trkpt lat="41.859739" lon="0.795378">
        <ele>552.478</ele>
        <time>1998-01-15T10:07:39Z</time>
      </trkpt>
      <trkpt lat="41.859707" lon="0.795221">
        <ele>553.279</ele>
        <time>1998-01-15T10:07:44Z</time>
      </trkpt>
      <trkpt lat="41.859696" lon="0.795123">
        <ele>553.486</ele>
        <time>1998-01-15T10:07:47Z</time>
      </trkpt>
      <trkpt lat="41.859695" lon="0.794999">
        <ele>554.260</ele>
        <time>1998-01-15T10:07:51Z</time>
      </trkpt>
      <trkpt lat="41.859658" lon="0.794809">
        <ele>554.426</ele>
        <time>1998-01-15T10:07:57Z</time>
      </trkpt>
      <trkpt lat="41.859624" lon="0.794720">
        <ele>555.408</ele>
        <time>1998-01-15T10:08:00Z</time>
      </trkpt>
      <trkpt lat="41.859527" lon="0.794491">
        <ele>555.610</ele>
        <time>1998-01-15T10:08:07Z</time>
      </trkpt>
      <trkpt lat="41.859360" lon="0.794214">
        <ele>555.830</ele>
        <time>1998-01-15T10:08:15Z</time>
      </trkpt>
      <trkpt lat="41.859313" lon="0.794059">
        <ele>556.431</ele>
        <time>1998-01-15T10:08:19Z</time>
      </trkpt>
      <trkpt lat="41.859293" lon="0.793983">
        <ele>556.843</ele>
        <time>1998-01-15T10:08:21Z</time>
      </trkpt>
      <trkpt lat="41.859276" lon="0.793913">
        <ele>557.441</ele>
        <time>1998-01-15T10:08:23Z</time>
      </trkpt>
      <trkpt lat="41.859246" lon="0.793788">
        <ele>558.278</ele>
        <time>1998-01-15T10:08:27Z</time>
      </trkpt>
      <trkpt lat="41.859244" lon="0.793764">
        <ele>558.635</ele>
        <time>1998-01-15T10:08:28Z</time>
      </trkpt>
      <trkpt lat="41.859248" lon="0.793743">
        <ele>558.816</ele>
        <time>1998-01-15T10:08:29Z</time>
      </trkpt>
      <trkpt lat="41.859282" lon="0.793666">
        <ele>559.443</ele>
        <time>1998-01-15T10:08:32Z</time>
      </trkpt>
      <trkpt lat="41.859301" lon="0.793645">
        <ele>559.664</ele>
        <time>1998-01-15T10:08:33Z</time>
      </trkpt>
      <trkpt lat="41.859319" lon="0.793627">
        <ele>559.810</ele>
        <time>1998-01-15T10:08:34Z</time>
      </trkpt>
      <trkpt lat="41.859356" lon="0.793575">
        <ele>560.408</ele>
        <time>1998-01-15T10:08:37Z</time>
      </trkpt>
      <trkpt lat="41.859370" lon="0.793470">
        <ele>560.646</ele>
        <time>1998-01-15T10:08:41Z</time>
      </trkpt>
      <trkpt lat="41.859358" lon="0.793327">
        <ele>561.296</ele>
        <time>1998-01-15T10:08:46Z</time>
      </trkpt>
      <trkpt lat="41.859372" lon="0.793280">
        <ele>561.437</ele>
        <time>1998-01-15T10:08:48Z</time>
      </trkpt>
      <trkpt lat="41.859451" lon="0.793191">
        <ele>561.879</ele>
        <time>1998-01-15T10:08:54Z</time>
      </trkpt>
      <trkpt lat="41.859492" lon="0.793145">
        <ele>563.067</ele>
        <time>1998-01-15T10:08:58Z</time>
      </trkpt>
      <trkpt lat="41.859549" lon="0.793134">
        <ele>563.844</ele>
        <time>1998-01-15T10:09:01Z</time>
      </trkpt>
      <trkpt lat="41.859567" lon="0.793146">
        <ele>564.041</ele>
        <time>1998-01-15T10:09:02Z</time>
      </trkpt>
      <trkpt lat="41.859614" lon="0.793169">
        <ele>564.872</ele>
        <time>1998-01-15T10:09:05Z</time>
      </trkpt>
      <trkpt lat="41.859641" lon="0.793167">
        <ele>565.243</ele>
        <time>1998-01-15T10:09:07Z</time>
      </trkpt>
      <trkpt lat="41.859686" lon="0.793131">
        <ele>566.464</ele>
        <time>1998-01-15T10:09:11Z</time>
      </trkpt>
      <trkpt lat="41.859744" lon="0.793075">
        <ele>567.610</ele>
        <time>1998-01-15T10:09:16Z</time>
      </trkpt>
      <trkpt lat="41.859790" lon="0.793053">
        <ele>568.208</ele>
        <time>1998-01-15T10:09:20Z</time>
      </trkpt>
      <trkpt lat="41.859813" lon="0.793040">
        <ele>568.616</ele>
        <time>1998-01-15T10:09:22Z</time>
      </trkpt>
      <trkpt lat="41.859849" lon="0.792984">
        <ele>569.216</ele>
        <time>1998-01-15T10:09:26Z</time>
      </trkpt>
      <trkpt lat="41.859880" lon="0.792948">
        <ele>569.877</ele>
        <time>1998-01-15T10:09:29Z</time>
      </trkpt>
      <trkpt lat="41.859934" lon="0.792899">
        <ele>570.879</ele>
        <time>1998-01-15T10:09:34Z</time>
      </trkpt>
      <trkpt lat="41.859942" lon="0.792863">
        <ele>571.277</ele>
        <time>1998-01-15T10:09:36Z</time>
      </trkpt>
      <trkpt lat="41.859955" lon="0.792803">
        <ele>571.494</ele>
        <time>1998-01-15T10:09:39Z</time>
      </trkpt>
      <trkpt lat="41.859970" lon="0.792744">
        <ele>572.041</ele>
        <time>1998-01-15T10:09:42Z</time>
      </trkpt>
      <trkpt lat="41.860002" lon="0.792630">
        <ele>573.242</ele>
        <time>1998-01-15T10:09:48Z</time>
      </trkpt>
      <trkpt lat="41.860014" lon="0.792617">
        <ele>573.442</ele>
        <time>1998-01-15T10:09:49Z</time>
      </trkpt>
      <trkpt lat="41.860086" lon="0.792548">
        <ele>574.222</ele>
        <time>1998-01-15T10:09:55Z</time>
      </trkpt>
      <trkpt lat="41.860139" lon="0.792526">
        <ele>575.614</ele>
        <time>1998-01-15T10:09:59Z</time>
      </trkpt>
      <trkpt lat="41.860170" lon="0.792490">
        <ele>575.808</ele>
        <time>1998-01-15T10:10:02Z</time>
      </trkpt>
      <trkpt lat="41.860175" lon="0.792470">
        <ele>575.826</ele>
        <time>1998-01-15T10:10:03Z</time>
      </trkpt>
      <trkpt lat="41.860174" lon="0.792365">
        <ele>576.026</ele>
        <time>1998-01-15T10:10:07Z</time>
      </trkpt>
      <trkpt lat="41.860207" lon="0.792314">
        <ele>576.047</ele>
        <time>1998-01-15T10:10:10Z</time>
      </trkpt>
      <trkpt lat="41.860218" lon="0.792300">
        <ele>576.089</ele>
        <time>1998-01-15T10:10:11Z</time>
      </trkpt>
      <trkpt lat="41.860261" lon="0.792179">
        <ele>576.497</ele>
        <time>1998-01-15T10:10:17Z</time>
      </trkpt>
      <trkpt lat="41.860274" lon="0.792133">
        <ele>576.644</ele>
        <time>1998-01-15T10:10:19Z</time>
      </trkpt>
      <trkpt lat="41.860286" lon="0.792065">
        <ele>576.821</ele>
        <time>1998-01-15T10:10:22Z</time>
      </trkpt>
      <trkpt lat="41.860254" lon="0.792009">
        <ele>576.692</ele>
        <time>1998-01-15T10:10:24Z</time>
      </trkpt>
      <trkpt lat="41.860202" lon="0.791848">
        <ele>575.449</ele>
        <time>1998-01-15T10:10:27Z</time>
      </trkpt>
      <trkpt lat="41.860196" lon="0.791778">
        <ele>574.802</ele>
        <time>1998-01-15T10:10:28Z</time>
      </trkpt>
      <trkpt lat="41.860213" lon="0.791644">
        <ele>574.222</ele>
        <time>1998-01-15T10:10:30Z</time>
      </trkpt>
      <trkpt lat="41.860228" lon="0.791612">
        <ele>574.008</ele>
        <time>1998-01-15T10:10:31Z</time>
      </trkpt>
      <trkpt lat="41.860256" lon="0.791586">
        <ele>574.096</ele>
        <time>1998-01-15T10:10:33Z</time>
      </trkpt>
      <trkpt lat="41.860282" lon="0.791571">
        <ele>574.466</ele>
        <time>1998-01-15T10:10:35Z</time>
      </trkpt>
      <trkpt lat="41.860361" lon="0.791537">
        <ele>575.487</ele>
        <time>1998-01-15T10:10:41Z</time>
      </trkpt>
      <trkpt lat="41.860385" lon="0.791517">
        <ele>575.899</ele>
        <time>1998-01-15T10:10:43Z</time>
      </trkpt>
      <trkpt lat="41.860405" lon="0.791501">
        <ele>576.077</ele>
        <time>1998-01-15T10:10:45Z</time>
      </trkpt>
      <trkpt lat="41.860416" lon="0.791468">
        <ele>576.624</ele>
        <time>1998-01-15T10:10:47Z</time>
      </trkpt>
      <trkpt lat="41.860417" lon="0.791436">
        <ele>577.081</ele>
        <time>1998-01-15T10:10:49Z</time>
      </trkpt>
      <trkpt lat="41.860420" lon="0.791404">
        <ele>577.672</ele>
        <time>1998-01-15T10:10:51Z</time>
      </trkpt>
      <trkpt lat="41.860425" lon="0.791338">
        <ele>578.269</ele>
        <time>1998-01-15T10:10:55Z</time>
      </trkpt>
      <trkpt lat="41.860426" lon="0.791283">
        <ele>578.604</ele>
        <time>1998-01-15T10:10:58Z</time>
      </trkpt>
      <trkpt lat="41.860424" lon="0.791217">
        <ele>579.624</ele>
        <time>1998-01-15T10:11:02Z</time>
      </trkpt>
      <trkpt lat="41.860425" lon="0.791199">
        <ele>580.008</ele>
        <time>1998-01-15T10:11:03Z</time>
      </trkpt>
      <trkpt lat="41.860421" lon="0.791155">
        <ele>580.868</ele>
        <time>1998-01-15T10:11:06Z</time>
      </trkpt>
      <trkpt lat="41.860422" lon="0.791061">
        <ele>582.028</ele>
        <time>1998-01-15T10:11:12Z</time>
      </trkpt>
      <trkpt lat="41.860440" lon="0.791008">
        <ele>583.459</ele>
        <time>1998-01-15T10:11:16Z</time>
      </trkpt>
      <trkpt lat="41.860465" lon="0.790980">
        <ele>584.061</ele>
        <time>1998-01-15T10:11:19Z</time>
      </trkpt>
      <trkpt lat="41.860475" lon="0.790973">
        <ele>584.489</ele>
        <time>1998-01-15T10:11:20Z</time>
      </trkpt>
      <trkpt lat="41.860509" lon="0.790939">
        <ele>585.496</ele>
        <time>1998-01-15T10:11:24Z</time>
      </trkpt>
      <trkpt lat="41.860526" lon="0.790930">
        <ele>586.023</ele>
        <time>1998-01-15T10:11:26Z</time>
      </trkpt>
      <trkpt lat="41.860536" lon="0.790935">
        <ele>586.234</ele>
        <time>1998-01-15T10:11:27Z</time>
      </trkpt>
      <trkpt lat="41.860549" lon="0.790934">
        <ele>586.662</ele>
        <time>1998-01-15T10:11:28Z</time>
      </trkpt>
      <trkpt lat="41.860590" lon="0.790918">
        <ele>587.283</ele>
        <time>1998-01-15T10:11:31Z</time>
      </trkpt>
      <trkpt lat="41.860873" lon="0.790483">
        <ele>596.811</ele>
        <time>1998-01-15T10:13:19Z</time>
      </trkpt>
      <trkpt lat="41.860875" lon="0.790466">
        <ele>597.008</ele>
        <time>1998-01-15T10:13:20Z</time>
      </trkpt>
      <trkpt lat="41.860864" lon="0.790314">
        <ele>598.018</ele>
        <time>1998-01-15T10:13:28Z</time>
      </trkpt>
      <trkpt lat="41.860860" lon="0.790294">
        <ele>598.248</ele>
        <time>1998-01-15T10:13:29Z</time>
      </trkpt>
      <trkpt lat="41.860851" lon="0.790193">
        <ele>599.019</ele>
        <time>1998-01-15T10:13:34Z</time>
      </trkpt>
      <trkpt lat="41.860858" lon="0.790132">
        <ele>599.441</ele>
        <time>1998-01-15T10:13:37Z</time>
      </trkpt>
      <trkpt lat="41.860895" lon="0.789991">
        <ele>599.849</ele>
        <time>1998-01-15T10:13:44Z</time>
      </trkpt>
      <trkpt lat="41.860899" lon="0.789946">
        <ele>600.026</ele>
        <time>1998-01-15T10:13:46Z</time>
      </trkpt>
      <trkpt lat="41.860879" lon="0.789819">
        <ele>600.213</ele>
        <time>1998-01-15T10:13:51Z</time>
      </trkpt>
      <trkpt lat="41.860903" lon="0.789593">
        <ele>600.414</ele>
        <time>1998-01-15T10:13:57Z</time>
      </trkpt>
      <trkpt lat="41.860957" lon="0.789268">
        <ele>599.617</ele>
        <time>1998-01-15T10:14:03Z</time>
      </trkpt>
      <trkpt lat="41.861009" lon="0.788967">
        <ele>599.487</ele>
        <time>1998-01-15T10:14:09Z</time>
      </trkpt>
      <trkpt lat="41.861089" lon="0.788651">
        <ele>599.215</ele>
        <time>1998-01-15T10:14:16Z</time>
      </trkpt>
      <trkpt lat="41.861150" lon="0.788493">
        <ele>599.608</ele>
        <time>1998-01-15T10:14:19Z</time>
      </trkpt>
      <trkpt lat="41.861165" lon="0.788377">
        <ele>599.683</ele>
        <time>1998-01-15T10:14:21Z</time>
      </trkpt>
      <trkpt lat="41.861193" lon="0.787872">
        <ele>599.643</ele>
        <time>1998-01-15T10:14:30Z</time>
      </trkpt>
      <trkpt lat="41.861214" lon="0.787739">
        <ele>599.664</ele>
        <time>1998-01-15T10:14:32Z</time>
      </trkpt>
      <trkpt lat="41.861225" lon="0.787602">
        <ele>599.016</ele>
        <time>1998-01-15T10:14:34Z</time>
      </trkpt>
      <trkpt lat="41.861226" lon="0.787547">
        <ele>598.854</ele>
        <time>1998-01-15T10:14:35Z</time>
      </trkpt>
      <trkpt lat="41.861191" lon="0.787456">
        <ele>598.481</ele>
        <time>1998-01-15T10:14:38Z</time>
      </trkpt>
      <trkpt lat="41.861126" lon="0.787446">
        <ele>599.278</ele>
        <time>1998-01-15T10:14:42Z</time>
      </trkpt>
      <trkpt lat="41.861087" lon="0.787430">
        <ele>599.839</ele>
        <time>1998-01-15T10:14:45Z</time>
      </trkpt>
      <trkpt lat="41.861037" lon="0.787408">
        <ele>600.892</ele>
        <time>1998-01-15T10:14:49Z</time>
      </trkpt>
      <trkpt lat="41.861024" lon="0.787404">
        <ele>601.273</ele>
        <time>1998-01-15T10:14:50Z</time>
      </trkpt>
      <trkpt lat="41.860973" lon="0.787376">
        <ele>602.420</ele>
        <time>1998-01-15T10:14:54Z</time>
      </trkpt>
      <trkpt lat="41.860963" lon="0.787365">
        <ele>602.808</ele>
        <time>1998-01-15T10:14:55Z</time>
      </trkpt>
      <trkpt lat="41.860917" lon="0.787326">
        <ele>603.661</ele>
        <time>1998-01-15T10:14:59Z</time>
      </trkpt>
      <trkpt lat="41.860906" lon="0.787315">
        <ele>603.821</ele>
        <time>1998-01-15T10:15:00Z</time>
      </trkpt>
      <trkpt lat="41.860892" lon="0.787309">
        <ele>604.012</ele>
        <time>1998-01-15T10:15:01Z</time>
      </trkpt>
      <trkpt lat="41.860880" lon="0.787300">
        <ele>604.284</ele>
        <time>1998-01-15T10:15:02Z</time>
      </trkpt>
      <trkpt lat="41.860857" lon="0.787277">
        <ele>604.812</ele>
        <time>1998-01-15T10:15:04Z</time>
      </trkpt>
      <trkpt lat="41.860795" lon="0.787258">
        <ele>606.099</ele>
        <time>1998-01-15T10:15:09Z</time>
      </trkpt>
      <trkpt lat="41.860768" lon="0.787257">
        <ele>606.276</ele>
        <time>1998-01-15T10:15:11Z</time>
      </trkpt>
      <trkpt lat="41.860734" lon="0.787254">
        <ele>607.057</ele>
        <time>1998-01-15T10:15:14Z</time>
      </trkpt>
      <trkpt lat="41.860688" lon="0.787257">
        <ele>608.264</ele>
        <time>1998-01-15T10:15:18Z</time>
      </trkpt>
      <trkpt lat="41.860675" lon="0.787259">
        <ele>608.206</ele>
        <time>1998-01-15T10:15:19Z</time>
      </trkpt>
      <trkpt lat="41.860612" lon="0.787276">
        <ele>609.416</ele>
        <time>1998-01-15T10:15:25Z</time>
      </trkpt>
      <trkpt lat="41.860601" lon="0.787275">
        <ele>609.608</ele>
        <time>1998-01-15T10:15:26Z</time>
      </trkpt>
      <trkpt lat="41.860562" lon="0.787257">
        <ele>610.418</ele>
        <time>1998-01-15T10:15:30Z</time>
      </trkpt>
      <trkpt lat="41.860536" lon="0.787238">
        <ele>610.888</ele>
        <time>1998-01-15T10:15:33Z</time>
      </trkpt>
      <trkpt lat="41.860503" lon="0.787206">
        <ele>611.499</ele>
        <time>1998-01-15T10:15:36Z</time>
      </trkpt>
      <trkpt lat="41.860491" lon="0.787194">
        <ele>611.411</ele>
        <time>1998-01-15T10:15:37Z</time>
      </trkpt>
      <trkpt lat="41.860459" lon="0.787166">
        <ele>612.239</ele>
        <time>1998-01-15T10:15:40Z</time>
      </trkpt>
      <trkpt lat="41.860413" lon="0.787072">
        <ele>612.656</ele>
        <time>1998-01-15T10:15:47Z</time>
      </trkpt>
      <trkpt lat="41.860407" lon="0.787056">
        <ele>612.693</ele>
        <time>1998-01-15T10:15:48Z</time>
      </trkpt>
      <trkpt lat="41.860375" lon="0.786915">
        <ele>613.094</ele>
        <time>1998-01-15T10:15:54Z</time>
      </trkpt>
      <trkpt lat="41.860335" lon="0.786745">
        <ele>613.211</ele>
        <time>1998-01-15T10:16:00Z</time>
      </trkpt>
      <trkpt lat="41.860293" lon="0.786481">
        <ele>612.421</ele>
        <time>1998-01-15T10:16:07Z</time>
      </trkpt>
      <trkpt lat="41.860230" lon="0.786252">
        <ele>611.603</ele>
        <time>1998-01-15T10:16:13Z</time>
      </trkpt>
      <trkpt lat="41.860136" lon="0.786047">
        <ele>611.208</ele>
        <time>1998-01-15T10:16:19Z</time>
      </trkpt>
      <trkpt lat="41.859997" lon="0.785794">
        <ele>611.873</ele>
        <time>1998-01-15T10:16:27Z</time>
      </trkpt>
      <trkpt lat="41.860000" lon="0.785748">
        <ele>611.893</ele>
        <time>1998-01-15T10:16:28Z</time>
      </trkpt>
      <trkpt lat="41.860027" lon="0.785646">
        <ele>611.634</ele>
        <time>1998-01-15T10:16:30Z</time>
      </trkpt>
      <trkpt lat="41.860069" lon="0.785537">
        <ele>611.686</ele>
        <time>1998-01-15T10:16:32Z</time>
      </trkpt>
      <trkpt lat="41.860088" lon="0.785471">
        <ele>611.254</ele>
        <time>1998-01-15T10:16:33Z</time>
      </trkpt>
      <trkpt lat="41.860103" lon="0.785393">
        <ele>611.071</ele>
        <time>1998-01-15T10:16:34Z</time>
      </trkpt>
      <trkpt lat="41.860135" lon="0.785243">
        <ele>610.468</ele>
        <time>1998-01-15T10:16:36Z</time>
      </trkpt>
      <trkpt lat="41.860169" lon="0.785013">
        <ele>609.859</ele>
        <time>1998-01-15T10:16:39Z</time>
      </trkpt>
      <trkpt lat="41.860179" lon="0.784937">
        <ele>609.479</ele>
        <time>1998-01-15T10:16:40Z</time>
      </trkpt>
      <trkpt lat="41.860188" lon="0.784867">
        <ele>609.205</ele>
        <time>1998-01-15T10:16:41Z</time>
      </trkpt>
      <trkpt lat="41.860212" lon="0.784665">
        <ele>608.425</ele>
        <time>1998-01-15T10:16:44Z</time>
      </trkpt>
      <trkpt lat="41.860228" lon="0.784604">
        <ele>608.208</ele>
        <time>1998-01-15T10:16:45Z</time>
      </trkpt>
      <trkpt lat="41.860289" lon="0.784270">
        <ele>607.269</ele>
        <time>1998-01-15T10:16:50Z</time>
      </trkpt>
      <trkpt lat="41.860320" lon="0.783969">
        <ele>606.429</ele>
        <time>1998-01-15T10:16:54Z</time>
      </trkpt>
      <trkpt lat="41.860339" lon="0.783893">
        <ele>606.290</ele>
        <time>1998-01-15T10:16:55Z</time>
      </trkpt>
      <trkpt lat="41.860356" lon="0.783816">
        <ele>606.032</ele>
        <time>1998-01-15T10:16:56Z</time>
      </trkpt>
      <trkpt lat="41.860361" lon="0.783737">
        <ele>606.050</ele>
        <time>1998-01-15T10:16:57Z</time>
      </trkpt>
      <trkpt lat="41.860359" lon="0.783525">
        <ele>605.427</ele>
        <time>1998-01-15T10:17:00Z</time>
      </trkpt>
      <trkpt lat="41.860355" lon="0.783451">
        <ele>605.094</ele>
        <time>1998-01-15T10:17:02Z</time>
      </trkpt>
      <trkpt lat="41.860352" lon="0.783452">
        <ele>604.815</ele>
        <time>1998-01-15T10:17:03Z</time>
      </trkpt>
      <trkpt lat="41.860379" lon="0.783415">
        <ele>605.452</ele>
        <time>1998-01-15T10:27:48Z</time>
      </trkpt>
      <trkpt lat="41.860409" lon="0.783386">
        <ele>605.653</ele>
        <time>1998-01-15T10:27:50Z</time>
      </trkpt>
      <trkpt lat="41.860541" lon="0.783322">
        <ele>605.808</ele>
        <time>1998-01-15T10:27:55Z</time>
      </trkpt>
      <trkpt lat="41.860660" lon="0.783430">
        <ele>605.208</ele>
        <time>1998-01-15T10:27:59Z</time>
      </trkpt>
      <trkpt lat="41.860786" lon="0.783605">
        <ele>604.027</ele>
        <time>1998-01-15T10:28:03Z</time>
      </trkpt>
      <trkpt lat="41.860828" lon="0.783634">
        <ele>603.857</ele>
        <time>1998-01-15T10:28:04Z</time>
      </trkpt>
      <trkpt lat="41.860957" lon="0.783770">
        <ele>603.098</ele>
        <time>1998-01-15T10:28:08Z</time>
      </trkpt>
      <trkpt lat="41.860979" lon="0.783832">
        <ele>602.640</ele>
        <time>1998-01-15T10:28:09Z</time>
      </trkpt>
      <trkpt lat="41.861003" lon="0.783900">
        <ele>602.218</ele>
        <time>1998-01-15T10:28:10Z</time>
      </trkpt>
      <trkpt lat="41.861041" lon="0.783968">
        <ele>601.665</ele>
        <time>1998-01-15T10:28:11Z</time>
      </trkpt>
      <trkpt lat="41.861083" lon="0.784034">
        <ele>601.232</ele>
        <time>1998-01-15T10:28:12Z</time>
      </trkpt>
      <trkpt lat="41.861164" lon="0.784179">
        <ele>600.013</ele>
        <time>1998-01-15T10:28:14Z</time>
      </trkpt>
      <trkpt lat="41.861252" lon="0.784323">
        <ele>598.839</ele>
        <time>1998-01-15T10:28:16Z</time>
      </trkpt>
      <trkpt lat="41.861354" lon="0.784478">
        <ele>597.801</ele>
        <time>1998-01-15T10:28:18Z</time>
      </trkpt>
      <trkpt lat="41.861465" lon="0.784623">
        <ele>596.421</ele>
        <time>1998-01-15T10:28:20Z</time>
      </trkpt>
      <trkpt lat="41.861567" lon="0.784759">
        <ele>595.008</ele>
        <time>1998-01-15T10:28:22Z</time>
      </trkpt>
      <trkpt lat="41.861681" lon="0.784880">
        <ele>593.825</ele>
        <time>1998-01-15T10:28:24Z</time>
      </trkpt>
      <trkpt lat="41.861809" lon="0.784983">
        <ele>592.475</ele>
        <time>1998-01-15T10:28:26Z</time>
      </trkpt>
      <trkpt lat="41.862021" lon="0.785109">
        <ele>591.076</ele>
        <time>1998-01-15T10:28:29Z</time>
      </trkpt>
      <trkpt lat="41.862154" lon="0.785194">
        <ele>589.898</ele>
        <time>1998-01-15T10:28:31Z</time>
      </trkpt>
      <trkpt lat="41.862272" lon="0.785240">
        <ele>588.466</ele>
        <time>1998-01-15T10:28:33Z</time>
      </trkpt>
      <trkpt lat="41.862400" lon="0.785230">
        <ele>587.233</ele>
        <time>1998-01-15T10:28:35Z</time>
      </trkpt>
      <trkpt lat="41.862519" lon="0.785191">
        <ele>586.490</ele>
        <time>1998-01-15T10:28:37Z</time>
      </trkpt>
      <trkpt lat="41.862570" lon="0.785153">
        <ele>585.891</ele>
        <time>1998-01-15T10:28:38Z</time>
      </trkpt>
      <trkpt lat="41.862623" lon="0.785125">
        <ele>585.691</ele>
        <time>1998-01-15T10:28:39Z</time>
      </trkpt>
      <trkpt lat="41.862730" lon="0.785082">
        <ele>585.281</ele>
        <time>1998-01-15T10:28:41Z</time>
      </trkpt>
      <trkpt lat="41.862834" lon="0.785016">
        <ele>584.619</ele>
        <time>1998-01-15T10:28:43Z</time>
      </trkpt>
      <trkpt lat="41.863049" lon="0.784891">
        <ele>583.608</ele>
        <time>1998-01-15T10:28:47Z</time>
      </trkpt>
      <trkpt lat="41.863109" lon="0.784859">
        <ele>583.481</ele>
        <time>1998-01-15T10:28:48Z</time>
      </trkpt>
      <trkpt lat="41.863222" lon="0.784773">
        <ele>583.071</ele>
        <time>1998-01-15T10:28:50Z</time>
      </trkpt>
      <trkpt lat="41.863318" lon="0.784686">
        <ele>582.822</ele>
        <time>1998-01-15T10:28:52Z</time>
      </trkpt>
      <trkpt lat="41.863365" lon="0.784633">
        <ele>582.444</ele>
        <time>1998-01-15T10:28:53Z</time>
      </trkpt>
      <trkpt lat="41.863553" lon="0.784456">
        <ele>581.442</ele>
        <time>1998-01-15T10:28:57Z</time>
      </trkpt>
      <trkpt lat="41.863645" lon="0.784373">
        <ele>581.069</ele>
        <time>1998-01-15T10:28:59Z</time>
      </trkpt>
      <trkpt lat="41.863734" lon="0.784293">
        <ele>581.036</ele>
        <time>1998-01-15T10:29:01Z</time>
      </trkpt>
      <trkpt lat="41.863884" lon="0.784189">
        <ele>580.697</ele>
        <time>1998-01-15T10:29:04Z</time>
      </trkpt>
      <trkpt lat="41.863989" lon="0.784126">
        <ele>580.016</ele>
        <time>1998-01-15T10:29:06Z</time>
      </trkpt>
      <trkpt lat="41.864132" lon="0.783979">
        <ele>579.076</ele>
        <time>1998-01-15T10:29:09Z</time>
      </trkpt>
      <trkpt lat="41.864170" lon="0.783916">
        <ele>578.613</ele>
        <time>1998-01-15T10:29:10Z</time>
      </trkpt>
      <trkpt lat="41.864206" lon="0.783860">
        <ele>578.408</ele>
        <time>1998-01-15T10:29:11Z</time>
      </trkpt>
      <trkpt lat="41.864333" lon="0.783711">
        <ele>577.833</ele>
        <time>1998-01-15T10:29:14Z</time>
      </trkpt>
      <trkpt lat="41.864380" lon="0.783661">
        <ele>577.413</ele>
        <time>1998-01-15T10:29:15Z</time>
      </trkpt>
      <trkpt lat="41.864487" lon="0.783580">
        <ele>576.864</ele>
        <time>1998-01-15T10:29:17Z</time>
      </trkpt>
      <trkpt lat="41.864599" lon="0.783508">
        <ele>576.286</ele>
        <time>1998-01-15T10:29:19Z</time>
      </trkpt>
      <trkpt lat="41.864767" lon="0.783430">
        <ele>575.874</ele>
        <time>1998-01-15T10:29:22Z</time>
      </trkpt>
      <trkpt lat="41.864877" lon="0.783397">
        <ele>575.881</ele>
        <time>1998-01-15T10:29:24Z</time>
      </trkpt>
      <trkpt lat="41.864925" lon="0.783364">
        <ele>576.068</ele>
        <time>1998-01-15T10:29:25Z</time>
      </trkpt>
      <trkpt lat="41.865049" lon="0.783260">
        <ele>576.499</ele>
        <time>1998-01-15T10:29:28Z</time>
      </trkpt>
      <trkpt lat="41.865136" lon="0.783205">
        <ele>576.495</ele>
        <time>1998-01-15T10:29:30Z</time>
      </trkpt>
      <trkpt lat="41.865234" lon="0.783157">
        <ele>576.649</ele>
        <time>1998-01-15T10:29:32Z</time>
      </trkpt>
      <trkpt lat="41.865340" lon="0.783137">
        <ele>576.623</ele>
        <time>1998-01-15T10:29:34Z</time>
      </trkpt>
      <trkpt lat="41.865738" lon="0.783081">
        <ele>575.808</ele>
        <time>1998-01-15T10:29:41Z</time>
      </trkpt>
      <trkpt lat="41.865958" lon="0.783065">
        <ele>575.631</ele>
        <time>1998-01-15T10:29:45Z</time>
      </trkpt>
      <trkpt lat="41.866060" lon="0.783021">
        <ele>575.451</ele>
        <time>1998-01-15T10:29:47Z</time>
      </trkpt>
      <trkpt lat="41.866213" lon="0.782980">
        <ele>575.042</ele>
        <time>1998-01-15T10:29:50Z</time>
      </trkpt>
      <trkpt lat="41.866363" lon="0.782930">
        <ele>574.614</ele>
        <time>1998-01-15T10:29:53Z</time>
      </trkpt>
      <trkpt lat="41.866408" lon="0.782903">
        <ele>574.432</ele>
        <time>1998-01-15T10:29:54Z</time>
      </trkpt>
      <trkpt lat="41.866533" lon="0.782764">
        <ele>573.859</ele>
        <time>1998-01-15T10:29:57Z</time>
      </trkpt>
      <trkpt lat="41.866570" lon="0.782712">
        <ele>573.646</ele>
        <time>1998-01-15T10:29:58Z</time>
      </trkpt>
      <trkpt lat="41.866661" lon="0.782541">
        <ele>572.667</ele>
        <time>1998-01-15T10:30:01Z</time>
      </trkpt>
      <trkpt lat="41.866682" lon="0.782488">
        <ele>572.217</ele>
        <time>1998-01-15T10:30:02Z</time>
      </trkpt>
      <trkpt lat="41.866695" lon="0.782431">
        <ele>571.887</ele>
        <time>1998-01-15T10:30:03Z</time>
      </trkpt>
      <trkpt lat="41.866696" lon="0.782365">
        <ele>571.615</ele>
        <time>1998-01-15T10:30:04Z</time>
      </trkpt>
      <trkpt lat="41.866678" lon="0.782217">
        <ele>570.808</ele>
        <time>1998-01-15T10:30:06Z</time>
      </trkpt>
      <trkpt lat="41.866649" lon="0.782067">
        <ele>570.463</ele>
        <time>1998-01-15T10:30:08Z</time>
      </trkpt>
      <trkpt lat="41.866621" lon="0.781827">
        <ele>569.653</ele>
        <time>1998-01-15T10:30:11Z</time>
      </trkpt>
      <trkpt lat="41.866614" lon="0.781744">
        <ele>569.224</ele>
        <time>1998-01-15T10:30:12Z</time>
      </trkpt>
      <trkpt lat="41.866619" lon="0.781668">
        <ele>568.876</ele>
        <time>1998-01-15T10:30:13Z</time>
      </trkpt>
      <trkpt lat="41.866684" lon="0.781509">
        <ele>568.264</ele>
        <time>1998-01-15T10:30:15Z</time>
      </trkpt>
      <trkpt lat="41.866736" lon="0.781445">
        <ele>567.891</ele>
        <time>1998-01-15T10:30:16Z</time>
      </trkpt>
      <trkpt lat="41.866852" lon="0.781308">
        <ele>567.058</ele>
        <time>1998-01-15T10:30:18Z</time>
      </trkpt>
      <trkpt lat="41.866891" lon="0.781224">
        <ele>566.899</ele>
        <time>1998-01-15T10:30:19Z</time>
      </trkpt>
      <trkpt lat="41.866949" lon="0.781082">
        <ele>566.472</ele>
        <time>1998-01-15T10:30:21Z</time>
      </trkpt>
      <trkpt lat="41.867007" lon="0.780976">
        <ele>566.413</ele>
        <time>1998-01-15T10:30:23Z</time>
      </trkpt>
      <trkpt lat="41.867074" lon="0.780876">
        <ele>566.414</ele>
        <time>1998-01-15T10:30:25Z</time>
      </trkpt>
      <trkpt lat="41.867154" lon="0.780786">
        <ele>566.208</ele>
        <time>1998-01-15T10:30:27Z</time>
      </trkpt>
      <trkpt lat="41.867318" lon="0.780714">
        <ele>566.229</ele>
        <time>1998-01-15T10:30:30Z</time>
      </trkpt>
      <trkpt lat="41.867373" lon="0.780697">
        <ele>566.229</ele>
        <time>1998-01-15T10:30:31Z</time>
      </trkpt>
      <trkpt lat="41.867487" lon="0.780688">
        <ele>566.090</ele>
        <time>1998-01-15T10:30:33Z</time>
      </trkpt>
      <trkpt lat="41.867610" lon="0.780690">
        <ele>565.472</ele>
        <time>1998-01-15T10:30:35Z</time>
      </trkpt>
      <trkpt lat="41.867673" lon="0.780685">
        <ele>565.480</ele>
        <time>1998-01-15T10:30:36Z</time>
      </trkpt>
      <trkpt lat="41.867791" lon="0.780650">
        <ele>565.027</ele>
        <time>1998-01-15T10:30:38Z</time>
      </trkpt>
      <trkpt lat="41.867898" lon="0.780563">
        <ele>564.874</ele>
        <time>1998-01-15T10:30:40Z</time>
      </trkpt>
      <trkpt lat="41.868019" lon="0.780446">
        <ele>564.425</ele>
        <time>1998-01-15T10:30:42Z</time>
      </trkpt>
      <trkpt lat="41.868139" lon="0.780315">
        <ele>563.689</ele>
        <time>1998-01-15T10:30:44Z</time>
      </trkpt>
      <trkpt lat="41.868255" lon="0.780189">
        <ele>563.206</ele>
        <time>1998-01-15T10:30:46Z</time>
      </trkpt>
      <trkpt lat="41.868461" lon="0.779965">
        <ele>562.426</ele>
        <time>1998-01-15T10:30:50Z</time>
      </trkpt>
      <trkpt lat="41.868552" lon="0.779842">
        <ele>562.208</ele>
        <time>1998-01-15T10:30:52Z</time>
      </trkpt>
      <trkpt lat="41.868635" lon="0.779728">
        <ele>562.030</ele>
        <time>1998-01-15T10:30:54Z</time>
      </trkpt>
      <trkpt lat="41.868711" lon="0.779623">
        <ele>561.670</ele>
        <time>1998-01-15T10:30:56Z</time>
      </trkpt>
      <trkpt lat="41.868937" lon="0.779339">
        <ele>561.241</ele>
        <time>1998-01-15T10:31:02Z</time>
      </trkpt>
      <trkpt lat="41.869095" lon="0.779290">
        <ele>561.863</ele>
        <time>1998-01-15T10:31:05Z</time>
      </trkpt>
      <trkpt lat="41.869143" lon="0.779275">
        <ele>562.071</ele>
        <time>1998-01-15T10:31:06Z</time>
      </trkpt>
      <trkpt lat="41.869190" lon="0.779246">
        <ele>562.418</ele>
        <time>1998-01-15T10:31:07Z</time>
      </trkpt>
      <trkpt lat="41.869271" lon="0.779190">
        <ele>563.065</ele>
        <time>1998-01-15T10:31:09Z</time>
      </trkpt>
      <trkpt lat="41.869308" lon="0.779166">
        <ele>563.446</ele>
        <time>1998-01-15T10:31:10Z</time>
      </trkpt>
      <trkpt lat="41.869376" lon="0.779119">
        <ele>564.093</ele>
        <time>1998-01-15T10:31:12Z</time>
      </trkpt>
      <trkpt lat="41.869472" lon="0.779049">
        <ele>565.265</ele>
        <time>1998-01-15T10:31:15Z</time>
      </trkpt>
      <trkpt lat="41.869536" lon="0.779003">
        <ele>566.021</ele>
        <time>1998-01-15T10:31:17Z</time>
      </trkpt>
      <trkpt lat="41.869566" lon="0.778981">
        <ele>566.408</ele>
        <time>1998-01-15T10:31:18Z</time>
      </trkpt>
      <trkpt lat="41.869774" lon="0.778793">
        <ele>567.461</ele>
        <time>1998-01-15T10:31:24Z</time>
      </trkpt>
      <trkpt lat="41.870084" lon="0.778485">
        <ele>568.671</ele>
        <time>1998-01-15T10:31:33Z</time>
      </trkpt>
      <trkpt lat="41.870409" lon="0.778199">
        <ele>569.422</ele>
        <time>1998-01-15T10:31:42Z</time>
      </trkpt>
      <trkpt lat="41.870450" lon="0.778179">
        <ele>569.624</ele>
        <time>1998-01-15T10:31:43Z</time>
      </trkpt>
      <trkpt lat="41.870678" lon="0.778061">
        <ele>570.422</ele>
        <time>1998-01-15T10:31:49Z</time>
      </trkpt>
      <trkpt lat="41.870717" lon="0.778025">
        <ele>570.469</ele>
        <time>1998-01-15T10:31:50Z</time>
      </trkpt>
      <trkpt lat="41.870789" lon="0.777941">
        <ele>570.686</ele>
        <time>1998-01-15T10:31:52Z</time>
      </trkpt>
      <trkpt lat="41.870856" lon="0.777862">
        <ele>570.417</ele>
        <time>1998-01-15T10:31:54Z</time>
      </trkpt>
      <trkpt lat="41.870914" lon="0.777780">
        <ele>570.426</ele>
        <time>1998-01-15T10:31:56Z</time>
      </trkpt>
      <trkpt lat="41.871026" lon="0.777611">
        <ele>570.047</ele>
        <time>1998-01-15T10:32:00Z</time>
      </trkpt>
      <trkpt lat="41.871202" lon="0.777361">
        <ele>569.611</ele>
        <time>1998-01-15T10:32:07Z</time>
      </trkpt>
      <trkpt lat="41.871224" lon="0.777329">
        <ele>569.408</ele>
        <time>1998-01-15T10:32:08Z</time>
      </trkpt>
      <trkpt lat="41.871336" lon="0.777216">
        <ele>569.234</ele>
        <time>1998-01-15T10:32:12Z</time>
      </trkpt>
      <trkpt lat="41.871375" lon="0.777227">
        <ele>569.214</ele>
        <time>1998-01-15T10:32:13Z</time>
      </trkpt>
      <trkpt lat="41.871436" lon="0.777267">
        <ele>569.615</ele>
        <time>1998-01-15T10:32:15Z</time>
      </trkpt>
      <trkpt lat="41.871590" lon="0.777348">
        <ele>570.637</ele>
        <time>1998-01-15T10:32:20Z</time>
      </trkpt>
      <trkpt lat="41.871686" lon="0.777384">
        <ele>571.685</ele>
        <time>1998-01-15T10:32:23Z</time>
      </trkpt>
      <trkpt lat="41.871831" lon="0.777439">
        <ele>572.832</ele>
        <time>1998-01-15T10:32:28Z</time>
      </trkpt>
      <trkpt lat="41.871890" lon="0.777459">
        <ele>573.229</ele>
        <time>1998-01-15T10:32:30Z</time>
      </trkpt>
      <trkpt lat="41.871946" lon="0.777466">
        <ele>573.870</ele>
        <time>1998-01-15T10:32:32Z</time>
      </trkpt>
      <trkpt lat="41.872057" lon="0.777480">
        <ele>574.417</ele>
        <time>1998-01-15T10:32:35Z</time>
      </trkpt>
      <trkpt lat="41.872139" lon="0.777495">
        <ele>575.087</ele>
        <time>1998-01-15T10:32:37Z</time>
      </trkpt>
      <trkpt lat="41.872329" lon="0.777490">
        <ele>576.015</ele>
        <time>1998-01-15T10:32:42Z</time>
      </trkpt>
      <trkpt lat="41.872360" lon="0.777482">
        <ele>576.408</ele>
        <time>1998-01-15T10:32:43Z</time>
      </trkpt>
      <trkpt lat="41.872465" lon="0.777422">
        <ele>577.693</ele>
        <time>1998-01-15T10:32:47Z</time>
      </trkpt>
      <trkpt lat="41.872457" lon="0.777366">
        <ele>577.643</ele>
        <time>1998-01-15T10:32:50Z</time>
      </trkpt>
      <trkpt lat="41.872447" lon="0.777330">
        <ele>577.694</ele>
        <time>1998-01-15T10:33:27Z</time>
      </trkpt>
      <trkpt lat="41.872450" lon="0.777290">
        <ele>577.666</ele>
        <time>1998-01-15T10:33:28Z</time>
      </trkpt>
      <trkpt lat="41.872450" lon="0.777096">
        <ele>576.444</ele>
        <time>1998-01-15T10:33:31Z</time>
      </trkpt>
      <trkpt lat="41.872441" lon="0.777013">
        <ele>575.841</ele>
        <time>1998-01-15T10:33:32Z</time>
      </trkpt>
      <trkpt lat="41.872437" lon="0.776922">
        <ele>575.448</ele>
        <time>1998-01-15T10:33:33Z</time>
      </trkpt>
      <trkpt lat="41.872437" lon="0.776739">
        <ele>574.289</ele>
        <time>1998-01-15T10:33:35Z</time>
      </trkpt>
      <trkpt lat="41.872437" lon="0.776575">
        <ele>573.232</ele>
        <time>1998-01-15T10:33:37Z</time>
      </trkpt>
      <trkpt lat="41.872442" lon="0.776390">
        <ele>571.492</ele>
        <time>1998-01-15T10:33:39Z</time>
      </trkpt>
      <trkpt lat="41.872448" lon="0.776195">
        <ele>570.211</ele>
        <time>1998-01-15T10:33:41Z</time>
      </trkpt>
      <trkpt lat="41.872452" lon="0.776095">
        <ele>570.208</ele>
        <time>1998-01-15T10:33:42Z</time>
      </trkpt>
      <trkpt lat="41.872459" lon="0.775990">
        <ele>568.885</ele>
        <time>1998-01-15T10:33:43Z</time>
      </trkpt>
      <trkpt lat="41.872468" lon="0.775675">
        <ele>567.615</ele>
        <time>1998-01-15T10:33:46Z</time>
      </trkpt>
      <trkpt lat="41.872488" lon="0.775567">
        <ele>567.056</ele>
        <time>1998-01-15T10:33:47Z</time>
      </trkpt>
      <trkpt lat="41.872506" lon="0.775456">
        <ele>566.478</ele>
        <time>1998-01-15T10:33:48Z</time>
      </trkpt>
      <trkpt lat="41.872541" lon="0.775229">
        <ele>565.266</ele>
        <time>1998-01-15T10:33:50Z</time>
      </trkpt>
      <trkpt lat="41.872573" lon="0.774994">
        <ele>563.653</ele>
        <time>1998-01-15T10:33:52Z</time>
      </trkpt>
      <trkpt lat="41.872639" lon="0.774662">
        <ele>562.440</ele>
        <time>1998-01-15T10:33:55Z</time>
      </trkpt>
      <trkpt lat="41.872700" lon="0.774358">
        <ele>561.461</ele>
        <time>1998-01-15T10:33:58Z</time>
      </trkpt>
      <trkpt lat="41.872713" lon="0.774262">
        <ele>561.284</ele>
        <time>1998-01-15T10:33:59Z</time>
      </trkpt>
      <trkpt lat="41.872723" lon="0.774168">
        <ele>561.207</ele>
        <time>1998-01-15T10:34:00Z</time>
      </trkpt>
      <trkpt lat="41.872713" lon="0.773738">
        <ele>560.417</ele>
        <time>1998-01-15T10:34:05Z</time>
      </trkpt>
      <trkpt lat="41.872774" lon="0.773515">
        <ele>560.208</ele>
        <time>1998-01-15T10:34:08Z</time>
      </trkpt>
      <trkpt lat="41.872897" lon="0.773357">
        <ele>560.020</ele>
        <time>1998-01-15T10:34:11Z</time>
      </trkpt>
      <trkpt lat="41.872945" lon="0.773320">
        <ele>560.070</ele>
        <time>1998-01-15T10:34:12Z</time>
      </trkpt>
      <trkpt lat="41.873001" lon="0.773313">
        <ele>560.421</ele>
        <time>1998-01-15T10:34:13Z</time>
      </trkpt>
      <trkpt lat="41.873104" lon="0.773284">
        <ele>560.643</ele>
        <time>1998-01-15T10:34:15Z</time>
      </trkpt>
      <trkpt lat="41.873151" lon="0.773257">
        <ele>561.051</ele>
        <time>1998-01-15T10:34:16Z</time>
      </trkpt>
      <trkpt lat="41.873197" lon="0.773232">
        <ele>561.268</ele>
        <time>1998-01-15T10:34:17Z</time>
      </trkpt>
      <trkpt lat="41.873323" lon="0.773139">
        <ele>562.465</ele>
        <time>1998-01-15T10:34:20Z</time>
      </trkpt>
      <trkpt lat="41.873453" lon="0.772981">
        <ele>563.866</ele>
        <time>1998-01-15T10:34:24Z</time>
      </trkpt>
      <trkpt lat="41.873483" lon="0.772941">
        <ele>564.219</ele>
        <time>1998-01-15T10:34:25Z</time>
      </trkpt>
      <trkpt lat="41.873511" lon="0.772906">
        <ele>564.809</ele>
        <time>1998-01-15T10:34:26Z</time>
      </trkpt>
      <trkpt lat="41.873543" lon="0.772875">
        <ele>565.219</ele>
        <time>1998-01-15T10:34:27Z</time>
      </trkpt>
      <trkpt lat="41.873679" lon="0.772774">
        <ele>566.008</ele>
        <time>1998-01-15T10:34:31Z</time>
      </trkpt>
      <trkpt lat="41.873713" lon="0.772751">
        <ele>566.243</ele>
        <time>1998-01-15T10:34:32Z</time>
      </trkpt>
      <trkpt lat="41.873875" lon="0.772632">
        <ele>567.453</ele>
        <time>1998-01-15T10:34:37Z</time>
      </trkpt>
      <trkpt lat="41.873930" lon="0.772579">
        <ele>567.824</ele>
        <time>1998-01-15T10:34:39Z</time>
      </trkpt>
      <trkpt lat="41.874045" lon="0.772470">
        <ele>568.646</ele>
        <time>1998-01-15T10:34:43Z</time>
      </trkpt>
      <trkpt lat="41.874127" lon="0.772391">
        <ele>569.094</ele>
        <time>1998-01-15T10:34:46Z</time>
      </trkpt>
      <trkpt lat="41.874176" lon="0.772346">
        <ele>569.651</ele>
        <time>1998-01-15T10:34:48Z</time>
      </trkpt>
      <trkpt lat="41.874294" lon="0.772257">
        <ele>570.698</ele>
        <time>1998-01-15T10:34:53Z</time>
      </trkpt>
      <trkpt lat="41.874426" lon="0.772142">
        <ele>571.629</ele>
        <time>1998-01-15T10:34:59Z</time>
      </trkpt>
      <trkpt lat="41.874469" lon="0.772111">
        <ele>572.277</ele>
        <time>1998-01-15T10:35:01Z</time>
      </trkpt>
      <trkpt lat="41.874537" lon="0.772068">
        <ele>572.861</ele>
        <time>1998-01-15T10:35:04Z</time>
      </trkpt>
      <trkpt lat="41.874658" lon="0.772007">
        <ele>573.827</ele>
        <time>1998-01-15T10:35:09Z</time>
      </trkpt>
      <trkpt lat="41.874682" lon="0.771997">
        <ele>573.808</ele>
        <time>1998-01-15T10:35:10Z</time>
      </trkpt>
      <trkpt lat="41.874775" lon="0.771962">
        <ele>574.899</ele>
        <time>1998-01-15T10:35:14Z</time>
      </trkpt>
      <trkpt lat="41.874823" lon="0.771949">
        <ele>575.489</ele>
        <time>1998-01-15T10:35:16Z</time>
      </trkpt>
      <trkpt lat="41.874935" lon="0.771931">
        <ele>576.030</ele>
        <time>1998-01-15T10:35:21Z</time>
      </trkpt>
      <trkpt lat="41.874953" lon="0.771925">
        <ele>576.442</ele>
        <time>1998-01-15T10:35:22Z</time>
      </trkpt>
      <trkpt lat="41.875009" lon="0.771901">
        <ele>577.290</ele>
        <time>1998-01-15T10:35:25Z</time>
      </trkpt>
      <trkpt lat="41.875077" lon="0.771823">
        <ele>577.817</ele>
        <time>1998-01-15T10:35:29Z</time>
      </trkpt>
      <trkpt lat="41.875191" lon="0.771654">
        <ele>578.094</ele>
        <time>1998-01-15T10:35:34Z</time>
      </trkpt>
      <trkpt lat="41.875372" lon="0.771292">
        <ele>577.215</ele>
        <time>1998-01-15T10:35:43Z</time>
      </trkpt>
      <trkpt lat="41.875470" lon="0.771059">
        <ele>577.054</ele>
        <time>1998-01-15T10:35:50Z</time>
      </trkpt>
      <trkpt lat="41.875467" lon="0.770915">
        <ele>577.456</ele>
        <time>1998-01-15T10:35:55Z</time>
      </trkpt>
      <trkpt lat="41.875445" lon="0.770859">
        <ele>578.011</ele>
        <time>1998-01-15T10:35:58Z</time>
      </trkpt>
      <trkpt lat="41.875417" lon="0.770834">
        <ele>578.408</ele>
        <time>1998-01-15T10:36:00Z</time>
      </trkpt>
      <trkpt lat="41.875365" lon="0.770791">
        <ele>579.467</ele>
        <time>1998-01-15T10:36:04Z</time>
      </trkpt>
      <trkpt lat="41.875339" lon="0.770758">
        <ele>580.257</ele>
        <time>1998-01-15T10:36:06Z</time>
      </trkpt>
      <trkpt lat="41.875330" lon="0.770737">
        <ele>580.668</ele>
        <time>1998-01-15T10:36:07Z</time>
      </trkpt>
      <trkpt lat="41.875309" lon="0.770681">
        <ele>581.850</ele>
        <time>1998-01-15T10:36:10Z</time>
      </trkpt>
      <trkpt lat="41.875291" lon="0.770630">
        <ele>582.688</ele>
        <time>1998-01-15T10:36:13Z</time>
      </trkpt>
      <trkpt lat="41.875284" lon="0.770614">
        <ele>582.815</ele>
        <time>1998-01-15T10:36:14Z</time>
      </trkpt>
      <trkpt lat="41.875240" lon="0.770533">
        <ele>584.032</ele>
        <time>1998-01-15T10:36:19Z</time>
      </trkpt>
      <trkpt lat="41.875213" lon="0.770485">
        <ele>584.653</ele>
        <time>1998-01-15T10:36:22Z</time>
      </trkpt>
      <trkpt lat="41.875194" lon="0.770452">
        <ele>585.018</ele>
        <time>1998-01-15T10:36:24Z</time>
      </trkpt>
      <trkpt lat="41.875163" lon="0.770384">
        <ele>585.898</ele>
        <time>1998-01-15T10:36:28Z</time>
      </trkpt>
      <trkpt lat="41.875156" lon="0.770366">
        <ele>586.017</ele>
        <time>1998-01-15T10:36:29Z</time>
      </trkpt>
      <trkpt lat="41.875151" lon="0.770291">
        <ele>587.008</ele>
        <time>1998-01-15T10:36:33Z</time>
      </trkpt>
      <trkpt lat="41.875152" lon="0.770270">
        <ele>587.233</ele>
        <time>1998-01-15T10:36:34Z</time>
      </trkpt>
      <trkpt lat="41.875148" lon="0.770177">
        <ele>588.093</ele>
        <time>1998-01-15T10:36:39Z</time>
      </trkpt>
      <trkpt lat="41.875146" lon="0.770138">
        <ele>588.484</ele>
        <time>1998-01-15T10:36:41Z</time>
      </trkpt>
      <trkpt lat="41.875105" lon="0.770080">
        <ele>589.056</ele>
        <time>1998-01-15T10:36:45Z</time>
      </trkpt>
      <trkpt lat="41.875068" lon="0.770021">
        <ele>589.644</ele>
        <time>1998-01-15T10:36:49Z</time>
      </trkpt>
      <trkpt lat="41.875044" lon="0.769968">
        <ele>590.271</ele>
        <time>1998-01-15T10:36:52Z</time>
      </trkpt>
      <trkpt lat="41.875042" lon="0.769908">
        <ele>590.628</ele>
        <time>1998-01-15T10:36:55Z</time>
      </trkpt>
      <trkpt lat="41.875049" lon="0.769887">
        <ele>590.899</ele>
        <time>1998-01-15T10:36:56Z</time>
      </trkpt>
      <trkpt lat="41.875061" lon="0.769855">
        <ele>591.426</ele>
        <time>1998-01-15T10:36:58Z</time>
      </trkpt>
      <trkpt lat="41.874835" lon="0.769179">
        <ele>602.647</ele>
        <time>1998-01-15T10:38:13Z</time>
      </trkpt>
      <trkpt lat="41.874828" lon="0.769159">
        <ele>602.611</ele>
        <time>1998-01-15T10:38:14Z</time>
      </trkpt>
      <trkpt lat="41.874757" lon="0.769019">
        <ele>603.608</ele>
        <time>1998-01-15T10:38:21Z</time>
      </trkpt>
      <trkpt lat="41.874744" lon="0.769002">
        <ele>603.884</ele>
        <time>1998-01-15T10:38:22Z</time>
      </trkpt>
      <trkpt lat="41.874680" lon="0.768915">
        <ele>604.684</ele>
        <time>1998-01-15T10:38:26Z</time>
      </trkpt>
      <trkpt lat="41.874632" lon="0.768847">
        <ele>604.665</ele>
        <time>1998-01-15T10:38:29Z</time>
      </trkpt>
      <trkpt lat="41.874517" lon="0.768680">
        <ele>605.627</ele>
        <time>1998-01-15T10:38:36Z</time>
      </trkpt>
      <trkpt lat="41.874482" lon="0.768634">
        <ele>605.485</ele>
        <time>1998-01-15T10:38:38Z</time>
      </trkpt>
      <trkpt lat="41.874345" lon="0.768478">
        <ele>606.462</ele>
        <time>1998-01-15T10:38:46Z</time>
      </trkpt>
      <trkpt lat="41.874211" lon="0.768321">
        <ele>606.699</ele>
        <time>1998-01-15T10:38:54Z</time>
      </trkpt>
      <trkpt lat="41.874195" lon="0.768301">
        <ele>606.670</ele>
        <time>1998-01-15T10:38:55Z</time>
      </trkpt>
      <trkpt lat="41.874049" lon="0.768155">
        <ele>607.634</ele>
        <time>1998-01-15T10:39:03Z</time>
      </trkpt>
      <trkpt lat="41.874032" lon="0.768131">
        <ele>607.855</ele>
        <time>1998-01-15T10:39:04Z</time>
      </trkpt>
      <trkpt lat="41.873940" lon="0.767998">
        <ele>608.210</ele>
        <time>1998-01-15T10:39:09Z</time>
      </trkpt>
      <trkpt lat="41.873849" lon="0.767834">
        <ele>608.008</ele>
        <time>1998-01-15T10:39:14Z</time>
      </trkpt>
      <trkpt lat="41.873783" lon="0.767745">
        <ele>608.895</ele>
        <time>1998-01-15T10:39:17Z</time>
      </trkpt>
      <trkpt lat="41.873750" lon="0.767671">
        <ele>609.095</ele>
        <time>1998-01-15T10:39:19Z</time>
      </trkpt>
      <trkpt lat="41.873666" lon="0.767528">
        <ele>609.816</ele>
        <time>1998-01-15T10:39:24Z</time>
      </trkpt>
      <trkpt lat="41.873611" lon="0.767454">
        <ele>611.048</ele>
        <time>1998-01-15T10:39:27Z</time>
      </trkpt>
      <trkpt lat="41.873533" lon="0.767374">
        <ele>612.296</ele>
        <time>1998-01-15T10:39:31Z</time>
      </trkpt>
      <trkpt lat="41.873378" lon="0.767341">
        <ele>613.243</ele>
        <time>1998-01-15T10:39:37Z</time>
      </trkpt>
      <trkpt lat="41.873352" lon="0.767340">
        <ele>613.230</ele>
        <time>1998-01-15T10:39:38Z</time>
      </trkpt>
      <trkpt lat="41.873256" lon="0.767343">
        <ele>614.211</ele>
        <time>1998-01-15T10:39:42Z</time>
      </trkpt>
      <trkpt lat="41.873212" lon="0.767331">
        <ele>614.663</ele>
        <time>1998-01-15T10:39:44Z</time>
      </trkpt>
      <trkpt lat="41.873192" lon="0.767312">
        <ele>614.644</ele>
        <time>1998-01-15T10:39:45Z</time>
      </trkpt>
      <trkpt lat="41.873129" lon="0.767253">
        <ele>614.618</ele>
        <time>1998-01-15T10:39:48Z</time>
      </trkpt>
      <trkpt lat="41.873010" lon="0.767158">
        <ele>615.408</ele>
        <time>1998-01-15T10:39:53Z</time>
      </trkpt>
      <trkpt lat="41.872876" lon="0.767055">
        <ele>614.628</ele>
        <time>1998-01-15T10:39:57Z</time>
      </trkpt>
      <trkpt lat="41.872840" lon="0.767013">
        <ele>614.688</ele>
        <time>1998-01-15T10:39:58Z</time>
      </trkpt>
      <trkpt lat="41.872721" lon="0.766827">
        <ele>614.859</ele>
        <time>1998-01-15T10:40:02Z</time>
      </trkpt>
      <trkpt lat="41.872703" lon="0.766773">
        <ele>615.011</ele>
        <time>1998-01-15T10:40:03Z</time>
      </trkpt>
      <trkpt lat="41.872672" lon="0.766575">
        <ele>615.489</ele>
        <time>1998-01-15T10:40:07Z</time>
      </trkpt>
      <trkpt lat="41.872668" lon="0.766530">
        <ele>615.486</ele>
        <time>1998-01-15T10:40:08Z</time>
      </trkpt>
      <trkpt lat="41.872607" lon="0.766372">
        <ele>616.673</ele>
        <time>1998-01-15T10:40:12Z</time>
      </trkpt>
      <trkpt lat="41.872545" lon="0.766256">
        <ele>617.634</ele>
        <time>1998-01-15T10:40:15Z</time>
      </trkpt>
      <trkpt lat="41.872502" lon="0.766179">
        <ele>617.816</ele>
        <time>1998-01-15T10:40:17Z</time>
      </trkpt>
      <trkpt lat="41.872442" lon="0.766112">
        <ele>617.876</ele>
        <time>1998-01-15T10:40:19Z</time>
      </trkpt>
      <trkpt lat="41.872329" lon="0.766019">
        <ele>618.213</ele>
        <time>1998-01-15T10:40:22Z</time>
      </trkpt>
      <trkpt lat="41.872295" lon="0.765986">
        <ele>618.208</ele>
        <time>1998-01-15T10:40:23Z</time>
      </trkpt>
      <trkpt lat="41.872232" lon="0.765859">
        <ele>618.853</ele>
        <time>1998-01-15T10:40:26Z</time>
      </trkpt>
      <trkpt lat="41.872084" lon="0.765678">
        <ele>618.823</ele>
        <time>1998-01-15T10:40:32Z</time>
      </trkpt>
      <trkpt lat="41.872061" lon="0.765643">
        <ele>619.084</ele>
        <time>1998-01-15T10:40:33Z</time>
      </trkpt>
      <trkpt lat="41.871945" lon="0.765521">
        <ele>619.836</ele>
        <time>1998-01-15T10:40:37Z</time>
      </trkpt>
      <trkpt lat="41.871916" lon="0.765489">
        <ele>620.014</ele>
        <time>1998-01-15T10:40:38Z</time>
      </trkpt>
      <trkpt lat="41.871894" lon="0.765447">
        <ele>619.861</ele>
        <time>1998-01-15T10:40:39Z</time>
      </trkpt>
      <trkpt lat="41.871847" lon="0.765388">
        <ele>619.628</ele>
        <time>1998-01-15T10:40:41Z</time>
      </trkpt>
      <trkpt lat="41.871796" lon="0.765258">
        <ele>619.449</ele>
        <time>1998-01-15T10:40:44Z</time>
      </trkpt>
      <trkpt lat="41.871784" lon="0.765210">
        <ele>619.258</ele>
        <time>1998-01-15T10:40:45Z</time>
      </trkpt>
      <trkpt lat="41.871704" lon="0.764974">
        <ele>619.052</ele>
        <time>1998-01-15T10:40:50Z</time>
      </trkpt>
      <trkpt lat="41.871653" lon="0.764878">
        <ele>618.817</ele>
        <time>1998-01-15T10:40:52Z</time>
      </trkpt>
      <trkpt lat="41.871631" lon="0.764826">
        <ele>618.608</ele>
        <time>1998-01-15T10:40:53Z</time>
      </trkpt>
      <trkpt lat="41.871581" lon="0.764733">
        <ele>618.447</ele>
        <time>1998-01-15T10:40:55Z</time>
      </trkpt>
      <trkpt lat="41.871431" lon="0.764591">
        <ele>618.017</ele>
        <time>1998-01-15T10:40:59Z</time>
      </trkpt>
      <trkpt lat="41.871352" lon="0.764518">
        <ele>617.828</ele>
        <time>1998-01-15T10:41:01Z</time>
      </trkpt>
      <trkpt lat="41.871315" lon="0.764481">
        <ele>617.470</ele>
        <time>1998-01-15T10:41:02Z</time>
      </trkpt>
      <trkpt lat="41.871249" lon="0.764406">
        <ele>616.658</ele>
        <time>1998-01-15T10:41:04Z</time>
      </trkpt>
      <trkpt lat="41.871198" lon="0.764316">
        <ele>616.245</ele>
        <time>1998-01-15T10:41:06Z</time>
      </trkpt>
      <trkpt lat="41.871137" lon="0.764261">
        <ele>615.812</ele>
        <time>1998-01-15T10:41:08Z</time>
      </trkpt>
      <trkpt lat="41.871025" lon="0.764223">
        <ele>615.863</ele>
        <time>1998-01-15T10:41:11Z</time>
      </trkpt>
      <trkpt lat="41.870888" lon="0.764156">
        <ele>615.847</ele>
        <time>1998-01-15T10:41:15Z</time>
      </trkpt>
      <trkpt lat="41.870744" lon="0.764060">
        <ele>616.429</ele>
        <time>1998-01-15T10:41:19Z</time>
      </trkpt>
      <trkpt lat="41.870616" lon="0.764052">
        <ele>617.421</ele>
        <time>1998-01-15T10:41:22Z</time>
      </trkpt>
      <trkpt lat="41.870545" lon="0.764023">
        <ele>618.208</ele>
        <time>1998-01-15T10:41:24Z</time>
      </trkpt>
      <trkpt lat="41.870519" lon="0.763986">
        <ele>618.646</ele>
        <time>1998-01-15T10:41:25Z</time>
      </trkpt>
      <trkpt lat="41.870492" lon="0.763948">
        <ele>618.866</ele>
        <time>1998-01-15T10:41:26Z</time>
      </trkpt>
      <trkpt lat="41.870419" lon="0.763844">
        <ele>619.677</ele>
        <time>1998-01-15T10:41:29Z</time>
      </trkpt>
      <trkpt lat="41.870400" lon="0.763808">
        <ele>620.019</ele>
        <time>1998-01-15T10:41:30Z</time>
      </trkpt>
      <trkpt lat="41.870358" lon="0.763745">
        <ele>620.827</ele>
        <time>1998-01-15T10:41:32Z</time>
      </trkpt>
      <trkpt lat="41.870284" lon="0.763704">
        <ele>621.824</ele>
        <time>1998-01-15T10:41:35Z</time>
      </trkpt>
      <trkpt lat="41.870263" lon="0.763687">
        <ele>621.851</ele>
        <time>1998-01-15T10:41:36Z</time>
      </trkpt>
      <trkpt lat="41.870185" lon="0.763601">
        <ele>622.642</ele>
        <time>1998-01-15T10:41:40Z</time>
      </trkpt>
      <trkpt lat="41.870168" lon="0.763582">
        <ele>623.049</ele>
        <time>1998-01-15T10:41:41Z</time>
      </trkpt>
      <trkpt lat="41.870120" lon="0.763531">
        <ele>624.202</ele>
        <time>1998-01-15T10:41:44Z</time>
      </trkpt>
      <trkpt lat="41.870087" lon="0.763513">
        <ele>624.622</ele>
        <time>1998-01-15T10:41:46Z</time>
      </trkpt>
      <trkpt lat="41.870037" lon="0.763444">
        <ele>625.408</ele>
        <time>1998-01-15T10:41:50Z</time>
      </trkpt>
      <trkpt lat="41.870026" lon="0.763423">
        <ele>625.676</ele>
        <time>1998-01-15T10:41:51Z</time>
      </trkpt>
      <trkpt lat="41.869966" lon="0.763349">
        <ele>626.416</ele>
        <time>1998-01-15T10:41:56Z</time>
      </trkpt>
      <trkpt lat="41.869952" lon="0.763337">
        <ele>626.647</ele>
        <time>1998-01-15T10:41:57Z</time>
      </trkpt>
      <trkpt lat="41.869877" lon="0.763251">
        <ele>627.469</ele>
        <time>1998-01-15T10:42:03Z</time>
      </trkpt>
      <trkpt lat="41.869845" lon="0.763208">
        <ele>627.437</ele>
        <time>1998-01-15T10:42:06Z</time>
      </trkpt>
      <trkpt lat="41.869804" lon="0.763143">
        <ele>627.614</ele>
        <time>1998-01-15T10:42:10Z</time>
      </trkpt>
      <trkpt lat="41.869718" lon="0.763080">
        <ele>628.491</ele>
        <time>1998-01-15T10:42:16Z</time>
      </trkpt>
      <trkpt lat="41.869694" lon="0.763053">
        <ele>628.872</ele>
        <time>1998-01-15T10:42:18Z</time>
      </trkpt>
      <trkpt lat="41.869631" lon="0.762972">
        <ele>629.664</ele>
        <time>1998-01-15T10:42:23Z</time>
      </trkpt>
      <trkpt lat="41.869590" lon="0.762928">
        <ele>630.606</ele>
        <time>1998-01-15T10:42:26Z</time>
      </trkpt>
      <trkpt lat="41.869574" lon="0.762918">
        <ele>630.816</ele>
        <time>1998-01-15T10:42:27Z</time>
      </trkpt>
      <trkpt lat="41.869496" lon="0.762870">
        <ele>631.808</ele>
        <time>1998-01-15T10:42:32Z</time>
      </trkpt>
      <trkpt lat="41.869482" lon="0.762856">
        <ele>631.818</ele>
        <time>1998-01-15T10:42:33Z</time>
      </trkpt>
      <trkpt lat="41.869473" lon="0.762841">
        <ele>632.048</ele>
        <time>1998-01-15T10:42:34Z</time>
      </trkpt>
      <trkpt lat="41.869456" lon="0.762784">
        <ele>632.859</ele>
        <time>1998-01-15T10:42:37Z</time>
      </trkpt>
      <trkpt lat="41.869446" lon="0.762772">
        <ele>633.081</ele>
        <time>1998-01-15T10:42:38Z</time>
      </trkpt>
      <trkpt lat="41.869407" lon="0.762746">
        <ele>634.099</ele>
        <time>1998-01-15T10:42:41Z</time>
      </trkpt>
      <trkpt lat="41.869397" lon="0.762729">
        <ele>634.056</ele>
        <time>1998-01-15T10:42:42Z</time>
      </trkpt>
      <trkpt lat="41.869375" lon="0.762707">
        <ele>634.493</ele>
        <time>1998-01-15T10:42:44Z</time>
      </trkpt>
      <trkpt lat="41.869337" lon="0.762675">
        <ele>635.064</ele>
        <time>1998-01-15T10:42:47Z</time>
      </trkpt>
      <trkpt lat="41.869334" lon="0.762657">
        <ele>635.224</ele>
        <time>1998-01-15T10:42:48Z</time>
      </trkpt>
      <trkpt lat="41.869276" lon="0.762541">
        <ele>635.804</ele>
        <time>1998-01-15T10:42:54Z</time>
      </trkpt>
      <trkpt lat="41.869253" lon="0.762490">
        <ele>635.814</ele>
        <time>1998-01-15T10:42:57Z</time>
      </trkpt>
      <trkpt lat="41.869242" lon="0.762476">
        <ele>636.008</ele>
        <time>1998-01-15T10:42:58Z</time>
      </trkpt>
      <trkpt lat="41.869227" lon="0.762462">
        <ele>636.254</ele>
        <time>1998-01-15T10:42:59Z</time>
      </trkpt>
      <trkpt lat="41.869195" lon="0.762436">
        <ele>636.654</ele>
        <time>1998-01-15T10:43:01Z</time>
      </trkpt>
      <trkpt lat="41.869166" lon="0.762406">
        <ele>637.425</ele>
        <time>1998-01-15T10:43:03Z</time>
      </trkpt>
      <trkpt lat="41.869096" lon="0.762339">
        <ele>638.017</ele>
        <time>1998-01-15T10:43:08Z</time>
      </trkpt>
      <trkpt lat="41.869065" lon="0.762307">
        <ele>638.455</ele>
        <time>1998-01-15T10:43:10Z</time>
      </trkpt>
      <trkpt lat="41.868990" lon="0.762226">
        <ele>639.422</ele>
        <time>1998-01-15T10:43:15Z</time>
      </trkpt>
      <trkpt lat="41.868922" lon="0.762092">
        <ele>639.839</ele>
        <time>1998-01-15T10:43:22Z</time>
      </trkpt>
      <trkpt lat="41.868885" lon="0.761999">
        <ele>640.460</ele>
        <time>1998-01-15T10:43:26Z</time>
      </trkpt>
      <trkpt lat="41.868851" lon="0.761957">
        <ele>640.243</ele>
        <time>1998-01-15T10:43:28Z</time>
      </trkpt>
      <trkpt lat="41.868669" lon="0.761753">
        <ele>641.264</ele>
        <time>1998-01-15T10:43:37Z</time>
      </trkpt>
      <trkpt lat="41.868650" lon="0.761675">
        <ele>641.010</ele>
        <time>1998-01-15T10:43:39Z</time>
      </trkpt>
      <trkpt lat="41.868658" lon="0.761637">
        <ele>640.808</ele>
        <time>1998-01-15T10:43:40Z</time>
      </trkpt>
      <trkpt lat="41.868622" lon="0.761511">
        <ele>640.416</ele>
        <time>1998-01-15T10:43:44Z</time>
      </trkpt>
      <trkpt lat="41.868544" lon="0.761413">
        <ele>640.436</ele>
        <time>1998-01-15T10:43:47Z</time>
      </trkpt>
      <trkpt lat="41.868482" lon="0.761341">
        <ele>640.287</ele>
        <time>1998-01-15T10:43:49Z</time>
      </trkpt>
      <trkpt lat="41.868377" lon="0.761247">
        <ele>639.299</ele>
        <time>1998-01-15T10:43:52Z</time>
      </trkpt>
      <trkpt lat="41.868314" lon="0.761160">
        <ele>639.037</ele>
        <time>1998-01-15T10:43:54Z</time>
      </trkpt>
      <trkpt lat="41.868206" lon="0.761031">
        <ele>638.414</ele>
        <time>1998-01-15T10:43:57Z</time>
      </trkpt>
      <trkpt lat="41.868120" lon="0.761006">
        <ele>638.211</ele>
        <time>1998-01-15T10:43:59Z</time>
      </trkpt>
      <trkpt lat="41.868078" lon="0.761002">
        <ele>638.222</ele>
        <time>1998-01-15T10:44:00Z</time>
      </trkpt>
      <trkpt lat="41.867920" lon="0.760926">
        <ele>637.624</ele>
        <time>1998-01-15T10:44:04Z</time>
      </trkpt>
      <trkpt lat="41.867793" lon="0.760849">
        <ele>637.604</ele>
        <time>1998-01-15T10:44:08Z</time>
      </trkpt>
      <trkpt lat="41.867715" lon="0.760716">
        <ele>638.214</ele>
        <time>1998-01-15T10:44:12Z</time>
      </trkpt>
      <trkpt lat="41.867697" lon="0.760674">
        <ele>638.208</ele>
        <time>1998-01-15T10:44:13Z</time>
      </trkpt>
      <trkpt lat="41.867619" lon="0.760584">
        <ele>638.474</ele>
        <time>1998-01-15T10:44:16Z</time>
      </trkpt>
      <trkpt lat="41.867474" lon="0.760617">
        <ele>639.054</ele>
        <time>1998-01-15T10:44:20Z</time>
      </trkpt>
      <trkpt lat="41.867441" lon="0.760640">
        <ele>639.225</ele>
        <time>1998-01-15T10:44:21Z</time>
      </trkpt>
      <trkpt lat="41.867297" lon="0.760714">
        <ele>639.887</ele>
        <time>1998-01-15T10:44:25Z</time>
      </trkpt>
      <trkpt lat="41.867212" lon="0.760717">
        <ele>639.855</ele>
        <time>1998-01-15T10:44:27Z</time>
      </trkpt>
      <trkpt lat="41.867128" lon="0.760702">
        <ele>639.452</ele>
        <time>1998-01-15T10:44:29Z</time>
      </trkpt>
      <trkpt lat="41.867085" lon="0.760697">
        <ele>639.229</ele>
        <time>1998-01-15T10:44:30Z</time>
      </trkpt>
      <trkpt lat="41.866866" lon="0.760636">
        <ele>638.220</ele>
        <time>1998-01-15T10:44:34Z</time>
      </trkpt>
      <trkpt lat="41.866804" lon="0.760616">
        <ele>638.057</ele>
        <time>1998-01-15T10:44:35Z</time>
      </trkpt>
      <trkpt lat="41.866616" lon="0.760592">
        <ele>636.600</ele>
        <time>1998-01-15T10:44:38Z</time>
      </trkpt>
      <trkpt lat="41.866563" lon="0.760618">
        <ele>636.220</ele>
        <time>1998-01-15T10:44:39Z</time>
      </trkpt>
      <trkpt lat="41.866521" lon="0.760652">
        <ele>635.608</ele>
        <time>1998-01-15T10:44:40Z</time>
      </trkpt>
      <trkpt lat="41.866452" lon="0.760686">
        <ele>634.697</ele>
        <time>1998-01-15T10:44:42Z</time>
      </trkpt>
      <trkpt lat="41.866420" lon="0.760665">
        <ele>633.447</ele>
        <time>1998-01-15T10:44:45Z</time>
      </trkpt>
      <trkpt lat="41.866417" lon="0.760597">
        <ele>632.218</ele>
        <time>1998-01-15T10:45:45Z</time>
      </trkpt>
      <trkpt lat="41.866412" lon="0.760577">
        <ele>632.450</ele>
        <time>1998-01-15T10:45:46Z</time>
      </trkpt>
      <trkpt lat="41.866389" lon="0.760474">
        <ele>631.668</ele>
        <time>1998-01-15T10:45:49Z</time>
      </trkpt>
      <trkpt lat="41.866382" lon="0.760431">
        <ele>631.275</ele>
        <time>1998-01-15T10:45:50Z</time>
      </trkpt>
      <trkpt lat="41.866338" lon="0.760361">
        <ele>629.862</ele>
        <time>1998-01-15T10:45:52Z</time>
      </trkpt>
      <trkpt lat="41.866323" lon="0.760322">
        <ele>629.033</ele>
        <time>1998-01-15T10:45:53Z</time>
      </trkpt>
      <trkpt lat="41.866318" lon="0.760285">
        <ele>628.415</ele>
        <time>1998-01-15T10:45:54Z</time>
      </trkpt>
      <trkpt lat="41.866325" lon="0.760240">
        <ele>626.865</ele>
        <time>1998-01-15T10:45:56Z</time>
      </trkpt>
      <trkpt lat="41.866335" lon="0.760213">
        <ele>626.411</ele>
        <time>1998-01-15T10:45:57Z</time>
      </trkpt>
      <trkpt lat="41.866343" lon="0.760172">
        <ele>625.808</ele>
        <time>1998-01-15T10:45:58Z</time>
      </trkpt>
      <trkpt lat="41.866333" lon="0.760072">
        <ele>624.863</ele>
        <time>1998-01-15T10:46:00Z</time>
      </trkpt>
      <trkpt lat="41.866317" lon="0.760013">
        <ele>624.493</ele>
        <time>1998-01-15T10:46:01Z</time>
      </trkpt>
      <trkpt lat="41.866282" lon="0.759902">
        <ele>623.094</ele>
        <time>1998-01-15T10:46:03Z</time>
      </trkpt>
      <trkpt lat="41.866235" lon="0.759816">
        <ele>621.636</ele>
        <time>1998-01-15T10:46:05Z</time>
      </trkpt>
      <trkpt lat="41.866181" lon="0.759740">
        <ele>620.294</ele>
        <time>1998-01-15T10:46:07Z</time>
      </trkpt>
      <trkpt lat="41.866125" lon="0.759630">
        <ele>618.821</ele>
        <time>1998-01-15T10:46:09Z</time>
      </trkpt>
      <trkpt lat="41.866092" lon="0.759518">
        <ele>617.698</ele>
        <time>1998-01-15T10:46:11Z</time>
      </trkpt>
      <trkpt lat="41.866056" lon="0.759380">
        <ele>616.029</ele>
        <time>1998-01-15T10:46:14Z</time>
      </trkpt>
      <trkpt lat="41.866026" lon="0.759310">
        <ele>614.469</ele>
        <time>1998-01-15T10:46:16Z</time>
      </trkpt>
      <trkpt lat="41.865992" lon="0.759236">
        <ele>613.004</ele>
        <time>1998-01-15T10:46:18Z</time>
      </trkpt>
      <trkpt lat="41.865936" lon="0.759174">
        <ele>611.624</ele>
        <time>1998-01-15T10:46:20Z</time>
      </trkpt>
      <trkpt lat="41.865883" lon="0.759115">
        <ele>610.408</ele>
        <time>1998-01-15T10:46:22Z</time>
      </trkpt>
      <trkpt lat="41.865837" lon="0.759043">
        <ele>609.268</ele>
        <time>1998-01-15T10:46:24Z</time>
      </trkpt>
      <trkpt lat="41.865790" lon="0.758970">
        <ele>607.628</ele>
        <time>1998-01-15T10:46:26Z</time>
      </trkpt>
      <trkpt lat="41.865761" lon="0.758871">
        <ele>605.619</ele>
        <time>1998-01-15T10:46:28Z</time>
      </trkpt>
      <trkpt lat="41.865728" lon="0.758778">
        <ele>603.871</ele>
        <time>1998-01-15T10:46:30Z</time>
      </trkpt>
      <trkpt lat="41.865709" lon="0.758742">
        <ele>603.219</ele>
        <time>1998-01-15T10:46:31Z</time>
      </trkpt>
      <trkpt lat="41.865686" lon="0.758724">
        <ele>602.466</ele>
        <time>1998-01-15T10:46:32Z</time>
      </trkpt>
      <trkpt lat="41.865638" lon="0.758697">
        <ele>601.253</ele>
        <time>1998-01-15T10:46:34Z</time>
      </trkpt>
      <trkpt lat="41.865612" lon="0.758683">
        <ele>600.684</ele>
        <time>1998-01-15T10:46:35Z</time>
      </trkpt>
      <trkpt lat="41.865580" lon="0.758667">
        <ele>600.033</ele>
        <time>1998-01-15T10:46:36Z</time>
      </trkpt>
      <trkpt lat="41.865520" lon="0.758648">
        <ele>598.623</ele>
        <time>1998-01-15T10:46:38Z</time>
      </trkpt>
      <trkpt lat="41.865500" lon="0.758632">
        <ele>597.815</ele>
        <time>1998-01-15T10:46:39Z</time>
      </trkpt>
      <trkpt lat="41.865491" lon="0.758600">
        <ele>597.208</ele>
        <time>1998-01-15T10:46:40Z</time>
      </trkpt>
      <trkpt lat="41.865486" lon="0.758507">
        <ele>596.065</ele>
        <time>1998-01-15T10:46:42Z</time>
      </trkpt>
      <trkpt lat="41.865479" lon="0.758399">
        <ele>594.835</ele>
        <time>1998-01-15T10:46:44Z</time>
      </trkpt>
      <trkpt lat="41.865468" lon="0.758345">
        <ele>594.286</ele>
        <time>1998-01-15T10:46:45Z</time>
      </trkpt>
      <trkpt lat="41.865447" lon="0.758295">
        <ele>593.448</ele>
        <time>1998-01-15T10:46:46Z</time>
      </trkpt>
      <trkpt lat="41.865402" lon="0.758219">
        <ele>591.696</ele>
        <time>1998-01-15T10:46:48Z</time>
      </trkpt>
      <trkpt lat="41.865350" lon="0.758135">
        <ele>589.873</ele>
        <time>1998-01-15T10:46:50Z</time>
      </trkpt>
      <trkpt lat="41.865291" lon="0.758039">
        <ele>588.070</ele>
        <time>1998-01-15T10:46:52Z</time>
      </trkpt>
      <trkpt lat="41.865228" lon="0.757947">
        <ele>586.251</ele>
        <time>1998-01-15T10:46:54Z</time>
      </trkpt>
      <trkpt lat="41.865173" lon="0.757860">
        <ele>584.619</ele>
        <time>1998-01-15T10:46:56Z</time>
      </trkpt>
      <trkpt lat="41.865152" lon="0.757812">
        <ele>583.809</ele>
        <time>1998-01-15T10:46:57Z</time>
      </trkpt>
      <trkpt lat="41.865130" lon="0.757766">
        <ele>583.219</ele>
        <time>1998-01-15T10:46:58Z</time>
      </trkpt>
      <trkpt lat="41.865078" lon="0.757704">
        <ele>581.408</ele>
        <time>1998-01-15T10:47:00Z</time>
      </trkpt>
      <trkpt lat="41.865042" lon="0.757704">
        <ele>580.893</ele>
        <time>1998-01-15T10:47:01Z</time>
      </trkpt>
      <trkpt lat="41.865006" lon="0.757713">
        <ele>580.223</ele>
        <time>1998-01-15T10:47:02Z</time>
      </trkpt>
      <trkpt lat="41.864935" lon="0.757695">
        <ele>579.274</ele>
        <time>1998-01-15T10:47:05Z</time>
      </trkpt>
      <trkpt lat="41.864928" lon="0.757570">
        <ele>578.426</ele>
        <time>1998-01-15T10:47:08Z</time>
      </trkpt>
      <trkpt lat="41.864937" lon="0.757521">
        <ele>578.024</ele>
        <time>1998-01-15T10:47:09Z</time>
      </trkpt>
      <trkpt lat="41.864948" lon="0.757469">
        <ele>577.651</ele>
        <time>1998-01-15T10:47:10Z</time>
      </trkpt>
      <trkpt lat="41.864959" lon="0.757421">
        <ele>577.038</ele>
        <time>1998-01-15T10:47:11Z</time>
      </trkpt>
      <trkpt lat="41.864955" lon="0.757322">
        <ele>576.079</ele>
        <time>1998-01-15T10:47:13Z</time>
      </trkpt>
      <trkpt lat="41.864926" lon="0.757227">
        <ele>574.669</ele>
        <time>1998-01-15T10:47:15Z</time>
      </trkpt>
      <trkpt lat="41.864911" lon="0.757118">
        <ele>572.804</ele>
        <time>1998-01-15T10:47:17Z</time>
      </trkpt>
      <trkpt lat="41.864905" lon="0.757064">
        <ele>571.624</ele>
        <time>1998-01-15T10:47:18Z</time>
      </trkpt>
      <trkpt lat="41.864895" lon="0.757017">
        <ele>570.608</ele>
        <time>1998-01-15T10:47:19Z</time>
      </trkpt>
      <trkpt lat="41.864880" lon="0.756932">
        <ele>568.668</ele>
        <time>1998-01-15T10:47:21Z</time>
      </trkpt>
      <trkpt lat="41.864888" lon="0.756902">
        <ele>567.878</ele>
        <time>1998-01-15T10:47:22Z</time>
      </trkpt>
      <trkpt lat="41.864909" lon="0.756874">
        <ele>567.059</ele>
        <time>1998-01-15T10:47:23Z</time>
      </trkpt>
      <trkpt lat="41.864970" lon="0.756817">
        <ele>565.851</ele>
        <time>1998-01-15T10:47:25Z</time>
      </trkpt>
      <trkpt lat="41.864996" lon="0.756780">
        <ele>565.039</ele>
        <time>1998-01-15T10:47:26Z</time>
      </trkpt>
      <trkpt lat="41.865024" lon="0.756748">
        <ele>564.496</ele>
        <time>1998-01-15T10:47:27Z</time>
      </trkpt>
      <trkpt lat="41.865085" lon="0.756710">
        <ele>562.843</ele>
        <time>1998-01-15T10:47:29Z</time>
      </trkpt>
      <trkpt lat="41.865142" lon="0.756681">
        <ele>561.824</ele>
        <time>1998-01-15T10:47:31Z</time>
      </trkpt>
      <trkpt lat="41.865210" lon="0.756677">
        <ele>560.674</ele>
        <time>1998-01-15T10:47:33Z</time>
      </trkpt>
      <trkpt lat="41.865292" lon="0.756682">
        <ele>559.456</ele>
        <time>1998-01-15T10:47:35Z</time>
      </trkpt>
      <trkpt lat="41.865375" lon="0.756667">
        <ele>558.021</ele>
        <time>1998-01-15T10:47:37Z</time>
      </trkpt>
      <trkpt lat="41.865463" lon="0.756667">
        <ele>556.408</ele>
        <time>1998-01-15T10:47:39Z</time>
      </trkpt>
      <trkpt lat="41.865562" lon="0.756627">
        <ele>554.869</ele>
        <time>1998-01-15T10:47:41Z</time>
      </trkpt>
      <trkpt lat="41.865675" lon="0.756594">
        <ele>553.639</ele>
        <time>1998-01-15T10:47:43Z</time>
      </trkpt>
      <trkpt lat="41.865762" lon="0.756457">
        <ele>552.270</ele>
        <time>1998-01-15T10:47:46Z</time>
      </trkpt>
      <trkpt lat="41.865783" lon="0.756342">
        <ele>550.822</ele>
        <time>1998-01-15T10:47:48Z</time>
      </trkpt>
      <trkpt lat="41.865789" lon="0.756278">
        <ele>550.070</ele>
        <time>1998-01-15T10:47:49Z</time>
      </trkpt>
      <trkpt lat="41.865796" lon="0.756217">
        <ele>549.267</ele>
        <time>1998-01-15T10:47:50Z</time>
      </trkpt>
      <trkpt lat="41.865819" lon="0.756101">
        <ele>547.494</ele>
        <time>1998-01-15T10:47:52Z</time>
      </trkpt>
      <trkpt lat="41.865856" lon="0.755985">
        <ele>545.645</ele>
        <time>1998-01-15T10:47:54Z</time>
      </trkpt>
      <trkpt lat="41.865863" lon="0.755928">
        <ele>544.491</ele>
        <time>1998-01-15T10:47:55Z</time>
      </trkpt>
      <trkpt lat="41.865861" lon="0.755827">
        <ele>542.681</ele>
        <time>1998-01-15T10:47:57Z</time>
      </trkpt>
      <trkpt lat="41.865869" lon="0.755709">
        <ele>540.819</ele>
        <time>1998-01-15T10:47:59Z</time>
      </trkpt>
      <trkpt lat="41.865858" lon="0.755589">
        <ele>539.008</ele>
        <time>1998-01-15T10:48:01Z</time>
      </trkpt>
      <trkpt lat="41.865837" lon="0.755469">
        <ele>537.041</ele>
        <time>1998-01-15T10:48:03Z</time>
      </trkpt>
      <trkpt lat="41.865819" lon="0.755416">
        <ele>536.231</ele>
        <time>1998-01-15T10:48:04Z</time>
      </trkpt>
      <trkpt lat="41.865799" lon="0.755360">
        <ele>535.252</ele>
        <time>1998-01-15T10:48:05Z</time>
      </trkpt>
      <trkpt lat="41.865785" lon="0.755306">
        <ele>534.284</ele>
        <time>1998-01-15T10:48:06Z</time>
      </trkpt>
      <trkpt lat="41.865782" lon="0.755226">
        <ele>532.452</ele>
        <time>1998-01-15T10:48:08Z</time>
      </trkpt>
      <trkpt lat="41.865818" lon="0.755137">
        <ele>531.099</ele>
        <time>1998-01-15T10:48:10Z</time>
      </trkpt>
      <trkpt lat="41.865828" lon="0.755082">
        <ele>530.496</ele>
        <time>1998-01-15T10:48:11Z</time>
      </trkpt>
      <trkpt lat="41.865837" lon="0.755026">
        <ele>529.627</ele>
        <time>1998-01-15T10:48:12Z</time>
      </trkpt>
      <trkpt lat="41.865850" lon="0.754972">
        <ele>529.055</ele>
        <time>1998-01-15T10:48:13Z</time>
      </trkpt>
      <trkpt lat="41.865867" lon="0.754922">
        <ele>528.207</ele>
        <time>1998-01-15T10:48:14Z</time>
      </trkpt>
      <trkpt lat="41.865906" lon="0.754823">
        <ele>526.617</ele>
        <time>1998-01-15T10:48:16Z</time>
      </trkpt>
      <trkpt lat="41.865923" lon="0.754772">
        <ele>525.808</ele>
        <time>1998-01-15T10:48:17Z</time>
      </trkpt>
      <trkpt lat="41.865936" lon="0.754716">
        <ele>524.857</ele>
        <time>1998-01-15T10:48:18Z</time>
      </trkpt>
      <trkpt lat="41.865965" lon="0.754658">
        <ele>523.277</ele>
        <time>1998-01-15T10:48:20Z</time>
      </trkpt>
      <trkpt lat="41.866043" lon="0.754688">
        <ele>521.888</ele>
        <time>1998-01-15T10:48:23Z</time>
      </trkpt>
      <trkpt lat="41.866089" lon="0.754741">
        <ele>520.860</ele>
        <time>1998-01-15T10:48:25Z</time>
      </trkpt>
      <trkpt lat="41.866128" lon="0.754798">
        <ele>519.618</ele>
        <time>1998-01-15T10:48:27Z</time>
      </trkpt>
      <trkpt lat="41.866150" lon="0.754834">
        <ele>518.835</ele>
        <time>1998-01-15T10:48:28Z</time>
      </trkpt>
      <trkpt lat="41.866164" lon="0.754866">
        <ele>518.252</ele>
        <time>1998-01-15T10:48:29Z</time>
      </trkpt>
      <trkpt lat="41.866180" lon="0.754928">
        <ele>517.283</ele>
        <time>1998-01-15T10:48:31Z</time>
      </trkpt>
      <trkpt lat="41.866185" lon="0.754955">
        <ele>517.077</ele>
        <time>1998-01-15T10:48:32Z</time>
      </trkpt>
      <trkpt lat="41.866208" lon="0.755046">
        <ele>516.061</ele>
        <time>1998-01-15T10:48:36Z</time>
      </trkpt>
      <trkpt lat="41.866224" lon="0.755065">
        <ele>516.027</ele>
        <time>1998-01-15T10:48:37Z</time>
      </trkpt>
      <trkpt lat="41.866246" lon="0.755077">
        <ele>516.008</ele>
        <time>1998-01-15T10:48:38Z</time>
      </trkpt>
      <trkpt lat="41.866534" lon="0.755000">
        <ele>524.659</ele>
        <time>1998-01-15T10:49:36Z</time>
      </trkpt>
      <trkpt lat="41.866551" lon="0.755006">
        <ele>524.849</ele>
        <time>1998-01-15T10:49:37Z</time>
      </trkpt>
      <trkpt lat="41.866672" lon="0.755091">
        <ele>525.890</ele>
        <time>1998-01-15T10:49:44Z</time>
      </trkpt>
      <trkpt lat="41.866810" lon="0.755207">
        <ele>525.872</ele>
        <time>1998-01-15T10:49:51Z</time>
      </trkpt>
      <trkpt lat="41.866852" lon="0.755283">
        <ele>526.830</ele>
        <time>1998-01-15T10:49:55Z</time>
      </trkpt>
      <trkpt lat="41.866880" lon="0.755298">
        <ele>527.487</ele>
        <time>1998-01-15T10:49:57Z</time>
      </trkpt>
      <trkpt lat="41.867017" lon="0.755311">
        <ele>527.254</ele>
        <time>1998-01-15T10:50:02Z</time>
      </trkpt>
      <trkpt lat="41.867155" lon="0.755402">
        <ele>527.085</ele>
        <time>1998-01-15T10:50:07Z</time>
      </trkpt>
      <trkpt lat="41.867269" lon="0.755511">
        <ele>526.814</ele>
        <time>1998-01-15T10:50:12Z</time>
      </trkpt>
      <trkpt lat="41.867349" lon="0.755586">
        <ele>526.254</ele>
        <time>1998-01-15T10:50:15Z</time>
      </trkpt>
      <trkpt lat="41.867386" lon="0.755602">
        <ele>525.809</ele>
        <time>1998-01-15T10:50:16Z</time>
      </trkpt>
      <trkpt lat="41.867424" lon="0.755617">
        <ele>525.208</ele>
        <time>1998-01-15T10:50:17Z</time>
      </trkpt>
      <trkpt lat="41.867465" lon="0.755625">
        <ele>524.883</ele>
        <time>1998-01-15T10:50:18Z</time>
      </trkpt>
      <trkpt lat="41.867510" lon="0.755625">
        <ele>524.083</ele>
        <time>1998-01-15T10:50:19Z</time>
      </trkpt>
      <trkpt lat="41.867596" lon="0.755623">
        <ele>523.094</ele>
        <time>1998-01-15T10:50:21Z</time>
      </trkpt>
      <trkpt lat="41.867707" lon="0.755705">
        <ele>522.436</ele>
        <time>1998-01-15T10:50:25Z</time>
      </trkpt>
      <trkpt lat="41.867782" lon="0.755706">
        <ele>522.624</ele>
        <time>1998-01-15T10:50:28Z</time>
      </trkpt>
      <trkpt lat="41.867808" lon="0.755706">
        <ele>522.811</ele>
        <time>1998-01-15T10:50:29Z</time>
      </trkpt>
      <trkpt lat="41.867874" lon="0.755675">
        <ele>522.628</ele>
        <time>1998-01-15T10:50:32Z</time>
      </trkpt>
      <trkpt lat="41.867905" lon="0.755621">
        <ele>522.079</ele>
        <time>1998-01-15T10:50:34Z</time>
      </trkpt>
      <trkpt lat="41.867957" lon="0.755536">
        <ele>520.871</ele>
        <time>1998-01-15T10:50:37Z</time>
      </trkpt>
      <trkpt lat="41.867994" lon="0.755475">
        <ele>519.841</ele>
        <time>1998-01-15T10:50:39Z</time>
      </trkpt>
      <trkpt lat="41.868037" lon="0.755410">
        <ele>518.415</ele>
        <time>1998-01-15T10:50:41Z</time>
      </trkpt>
      <trkpt lat="41.868079" lon="0.755352">
        <ele>516.808</ele>
        <time>1998-01-15T10:50:43Z</time>
      </trkpt>
      <trkpt lat="41.868124" lon="0.755284">
        <ele>515.439</ele>
        <time>1998-01-15T10:50:45Z</time>
      </trkpt>
      <trkpt lat="41.868195" lon="0.755264">
        <ele>514.289</ele>
        <time>1998-01-15T10:50:47Z</time>
      </trkpt>
      <trkpt lat="41.868262" lon="0.755345">
        <ele>512.850</ele>
        <time>1998-01-15T10:50:50Z</time>
      </trkpt>
      <trkpt lat="41.868288" lon="0.755409">
        <ele>511.822</ele>
        <time>1998-01-15T10:50:52Z</time>
      </trkpt>
      <trkpt lat="41.868331" lon="0.755418">
        <ele>510.420</ele>
        <time>1998-01-15T10:50:54Z</time>
      </trkpt>
      <trkpt lat="41.868370" lon="0.755462">
        <ele>509.287</ele>
        <time>1998-01-15T10:50:56Z</time>
      </trkpt>
      <trkpt lat="41.868388" lon="0.755511">
        <ele>508.434</ele>
        <time>1998-01-15T10:50:57Z</time>
      </trkpt>
      <trkpt lat="41.868413" lon="0.755562">
        <ele>507.835</ele>
        <time>1998-01-15T10:50:58Z</time>
      </trkpt>
      <trkpt lat="41.868456" lon="0.755645">
        <ele>507.277</ele>
        <time>1998-01-15T10:51:00Z</time>
      </trkpt>
      <trkpt lat="41.868472" lon="0.755677">
        <ele>507.261</ele>
        <time>1998-01-15T10:51:01Z</time>
      </trkpt>
      <trkpt lat="41.868532" lon="0.755798">
        <ele>507.827</ele>
        <time>1998-01-15T10:51:06Z</time>
      </trkpt>
      <trkpt lat="41.868596" lon="0.755796">
        <ele>509.008</ele>
        <time>1998-01-15T10:51:09Z</time>
      </trkpt>
      <trkpt lat="41.868615" lon="0.755803">
        <ele>509.459</ele>
        <time>1998-01-15T10:51:10Z</time>
      </trkpt>
      <trkpt lat="41.868650" lon="0.755823">
        <ele>510.269</ele>
        <time>1998-01-15T10:51:12Z</time>
      </trkpt>
      <trkpt lat="41.868741" lon="0.755834">
        <ele>511.210</ele>
        <time>1998-01-15T10:51:16Z</time>
      </trkpt>
      <trkpt lat="41.868805" lon="0.755842">
        <ele>511.452</ele>
        <time>1998-01-15T10:51:18Z</time>
      </trkpt>
      <trkpt lat="41.868850" lon="0.755874">
        <ele>512.290</ele>
        <time>1998-01-15T10:51:20Z</time>
      </trkpt>
      <trkpt lat="41.868867" lon="0.755876">
        <ele>512.677</ele>
        <time>1998-01-15T10:51:21Z</time>
      </trkpt>
      <trkpt lat="41.868933" lon="0.755886">
        <ele>512.414</ele>
        <time>1998-01-15T10:51:24Z</time>
      </trkpt>
      <trkpt lat="41.868987" lon="0.755873">
        <ele>511.435</ele>
        <time>1998-01-15T10:51:27Z</time>
      </trkpt>
      <trkpt lat="41.869032" lon="0.755899">
        <ele>510.863</ele>
        <time>1998-01-15T10:51:29Z</time>
      </trkpt>
      <trkpt lat="41.869116" lon="0.755980">
        <ele>510.444</ele>
        <time>1998-01-15T10:51:32Z</time>
      </trkpt>
      <trkpt lat="41.869157" lon="0.755990">
        <ele>510.218</ele>
        <time>1998-01-15T10:51:33Z</time>
      </trkpt>
      <trkpt lat="41.869277" lon="0.755993">
        <ele>509.408</ele>
        <time>1998-01-15T10:51:36Z</time>
      </trkpt>
      <trkpt lat="41.869322" lon="0.755994">
        <ele>509.288</ele>
        <time>1998-01-15T10:51:37Z</time>
      </trkpt>
      <trkpt lat="41.869387" lon="0.755981">
        <ele>509.268</ele>
        <time>1998-01-15T10:51:39Z</time>
      </trkpt>
      <trkpt lat="41.869542" lon="0.755937">
        <ele>510.639</ele>
        <time>1998-01-15T10:51:46Z</time>
      </trkpt>
      <trkpt lat="41.869623" lon="0.755929">
        <ele>511.841</ele>
        <time>1998-01-15T10:51:51Z</time>
      </trkpt>
      <trkpt lat="41.869655" lon="0.755939">
        <ele>512.489</ele>
        <time>1998-01-15T10:51:53Z</time>
      </trkpt>
      <trkpt lat="41.869691" lon="0.755959">
        <ele>512.826</ele>
        <time>1998-01-15T10:51:55Z</time>
      </trkpt>
      <trkpt lat="41.869706" lon="0.755968">
        <ele>513.053</ele>
        <time>1998-01-15T10:51:56Z</time>
      </trkpt>
      <trkpt lat="41.869744" lon="0.755996">
        <ele>513.424</ele>
        <time>1998-01-15T10:51:58Z</time>
      </trkpt>
      <trkpt lat="41.869763" lon="0.756014">
        <ele>513.231</ele>
        <time>1998-01-15T10:51:59Z</time>
      </trkpt>
      <trkpt lat="41.869884" lon="0.756116">
        <ele>512.461</ele>
        <time>1998-01-15T10:52:04Z</time>
      </trkpt>
      <trkpt lat="41.869924" lon="0.756200">
        <ele>511.807</ele>
        <time>1998-01-15T10:52:06Z</time>
      </trkpt>
      <trkpt lat="41.869950" lon="0.756282">
        <ele>511.408</ele>
        <time>1998-01-15T10:52:08Z</time>
      </trkpt>
      <trkpt lat="41.869986" lon="0.756385">
        <ele>510.685</ele>
        <time>1998-01-15T10:52:11Z</time>
      </trkpt>
      <trkpt lat="41.870021" lon="0.756481">
        <ele>509.855</ele>
        <time>1998-01-15T10:52:14Z</time>
      </trkpt>
      <trkpt lat="41.870033" lon="0.756511">
        <ele>509.676</ele>
        <time>1998-01-15T10:52:15Z</time>
      </trkpt>
      <trkpt lat="41.870084" lon="0.756715">
        <ele>510.258</ele>
        <time>1998-01-15T10:52:22Z</time>
      </trkpt>
      <trkpt lat="41.870109" lon="0.756821">
        <ele>510.876</ele>
        <time>1998-01-15T10:52:26Z</time>
      </trkpt>
      <trkpt lat="41.870123" lon="0.756865">
        <ele>511.453</ele>
        <time>1998-01-15T10:52:28Z</time>
      </trkpt>
      <trkpt lat="41.870128" lon="0.756889">
        <ele>511.830</ele>
        <time>1998-01-15T10:52:29Z</time>
      </trkpt>
      <trkpt lat="41.870139" lon="0.756979">
        <ele>512.841</ele>
        <time>1998-01-15T10:52:33Z</time>
      </trkpt>
      <trkpt lat="41.870140" lon="0.757002">
        <ele>513.026</ele>
        <time>1998-01-15T10:52:34Z</time>
      </trkpt>
      <trkpt lat="41.870134" lon="0.757022">
        <ele>513.447</ele>
        <time>1998-01-15T10:52:35Z</time>
      </trkpt>
      <trkpt lat="41.870118" lon="0.757063">
        <ele>513.811</ele>
        <time>1998-01-15T10:52:37Z</time>
      </trkpt>
      <trkpt lat="41.870105" lon="0.757093">
        <ele>514.808</ele>
        <time>1998-01-15T10:52:39Z</time>
      </trkpt>
      <trkpt lat="41.870102" lon="0.757117">
        <ele>515.084</ele>
        <time>1998-01-15T10:52:40Z</time>
      </trkpt>
      <trkpt lat="41.870053" lon="0.757215">
        <ele>516.254</ele>
        <time>1998-01-15T10:52:44Z</time>
      </trkpt>
      <trkpt lat="41.870011" lon="0.757312">
        <ele>517.255</ele>
        <time>1998-01-15T10:52:48Z</time>
      </trkpt>
      <trkpt lat="41.869996" lon="0.757337">
        <ele>517.457</ele>
        <time>1998-01-15T10:52:49Z</time>
      </trkpt>
      <trkpt lat="41.869975" lon="0.757399">
        <ele>518.495</ele>
        <time>1998-01-15T10:52:51Z</time>
      </trkpt>
      <trkpt lat="41.869946" lon="0.757463">
        <ele>519.652</ele>
        <time>1998-01-15T10:52:54Z</time>
      </trkpt>
      <trkpt lat="41.869940" lon="0.757498">
        <ele>520.059</ele>
        <time>1998-01-15T10:52:55Z</time>
      </trkpt>
      <trkpt lat="41.869970" lon="0.757631">
        <ele>520.650</ele>
        <time>1998-01-15T10:52:59Z</time>
      </trkpt>
      <trkpt lat="41.869985" lon="0.757655">
        <ele>520.866</ele>
        <time>1998-01-15T10:53:00Z</time>
      </trkpt>
      <trkpt lat="41.870000" lon="0.757682">
        <ele>521.029</ele>
        <time>1998-01-15T10:53:01Z</time>
      </trkpt>
      <trkpt lat="41.870023" lon="0.757696">
        <ele>521.221</ele>
        <time>1998-01-15T10:53:02Z</time>
      </trkpt>
      <trkpt lat="41.870081" lon="0.757712">
        <ele>521.608</ele>
        <time>1998-01-15T10:53:04Z</time>
      </trkpt>
      <trkpt lat="41.870252" lon="0.757778">
        <ele>521.258</ele>
        <time>1998-01-15T10:53:09Z</time>
      </trkpt>
      <trkpt lat="41.870292" lon="0.757792">
        <ele>521.038</ele>
        <time>1998-01-15T10:53:10Z</time>
      </trkpt>
      <trkpt lat="41.870413" lon="0.757926">
        <ele>520.889</ele>
        <time>1998-01-15T10:53:14Z</time>
      </trkpt>
      <trkpt lat="41.870435" lon="0.757969">
        <ele>520.851</ele>
        <time>1998-01-15T10:53:15Z</time>
      </trkpt>
      <trkpt lat="41.870548" lon="0.758140">
        <ele>520.829</ele>
        <time>1998-01-15T10:53:20Z</time>
      </trkpt>
      <trkpt lat="41.870649" lon="0.758299">
        <ele>521.236</ele>
        <time>1998-01-15T10:53:25Z</time>
      </trkpt>
      <trkpt lat="41.870736" lon="0.758421">
        <ele>521.453</ele>
        <time>1998-01-15T10:53:29Z</time>
      </trkpt>
      <trkpt lat="41.870872" lon="0.758426">
        <ele>520.614</ele>
        <time>1998-01-15T10:53:33Z</time>
      </trkpt>
      <trkpt lat="41.870905" lon="0.758408">
        <ele>520.457</ele>
        <time>1998-01-15T10:53:34Z</time>
      </trkpt>
      <trkpt lat="41.871027" lon="0.758326">
        <ele>520.200</ele>
        <time>1998-01-15T10:53:38Z</time>
      </trkpt>
      <trkpt lat="41.871133" lon="0.758396">
        <ele>520.220</ele>
        <time>1998-01-15T10:53:41Z</time>
      </trkpt>
      <trkpt lat="41.871260" lon="0.758515">
        <ele>519.808</ele>
        <time>1998-01-15T10:53:45Z</time>
      </trkpt>
      <trkpt lat="41.871285" lon="0.758552">
        <ele>519.867</ele>
        <time>1998-01-15T10:53:46Z</time>
      </trkpt>
      <trkpt lat="41.871349" lon="0.758745">
        <ele>521.297</ele>
        <time>1998-01-15T10:53:51Z</time>
      </trkpt>
      <trkpt lat="41.871402" lon="0.758954">
        <ele>522.098</ele>
        <time>1998-01-15T10:53:57Z</time>
      </trkpt>
      <trkpt lat="41.871427" lon="0.759072">
        <ele>523.010</ele>
        <time>1998-01-15T10:54:00Z</time>
      </trkpt>
      <trkpt lat="41.871458" lon="0.759237">
        <ele>523.888</ele>
        <time>1998-01-15T10:54:04Z</time>
      </trkpt>
      <trkpt lat="41.871489" lon="0.759378">
        <ele>524.255</ele>
        <time>1998-01-15T10:54:08Z</time>
      </trkpt>
      <trkpt lat="41.871505" lon="0.759478">
        <ele>524.652</ele>
        <time>1998-01-15T10:54:11Z</time>
      </trkpt>
      <trkpt lat="41.871579" lon="0.759747">
        <ele>524.613</ele>
        <time>1998-01-15T10:54:18Z</time>
      </trkpt>
      <trkpt lat="41.871682" lon="0.759912">
        <ele>524.455</ele>
        <time>1998-01-15T10:54:24Z</time>
      </trkpt>
      <trkpt lat="41.871711" lon="0.759920">
        <ele>524.207</ele>
        <time>1998-01-15T10:54:25Z</time>
      </trkpt>
      <trkpt lat="41.871759" lon="0.759901">
        <ele>524.217</ele>
        <time>1998-01-15T10:54:27Z</time>
      </trkpt>
      <trkpt lat="41.871829" lon="0.759763">
        <ele>523.808</ele>
        <time>1998-01-15T10:54:31Z</time>
      </trkpt>
      <trkpt lat="41.871860" lon="0.759663">
        <ele>524.047</ele>
        <time>1998-01-15T10:54:33Z</time>
      </trkpt>
      <trkpt lat="41.871883" lon="0.759616">
        <ele>524.457</ele>
        <time>1998-01-15T10:54:34Z</time>
      </trkpt>
      <trkpt lat="41.871931" lon="0.759531">
        <ele>524.458</ele>
        <time>1998-01-15T10:54:36Z</time>
      </trkpt>
      <trkpt lat="41.871991" lon="0.759452">
        <ele>524.080</ele>
        <time>1998-01-15T10:54:38Z</time>
      </trkpt>
      <trkpt lat="41.872127" lon="0.759273">
        <ele>524.088</ele>
        <time>1998-01-15T10:54:43Z</time>
      </trkpt>
      <trkpt lat="41.872183" lon="0.759163">
        <ele>524.285</ele>
        <time>1998-01-15T10:54:46Z</time>
      </trkpt>
      <trkpt lat="41.872185" lon="0.759108">
        <ele>524.272</ele>
        <time>1998-01-15T10:54:47Z</time>
      </trkpt>
      <trkpt lat="41.872166" lon="0.758918">
        <ele>523.663</ele>
        <time>1998-01-15T10:54:50Z</time>
      </trkpt>
      <trkpt lat="41.872155" lon="0.758780">
        <ele>523.277</ele>
        <time>1998-01-15T10:54:52Z</time>
      </trkpt>
      <trkpt lat="41.872156" lon="0.758713">
        <ele>523.261</ele>
        <time>1998-01-15T10:54:53Z</time>
      </trkpt>
      <trkpt lat="41.872187" lon="0.758529">
        <ele>523.427</ele>
        <time>1998-01-15T10:54:56Z</time>
      </trkpt>
      <trkpt lat="41.872210" lon="0.758482">
        <ele>523.608</ele>
        <time>1998-01-15T10:54:57Z</time>
      </trkpt>
      <trkpt lat="41.872370" lon="0.758297">
        <ele>523.699</ele>
        <time>1998-01-15T10:55:02Z</time>
      </trkpt>
      <trkpt lat="41.872521" lon="0.758289">
        <ele>524.499</ele>
        <time>1998-01-15T10:55:06Z</time>
      </trkpt>
      <trkpt lat="41.872656" lon="0.758344">
        <ele>525.640</ele>
        <time>1998-01-15T10:55:10Z</time>
      </trkpt>
      <trkpt lat="41.872686" lon="0.758370">
        <ele>525.822</ele>
        <time>1998-01-15T10:55:11Z</time>
      </trkpt>
      <trkpt lat="41.872827" lon="0.758540">
        <ele>526.080</ele>
        <time>1998-01-15T10:55:16Z</time>
      </trkpt>
      <trkpt lat="41.873001" lon="0.758731">
        <ele>524.857</ele>
        <time>1998-01-15T10:55:22Z</time>
      </trkpt>
      <trkpt lat="41.873021" lon="0.758779">
        <ele>524.654</ele>
        <time>1998-01-15T10:55:23Z</time>
      </trkpt>
      <trkpt lat="41.873031" lon="0.758913">
        <ele>523.885</ele>
        <time>1998-01-15T10:55:26Z</time>
      </trkpt>
      <trkpt lat="41.873020" lon="0.759186">
        <ele>524.076</ele>
        <time>1998-01-15T10:55:32Z</time>
      </trkpt>
      <trkpt lat="41.872955" lon="0.759427">
        <ele>523.890</ele>
        <time>1998-01-15T10:55:37Z</time>
      </trkpt>
      <trkpt lat="41.872906" lon="0.759653">
        <ele>524.419</ele>
        <time>1998-01-15T10:55:43Z</time>
      </trkpt>
      <trkpt lat="41.872885" lon="0.759898">
        <ele>525.608</ele>
        <time>1998-01-15T10:55:49Z</time>
      </trkpt>
      <trkpt lat="41.872898" lon="0.760011">
        <ele>526.669</ele>
        <time>1998-01-15T10:55:52Z</time>
      </trkpt>
      <trkpt lat="41.872912" lon="0.760086">
        <ele>527.859</ele>
        <time>1998-01-15T10:55:54Z</time>
      </trkpt>
      <trkpt lat="41.872972" lon="0.760203">
        <ele>528.820</ele>
        <time>1998-01-15T10:55:58Z</time>
      </trkpt>
      <trkpt lat="41.872990" lon="0.760234">
        <ele>529.242</ele>
        <time>1998-01-15T10:55:59Z</time>
      </trkpt>
      <trkpt lat="41.873039" lon="0.760326">
        <ele>530.260</ele>
        <time>1998-01-15T10:56:02Z</time>
      </trkpt>
      <trkpt lat="41.873101" lon="0.760394">
        <ele>530.687</ele>
        <time>1998-01-15T10:56:05Z</time>
      </trkpt>
      <trkpt lat="41.873232" lon="0.760561">
        <ele>530.874</ele>
        <time>1998-01-15T10:56:11Z</time>
      </trkpt>
      <trkpt lat="41.873412" lon="0.760778">
        <ele>531.075</ele>
        <time>1998-01-15T10:56:18Z</time>
      </trkpt>
      <trkpt lat="41.873534" lon="0.760910">
        <ele>530.673</ele>
        <time>1998-01-15T10:56:23Z</time>
      </trkpt>
      <trkpt lat="41.873599" lon="0.760987">
        <ele>531.285</ele>
        <time>1998-01-15T10:56:26Z</time>
      </trkpt>
      <trkpt lat="41.873668" lon="0.761060">
        <ele>531.813</ele>
        <time>1998-01-15T10:56:29Z</time>
      </trkpt>
      <trkpt lat="41.873687" lon="0.761083">
        <ele>532.208</ele>
        <time>1998-01-15T10:56:30Z</time>
      </trkpt>
      <trkpt lat="41.873749" lon="0.761161">
        <ele>532.849</ele>
        <time>1998-01-15T11:00:02Z</time>
      </trkpt>
      <trkpt lat="41.873811" lon="0.761256">
        <ele>533.269</ele>
        <time>1998-01-15T11:00:06Z</time>
      </trkpt>
      <trkpt lat="41.873826" lon="0.761275">
        <ele>533.480</ele>
        <time>1998-01-15T11:00:07Z</time>
      </trkpt>
      <trkpt lat="41.873941" lon="0.761414">
        <ele>533.082</ele>
        <time>1998-01-15T11:00:13Z</time>
      </trkpt>
      <trkpt lat="41.874017" lon="0.761536">
        <ele>532.650</ele>
        <time>1998-01-15T11:00:18Z</time>
      </trkpt>
      <trkpt lat="41.874048" lon="0.761668">
        <ele>533.247</ele>
        <time>1998-01-15T11:00:23Z</time>
      </trkpt>
      <trkpt lat="41.874057" lon="0.761740">
        <ele>534.424</ele>
        <time>1998-01-15T11:00:26Z</time>
      </trkpt>
      <trkpt lat="41.874076" lon="0.761807">
        <ele>535.875</ele>
        <time>1998-01-15T11:00:29Z</time>
      </trkpt>
      <trkpt lat="41.874087" lon="0.761849">
        <ele>536.857</ele>
        <time>1998-01-15T11:00:31Z</time>
      </trkpt>
      <trkpt lat="41.874104" lon="0.761912">
        <ele>538.000</ele>
        <time>1998-01-15T11:00:34Z</time>
      </trkpt>
      <trkpt lat="41.874111" lon="0.761956">
        <ele>538.820</ele>
        <time>1998-01-15T11:00:36Z</time>
      </trkpt>
      <trkpt lat="41.874117" lon="0.761975">
        <ele>539.208</ele>
        <time>1998-01-15T11:00:37Z</time>
      </trkpt>
      <trkpt lat="41.874194" lon="0.762233">
        <ele>544.287</ele>
        <time>1998-01-15T11:01:08Z</time>
      </trkpt>
      <trkpt lat="41.874250" lon="0.762356">
        <ele>545.237</ele>
        <time>1998-01-15T11:01:14Z</time>
      </trkpt>
      <trkpt lat="41.874258" lon="0.762373">
        <ele>545.488</ele>
        <time>1998-01-15T11:01:15Z</time>
      </trkpt>
      <trkpt lat="41.874330" lon="0.762458">
        <ele>546.610</ele>
        <time>1998-01-15T11:01:20Z</time>
      </trkpt>
      <trkpt lat="41.874342" lon="0.762475">
        <ele>547.098</ele>
        <time>1998-01-15T11:01:21Z</time>
      </trkpt>
      <trkpt lat="41.874429" lon="0.762589">
        <ele>547.255</ele>
        <time>1998-01-15T11:01:28Z</time>
      </trkpt>
      <trkpt lat="41.874468" lon="0.762663">
        <ele>547.432</ele>
        <time>1998-01-15T11:01:32Z</time>
      </trkpt>
      <trkpt lat="41.874471" lon="0.762684">
        <ele>547.693</ele>
        <time>1998-01-15T11:01:33Z</time>
      </trkpt>
      <trkpt lat="41.874517" lon="0.762813">
        <ele>548.651</ele>
        <time>1998-01-15T11:01:39Z</time>
      </trkpt>
      <trkpt lat="41.874528" lon="0.762872">
        <ele>548.601</ele>
        <time>1998-01-15T11:01:42Z</time>
      </trkpt>
      <trkpt lat="41.874546" lon="0.762980">
        <ele>549.411</ele>
        <time>1998-01-15T11:01:47Z</time>
      </trkpt>
      <trkpt lat="41.874533" lon="0.763093">
        <ele>549.608</ele>
        <time>1998-01-15T11:01:54Z</time>
      </trkpt>
      <trkpt lat="41.874528" lon="0.763112">
        <ele>549.837</ele>
        <time>1998-01-15T11:01:55Z</time>
      </trkpt>
      <trkpt lat="41.874508" lon="0.763150">
        <ele>550.087</ele>
        <time>1998-01-15T11:01:57Z</time>
      </trkpt>
      <trkpt lat="41.874475" lon="0.763163">
        <ele>550.288</ele>
        <time>1998-01-15T11:01:59Z</time>
      </trkpt>
      <trkpt lat="41.874387" lon="0.763141">
        <ele>550.860</ele>
        <time>1998-01-15T11:02:05Z</time>
      </trkpt>
      <trkpt lat="41.874342" lon="0.763143">
        <ele>551.848</ele>
        <time>1998-01-15T11:02:08Z</time>
      </trkpt>
      <trkpt lat="41.874337" lon="0.763159">
        <ele>552.065</ele>
        <time>1998-01-15T11:02:09Z</time>
      </trkpt>
      <trkpt lat="41.874333" lon="0.763181">
        <ele>551.882</ele>
        <time>1998-01-15T11:02:10Z</time>
      </trkpt>
      <trkpt lat="41.874336" lon="0.763253">
        <ele>552.213</ele>
        <time>1998-01-15T11:02:13Z</time>
      </trkpt>
      <trkpt lat="41.874336" lon="0.763307">
        <ele>552.668</ele>
        <time>1998-01-15T11:02:15Z</time>
      </trkpt>
      <trkpt lat="41.874331" lon="0.763363">
        <ele>553.042</ele>
        <time>1998-01-15T11:02:17Z</time>
      </trkpt>
      <trkpt lat="41.874320" lon="0.763462">
        <ele>553.426</ele>
        <time>1998-01-15T11:02:21Z</time>
      </trkpt>
      <trkpt lat="41.874326" lon="0.763522">
        <ele>554.008</ele>
        <time>1998-01-15T11:02:24Z</time>
      </trkpt>
      <trkpt lat="41.874341" lon="0.763610">
        <ele>555.238</ele>
        <time>1998-01-15T11:02:28Z</time>
      </trkpt>
      <trkpt lat="41.874368" lon="0.763753">
        <ele>556.078</ele>
        <time>1998-01-15T11:02:34Z</time>
      </trkpt>
      <trkpt lat="41.874394" lon="0.763823">
        <ele>556.449</ele>
        <time>1998-01-15T11:02:37Z</time>
      </trkpt>
      <trkpt lat="41.874417" lon="0.763893">
        <ele>556.671</ele>
        <time>1998-01-15T11:02:40Z</time>
      </trkpt>
      <trkpt lat="41.874447" lon="0.764100">
        <ele>557.689</ele>
        <time>1998-01-15T11:02:48Z</time>
      </trkpt>
      <trkpt lat="41.874448" lon="0.764123">
        <ele>558.236</ele>
        <time>1998-01-15T11:02:49Z</time>
      </trkpt>
      <trkpt lat="41.874455" lon="0.764164">
        <ele>558.823</ele>
        <time>1998-01-15T11:02:51Z</time>
      </trkpt>
      <trkpt lat="41.874484" lon="0.764299">
        <ele>559.494</ele>
        <time>1998-01-15T11:02:56Z</time>
      </trkpt>
      <trkpt lat="41.874584" lon="0.764530">
        <ele>559.289</ele>
        <time>1998-01-15T11:03:02Z</time>
      </trkpt>
      <trkpt lat="41.874756" lon="0.764806">
        <ele>557.806</ele>
        <time>1998-01-15T11:03:09Z</time>
      </trkpt>
      <trkpt lat="41.874830" lon="0.764927">
        <ele>557.826</ele>
        <time>1998-01-15T11:03:12Z</time>
      </trkpt>
      <trkpt lat="41.874864" lon="0.764968">
        <ele>557.808</ele>
        <time>1998-01-15T11:03:13Z</time>
      </trkpt>
      <trkpt lat="41.874956" lon="0.765036">
        <ele>557.270</ele>
        <time>1998-01-15T11:03:15Z</time>
      </trkpt>
      <trkpt lat="41.875064" lon="0.765122">
        <ele>556.410</ele>
        <time>1998-01-15T11:03:17Z</time>
      </trkpt>
      <trkpt lat="41.875109" lon="0.765170">
        <ele>556.031</ele>
        <time>1998-01-15T11:03:18Z</time>
      </trkpt>
      <trkpt lat="41.875126" lon="0.765218">
        <ele>555.883</ele>
        <time>1998-01-15T11:03:19Z</time>
      </trkpt>
      <trkpt lat="41.875158" lon="0.765376">
        <ele>556.071</ele>
        <time>1998-01-15T11:03:23Z</time>
      </trkpt>
      <trkpt lat="41.875170" lon="0.765408">
        <ele>556.438</ele>
        <time>1998-01-15T11:03:24Z</time>
      </trkpt>
      <trkpt lat="41.875262" lon="0.765536">
        <ele>557.075</ele>
        <time>1998-01-15T11:03:28Z</time>
      </trkpt>
      <trkpt lat="41.875301" lon="0.765610">
        <ele>557.416</ele>
        <time>1998-01-15T11:03:30Z</time>
      </trkpt>
      <trkpt lat="41.875353" lon="0.765716">
        <ele>558.024</ele>
        <time>1998-01-15T11:03:33Z</time>
      </trkpt>
      <trkpt lat="41.875406" lon="0.765805">
        <ele>558.804</ele>
        <time>1998-01-15T11:03:36Z</time>
      </trkpt>
      <trkpt lat="41.875470" lon="0.765924">
        <ele>559.414</ele>
        <time>1998-01-15T11:03:40Z</time>
      </trkpt>
      <trkpt lat="41.875499" lon="0.765984">
        <ele>559.808</ele>
        <time>1998-01-15T11:03:42Z</time>
      </trkpt>
      <trkpt lat="41.875559" lon="0.766095">
        <ele>561.074</ele>
        <time>1998-01-15T11:03:46Z</time>
      </trkpt>
      <trkpt lat="41.875569" lon="0.766117">
        <ele>561.484</ele>
        <time>1998-01-15T11:03:47Z</time>
      </trkpt>
      <trkpt lat="41.875580" lon="0.766194">
        <ele>562.095</ele>
        <time>1998-01-15T11:03:50Z</time>
      </trkpt>
      <trkpt lat="41.875590" lon="0.766268">
        <ele>562.677</ele>
        <time>1998-01-15T11:03:53Z</time>
      </trkpt>
      <trkpt lat="41.875598" lon="0.766322">
        <ele>563.295</ele>
        <time>1998-01-15T11:03:55Z</time>
      </trkpt>
      <trkpt lat="41.875630" lon="0.766472">
        <ele>564.442</ele>
        <time>1998-01-15T11:04:00Z</time>
      </trkpt>
      <trkpt lat="41.875692" lon="0.766620">
        <ele>564.869</ele>
        <time>1998-01-15T11:04:05Z</time>
      </trkpt>
      <trkpt lat="41.875798" lon="0.766815">
        <ele>564.650</ele>
        <time>1998-01-15T11:04:09Z</time>
      </trkpt>
      <trkpt lat="41.875961" lon="0.767133">
        <ele>563.863</ele>
        <time>1998-01-15T11:04:16Z</time>
      </trkpt>
      <trkpt lat="41.876046" lon="0.767298">
        <ele>563.244</ele>
        <time>1998-01-15T11:04:19Z</time>
      </trkpt>
      <trkpt lat="41.876129" lon="0.767454">
        <ele>562.818</ele>
        <time>1998-01-15T11:04:22Z</time>
      </trkpt>
      <trkpt lat="41.876242" lon="0.767756">
        <ele>562.608</ele>
        <time>1998-01-15T11:04:28Z</time>
      </trkpt>
      <trkpt lat="41.876378" lon="0.768131">
        <ele>562.468</ele>
        <time>1998-01-15T11:04:35Z</time>
      </trkpt>
      <trkpt lat="41.876399" lon="0.768201">
        <ele>562.238</ele>
        <time>1998-01-15T11:04:36Z</time>
      </trkpt>
      <trkpt lat="41.876431" lon="0.768331">
        <ele>562.629</ele>
        <time>1998-01-15T11:04:39Z</time>
      </trkpt>
      <trkpt lat="41.876445" lon="0.768430">
        <ele>563.231</ele>
        <time>1998-01-15T11:04:42Z</time>
      </trkpt>
      <trkpt lat="41.876460" lon="0.768546">
        <ele>563.299</ele>
        <time>1998-01-15T11:04:45Z</time>
      </trkpt>
      <trkpt lat="41.876425" lon="0.768771">
        <ele>563.236</ele>
        <time>1998-01-15T11:04:50Z</time>
      </trkpt>
      <trkpt lat="41.876410" lon="0.768948">
        <ele>563.863</ele>
        <time>1998-01-15T11:04:54Z</time>
      </trkpt>
      <trkpt lat="41.876377" lon="0.769091">
        <ele>563.884</ele>
        <time>1998-01-15T11:04:59Z</time>
      </trkpt>
      <trkpt lat="41.876359" lon="0.769189">
        <ele>564.445</ele>
        <time>1998-01-15T11:05:03Z</time>
      </trkpt>
      <trkpt lat="41.876336" lon="0.769236">
        <ele>564.847</ele>
        <time>1998-01-15T11:05:05Z</time>
      </trkpt>
      <trkpt lat="41.876283" lon="0.769334">
        <ele>565.611</ele>
        <time>1998-01-15T11:05:10Z</time>
      </trkpt>
      <trkpt lat="41.876271" lon="0.769350">
        <ele>565.808</ele>
        <time>1998-01-15T11:05:11Z</time>
      </trkpt>
      <trkpt lat="41.876242" lon="0.769391">
        <ele>566.686</ele>
        <time>1998-01-15T11:05:14Z</time>
      </trkpt>
      <trkpt lat="41.876212" lon="0.769426">
        <ele>567.616</ele>
        <time>1998-01-15T11:05:17Z</time>
      </trkpt>
      <trkpt lat="41.876203" lon="0.769440">
        <ele>567.867</ele>
        <time>1998-01-15T11:05:18Z</time>
      </trkpt>
      <trkpt lat="41.876178" lon="0.769497">
        <ele>568.479</ele>
        <time>1998-01-15T11:05:22Z</time>
      </trkpt>
      <trkpt lat="41.876160" lon="0.769531">
        <ele>568.657</ele>
        <time>1998-01-15T11:05:25Z</time>
      </trkpt>
      <trkpt lat="41.876155" lon="0.769545">
        <ele>569.054</ele>
        <time>1998-01-15T11:05:26Z</time>
      </trkpt>
      <trkpt lat="41.876121" lon="0.769608">
        <ele>569.211</ele>
        <time>1998-01-15T11:05:30Z</time>
      </trkpt>
      <trkpt lat="41.876114" lon="0.769621">
        <ele>569.212</ele>
        <time>1998-01-15T11:05:31Z</time>
      </trkpt>
      <trkpt lat="41.876083" lon="0.769711">
        <ele>570.098</ele>
        <time>1998-01-15T11:05:37Z</time>
      </trkpt>
      <trkpt lat="41.876078" lon="0.769729">
        <ele>570.415</ele>
        <time>1998-01-15T11:05:38Z</time>
      </trkpt>
      <trkpt lat="41.876063" lon="0.769768">
        <ele>571.226</ele>
        <time>1998-01-15T11:05:40Z</time>
      </trkpt>
      <trkpt lat="41.876038" lon="0.769832">
        <ele>572.208</ele>
        <time>1998-01-15T11:05:44Z</time>
      </trkpt>
      <trkpt lat="41.876009" lon="0.769885">
        <ele>573.631</ele>
        <time>1998-01-15T11:05:48Z</time>
      </trkpt>
      <trkpt lat="41.875998" lon="0.769918">
        <ele>574.621</ele>
        <time>1998-01-15T11:05:50Z</time>
      </trkpt>
      <trkpt lat="41.875981" lon="0.769942">
        <ele>575.292</ele>
        <time>1998-01-15T11:05:52Z</time>
      </trkpt>
      <trkpt lat="41.875970" lon="0.769991">
        <ele>575.834</ele>
        <time>1998-01-15T11:05:55Z</time>
      </trkpt>
      <trkpt lat="41.875958" lon="0.770016">
        <ele>576.642</ele>
        <time>1998-01-15T11:05:57Z</time>
      </trkpt>
      <trkpt lat="41.875945" lon="0.770044">
        <ele>577.219</ele>
        <time>1998-01-15T11:05:59Z</time>
      </trkpt>
      <trkpt lat="41.875916" lon="0.770128">
        <ele>578.436</ele>
        <time>1998-01-15T11:06:04Z</time>
      </trkpt>
      <trkpt lat="41.875901" lon="0.770160">
        <ele>578.897</ele>
        <time>1998-01-15T11:06:06Z</time>
      </trkpt>
      <trkpt lat="41.875873" lon="0.770210">
        <ele>579.844</ele>
        <time>1998-01-15T11:06:09Z</time>
      </trkpt>
      <trkpt lat="41.875817" lon="0.770284">
        <ele>580.605</ele>
        <time>1998-01-15T11:06:13Z</time>
      </trkpt>
      <trkpt lat="41.875681" lon="0.770416">
        <ele>580.215</ele>
        <time>1998-01-15T11:06:18Z</time>
      </trkpt>
      <trkpt lat="41.875552" lon="0.770607">
        <ele>579.208</ele>
        <time>1998-01-15T11:06:24Z</time>
      </trkpt>
      <trkpt lat="41.875485" lon="0.770804">
        <ele>578.876</ele>
        <time>1998-01-15T11:06:28Z</time>
      </trkpt>
      <trkpt lat="41.875477" lon="0.770860">
        <ele>578.446</ele>
        <time>1998-01-15T11:06:29Z</time>
      </trkpt>
      <trkpt lat="41.875448" lon="0.771153">
        <ele>578.287</ele>
        <time>1998-01-15T11:06:33Z</time>
      </trkpt>
      <trkpt lat="41.875354" lon="0.771343">
        <ele>577.889</ele>
        <time>1998-01-15T11:06:36Z</time>
      </trkpt>
      <trkpt lat="41.875324" lon="0.771409">
        <ele>577.637</ele>
        <time>1998-01-15T11:06:37Z</time>
      </trkpt>
      <trkpt lat="41.875157" lon="0.771717">
        <ele>577.614</ele>
        <time>1998-01-15T11:06:43Z</time>
      </trkpt>
      <trkpt lat="41.875039" lon="0.771949">
        <ele>578.611</ele>
        <time>1998-01-15T11:06:49Z</time>
      </trkpt>
      <trkpt lat="41.875039" lon="0.772055">
        <ele>578.892</ele>
        <time>1998-01-15T11:06:52Z</time>
      </trkpt>
      <trkpt lat="41.875057" lon="0.772069">
        <ele>579.038</ele>
        <time>1998-01-15T11:06:53Z</time>
      </trkpt>
      <trkpt lat="41.875143" lon="0.772104">
        <ele>579.670</ele>
        <time>1998-01-15T11:06:57Z</time>
      </trkpt>
      <trkpt lat="41.875166" lon="0.772116">
        <ele>579.617</ele>
        <time>1998-01-15T11:06:58Z</time>
      </trkpt>
      <trkpt lat="41.875240" lon="0.772145">
        <ele>579.808</ele>
        <time>1998-01-15T11:07:01Z</time>
      </trkpt>
      <trkpt lat="41.875347" lon="0.772182">
        <ele>580.895</ele>
        <time>1998-01-15T11:07:06Z</time>
      </trkpt>
      <trkpt lat="41.875390" lon="0.772203">
        <ele>581.025</ele>
        <time>1998-01-15T11:07:08Z</time>
      </trkpt>
      <trkpt lat="41.875513" lon="0.772253">
        <ele>581.076</ele>
        <time>1998-01-15T11:07:13Z</time>
      </trkpt>
      <trkpt lat="41.875712" lon="0.772354">
        <ele>581.478</ele>
        <time>1998-01-15T11:07:20Z</time>
      </trkpt>
      <trkpt lat="41.875846" lon="0.772435">
        <ele>581.696</ele>
        <time>1998-01-15T11:07:26Z</time>
      </trkpt>
      <trkpt lat="41.875886" lon="0.772475">
        <ele>582.043</ele>
        <time>1998-01-15T11:07:28Z</time>
      </trkpt>
      <trkpt lat="41.875977" lon="0.772538">
        <ele>582.010</ele>
        <time>1998-01-15T11:07:32Z</time>
      </trkpt>
      <trkpt lat="41.876066" lon="0.772629">
        <ele>582.461</ele>
        <time>1998-01-15T11:07:38Z</time>
      </trkpt>
      <trkpt lat="41.876119" lon="0.772684">
        <ele>582.418</ele>
        <time>1998-01-15T11:07:43Z</time>
      </trkpt>
      <trkpt lat="41.876129" lon="0.772706">
        <ele>582.498</ele>
        <time>1998-01-15T11:07:44Z</time>
      </trkpt>
      <trkpt lat="41.876178" lon="0.772796">
        <ele>583.017</ele>
        <time>1998-01-15T11:07:48Z</time>
      </trkpt>
      <trkpt lat="41.876203" lon="0.772837">
        <ele>583.808</ele>
        <time>1998-01-15T11:07:50Z</time>
      </trkpt>
      <trkpt lat="41.876215" lon="0.772852">
        <ele>584.043</ele>
        <time>1998-01-15T11:07:51Z</time>
      </trkpt>
      <trkpt lat="41.876230" lon="0.772887">
        <ele>584.653</ele>
        <time>1998-01-15T11:07:53Z</time>
      </trkpt>
      <trkpt lat="41.876252" lon="0.772945">
        <ele>584.864</ele>
        <time>1998-01-15T11:07:56Z</time>
      </trkpt>
      <trkpt lat="41.876255" lon="0.772961">
        <ele>585.046</ele>
        <time>1998-01-15T11:07:57Z</time>
      </trkpt>
      <trkpt lat="41.876252" lon="0.772980">
        <ele>585.244</ele>
        <time>1998-01-15T11:07:58Z</time>
      </trkpt>
      <trkpt lat="41.876260" lon="0.772996">
        <ele>585.491</ele>
        <time>1998-01-15T11:07:59Z</time>
      </trkpt>
      <trkpt lat="41.876274" lon="0.773037">
        <ele>586.098</ele>
        <time>1998-01-15T11:08:01Z</time>
      </trkpt>
      <trkpt lat="41.876276" lon="0.773055">
        <ele>586.479</ele>
        <time>1998-01-15T11:08:02Z</time>
      </trkpt>
      <trkpt lat="41.876318" lon="0.773162">
        <ele>586.899</ele>
        <time>1998-01-15T11:08:07Z</time>
      </trkpt>
      <trkpt lat="41.876368" lon="0.773264">
        <ele>587.607</ele>
        <time>1998-01-15T11:08:11Z</time>
      </trkpt>
      <trkpt lat="41.876407" lon="0.773382">
        <ele>588.427</ele>
        <time>1998-01-15T11:08:16Z</time>
      </trkpt>
      <trkpt lat="41.876414" lon="0.773421">
        <ele>588.608</ele>
        <time>1998-01-15T11:08:18Z</time>
      </trkpt>
      <trkpt lat="41.876431" lon="0.773501">
        <ele>589.811</ele>
        <time>1998-01-15T11:08:22Z</time>
      </trkpt>
      <trkpt lat="41.876461" lon="0.773645">
        <ele>590.451</ele>
        <time>1998-01-15T11:08:28Z</time>
      </trkpt>
      <trkpt lat="41.876474" lon="0.773708">
        <ele>591.082</ele>
        <time>1998-01-15T11:08:31Z</time>
      </trkpt>
      <trkpt lat="41.876482" lon="0.773785">
        <ele>592.224</ele>
        <time>1998-01-15T11:08:35Z</time>
      </trkpt>
      <trkpt lat="41.876485" lon="0.773823">
        <ele>592.692</ele>
        <time>1998-01-15T11:08:37Z</time>
      </trkpt>
      <trkpt lat="41.876493" lon="0.773880">
        <ele>593.469</ele>
        <time>1998-01-15T11:08:40Z</time>
      </trkpt>
      <trkpt lat="41.876486" lon="0.773922">
        <ele>594.436</ele>
        <time>1998-01-15T11:08:43Z</time>
      </trkpt>
      <trkpt lat="41.876486" lon="0.773959">
        <ele>594.897</ele>
        <time>1998-01-15T11:08:45Z</time>
      </trkpt>
      <trkpt lat="41.876494" lon="0.774016">
        <ele>595.419</ele>
        <time>1998-01-15T11:08:48Z</time>
      </trkpt>
      <trkpt lat="41.876507" lon="0.774089">
        <ele>596.209</ele>
        <time>1998-01-15T11:08:52Z</time>
      </trkpt>
      <trkpt lat="41.876494" lon="0.774149">
        <ele>596.619</ele>
        <time>1998-01-15T11:08:55Z</time>
      </trkpt>
      <trkpt lat="41.876472" lon="0.774218">
        <ele>597.408</ele>
        <time>1998-01-15T11:08:59Z</time>
      </trkpt>
      <trkpt lat="41.876457" lon="0.774286">
        <ele>597.613</ele>
        <time>1998-01-15T11:09:03Z</time>
      </trkpt>
      <trkpt lat="41.876459" lon="0.774329">
        <ele>597.673</ele>
        <time>1998-01-15T11:09:05Z</time>
      </trkpt>
      <trkpt lat="41.876467" lon="0.774371">
        <ele>597.824</ele>
        <time>1998-01-15T11:09:07Z</time>
      </trkpt>
      <trkpt lat="41.876463" lon="0.774451">
        <ele>598.826</ele>
        <time>1998-01-15T11:09:11Z</time>
      </trkpt>
      <trkpt lat="41.876462" lon="0.774469">
        <ele>599.054</ele>
        <time>1998-01-15T11:09:12Z</time>
      </trkpt>
      <trkpt lat="41.876465" lon="0.774534">
        <ele>600.041</ele>
        <time>1998-01-15T11:09:15Z</time>
      </trkpt>
      <trkpt lat="41.876466" lon="0.774581">
        <ele>601.068</ele>
        <time>1998-01-15T11:09:18Z</time>
      </trkpt>
      <trkpt lat="41.876465" lon="0.774602">
        <ele>601.459</ele>
        <time>1998-01-15T11:09:19Z</time>
      </trkpt>
      <trkpt lat="41.876464" lon="0.774666">
        <ele>602.471</ele>
        <time>1998-01-15T11:09:22Z</time>
      </trkpt>
      <trkpt lat="41.876447" lon="0.774813">
        <ele>603.041</ele>
        <time>1998-01-15T11:09:25Z</time>
      </trkpt>
      <trkpt lat="41.876465" lon="0.774863">
        <ele>603.015</ele>
        <time>1998-01-15T11:09:26Z</time>
      </trkpt>
      <trkpt lat="41.876499" lon="0.774969">
        <ele>602.808</ele>
        <time>1998-01-15T11:09:28Z</time>
      </trkpt>
      <trkpt lat="41.876505" lon="0.775249">
        <ele>602.489</ele>
        <time>1998-01-15T11:09:33Z</time>
      </trkpt>
      <trkpt lat="41.876481" lon="0.775421">
        <ele>602.669</ele>
        <time>1998-01-15T11:09:38Z</time>
      </trkpt>
      <trkpt lat="41.876469" lon="0.775609">
        <ele>603.010</ele>
        <time>1998-01-15T11:09:44Z</time>
      </trkpt>
      <trkpt lat="41.876468" lon="0.775752">
        <ele>603.422</ele>
        <time>1998-01-15T11:09:49Z</time>
      </trkpt>
      <trkpt lat="41.876488" lon="0.775976">
        <ele>603.250</ele>
        <time>1998-01-15T11:09:55Z</time>
      </trkpt>
      <trkpt lat="41.876503" lon="0.776195">
        <ele>603.467</ele>
        <time>1998-01-15T11:10:00Z</time>
      </trkpt>
      <trkpt lat="41.876509" lon="0.776318">
        <ele>603.834</ele>
        <time>1998-01-15T11:10:03Z</time>
      </trkpt>
      <trkpt lat="41.876561" lon="0.776571">
        <ele>604.225</ele>
        <time>1998-01-15T11:10:10Z</time>
      </trkpt>
      <trkpt lat="41.876714" lon="0.776812">
        <ele>603.849</ele>
        <time>1998-01-15T11:10:16Z</time>
      </trkpt>
      <trkpt lat="41.876847" lon="0.776968">
        <ele>603.402</ele>
        <time>1998-01-15T11:10:20Z</time>
      </trkpt>
      <trkpt lat="41.876945" lon="0.777073">
        <ele>603.222</ele>
        <time>1998-01-15T11:10:23Z</time>
      </trkpt>
      <trkpt lat="41.876979" lon="0.777123">
        <ele>603.008</ele>
        <time>1998-01-15T11:10:24Z</time>
      </trkpt>
      <trkpt lat="41.877046" lon="0.777356">
        <ele>602.246</ele>
        <time>1998-01-15T11:10:27Z</time>
      </trkpt>
      <trkpt lat="41.877105" lon="0.777554">
        <ele>601.076</ele>
        <time>1998-01-15T11:10:29Z</time>
      </trkpt>
      <trkpt lat="41.877181" lon="0.777723">
        <ele>599.697</ele>
        <time>1998-01-15T11:10:31Z</time>
      </trkpt>
      <trkpt lat="41.877323" lon="0.777964">
        <ele>598.689</ele>
        <time>1998-01-15T11:10:35Z</time>
      </trkpt>
      <trkpt lat="41.877403" lon="0.778085">
        <ele>599.087</ele>
        <time>1998-01-15T11:10:39Z</time>
      </trkpt>
      <trkpt lat="41.877491" lon="0.778255">
        <ele>599.814</ele>
        <time>1998-01-15T11:10:45Z</time>
      </trkpt>
      <trkpt lat="41.877474" lon="0.778423">
        <ele>600.481</ele>
        <time>1998-01-15T11:10:50Z</time>
      </trkpt>
      <trkpt lat="41.877419" lon="0.778575">
        <ele>600.262</ele>
        <time>1998-01-15T11:10:55Z</time>
      </trkpt>
      <trkpt lat="41.877388" lon="0.778654">
        <ele>600.663</ele>
        <time>1998-01-15T11:10:59Z</time>
      </trkpt>
      <trkpt lat="41.877388" lon="0.778674">
        <ele>600.644</ele>
        <time>1998-01-15T11:11:00Z</time>
      </trkpt>
      <trkpt lat="41.877379" lon="0.778761">
        <ele>600.618</ele>
        <time>1998-01-15T11:11:05Z</time>
      </trkpt>
      <trkpt lat="41.877412" lon="0.778786">
        <ele>600.408</ele>
        <time>1998-01-15T11:11:09Z</time>
      </trkpt>
      <trkpt lat="41.877399" lon="0.778706">
        <ele>600.028</ele>
        <time>1998-01-15T11:11:13Z</time>
      </trkpt>
      <trkpt lat="41.877370" lon="0.778747">
        <ele>600.448</ele>
        <time>1998-01-15T11:11:16Z</time>
      </trkpt>
      <trkpt lat="41.877385" lon="0.778769">
        <ele>600.669</ele>
        <time>1998-01-15T11:11:17Z</time>
      </trkpt>
      <trkpt lat="41.877411" lon="0.778802">
        <ele>600.881</ele>
        <time>1998-01-15T11:11:19Z</time>
      </trkpt>
      <trkpt lat="41.877431" lon="0.778807">
        <ele>600.859</ele>
        <time>1998-01-15T11:11:20Z</time>
      </trkpt>
      <trkpt lat="41.877538" lon="0.778935">
        <ele>600.666</ele>
        <time>1998-01-15T11:11:27Z</time>
      </trkpt>
      <trkpt lat="41.877643" lon="0.779116">
        <ele>600.653</ele>
        <time>1998-01-15T11:11:34Z</time>
      </trkpt>
      <trkpt lat="41.877749" lon="0.779352">
        <ele>599.464</ele>
        <time>1998-01-15T11:11:42Z</time>
      </trkpt>
      <trkpt lat="41.877826" lon="0.779606">
        <ele>598.831</ele>
        <time>1998-01-15T11:11:51Z</time>
      </trkpt>
      <trkpt lat="41.877854" lon="0.779712">
        <ele>598.261</ele>
        <time>1998-01-15T11:11:54Z</time>
      </trkpt>
      <trkpt lat="41.877876" lon="0.779866">
        <ele>598.207</ele>
        <time>1998-01-15T11:11:58Z</time>
      </trkpt>
      <trkpt lat="41.877855" lon="0.780074">
        <ele>598.008</ele>
        <time>1998-01-15T11:12:04Z</time>
      </trkpt>
      <trkpt lat="41.877771" lon="0.780331">
        <ele>597.285</ele>
        <time>1998-01-15T11:12:12Z</time>
      </trkpt>
      <trkpt lat="41.877740" lon="0.780396">
        <ele>597.255</ele>
        <time>1998-01-15T11:12:14Z</time>
      </trkpt>
      <trkpt lat="41.877684" lon="0.780531">
        <ele>596.646</ele>
        <time>1998-01-15T11:12:18Z</time>
      </trkpt>
      <trkpt lat="41.877585" lon="0.780734">
        <ele>596.248</ele>
        <time>1998-01-15T11:12:24Z</time>
      </trkpt>
      <trkpt lat="41.877550" lon="0.780810">
        <ele>596.416</ele>
        <time>1998-01-15T11:12:26Z</time>
      </trkpt>
      <trkpt lat="41.877478" lon="0.781083">
        <ele>595.453</ele>
        <time>1998-01-15T11:12:32Z</time>
      </trkpt>
      <trkpt lat="41.877443" lon="0.781300">
        <ele>595.420</ele>
        <time>1998-01-15T11:12:37Z</time>
      </trkpt>
      <trkpt lat="41.877441" lon="0.781459">
        <ele>595.241</ele>
        <time>1998-01-15T11:12:40Z</time>
      </trkpt>
      <trkpt lat="41.877462" lon="0.781693">
        <ele>594.655</ele>
        <time>1998-01-15T11:12:44Z</time>
      </trkpt>
      <trkpt lat="41.877482" lon="0.781807">
        <ele>594.807</ele>
        <time>1998-01-15T11:12:46Z</time>
      </trkpt>
      <trkpt lat="41.877549" lon="0.782064">
        <ele>595.017</ele>
        <time>1998-01-15T11:12:51Z</time>
      </trkpt>
      <trkpt lat="41.877583" lon="0.782221">
        <ele>594.808</ele>
        <time>1998-01-15T11:12:54Z</time>
      </trkpt>
      <trkpt lat="41.877601" lon="0.782390">
        <ele>595.237</ele>
        <time>1998-01-15T11:12:57Z</time>
      </trkpt>
      <trkpt lat="41.877626" lon="0.782700">
        <ele>596.217</ele>
        <time>1998-01-15T11:13:03Z</time>
      </trkpt>
      <trkpt lat="41.877627" lon="0.782853">
        <ele>596.638</ele>
        <time>1998-01-15T11:13:06Z</time>
      </trkpt>
      <trkpt lat="41.877624" lon="0.783047">
        <ele>597.410</ele>
        <time>1998-01-15T11:13:10Z</time>
      </trkpt>
      <trkpt lat="41.877609" lon="0.783245">
        <ele>597.848</ele>
        <time>1998-01-15T11:13:14Z</time>
      </trkpt>
      <trkpt lat="41.877589" lon="0.783558">
        <ele>598.645</ele>
        <time>1998-01-15T11:13:20Z</time>
      </trkpt>
      <trkpt lat="41.877563" lon="0.783942">
        <ele>598.812</ele>
        <time>1998-01-15T11:13:27Z</time>
      </trkpt>
      <trkpt lat="41.877560" lon="0.783997">
        <ele>598.863</ele>
        <time>1998-01-15T11:13:28Z</time>
      </trkpt>
      <trkpt lat="41.877569" lon="0.784054">
        <ele>599.086</ele>
        <time>1998-01-15T11:13:29Z</time>
      </trkpt>
      <trkpt lat="41.877583" lon="0.784230">
        <ele>599.260</ele>
        <time>1998-01-15T11:13:32Z</time>
      </trkpt>
      <trkpt lat="41.877614" lon="0.784346">
        <ele>599.026</ele>
        <time>1998-01-15T11:13:34Z</time>
      </trkpt>
      <trkpt lat="41.877637" lon="0.784399">
        <ele>598.808</ele>
        <time>1998-01-15T11:13:35Z</time>
      </trkpt>
      <trkpt lat="41.877692" lon="0.784562">
        <ele>598.860</ele>
        <time>1998-01-15T11:13:38Z</time>
      </trkpt>
      <trkpt lat="41.877785" lon="0.784844">
        <ele>599.480</ele>
        <time>1998-01-15T11:13:43Z</time>
      </trkpt>
      <trkpt lat="41.877855" lon="0.785070">
        <ele>599.461</ele>
        <time>1998-01-15T11:13:47Z</time>
      </trkpt>
      <trkpt lat="41.877909" lon="0.785239">
        <ele>599.633</ele>
        <time>1998-01-15T11:13:50Z</time>
      </trkpt>
      <trkpt lat="41.877981" lon="0.785476">
        <ele>599.811</ele>
        <time>1998-01-15T11:13:54Z</time>
      </trkpt>
      <trkpt lat="41.878128" lon="0.785930">
        <ele>600.438</ele>
        <time>1998-01-15T11:14:02Z</time>
      </trkpt>
      <trkpt lat="41.878150" lon="0.785983">
        <ele>600.655</ele>
        <time>1998-01-15T11:14:03Z</time>
      </trkpt>
      <trkpt lat="41.878255" lon="0.786279">
        <ele>601.876</ele>
        <time>1998-01-15T11:14:09Z</time>
      </trkpt>
      <trkpt lat="41.878338" lon="0.786535">
        <ele>603.211</ele>
        <time>1998-01-15T11:14:14Z</time>
      </trkpt>
      <trkpt lat="41.878378" lon="0.786674">
        <ele>604.221</ele>
        <time>1998-01-15T11:14:17Z</time>
      </trkpt>
      <trkpt lat="41.878393" lon="0.786716">
        <ele>604.403</ele>
        <time>1998-01-15T11:14:18Z</time>
      </trkpt>
      <trkpt lat="41.878447" lon="0.786833">
        <ele>605.408</ele>
        <time>1998-01-15T11:14:21Z</time>
      </trkpt>
      <trkpt lat="41.878485" lon="0.786949">
        <ele>605.463</ele>
        <time>1998-01-15T11:14:24Z</time>
      </trkpt>
      <trkpt lat="41.878557" lon="0.787200">
        <ele>605.233</ele>
        <time>1998-01-15T11:14:31Z</time>
      </trkpt>
      <trkpt lat="41.878516" lon="0.787463">
        <ele>604.664</ele>
        <time>1998-01-15T11:14:37Z</time>
      </trkpt>
      <trkpt lat="41.878508" lon="0.787506">
        <ele>604.486</ele>
        <time>1998-01-15T11:14:38Z</time>
      </trkpt>
      <trkpt lat="41.878427" lon="0.787645">
        <ele>603.234</ele>
        <time>1998-01-15T11:14:42Z</time>
      </trkpt>
      <trkpt lat="41.878258" lon="0.787743">
        <ele>603.271</ele>
        <time>1998-01-15T11:14:47Z</time>
      </trkpt>
      <trkpt lat="41.877988" lon="0.787836">
        <ele>603.858</ele>
        <time>1998-01-15T11:14:55Z</time>
      </trkpt>
      <trkpt lat="41.877932" lon="0.787843">
        <ele>604.499</ele>
        <time>1998-01-15T11:14:57Z</time>
      </trkpt>
      <trkpt lat="41.877774" lon="0.787852">
        <ele>605.229</ele>
        <time>1998-01-15T11:15:02Z</time>
      </trkpt>
      <trkpt lat="41.877737" lon="0.787853">
        <ele>605.800</ele>
        <time>1998-01-15T11:15:03Z</time>
      </trkpt>
      <trkpt lat="41.877582" lon="0.787869">
        <ele>607.220</ele>
        <time>1998-01-15T11:15:08Z</time>
      </trkpt>
      <trkpt lat="41.877559" lon="0.787875">
        <ele>607.608</ele>
        <time>1998-01-15T11:15:09Z</time>
      </trkpt>
      <trkpt lat="41.877489" lon="0.787907">
        <ele>608.254</ele>
        <time>1998-01-15T11:15:12Z</time>
      </trkpt>
      <trkpt lat="41.877464" lon="0.787924">
        <ele>608.214</ele>
        <time>1998-01-15T11:15:13Z</time>
      </trkpt>
      <trkpt lat="41.877441" lon="0.787950">
        <ele>608.425</ele>
        <time>1998-01-15T11:15:14Z</time>
      </trkpt>
      <trkpt lat="41.877396" lon="0.788052">
        <ele>609.227</ele>
        <time>1998-01-15T11:15:17Z</time>
      </trkpt>
      <trkpt lat="41.877382" lon="0.788144">
        <ele>609.425</ele>
        <time>1998-01-15T11:15:19Z</time>
      </trkpt>
      <trkpt lat="41.877386" lon="0.788217">
        <ele>609.672</ele>
        <time>1998-01-15T11:15:20Z</time>
      </trkpt>
      <trkpt lat="41.877379" lon="0.788436">
        <ele>609.269</ele>
        <time>1998-01-15T11:15:23Z</time>
      </trkpt>
      <trkpt lat="41.877354" lon="0.788660">
        <ele>608.240</ele>
        <time>1998-01-15T11:15:26Z</time>
      </trkpt>
      <trkpt lat="41.877342" lon="0.788872">
        <ele>607.873</ele>
        <time>1998-01-15T11:15:29Z</time>
      </trkpt>
      <trkpt lat="41.877334" lon="0.789225">
        <ele>608.085</ele>
        <time>1998-01-15T11:15:35Z</time>
      </trkpt>
      <trkpt lat="41.877320" lon="0.789510">
        <ele>607.813</ele>
        <time>1998-01-15T11:15:41Z</time>
      </trkpt>
      <trkpt lat="41.877302" lon="0.789799">
        <ele>607.608</ele>
        <time>1998-01-15T11:15:48Z</time>
      </trkpt>
      <trkpt lat="41.877289" lon="0.789901">
        <ele>607.239</ele>
        <time>1998-01-15T11:15:50Z</time>
      </trkpt>
      <trkpt lat="41.877259" lon="0.790116">
        <ele>607.099</ele>
        <time>1998-01-15T11:15:55Z</time>
      </trkpt>
      <trkpt lat="41.877221" lon="0.790349">
        <ele>607.220</ele>
        <time>1998-01-15T11:16:01Z</time>
      </trkpt>
      <trkpt lat="41.877253" lon="0.790536">
        <ele>607.622</ele>
        <time>1998-01-15T11:16:06Z</time>
      </trkpt>
      <trkpt lat="41.877303" lon="0.790641">
        <ele>608.260</ele>
        <time>1998-01-15T11:16:09Z</time>
      </trkpt>
      <trkpt lat="41.877388" lon="0.790757">
        <ele>609.047</ele>
        <time>1998-01-15T11:16:13Z</time>
      </trkpt>
      <trkpt lat="41.877437" lon="0.790807">
        <ele>609.614</ele>
        <time>1998-01-15T11:16:15Z</time>
      </trkpt>
      <trkpt lat="41.877504" lon="0.790875">
        <ele>610.635</ele>
        <time>1998-01-15T11:16:18Z</time>
      </trkpt>
      <trkpt lat="41.877520" lon="0.790904">
        <ele>610.878</ele>
        <time>1998-01-15T11:16:19Z</time>
      </trkpt>
      <trkpt lat="41.877516" lon="0.791073">
        <ele>611.433</ele>
        <time>1998-01-15T11:16:23Z</time>
      </trkpt>
      <trkpt lat="41.877504" lon="0.791114">
        <ele>611.826</ele>
        <time>1998-01-15T11:16:24Z</time>
      </trkpt>
      <trkpt lat="41.877455" lon="0.791222">
        <ele>612.808</ele>
        <time>1998-01-15T11:16:27Z</time>
      </trkpt>
      <trkpt lat="41.877437" lon="0.791256">
        <ele>612.829</ele>
        <time>1998-01-15T11:16:28Z</time>
      </trkpt>
      <trkpt lat="41.877278" lon="0.791582">
        <ele>612.079</ele>
        <time>1998-01-15T11:16:35Z</time>
      </trkpt>
      <trkpt lat="41.877243" lon="0.791642">
        <ele>611.690</ele>
        <time>1998-01-15T11:16:36Z</time>
      </trkpt>
      <trkpt lat="41.877203" lon="0.791698">
        <ele>611.432</ele>
        <time>1998-01-15T11:16:37Z</time>
      </trkpt>
      <trkpt lat="41.877102" lon="0.791771">
        <ele>610.880</ele>
        <time>1998-01-15T11:16:39Z</time>
      </trkpt>
      <trkpt lat="41.877047" lon="0.791802">
        <ele>610.227</ele>
        <time>1998-01-15T11:16:40Z</time>
      </trkpt>
      <trkpt lat="41.876897" lon="0.791932">
        <ele>609.084</ele>
        <time>1998-01-15T11:16:43Z</time>
      </trkpt>
      <trkpt lat="41.876850" lon="0.791991">
        <ele>608.865</ele>
        <time>1998-01-15T11:16:44Z</time>
      </trkpt>
      <trkpt lat="41.876802" lon="0.792056">
        <ele>608.255</ele>
        <time>1998-01-15T11:16:45Z</time>
      </trkpt>
      <trkpt lat="41.876752" lon="0.792124">
        <ele>607.807</ele>
        <time>1998-01-15T11:16:46Z</time>
      </trkpt>
      <trkpt lat="41.876591" lon="0.792354">
        <ele>606.417</ele>
        <time>1998-01-15T11:16:49Z</time>
      </trkpt>
      <trkpt lat="41.876478" lon="0.792525">
        <ele>605.208</ele>
        <time>1998-01-15T11:16:51Z</time>
      </trkpt>
      <trkpt lat="41.876369" lon="0.792699">
        <ele>604.037</ele>
        <time>1998-01-15T11:16:53Z</time>
      </trkpt>
      <trkpt lat="41.876204" lon="0.792948">
        <ele>602.627</ele>
        <time>1998-01-15T11:16:56Z</time>
      </trkpt>
      <trkpt lat="41.876144" lon="0.793016">
        <ele>602.468</ele>
        <time>1998-01-15T11:16:57Z</time>
      </trkpt>
      <trkpt lat="41.875891" lon="0.793199">
        <ele>602.040</ele>
        <time>1998-01-15T11:17:01Z</time>
      </trkpt>
      <trkpt lat="41.875770" lon="0.793246">
        <ele>601.688</ele>
        <time>1998-01-15T11:17:03Z</time>
      </trkpt>
      <trkpt lat="41.875713" lon="0.793263">
        <ele>601.665</ele>
        <time>1998-01-15T11:17:04Z</time>
      </trkpt>
      <trkpt lat="41.875610" lon="0.793281">
        <ele>601.862</ele>
        <time>1998-01-15T11:17:06Z</time>
      </trkpt>
      <trkpt lat="41.875335" lon="0.793303">
        <ele>602.253</ele>
        <time>1998-01-15T11:17:11Z</time>
      </trkpt>
      <trkpt lat="41.875214" lon="0.793348">
        <ele>602.015</ele>
        <time>1998-01-15T11:17:13Z</time>
      </trkpt>
      <trkpt lat="41.875090" lon="0.793389">
        <ele>601.865</ele>
        <time>1998-01-15T11:17:15Z</time>
      </trkpt>
      <trkpt lat="41.875024" lon="0.793383">
        <ele>601.611</ele>
        <time>1998-01-15T11:17:16Z</time>
      </trkpt>
      <trkpt lat="41.874792" lon="0.793233">
        <ele>601.208</ele>
        <time>1998-01-15T11:17:20Z</time>
      </trkpt>
      <trkpt lat="41.874580" lon="0.793108">
        <ele>600.423</ele>
        <time>1998-01-15T11:17:23Z</time>
      </trkpt>
      <trkpt lat="41.874501" lon="0.793075">
        <ele>599.623</ele>
        <time>1998-01-15T11:17:24Z</time>
      </trkpt>
      <trkpt lat="41.874422" lon="0.793039">
        <ele>599.274</ele>
        <time>1998-01-15T11:17:25Z</time>
      </trkpt>
      <trkpt lat="41.874346" lon="0.792990">
        <ele>598.246</ele>
        <time>1998-01-15T11:17:26Z</time>
      </trkpt>
      <trkpt lat="41.874275" lon="0.792934">
        <ele>597.484</ele>
        <time>1998-01-15T11:17:27Z</time>
      </trkpt>
      <trkpt lat="41.874215" lon="0.792877">
        <ele>596.671</ele>
        <time>1998-01-15T11:17:28Z</time>
      </trkpt>
      <trkpt lat="41.874161" lon="0.792824">
        <ele>596.088</ele>
        <time>1998-01-15T11:17:29Z</time>
      </trkpt>
      <trkpt lat="41.874040" lon="0.792771">
        <ele>594.849</ele>
        <time>1998-01-15T11:17:31Z</time>
      </trkpt>
      <trkpt lat="41.873981" lon="0.792787">
        <ele>594.437</ele>
        <time>1998-01-15T11:17:32Z</time>
      </trkpt>
      <trkpt lat="41.873863" lon="0.792869">
        <ele>593.449</ele>
        <time>1998-01-15T11:17:34Z</time>
      </trkpt>
      <trkpt lat="41.873799" lon="0.792909">
        <ele>592.813</ele>
        <time>1998-01-15T11:17:35Z</time>
      </trkpt>
      <trkpt lat="41.873731" lon="0.792937">
        <ele>592.408</ele>
        <time>1998-01-15T11:17:36Z</time>
      </trkpt>
      <trkpt lat="41.873522" lon="0.792943">
        <ele>591.685</ele>
        <time>1998-01-15T11:17:39Z</time>
      </trkpt>
      <trkpt lat="41.873264" lon="0.792876">
        <ele>591.225</ele>
        <time>1998-01-15T11:17:43Z</time>
      </trkpt>
      <trkpt lat="41.873193" lon="0.792871">
        <ele>591.226</ele>
        <time>1998-01-15T11:17:44Z</time>
      </trkpt>
      <trkpt lat="41.873038" lon="0.792860">
        <ele>590.298</ele>
        <time>1998-01-15T11:17:46Z</time>
      </trkpt>
      <trkpt lat="41.872879" lon="0.792863">
        <ele>589.456</ele>
        <time>1998-01-15T11:17:48Z</time>
      </trkpt>
      <trkpt lat="41.872799" lon="0.792863">
        <ele>589.083</ele>
        <time>1998-01-15T11:17:49Z</time>
      </trkpt>
      <trkpt lat="41.872491" lon="0.792887">
        <ele>587.860</ele>
        <time>1998-01-15T11:17:53Z</time>
      </trkpt>
      <trkpt lat="41.872425" lon="0.792897">
        <ele>587.441</ele>
        <time>1998-01-15T11:17:54Z</time>
      </trkpt>
      <trkpt lat="41.872360" lon="0.792891">
        <ele>587.073</ele>
        <time>1998-01-15T11:17:55Z</time>
      </trkpt>
      <trkpt lat="41.872297" lon="0.792863">
        <ele>586.485</ele>
        <time>1998-01-15T11:17:56Z</time>
      </trkpt>
      <trkpt lat="41.872235" lon="0.792816">
        <ele>585.613</ele>
        <time>1998-01-15T11:17:57Z</time>
      </trkpt>
      <trkpt lat="41.872174" lon="0.792758">
        <ele>585.008</ele>
        <time>1998-01-15T11:17:58Z</time>
      </trkpt>
      <trkpt lat="41.872041" lon="0.792653">
        <ele>583.899</ele>
        <time>1998-01-15T11:18:00Z</time>
      </trkpt>
      <trkpt lat="41.871968" lon="0.792612">
        <ele>583.299</ele>
        <time>1998-01-15T11:18:01Z</time>
      </trkpt>
      <trkpt lat="41.871892" lon="0.792571">
        <ele>582.660</ele>
        <time>1998-01-15T11:18:02Z</time>
      </trkpt>
      <trkpt lat="41.871737" lon="0.792484">
        <ele>581.642</ele>
        <time>1998-01-15T11:18:04Z</time>
      </trkpt>
      <trkpt lat="41.871575" lon="0.792404">
        <ele>580.460</ele>
        <time>1998-01-15T11:18:06Z</time>
      </trkpt>
      <trkpt lat="41.871489" lon="0.792371">
        <ele>579.477</ele>
        <time>1998-01-15T11:18:07Z</time>
      </trkpt>
      <trkpt lat="41.871400" lon="0.792349">
        <ele>578.674</ele>
        <time>1998-01-15T11:18:08Z</time>
      </trkpt>
      <trkpt lat="41.871217" lon="0.792329">
        <ele>577.495</ele>
        <time>1998-01-15T11:18:10Z</time>
      </trkpt>
      <trkpt lat="41.871129" lon="0.792335">
        <ele>577.061</ele>
        <time>1998-01-15T11:18:11Z</time>
      </trkpt>
      <trkpt lat="41.870869" lon="0.792357">
        <ele>576.021</ele>
        <time>1998-01-15T11:18:14Z</time>
      </trkpt>
      <trkpt lat="41.870696" lon="0.792417">
        <ele>575.213</ele>
        <time>1998-01-15T11:18:16Z</time>
      </trkpt>
      <trkpt lat="41.870613" lon="0.792464">
        <ele>574.808</ele>
        <time>1998-01-15T11:18:17Z</time>
      </trkpt>
      <trkpt lat="41.870458" lon="0.792584">
        <ele>573.248</ele>
        <time>1998-01-15T11:18:19Z</time>
      </trkpt>
      <trkpt lat="41.870382" lon="0.792635">
        <ele>572.478</ele>
        <time>1998-01-15T11:18:20Z</time>
      </trkpt>
      <trkpt lat="41.870302" lon="0.792672">
        <ele>571.699</ele>
        <time>1998-01-15T11:18:21Z</time>
      </trkpt>
      <trkpt lat="41.870140" lon="0.792716">
        <ele>570.051</ele>
        <time>1998-01-15T11:18:23Z</time>
      </trkpt>
      <trkpt lat="41.870064" lon="0.792717">
        <ele>569.089</ele>
        <time>1998-01-15T11:18:24Z</time>
      </trkpt>
      <trkpt lat="41.869990" lon="0.792706">
        <ele>568.226</ele>
        <time>1998-01-15T11:18:25Z</time>
      </trkpt>
      <trkpt lat="41.869835" lon="0.792634">
        <ele>566.253</ele>
        <time>1998-01-15T11:18:27Z</time>
      </trkpt>
      <trkpt lat="41.869759" lon="0.792575">
        <ele>565.244</ele>
        <time>1998-01-15T11:18:28Z</time>
      </trkpt>
      <trkpt lat="41.869690" lon="0.792512">
        <ele>564.231</ele>
        <time>1998-01-15T11:18:29Z</time>
      </trkpt>
      <trkpt lat="41.869626" lon="0.792437">
        <ele>563.061</ele>
        <time>1998-01-15T11:18:30Z</time>
      </trkpt>
      <trkpt lat="41.869567" lon="0.792348">
        <ele>562.007</ele>
        <time>1998-01-15T11:18:31Z</time>
      </trkpt>
      <trkpt lat="41.869512" lon="0.792248">
        <ele>560.808</ele>
        <time>1998-01-15T11:18:32Z</time>
      </trkpt>
      <trkpt lat="41.869455" lon="0.792141">
        <ele>559.835</ele>
        <time>1998-01-15T11:18:33Z</time>
      </trkpt>
      <trkpt lat="41.869394" lon="0.792034">
        <ele>558.885</ele>
        <time>1998-01-15T11:18:34Z</time>
      </trkpt>
      <trkpt lat="41.869326" lon="0.791931">
        <ele>558.056</ele>
        <time>1998-01-15T11:18:35Z</time>
      </trkpt>
      <trkpt lat="41.869255" lon="0.791836">
        <ele>557.428</ele>
        <time>1998-01-15T11:18:36Z</time>
      </trkpt>
      <trkpt lat="41.869110" lon="0.791659">
        <ele>556.216</ele>
        <time>1998-01-15T11:18:38Z</time>
      </trkpt>
      <trkpt lat="41.868969" lon="0.791481">
        <ele>554.653</ele>
        <time>1998-01-15T11:18:40Z</time>
      </trkpt>
      <trkpt lat="41.868785" lon="0.791231">
        <ele>553.260</ele>
        <time>1998-01-15T11:18:43Z</time>
      </trkpt>
      <trkpt lat="41.868711" lon="0.791168">
        <ele>552.891</ele>
        <time>1998-01-15T11:18:44Z</time>
      </trkpt>
      <trkpt lat="41.868572" lon="0.791048">
        <ele>552.463</ele>
        <time>1998-01-15T11:18:46Z</time>
      </trkpt>
      <trkpt lat="41.868456" lon="0.790924">
        <ele>552.644</ele>
        <time>1998-01-15T11:18:48Z</time>
      </trkpt>
      <trkpt lat="41.868263" lon="0.790736">
        <ele>553.018</ele>
        <time>1998-01-15T11:18:52Z</time>
      </trkpt>
      <trkpt lat="41.868097" lon="0.790471">
        <ele>554.408</ele>
        <time>1998-01-15T11:18:57Z</time>
      </trkpt>
      <trkpt lat="41.868070" lon="0.790407">
        <ele>554.658</ele>
        <time>1998-01-15T11:18:58Z</time>
      </trkpt>
      <trkpt lat="41.867975" lon="0.790032">
        <ele>555.078</ele>
        <time>1998-01-15T11:19:03Z</time>
      </trkpt>
      <trkpt lat="41.867930" lon="0.789725">
        <ele>555.629</ele>
        <time>1998-01-15T11:19:07Z</time>
      </trkpt>
      <trkpt lat="41.867928" lon="0.789644">
        <ele>556.041</ele>
        <time>1998-01-15T11:19:08Z</time>
      </trkpt>
      <trkpt lat="41.867926" lon="0.789564">
        <ele>556.289</ele>
        <time>1998-01-15T11:19:09Z</time>
      </trkpt>
      <trkpt lat="41.867922" lon="0.789411">
        <ele>557.056</ele>
        <time>1998-01-15T11:19:11Z</time>
      </trkpt>
      <trkpt lat="41.867912" lon="0.789048">
        <ele>557.823</ele>
        <time>1998-01-15T11:19:16Z</time>
      </trkpt>
      <trkpt lat="41.867912" lon="0.788977">
        <ele>558.264</ele>
        <time>1998-01-15T11:19:17Z</time>
      </trkpt>
      <trkpt lat="41.867908" lon="0.788644">
        <ele>559.248</ele>
        <time>1998-01-15T11:19:22Z</time>
      </trkpt>
      <trkpt lat="41.867907" lon="0.788515">
        <ele>559.261</ele>
        <time>1998-01-15T11:19:24Z</time>
      </trkpt>
      <trkpt lat="41.867910" lon="0.787964">
        <ele>560.017</ele>
        <time>1998-01-15T11:19:33Z</time>
      </trkpt>
      <trkpt lat="41.867893" lon="0.787781">
        <ele>560.208</ele>
        <time>1998-01-15T11:19:36Z</time>
      </trkpt>
      <trkpt lat="41.867880" lon="0.787722">
        <ele>560.496</ele>
        <time>1998-01-15T11:19:37Z</time>
      </trkpt>
      <trkpt lat="41.867841" lon="0.787609">
        <ele>560.286</ele>
        <time>1998-01-15T11:19:39Z</time>
      </trkpt>
      <trkpt lat="41.867772" lon="0.787449">
        <ele>560.647</ele>
        <time>1998-01-15T11:19:42Z</time>
      </trkpt>
      <trkpt lat="41.867675" lon="0.787319">
        <ele>560.699</ele>
        <time>1998-01-15T11:19:45Z</time>
      </trkpt>
      <trkpt lat="41.867598" lon="0.787242">
        <ele>560.847</ele>
        <time>1998-01-15T11:19:47Z</time>
      </trkpt>
      <trkpt lat="41.867525" lon="0.787167">
        <ele>561.034</ele>
        <time>1998-01-15T11:19:49Z</time>
      </trkpt>
      <trkpt lat="41.867466" lon="0.787082">
        <ele>561.431</ele>
        <time>1998-01-15T11:19:51Z</time>
      </trkpt>
      <trkpt lat="41.867443" lon="0.787037">
        <ele>561.622</ele>
        <time>1998-01-15T11:19:52Z</time>
      </trkpt>
      <trkpt lat="41.867423" lon="0.786989">
        <ele>561.852</ele>
        <time>1998-01-15T11:19:53Z</time>
      </trkpt>
      <trkpt lat="41.867367" lon="0.786790">
        <ele>562.453</ele>
        <time>1998-01-15T11:19:57Z</time>
      </trkpt>
      <trkpt lat="41.867354" lon="0.786740">
        <ele>562.608</ele>
        <time>1998-01-15T11:19:58Z</time>
      </trkpt>
      <trkpt lat="41.867310" lon="0.786481">
        <ele>563.808</ele>
        <time>1998-01-15T11:20:03Z</time>
      </trkpt>
      <trkpt lat="41.867296" lon="0.786383">
        <ele>564.267</ele>
        <time>1998-01-15T11:20:05Z</time>
      </trkpt>
      <trkpt lat="41.867250" lon="0.786000">
        <ele>564.637</ele>
        <time>1998-01-15T11:20:12Z</time>
      </trkpt>
      <trkpt lat="41.867208" lon="0.785723">
        <ele>564.858</ele>
        <time>1998-01-15T11:20:17Z</time>
      </trkpt>
      <trkpt lat="41.867193" lon="0.785612">
        <ele>565.070</ele>
        <time>1998-01-15T11:20:19Z</time>
      </trkpt>
      <trkpt lat="41.867170" lon="0.785400">
        <ele>565.088</ele>
        <time>1998-01-15T11:20:23Z</time>
      </trkpt>
      <trkpt lat="41.867173" lon="0.785240">
        <ele>565.625</ele>
        <time>1998-01-15T11:20:26Z</time>
      </trkpt>
      <trkpt lat="41.867180" lon="0.785084">
        <ele>565.812</ele>
        <time>1998-01-15T11:20:29Z</time>
      </trkpt>
      <trkpt lat="41.867182" lon="0.784975">
        <ele>566.253</ele>
        <time>1998-01-15T11:20:31Z</time>
      </trkpt>
      <trkpt lat="41.867179" lon="0.784870">
        <ele>566.685</ele>
        <time>1998-01-15T11:20:33Z</time>
      </trkpt>
      <trkpt lat="41.867177" lon="0.784818">
        <ele>567.089</ele>
        <time>1998-01-15T11:20:34Z</time>
      </trkpt>
      <trkpt lat="41.867143" lon="0.784508">
        <ele>567.417</ele>
        <time>1998-01-15T11:20:40Z</time>
      </trkpt>
      <trkpt lat="41.867129" lon="0.784457">
        <ele>567.408</ele>
        <time>1998-01-15T11:20:41Z</time>
      </trkpt>
      <trkpt lat="41.867009" lon="0.784153">
        <ele>567.840</ele>
        <time>1998-01-15T11:20:47Z</time>
      </trkpt>
      <trkpt lat="41.866943" lon="0.784008">
        <ele>568.240</ele>
        <time>1998-01-15T11:20:50Z</time>
      </trkpt>
      <trkpt lat="41.866838" lon="0.783841">
        <ele>568.081</ele>
        <time>1998-01-15T11:20:54Z</time>
      </trkpt>
      <trkpt lat="41.866717" lon="0.783637">
        <ele>569.283</ele>
        <time>1998-01-15T11:20:59Z</time>
      </trkpt>
      <trkpt lat="41.866693" lon="0.783552">
        <ele>569.681</ele>
        <time>1998-01-15T11:21:01Z</time>
      </trkpt>
      <trkpt lat="41.866685" lon="0.783380">
        <ele>570.088</ele>
        <time>1998-01-15T11:21:06Z</time>
      </trkpt>
      <trkpt lat="41.866681" lon="0.783315">
        <ele>570.225</ele>
        <time>1998-01-15T11:21:09Z</time>
      </trkpt>
      <trkpt lat="41.866668" lon="0.783295">
        <ele>570.416</ele>
        <time>1998-01-15T11:21:10Z</time>
      </trkpt>
      <trkpt lat="41.866652" lon="0.783284">
        <ele>570.612</ele>
        <time>1998-01-15T11:21:11Z</time>
      </trkpt>
      <trkpt lat="41.866549" lon="0.783319">
        <ele>570.832</ele>
        <time>1998-01-15T11:21:16Z</time>
      </trkpt>
      <trkpt lat="41.866458" lon="0.783338">
        <ele>571.405</ele>
        <time>1998-01-15T11:21:20Z</time>
      </trkpt>
      <trkpt lat="41.866397" lon="0.783321">
        <ele>572.208</ele>
        <time>1998-01-15T11:21:23Z</time>
      </trkpt>
      <trkpt lat="41.866345" lon="0.783269">
        <ele>572.283</ele>
        <time>1998-01-15T11:21:26Z</time>
      </trkpt>
      <trkpt lat="41.866328" lon="0.783214">
        <ele>572.423</ele>
        <time>1998-01-15T11:21:28Z</time>
      </trkpt>
      <trkpt lat="41.866284" lon="0.783151">
        <ele>573.294</ele>
        <time>1998-01-15T11:21:31Z</time>
      </trkpt>
      <trkpt lat="41.866251" lon="0.783116">
        <ele>573.696</ele>
        <time>1998-01-15T11:21:33Z</time>
      </trkpt>
      <trkpt lat="41.866130" lon="0.783008">
        <ele>574.884</ele>
        <time>1998-01-15T11:21:40Z</time>
      </trkpt>
      <trkpt lat="41.866029" lon="0.783045">
        <ele>575.461</ele>
        <time>1998-01-15T11:21:45Z</time>
      </trkpt>
      <trkpt lat="41.865832" lon="0.783090">
        <ele>575.618</ele>
        <time>1998-01-15T11:21:52Z</time>
      </trkpt>
      <trkpt lat="41.865644" lon="0.783090">
        <ele>575.249</ele>
        <time>1998-01-15T11:21:58Z</time>
      </trkpt>
      <trkpt lat="41.865435" lon="0.783102">
        <ele>575.463</ele>
        <time>1998-01-15T11:22:05Z</time>
      </trkpt>
      <trkpt lat="41.865217" lon="0.783145">
        <ele>575.444</ele>
        <time>1998-01-15T11:22:12Z</time>
      </trkpt>
      <trkpt lat="41.865125" lon="0.783205">
        <ele>575.818</ele>
        <time>1998-01-15T11:22:15Z</time>
      </trkpt>
      <trkpt lat="41.865060" lon="0.783250">
        <ele>576.008</ele>
        <time>1998-01-15T11:22:17Z</time>
      </trkpt>
      <trkpt lat="41.864832" lon="0.783430">
        <ele>575.668</ele>
        <time>1998-01-15T11:22:23Z</time>
      </trkpt>
      <trkpt lat="41.864643" lon="0.783490">
        <ele>575.618</ele>
        <time>1998-01-15T11:22:27Z</time>
      </trkpt>
      <trkpt lat="41.864601" lon="0.783517">
        <ele>575.449</ele>
        <time>1998-01-15T11:22:28Z</time>
      </trkpt>
      <trkpt lat="41.864408" lon="0.783652">
        <ele>575.441</ele>
        <time>1998-01-15T11:22:33Z</time>
      </trkpt>
      <trkpt lat="41.864258" lon="0.783806">
        <ele>576.299</ele>
        <time>1998-01-15T11:22:38Z</time>
      </trkpt>
      <trkpt lat="41.864114" lon="0.783993">
        <ele>576.476</ele>
        <time>1998-01-15T11:22:44Z</time>
      </trkpt>
      <trkpt lat="41.863970" lon="0.784139">
        <ele>577.013</ele>
        <time>1998-01-15T11:22:50Z</time>
      </trkpt>
      <trkpt lat="41.863831" lon="0.784228">
        <ele>577.844</ele>
        <time>1998-01-15T11:22:56Z</time>
      </trkpt>
      <trkpt lat="41.863811" lon="0.784240">
        <ele>578.099</ele>
        <time>1998-01-15T11:22:57Z</time>
      </trkpt>
      <trkpt lat="41.863732" lon="0.784293">
        <ele>578.807</ele>
        <time>1998-01-15T11:23:01Z</time>
      </trkpt>
      <trkpt lat="41.863669" lon="0.784345">
        <ele>579.027</ele>
        <time>1998-01-15T11:23:04Z</time>
      </trkpt>
      <trkpt lat="41.863606" lon="0.784403">
        <ele>579.608</ele>
        <time>1998-01-15T11:23:07Z</time>
      </trkpt>
      <trkpt lat="41.863520" lon="0.784479">
        <ele>580.281</ele>
        <time>1998-01-15T11:23:11Z</time>
      </trkpt>
      <trkpt lat="41.863455" lon="0.784538">
        <ele>580.271</ele>
        <time>1998-01-15T11:23:14Z</time>
      </trkpt>
      <trkpt lat="41.863353" lon="0.784646">
        <ele>581.212</ele>
        <time>1998-01-15T11:23:19Z</time>
      </trkpt>
      <trkpt lat="41.863308" lon="0.784688">
        <ele>581.654</ele>
        <time>1998-01-15T11:23:21Z</time>
      </trkpt>
      <trkpt lat="41.863120" lon="0.784857">
        <ele>582.452</ele>
        <time>1998-01-15T11:23:29Z</time>
      </trkpt>
      <trkpt lat="41.863097" lon="0.784874">
        <ele>582.679</ele>
        <time>1998-01-15T11:23:30Z</time>
      </trkpt>
      <trkpt lat="41.862973" lon="0.784922">
        <ele>583.646</ele>
        <time>1998-01-15T11:23:35Z</time>
      </trkpt>
      <trkpt lat="41.862812" lon="0.785019">
        <ele>584.077</ele>
        <time>1998-01-15T11:23:42Z</time>
      </trkpt>
      <trkpt lat="41.862735" lon="0.785066">
        <ele>584.634</ele>
        <time>1998-01-15T11:23:45Z</time>
      </trkpt>
      <trkpt lat="41.862635" lon="0.785116">
        <ele>584.455</ele>
        <time>1998-01-15T11:23:49Z</time>
      </trkpt>
      <trkpt lat="41.862419" lon="0.785212">
        <ele>585.410</ele>
        <time>1998-01-15T11:23:57Z</time>
      </trkpt>
      <trkpt lat="41.862278" lon="0.785230">
        <ele>585.808</ele>
        <time>1998-01-15T11:24:02Z</time>
      </trkpt>
      <trkpt lat="41.862225" lon="0.785230">
        <ele>586.055</ele>
        <time>1998-01-15T11:24:04Z</time>
      </trkpt>
      <trkpt lat="41.862153" lon="0.785198">
        <ele>587.085</ele>
        <time>1998-01-15T11:24:07Z</time>
      </trkpt>
      <trkpt lat="41.862090" lon="0.785151">
        <ele>587.836</ele>
        <time>1998-01-15T11:24:10Z</time>
      </trkpt>
      <trkpt lat="41.862070" lon="0.785138">
        <ele>588.278</ele>
        <time>1998-01-15T11:24:11Z</time>
      </trkpt>
      <trkpt lat="41.861966" lon="0.785084">
        <ele>589.236</ele>
        <time>1998-01-15T11:24:16Z</time>
      </trkpt>
      <trkpt lat="41.861927" lon="0.785059">
        <ele>589.823</ele>
        <time>1998-01-15T11:24:18Z</time>
      </trkpt>
      <trkpt lat="41.861814" lon="0.784985">
        <ele>590.470</ele>
        <time>1998-01-15T11:24:24Z</time>
      </trkpt>
      <trkpt lat="41.861721" lon="0.784921">
        <ele>591.491</ele>
        <time>1998-01-15T11:24:29Z</time>
      </trkpt>
      <trkpt lat="41.861678" lon="0.784874">
        <ele>591.483</ele>
        <time>1998-01-15T11:24:32Z</time>
      </trkpt>
      <trkpt lat="41.861578" lon="0.784757">
        <ele>592.025</ele>
        <time>1998-01-15T11:24:39Z</time>
      </trkpt>
      <trkpt lat="41.861526" lon="0.784683">
        <ele>592.417</ele>
        <time>1998-01-15T11:24:43Z</time>
      </trkpt>
      <trkpt lat="41.861482" lon="0.784629">
        <ele>593.208</ele>
        <time>1998-01-15T11:24:46Z</time>
      </trkpt>
      <trkpt lat="41.861466" lon="0.784611">
        <ele>593.670</ele>
        <time>1998-01-15T11:24:47Z</time>
      </trkpt>
      <trkpt lat="41.861403" lon="0.784535">
        <ele>594.610</ele>
        <time>1998-01-15T11:24:51Z</time>
      </trkpt>
      <trkpt lat="41.861386" lon="0.784517">
        <ele>594.811</ele>
        <time>1998-01-15T11:24:52Z</time>
      </trkpt>
      <trkpt lat="41.861287" lon="0.784379">
        <ele>595.873</ele>
        <time>1998-01-15T11:24:59Z</time>
      </trkpt>
      <trkpt lat="41.861209" lon="0.784255">
        <ele>597.011</ele>
        <time>1998-01-15T11:25:05Z</time>
      </trkpt>
      <trkpt lat="41.861170" lon="0.784192">
        <ele>597.438</ele>
        <time>1998-01-15T11:25:08Z</time>
      </trkpt>
      <trkpt lat="41.861134" lon="0.784126">
        <ele>598.265</ele>
        <time>1998-01-15T11:25:11Z</time>
      </trkpt>
      <trkpt lat="41.861072" lon="0.784021">
        <ele>599.096</ele>
        <time>1998-01-15T11:25:16Z</time>
      </trkpt>
      <trkpt lat="41.861047" lon="0.783982">
        <ele>599.277</ele>
        <time>1998-01-15T11:25:18Z</time>
      </trkpt>
      <trkpt lat="41.861002" lon="0.783899">
        <ele>599.861</ele>
        <time>1998-01-15T11:25:22Z</time>
      </trkpt>
      <trkpt lat="41.860988" lon="0.783853">
        <ele>600.227</ele>
        <time>1998-01-15T11:25:24Z</time>
      </trkpt>
      <trkpt lat="41.860938" lon="0.783753">
        <ele>601.008</ele>
        <time>1998-01-15T11:25:29Z</time>
      </trkpt>
      <trkpt lat="41.860919" lon="0.783714">
        <ele>601.489</ele>
        <time>1998-01-15T11:25:31Z</time>
      </trkpt>
      <trkpt lat="41.860841" lon="0.783646">
        <ele>601.849</ele>
        <time>1998-01-15T11:25:36Z</time>
      </trkpt>
      <trkpt lat="41.860730" lon="0.783549">
        <ele>601.680</ele>
        <time>1998-01-15T11:25:42Z</time>
      </trkpt>
      <trkpt lat="41.860634" lon="0.783399">
        <ele>602.282</ele>
        <time>1998-01-15T11:25:49Z</time>
      </trkpt>
      <trkpt lat="41.860619" lon="0.783382">
        <ele>602.490</ele>
        <time>1998-01-15T11:25:50Z</time>
      </trkpt>
      <trkpt lat="41.860538" lon="0.783309">
        <ele>603.417</ele>
        <time>1998-01-15T11:25:55Z</time>
      </trkpt>
      <trkpt lat="41.860522" lon="0.783297">
        <ele>603.484</ele>
        <time>1998-01-15T11:25:56Z</time>
      </trkpt>
      <trkpt lat="41.860510" lon="0.783281">
        <ele>603.685</ele>
        <time>1998-01-15T11:25:57Z</time>
      </trkpt>
      <trkpt lat="41.860513" lon="0.783226">
        <ele>603.627</ele>
        <time>1998-01-15T11:26:00Z</time>
      </trkpt>
      <trkpt lat="41.860506" lon="0.783170">
        <ele>603.468</ele>
        <time>1998-01-15T11:26:03Z</time>
      </trkpt>
      <trkpt lat="41.860488" lon="0.783164">
        <ele>603.614</ele>
        <time>1998-01-15T11:26:04Z</time>
      </trkpt>
      <trkpt lat="41.860418" lon="0.783068">
        <ele>603.208</ele>
        <time>1998-01-15T11:26:09Z</time>
      </trkpt>
      <trkpt lat="41.860404" lon="0.783018">
        <ele>603.414</ele>
        <time>1998-01-15T11:26:11Z</time>
      </trkpt>
      <trkpt lat="41.860386" lon="0.782916">
        <ele>604.624</ele>
        <time>1998-01-15T11:26:15Z</time>
      </trkpt>
      <trkpt lat="41.860377" lon="0.782861">
        <ele>604.865</ele>
        <time>1998-01-15T11:26:17Z</time>
      </trkpt>
      <trkpt lat="41.860325" lon="0.782724">
        <ele>604.637</ele>
        <time>1998-01-15T11:27:41Z</time>
      </trkpt>
      <trkpt lat="41.860312" lon="0.782649">
        <ele>604.435</ele>
        <time>1998-01-15T11:27:44Z</time>
      </trkpt>
      <trkpt lat="41.860232" lon="0.782552">
        <ele>603.262</ele>
        <time>1998-01-15T11:27:49Z</time>
      </trkpt>
      <trkpt lat="41.860199" lon="0.782467">
        <ele>602.029</ele>
        <time>1998-01-15T11:27:52Z</time>
      </trkpt>
      <trkpt lat="41.860182" lon="0.782447">
        <ele>602.050</ele>
        <time>1998-01-15T11:27:53Z</time>
      </trkpt>
      <trkpt lat="41.860165" lon="0.782439">
        <ele>601.665</ele>
        <time>1998-01-15T11:27:54Z</time>
      </trkpt>
      <trkpt lat="41.860134" lon="0.782428">
        <ele>601.068</ele>
        <time>1998-01-15T11:28:09Z</time>
      </trkpt>
      <trkpt lat="41.860002" lon="0.782349">
        <ele>600.014</ele>
        <time>1998-01-15T11:28:14Z</time>
      </trkpt>
      <trkpt lat="41.859919" lon="0.782249">
        <ele>599.008</ele>
        <time>1998-01-15T11:28:19Z</time>
      </trkpt>
      <trkpt lat="41.859906" lon="0.782228">
        <ele>598.878</ele>
        <time>1998-01-15T11:28:20Z</time>
      </trkpt>
      <trkpt lat="41.859891" lon="0.782216">
        <ele>598.698</ele>
        <time>1998-01-15T11:28:21Z</time>
      </trkpt>
      <trkpt lat="41.859850" lon="0.782193">
        <ele>598.219</ele>
        <time>1998-01-15T11:28:23Z</time>
      </trkpt>
      <trkpt lat="41.859827" lon="0.782185">
        <ele>597.851</ele>
        <time>1998-01-15T11:28:24Z</time>
      </trkpt>
      <trkpt lat="41.859813" lon="0.782179">
        <ele>597.259</ele>
        <time>1998-01-15T11:28:25Z</time>
      </trkpt>
      <trkpt lat="41.859777" lon="0.782176">
        <ele>596.656</ele>
        <time>1998-01-15T11:28:27Z</time>
      </trkpt>
      <trkpt lat="41.859756" lon="0.782171">
        <ele>596.453</ele>
        <time>1998-01-15T11:28:28Z</time>
      </trkpt>
      <trkpt lat="41.859721" lon="0.782152">
        <ele>595.474</ele>
        <time>1998-01-15T11:28:31Z</time>
      </trkpt>
      <trkpt lat="41.859692" lon="0.782126">
        <ele>595.095</ele>
        <time>1998-01-15T11:28:33Z</time>
      </trkpt>
      <trkpt lat="41.859651" lon="0.782083">
        <ele>594.049</ele>
        <time>1998-01-15T11:28:36Z</time>
      </trkpt>
      <trkpt lat="41.859619" lon="0.782050">
        <ele>592.823</ele>
        <time>1998-01-15T11:28:38Z</time>
      </trkpt>
      <trkpt lat="41.859601" lon="0.782031">
        <ele>592.208</ele>
        <time>1998-01-15T11:28:39Z</time>
      </trkpt>
      <trkpt lat="41.859566" lon="0.781996">
        <ele>591.291</ele>
        <time>1998-01-15T11:28:41Z</time>
      </trkpt>
      <trkpt lat="41.859546" lon="0.781990">
        <ele>590.641</ele>
        <time>1998-01-15T11:28:42Z</time>
      </trkpt>
      <trkpt lat="41.859518" lon="0.781983">
        <ele>590.042</ele>
        <time>1998-01-15T11:28:43Z</time>
      </trkpt>
      <trkpt lat="41.859496" lon="0.781970">
        <ele>589.664</ele>
        <time>1998-01-15T11:28:44Z</time>
      </trkpt>
      <trkpt lat="41.859475" lon="0.781958">
        <ele>589.022</ele>
        <time>1998-01-15T11:28:45Z</time>
      </trkpt>
      <trkpt lat="41.859415" lon="0.781936">
        <ele>587.849</ele>
        <time>1998-01-15T11:28:48Z</time>
      </trkpt>
      <trkpt lat="41.859386" lon="0.781943">
        <ele>586.826</ele>
        <time>1998-01-15T11:28:50Z</time>
      </trkpt>
      <trkpt lat="41.859362" lon="0.781945">
        <ele>586.647</ele>
        <time>1998-01-15T11:28:51Z</time>
      </trkpt>
      <trkpt lat="41.859312" lon="0.781953">
        <ele>585.231</ele>
        <time>1998-01-15T11:28:53Z</time>
      </trkpt>
      <trkpt lat="41.859247" lon="0.781979">
        <ele>584.061</ele>
        <time>1998-01-15T11:28:56Z</time>
      </trkpt>
      <trkpt lat="41.859220" lon="0.781985">
        <ele>583.607</ele>
        <time>1998-01-15T11:28:57Z</time>
      </trkpt>
      <trkpt lat="41.859160" lon="0.782006">
        <ele>582.808</ele>
        <time>1998-01-15T11:28:59Z</time>
      </trkpt>
      <trkpt lat="41.859060" lon="0.782012">
        <ele>581.425</ele>
        <time>1998-01-15T11:29:02Z</time>
      </trkpt>
      <trkpt lat="41.859022" lon="0.782006">
        <ele>580.675</ele>
        <time>1998-01-15T11:29:03Z</time>
      </trkpt>
      <trkpt lat="41.858986" lon="0.782003">
        <ele>580.096</ele>
        <time>1998-01-15T11:29:04Z</time>
      </trkpt>
      <trkpt lat="41.858914" lon="0.781995">
        <ele>578.688</ele>
        <time>1998-01-15T11:29:06Z</time>
      </trkpt>
      <trkpt lat="41.858840" lon="0.781978">
        <ele>577.496</ele>
        <time>1998-01-15T11:29:08Z</time>
      </trkpt>
      <trkpt lat="41.858767" lon="0.781967">
        <ele>576.423</ele>
        <time>1998-01-15T11:29:10Z</time>
      </trkpt>
      <trkpt lat="41.858732" lon="0.781970">
        <ele>576.070</ele>
        <time>1998-01-15T11:29:11Z</time>
      </trkpt>
      <trkpt lat="41.858664" lon="0.781964">
        <ele>574.891</ele>
        <time>1998-01-15T11:29:13Z</time>
      </trkpt>
      <trkpt lat="41.858596" lon="0.781968">
        <ele>573.659</ele>
        <time>1998-01-15T11:29:15Z</time>
      </trkpt>
      <trkpt lat="41.858525" lon="0.781976">
        <ele>572.603</ele>
        <time>1998-01-15T11:29:17Z</time>
      </trkpt>
      <trkpt lat="41.858450" lon="0.781979">
        <ele>571.423</ele>
        <time>1998-01-15T11:29:19Z</time>
      </trkpt>
      <trkpt lat="41.858411" lon="0.781996">
        <ele>571.008</ele>
        <time>1998-01-15T11:29:20Z</time>
      </trkpt>
      <trkpt lat="41.858321" lon="0.782010">
        <ele>570.417</ele>
        <time>1998-01-15T11:29:22Z</time>
      </trkpt>
      <trkpt lat="41.858225" lon="0.782012">
        <ele>569.417</ele>
        <time>1998-01-15T11:29:24Z</time>
      </trkpt>
      <trkpt lat="41.858175" lon="0.782019">
        <ele>568.848</ele>
        <time>1998-01-15T11:29:25Z</time>
      </trkpt>
      <trkpt lat="41.858082" lon="0.782059">
        <ele>567.490</ele>
        <time>1998-01-15T11:29:27Z</time>
      </trkpt>
      <trkpt lat="41.858034" lon="0.782079">
        <ele>567.478</ele>
        <time>1998-01-15T11:29:28Z</time>
      </trkpt>
      <trkpt lat="41.857930" lon="0.782092">
        <ele>566.415</ele>
        <time>1998-01-15T11:29:30Z</time>
      </trkpt>
      <trkpt lat="41.857831" lon="0.782097">
        <ele>565.422</ele>
        <time>1998-01-15T11:29:32Z</time>
      </trkpt>
      <trkpt lat="41.857690" lon="0.782182">
        <ele>564.293</ele>
        <time>1998-01-15T11:29:35Z</time>
      </trkpt>
      <trkpt lat="41.857589" lon="0.782158">
        <ele>562.826</ele>
        <time>1998-01-15T11:29:37Z</time>
      </trkpt>
      <trkpt lat="41.857537" lon="0.782162">
        <ele>562.247</ele>
        <time>1998-01-15T11:29:38Z</time>
      </trkpt>
      <trkpt lat="41.857438" lon="0.782191">
        <ele>561.411</ele>
        <time>1998-01-15T11:29:40Z</time>
      </trkpt>
      <trkpt lat="41.857350" lon="0.782233">
        <ele>560.608</ele>
        <time>1998-01-15T11:29:42Z</time>
      </trkpt>
      <trkpt lat="41.857296" lon="0.782228">
        <ele>560.074</ele>
        <time>1998-01-15T11:29:43Z</time>
      </trkpt>
      <trkpt lat="41.857191" lon="0.782186">
        <ele>559.094</ele>
        <time>1998-01-15T11:29:45Z</time>
      </trkpt>
      <trkpt lat="41.857105" lon="0.782118">
        <ele>557.615</ele>
        <time>1998-01-15T11:29:47Z</time>
      </trkpt>
      <trkpt lat="41.857061" lon="0.782073">
        <ele>556.867</ele>
        <time>1998-01-15T11:29:48Z</time>
      </trkpt>
      <trkpt lat="41.857018" lon="0.782025">
        <ele>555.855</ele>
        <time>1998-01-15T11:29:49Z</time>
      </trkpt>
      <trkpt lat="41.856976" lon="0.781964">
        <ele>555.042</ele>
        <time>1998-01-15T11:29:50Z</time>
      </trkpt>
      <trkpt lat="41.856930" lon="0.781894">
        <ele>554.039</ele>
        <time>1998-01-15T11:29:51Z</time>
      </trkpt>
      <trkpt lat="41.856877" lon="0.781825">
        <ele>553.270</ele>
        <time>1998-01-15T11:29:52Z</time>
      </trkpt>
      <trkpt lat="41.856814" lon="0.781759">
        <ele>552.294</ele>
        <time>1998-01-15T11:29:53Z</time>
      </trkpt>
      <trkpt lat="41.856662" lon="0.781664">
        <ele>550.057</ele>
        <time>1998-01-15T11:29:55Z</time>
      </trkpt>
      <trkpt lat="41.856581" lon="0.781635">
        <ele>549.622</ele>
        <time>1998-01-15T11:29:56Z</time>
      </trkpt>
      <trkpt lat="41.856501" lon="0.781608">
        <ele>549.008</ele>
        <time>1998-01-15T11:29:57Z</time>
      </trkpt>
      <trkpt lat="41.856358" lon="0.781539">
        <ele>547.661</ele>
        <time>1998-01-15T11:29:59Z</time>
      </trkpt>
      <trkpt lat="41.856297" lon="0.781483">
        <ele>547.061</ele>
        <time>1998-01-15T11:30:00Z</time>
      </trkpt>
      <trkpt lat="41.856241" lon="0.781417">
        <ele>546.472</ele>
        <time>1998-01-15T11:30:01Z</time>
      </trkpt>
      <trkpt lat="41.856137" lon="0.781263">
        <ele>545.214</ele>
        <time>1998-01-15T11:30:03Z</time>
      </trkpt>
      <trkpt lat="41.856098" lon="0.781170">
        <ele>544.642</ele>
        <time>1998-01-15T11:30:04Z</time>
      </trkpt>
      <trkpt lat="41.856066" lon="0.781072">
        <ele>544.019</ele>
        <time>1998-01-15T11:30:05Z</time>
      </trkpt>
      <trkpt lat="41.855973" lon="0.780786">
        <ele>542.856</ele>
        <time>1998-01-15T11:30:08Z</time>
      </trkpt>
      <trkpt lat="41.855884" lon="0.780638">
        <ele>541.627</ele>
        <time>1998-01-15T11:30:10Z</time>
      </trkpt>
      <trkpt lat="41.855844" lon="0.780572">
        <ele>541.276</ele>
        <time>1998-01-15T11:30:11Z</time>
      </trkpt>
      <trkpt lat="41.855808" lon="0.780506">
        <ele>541.090</ele>
        <time>1998-01-15T11:30:12Z</time>
      </trkpt>
      <trkpt lat="41.855739" lon="0.780374">
        <ele>540.419</ele>
        <time>1998-01-15T11:30:14Z</time>
      </trkpt>
      <trkpt lat="41.855620" lon="0.780170">
        <ele>540.008</ele>
        <time>1998-01-15T11:30:17Z</time>
      </trkpt>
      <trkpt lat="41.855544" lon="0.780012">
        <ele>539.469</ele>
        <time>1998-01-15T11:30:19Z</time>
      </trkpt>
      <trkpt lat="41.855409" lon="0.779773">
        <ele>538.479</ele>
        <time>1998-01-15T11:30:22Z</time>
      </trkpt>
      <trkpt lat="41.855247" lon="0.779563">
        <ele>537.430</ele>
        <time>1998-01-15T11:30:25Z</time>
      </trkpt>
      <trkpt lat="41.855122" lon="0.779423">
        <ele>536.262</ele>
        <time>1998-01-15T11:30:27Z</time>
      </trkpt>
      <trkpt lat="41.854930" lon="0.779199">
        <ele>535.030</ele>
        <time>1998-01-15T11:30:30Z</time>
      </trkpt>
      <trkpt lat="41.854757" lon="0.778978">
        <ele>534.027</ele>
        <time>1998-01-15T11:30:33Z</time>
      </trkpt>
      <trkpt lat="41.854705" lon="0.778902">
        <ele>533.444</ele>
        <time>1998-01-15T11:30:34Z</time>
      </trkpt>
      <trkpt lat="41.854572" lon="0.778670">
        <ele>532.815</ele>
        <time>1998-01-15T11:30:37Z</time>
      </trkpt>
      <trkpt lat="41.854514" lon="0.778507">
        <ele>532.655</ele>
        <time>1998-01-15T11:30:39Z</time>
      </trkpt>
      <trkpt lat="41.854478" lon="0.778430">
        <ele>532.407</ele>
        <time>1998-01-15T11:30:40Z</time>
      </trkpt>
      <trkpt lat="41.854381" lon="0.778329">
        <ele>531.817</ele>
        <time>1998-01-15T11:30:42Z</time>
      </trkpt>
      <trkpt lat="41.854335" lon="0.778274">
        <ele>531.408</ele>
        <time>1998-01-15T11:30:43Z</time>
      </trkpt>
      <trkpt lat="41.854174" lon="0.778095">
        <ele>530.297</ele>
        <time>1998-01-15T11:30:46Z</time>
      </trkpt>
      <trkpt lat="41.854039" lon="0.777989">
        <ele>529.227</ele>
        <time>1998-01-15T11:30:48Z</time>
      </trkpt>
      <trkpt lat="41.853934" lon="0.777890">
        <ele>527.818</ele>
        <time>1998-01-15T11:30:50Z</time>
      </trkpt>
      <trkpt lat="41.853878" lon="0.777757">
        <ele>526.680</ele>
        <time>1998-01-15T11:30:52Z</time>
      </trkpt>
      <trkpt lat="41.853860" lon="0.777683">
        <ele>526.088</ele>
        <time>1998-01-15T11:30:53Z</time>
      </trkpt>
      <trkpt lat="41.853831" lon="0.777628">
        <ele>525.285</ele>
        <time>1998-01-15T11:30:54Z</time>
      </trkpt>
      <trkpt lat="41.853767" lon="0.777576">
        <ele>524.232</ele>
        <time>1998-01-15T11:30:56Z</time>
      </trkpt>
      <trkpt lat="41.853703" lon="0.777515">
        <ele>522.823</ele>
        <time>1998-01-15T11:30:59Z</time>
      </trkpt>
      <trkpt lat="41.853680" lon="0.777456">
        <ele>522.214</ele>
        <time>1998-01-15T11:31:01Z</time>
      </trkpt>
      <trkpt lat="41.853638" lon="0.777357">
        <ele>521.654</ele>
        <time>1998-01-15T11:31:04Z</time>
      </trkpt>
      <trkpt lat="41.853608" lon="0.777262">
        <ele>522.409</ele>
        <time>1998-01-15T11:31:08Z</time>
      </trkpt>
      <trkpt lat="41.853591" lon="0.777219">
        <ele>523.008</ele>
        <time>1998-01-15T11:31:10Z</time>
      </trkpt>
      <trkpt lat="41.853537" lon="0.777074">
        <ele>523.843</ele>
        <time>1998-01-15T11:31:16Z</time>
      </trkpt>
      <trkpt lat="41.853526" lon="0.777051">
        <ele>524.013</ele>
        <time>1998-01-15T11:31:17Z</time>
      </trkpt>
      <trkpt lat="41.853485" lon="0.776959">
        <ele>525.294</ele>
        <time>1998-01-15T11:31:21Z</time>
      </trkpt>
      <trkpt lat="41.853447" lon="0.776887">
        <ele>526.676</ele>
        <time>1998-01-15T11:31:24Z</time>
      </trkpt>
      <trkpt lat="41.853433" lon="0.776865">
        <ele>526.624</ele>
        <time>1998-01-15T11:31:25Z</time>
      </trkpt>
      <trkpt lat="41.853366" lon="0.776769">
        <ele>527.611</ele>
        <time>1998-01-15T11:31:30Z</time>
      </trkpt>
      <trkpt lat="41.853352" lon="0.776756">
        <ele>528.068</ele>
        <time>1998-01-15T11:31:31Z</time>
      </trkpt>
      <trkpt lat="41.853324" lon="0.776730">
        <ele>528.869</ele>
        <time>1998-01-15T11:31:33Z</time>
      </trkpt>
      <trkpt lat="41.853281" lon="0.776698">
        <ele>530.067</ele>
        <time>1998-01-15T11:31:36Z</time>
      </trkpt>
      <trkpt lat="41.853266" lon="0.776693">
        <ele>530.481</ele>
        <time>1998-01-15T11:31:37Z</time>
      </trkpt>
      <trkpt lat="41.853218" lon="0.776690">
        <ele>531.219</ele>
        <time>1998-01-15T11:31:40Z</time>
      </trkpt>
      <trkpt lat="41.853184" lon="0.776687">
        <ele>532.008</ele>
        <time>1998-01-15T11:31:42Z</time>
      </trkpt>
      <trkpt lat="41.853157" lon="0.776698">
        <ele>532.638</ele>
        <time>1998-01-15T11:31:44Z</time>
      </trkpt>
      <trkpt lat="41.853101" lon="0.776724">
        <ele>533.418</ele>
        <time>1998-01-15T11:31:48Z</time>
      </trkpt>
      <trkpt lat="41.853073" lon="0.776738">
        <ele>533.839</ele>
        <time>1998-01-15T11:31:50Z</time>
      </trkpt>
      <trkpt lat="41.852988" lon="0.776748">
        <ele>535.011</ele>
        <time>1998-01-15T11:31:56Z</time>
      </trkpt>
      <trkpt lat="41.852914" lon="0.776721">
        <ele>535.699</ele>
        <time>1998-01-15T11:32:01Z</time>
      </trkpt>
      <trkpt lat="41.852889" lon="0.776700">
        <ele>536.276</ele>
        <time>1998-01-15T11:32:03Z</time>
      </trkpt>
      <trkpt lat="41.852844" lon="0.776610">
        <ele>537.253</ele>
        <time>1998-01-15T11:32:09Z</time>
      </trkpt>
      <trkpt lat="41.852825" lon="0.776563">
        <ele>537.464</ele>
        <time>1998-01-15T11:32:12Z</time>
      </trkpt>
      <trkpt lat="41.852813" lon="0.776510">
        <ele>538.464</ele>
        <time>1998-01-15T11:32:15Z</time>
      </trkpt>
      <trkpt lat="41.852809" lon="0.776492">
        <ele>538.606</ele>
        <time>1998-01-15T11:32:16Z</time>
      </trkpt>
      <trkpt lat="41.852806" lon="0.776458">
        <ele>539.416</ele>
        <time>1998-01-15T11:32:18Z</time>
      </trkpt>
      <trkpt lat="41.852803" lon="0.776331">
        <ele>540.408</ele>
        <time>1998-01-15T11:32:26Z</time>
      </trkpt>
      <trkpt lat="41.852797" lon="0.776317">
        <ele>540.838</ele>
        <time>1998-01-15T11:32:27Z</time>
      </trkpt>
      <trkpt lat="41.852783" lon="0.776229">
        <ele>541.088</ele>
        <time>1998-01-15T11:32:32Z</time>
      </trkpt>
      <trkpt lat="41.852783" lon="0.776213">
        <ele>541.279</ele>
        <time>1998-01-15T11:32:33Z</time>
      </trkpt>
      <trkpt lat="41.852779" lon="0.776166">
        <ele>541.821</ele>
        <time>1998-01-15T11:32:36Z</time>
      </trkpt>
      <trkpt lat="41.852769" lon="0.776115">
        <ele>542.819</ele>
        <time>1998-01-15T11:32:39Z</time>
      </trkpt>
      <trkpt lat="41.852759" lon="0.776082">
        <ele>543.226</ele>
        <time>1998-01-15T11:32:41Z</time>
      </trkpt>
      <trkpt lat="41.852736" lon="0.775969">
        <ele>544.263</ele>
        <time>1998-01-15T11:32:48Z</time>
      </trkpt>
      <trkpt lat="41.852707" lon="0.775860">
        <ele>544.444</ele>
        <time>1998-01-15T11:32:54Z</time>
      </trkpt>
      <trkpt lat="41.852702" lon="0.775840">
        <ele>544.253</ele>
        <time>1998-01-15T11:32:55Z</time>
      </trkpt>
      <trkpt lat="41.852689" lon="0.775784">
        <ele>544.804</ele>
        <time>1998-01-15T11:32:58Z</time>
      </trkpt>
      <trkpt lat="41.852684" lon="0.775766">
        <ele>545.214</ele>
        <time>1998-01-15T11:32:59Z</time>
      </trkpt>
      <trkpt lat="41.852662" lon="0.775689">
        <ele>546.208</ele>
        <time>1998-01-15T11:33:03Z</time>
      </trkpt>
      <trkpt lat="41.852636" lon="0.775595">
        <ele>546.287</ele>
        <time>1998-01-15T11:33:08Z</time>
      </trkpt>
      <trkpt lat="41.852623" lon="0.775561">
        <ele>546.867</ele>
        <time>1998-01-15T11:33:10Z</time>
      </trkpt>
      <trkpt lat="41.852607" lon="0.775528">
        <ele>547.498</ele>
        <time>1998-01-15T11:33:12Z</time>
      </trkpt>
      <trkpt lat="41.852572" lon="0.775443">
        <ele>548.010</ele>
        <time>1998-01-15T11:33:17Z</time>
      </trkpt>
      <trkpt lat="41.852562" lon="0.775430">
        <ele>548.058</ele>
        <time>1998-01-15T11:33:18Z</time>
      </trkpt>
      <trkpt lat="41.852551" lon="0.775384">
        <ele>548.655</ele>
        <time>1998-01-15T11:33:21Z</time>
      </trkpt>
      <trkpt lat="41.852545" lon="0.775370">
        <ele>549.012</ele>
        <time>1998-01-15T11:33:22Z</time>
      </trkpt>
      <trkpt lat="41.852518" lon="0.775317">
        <ele>549.643</ele>
        <time>1998-01-15T11:33:25Z</time>
      </trkpt>
      <trkpt lat="41.852487" lon="0.775254">
        <ele>550.275</ele>
        <time>1998-01-15T11:33:30Z</time>
      </trkpt>
      <trkpt lat="41.852456" lon="0.775193">
        <ele>550.828</ele>
        <time>1998-01-15T11:33:34Z</time>
      </trkpt>
      <trkpt lat="41.852452" lon="0.775177">
        <ele>551.020</ele>
        <time>1998-01-15T11:33:35Z</time>
      </trkpt>
      <trkpt lat="41.852430" lon="0.775129">
        <ele>551.608</ele>
        <time>1998-01-15T11:33:38Z</time>
      </trkpt>
      <trkpt lat="41.852415" lon="0.775096">
        <ele>552.059</ele>
        <time>1998-01-15T11:33:40Z</time>
      </trkpt>
      <trkpt lat="41.852387" lon="0.775019">
        <ele>552.479</ele>
        <time>1998-01-15T11:33:45Z</time>
      </trkpt>
      <trkpt lat="41.852372" lon="0.774987">
        <ele>553.010</ele>
        <time>1998-01-15T11:33:47Z</time>
      </trkpt>
      <trkpt lat="41.852315" lon="0.774907">
        <ele>553.682</ele>
        <time>1998-01-15T11:33:53Z</time>
      </trkpt>
      <trkpt lat="41.852293" lon="0.774850">
        <ele>554.470</ele>
        <time>1998-01-15T11:33:57Z</time>
      </trkpt>
      <trkpt lat="41.852267" lon="0.774816">
        <ele>554.487</ele>
        <time>1998-01-15T11:33:59Z</time>
      </trkpt>
      <trkpt lat="41.852192" lon="0.774750">
        <ele>555.414</ele>
        <time>1998-01-15T11:34:04Z</time>
      </trkpt>
      <trkpt lat="41.852179" lon="0.774732">
        <ele>555.625</ele>
        <time>1998-01-15T11:34:05Z</time>
      </trkpt>
      <trkpt lat="41.852068" lon="0.774615">
        <ele>556.054</ele>
        <time>1998-01-15T11:34:13Z</time>
      </trkpt>
      <trkpt lat="41.852012" lon="0.774547">
        <ele>556.656</ele>
        <time>1998-01-15T11:34:17Z</time>
      </trkpt>
      <trkpt lat="41.851967" lon="0.774475">
        <ele>556.611</ele>
        <time>1998-01-15T11:34:20Z</time>
      </trkpt>
      <trkpt lat="41.851872" lon="0.774214">
        <ele>556.208</ele>
        <time>1998-01-15T11:34:26Z</time>
      </trkpt>
      <trkpt lat="41.851849" lon="0.774150">
        <ele>555.837</ele>
        <time>1998-01-15T11:34:27Z</time>
      </trkpt>
      <trkpt lat="41.851797" lon="0.773936">
        <ele>555.487</ele>
        <time>1998-01-15T11:34:30Z</time>
      </trkpt>
      <trkpt lat="41.851787" lon="0.773860">
        <ele>555.098</ele>
        <time>1998-01-15T11:34:31Z</time>
      </trkpt>
      <trkpt lat="41.851787" lon="0.773637">
        <ele>554.410</ele>
        <time>1998-01-15T11:34:34Z</time>
      </trkpt>
      <trkpt lat="41.851779" lon="0.773569">
        <ele>554.068</ele>
        <time>1998-01-15T11:34:35Z</time>
      </trkpt>
      <trkpt lat="41.851683" lon="0.773339">
        <ele>553.855</ele>
        <time>1998-01-15T11:34:39Z</time>
      </trkpt>
      <trkpt lat="41.851644" lon="0.773282">
        <ele>553.242</ele>
        <time>1998-01-15T11:34:40Z</time>
      </trkpt>
      <trkpt lat="41.851602" lon="0.773223">
        <ele>552.883</ele>
        <time>1998-01-15T11:34:41Z</time>
      </trkpt>
      <trkpt lat="41.851552" lon="0.773152">
        <ele>552.058</ele>
        <time>1998-01-15T11:34:42Z</time>
      </trkpt>
      <trkpt lat="41.851500" lon="0.773072">
        <ele>551.252</ele>
        <time>1998-01-15T11:34:43Z</time>
      </trkpt>
      <trkpt lat="41.851451" lon="0.772985">
        <ele>550.417</ele>
        <time>1998-01-15T11:34:44Z</time>
      </trkpt>
      <trkpt lat="41.851381" lon="0.772822">
        <ele>549.608</ele>
        <time>1998-01-15T11:34:46Z</time>
      </trkpt>
      <trkpt lat="41.851368" lon="0.772741">
        <ele>549.057</ele>
        <time>1998-01-15T11:34:47Z</time>
      </trkpt>
      <trkpt lat="41.851398" lon="0.772439">
        <ele>547.897</ele>
        <time>1998-01-15T11:34:51Z</time>
      </trkpt>
      <trkpt lat="41.851418" lon="0.772331">
        <ele>546.838</ele>
        <time>1998-01-15T11:34:54Z</time>
      </trkpt>
      <trkpt lat="41.851414" lon="0.772327">
        <ele>546.450</ele>
        <time>1998-01-15T11:34:55Z</time>
      </trkpt>
      <trkpt lat="41.851390" lon="0.772339">
        <ele>546.048</ele>
        <time>1998-01-15T11:35:46Z</time>
      </trkpt>
      <trkpt lat="41.851339" lon="0.772353">
        <ele>545.425</ele>
        <time>1998-01-15T11:35:48Z</time>
      </trkpt>
      <trkpt lat="41.851276" lon="0.772385">
        <ele>544.092</ele>
        <time>1998-01-15T11:35:50Z</time>
      </trkpt>
      <trkpt lat="41.851246" lon="0.772410">
        <ele>543.283</ele>
        <time>1998-01-15T11:35:51Z</time>
      </trkpt>
      <trkpt lat="41.851223" lon="0.772429">
        <ele>542.883</ele>
        <time>1998-01-15T11:35:52Z</time>
      </trkpt>
      <trkpt lat="41.851163" lon="0.772476">
        <ele>541.225</ele>
        <time>1998-01-15T11:35:54Z</time>
      </trkpt>
      <trkpt lat="41.851134" lon="0.772497">
        <ele>540.617</ele>
        <time>1998-01-15T11:35:55Z</time>
      </trkpt>
      <trkpt lat="41.851105" lon="0.772501">
        <ele>539.608</ele>
        <time>1998-01-15T11:35:56Z</time>
      </trkpt>
      <trkpt lat="41.851034" lon="0.772518">
        <ele>537.830</ele>
        <time>1998-01-15T11:35:58Z</time>
      </trkpt>
      <trkpt lat="41.851006" lon="0.772509">
        <ele>536.890</ele>
        <time>1998-01-15T11:35:59Z</time>
      </trkpt>
      <trkpt lat="41.850979" lon="0.772495">
        <ele>535.831</ele>
        <time>1998-01-15T11:36:00Z</time>
      </trkpt>
      <trkpt lat="41.850925" lon="0.772483">
        <ele>534.263</ele>
        <time>1998-01-15T11:36:02Z</time>
      </trkpt>
      <trkpt lat="41.850860" lon="0.772505">
        <ele>532.861</ele>
        <time>1998-01-15T11:36:04Z</time>
      </trkpt>
      <trkpt lat="41.850799" lon="0.772516">
        <ele>531.448</ele>
        <time>1998-01-15T11:36:06Z</time>
      </trkpt>
      <trkpt lat="41.850777" lon="0.772535">
        <ele>530.685</ele>
        <time>1998-01-15T11:36:07Z</time>
      </trkpt>
      <trkpt lat="41.850752" lon="0.772578">
        <ele>529.846</ele>
        <time>1998-01-15T11:36:08Z</time>
      </trkpt>
      <trkpt lat="41.850685" lon="0.772646">
        <ele>528.075</ele>
        <time>1998-01-15T11:36:10Z</time>
      </trkpt>
      <trkpt lat="41.850647" lon="0.772656">
        <ele>527.228</ele>
        <time>1998-01-15T11:36:11Z</time>
      </trkpt>
      <trkpt lat="41.850613" lon="0.772662">
        <ele>526.220</ele>
        <time>1998-01-15T11:36:12Z</time>
      </trkpt>
      <trkpt lat="41.850556" lon="0.772667">
        <ele>524.608</ele>
        <time>1998-01-15T11:36:14Z</time>
      </trkpt>
      <trkpt lat="41.850497" lon="0.772680">
        <ele>523.299</ele>
        <time>1998-01-15T11:36:16Z</time>
      </trkpt>
      <trkpt lat="41.850435" lon="0.772672">
        <ele>521.899</ele>
        <time>1998-01-15T11:36:18Z</time>
      </trkpt>
      <trkpt lat="41.850375" lon="0.772705">
        <ele>520.640</ele>
        <time>1998-01-15T11:36:20Z</time>
      </trkpt>
      <trkpt lat="41.850319" lon="0.772770">
        <ele>519.612</ele>
        <time>1998-01-15T11:36:22Z</time>
      </trkpt>
      <trkpt lat="41.850302" lon="0.772793">
        <ele>519.250</ele>
        <time>1998-01-15T11:36:23Z</time>
      </trkpt>
      <trkpt lat="41.850285" lon="0.772806">
        <ele>518.837</ele>
        <time>1998-01-15T11:36:24Z</time>
      </trkpt>
      <trkpt lat="41.850261" lon="0.772814">
        <ele>518.454</ele>
        <time>1998-01-15T11:36:25Z</time>
      </trkpt>
      <trkpt lat="41.850178" lon="0.772878">
        <ele>517.475</ele>
        <time>1998-01-15T11:36:28Z</time>
      </trkpt>
      <trkpt lat="41.850106" lon="0.773001">
        <ele>516.248</ele>
        <time>1998-01-15T11:36:31Z</time>
      </trkpt>
      <trkpt lat="41.850082" lon="0.773035">
        <ele>516.061</ele>
        <time>1998-01-15T11:36:32Z</time>
      </trkpt>
      <trkpt lat="41.850010" lon="0.773138">
        <ele>515.217</ele>
        <time>1998-01-15T11:36:36Z</time>
      </trkpt>
      <trkpt lat="41.850008" lon="0.773199">
        <ele>515.008</ele>
        <time>1998-01-15T11:36:37Z</time>
      </trkpt>
      <trkpt lat="41.849957" lon="0.773292">
        <ele>515.066</ele>
        <time>1998-01-15T11:36:40Z</time>
      </trkpt>
      <trkpt lat="41.849925" lon="0.773302">
        <ele>515.296</ele>
        <time>1998-01-15T11:36:41Z</time>
      </trkpt>
      <trkpt lat="41.849862" lon="0.773364">
        <ele>515.257</ele>
        <time>1998-01-15T11:36:43Z</time>
      </trkpt>
      <trkpt lat="41.849808" lon="0.773413">
        <ele>514.699</ele>
        <time>1998-01-15T11:36:46Z</time>
      </trkpt>
      <trkpt lat="41.849764" lon="0.773450">
        <ele>514.067</ele>
        <time>1998-01-15T11:36:48Z</time>
      </trkpt>
      <trkpt lat="41.849746" lon="0.773484">
        <ele>513.854</ele>
        <time>1998-01-15T11:36:49Z</time>
      </trkpt>
      <trkpt lat="41.849721" lon="0.773520">
        <ele>513.421</ele>
        <time>1998-01-15T11:36:50Z</time>
      </trkpt>
      <trkpt lat="41.849590" lon="0.773606">
        <ele>513.052</ele>
        <time>1998-01-15T11:36:53Z</time>
      </trkpt>
      <trkpt lat="41.849479" lon="0.773638">
        <ele>512.449</ele>
        <time>1998-01-15T11:36:55Z</time>
      </trkpt>
      <trkpt lat="41.849372" lon="0.773662">
        <ele>512.002</ele>
        <time>1998-01-15T11:36:57Z</time>
      </trkpt>
      <trkpt lat="41.849315" lon="0.773688">
        <ele>511.622</ele>
        <time>1998-01-15T11:36:58Z</time>
      </trkpt>
      <trkpt lat="41.849159" lon="0.773816">
        <ele>511.008</ele>
        <time>1998-01-15T11:37:01Z</time>
      </trkpt>
      <trkpt lat="41.849114" lon="0.773859">
        <ele>510.686</ele>
        <time>1998-01-15T11:37:02Z</time>
      </trkpt>
      <trkpt lat="41.849081" lon="0.773902">
        <ele>510.676</ele>
        <time>1998-01-15T11:37:03Z</time>
      </trkpt>
      <trkpt lat="41.849030" lon="0.773976">
        <ele>510.267</ele>
        <time>1998-01-15T11:37:05Z</time>
      </trkpt>
      <trkpt lat="41.848923" lon="0.774172">
        <ele>509.249</ele>
        <time>1998-01-15T11:37:09Z</time>
      </trkpt>
      <trkpt lat="41.848884" lon="0.774222">
        <ele>508.857</ele>
        <time>1998-01-15T11:37:10Z</time>
      </trkpt>
      <trkpt lat="41.848813" lon="0.774309">
        <ele>508.084</ele>
        <time>1998-01-15T11:37:12Z</time>
      </trkpt>
      <trkpt lat="41.848763" lon="0.774346">
        <ele>507.611</ele>
        <time>1998-01-15T11:37:13Z</time>
      </trkpt>
      <trkpt lat="41.848707" lon="0.774404">
        <ele>506.842</ele>
        <time>1998-01-15T11:37:14Z</time>
      </trkpt>
      <trkpt lat="41.848595" lon="0.774530">
        <ele>505.691</ele>
        <time>1998-01-15T11:37:16Z</time>
      </trkpt>
      <trkpt lat="41.848409" lon="0.774666">
        <ele>504.481</ele>
        <time>1998-01-15T11:37:19Z</time>
      </trkpt>
      <trkpt lat="41.848261" lon="0.774733">
        <ele>503.819</ele>
        <time>1998-01-15T11:37:22Z</time>
      </trkpt>
      <trkpt lat="41.848148" lon="0.774708">
        <ele>503.208</ele>
        <time>1998-01-15T11:37:24Z</time>
      </trkpt>
      <trkpt lat="41.848083" lon="0.774687">
        <ele>502.661</ele>
        <time>1998-01-15T11:37:25Z</time>
      </trkpt>
      <trkpt lat="41.848014" lon="0.774663">
        <ele>502.071</ele>
        <time>1998-01-15T11:37:26Z</time>
      </trkpt>
      <trkpt lat="41.847865" lon="0.774606">
        <ele>500.652</ele>
        <time>1998-01-15T11:37:28Z</time>
      </trkpt>
      <trkpt lat="41.847722" lon="0.774558">
        <ele>499.264</ele>
        <time>1998-01-15T11:37:30Z</time>
      </trkpt>
      <trkpt lat="41.847582" lon="0.774536">
        <ele>497.462</ele>
        <time>1998-01-15T11:37:32Z</time>
      </trkpt>
      <trkpt lat="41.847430" lon="0.774529">
        <ele>495.839</ele>
        <time>1998-01-15T11:37:34Z</time>
      </trkpt>
      <trkpt lat="41.847358" lon="0.774538">
        <ele>495.076</ele>
        <time>1998-01-15T11:37:35Z</time>
      </trkpt>
      <trkpt lat="41.847289" lon="0.774548">
        <ele>494.247</ele>
        <time>1998-01-15T11:37:36Z</time>
      </trkpt>
      <trkpt lat="41.847221" lon="0.774544">
        <ele>493.226</ele>
        <time>1998-01-15T11:37:37Z</time>
      </trkpt>
      <trkpt lat="41.847150" lon="0.774538">
        <ele>492.447</ele>
        <time>1998-01-15T11:37:38Z</time>
      </trkpt>
      <trkpt lat="41.847007" lon="0.774528">
        <ele>490.411</ele>
        <time>1998-01-15T11:37:40Z</time>
      </trkpt>
      <trkpt lat="41.846864" lon="0.774509">
        <ele>488.408</ele>
        <time>1998-01-15T11:37:42Z</time>
      </trkpt>
      <trkpt lat="41.846725" lon="0.774475">
        <ele>487.094</ele>
        <time>1998-01-15T11:37:44Z</time>
      </trkpt>
      <trkpt lat="41.846648" lon="0.774464">
        <ele>486.254</ele>
        <time>1998-01-15T11:37:45Z</time>
      </trkpt>
      <trkpt lat="41.846570" lon="0.774464">
        <ele>485.685</ele>
        <time>1998-01-15T11:37:46Z</time>
      </trkpt>
      <trkpt lat="41.846417" lon="0.774443">
        <ele>484.647</ele>
        <time>1998-01-15T11:37:48Z</time>
      </trkpt>
      <trkpt lat="41.846337" lon="0.774427">
        <ele>484.045</ele>
        <time>1998-01-15T11:37:49Z</time>
      </trkpt>
      <trkpt lat="41.846256" lon="0.774427">
        <ele>483.452</ele>
        <time>1998-01-15T11:37:50Z</time>
      </trkpt>
      <trkpt lat="41.846101" lon="0.774452">
        <ele>482.249</ele>
        <time>1998-01-15T11:37:52Z</time>
      </trkpt>
      <trkpt lat="41.846030" lon="0.774466">
        <ele>481.640</ele>
        <time>1998-01-15T11:37:53Z</time>
      </trkpt>
      <trkpt lat="41.845972" lon="0.774466">
        <ele>481.268</ele>
        <time>1998-01-15T11:37:54Z</time>
      </trkpt>
      <trkpt lat="41.845924" lon="0.774447">
        <ele>481.042</ele>
        <time>1998-01-15T11:37:55Z</time>
      </trkpt>
      <trkpt lat="41.845880" lon="0.774432">
        <ele>480.826</ele>
        <time>1998-01-15T11:37:56Z</time>
      </trkpt>
      <trkpt lat="41.845699" lon="0.774345">
        <ele>479.808</ele>
        <time>1998-01-15T11:38:01Z</time>
      </trkpt>
      <trkpt lat="41.845527" lon="0.774298">
        <ele>479.488</ele>
        <time>1998-01-15T11:38:06Z</time>
      </trkpt>
      <trkpt lat="41.845352" lon="0.774285">
        <ele>479.818</ele>
        <time>1998-01-15T11:38:12Z</time>
      </trkpt>
      <trkpt lat="41.845199" lon="0.774257">
        <ele>480.859</ele>
        <time>1998-01-15T11:38:17Z</time>
      </trkpt>
      <trkpt lat="41.845163" lon="0.774247">
        <ele>481.091</ele>
        <time>1998-01-15T11:38:18Z</time>
      </trkpt>
      <trkpt lat="41.844988" lon="0.774209">
        <ele>481.099</ele>
        <time>1998-01-15T11:38:22Z</time>
      </trkpt>
      <trkpt lat="41.844933" lon="0.774214">
        <ele>480.816</ele>
        <time>1998-01-15T11:38:23Z</time>
      </trkpt>
      <trkpt lat="41.844726" lon="0.774267">
        <ele>479.213</ele>
        <time>1998-01-15T11:38:26Z</time>
      </trkpt>
      <trkpt lat="41.844644" lon="0.774294">
        <ele>478.694</ele>
        <time>1998-01-15T11:38:27Z</time>
      </trkpt>
      <trkpt lat="41.844558" lon="0.774315">
        <ele>477.488</ele>
        <time>1998-01-15T11:38:28Z</time>
      </trkpt>
      <trkpt lat="41.844478" lon="0.774333">
        <ele>476.224</ele>
        <time>1998-01-15T11:38:29Z</time>
      </trkpt>
      <trkpt lat="41.844402" lon="0.774365">
        <ele>475.026</ele>
        <time>1998-01-15T11:38:30Z</time>
      </trkpt>
      <trkpt lat="41.844328" lon="0.774407">
        <ele>473.408</ele>
        <time>1998-01-15T11:38:31Z</time>
      </trkpt>
      <trkpt lat="41.844255" lon="0.774459">
        <ele>472.060</ele>
        <time>1998-01-15T11:38:32Z</time>
      </trkpt>
      <trkpt lat="41.844188" lon="0.774511">
        <ele>470.620</ele>
        <time>1998-01-15T11:38:33Z</time>
      </trkpt>
      <trkpt lat="41.844129" lon="0.774562">
        <ele>469.461</ele>
        <time>1998-01-15T11:38:34Z</time>
      </trkpt>
      <trkpt lat="41.844068" lon="0.774610">
        <ele>468.093</ele>
        <time>1998-01-15T11:38:35Z</time>
      </trkpt>
      <trkpt lat="41.844014" lon="0.774651">
        <ele>466.851</ele>
        <time>1998-01-15T11:38:36Z</time>
      </trkpt>
      <trkpt lat="41.843976" lon="0.774691">
        <ele>466.088</ele>
        <time>1998-01-15T11:38:37Z</time>
      </trkpt>
      <trkpt lat="41.843948" lon="0.774726">
        <ele>465.245</ele>
        <time>1998-01-15T11:38:38Z</time>
      </trkpt>
      <trkpt lat="41.843933" lon="0.774801">
        <ele>463.866</ele>
        <time>1998-01-15T11:38:40Z</time>
      </trkpt>
      <trkpt lat="41.843922" lon="0.774837">
        <ele>463.274</ele>
        <time>1998-01-15T11:38:41Z</time>
      </trkpt>
      <trkpt lat="41.843894" lon="0.774862">
        <ele>462.656</ele>
        <time>1998-01-15T11:38:42Z</time>
      </trkpt>
      <trkpt lat="41.843841" lon="0.774930">
        <ele>461.421</ele>
        <time>1998-01-15T11:38:44Z</time>
      </trkpt>
      <trkpt lat="41.843817" lon="0.774962">
        <ele>461.008</ele>
        <time>1998-01-15T11:38:45Z</time>
      </trkpt>
      <trkpt lat="41.843789" lon="0.775007">
        <ele>460.259</ele>
        <time>1998-01-15T11:38:47Z</time>
      </trkpt>
      <trkpt lat="41.843787" lon="0.775035">
        <ele>459.879</ele>
        <time>1998-01-15T11:38:48Z</time>
      </trkpt>
      <trkpt lat="41.843820" lon="0.775120">
        <ele>458.680</ele>
        <time>1998-01-15T11:38:51Z</time>
      </trkpt>
      <trkpt lat="41.843844" lon="0.775134">
        <ele>457.832</ele>
        <time>1998-01-15T11:38:52Z</time>
      </trkpt>
      <trkpt lat="41.843875" lon="0.775150">
        <ele>457.260</ele>
        <time>1998-01-15T11:38:53Z</time>
      </trkpt>
      <trkpt lat="41.843922" lon="0.775227">
        <ele>455.827</ele>
        <time>1998-01-15T11:38:55Z</time>
      </trkpt>
      <trkpt lat="41.843939" lon="0.775279">
        <ele>455.074</ele>
        <time>1998-01-15T11:38:56Z</time>
      </trkpt>
      <trkpt lat="41.843943" lon="0.775324">
        <ele>454.225</ele>
        <time>1998-01-15T11:38:57Z</time>
      </trkpt>
      <trkpt lat="41.843911" lon="0.775420">
        <ele>453.448</ele>
        <time>1998-01-15T11:38:59Z</time>
      </trkpt>
      <trkpt lat="41.843882" lon="0.775462">
        <ele>452.661</ele>
        <time>1998-01-15T11:39:00Z</time>
      </trkpt>
      <trkpt lat="41.843860" lon="0.775498">
        <ele>452.217</ele>
        <time>1998-01-15T11:39:01Z</time>
      </trkpt>
      <trkpt lat="41.843836" lon="0.775530">
        <ele>451.408</ele>
        <time>1998-01-15T11:39:02Z</time>
      </trkpt>
      <trkpt lat="41.843805" lon="0.775605">
        <ele>449.866</ele>
        <time>1998-01-15T11:39:04Z</time>
      </trkpt>
      <trkpt lat="41.843779" lon="0.775684">
        <ele>448.496</ele>
        <time>1998-01-15T11:39:06Z</time>
      </trkpt>
      <trkpt lat="41.843747" lon="0.775717">
        <ele>447.687</ele>
        <time>1998-01-15T11:39:07Z</time>
      </trkpt>
      <trkpt lat="41.843727" lon="0.775754">
        <ele>446.869</ele>
        <time>1998-01-15T11:39:08Z</time>
      </trkpt>
      <trkpt lat="41.843696" lon="0.775828">
        <ele>445.467</ele>
        <time>1998-01-15T11:39:10Z</time>
      </trkpt>
      <trkpt lat="41.843688" lon="0.775869">
        <ele>444.644</ele>
        <time>1998-01-15T11:39:11Z</time>
      </trkpt>
      <trkpt lat="41.843685" lon="0.775921">
        <ele>444.271</ele>
        <time>1998-01-15T11:39:12Z</time>
      </trkpt>
      <trkpt lat="41.843668" lon="0.775998">
        <ele>443.232</ele>
        <time>1998-01-15T11:39:14Z</time>
      </trkpt>
      <trkpt lat="41.843660" lon="0.776043">
        <ele>442.617</ele>
        <time>1998-01-15T11:39:15Z</time>
      </trkpt>
      <trkpt lat="41.843651" lon="0.776095">
        <ele>442.087</ele>
        <time>1998-01-15T11:39:16Z</time>
      </trkpt>
      <trkpt lat="41.843596" lon="0.776181">
        <ele>441.015</ele>
        <time>1998-01-15T11:39:18Z</time>
      </trkpt>
      <trkpt lat="41.843566" lon="0.776217">
        <ele>440.608</ele>
        <time>1998-01-15T11:39:19Z</time>
      </trkpt>
      <trkpt lat="41.843546" lon="0.776224">
        <ele>440.033</ele>
        <time>1998-01-15T11:39:21Z</time>
      </trkpt>
      <trkpt lat="41.843521" lon="0.776224">
        <ele>440.223</ele>
        <time>1998-01-15T11:39:39Z</time>
      </trkpt>
      <trkpt lat="41.843515" lon="0.776202">
        <ele>440.294</ele>
        <time>1998-01-15T11:39:40Z</time>
      </trkpt>
      <trkpt lat="41.843519" lon="0.776180">
        <ele>440.446</ele>
        <time>1998-01-15T11:39:41Z</time>
      </trkpt>
      <trkpt lat="41.843526" lon="0.776062">
        <ele>441.254</ele>
        <time>1998-01-15T11:39:45Z</time>
      </trkpt>
      <trkpt lat="41.843526" lon="0.776029">
        <ele>441.491</ele>
        <time>1998-01-15T11:39:46Z</time>
      </trkpt>
      <trkpt lat="41.843494" lon="0.775949">
        <ele>441.838</ele>
        <time>1998-01-15T11:39:48Z</time>
      </trkpt>
      <trkpt lat="41.843458" lon="0.775869">
        <ele>441.869</ele>
        <time>1998-01-15T11:39:50Z</time>
      </trkpt>
      <trkpt lat="41.843402" lon="0.775790">
        <ele>441.895</ele>
        <time>1998-01-15T11:39:52Z</time>
      </trkpt>
      <trkpt lat="41.843355" lon="0.775699">
        <ele>441.449</ele>
        <time>1998-01-15T11:39:54Z</time>
      </trkpt>
      <trkpt lat="41.843262" lon="0.775654">
        <ele>440.823</ele>
        <time>1998-01-15T11:39:57Z</time>
      </trkpt>
      <trkpt lat="41.843213" lon="0.775686">
        <ele>439.608</ele>
        <time>1998-01-15T11:39:59Z</time>
      </trkpt>
      <trkpt lat="41.843198" lon="0.775752">
        <ele>438.451</ele>
        <time>1998-01-15T11:40:01Z</time>
      </trkpt>
      <trkpt lat="41.843222" lon="0.775882">
        <ele>437.221</ele>
        <time>1998-01-15T11:40:04Z</time>
      </trkpt>
      <trkpt lat="41.843200" lon="0.775906">
        <ele>437.042</ele>
        <time>1998-01-15T11:40:05Z</time>
      </trkpt>
      <trkpt lat="41.843109" lon="0.775896">
        <ele>433.084</ele>
        <time>1998-01-15T11:40:24Z</time>
      </trkpt>
      <trkpt lat="41.843087" lon="0.775865">
        <ele>431.862</ele>
        <time>1998-01-15T11:40:28Z</time>
      </trkpt>
      <trkpt lat="41.843071" lon="0.775860">
        <ele>431.049</ele>
        <time>1998-01-15T11:40:32Z</time>
      </trkpt>
      <trkpt lat="41.843052" lon="0.775869">
        <ele>430.856</ele>
        <time>1998-01-15T11:40:33Z</time>
      </trkpt>
      <trkpt lat="41.843023" lon="0.775869">
        <ele>430.447</ele>
        <time>1998-01-15T11:40:34Z</time>
      </trkpt>
      <trkpt lat="41.842932" lon="0.775833">
        <ele>429.656</ele>
        <time>1998-01-15T11:40:37Z</time>
      </trkpt>
      <trkpt lat="41.842895" lon="0.775843">
        <ele>429.459</ele>
        <time>1998-01-15T11:40:38Z</time>
      </trkpt>
      <trkpt lat="41.842808" lon="0.775859">
        <ele>428.414</ele>
        <time>1998-01-15T11:40:40Z</time>
      </trkpt>
      <trkpt lat="41.842719" lon="0.775865">
        <ele>426.808</ele>
        <time>1998-01-15T11:40:42Z</time>
      </trkpt>
      <trkpt lat="41.842630" lon="0.775909">
        <ele>425.067</ele>
        <time>1998-01-15T11:40:44Z</time>
      </trkpt>
      <trkpt lat="41.842581" lon="0.775926">
        <ele>424.217</ele>
        <time>1998-01-15T11:40:45Z</time>
      </trkpt>
      <trkpt lat="41.842538" lon="0.775942">
        <ele>423.428</ele>
        <time>1998-01-15T11:40:46Z</time>
      </trkpt>
      <trkpt lat="41.842472" lon="0.775968">
        <ele>422.240</ele>
        <time>1998-01-15T11:40:48Z</time>
      </trkpt>
      <trkpt lat="41.842443" lon="0.775981">
        <ele>421.628</ele>
        <time>1998-01-15T11:40:49Z</time>
      </trkpt>
      <trkpt lat="41.842411" lon="0.775990">
        <ele>421.085</ele>
        <time>1998-01-15T11:40:50Z</time>
      </trkpt>
      <trkpt lat="41.842333" lon="0.775988">
        <ele>419.432</ele>
        <time>1998-01-15T11:40:52Z</time>
      </trkpt>
      <trkpt lat="41.842250" lon="0.775991">
        <ele>417.823</ele>
        <time>1998-01-15T11:40:54Z</time>
      </trkpt>
      <trkpt lat="41.842186" lon="0.775992">
        <ele>416.278</ele>
        <time>1998-01-15T11:40:56Z</time>
      </trkpt>
      <trkpt lat="41.842141" lon="0.776025">
        <ele>414.633</ele>
        <time>1998-01-15T11:40:58Z</time>
      </trkpt>
      <trkpt lat="41.842076" lon="0.776059">
        <ele>413.226</ele>
        <time>1998-01-15T11:41:00Z</time>
      </trkpt>
      <trkpt lat="41.842021" lon="0.776085">
        <ele>411.808</ele>
        <time>1998-01-15T11:41:02Z</time>
      </trkpt>
      <trkpt lat="41.841944" lon="0.776129">
        <ele>409.859</ele>
        <time>1998-01-15T11:41:04Z</time>
      </trkpt>
      <trkpt lat="41.841859" lon="0.776183">
        <ele>407.839</ele>
        <time>1998-01-15T11:41:06Z</time>
      </trkpt>
      <trkpt lat="41.841769" lon="0.776208">
        <ele>406.210</ele>
        <time>1998-01-15T11:41:08Z</time>
      </trkpt>
      <trkpt lat="41.841722" lon="0.776235">
        <ele>405.422</ele>
        <time>1998-01-15T11:41:09Z</time>
      </trkpt>
      <trkpt lat="41.841693" lon="0.776266">
        <ele>404.890</ele>
        <time>1998-01-15T11:41:10Z</time>
      </trkpt>
      <trkpt lat="41.841675" lon="0.776284">
        <ele>404.277</ele>
        <time>1998-01-15T11:41:11Z</time>
      </trkpt>
      <trkpt lat="41.841650" lon="0.776320">
        <ele>403.644</ele>
        <time>1998-01-15T11:41:12Z</time>
      </trkpt>
      <trkpt lat="41.841616" lon="0.776382">
        <ele>402.895</ele>
        <time>1998-01-15T11:41:13Z</time>
      </trkpt>
      <trkpt lat="41.841615" lon="0.776445">
        <ele>401.821</ele>
        <time>1998-01-15T11:41:14Z</time>
      </trkpt>
      <trkpt lat="41.841622" lon="0.776503">
        <ele>400.841</ele>
        <time>1998-01-15T11:41:15Z</time>
      </trkpt>
      <trkpt lat="41.841636" lon="0.776570">
        <ele>400.205</ele>
        <time>1998-01-15T11:41:16Z</time>
      </trkpt>
      <trkpt lat="41.841666" lon="0.776687">
        <ele>398.808</ele>
        <time>1998-01-15T11:41:18Z</time>
      </trkpt>
      <trkpt lat="41.841664" lon="0.776735">
        <ele>398.274</ele>
        <time>1998-01-15T11:41:19Z</time>
      </trkpt>
      <trkpt lat="41.841651" lon="0.776767">
        <ele>397.694</ele>
        <time>1998-01-15T11:41:20Z</time>
      </trkpt>
      <trkpt lat="41.841562" lon="0.776804">
        <ele>396.615</ele>
        <time>1998-01-15T11:41:22Z</time>
      </trkpt>
      <trkpt lat="41.841446" lon="0.776823">
        <ele>395.267</ele>
        <time>1998-01-15T11:41:24Z</time>
      </trkpt>
      <trkpt lat="41.841384" lon="0.776843">
        <ele>394.415</ele>
        <time>1998-01-15T11:41:25Z</time>
      </trkpt>
      <trkpt lat="41.841319" lon="0.776866">
        <ele>393.682</ele>
        <time>1998-01-15T11:41:26Z</time>
      </trkpt>
      <trkpt lat="41.841180" lon="0.776910">
        <ele>392.069</ele>
        <time>1998-01-15T11:41:28Z</time>
      </trkpt>
      <trkpt lat="41.841041" lon="0.776944">
        <ele>391.020</ele>
        <time>1998-01-15T11:41:30Z</time>
      </trkpt>
      <trkpt lat="41.840895" lon="0.776984">
        <ele>390.212</ele>
        <time>1998-01-15T11:41:32Z</time>
      </trkpt>
      <trkpt lat="41.840825" lon="0.777011">
        <ele>389.832</ele>
        <time>1998-01-15T11:41:33Z</time>
      </trkpt>
      <trkpt lat="41.840654" lon="0.777111">
        <ele>389.405</ele>
        <time>1998-01-15T11:41:36Z</time>
      </trkpt>
      <trkpt lat="41.840499" lon="0.777133">
        <ele>390.208</ele>
        <time>1998-01-15T11:41:40Z</time>
      </trkpt>
      <trkpt lat="41.840394" lon="0.777086">
        <ele>391.083</ele>
        <time>1998-01-15T11:41:43Z</time>
      </trkpt>
      <trkpt lat="41.840342" lon="0.777038">
        <ele>391.623</ele>
        <time>1998-01-15T11:41:45Z</time>
      </trkpt>
      <trkpt lat="41.840316" lon="0.777026">
        <ele>392.264</ele>
        <time>1998-01-15T11:41:46Z</time>
      </trkpt>
      <trkpt lat="41.840253" lon="0.776972">
        <ele>393.446</ele>
        <time>1998-01-15T11:41:49Z</time>
      </trkpt>
      <trkpt lat="41.840226" lon="0.776958">
        <ele>393.894</ele>
        <time>1998-01-15T11:41:50Z</time>
      </trkpt>
      <trkpt lat="41.840185" lon="0.776913">
        <ele>394.691</ele>
        <time>1998-01-15T11:41:52Z</time>
      </trkpt>
      <trkpt lat="41.840130" lon="0.776838">
        <ele>396.038</ele>
        <time>1998-01-15T11:41:55Z</time>
      </trkpt>
      <trkpt lat="41.840098" lon="0.776754">
        <ele>397.249</ele>
        <time>1998-01-15T11:41:58Z</time>
      </trkpt>
      <trkpt lat="41.840078" lon="0.776666">
        <ele>398.048</ele>
        <time>1998-01-15T11:42:01Z</time>
      </trkpt>
      <trkpt lat="41.840067" lon="0.776532">
        <ele>398.461</ele>
        <time>1998-01-15T11:42:05Z</time>
      </trkpt>
      <trkpt lat="41.840041" lon="0.776444">
        <ele>398.417</ele>
        <time>1998-01-15T11:42:07Z</time>
      </trkpt>
      <trkpt lat="41.839965" lon="0.776384">
        <ele>398.008</ele>
        <time>1998-01-15T11:42:09Z</time>
      </trkpt>
      <trkpt lat="41.839914" lon="0.776377">
        <ele>397.896</ele>
        <time>1998-01-15T11:42:10Z</time>
      </trkpt>
      <trkpt lat="41.839791" lon="0.776373">
        <ele>397.436</ele>
        <time>1998-01-15T11:42:12Z</time>
      </trkpt>
      <trkpt lat="41.839655" lon="0.776382">
        <ele>396.637</ele>
        <time>1998-01-15T11:42:14Z</time>
      </trkpt>
      <trkpt lat="41.839583" lon="0.776389">
        <ele>396.279</ele>
        <time>1998-01-15T11:42:15Z</time>
      </trkpt>
      <trkpt lat="41.839355" lon="0.776438">
        <ele>394.617</ele>
        <time>1998-01-15T11:42:18Z</time>
      </trkpt>
      <trkpt lat="41.839279" lon="0.776469">
        <ele>394.234</ele>
        <time>1998-01-15T11:42:19Z</time>
      </trkpt>
      <trkpt lat="41.839203" lon="0.776500">
        <ele>393.661</ele>
        <time>1998-01-15T11:42:20Z</time>
      </trkpt>
      <trkpt lat="41.839048" lon="0.776561">
        <ele>392.252</ele>
        <time>1998-01-15T11:42:22Z</time>
      </trkpt>
      <trkpt lat="41.838964" lon="0.776580">
        <ele>391.232</ele>
        <time>1998-01-15T11:42:23Z</time>
      </trkpt>
      <trkpt lat="41.838871" lon="0.776593">
        <ele>390.492</ele>
        <time>1998-01-15T11:42:24Z</time>
      </trkpt>
      <trkpt lat="41.838770" lon="0.776598">
        <ele>389.611</ele>
        <time>1998-01-15T11:42:25Z</time>
      </trkpt>
      <trkpt lat="41.838666" lon="0.776596">
        <ele>388.608</ele>
        <time>1998-01-15T11:42:26Z</time>
      </trkpt>
      <trkpt lat="41.838561" lon="0.776579">
        <ele>387.855</ele>
        <time>1998-01-15T11:42:27Z</time>
      </trkpt>
      <trkpt lat="41.838453" lon="0.776548">
        <ele>386.875</ele>
        <time>1998-01-15T11:42:28Z</time>
      </trkpt>
      <trkpt lat="41.838352" lon="0.776511">
        <ele>386.056</ele>
        <time>1998-01-15T11:42:29Z</time>
      </trkpt>
      <trkpt lat="41.838259" lon="0.776471">
        <ele>385.258</ele>
        <time>1998-01-15T11:42:30Z</time>
      </trkpt>
      <trkpt lat="41.838092" lon="0.776387">
        <ele>383.656</ele>
        <time>1998-01-15T11:42:32Z</time>
      </trkpt>
      <trkpt lat="41.838009" lon="0.776335">
        <ele>382.873</ele>
        <time>1998-01-15T11:42:33Z</time>
      </trkpt>
      <trkpt lat="41.837923" lon="0.776288">
        <ele>382.040</ele>
        <time>1998-01-15T11:42:34Z</time>
      </trkpt>
      <trkpt lat="41.837739" lon="0.776206">
        <ele>380.241</ele>
        <time>1998-01-15T11:42:36Z</time>
      </trkpt>
      <trkpt lat="41.837584" lon="0.776144">
        <ele>378.225</ele>
        <time>1998-01-15T11:42:38Z</time>
      </trkpt>
      <trkpt lat="41.837509" lon="0.776098">
        <ele>377.026</ele>
        <time>1998-01-15T11:42:39Z</time>
      </trkpt>
      <trkpt lat="41.837437" lon="0.776062">
        <ele>376.008</ele>
        <time>1998-01-15T11:42:40Z</time>
      </trkpt>
      <trkpt lat="41.837370" lon="0.776032">
        <ele>375.008</ele>
        <time>1998-01-15T11:42:41Z</time>
      </trkpt>
      <trkpt lat="41.837309" lon="0.776034">
        <ele>374.294</ele>
        <time>1998-01-15T11:42:42Z</time>
      </trkpt>
      <trkpt lat="41.837253" lon="0.776030">
        <ele>373.844</ele>
        <time>1998-01-15T11:42:43Z</time>
      </trkpt>
      <trkpt lat="41.837204" lon="0.776040">
        <ele>373.685</ele>
        <time>1998-01-15T11:42:44Z</time>
      </trkpt>
      <trkpt lat="41.837125" lon="0.776119">
        <ele>373.077</ele>
        <time>1998-01-15T11:42:46Z</time>
      </trkpt>
      <trkpt lat="41.837088" lon="0.776163">
        <ele>372.815</ele>
        <time>1998-01-15T11:42:47Z</time>
      </trkpt>
      <trkpt lat="41.837051" lon="0.776198">
        <ele>372.672</ele>
        <time>1998-01-15T11:42:48Z</time>
      </trkpt>
      <trkpt lat="41.836980" lon="0.776266">
        <ele>372.239</ele>
        <time>1998-01-15T11:42:50Z</time>
      </trkpt>
      <trkpt lat="41.836950" lon="0.776306">
        <ele>371.620</ele>
        <time>1998-01-15T11:42:51Z</time>
      </trkpt>
      <trkpt lat="41.836930" lon="0.776354">
        <ele>371.448</ele>
        <time>1998-01-15T11:42:52Z</time>
      </trkpt>
      <trkpt lat="41.836905" lon="0.776450">
        <ele>370.661</ele>
        <time>1998-01-15T11:42:54Z</time>
      </trkpt>
      <trkpt lat="41.836820" lon="0.776517">
        <ele>370.217</ele>
        <time>1998-01-15T11:42:56Z</time>
      </trkpt>
      <trkpt lat="41.836754" lon="0.776595">
        <ele>369.608</ele>
        <time>1998-01-15T11:42:58Z</time>
      </trkpt>
      <trkpt lat="41.836727" lon="0.776685">
        <ele>368.896</ele>
        <time>1998-01-15T11:43:00Z</time>
      </trkpt>
      <trkpt lat="41.836730" lon="0.776757">
        <ele>368.626</ele>
        <time>1998-01-15T11:43:01Z</time>
      </trkpt>
      <trkpt lat="41.836726" lon="0.776830">
        <ele>368.287</ele>
        <time>1998-01-15T11:43:02Z</time>
      </trkpt>
      <trkpt lat="41.836719" lon="0.776901">
        <ele>367.829</ele>
        <time>1998-01-15T11:43:03Z</time>
      </trkpt>
      <trkpt lat="41.836691" lon="0.776955">
        <ele>367.487</ele>
        <time>1998-01-15T11:43:04Z</time>
      </trkpt>
      <trkpt lat="41.836660" lon="0.777008">
        <ele>367.054</ele>
        <time>1998-01-15T11:43:05Z</time>
      </trkpt>
      <trkpt lat="41.836636" lon="0.777063">
        <ele>366.891</ele>
        <time>1998-01-15T11:43:06Z</time>
      </trkpt>
      <trkpt lat="41.836582" lon="0.777161">
        <ele>366.062</ele>
        <time>1998-01-15T11:43:08Z</time>
      </trkpt>
      <trkpt lat="41.836454" lon="0.777303">
        <ele>364.674</ele>
        <time>1998-01-15T11:43:11Z</time>
      </trkpt>
      <trkpt lat="41.836347" lon="0.777414">
        <ele>363.656</ele>
        <time>1998-01-15T11:43:14Z</time>
      </trkpt>
      <trkpt lat="41.836322" lon="0.777452">
        <ele>363.421</ele>
        <time>1998-01-15T11:43:15Z</time>
      </trkpt>
      <trkpt lat="41.836293" lon="0.777528">
        <ele>362.808</ele>
        <time>1998-01-15T11:43:18Z</time>
      </trkpt>
      <trkpt lat="41.836292" lon="0.777601">
        <ele>362.489</ele>
        <time>1998-01-15T11:43:20Z</time>
      </trkpt>
      <trkpt lat="41.836300" lon="0.777681">
        <ele>362.029</ele>
        <time>1998-01-15T11:43:22Z</time>
      </trkpt>
      <trkpt lat="41.836281" lon="0.777778">
        <ele>361.450</ele>
        <time>1998-01-15T11:43:24Z</time>
      </trkpt>
      <trkpt lat="41.836261" lon="0.777877">
        <ele>360.642</ele>
        <time>1998-01-15T11:43:26Z</time>
      </trkpt>
      <trkpt lat="41.836224" lon="0.777973">
        <ele>360.030</ele>
        <time>1998-01-15T11:43:28Z</time>
      </trkpt>
      <trkpt lat="41.836182" lon="0.778077">
        <ele>359.487</ele>
        <time>1998-01-15T11:43:30Z</time>
      </trkpt>
      <trkpt lat="41.836160" lon="0.778134">
        <ele>359.074</ele>
        <time>1998-01-15T11:43:31Z</time>
      </trkpt>
      <trkpt lat="41.836103" lon="0.778246">
        <ele>358.435</ele>
        <time>1998-01-15T11:43:33Z</time>
      </trkpt>
      <trkpt lat="41.836062" lon="0.778296">
        <ele>357.894</ele>
        <time>1998-01-15T11:43:34Z</time>
      </trkpt>
      <trkpt lat="41.836020" lon="0.778340">
        <ele>357.257</ele>
        <time>1998-01-15T11:43:35Z</time>
      </trkpt>
      <trkpt lat="41.835994" lon="0.778386">
        <ele>356.622</ele>
        <time>1998-01-15T11:43:36Z</time>
      </trkpt>
      <trkpt lat="41.835976" lon="0.778477">
        <ele>355.808</ele>
        <time>1998-01-15T11:43:38Z</time>
      </trkpt>
      <trkpt lat="41.835977" lon="0.778520">
        <ele>355.291</ele>
        <time>1998-01-15T11:43:39Z</time>
      </trkpt>
      <trkpt lat="41.835965" lon="0.778599">
        <ele>354.291</ele>
        <time>1998-01-15T11:43:41Z</time>
      </trkpt>
      <trkpt lat="41.835948" lon="0.778635">
        <ele>353.632</ele>
        <time>1998-01-15T11:43:42Z</time>
      </trkpt>
      <trkpt lat="41.835922" lon="0.778663">
        <ele>353.244</ele>
        <time>1998-01-15T11:43:43Z</time>
      </trkpt>
      <trkpt lat="41.835901" lon="0.778708">
        <ele>352.882</ele>
        <time>1998-01-15T11:43:44Z</time>
      </trkpt>
      <trkpt lat="41.835860" lon="0.778745">
        <ele>352.499</ele>
        <time>1998-01-15T11:43:45Z</time>
      </trkpt>
      <trkpt lat="41.835756" lon="0.778837">
        <ele>351.656</ele>
        <time>1998-01-15T11:43:48Z</time>
      </trkpt>
      <trkpt lat="41.835736" lon="0.778876">
        <ele>351.237</ele>
        <time>1998-01-15T11:43:49Z</time>
      </trkpt>
      <trkpt lat="41.835654" lon="0.779070">
        <ele>350.093</ele>
        <time>1998-01-15T11:43:52Z</time>
      </trkpt>
      <trkpt lat="41.835637" lon="0.779142">
        <ele>349.465</ele>
        <time>1998-01-15T11:43:53Z</time>
      </trkpt>
      <trkpt lat="41.835608" lon="0.779198">
        <ele>349.021</ele>
        <time>1998-01-15T11:43:54Z</time>
      </trkpt>
      <trkpt lat="41.835503" lon="0.779256">
        <ele>348.008</ele>
        <time>1998-01-15T11:43:56Z</time>
      </trkpt>
      <trkpt lat="41.835336" lon="0.779323">
        <ele>346.671</ele>
        <time>1998-01-15T11:43:59Z</time>
      </trkpt>
      <trkpt lat="41.835296" lon="0.779368">
        <ele>346.281</ele>
        <time>1998-01-15T11:44:00Z</time>
      </trkpt>
      <trkpt lat="41.835214" lon="0.779463">
        <ele>345.292</ele>
        <time>1998-01-15T11:44:02Z</time>
      </trkpt>
      <trkpt lat="41.835164" lon="0.779502">
        <ele>344.664</ele>
        <time>1998-01-15T11:44:03Z</time>
      </trkpt>
      <trkpt lat="41.835115" lon="0.779551">
        <ele>344.242</ele>
        <time>1998-01-15T11:44:04Z</time>
      </trkpt>
      <trkpt lat="41.834997" lon="0.779642">
        <ele>342.869</ele>
        <time>1998-01-15T11:44:06Z</time>
      </trkpt>
      <trkpt lat="41.834881" lon="0.779768">
        <ele>341.896</ele>
        <time>1998-01-15T11:44:08Z</time>
      </trkpt>
      <trkpt lat="41.834759" lon="0.779924">
        <ele>340.267</ele>
        <time>1998-01-15T11:44:11Z</time>
      </trkpt>
      <trkpt lat="41.834715" lon="0.779969">
        <ele>339.838</ele>
        <time>1998-01-15T11:44:12Z</time>
      </trkpt>
      <trkpt lat="41.834639" lon="0.780093">
        <ele>338.870</ele>
        <time>1998-01-15T11:44:14Z</time>
      </trkpt>
      <trkpt lat="41.834613" lon="0.780146">
        <ele>338.217</ele>
        <time>1998-01-15T11:44:15Z</time>
      </trkpt>
      <trkpt lat="41.834584" lon="0.780156">
        <ele>337.608</ele>
        <time>1998-01-15T11:44:16Z</time>
      </trkpt>
      <trkpt lat="41.834545" lon="0.780155">
        <ele>337.245</ele>
        <time>1998-01-15T11:44:17Z</time>
      </trkpt>
      <trkpt lat="41.834484" lon="0.780216">
        <ele>336.425</ele>
        <time>1998-01-15T11:44:19Z</time>
      </trkpt>
      <trkpt lat="41.834445" lon="0.780250">
        <ele>335.836</ele>
        <time>1998-01-15T11:44:20Z</time>
      </trkpt>
      <trkpt lat="41.834404" lon="0.780335">
        <ele>335.048</ele>
        <time>1998-01-15T11:44:22Z</time>
      </trkpt>
      <trkpt lat="41.834415" lon="0.780374">
        <ele>334.656</ele>
        <time>1998-01-15T11:44:23Z</time>
      </trkpt>
      <trkpt lat="41.834468" lon="0.780457">
        <ele>333.863</ele>
        <time>1998-01-15T11:44:25Z</time>
      </trkpt>
      <trkpt lat="41.834507" lon="0.780556">
        <ele>333.620</ele>
        <time>1998-01-15T11:44:27Z</time>
      </trkpt>
      <trkpt lat="41.834524" lon="0.780607">
        <ele>333.431</ele>
        <time>1998-01-15T11:44:28Z</time>
      </trkpt>
      <trkpt lat="41.834538" lon="0.780774">
        <ele>333.661</ele>
        <time>1998-01-15T11:44:32Z</time>
      </trkpt>
      <trkpt lat="41.834492" lon="0.780874">
        <ele>335.021</ele>
        <time>1998-01-15T11:44:35Z</time>
      </trkpt>
      <trkpt lat="41.834428" lon="0.780951">
        <ele>335.613</ele>
        <time>1998-01-15T11:44:37Z</time>
      </trkpt>
      <trkpt lat="41.834353" lon="0.781031">
        <ele>336.008</ele>
        <time>1998-01-15T11:44:39Z</time>
      </trkpt>
      <trkpt lat="41.834239" lon="0.781109">
        <ele>335.258</ele>
        <time>1998-01-15T11:44:42Z</time>
      </trkpt>
      <trkpt lat="41.834199" lon="0.781153">
        <ele>334.688</ele>
        <time>1998-01-15T11:44:43Z</time>
      </trkpt>
      <trkpt lat="41.834129" lon="0.781274">
        <ele>333.819</ele>
        <time>1998-01-15T11:44:45Z</time>
      </trkpt>
      <trkpt lat="41.834088" lon="0.781327">
        <ele>333.431</ele>
        <time>1998-01-15T11:44:46Z</time>
      </trkpt>
      <trkpt lat="41.834036" lon="0.781369">
        <ele>333.069</ele>
        <time>1998-01-15T11:44:47Z</time>
      </trkpt>
      <trkpt lat="41.833931" lon="0.781445">
        <ele>332.856</ele>
        <time>1998-01-15T11:44:49Z</time>
      </trkpt>
      <trkpt lat="41.833875" lon="0.781484">
        <ele>332.223</ele>
        <time>1998-01-15T11:44:50Z</time>
      </trkpt>
      <trkpt lat="41.833757" lon="0.781555">
        <ele>330.814</ele>
        <time>1998-01-15T11:44:52Z</time>
      </trkpt>
      <trkpt lat="41.833636" lon="0.781622">
        <ele>329.856</ele>
        <time>1998-01-15T11:44:54Z</time>
      </trkpt>
      <trkpt lat="41.833513" lon="0.781674">
        <ele>328.659</ele>
        <time>1998-01-15T11:44:56Z</time>
      </trkpt>
      <trkpt lat="41.833454" lon="0.781715">
        <ele>328.414</ele>
        <time>1998-01-15T11:44:57Z</time>
      </trkpt>
      <trkpt lat="41.833317" lon="0.781761">
        <ele>327.808</ele>
        <time>1998-01-15T11:44:59Z</time>
      </trkpt>
      <trkpt lat="41.833248" lon="0.781735">
        <ele>327.637</ele>
        <time>1998-01-15T11:45:00Z</time>
      </trkpt>
      <trkpt lat="41.833054" lon="0.781674">
        <ele>326.457</ele>
        <time>1998-01-15T11:45:03Z</time>
      </trkpt>
      <trkpt lat="41.833008" lon="0.781659">
        <ele>325.888</ele>
        <time>1998-01-15T11:45:04Z</time>
      </trkpt>
      <trkpt lat="41.832968" lon="0.781640">
        <ele>325.220</ele>
        <time>1998-01-15T11:45:05Z</time>
      </trkpt>
      <trkpt lat="41.832921" lon="0.781609">
        <ele>323.858</ele>
        <time>1998-01-15T11:45:07Z</time>
      </trkpt>
      <trkpt lat="41.832880" lon="0.781583">
        <ele>323.225</ele>
        <time>1998-01-15T11:45:08Z</time>
      </trkpt>
      <trkpt lat="41.832835" lon="0.781559">
        <ele>322.622</ele>
        <time>1998-01-15T11:45:09Z</time>
      </trkpt>
      <trkpt lat="41.832752" lon="0.781502">
        <ele>321.623</ele>
        <time>1998-01-15T11:45:11Z</time>
      </trkpt>
      <trkpt lat="41.832735" lon="0.781468">
        <ele>321.234</ele>
        <time>1998-01-15T11:45:12Z</time>
      </trkpt>
      <trkpt lat="41.832668" lon="0.781446">
        <ele>320.255</ele>
        <time>1998-01-15T11:45:14Z</time>
      </trkpt>
      <trkpt lat="41.832635" lon="0.781465">
        <ele>319.810</ele>
        <time>1998-01-15T11:45:15Z</time>
      </trkpt>
      <trkpt lat="41.832613" lon="0.781474">
        <ele>319.608</ele>
        <time>1998-01-15T11:45:16Z</time>
      </trkpt>
      <trkpt lat="41.832589" lon="0.781475">
        <ele>319.215</ele>
        <time>1998-01-15T11:45:17Z</time>
      </trkpt>
      <trkpt lat="41.832556" lon="0.781504">
        <ele>318.825</ele>
        <time>1998-01-15T11:45:18Z</time>
      </trkpt>
      <trkpt lat="41.832518" lon="0.781544">
        <ele>318.456</ele>
        <time>1998-01-15T11:45:19Z</time>
      </trkpt>
      <trkpt lat="41.832446" lon="0.781642">
        <ele>318.248</ele>
        <time>1998-01-15T11:45:21Z</time>
      </trkpt>
      <trkpt lat="41.832413" lon="0.781694">
        <ele>318.076</ele>
        <time>1998-01-15T11:45:22Z</time>
      </trkpt>
      <trkpt lat="41.832363" lon="0.781804">
        <ele>317.643</ele>
        <time>1998-01-15T11:45:24Z</time>
      </trkpt>
      <trkpt lat="41.832342" lon="0.781926">
        <ele>317.030</ele>
        <time>1998-01-15T11:45:26Z</time>
      </trkpt>
      <trkpt lat="41.832308" lon="0.782040">
        <ele>316.861</ele>
        <time>1998-01-15T11:45:28Z</time>
      </trkpt>
      <trkpt lat="41.832282" lon="0.782301">
        <ele>316.844</ele>
        <time>1998-01-15T11:45:32Z</time>
      </trkpt>
      <trkpt lat="41.832302" lon="0.782362">
        <ele>316.805</ele>
        <time>1998-01-15T11:45:33Z</time>
      </trkpt>
      <trkpt lat="41.832322" lon="0.782479">
        <ele>316.215</ele>
        <time>1998-01-15T11:45:36Z</time>
      </trkpt>
      <trkpt lat="41.832294" lon="0.782524">
        <ele>315.808</ele>
        <time>1998-01-15T11:45:37Z</time>
      </trkpt>
      <trkpt lat="41.832256" lon="0.782589">
        <ele>315.856</ele>
        <time>1998-01-15T11:45:39Z</time>
      </trkpt>
      <trkpt lat="41.832204" lon="0.782701">
        <ele>314.446</ele>
        <time>1998-01-15T11:45:41Z</time>
      </trkpt>
      <trkpt lat="41.832169" lon="0.782726">
        <ele>313.657</ele>
        <time>1998-01-15T11:45:42Z</time>
      </trkpt>
      <trkpt lat="41.832132" lon="0.782711">
        <ele>313.019</ele>
        <time>1998-01-15T11:45:43Z</time>
      </trkpt>
      <trkpt lat="41.832090" lon="0.782706">
        <ele>312.647</ele>
        <time>1998-01-15T11:45:44Z</time>
      </trkpt>
      <trkpt lat="41.832051" lon="0.782722">
        <ele>312.494</ele>
        <time>1998-01-15T11:45:45Z</time>
      </trkpt>
      <trkpt lat="41.832016" lon="0.782744">
        <ele>312.041</ele>
        <time>1998-01-15T11:45:46Z</time>
      </trkpt>
      <trkpt lat="41.831876" lon="0.782844">
        <ele>312.892</ele>
        <time>1998-01-15T11:45:50Z</time>
      </trkpt>
      <trkpt lat="41.831812" lon="0.782898">
        <ele>313.233</ele>
        <time>1998-01-15T11:45:52Z</time>
      </trkpt>
      <trkpt lat="41.831617" lon="0.783013">
        <ele>313.623</ele>
        <time>1998-01-15T11:45:57Z</time>
      </trkpt>
      <trkpt lat="41.831576" lon="0.783050">
        <ele>313.415</ele>
        <time>1998-01-15T11:45:58Z</time>
      </trkpt>
      <trkpt lat="41.831494" lon="0.783134">
        <ele>313.208</ele>
        <time>1998-01-15T11:46:00Z</time>
      </trkpt>
      <trkpt lat="41.831416" lon="0.783240">
        <ele>313.275</ele>
        <time>1998-01-15T11:46:02Z</time>
      </trkpt>
      <trkpt lat="41.831259" lon="0.783355">
        <ele>312.895</ele>
        <time>1998-01-15T11:46:05Z</time>
      </trkpt>
      <trkpt lat="41.831188" lon="0.783507">
        <ele>312.026</ele>
        <time>1998-01-15T11:46:07Z</time>
      </trkpt>
      <trkpt lat="41.831161" lon="0.783590">
        <ele>311.698</ele>
        <time>1998-01-15T11:46:08Z</time>
      </trkpt>
      <trkpt lat="41.831135" lon="0.783674">
        <ele>311.246</ele>
        <time>1998-01-15T11:46:09Z</time>
      </trkpt>
      <trkpt lat="41.831118" lon="0.783765">
        <ele>310.843</ele>
        <time>1998-01-15T11:46:10Z</time>
      </trkpt>
      <trkpt lat="41.831105" lon="0.783933">
        <ele>310.460</ele>
        <time>1998-01-15T11:46:12Z</time>
      </trkpt>
      <trkpt lat="41.831080" lon="0.784003">
        <ele>310.291</ele>
        <time>1998-01-15T11:46:13Z</time>
      </trkpt>
      <trkpt lat="41.831038" lon="0.784157">
        <ele>309.842</ele>
        <time>1998-01-15T11:46:15Z</time>
      </trkpt>
      <trkpt lat="41.831024" lon="0.784244">
        <ele>309.622</ele>
        <time>1998-01-15T11:46:16Z</time>
      </trkpt>
      <trkpt lat="41.830994" lon="0.784446">
        <ele>309.214</ele>
        <time>1998-01-15T11:46:19Z</time>
      </trkpt>
      <trkpt lat="41.830988" lon="0.784525">
        <ele>309.008</ele>
        <time>1998-01-15T11:46:20Z</time>
      </trkpt>
      <trkpt lat="41.830973" lon="0.784610">
        <ele>308.836</ele>
        <time>1998-01-15T11:46:21Z</time>
      </trkpt>
      <trkpt lat="41.830932" lon="0.784776">
        <ele>308.286</ele>
        <time>1998-01-15T11:46:23Z</time>
      </trkpt>
      <trkpt lat="41.830907" lon="0.784915">
        <ele>307.657</ele>
        <time>1998-01-15T11:46:25Z</time>
      </trkpt>
      <trkpt lat="41.830894" lon="0.784982">
        <ele>306.629</ele>
        <time>1998-01-15T11:46:27Z</time>
      </trkpt>
      <trkpt lat="41.830897" lon="0.784986">
        <ele>306.257</ele>
        <time>1998-01-15T11:46:28Z</time>
      </trkpt>
      <trkpt lat="41.830899" lon="0.785008">
        <ele>305.824</ele>
        <time>1998-01-15T11:52:07Z</time>
      </trkpt>
      <trkpt lat="41.830930" lon="0.785158">
        <ele>306.411</ele>
        <time>1998-01-15T11:52:13Z</time>
      </trkpt>
      <trkpt lat="41.830924" lon="0.785386">
        <ele>306.492</ele>
        <time>1998-01-15T11:52:20Z</time>
      </trkpt>
      <trkpt lat="41.830923" lon="0.785658">
        <ele>306.216</ele>
        <time>1998-01-15T11:52:27Z</time>
      </trkpt>
      <trkpt lat="41.830950" lon="0.786016">
        <ele>306.076</ele>
        <time>1998-01-15T11:52:35Z</time>
      </trkpt>
      <trkpt lat="41.830960" lon="0.786463">
        <ele>305.413</ele>
        <time>1998-01-15T11:52:44Z</time>
      </trkpt>
      <trkpt lat="41.830948" lon="0.786571">
        <ele>305.208</ele>
        <time>1998-01-15T11:52:46Z</time>
      </trkpt>
      <trkpt lat="41.830900" lon="0.786847">
        <ele>304.623</ele>
        <time>1998-01-15T11:52:51Z</time>
      </trkpt>
      <trkpt lat="41.830891" lon="0.786962">
        <ele>304.653</ele>
        <time>1998-01-15T11:52:53Z</time>
      </trkpt>
      <trkpt lat="41.830843" lon="0.787253">
        <ele>304.654</ele>
        <time>1998-01-15T11:52:58Z</time>
      </trkpt>
      <trkpt lat="41.830719" lon="0.787515">
        <ele>304.886</ele>
        <time>1998-01-15T11:53:04Z</time>
      </trkpt>
      <trkpt lat="41.830557" lon="0.787820">
        <ele>305.044</ele>
        <time>1998-01-15T11:53:11Z</time>
      </trkpt>
      <trkpt lat="41.830467" lon="0.788191">
        <ele>305.621</ele>
        <time>1998-01-15T11:53:18Z</time>
      </trkpt>
      <trkpt lat="41.830439" lon="0.788655">
        <ele>305.698</ele>
        <time>1998-01-15T11:53:26Z</time>
      </trkpt>
      <trkpt lat="41.830413" lon="0.788892">
        <ele>304.699</ele>
        <time>1998-01-15T11:53:29Z</time>
      </trkpt>
      <trkpt lat="41.830383" lon="0.788990">
        <ele>304.288</ele>
        <time>1998-01-15T11:53:30Z</time>
      </trkpt>
      <trkpt lat="41.830339" lon="0.789078">
        <ele>303.624</ele>
        <time>1998-01-15T11:53:31Z</time>
      </trkpt>
      <trkpt lat="41.830260" lon="0.789243">
        <ele>302.626</ele>
        <time>1998-01-15T11:53:33Z</time>
      </trkpt>
      <trkpt lat="41.830209" lon="0.789440">
        <ele>301.408</ele>
        <time>1998-01-15T11:53:35Z</time>
      </trkpt>
      <trkpt lat="41.830179" lon="0.789665">
        <ele>299.870</ele>
        <time>1998-01-15T11:53:37Z</time>
      </trkpt>
      <trkpt lat="41.830131" lon="0.789902">
        <ele>298.230</ele>
        <time>1998-01-15T11:53:39Z</time>
      </trkpt>
      <trkpt lat="41.830091" lon="0.790139">
        <ele>296.441</ele>
        <time>1998-01-15T11:53:41Z</time>
      </trkpt>
      <trkpt lat="41.830079" lon="0.790263">
        <ele>295.473</ele>
        <time>1998-01-15T11:53:42Z</time>
      </trkpt>
      <trkpt lat="41.830073" lon="0.790388">
        <ele>294.421</ele>
        <time>1998-01-15T11:53:43Z</time>
      </trkpt>
      <trkpt lat="41.830077" lon="0.790506">
        <ele>293.688</ele>
        <time>1998-01-15T11:53:44Z</time>
      </trkpt>
      <trkpt lat="41.830049" lon="0.790737">
        <ele>291.895</ele>
        <time>1998-01-15T11:53:46Z</time>
      </trkpt>
      <trkpt lat="41.830008" lon="0.790831">
        <ele>291.036</ele>
        <time>1998-01-15T11:53:47Z</time>
      </trkpt>
      <trkpt lat="41.829950" lon="0.790902">
        <ele>290.222</ele>
        <time>1998-01-15T11:53:48Z</time>
      </trkpt>
      <trkpt lat="41.829822" lon="0.791018">
        <ele>289.262</ele>
        <time>1998-01-15T11:53:50Z</time>
      </trkpt>
      <trkpt lat="41.829728" lon="0.791159">
        <ele>287.608</ele>
        <time>1998-01-15T11:53:52Z</time>
      </trkpt>
      <trkpt lat="41.829679" lon="0.791348">
        <ele>286.208</ele>
        <time>1998-01-15T11:53:54Z</time>
      </trkpt>
      <trkpt lat="41.829656" lon="0.791437">
        <ele>285.614</ele>
        <time>1998-01-15T11:53:55Z</time>
      </trkpt>
      <trkpt lat="41.829630" lon="0.791520">
        <ele>285.084</ele>
        <time>1998-01-15T11:53:56Z</time>
      </trkpt>
      <trkpt lat="41.829584" lon="0.791700">
        <ele>283.895</ele>
        <time>1998-01-15T11:53:58Z</time>
      </trkpt>
      <trkpt lat="41.829555" lon="0.791885">
        <ele>282.617</ele>
        <time>1998-01-15T11:54:00Z</time>
      </trkpt>
      <trkpt lat="41.829551" lon="0.792064">
        <ele>281.435</ele>
        <time>1998-01-15T11:54:02Z</time>
      </trkpt>
      <trkpt lat="41.829557" lon="0.792157">
        <ele>280.462</ele>
        <time>1998-01-15T11:54:03Z</time>
      </trkpt>
      <trkpt lat="41.829561" lon="0.792327">
        <ele>279.299</ele>
        <time>1998-01-15T11:54:05Z</time>
      </trkpt>
      <trkpt lat="41.829518" lon="0.792686">
        <ele>278.480</ele>
        <time>1998-01-15T11:54:10Z</time>
      </trkpt>
      <trkpt lat="41.829439" lon="0.793076">
        <ele>278.478</ele>
        <time>1998-01-15T11:54:15Z</time>
      </trkpt>
      <trkpt lat="41.829427" lon="0.793153">
        <ele>278.233</ele>
        <time>1998-01-15T11:54:16Z</time>
      </trkpt>
      <trkpt lat="41.829387" lon="0.793524">
        <ele>277.226</ele>
        <time>1998-01-15T11:54:20Z</time>
      </trkpt>
      <trkpt lat="41.829315" lon="0.793978">
        <ele>276.408</ele>
        <time>1998-01-15T11:54:25Z</time>
      </trkpt>
      <trkpt lat="41.829226" lon="0.794124">
        <ele>276.219</ele>
        <time>1998-01-15T11:54:27Z</time>
      </trkpt>
      <trkpt lat="41.829130" lon="0.794349">
        <ele>275.669</ele>
        <time>1998-01-15T11:54:30Z</time>
      </trkpt>
      <trkpt lat="41.829082" lon="0.794517">
        <ele>275.260</ele>
        <time>1998-01-15T11:54:32Z</time>
      </trkpt>
      <trkpt lat="41.829060" lon="0.794603">
        <ele>274.812</ele>
        <time>1998-01-15T11:54:33Z</time>
      </trkpt>
      <trkpt lat="41.828991" lon="0.795031">
        <ele>274.280</ele>
        <time>1998-01-15T11:54:38Z</time>
      </trkpt>
      <trkpt lat="41.828995" lon="0.795113">
        <ele>274.237</ele>
        <time>1998-01-15T11:54:39Z</time>
      </trkpt>
      <trkpt lat="41.828998" lon="0.795286">
        <ele>273.644</ele>
        <time>1998-01-15T11:54:41Z</time>
      </trkpt>
      <trkpt lat="41.829001" lon="0.795466">
        <ele>273.225</ele>
        <time>1998-01-15T11:54:43Z</time>
      </trkpt>
      <trkpt lat="41.828986" lon="0.795834">
        <ele>272.297</ele>
        <time>1998-01-15T11:54:47Z</time>
      </trkpt>
      <trkpt lat="41.828969" lon="0.796011">
        <ele>272.223</ele>
        <time>1998-01-15T11:54:49Z</time>
      </trkpt>
      <trkpt lat="41.828923" lon="0.796692">
        <ele>271.425</ele>
        <time>1998-01-15T11:54:57Z</time>
      </trkpt>
      <trkpt lat="41.828922" lon="0.796784">
        <ele>271.208</ele>
        <time>1998-01-15T11:54:58Z</time>
      </trkpt>
      <trkpt lat="41.828843" lon="0.797155">
        <ele>270.211</ele>
        <time>1998-01-15T11:55:02Z</time>
      </trkpt>
      <trkpt lat="41.828673" lon="0.797435">
        <ele>268.841</ele>
        <time>1998-01-15T11:55:05Z</time>
      </trkpt>
      <trkpt lat="41.828443" lon="0.797718">
        <ele>266.072</ele>
        <time>1998-01-15T11:55:08Z</time>
      </trkpt>
      <trkpt lat="41.828303" lon="0.797868">
        <ele>265.244</ele>
        <time>1998-01-15T11:55:10Z</time>
      </trkpt>
      <trkpt lat="41.828253" lon="0.797948">
        <ele>264.262</ele>
        <time>1998-01-15T11:55:11Z</time>
      </trkpt>
      <trkpt lat="41.828190" lon="0.798152">
        <ele>262.679</ele>
        <time>1998-01-15T11:55:13Z</time>
      </trkpt>
      <trkpt lat="41.828144" lon="0.798229">
        <ele>261.886</ele>
        <time>1998-01-15T11:55:14Z</time>
      </trkpt>
      <trkpt lat="41.828072" lon="0.798251">
        <ele>260.657</ele>
        <time>1998-01-15T11:55:15Z</time>
      </trkpt>
      <trkpt lat="41.828005" lon="0.798270">
        <ele>260.079</ele>
        <time>1998-01-15T11:55:16Z</time>
      </trkpt>
      <trkpt lat="41.827879" lon="0.798309">
        <ele>259.405</ele>
        <time>1998-01-15T11:55:18Z</time>
      </trkpt>
      <trkpt lat="41.827829" lon="0.798350">
        <ele>259.425</ele>
        <time>1998-01-15T11:55:19Z</time>
      </trkpt>
      <trkpt lat="41.827669" lon="0.798555">
        <ele>259.808</ele>
        <time>1998-01-15T11:55:23Z</time>
      </trkpt>
      <trkpt lat="41.827634" lon="0.798611">
        <ele>259.819</ele>
        <time>1998-01-15T11:55:24Z</time>
      </trkpt>
      <trkpt lat="41.827578" lon="0.798730">
        <ele>260.669</ele>
        <time>1998-01-15T11:55:26Z</time>
      </trkpt>
      <trkpt lat="41.827504" lon="0.798909">
        <ele>261.050</ele>
        <time>1998-01-15T11:55:29Z</time>
      </trkpt>
      <trkpt lat="41.827480" lon="0.798970">
        <ele>261.272</ele>
        <time>1998-01-15T11:55:30Z</time>
      </trkpt>
      <trkpt lat="41.827436" lon="0.799094">
        <ele>261.630</ele>
        <time>1998-01-15T11:55:32Z</time>
      </trkpt>
      <trkpt lat="41.827348" lon="0.799340">
        <ele>262.837</ele>
        <time>1998-01-15T11:55:36Z</time>
      </trkpt>
      <trkpt lat="41.827303" lon="0.799468">
        <ele>263.054</ele>
        <time>1998-01-15T11:55:38Z</time>
      </trkpt>
      <trkpt lat="41.827208" lon="0.799713">
        <ele>263.425</ele>
        <time>1998-01-15T11:55:42Z</time>
      </trkpt>
      <trkpt lat="41.827172" lon="0.799757">
        <ele>263.856</ele>
        <time>1998-01-15T11:55:43Z</time>
      </trkpt>
      <trkpt lat="41.827134" lon="0.799800">
        <ele>264.259</ele>
        <time>1998-01-15T11:55:44Z</time>
      </trkpt>
      <trkpt lat="41.826995" lon="0.799899">
        <ele>265.014</ele>
        <time>1998-01-15T11:55:47Z</time>
      </trkpt>
      <trkpt lat="41.826942" lon="0.799928">
        <ele>265.208</ele>
        <time>1998-01-15T11:55:48Z</time>
      </trkpt>
      <trkpt lat="41.826675" lon="0.800133">
        <ele>264.027</ele>
        <time>1998-01-15T11:55:53Z</time>
      </trkpt>
      <trkpt lat="41.826627" lon="0.800185">
        <ele>263.867</ele>
        <time>1998-01-15T11:55:54Z</time>
      </trkpt>
      <trkpt lat="41.826341" lon="0.800564">
        <ele>263.228</ele>
        <time>1998-01-15T11:56:01Z</time>
      </trkpt>
      <trkpt lat="41.826309" lon="0.800625">
        <ele>263.010</ele>
        <time>1998-01-15T11:56:02Z</time>
      </trkpt>
      <trkpt lat="41.826278" lon="0.800686">
        <ele>263.088</ele>
        <time>1998-01-15T11:56:03Z</time>
      </trkpt>
      <trkpt lat="41.826206" lon="0.800802">
        <ele>262.895</ele>
        <time>1998-01-15T11:56:05Z</time>
      </trkpt>
      <trkpt lat="41.826164" lon="0.800852">
        <ele>262.842</ele>
        <time>1998-01-15T11:56:06Z</time>
      </trkpt>
      <trkpt lat="41.825991" lon="0.801003">
        <ele>263.083</ele>
        <time>1998-01-15T11:56:10Z</time>
      </trkpt>
      <trkpt lat="41.825950" lon="0.801030">
        <ele>262.847</ele>
        <time>1998-01-15T11:56:11Z</time>
      </trkpt>
      <trkpt lat="41.825829" lon="0.801101">
        <ele>262.629</ele>
        <time>1998-01-15T11:56:14Z</time>
      </trkpt>
      <trkpt lat="41.825637" lon="0.801185">
        <ele>262.421</ele>
        <time>1998-01-15T11:56:18Z</time>
      </trkpt>
      <trkpt lat="41.825585" lon="0.801203">
        <ele>262.208</ele>
        <time>1998-01-15T11:56:19Z</time>
      </trkpt>
      <trkpt lat="41.825417" lon="0.801235">
        <ele>261.886</ele>
        <time>1998-01-15T11:56:22Z</time>
      </trkpt>
      <trkpt lat="41.825359" lon="0.801237">
        <ele>261.876</ele>
        <time>1998-01-15T11:56:23Z</time>
      </trkpt>
      <trkpt lat="41.824999" lon="0.801298">
        <ele>262.497</ele>
        <time>1998-01-15T11:56:30Z</time>
      </trkpt>
      <trkpt lat="41.824818" lon="0.801358">
        <ele>262.859</ele>
        <time>1998-01-15T11:56:34Z</time>
      </trkpt>
      <trkpt lat="41.824615" lon="0.801452">
        <ele>262.627</ele>
        <time>1998-01-15T11:56:38Z</time>
      </trkpt>
      <trkpt lat="41.824353" lon="0.801577">
        <ele>261.844</ele>
        <time>1998-01-15T11:56:42Z</time>
      </trkpt>
      <trkpt lat="41.824278" lon="0.801613">
        <ele>261.671</ele>
        <time>1998-01-15T11:56:43Z</time>
      </trkpt>
      <trkpt lat="41.824053" lon="0.801720">
        <ele>260.622</ele>
        <time>1998-01-15T11:56:46Z</time>
      </trkpt>
      <trkpt lat="41.823839" lon="0.801825">
        <ele>259.412</ele>
        <time>1998-01-15T11:56:49Z</time>
      </trkpt>
      <trkpt lat="41.823765" lon="0.801867">
        <ele>259.232</ele>
        <time>1998-01-15T11:56:50Z</time>
      </trkpt>
      <trkpt lat="41.823539" lon="0.802032">
        <ele>258.005</ele>
        <time>1998-01-15T11:56:53Z</time>
      </trkpt>
      <trkpt lat="41.823383" lon="0.802169">
        <ele>256.808</ele>
        <time>1998-01-15T11:56:55Z</time>
      </trkpt>
      <trkpt lat="41.823225" lon="0.802313">
        <ele>255.613</ele>
        <time>1998-01-15T11:56:57Z</time>
      </trkpt>
      <trkpt lat="41.823083" lon="0.802472">
        <ele>254.443</ele>
        <time>1998-01-15T11:56:59Z</time>
      </trkpt>
      <trkpt lat="41.823023" lon="0.802561">
        <ele>254.074</ele>
        <time>1998-01-15T11:57:00Z</time>
      </trkpt>
      <trkpt lat="41.822926" lon="0.802744">
        <ele>253.266</ele>
        <time>1998-01-15T11:57:02Z</time>
      </trkpt>
      <trkpt lat="41.822881" lon="0.802827">
        <ele>252.824</ele>
        <time>1998-01-15T11:57:03Z</time>
      </trkpt>
      <trkpt lat="41.822830" lon="0.802900">
        <ele>252.211</ele>
        <time>1998-01-15T11:57:04Z</time>
      </trkpt>
      <trkpt lat="41.822775" lon="0.802966">
        <ele>251.668</ele>
        <time>1998-01-15T11:57:05Z</time>
      </trkpt>
      <trkpt lat="41.822599" lon="0.803185">
        <ele>250.289</ele>
        <time>1998-01-15T11:57:08Z</time>
      </trkpt>
      <trkpt lat="41.822491" lon="0.803319">
        <ele>249.696</ele>
        <time>1998-01-15T11:57:10Z</time>
      </trkpt>
      <trkpt lat="41.822373" lon="0.803466">
        <ele>249.231</ele>
        <time>1998-01-15T11:57:13Z</time>
      </trkpt>
      <trkpt lat="41.822348" lon="0.803492">
        <ele>249.024</ele>
        <time>1998-01-15T11:57:14Z</time>
      </trkpt>
      <trkpt lat="41.822310" lon="0.803517">
        <ele>248.208</ele>
        <time>1998-01-15T11:57:16Z</time>
      </trkpt>
      <trkpt lat="41.822283" lon="0.803508">
        <ele>247.891</ele>
        <time>1998-01-15T11:57:17Z</time>
      </trkpt>
      <trkpt lat="41.822251" lon="0.803491">
        <ele>247.421</ele>
        <time>1998-01-15T11:57:18Z</time>
      </trkpt>
      <trkpt lat="41.822218" lon="0.803468">
        <ele>246.882</ele>
        <time>1998-01-15T11:57:19Z</time>
      </trkpt>
      <trkpt lat="41.822137" lon="0.803417">
        <ele>246.074</ele>
        <time>1998-01-15T11:57:21Z</time>
      </trkpt>
      <trkpt lat="41.822091" lon="0.803388">
        <ele>245.622</ele>
        <time>1998-01-15T11:57:22Z</time>
      </trkpt>
      <trkpt lat="41.822044" lon="0.803360">
        <ele>245.469</ele>
        <time>1998-01-15T11:57:23Z</time>
      </trkpt>
      <trkpt lat="41.821912" lon="0.803282">
        <ele>244.626</ele>
        <time>1998-01-15T11:57:26Z</time>
      </trkpt>
      <trkpt lat="41.821744" lon="0.803180">
        <ele>244.487</ele>
        <time>1998-01-15T11:57:30Z</time>
      </trkpt>
      <trkpt lat="41.821428" lon="0.803032">
        <ele>244.442</ele>
        <time>1998-01-15T11:57:37Z</time>
      </trkpt>
      <trkpt lat="41.821377" lon="0.803027">
        <ele>244.022</ele>
        <time>1998-01-15T11:57:38Z</time>
      </trkpt>
      <trkpt lat="41.821062" lon="0.803067">
        <ele>244.214</ele>
        <time>1998-01-15T11:57:44Z</time>
      </trkpt>
      <trkpt lat="41.820623" lon="0.803218">
        <ele>243.608</ele>
        <time>1998-01-15T11:57:52Z</time>
      </trkpt>
      <trkpt lat="41.820276" lon="0.803334">
        <ele>243.046</ele>
        <time>1998-01-15T11:57:58Z</time>
      </trkpt>
      <trkpt lat="41.820154" lon="0.803380">
        <ele>242.476</ele>
        <time>1998-01-15T11:58:00Z</time>
      </trkpt>
      <trkpt lat="41.819966" lon="0.803428">
        <ele>242.067</ele>
        <time>1998-01-15T11:58:03Z</time>
      </trkpt>
      <trkpt lat="41.819902" lon="0.803423">
        <ele>241.859</ele>
        <time>1998-01-15T11:58:04Z</time>
      </trkpt>
      <trkpt lat="41.819768" lon="0.803403">
        <ele>241.217</ele>
        <time>1998-01-15T11:58:06Z</time>
      </trkpt>
      <trkpt lat="41.819642" lon="0.803465">
        <ele>240.884</ele>
        <time>1998-01-15T11:58:08Z</time>
      </trkpt>
      <trkpt lat="41.819520" lon="0.803567">
        <ele>240.411</ele>
        <time>1998-01-15T11:58:10Z</time>
      </trkpt>
      <trkpt lat="41.819449" lon="0.803610">
        <ele>240.042</ele>
        <time>1998-01-15T11:58:11Z</time>
      </trkpt>
      <trkpt lat="41.819301" lon="0.803673">
        <ele>239.687</ele>
        <time>1998-01-15T11:58:13Z</time>
      </trkpt>
      <trkpt lat="41.818903" lon="0.803791">
        <ele>239.042</ele>
        <time>1998-01-15T11:58:18Z</time>
      </trkpt>
      <trkpt lat="41.818820" lon="0.803816">
        <ele>238.826</ele>
        <time>1998-01-15T11:58:19Z</time>
      </trkpt>
      <trkpt lat="41.818471" lon="0.803933">
        <ele>237.608</ele>
        <time>1998-01-15T11:58:23Z</time>
      </trkpt>
      <trkpt lat="41.818204" lon="0.804009">
        <ele>236.810</ele>
        <time>1998-01-15T11:58:26Z</time>
      </trkpt>
      <trkpt lat="41.818117" lon="0.804029">
        <ele>236.690</ele>
        <time>1998-01-15T11:58:27Z</time>
      </trkpt>
      <trkpt lat="41.817690" lon="0.804074">
        <ele>235.861</ele>
        <time>1998-01-15T11:58:32Z</time>
      </trkpt>
      <trkpt lat="41.817606" lon="0.804077">
        <ele>235.693</ele>
        <time>1998-01-15T11:58:33Z</time>
      </trkpt>
      <trkpt lat="41.817139" lon="0.804075">
        <ele>234.691</ele>
        <time>1998-01-15T11:58:39Z</time>
      </trkpt>
      <trkpt lat="41.816991" lon="0.804071">
        <ele>234.638</ele>
        <time>1998-01-15T11:58:41Z</time>
      </trkpt>
      <trkpt lat="41.816549" lon="0.804063">
        <ele>234.075</ele>
        <time>1998-01-15T11:58:47Z</time>
      </trkpt>
      <trkpt lat="41.816056" lon="0.804061">
        <ele>233.666</ele>
        <time>1998-01-15T11:58:54Z</time>
      </trkpt>
      <trkpt lat="41.815916" lon="0.804058">
        <ele>233.496</ele>
        <time>1998-01-15T11:58:56Z</time>
      </trkpt>
      <trkpt lat="41.815418" lon="0.804050">
        <ele>232.231</ele>
        <time>1998-01-15T11:59:03Z</time>
      </trkpt>
      <trkpt lat="41.815348" lon="0.804049">
        <ele>232.024</ele>
        <time>1998-01-15T11:59:04Z</time>
      </trkpt>
      <trkpt lat="41.815131" lon="0.804042">
        <ele>231.208</ele>
        <time>1998-01-15T11:59:07Z</time>
      </trkpt>
      <trkpt lat="41.814842" lon="0.804039">
        <ele>230.081</ele>
        <time>1998-01-15T11:59:11Z</time>
      </trkpt>
      <trkpt lat="41.814695" lon="0.804040">
        <ele>229.651</ele>
        <time>1998-01-15T11:59:13Z</time>
      </trkpt>
      <trkpt lat="41.814545" lon="0.804046">
        <ele>228.822</ele>
        <time>1998-01-15T11:59:15Z</time>
      </trkpt>
      <trkpt lat="41.814235" lon="0.804047">
        <ele>227.414</ele>
        <time>1998-01-15T11:59:19Z</time>
      </trkpt>
      <trkpt lat="41.814081" lon="0.804048">
        <ele>227.032</ele>
        <time>1998-01-15T11:59:21Z</time>
      </trkpt>
      <trkpt lat="41.813780" lon="0.804044">
        <ele>226.469</ele>
        <time>1998-01-15T11:59:25Z</time>
      </trkpt>
      <trkpt lat="41.813347" lon="0.804037">
        <ele>225.876</ele>
        <time>1998-01-15T11:59:31Z</time>
      </trkpt>
      <trkpt lat="41.812998" lon="0.804053">
        <ele>225.297</ele>
        <time>1998-01-15T11:59:36Z</time>
      </trkpt>
      <trkpt lat="41.812789" lon="0.804087">
        <ele>225.426</ele>
        <time>1998-01-15T11:59:39Z</time>
      </trkpt>
      <trkpt lat="41.812388" lon="0.804257">
        <ele>226.247</ele>
        <time>1998-01-15T11:59:45Z</time>
      </trkpt>
      <trkpt lat="41.811847" lon="0.804531">
        <ele>225.611</ele>
        <time>1998-01-15T11:59:53Z</time>
      </trkpt>
      <trkpt lat="41.811704" lon="0.804587">
        <ele>225.608</ele>
        <time>1998-01-15T11:59:55Z</time>
      </trkpt>
      <trkpt lat="41.811197" lon="0.804674">
        <ele>225.284</ele>
        <time>1998-01-15T12:00:02Z</time>
      </trkpt>
      <trkpt lat="41.810622" lon="0.804762">
        <ele>225.084</ele>
        <time>1998-01-15T12:00:10Z</time>
      </trkpt>
      <trkpt lat="41.810552" lon="0.804775">
        <ele>225.065</ele>
        <time>1998-01-15T12:00:11Z</time>
      </trkpt>
      <trkpt lat="41.810144" lon="0.804924">
        <ele>225.487</ele>
        <time>1998-01-15T12:00:17Z</time>
      </trkpt>
      <trkpt lat="41.809691" lon="0.805179">
        <ele>224.465</ele>
        <time>1998-01-15T12:00:24Z</time>
      </trkpt>
      <trkpt lat="41.809561" lon="0.805259">
        <ele>224.282</ele>
        <time>1998-01-15T12:00:26Z</time>
      </trkpt>
      <trkpt lat="41.809187" lon="0.805510">
        <ele>223.659</ele>
        <time>1998-01-15T12:00:32Z</time>
      </trkpt>
      <trkpt lat="41.809009" lon="0.805638">
        <ele>223.220</ele>
        <time>1998-01-15T12:00:35Z</time>
      </trkpt>
      <trkpt lat="41.808718" lon="0.805876">
        <ele>223.073</ele>
        <time>1998-01-15T12:00:40Z</time>
      </trkpt>
      <trkpt lat="41.808388" lon="0.806209">
        <ele>222.285</ele>
        <time>1998-01-15T12:00:46Z</time>
      </trkpt>
      <trkpt lat="41.808336" lon="0.806270">
        <ele>222.013</ele>
        <time>1998-01-15T12:00:47Z</time>
      </trkpt>
      <trkpt lat="41.807994" lon="0.806734">
        <ele>221.208</ele>
        <time>1998-01-15T12:00:54Z</time>
      </trkpt>
      <trkpt lat="41.807946" lon="0.806801">
        <ele>221.249</ele>
        <time>1998-01-15T12:00:55Z</time>
      </trkpt>
      <trkpt lat="41.807576" lon="0.807228">
        <ele>220.479</ele>
        <time>1998-01-15T12:01:02Z</time>
      </trkpt>
      <trkpt lat="41.807450" lon="0.807305">
        <ele>220.210</ele>
        <time>1998-01-15T12:01:04Z</time>
      </trkpt>
      <trkpt lat="41.807257" lon="0.807373">
        <ele>220.252</ele>
        <time>1998-01-15T12:01:07Z</time>
      </trkpt>
      <trkpt lat="41.806886" lon="0.807445">
        <ele>221.250</ele>
        <time>1998-01-15T12:01:13Z</time>
      </trkpt>
      <trkpt lat="41.806827" lon="0.807456">
        <ele>221.257</ele>
        <time>1998-01-15T12:01:14Z</time>
      </trkpt>
      <trkpt lat="41.806530" lon="0.807505">
        <ele>222.224</ele>
        <time>1998-01-15T12:01:19Z</time>
      </trkpt>
      <trkpt lat="41.806240" lon="0.807562">
        <ele>223.215</ele>
        <time>1998-01-15T12:01:24Z</time>
      </trkpt>
      <trkpt lat="41.806181" lon="0.807577">
        <ele>223.236</ele>
        <time>1998-01-15T12:01:25Z</time>
      </trkpt>
      <trkpt lat="41.805835" lon="0.807658">
        <ele>224.417</ele>
        <time>1998-01-15T12:01:31Z</time>
      </trkpt>
      <trkpt lat="41.805722" lon="0.807692">
        <ele>224.618</ele>
        <time>1998-01-15T12:01:33Z</time>
      </trkpt>
      <trkpt lat="41.805157" lon="0.807861">
        <ele>225.408</ele>
        <time>1998-01-15T12:01:43Z</time>
      </trkpt>
      <trkpt lat="41.804601" lon="0.808064">
        <ele>224.875</ele>
        <time>1998-01-15T12:01:53Z</time>
      </trkpt>
      <trkpt lat="41.804323" lon="0.808184">
        <ele>224.415</ele>
        <time>1998-01-15T12:01:58Z</time>
      </trkpt>
      <trkpt lat="41.804061" lon="0.808323">
        <ele>223.436</ele>
        <time>1998-01-15T12:02:02Z</time>
      </trkpt>
      <trkpt lat="41.803988" lon="0.808360">
        <ele>223.098</ele>
        <time>1998-01-15T12:02:03Z</time>
      </trkpt>
      <trkpt lat="41.803833" lon="0.808440">
        <ele>222.016</ele>
        <time>1998-01-15T12:02:05Z</time>
      </trkpt>
      <trkpt lat="41.803668" lon="0.808519">
        <ele>221.053</ele>
        <time>1998-01-15T12:02:07Z</time>
      </trkpt>
      <trkpt lat="41.803407" lon="0.808628">
        <ele>219.690</ele>
        <time>1998-01-15T12:02:10Z</time>
      </trkpt>
      <trkpt lat="41.803142" lon="0.808669">
        <ele>218.681</ele>
        <time>1998-01-15T12:02:13Z</time>
      </trkpt>
      <trkpt lat="41.803057" lon="0.808663">
        <ele>218.466</ele>
        <time>1998-01-15T12:02:14Z</time>
      </trkpt>
      <trkpt lat="41.802824" lon="0.808589">
        <ele>217.629</ele>
        <time>1998-01-15T12:02:17Z</time>
      </trkpt>
      <trkpt lat="41.802752" lon="0.808552">
        <ele>217.421</ele>
        <time>1998-01-15T12:02:18Z</time>
      </trkpt>
      <trkpt lat="41.802423" lon="0.808357">
        <ele>216.408</ele>
        <time>1998-01-15T12:02:23Z</time>
      </trkpt>
      <trkpt lat="41.802298" lon="0.808291">
        <ele>216.048</ele>
        <time>1998-01-15T12:02:25Z</time>
      </trkpt>
      <trkpt lat="41.802035" lon="0.808213">
        <ele>215.248</ele>
        <time>1998-01-15T12:02:29Z</time>
      </trkpt>
      <trkpt lat="41.801898" lon="0.808187">
        <ele>215.039</ele>
        <time>1998-01-15T12:02:31Z</time>
      </trkpt>
      <trkpt lat="41.801508" lon="0.808098">
        <ele>214.891</ele>
        <time>1998-01-15T12:02:37Z</time>
      </trkpt>
      <trkpt lat="41.800932" lon="0.807995">
        <ele>215.659</ele>
        <time>1998-01-15T12:02:46Z</time>
      </trkpt>
      <trkpt lat="41.800749" lon="0.807965">
        <ele>216.466</ele>
        <time>1998-01-15T12:02:49Z</time>
      </trkpt>
      <trkpt lat="41.800507" lon="0.807923">
        <ele>217.613</ele>
        <time>1998-01-15T12:02:53Z</time>
      </trkpt>
      <trkpt lat="41.800330" lon="0.807893">
        <ele>218.664</ele>
        <time>1998-01-15T12:02:56Z</time>
      </trkpt>
      <trkpt lat="41.800161" lon="0.807856">
        <ele>219.818</ele>
        <time>1998-01-15T12:02:59Z</time>
      </trkpt>
      <trkpt lat="41.799825" lon="0.807784">
        <ele>220.898</ele>
        <time>1998-01-15T12:03:05Z</time>
      </trkpt>
      <trkpt lat="41.799714" lon="0.807763">
        <ele>221.017</ele>
        <time>1998-01-15T12:03:07Z</time>
      </trkpt>
      <trkpt lat="41.799552" lon="0.807730">
        <ele>221.808</ele>
        <time>1998-01-15T12:03:10Z</time>
      </trkpt>
      <trkpt lat="41.799498" lon="0.807719">
        <ele>222.243</ele>
        <time>1998-01-15T12:03:11Z</time>
      </trkpt>
      <trkpt lat="41.799196" lon="0.807642">
        <ele>223.293</ele>
        <time>1998-01-15T12:03:17Z</time>
      </trkpt>
      <trkpt lat="41.798827" lon="0.807566">
        <ele>224.244</ele>
        <time>1998-01-15T12:03:24Z</time>
      </trkpt>
      <trkpt lat="41.798773" lon="0.807551">
        <ele>224.266</ele>
        <time>1998-01-15T12:03:25Z</time>
      </trkpt>
      <trkpt lat="41.798512" lon="0.807487">
        <ele>225.244</ele>
        <time>1998-01-15T12:03:30Z</time>
      </trkpt>
      <trkpt lat="41.798413" lon="0.807460">
        <ele>225.891</ele>
        <time>1998-01-15T12:03:32Z</time>
      </trkpt>
      <trkpt lat="41.798320" lon="0.807437">
        <ele>226.258</ele>
        <time>1998-01-15T12:03:34Z</time>
      </trkpt>
      <trkpt lat="41.798095" lon="0.807401">
        <ele>227.419</ele>
        <time>1998-01-15T12:03:39Z</time>
      </trkpt>
      <trkpt lat="41.797973" lon="0.807401">
        <ele>228.668</ele>
        <time>1998-01-15T12:03:42Z</time>
      </trkpt>
      <trkpt lat="41.797897" lon="0.807384">
        <ele>229.442</ele>
        <time>1998-01-15T12:03:44Z</time>
      </trkpt>
      <trkpt lat="41.797870" lon="0.807352">
        <ele>229.626</ele>
        <time>1998-01-15T12:03:45Z</time>
      </trkpt>
      <trkpt lat="41.797837" lon="0.807254">
        <ele>229.808</ele>
        <time>1998-01-15T12:03:47Z</time>
      </trkpt>
      <trkpt lat="41.797810" lon="0.807207">
        <ele>229.848</ele>
        <time>1998-01-15T12:03:48Z</time>
      </trkpt>
      <trkpt lat="41.797768" lon="0.807179">
        <ele>229.828</ele>
        <time>1998-01-15T12:03:49Z</time>
      </trkpt>
      <trkpt lat="41.797623" lon="0.807193">
        <ele>229.459</ele>
        <time>1998-01-15T12:03:52Z</time>
      </trkpt>
      <trkpt lat="41.797521" lon="0.807241">
        <ele>229.491</ele>
        <time>1998-01-15T12:03:54Z</time>
      </trkpt>
      <trkpt lat="41.797465" lon="0.807256">
        <ele>229.429</ele>
        <time>1998-01-15T12:03:55Z</time>
      </trkpt>
      <trkpt lat="41.797352" lon="0.807265">
        <ele>229.036</ele>
        <time>1998-01-15T12:03:57Z</time>
      </trkpt>
      <trkpt lat="41.797239" lon="0.807270">
        <ele>228.663</ele>
        <time>1998-01-15T12:03:59Z</time>
      </trkpt>
      <trkpt lat="41.796965" lon="0.807285">
        <ele>228.454</ele>
        <time>1998-01-15T12:04:04Z</time>
      </trkpt>
      <trkpt lat="41.796641" lon="0.807284">
        <ele>227.622</ele>
        <time>1998-01-15T12:04:10Z</time>
      </trkpt>
      <trkpt lat="41.796419" lon="0.807251">
        <ele>228.262</ele>
        <time>1998-01-15T12:04:14Z</time>
      </trkpt>
      <trkpt lat="41.796054" lon="0.807127">
        <ele>226.808</ele>
        <time>1998-01-15T12:04:20Z</time>
      </trkpt>
      <trkpt lat="41.795862" lon="0.807060">
        <ele>226.408</ele>
        <time>1998-01-15T12:04:23Z</time>
      </trkpt>
      <trkpt lat="41.795598" lon="0.806970">
        <ele>225.424</ele>
        <time>1998-01-15T12:04:27Z</time>
      </trkpt>
      <trkpt lat="41.795524" lon="0.806948">
        <ele>224.854</ele>
        <time>1998-01-15T12:04:28Z</time>
      </trkpt>
      <trkpt lat="41.795372" lon="0.806904">
        <ele>224.095</ele>
        <time>1998-01-15T12:04:30Z</time>
      </trkpt>
      <trkpt lat="41.795136" lon="0.806843">
        <ele>222.867</ele>
        <time>1998-01-15T12:04:33Z</time>
      </trkpt>
      <trkpt lat="41.794970" lon="0.806800">
        <ele>222.255</ele>
        <time>1998-01-15T12:04:35Z</time>
      </trkpt>
      <trkpt lat="41.794884" lon="0.806781">
        <ele>221.892</ele>
        <time>1998-01-15T12:04:36Z</time>
      </trkpt>
      <trkpt lat="41.794711" lon="0.806738">
        <ele>220.849</ele>
        <time>1998-01-15T12:04:38Z</time>
      </trkpt>
      <trkpt lat="41.794451" lon="0.806671">
        <ele>219.650</ele>
        <time>1998-01-15T12:04:41Z</time>
      </trkpt>
      <trkpt lat="41.794370" lon="0.806652">
        <ele>219.214</ele>
        <time>1998-01-15T12:04:42Z</time>
      </trkpt>
      <trkpt lat="41.794211" lon="0.806636">
        <ele>218.454</ele>
        <time>1998-01-15T12:04:44Z</time>
      </trkpt>
      <trkpt lat="41.794134" lon="0.806645">
        <ele>218.009</ele>
        <time>1998-01-15T12:04:45Z</time>
      </trkpt>
      <trkpt lat="41.794073" lon="0.806677">
        <ele>217.808</ele>
        <time>1998-01-15T12:04:46Z</time>
      </trkpt>
      <trkpt lat="41.794005" lon="0.806810">
        <ele>217.643</ele>
        <time>1998-01-15T12:04:48Z</time>
      </trkpt>
      <trkpt lat="41.793978" lon="0.807087">
        <ele>217.673</ele>
        <time>1998-01-15T12:04:51Z</time>
      </trkpt>
      <trkpt lat="41.793965" lon="0.807176">
        <ele>217.624</ele>
        <time>1998-01-15T12:04:52Z</time>
      </trkpt>
      <trkpt lat="41.793908" lon="0.807707">
        <ele>217.286</ele>
        <time>1998-01-15T12:04:58Z</time>
      </trkpt>
      <trkpt lat="41.793885" lon="0.807868">
        <ele>217.064</ele>
        <time>1998-01-15T12:05:00Z</time>
      </trkpt>
      <trkpt lat="41.793812" lon="0.808407">
        <ele>216.621</ele>
        <time>1998-01-15T12:05:07Z</time>
      </trkpt>
      <trkpt lat="41.793800" lon="0.808469">
        <ele>216.828</ele>
        <time>1998-01-15T12:05:08Z</time>
      </trkpt>
      <trkpt lat="41.793764" lon="0.808630">
        <ele>216.259</ele>
        <time>1998-01-15T12:05:11Z</time>
      </trkpt>
      <trkpt lat="41.793823" lon="0.808698">
        <ele>216.276</ele>
        <time>1998-01-15T12:05:13Z</time>
      </trkpt>
      <trkpt lat="41.793958" lon="0.808699">
        <ele>216.490</ele>
        <time>1998-01-15T12:05:16Z</time>
      </trkpt>
      <trkpt lat="41.794076" lon="0.808765">
        <ele>216.819</ele>
        <time>1998-01-15T12:05:19Z</time>
      </trkpt>
      <trkpt lat="41.794118" lon="0.808792">
        <ele>217.008</ele>
        <time>1998-01-15T12:05:20Z</time>
      </trkpt>
      <trkpt lat="41.794255" lon="0.808868">
        <ele>217.439</ele>
        <time>1998-01-15T12:05:23Z</time>
      </trkpt>
      <trkpt lat="41.794340" lon="0.808915">
        <ele>217.699</ele>
        <time>1998-01-15T12:05:25Z</time>
      </trkpt>
      <trkpt lat="41.794384" lon="0.808936">
        <ele>217.890</ele>
        <time>1998-01-15T12:05:26Z</time>
      </trkpt>
      <trkpt lat="41.794509" lon="0.808989">
        <ele>218.242</ele>
        <time>1998-01-15T12:05:29Z</time>
      </trkpt>
      <trkpt lat="41.794592" lon="0.809002">
        <ele>218.250</ele>
        <time>1998-01-15T12:05:31Z</time>
      </trkpt>
      <trkpt lat="41.794621" lon="0.809002">
        <ele>218.497</ele>
        <time>1998-01-15T12:05:32Z</time>
      </trkpt>
      <trkpt lat="41.794638" lon="0.808994">
        <ele>218.474</ele>
        <time>1998-01-15T12:05:33Z</time>
      </trkpt>
      <trkpt lat="41.906467" lon="0.763117">
        <ele>644.082</ele>
        <time>2015-12-19T10:00:27Z</time>
      </trkpt>
      <trkpt lat="41.906545" lon="0.763014">
        <ele>635.043</ele>
        <time>2015-12-19T10:02:20Z</time>
      </trkpt>
      <trkpt lat="41.906593" lon="0.762876">
        <ele>634.017</ele>
        <time>2015-12-19T10:02:23Z</time>
      </trkpt>
      <trkpt lat="41.906668" lon="0.762741">
        <ele>635.008</ele>
        <time>2015-12-19T10:02:26Z</time>
      </trkpt>
      <trkpt lat="41.906760" lon="0.762707">
        <ele>636.049</ele>
        <time>2015-12-19T10:02:28Z</time>
      </trkpt>
      <trkpt lat="41.906855" lon="0.762706">
        <ele>635.059</ele>
        <time>2015-12-19T10:02:30Z</time>
      </trkpt>
      <trkpt lat="41.906960" lon="0.762663">
        <ele>634.085</ele>
        <time>2015-12-19T10:02:33Z</time>
      </trkpt>
      <trkpt lat="41.907050" lon="0.762619">
        <ele>633.089</ele>
        <time>2015-12-19T10:02:36Z</time>
      </trkpt>
      <trkpt lat="41.907150" lon="0.762593">
        <ele>634.013</ele>
        <time>2015-12-19T10:02:39Z</time>
      </trkpt>
      <trkpt lat="41.907256" lon="0.762590">
        <ele>633.011</ele>
        <time>2015-12-19T10:02:42Z</time>
      </trkpt>
      <trkpt lat="41.907366" lon="0.762606">
        <ele>633.077</ele>
        <time>2015-12-19T10:02:45Z</time>
      </trkpt>
      <trkpt lat="41.907490" lon="0.762617">
        <ele>633.017</ele>
        <time>2015-12-19T10:02:48Z</time>
      </trkpt>
      <trkpt lat="41.907616" lon="0.762614">
        <ele>633.071</ele>
        <time>2015-12-19T10:02:51Z</time>
      </trkpt>
      <trkpt lat="41.907738" lon="0.762619">
        <ele>633.041</ele>
        <time>2015-12-19T10:02:54Z</time>
      </trkpt>
      <trkpt lat="41.907857" lon="0.762624">
        <ele>634.015</ele>
        <time>2015-12-19T10:02:57Z</time>
      </trkpt>
      <trkpt lat="41.907971" lon="0.762624">
        <ele>634.008</ele>
        <time>2015-12-19T10:03:00Z</time>
      </trkpt>
      <trkpt lat="41.908082" lon="0.762619">
        <ele>634.018</ele>
        <time>2015-12-19T10:03:03Z</time>
      </trkpt>
      <trkpt lat="41.908190" lon="0.762614">
        <ele>636.098</ele>
        <time>2015-12-19T10:03:06Z</time>
      </trkpt>
      <trkpt lat="41.908300" lon="0.762611">
        <ele>636.014</ele>
        <time>2015-12-19T10:03:09Z</time>
      </trkpt>
      <trkpt lat="41.908406" lon="0.762597">
        <ele>636.048</ele>
        <time>2015-12-19T10:03:12Z</time>
      </trkpt>
      <trkpt lat="41.908510" lon="0.762572">
        <ele>636.032</ele>
        <time>2015-12-19T10:03:15Z</time>
      </trkpt>
      <trkpt lat="41.908611" lon="0.762533">
        <ele>638.020</ele>
        <time>2015-12-19T10:03:18Z</time>
      </trkpt>
      <trkpt lat="41.908713" lon="0.762489">
        <ele>637.076</ele>
        <time>2015-12-19T10:03:21Z</time>
      </trkpt>
      <trkpt lat="41.908811" lon="0.762440">
        <ele>638.086</ele>
        <time>2015-12-19T10:03:24Z</time>
      </trkpt>
      <trkpt lat="41.908907" lon="0.762383">
        <ele>638.013</ele>
        <time>2015-12-19T10:03:27Z</time>
      </trkpt>
      <trkpt lat="41.909005" lon="0.762328">
        <ele>638.043</ele>
        <time>2015-12-19T10:03:30Z</time>
      </trkpt>
      <trkpt lat="41.909109" lon="0.762273">
        <ele>638.007</ele>
        <time>2015-12-19T10:03:33Z</time>
      </trkpt>
      <trkpt lat="41.909210" lon="0.762215">
        <ele>638.008</ele>
        <time>2015-12-19T10:03:36Z</time>
      </trkpt>
      <trkpt lat="41.909314" lon="0.762159">
        <ele>637.062</ele>
        <time>2015-12-19T10:03:39Z</time>
      </trkpt>
      <trkpt lat="41.909414" lon="0.762097">
        <ele>636.042</ele>
        <time>2015-12-19T10:03:42Z</time>
      </trkpt>
      <trkpt lat="41.909505" lon="0.762027">
        <ele>637.098</ele>
        <time>2015-12-19T10:03:45Z</time>
      </trkpt>
      <trkpt lat="41.909592" lon="0.761950">
        <ele>637.082</ele>
        <time>2015-12-19T10:03:48Z</time>
      </trkpt>
      <trkpt lat="41.909687" lon="0.761860">
        <ele>637.076</ele>
        <time>2015-12-19T10:03:51Z</time>
      </trkpt>
      <trkpt lat="41.909774" lon="0.761765">
        <ele>638.084</ele>
        <time>2015-12-19T10:03:54Z</time>
      </trkpt>
      <trkpt lat="41.909866" lon="0.761661">
        <ele>638.040</ele>
        <time>2015-12-19T10:03:57Z</time>
      </trkpt>
      <trkpt lat="41.909961" lon="0.761550">
        <ele>637.010</ele>
        <time>2015-12-19T10:04:00Z</time>
      </trkpt>
      <trkpt lat="41.910028" lon="0.761469">
        <ele>637.018</ele>
        <time>2015-12-19T10:04:02Z</time>
      </trkpt>
      <trkpt lat="41.910099" lon="0.761388">
        <ele>635.098</ele>
        <time>2015-12-19T10:04:04Z</time>
      </trkpt>
      <trkpt lat="41.910200" lon="0.761278">
        <ele>636.017</ele>
        <time>2015-12-19T10:04:07Z</time>
      </trkpt>
      <trkpt lat="41.910297" lon="0.761166">
        <ele>635.008</ele>
        <time>2015-12-19T10:04:10Z</time>
      </trkpt>
      <trkpt lat="41.910393" lon="0.761048">
        <ele>635.022</ele>
        <time>2015-12-19T10:04:13Z</time>
      </trkpt>
      <trkpt lat="41.910488" lon="0.760931">
        <ele>634.042</ele>
        <time>2015-12-19T10:04:15Z</time>
      </trkpt>
      <trkpt lat="41.910585" lon="0.760827">
        <ele>635.088</ele>
        <time>2015-12-19T10:04:18Z</time>
      </trkpt>
      <trkpt lat="41.910684" lon="0.760722">
        <ele>635.082</ele>
        <time>2015-12-19T10:04:21Z</time>
      </trkpt>
      <trkpt lat="41.910779" lon="0.760621">
        <ele>635.036</ele>
        <time>2015-12-19T10:04:24Z</time>
      </trkpt>
      <trkpt lat="41.910877" lon="0.760529">
        <ele>636.024</ele>
        <time>2015-12-19T10:04:27Z</time>
      </trkpt>
      <trkpt lat="41.910973" lon="0.760430">
        <ele>636.020</ele>
        <time>2015-12-19T10:04:30Z</time>
      </trkpt>
      <trkpt lat="41.911071" lon="0.760321">
        <ele>635.070</ele>
        <time>2015-12-19T10:04:33Z</time>
      </trkpt>
      <trkpt lat="41.911177" lon="0.760230">
        <ele>636.023</ele>
        <time>2015-12-19T10:04:36Z</time>
      </trkpt>
      <trkpt lat="41.911291" lon="0.760146">
        <ele>636.083</ele>
        <time>2015-12-19T10:04:40Z</time>
      </trkpt>
      <trkpt lat="41.911377" lon="0.760097">
        <ele>636.011</ele>
        <time>2015-12-19T10:04:42Z</time>
      </trkpt>
      <trkpt lat="41.911459" lon="0.760044">
        <ele>637.008</ele>
        <time>2015-12-19T10:04:44Z</time>
      </trkpt>
      <trkpt lat="41.911544" lon="0.759983">
        <ele>637.093</ele>
        <time>2015-12-19T10:04:46Z</time>
      </trkpt>
      <trkpt lat="41.911663" lon="0.759913">
        <ele>638.033</ele>
        <time>2015-12-19T10:04:49Z</time>
      </trkpt>
      <trkpt lat="41.911788" lon="0.759845">
        <ele>637.039</ele>
        <time>2015-12-19T10:04:52Z</time>
      </trkpt>
      <trkpt lat="41.911915" lon="0.759773">
        <ele>637.023</ele>
        <time>2015-12-19T10:04:55Z</time>
      </trkpt>
      <trkpt lat="41.912001" lon="0.759726">
        <ele>637.077</ele>
        <time>2015-12-19T10:04:57Z</time>
      </trkpt>
      <trkpt lat="41.912087" lon="0.759667">
        <ele>635.035</ele>
        <time>2015-12-19T10:04:59Z</time>
      </trkpt>
      <trkpt lat="41.912174" lon="0.759619">
        <ele>635.021</ele>
        <time>2015-12-19T10:05:01Z</time>
      </trkpt>
      <trkpt lat="41.912275" lon="0.759568">
        <ele>634.091</ele>
        <time>2015-12-19T10:05:03Z</time>
      </trkpt>
      <trkpt lat="41.912370" lon="0.759511">
        <ele>633.058</ele>
        <time>2015-12-19T10:05:05Z</time>
      </trkpt>
      <trkpt lat="41.912473" lon="0.759458">
        <ele>632.052</ele>
        <time>2015-12-19T10:05:07Z</time>
      </trkpt>
      <trkpt lat="41.912588" lon="0.759388">
        <ele>631.017</ele>
        <time>2015-12-19T10:05:09Z</time>
      </trkpt>
      <trkpt lat="41.912703" lon="0.759316">
        <ele>631.008</ele>
        <time>2015-12-19T10:05:11Z</time>
      </trkpt>
      <trkpt lat="41.912822" lon="0.759246">
        <ele>630.076</ele>
        <time>2015-12-19T10:05:13Z</time>
      </trkpt>
      <trkpt lat="41.912936" lon="0.759179">
        <ele>630.066</ele>
        <time>2015-12-19T10:05:15Z</time>
      </trkpt>
      <trkpt lat="41.913066" lon="0.759099">
        <ele>629.092</ele>
        <time>2015-12-19T10:05:17Z</time>
      </trkpt>
      <trkpt lat="41.913200" lon="0.759018">
        <ele>629.066</ele>
        <time>2015-12-19T10:05:19Z</time>
      </trkpt>
      <trkpt lat="41.913341" lon="0.758942">
        <ele>628.080</ele>
        <time>2015-12-19T10:05:21Z</time>
      </trkpt>
      <trkpt lat="41.913477" lon="0.758863">
        <ele>628.078</ele>
        <time>2015-12-19T10:05:23Z</time>
      </trkpt>
      <trkpt lat="41.913620" lon="0.758783">
        <ele>627.044</ele>
        <time>2015-12-19T10:05:25Z</time>
      </trkpt>
      <trkpt lat="41.913755" lon="0.758705">
        <ele>627.084</ele>
        <time>2015-12-19T10:05:27Z</time>
      </trkpt>
      <trkpt lat="41.913884" lon="0.758635">
        <ele>628.078</ele>
        <time>2015-12-19T10:05:29Z</time>
      </trkpt>
      <trkpt lat="41.914013" lon="0.758579">
        <ele>629.033</ele>
        <time>2015-12-19T10:05:31Z</time>
      </trkpt>
      <trkpt lat="41.914135" lon="0.758509">
        <ele>629.026</ele>
        <time>2015-12-19T10:05:33Z</time>
      </trkpt>
      <trkpt lat="41.914259" lon="0.758446">
        <ele>629.008</ele>
        <time>2015-12-19T10:05:35Z</time>
      </trkpt>
      <trkpt lat="41.914366" lon="0.758394">
        <ele>630.088</ele>
        <time>2015-12-19T10:05:37Z</time>
      </trkpt>
      <trkpt lat="41.914461" lon="0.758340">
        <ele>631.088</ele>
        <time>2015-12-19T10:05:39Z</time>
      </trkpt>
      <trkpt lat="41.914555" lon="0.758286">
        <ele>631.074</ele>
        <time>2015-12-19T10:05:41Z</time>
      </trkpt>
      <trkpt lat="41.914648" lon="0.758231">
        <ele>632.068</ele>
        <time>2015-12-19T10:05:43Z</time>
      </trkpt>
      <trkpt lat="41.914733" lon="0.758180">
        <ele>632.072</ele>
        <time>2015-12-19T10:05:45Z</time>
      </trkpt>
      <trkpt lat="41.914819" lon="0.758131">
        <ele>632.040</ele>
        <time>2015-12-19T10:05:47Z</time>
      </trkpt>
      <trkpt lat="41.914941" lon="0.758067">
        <ele>634.066</ele>
        <time>2015-12-19T10:05:50Z</time>
      </trkpt>
      <trkpt lat="41.915059" lon="0.758002">
        <ele>634.096</ele>
        <time>2015-12-19T10:05:53Z</time>
      </trkpt>
      <trkpt lat="41.915169" lon="0.757936">
        <ele>635.051</ele>
        <time>2015-12-19T10:05:56Z</time>
      </trkpt>
      <trkpt lat="41.915253" lon="0.757888">
        <ele>636.001</ele>
        <time>2015-12-19T10:05:58Z</time>
      </trkpt>
      <trkpt lat="41.915368" lon="0.757817">
        <ele>636.011</ele>
        <time>2015-12-19T10:06:01Z</time>
      </trkpt>
      <trkpt lat="41.915483" lon="0.757755">
        <ele>637.008</ele>
        <time>2015-12-19T10:06:04Z</time>
      </trkpt>
      <trkpt lat="41.915595" lon="0.757690">
        <ele>637.056</ele>
        <time>2015-12-19T10:06:07Z</time>
      </trkpt>
      <trkpt lat="41.915703" lon="0.757631">
        <ele>639.086</ele>
        <time>2015-12-19T10:06:10Z</time>
      </trkpt>
      <trkpt lat="41.915813" lon="0.757576">
        <ele>639.042</ele>
        <time>2015-12-19T10:06:13Z</time>
      </trkpt>
      <trkpt lat="41.915924" lon="0.757512">
        <ele>639.056</ele>
        <time>2015-12-19T10:06:16Z</time>
      </trkpt>
      <trkpt lat="41.916037" lon="0.757451">
        <ele>639.080</ele>
        <time>2015-12-19T10:06:19Z</time>
      </trkpt>
      <trkpt lat="41.916152" lon="0.757386">
        <ele>639.088</ele>
        <time>2015-12-19T10:06:22Z</time>
      </trkpt>
      <trkpt lat="41.916264" lon="0.757320">
        <ele>639.074</ele>
        <time>2015-12-19T10:06:24Z</time>
      </trkpt>
      <trkpt lat="41.916375" lon="0.757256">
        <ele>640.034</ele>
        <time>2015-12-19T10:06:27Z</time>
      </trkpt>
      <trkpt lat="41.916484" lon="0.757193">
        <ele>640.052</ele>
        <time>2015-12-19T10:06:31Z</time>
      </trkpt>
      <trkpt lat="41.916591" lon="0.757137">
        <ele>641.053</ele>
        <time>2015-12-19T10:06:34Z</time>
      </trkpt>
      <trkpt lat="41.916701" lon="0.757074">
        <ele>641.008</ele>
        <time>2015-12-19T10:06:37Z</time>
      </trkpt>
      <trkpt lat="41.916811" lon="0.757014">
        <ele>641.008</ele>
        <time>2015-12-19T10:06:40Z</time>
      </trkpt>
      <trkpt lat="41.916920" lon="0.756954">
        <ele>642.076</ele>
        <time>2015-12-19T10:06:43Z</time>
      </trkpt>
      <trkpt lat="41.917027" lon="0.756893">
        <ele>642.016</ele>
        <time>2015-12-19T10:06:46Z</time>
      </trkpt>
      <trkpt lat="41.917128" lon="0.756835">
        <ele>643.072</ele>
        <time>2015-12-19T10:06:49Z</time>
      </trkpt>
      <trkpt lat="41.917226" lon="0.756776">
        <ele>644.016</ele>
        <time>2015-12-19T10:06:52Z</time>
      </trkpt>
      <trkpt lat="41.917327" lon="0.756722">
        <ele>644.090</ele>
        <time>2015-12-19T10:06:55Z</time>
      </trkpt>
      <trkpt lat="41.917420" lon="0.756670">
        <ele>644.058</ele>
        <time>2015-12-19T10:06:58Z</time>
      </trkpt>
      <trkpt lat="41.917510" lon="0.756619">
        <ele>645.054</ele>
        <time>2015-12-19T10:07:01Z</time>
      </trkpt>
      <trkpt lat="41.917602" lon="0.756564">
        <ele>646.024</ele>
        <time>2015-12-19T10:07:04Z</time>
      </trkpt>
      <trkpt lat="41.917696" lon="0.756514">
        <ele>646.035</ele>
        <time>2015-12-19T10:07:07Z</time>
      </trkpt>
      <trkpt lat="41.917792" lon="0.756467">
        <ele>647.086</ele>
        <time>2015-12-19T10:07:10Z</time>
      </trkpt>
      <trkpt lat="41.917887" lon="0.756418">
        <ele>648.014</ele>
        <time>2015-12-19T10:07:13Z</time>
      </trkpt>
      <trkpt lat="41.917981" lon="0.756367">
        <ele>648.008</ele>
        <time>2015-12-19T10:07:16Z</time>
      </trkpt>
      <trkpt lat="41.918076" lon="0.756322">
        <ele>649.014</ele>
        <time>2015-12-19T10:07:19Z</time>
      </trkpt>
      <trkpt lat="41.918172" lon="0.756283">
        <ele>650.084</ele>
        <time>2015-12-19T10:07:22Z</time>
      </trkpt>
      <trkpt lat="41.918272" lon="0.756246">
        <ele>650.020</ele>
        <time>2015-12-19T10:07:25Z</time>
      </trkpt>
      <trkpt lat="41.918369" lon="0.756209">
        <ele>651.084</ele>
        <time>2015-12-19T10:07:28Z</time>
      </trkpt>
      <trkpt lat="41.918466" lon="0.756172">
        <ele>651.098</ele>
        <time>2015-12-19T10:07:31Z</time>
      </trkpt>
      <trkpt lat="41.918564" lon="0.756139">
        <ele>652.046</ele>
        <time>2015-12-19T10:07:34Z</time>
      </trkpt>
      <trkpt lat="41.918662" lon="0.756111">
        <ele>653.082</ele>
        <time>2015-12-19T10:07:37Z</time>
      </trkpt>
      <trkpt lat="41.918761" lon="0.756080">
        <ele>654.062</ele>
        <time>2015-12-19T10:07:40Z</time>
      </trkpt>
      <trkpt lat="41.918862" lon="0.756047">
        <ele>654.075</ele>
        <time>2015-12-19T10:07:43Z</time>
      </trkpt>
      <trkpt lat="41.918960" lon="0.756019">
        <ele>655.028</ele>
        <time>2015-12-19T10:07:46Z</time>
      </trkpt>
      <trkpt lat="41.919058" lon="0.755992">
        <ele>656.020</ele>
        <time>2015-12-19T10:07:49Z</time>
      </trkpt>
      <trkpt lat="41.919157" lon="0.755968">
        <ele>657.008</ele>
        <time>2015-12-19T10:07:52Z</time>
      </trkpt>
      <trkpt lat="41.919256" lon="0.755941">
        <ele>657.078</ele>
        <time>2015-12-19T10:07:55Z</time>
      </trkpt>
      <trkpt lat="41.919358" lon="0.755910">
        <ele>657.078</ele>
        <time>2015-12-19T10:07:58Z</time>
      </trkpt>
      <trkpt lat="41.919456" lon="0.755881">
        <ele>657.014</ele>
        <time>2015-12-19T10:08:00Z</time>
      </trkpt>
      <trkpt lat="41.919555" lon="0.755856">
        <ele>658.098</ele>
        <time>2015-12-19T10:08:03Z</time>
      </trkpt>
      <trkpt lat="41.919656" lon="0.755831">
        <ele>657.012</ele>
        <time>2015-12-19T10:08:06Z</time>
      </trkpt>
      <trkpt lat="41.919754" lon="0.755802">
        <ele>658.040</ele>
        <time>2015-12-19T10:08:10Z</time>
      </trkpt>
      <trkpt lat="41.919856" lon="0.755767">
        <ele>657.066</ele>
        <time>2015-12-19T10:08:13Z</time>
      </trkpt>
      <trkpt lat="41.919960" lon="0.755730">
        <ele>657.076</ele>
        <time>2015-12-19T10:08:16Z</time>
      </trkpt>
      <trkpt lat="41.920072" lon="0.755691">
        <ele>657.053</ele>
        <time>2015-12-19T10:08:19Z</time>
      </trkpt>
      <trkpt lat="41.920196" lon="0.755638">
        <ele>657.004</ele>
        <time>2015-12-19T10:08:22Z</time>
      </trkpt>
      <trkpt lat="41.920318" lon="0.755582">
        <ele>657.014</ele>
        <time>2015-12-19T10:08:25Z</time>
      </trkpt>
      <trkpt lat="41.920436" lon="0.755521">
        <ele>657.008</ele>
        <time>2015-12-19T10:08:28Z</time>
      </trkpt>
      <trkpt lat="41.920551" lon="0.755458">
        <ele>657.096</ele>
        <time>2015-12-19T10:08:31Z</time>
      </trkpt>
      <trkpt lat="41.920658" lon="0.755398">
        <ele>657.036</ele>
        <time>2015-12-19T10:08:34Z</time>
      </trkpt>
      <trkpt lat="41.920767" lon="0.755344">
        <ele>659.012</ele>
        <time>2015-12-19T10:08:37Z</time>
      </trkpt>
      <trkpt lat="41.920876" lon="0.755290">
        <ele>659.046</ele>
        <time>2015-12-19T10:08:40Z</time>
      </trkpt>
      <trkpt lat="41.920989" lon="0.755227">
        <ele>658.070</ele>
        <time>2015-12-19T10:08:43Z</time>
      </trkpt>
      <trkpt lat="41.921105" lon="0.755158">
        <ele>657.048</ele>
        <time>2015-12-19T10:08:46Z</time>
      </trkpt>
      <trkpt lat="41.921216" lon="0.755090">
        <ele>657.044</ele>
        <time>2015-12-19T10:08:49Z</time>
      </trkpt>
      <trkpt lat="41.921325" lon="0.755027">
        <ele>658.034</ele>
        <time>2015-12-19T10:08:52Z</time>
      </trkpt>
      <trkpt lat="41.921436" lon="0.754961">
        <ele>658.022</ele>
        <time>2015-12-19T10:08:55Z</time>
      </trkpt>
      <trkpt lat="41.921546" lon="0.754901">
        <ele>659.062</ele>
        <time>2015-12-19T10:08:58Z</time>
      </trkpt>
      <trkpt lat="41.921655" lon="0.754836">
        <ele>659.008</ele>
        <time>2015-12-19T10:09:01Z</time>
      </trkpt>
      <trkpt lat="41.921768" lon="0.754772">
        <ele>659.008</ele>
        <time>2015-12-19T10:09:04Z</time>
      </trkpt>
      <trkpt lat="41.921878" lon="0.754711">
        <ele>659.053</ele>
        <time>2015-12-19T10:09:07Z</time>
      </trkpt>
      <trkpt lat="41.921991" lon="0.754650">
        <ele>660.033</ele>
        <time>2015-12-19T10:09:10Z</time>
      </trkpt>
      <trkpt lat="41.922100" lon="0.754588">
        <ele>660.099</ele>
        <time>2015-12-19T10:09:13Z</time>
      </trkpt>
      <trkpt lat="41.922210" lon="0.754531">
        <ele>660.053</ele>
        <time>2015-12-19T10:09:16Z</time>
      </trkpt>
      <trkpt lat="41.922316" lon="0.754473">
        <ele>660.017</ele>
        <time>2015-12-19T10:09:19Z</time>
      </trkpt>
      <trkpt lat="41.922417" lon="0.754413">
        <ele>660.065</ele>
        <time>2015-12-19T10:09:22Z</time>
      </trkpt>
      <trkpt lat="41.922522" lon="0.754352">
        <ele>660.041</ele>
        <time>2015-12-19T10:09:25Z</time>
      </trkpt>
      <trkpt lat="41.922627" lon="0.754293">
        <ele>662.061</ele>
        <time>2015-12-19T10:09:28Z</time>
      </trkpt>
      <trkpt lat="41.922731" lon="0.754234">
        <ele>662.047</ele>
        <time>2015-12-19T10:09:31Z</time>
      </trkpt>
      <trkpt lat="41.922832" lon="0.754175">
        <ele>662.029</ele>
        <time>2015-12-19T10:09:34Z</time>
      </trkpt>
      <trkpt lat="41.922930" lon="0.754114">
        <ele>663.021</ele>
        <time>2015-12-19T10:09:37Z</time>
      </trkpt>
      <trkpt lat="41.923030" lon="0.754054">
        <ele>664.008</ele>
        <time>2015-12-19T10:09:40Z</time>
      </trkpt>
      <trkpt lat="41.923130" lon="0.753998">
        <ele>664.095</ele>
        <time>2015-12-19T10:09:43Z</time>
      </trkpt>
      <trkpt lat="41.923230" lon="0.753943">
        <ele>664.025</ele>
        <time>2015-12-19T10:09:45Z</time>
      </trkpt>
      <trkpt lat="41.923330" lon="0.753884">
        <ele>665.011</ele>
        <time>2015-12-19T10:09:48Z</time>
      </trkpt>
      <trkpt lat="41.923429" lon="0.753827">
        <ele>665.055</ele>
        <time>2015-12-19T10:09:51Z</time>
      </trkpt>
      <trkpt lat="41.923528" lon="0.753774">
        <ele>666.089</ele>
        <time>2015-12-19T10:09:54Z</time>
      </trkpt>
      <trkpt lat="41.923629" lon="0.753720">
        <ele>666.077</ele>
        <time>2015-12-19T10:09:58Z</time>
      </trkpt>
      <trkpt lat="41.923728" lon="0.753665">
        <ele>667.033</ele>
        <time>2015-12-19T10:10:01Z</time>
      </trkpt>
      <trkpt lat="41.923825" lon="0.753610">
        <ele>667.063</ele>
        <time>2015-12-19T10:10:04Z</time>
      </trkpt>
      <trkpt lat="41.923924" lon="0.753558">
        <ele>667.082</ele>
        <time>2015-12-19T10:10:07Z</time>
      </trkpt>
      <trkpt lat="41.924019" lon="0.753504">
        <ele>667.043</ele>
        <time>2015-12-19T10:10:10Z</time>
      </trkpt>
      <trkpt lat="41.924118" lon="0.753447">
        <ele>668.017</ele>
        <time>2015-12-19T10:10:13Z</time>
      </trkpt>
      <trkpt lat="41.924219" lon="0.753390">
        <ele>668.008</ele>
        <time>2015-12-19T10:10:16Z</time>
      </trkpt>
      <trkpt lat="41.924321" lon="0.753329">
        <ele>668.049</ele>
        <time>2015-12-19T10:10:19Z</time>
      </trkpt>
      <trkpt lat="41.924426" lon="0.753267">
        <ele>669.039</ele>
        <time>2015-12-19T10:10:22Z</time>
      </trkpt>
      <trkpt lat="41.924531" lon="0.753210">
        <ele>669.095</ele>
        <time>2015-12-19T10:10:25Z</time>
      </trkpt>
      <trkpt lat="41.924636" lon="0.753155">
        <ele>669.049</ele>
        <time>2015-12-19T10:10:28Z</time>
      </trkpt>
      <trkpt lat="41.924740" lon="0.753094">
        <ele>670.063</ele>
        <time>2015-12-19T10:10:31Z</time>
      </trkpt>
      <trkpt lat="41.924846" lon="0.753034">
        <ele>669.081</ele>
        <time>2015-12-19T10:10:34Z</time>
      </trkpt>
      <trkpt lat="41.924956" lon="0.752970">
        <ele>669.037</ele>
        <time>2015-12-19T10:10:37Z</time>
      </trkpt>
      <trkpt lat="41.925068" lon="0.752906">
        <ele>669.047</ele>
        <time>2015-12-19T10:10:40Z</time>
      </trkpt>
      <trkpt lat="41.925180" lon="0.752839">
        <ele>670.099</ele>
        <time>2015-12-19T10:10:43Z</time>
      </trkpt>
      <trkpt lat="41.925293" lon="0.752771">
        <ele>669.007</ele>
        <time>2015-12-19T10:10:46Z</time>
      </trkpt>
      <trkpt lat="41.925402" lon="0.752705">
        <ele>670.027</ele>
        <time>2015-12-19T10:10:49Z</time>
      </trkpt>
      <trkpt lat="41.925511" lon="0.752643">
        <ele>670.008</ele>
        <time>2015-12-19T10:10:52Z</time>
      </trkpt>
      <trkpt lat="41.925621" lon="0.752584">
        <ele>671.010</ele>
        <time>2015-12-19T10:10:55Z</time>
      </trkpt>
      <trkpt lat="41.925733" lon="0.752528">
        <ele>672.080</ele>
        <time>2015-12-19T10:10:58Z</time>
      </trkpt>
      <trkpt lat="41.925870" lon="0.752479">
        <ele>671.086</ele>
        <time>2015-12-19T10:11:01Z</time>
      </trkpt>
      <trkpt lat="41.925967" lon="0.752438">
        <ele>672.080</ele>
        <time>2015-12-19T10:11:03Z</time>
      </trkpt>
      <trkpt lat="41.926055" lon="0.752409">
        <ele>671.054</ele>
        <time>2015-12-19T10:11:05Z</time>
      </trkpt>
      <trkpt lat="41.926187" lon="0.752388">
        <ele>671.052</ele>
        <time>2015-12-19T10:11:08Z</time>
      </trkpt>
      <trkpt lat="41.926276" lon="0.752363">
        <ele>671.058</ele>
        <time>2015-12-19T10:11:10Z</time>
      </trkpt>
      <trkpt lat="41.926409" lon="0.752339">
        <ele>670.088</ele>
        <time>2015-12-19T10:11:13Z</time>
      </trkpt>
      <trkpt lat="41.926537" lon="0.752319">
        <ele>670.084</ele>
        <time>2015-12-19T10:11:16Z</time>
      </trkpt>
      <trkpt lat="41.926633" lon="0.752312">
        <ele>670.007</ele>
        <time>2015-12-19T10:11:18Z</time>
      </trkpt>
      <trkpt lat="41.926723" lon="0.752313">
        <ele>670.017</ele>
        <time>2015-12-19T10:11:20Z</time>
      </trkpt>
      <trkpt lat="41.926823" lon="0.752318">
        <ele>670.008</ele>
        <time>2015-12-19T10:11:22Z</time>
      </trkpt>
      <trkpt lat="41.926925" lon="0.752323">
        <ele>671.019</ele>
        <time>2015-12-19T10:11:24Z</time>
      </trkpt>
      <trkpt lat="41.927016" lon="0.752334">
        <ele>671.089</ele>
        <time>2015-12-19T10:11:26Z</time>
      </trkpt>
      <trkpt lat="41.927147" lon="0.752353">
        <ele>671.065</ele>
        <time>2015-12-19T10:11:29Z</time>
      </trkpt>
      <trkpt lat="41.927240" lon="0.752368">
        <ele>671.079</ele>
        <time>2015-12-19T10:11:31Z</time>
      </trkpt>
      <trkpt lat="41.927334" lon="0.752377">
        <ele>672.043</ele>
        <time>2015-12-19T10:11:33Z</time>
      </trkpt>
      <trkpt lat="41.927489" lon="0.752402">
        <ele>672.021</ele>
        <time>2015-12-19T10:11:35Z</time>
      </trkpt>
      <trkpt lat="41.927591" lon="0.752432">
        <ele>672.047</ele>
        <time>2015-12-19T10:11:37Z</time>
      </trkpt>
      <trkpt lat="41.927704" lon="0.752450">
        <ele>672.087</ele>
        <time>2015-12-19T10:11:39Z</time>
      </trkpt>
      <trkpt lat="41.927814" lon="0.752463">
        <ele>671.025</ele>
        <time>2015-12-19T10:11:41Z</time>
      </trkpt>
      <trkpt lat="41.927916" lon="0.752483">
        <ele>671.026</ele>
        <time>2015-12-19T10:11:44Z</time>
      </trkpt>
      <trkpt lat="41.928032" lon="0.752490">
        <ele>671.008</ele>
        <time>2015-12-19T10:11:45Z</time>
      </trkpt>
      <trkpt lat="41.928150" lon="0.752494">
        <ele>671.008</ele>
        <time>2015-12-19T10:11:48Z</time>
      </trkpt>
      <trkpt lat="41.928269" lon="0.752502">
        <ele>669.023</ele>
        <time>2015-12-19T10:11:50Z</time>
      </trkpt>
      <trkpt lat="41.928387" lon="0.752488">
        <ele>668.083</ele>
        <time>2015-12-19T10:11:52Z</time>
      </trkpt>
      <trkpt lat="41.928509" lon="0.752454">
        <ele>668.079</ele>
        <time>2015-12-19T10:11:54Z</time>
      </trkpt>
      <trkpt lat="41.928642" lon="0.752423">
        <ele>667.023</ele>
        <time>2015-12-19T10:11:56Z</time>
      </trkpt>
      <trkpt lat="41.928765" lon="0.752358">
        <ele>667.097</ele>
        <time>2015-12-19T10:11:58Z</time>
      </trkpt>
      <trkpt lat="41.928882" lon="0.752278">
        <ele>666.035</ele>
        <time>2015-12-19T10:12:00Z</time>
      </trkpt>
      <trkpt lat="41.929006" lon="0.752192">
        <ele>666.061</ele>
        <time>2015-12-19T10:12:02Z</time>
      </trkpt>
      <trkpt lat="41.929138" lon="0.752085">
        <ele>666.061</ele>
        <time>2015-12-19T10:12:04Z</time>
      </trkpt>
      <trkpt lat="41.929259" lon="0.751940">
        <ele>665.074</ele>
        <time>2015-12-19T10:12:06Z</time>
      </trkpt>
      <trkpt lat="41.929379" lon="0.751799">
        <ele>664.056</ele>
        <time>2015-12-19T10:12:08Z</time>
      </trkpt>
      <trkpt lat="41.929496" lon="0.751637">
        <ele>664.021</ele>
        <time>2015-12-19T10:12:10Z</time>
      </trkpt>
      <trkpt lat="41.929615" lon="0.751461">
        <ele>663.008</ele>
        <time>2015-12-19T10:12:12Z</time>
      </trkpt>
      <trkpt lat="41.929729" lon="0.751271">
        <ele>663.018</ele>
        <time>2015-12-19T10:12:14Z</time>
      </trkpt>
      <trkpt lat="41.929785" lon="0.751172">
        <ele>662.078</ele>
        <time>2015-12-19T10:12:15Z</time>
      </trkpt>
      <trkpt lat="41.929894" lon="0.750976">
        <ele>661.054</ele>
        <time>2015-12-19T10:12:17Z</time>
      </trkpt>
      <trkpt lat="41.930008" lon="0.750783">
        <ele>661.088</ele>
        <time>2015-12-19T10:12:19Z</time>
      </trkpt>
      <trkpt lat="41.930074" lon="0.750678">
        <ele>661.032</ele>
        <time>2015-12-19T10:12:20Z</time>
      </trkpt>
      <trkpt lat="41.930194" lon="0.750478">
        <ele>661.060</ele>
        <time>2015-12-19T10:12:22Z</time>
      </trkpt>
      <trkpt lat="41.930254" lon="0.750380">
        <ele>660.096</ele>
        <time>2015-12-19T10:12:23Z</time>
      </trkpt>
      <trkpt lat="41.930370" lon="0.750184">
        <ele>660.016</ele>
        <time>2015-12-19T10:12:25Z</time>
      </trkpt>
      <trkpt lat="41.930429" lon="0.750092">
        <ele>660.061</ele>
        <time>2015-12-19T10:12:26Z</time>
      </trkpt>
      <trkpt lat="41.930486" lon="0.749995">
        <ele>659.021</ele>
        <time>2015-12-19T10:12:27Z</time>
      </trkpt>
      <trkpt lat="41.930554" lon="0.749892">
        <ele>659.013</ele>
        <time>2015-12-19T10:12:28Z</time>
      </trkpt>
      <trkpt lat="41.930614" lon="0.749797">
        <ele>659.008</ele>
        <time>2015-12-19T10:12:29Z</time>
      </trkpt>
      <trkpt lat="41.930672" lon="0.749697">
        <ele>659.087</ele>
        <time>2015-12-19T10:12:30Z</time>
      </trkpt>
      <trkpt lat="41.930781" lon="0.749515">
        <ele>658.047</ele>
        <time>2015-12-19T10:12:32Z</time>
      </trkpt>
      <trkpt lat="41.930848" lon="0.749416">
        <ele>658.013</ele>
        <time>2015-12-19T10:12:33Z</time>
      </trkpt>
      <trkpt lat="41.930908" lon="0.749322">
        <ele>658.017</ele>
        <time>2015-12-19T10:12:34Z</time>
      </trkpt>
      <trkpt lat="41.930974" lon="0.749229">
        <ele>658.081</ele>
        <time>2015-12-19T10:12:35Z</time>
      </trkpt>
      <trkpt lat="41.931040" lon="0.749130">
        <ele>658.039</ele>
        <time>2015-12-19T10:12:36Z</time>
      </trkpt>
      <trkpt lat="41.931165" lon="0.748943">
        <ele>657.085</ele>
        <time>2015-12-19T10:12:38Z</time>
      </trkpt>
      <trkpt lat="41.931227" lon="0.748844">
        <ele>657.065</ele>
        <time>2015-12-19T10:12:39Z</time>
      </trkpt>
      <trkpt lat="41.931362" lon="0.748676">
        <ele>657.029</ele>
        <time>2015-12-19T10:12:41Z</time>
      </trkpt>
      <trkpt lat="41.931501" lon="0.748523">
        <ele>656.000</ele>
        <time>2015-12-19T10:12:43Z</time>
      </trkpt>
      <trkpt lat="41.931581" lon="0.748446">
        <ele>656.020</ele>
        <time>2015-12-19T10:12:44Z</time>
      </trkpt>
      <trkpt lat="41.931735" lon="0.748317">
        <ele>655.008</ele>
        <time>2015-12-19T10:12:46Z</time>
      </trkpt>
      <trkpt lat="41.931814" lon="0.748258">
        <ele>654.093</ele>
        <time>2015-12-19T10:12:47Z</time>
      </trkpt>
      <trkpt lat="41.931979" lon="0.748154">
        <ele>654.023</ele>
        <time>2015-12-19T10:12:49Z</time>
      </trkpt>
      <trkpt lat="41.932142" lon="0.748065">
        <ele>653.039</ele>
        <time>2015-12-19T10:12:51Z</time>
      </trkpt>
      <trkpt lat="41.932239" lon="0.748013">
        <ele>652.023</ele>
        <time>2015-12-19T10:12:52Z</time>
      </trkpt>
      <trkpt lat="41.932410" lon="0.747931">
        <ele>651.017</ele>
        <time>2015-12-19T10:12:54Z</time>
      </trkpt>
      <trkpt lat="41.932580" lon="0.747880">
        <ele>650.025</ele>
        <time>2015-12-19T10:12:56Z</time>
      </trkpt>
      <trkpt lat="41.932678" lon="0.747850">
        <ele>649.091</ele>
        <time>2015-12-19T10:12:57Z</time>
      </trkpt>
      <trkpt lat="41.932847" lon="0.747813">
        <ele>649.091</ele>
        <time>2015-12-19T10:12:59Z</time>
      </trkpt>
      <trkpt lat="41.932942" lon="0.747797">
        <ele>649.028</ele>
        <time>2015-12-19T10:13:00Z</time>
      </trkpt>
      <trkpt lat="41.933116" lon="0.747792">
        <ele>648.089</ele>
        <time>2015-12-19T10:13:02Z</time>
      </trkpt>
      <trkpt lat="41.933286" lon="0.747795">
        <ele>648.017</ele>
        <time>2015-12-19T10:13:04Z</time>
      </trkpt>
      <trkpt lat="41.933383" lon="0.747802">
        <ele>648.008</ele>
        <time>2015-12-19T10:13:05Z</time>
      </trkpt>
      <trkpt lat="41.933550" lon="0.747798">
        <ele>647.073</ele>
        <time>2015-12-19T10:13:07Z</time>
      </trkpt>
      <trkpt lat="41.933643" lon="0.747799">
        <ele>647.023</ele>
        <time>2015-12-19T10:13:08Z</time>
      </trkpt>
      <trkpt lat="41.933822" lon="0.747814">
        <ele>647.099</ele>
        <time>2015-12-19T10:13:10Z</time>
      </trkpt>
      <trkpt lat="41.933985" lon="0.747830">
        <ele>647.043</ele>
        <time>2015-12-19T10:13:12Z</time>
      </trkpt>
      <trkpt lat="41.934076" lon="0.747843">
        <ele>647.047</ele>
        <time>2015-12-19T10:13:13Z</time>
      </trkpt>
      <trkpt lat="41.934223" lon="0.747847">
        <ele>647.025</ele>
        <time>2015-12-19T10:13:15Z</time>
      </trkpt>
      <trkpt lat="41.934385" lon="0.747853">
        <ele>647.031</ele>
        <time>2015-12-19T10:13:17Z</time>
      </trkpt>
      <trkpt lat="41.934548" lon="0.747834">
        <ele>647.061</ele>
        <time>2015-12-19T10:13:19Z</time>
      </trkpt>
      <trkpt lat="41.934704" lon="0.747788">
        <ele>647.044</ele>
        <time>2015-12-19T10:13:21Z</time>
      </trkpt>
      <trkpt lat="41.934844" lon="0.747716">
        <ele>646.005</ele>
        <time>2015-12-19T10:13:23Z</time>
      </trkpt>
      <trkpt lat="41.934977" lon="0.747621">
        <ele>647.015</ele>
        <time>2015-12-19T10:13:25Z</time>
      </trkpt>
      <trkpt lat="41.935167" lon="0.747435">
        <ele>646.008</ele>
        <time>2015-12-19T10:13:27Z</time>
      </trkpt>
      <trkpt lat="41.935286" lon="0.747286">
        <ele>646.025</ele>
        <time>2015-12-19T10:13:29Z</time>
      </trkpt>
      <trkpt lat="41.935408" lon="0.747121">
        <ele>646.025</ele>
        <time>2015-12-19T10:13:31Z</time>
      </trkpt>
      <trkpt lat="41.935530" lon="0.746968">
        <ele>646.091</ele>
        <time>2015-12-19T10:13:34Z</time>
      </trkpt>
      <trkpt lat="41.935647" lon="0.746828">
        <ele>646.075</ele>
        <time>2015-12-19T10:13:36Z</time>
      </trkpt>
      <trkpt lat="41.935768" lon="0.746690">
        <ele>647.069</ele>
        <time>2015-12-19T10:13:38Z</time>
      </trkpt>
      <trkpt lat="41.935906" lon="0.746577">
        <ele>647.047</ele>
        <time>2015-12-19T10:13:40Z</time>
      </trkpt>
      <trkpt lat="41.936050" lon="0.746476">
        <ele>646.073</ele>
        <time>2015-12-19T10:13:42Z</time>
      </trkpt>
      <trkpt lat="41.936186" lon="0.746417">
        <ele>646.023</ele>
        <time>2015-12-19T10:13:44Z</time>
      </trkpt>
      <trkpt lat="41.936326" lon="0.746370">
        <ele>647.042</ele>
        <time>2015-12-19T10:13:46Z</time>
      </trkpt>
      <trkpt lat="41.936472" lon="0.746331">
        <ele>648.022</ele>
        <time>2015-12-19T10:13:48Z</time>
      </trkpt>
      <trkpt lat="41.936602" lon="0.746299">
        <ele>648.014</ele>
        <time>2015-12-19T10:13:50Z</time>
      </trkpt>
      <trkpt lat="41.936715" lon="0.746294">
        <ele>648.008</ele>
        <time>2015-12-19T10:13:52Z</time>
      </trkpt>
      <trkpt lat="41.936820" lon="0.746296">
        <ele>649.015</ele>
        <time>2015-12-19T10:13:54Z</time>
      </trkpt>
      <trkpt lat="41.936920" lon="0.746326">
        <ele>650.065</ele>
        <time>2015-12-19T10:13:56Z</time>
      </trkpt>
      <trkpt lat="41.937012" lon="0.746353">
        <ele>650.091</ele>
        <time>2015-12-19T10:13:58Z</time>
      </trkpt>
      <trkpt lat="41.937132" lon="0.746415">
        <ele>648.015</ele>
        <time>2015-12-19T10:14:01Z</time>
      </trkpt>
      <trkpt lat="41.937223" lon="0.746469">
        <ele>649.089</ele>
        <time>2015-12-19T10:14:04Z</time>
      </trkpt>
      <trkpt lat="41.937308" lon="0.746523">
        <ele>650.017</ele>
        <time>2015-12-19T10:14:07Z</time>
      </trkpt>
      <trkpt lat="41.937396" lon="0.746584">
        <ele>650.013</ele>
        <time>2015-12-19T10:14:11Z</time>
      </trkpt>
      <trkpt lat="41.937485" lon="0.746662">
        <ele>651.073</ele>
        <time>2015-12-19T10:14:15Z</time>
      </trkpt>
      <trkpt lat="41.937559" lon="0.746737">
        <ele>651.012</ele>
        <time>2015-12-19T10:14:19Z</time>
      </trkpt>
      <trkpt lat="41.937643" lon="0.746809">
        <ele>652.032</ele>
        <time>2015-12-19T10:14:23Z</time>
      </trkpt>
      <trkpt lat="41.937725" lon="0.746885">
        <ele>653.005</ele>
        <time>2015-12-19T10:14:27Z</time>
      </trkpt>
      <trkpt lat="41.937813" lon="0.746965">
        <ele>655.008</ele>
        <time>2015-12-19T10:14:31Z</time>
      </trkpt>
      <trkpt lat="41.937890" lon="0.747038">
        <ele>656.012</ele>
        <time>2015-12-19T10:14:35Z</time>
      </trkpt>
      <trkpt lat="41.937967" lon="0.747114">
        <ele>657.042</ele>
        <time>2015-12-19T10:14:39Z</time>
      </trkpt>
      <trkpt lat="41.938040" lon="0.747189">
        <ele>657.028</ele>
        <time>2015-12-19T10:14:43Z</time>
      </trkpt>
      <trkpt lat="41.938115" lon="0.747267">
        <ele>657.082</ele>
        <time>2015-12-19T10:14:47Z</time>
      </trkpt>
      <trkpt lat="41.938199" lon="0.747352">
        <ele>658.086</ele>
        <time>2015-12-19T10:14:52Z</time>
      </trkpt>
      <trkpt lat="41.938276" lon="0.747430">
        <ele>659.034</ele>
        <time>2015-12-19T10:14:57Z</time>
      </trkpt>
      <trkpt lat="41.938355" lon="0.747514">
        <ele>660.030</ele>
        <time>2015-12-19T10:15:02Z</time>
      </trkpt>
      <trkpt lat="41.938429" lon="0.747593">
        <ele>661.070</ele>
        <time>2015-12-19T10:15:07Z</time>
      </trkpt>
      <trkpt lat="41.938528" lon="0.747675">
        <ele>661.096</ele>
        <time>2015-12-19T10:15:12Z</time>
      </trkpt>
      <trkpt lat="41.938622" lon="0.747767">
        <ele>662.031</ele>
        <time>2015-12-19T10:15:18Z</time>
      </trkpt>
      <trkpt lat="41.938704" lon="0.747851">
        <ele>662.024</ele>
        <time>2015-12-19T10:15:24Z</time>
      </trkpt>
      <trkpt lat="41.938791" lon="0.747937">
        <ele>663.008</ele>
        <time>2015-12-19T10:15:29Z</time>
      </trkpt>
      <trkpt lat="41.938870" lon="0.748015">
        <ele>663.020</ele>
        <time>2015-12-19T10:15:34Z</time>
      </trkpt>
      <trkpt lat="41.938951" lon="0.748097">
        <ele>665.070</ele>
        <time>2015-12-19T10:15:39Z</time>
      </trkpt>
      <trkpt lat="41.939036" lon="0.748189">
        <ele>666.096</ele>
        <time>2015-12-19T10:15:44Z</time>
      </trkpt>
      <trkpt lat="41.939105" lon="0.748274">
        <ele>667.040</ele>
        <time>2015-12-19T10:15:48Z</time>
      </trkpt>
      <trkpt lat="41.939191" lon="0.748365">
        <ele>668.044</ele>
        <time>2015-12-19T10:15:53Z</time>
      </trkpt>
      <trkpt lat="41.939274" lon="0.748453">
        <ele>668.072</ele>
        <time>2015-12-19T10:15:58Z</time>
      </trkpt>
      <trkpt lat="41.939352" lon="0.748529">
        <ele>669.068</ele>
        <time>2015-12-19T10:16:03Z</time>
      </trkpt>
      <trkpt lat="41.939432" lon="0.748601">
        <ele>670.068</ele>
        <time>2015-12-19T10:16:08Z</time>
      </trkpt>
      <trkpt lat="41.939505" lon="0.748685">
        <ele>671.066</ele>
        <time>2015-12-19T10:16:13Z</time>
      </trkpt>
      <trkpt lat="41.939585" lon="0.748756">
        <ele>672.029</ele>
        <time>2015-12-19T10:16:18Z</time>
      </trkpt>
      <trkpt lat="41.939658" lon="0.748826">
        <ele>674.021</ele>
        <time>2015-12-19T10:16:23Z</time>
      </trkpt>
      <trkpt lat="41.939746" lon="0.748908">
        <ele>675.008</ele>
        <time>2015-12-19T10:16:29Z</time>
      </trkpt>
      <trkpt lat="41.939822" lon="0.748985">
        <ele>676.037</ele>
        <time>2015-12-19T10:16:34Z</time>
      </trkpt>
      <trkpt lat="41.939898" lon="0.749064">
        <ele>676.097</ele>
        <time>2015-12-19T10:16:39Z</time>
      </trkpt>
      <trkpt lat="41.939974" lon="0.749141">
        <ele>676.093</ele>
        <time>2015-12-19T10:16:44Z</time>
      </trkpt>
      <trkpt lat="41.940049" lon="0.749225">
        <ele>676.097</ele>
        <time>2015-12-19T10:16:49Z</time>
      </trkpt>
      <trkpt lat="41.940119" lon="0.749320">
        <ele>676.071</ele>
        <time>2015-12-19T10:16:54Z</time>
      </trkpt>
      <trkpt lat="41.940190" lon="0.749413">
        <ele>677.029</ele>
        <time>2015-12-19T10:16:59Z</time>
      </trkpt>
      <trkpt lat="41.940257" lon="0.749513">
        <ele>678.075</ele>
        <time>2015-12-19T10:17:04Z</time>
      </trkpt>
      <trkpt lat="41.940318" lon="0.749626">
        <ele>680.035</ele>
        <time>2015-12-19T10:17:09Z</time>
      </trkpt>
      <trkpt lat="41.940375" lon="0.749745">
        <ele>680.088</ele>
        <time>2015-12-19T10:17:13Z</time>
      </trkpt>
      <trkpt lat="41.940425" lon="0.749860">
        <ele>681.024</ele>
        <time>2015-12-19T10:17:18Z</time>
      </trkpt>
      <trkpt lat="41.940463" lon="0.749974">
        <ele>682.026</ele>
        <time>2015-12-19T10:17:24Z</time>
      </trkpt>
      <trkpt lat="41.940485" lon="0.750095">
        <ele>683.008</ele>
        <time>2015-12-19T10:17:29Z</time>
      </trkpt>
      <trkpt lat="41.940515" lon="0.750210">
        <ele>683.019</ele>
        <time>2015-12-19T10:17:34Z</time>
      </trkpt>
      <trkpt lat="41.940535" lon="0.750331">
        <ele>683.019</ele>
        <time>2015-12-19T10:17:39Z</time>
      </trkpt>
      <trkpt lat="41.940552" lon="0.750456">
        <ele>683.055</ele>
        <time>2015-12-19T10:17:44Z</time>
      </trkpt>
      <trkpt lat="41.940559" lon="0.750586">
        <ele>684.069</ele>
        <time>2015-12-19T10:17:49Z</time>
      </trkpt>
      <trkpt lat="41.940559" lon="0.750720">
        <ele>685.043</ele>
        <time>2015-12-19T10:17:54Z</time>
      </trkpt>
      <trkpt lat="41.940565" lon="0.750854">
        <ele>686.021</ele>
        <time>2015-12-19T10:17:59Z</time>
      </trkpt>
      <trkpt lat="41.940564" lon="0.750988">
        <ele>687.037</ele>
        <time>2015-12-19T10:18:04Z</time>
      </trkpt>
      <trkpt lat="41.940560" lon="0.751122">
        <ele>687.057</ele>
        <time>2015-12-19T10:18:09Z</time>
      </trkpt>
      <trkpt lat="41.940561" lon="0.751254">
        <ele>688.084</ele>
        <time>2015-12-19T10:18:14Z</time>
      </trkpt>
      <trkpt lat="41.940561" lon="0.751387">
        <ele>689.007</ele>
        <time>2015-12-19T10:18:19Z</time>
      </trkpt>
      <trkpt lat="41.940557" lon="0.751522">
        <ele>690.017</ele>
        <time>2015-12-19T10:18:24Z</time>
      </trkpt>
      <trkpt lat="41.940554" lon="0.751655">
        <ele>690.008</ele>
        <time>2015-12-19T10:18:29Z</time>
      </trkpt>
      <trkpt lat="41.940552" lon="0.751793">
        <ele>691.089</ele>
        <time>2015-12-19T10:18:34Z</time>
      </trkpt>
      <trkpt lat="41.940551" lon="0.751931">
        <ele>691.079</ele>
        <time>2015-12-19T10:18:39Z</time>
      </trkpt>
      <trkpt lat="41.940546" lon="0.752068">
        <ele>691.055</ele>
        <time>2015-12-19T10:18:44Z</time>
      </trkpt>
      <trkpt lat="41.940541" lon="0.752205">
        <ele>692.079</ele>
        <time>2015-12-19T10:18:49Z</time>
      </trkpt>
      <trkpt lat="41.940540" lon="0.752342">
        <ele>693.043</ele>
        <time>2015-12-19T10:18:54Z</time>
      </trkpt>
      <trkpt lat="41.940536" lon="0.752477">
        <ele>693.081</ele>
        <time>2015-12-19T10:18:59Z</time>
      </trkpt>
      <trkpt lat="41.940534" lon="0.752613">
        <ele>693.027</ele>
        <time>2015-12-19T10:19:03Z</time>
      </trkpt>
      <trkpt lat="41.940531" lon="0.752747">
        <ele>694.097</ele>
        <time>2015-12-19T10:19:08Z</time>
      </trkpt>
      <trkpt lat="41.940530" lon="0.752885">
        <ele>695.016</ele>
        <time>2015-12-19T10:19:13Z</time>
      </trkpt>
      <trkpt lat="41.940528" lon="0.753023">
        <ele>695.076</ele>
        <time>2015-12-19T10:19:19Z</time>
      </trkpt>
      <trkpt lat="41.940527" lon="0.753159">
        <ele>695.013</ele>
        <time>2015-12-19T10:19:24Z</time>
      </trkpt>
      <trkpt lat="41.940523" lon="0.753296">
        <ele>695.008</ele>
        <time>2015-12-19T10:19:29Z</time>
      </trkpt>
      <trkpt lat="41.940518" lon="0.753433">
        <ele>697.052</ele>
        <time>2015-12-19T10:19:34Z</time>
      </trkpt>
      <trkpt lat="41.940516" lon="0.753567">
        <ele>698.092</ele>
        <time>2015-12-19T10:19:39Z</time>
      </trkpt>
      <trkpt lat="41.940523" lon="0.753701">
        <ele>699.078</ele>
        <time>2015-12-19T10:19:44Z</time>
      </trkpt>
      <trkpt lat="41.940528" lon="0.753834">
        <ele>699.042</ele>
        <time>2015-12-19T10:19:49Z</time>
      </trkpt>
      <trkpt lat="41.940536" lon="0.753964">
        <ele>700.056</ele>
        <time>2015-12-19T10:19:54Z</time>
      </trkpt>
      <trkpt lat="41.940550" lon="0.754093">
        <ele>701.044</ele>
        <time>2015-12-19T10:19:59Z</time>
      </trkpt>
      <trkpt lat="41.940570" lon="0.754225">
        <ele>701.090</ele>
        <time>2015-12-19T10:20:04Z</time>
      </trkpt>
      <trkpt lat="41.940599" lon="0.754352">
        <ele>702.040</ele>
        <time>2015-12-19T10:20:09Z</time>
      </trkpt>
      <trkpt lat="41.940629" lon="0.754480">
        <ele>703.083</ele>
        <time>2015-12-19T10:20:14Z</time>
      </trkpt>
      <trkpt lat="41.940668" lon="0.754604">
        <ele>704.025</ele>
        <time>2015-12-19T10:20:19Z</time>
      </trkpt>
      <trkpt lat="41.940710" lon="0.754728">
        <ele>706.017</ele>
        <time>2015-12-19T10:20:24Z</time>
      </trkpt>
      <trkpt lat="41.940759" lon="0.754855">
        <ele>706.008</ele>
        <time>2015-12-19T10:20:29Z</time>
      </trkpt>
      <trkpt lat="41.940813" lon="0.754972">
        <ele>706.069</ele>
        <time>2015-12-19T10:20:34Z</time>
      </trkpt>
      <trkpt lat="41.940872" lon="0.755082">
        <ele>707.069</ele>
        <time>2015-12-19T10:20:39Z</time>
      </trkpt>
      <trkpt lat="41.940940" lon="0.755175">
        <ele>708.095</ele>
        <time>2015-12-19T10:20:44Z</time>
      </trkpt>
      <trkpt lat="41.941004" lon="0.755267">
        <ele>710.099</ele>
        <time>2015-12-19T10:20:49Z</time>
      </trkpt>
      <trkpt lat="41.941070" lon="0.755359">
        <ele>709.043</ele>
        <time>2015-12-19T10:20:54Z</time>
      </trkpt>
      <trkpt lat="41.941143" lon="0.755453">
        <ele>710.021</ele>
        <time>2015-12-19T10:20:59Z</time>
      </trkpt>
      <trkpt lat="41.941244" lon="0.755565">
        <ele>711.017</ele>
        <time>2015-12-19T10:21:04Z</time>
      </trkpt>
      <trkpt lat="41.941325" lon="0.755640">
        <ele>711.037</ele>
        <time>2015-12-19T10:21:09Z</time>
      </trkpt>
      <trkpt lat="41.941407" lon="0.755707">
        <ele>711.049</ele>
        <time>2015-12-19T10:21:15Z</time>
      </trkpt>
      <trkpt lat="41.941486" lon="0.755773">
        <ele>713.002</ele>
        <time>2015-12-19T10:21:20Z</time>
      </trkpt>
      <trkpt lat="41.941571" lon="0.755829">
        <ele>713.022</ele>
        <time>2015-12-19T10:21:25Z</time>
      </trkpt>
      <trkpt lat="41.941655" lon="0.755878">
        <ele>714.008</ele>
        <time>2015-12-19T10:21:30Z</time>
      </trkpt>
      <trkpt lat="41.941743" lon="0.755928">
        <ele>715.025</ele>
        <time>2015-12-19T10:21:35Z</time>
      </trkpt>
      <trkpt lat="41.941835" lon="0.755971">
        <ele>716.025</ele>
        <time>2015-12-19T10:21:40Z</time>
      </trkpt>
      <trkpt lat="41.941933" lon="0.756004">
        <ele>716.021</ele>
        <time>2015-12-19T10:21:45Z</time>
      </trkpt>
      <trkpt lat="41.942031" lon="0.756037">
        <ele>717.075</ele>
        <time>2015-12-19T10:21:50Z</time>
      </trkpt>
      <trkpt lat="41.942129" lon="0.756058">
        <ele>717.049</ele>
        <time>2015-12-19T10:21:55Z</time>
      </trkpt>
      <trkpt lat="41.942228" lon="0.756073">
        <ele>717.067</ele>
        <time>2015-12-19T10:22:00Z</time>
      </trkpt>
      <trkpt lat="41.942327" lon="0.756079">
        <ele>717.013</ele>
        <time>2015-12-19T10:22:05Z</time>
      </trkpt>
      <trkpt lat="41.942430" lon="0.756076">
        <ele>718.063</ele>
        <time>2015-12-19T10:22:10Z</time>
      </trkpt>
      <trkpt lat="41.942537" lon="0.756080">
        <ele>719.068</ele>
        <time>2015-12-19T10:22:15Z</time>
      </trkpt>
      <trkpt lat="41.942649" lon="0.756085">
        <ele>719.042</ele>
        <time>2015-12-19T10:22:20Z</time>
      </trkpt>
      <trkpt lat="41.942760" lon="0.756077">
        <ele>720.026</ele>
        <time>2015-12-19T10:22:25Z</time>
      </trkpt>
      <trkpt lat="41.942862" lon="0.756061">
        <ele>721.008</ele>
        <time>2015-12-19T10:22:30Z</time>
      </trkpt>
      <trkpt lat="41.942963" lon="0.756055">
        <ele>722.067</ele>
        <time>2015-12-19T10:22:35Z</time>
      </trkpt>
      <trkpt lat="41.943068" lon="0.756050">
        <ele>723.077</ele>
        <time>2015-12-19T10:22:40Z</time>
      </trkpt>
      <trkpt lat="41.943197" lon="0.756045">
        <ele>724.073</ele>
        <time>2015-12-19T10:22:45Z</time>
      </trkpt>
      <trkpt lat="41.943294" lon="0.756025">
        <ele>726.027</ele>
        <time>2015-12-19T10:22:50Z</time>
      </trkpt>
      <trkpt lat="41.943401" lon="0.756023">
        <ele>727.061</ele>
        <time>2015-12-19T10:22:55Z</time>
      </trkpt>
      <trkpt lat="41.943509" lon="0.756027">
        <ele>729.069</ele>
        <time>2015-12-19T10:23:01Z</time>
      </trkpt>
      <trkpt lat="41.943617" lon="0.756034">
        <ele>730.055</ele>
        <time>2015-12-19T10:23:06Z</time>
      </trkpt>
      <trkpt lat="41.943709" lon="0.756037">
        <ele>730.055</ele>
        <time>2015-12-19T10:23:10Z</time>
      </trkpt>
      <trkpt lat="41.943819" lon="0.756036">
        <ele>730.076</ele>
        <time>2015-12-19T10:23:15Z</time>
      </trkpt>
      <trkpt lat="41.943929" lon="0.756049">
        <ele>730.090</ele>
        <time>2015-12-19T10:23:20Z</time>
      </trkpt>
      <trkpt lat="41.944038" lon="0.756067">
        <ele>730.019</ele>
        <time>2015-12-19T10:23:25Z</time>
      </trkpt>
      <trkpt lat="41.944146" lon="0.756092">
        <ele>730.008</ele>
        <time>2015-12-19T10:23:30Z</time>
      </trkpt>
      <trkpt lat="41.944251" lon="0.756120">
        <ele>731.098</ele>
        <time>2015-12-19T10:23:35Z</time>
      </trkpt>
      <trkpt lat="41.944351" lon="0.756161">
        <ele>732.048</ele>
        <time>2015-12-19T10:23:40Z</time>
      </trkpt>
      <trkpt lat="41.944447" lon="0.756201">
        <ele>733.044</ele>
        <time>2015-12-19T10:23:45Z</time>
      </trkpt>
      <trkpt lat="41.944542" lon="0.756243">
        <ele>733.028</ele>
        <time>2015-12-19T10:23:50Z</time>
      </trkpt>
      <trkpt lat="41.944634" lon="0.756291">
        <ele>734.022</ele>
        <time>2015-12-19T10:23:55Z</time>
      </trkpt>
      <trkpt lat="41.944725" lon="0.756344">
        <ele>735.020</ele>
        <time>2015-12-19T10:24:00Z</time>
      </trkpt>
      <trkpt lat="41.944813" lon="0.756398">
        <ele>735.046</ele>
        <time>2015-12-19T10:24:05Z</time>
      </trkpt>
      <trkpt lat="41.944899" lon="0.756459">
        <ele>736.016</ele>
        <time>2015-12-19T10:24:10Z</time>
      </trkpt>
      <trkpt lat="41.944986" lon="0.756524">
        <ele>734.045</ele>
        <time>2015-12-19T10:24:15Z</time>
      </trkpt>
      <trkpt lat="41.945073" lon="0.756577">
        <ele>736.047</ele>
        <time>2015-12-19T10:24:20Z</time>
      </trkpt>
      <trkpt lat="41.945154" lon="0.756640">
        <ele>736.011</ele>
        <time>2015-12-19T10:24:25Z</time>
      </trkpt>
      <trkpt lat="41.945238" lon="0.756695">
        <ele>737.008</ele>
        <time>2015-12-19T10:24:30Z</time>
      </trkpt>
      <trkpt lat="41.945322" lon="0.756748">
        <ele>738.045</ele>
        <time>2015-12-19T10:24:35Z</time>
      </trkpt>
      <trkpt lat="41.945406" lon="0.756800">
        <ele>738.055</ele>
        <time>2015-12-19T10:24:39Z</time>
      </trkpt>
      <trkpt lat="41.945516" lon="0.756865">
        <ele>740.031</ele>
        <time>2015-12-19T10:24:46Z</time>
      </trkpt>
      <trkpt lat="41.945609" lon="0.756920">
        <ele>740.065</ele>
        <time>2015-12-19T10:24:53Z</time>
      </trkpt>
      <trkpt lat="41.945701" lon="0.756980">
        <ele>741.049</ele>
        <time>2015-12-19T10:24:59Z</time>
      </trkpt>
      <trkpt lat="41.945796" lon="0.757032">
        <ele>742.017</ele>
        <time>2015-12-19T10:25:05Z</time>
      </trkpt>
      <trkpt lat="41.945894" lon="0.757089">
        <ele>743.073</ele>
        <time>2015-12-19T10:25:11Z</time>
      </trkpt>
      <trkpt lat="41.945987" lon="0.757138">
        <ele>743.093</ele>
        <time>2015-12-19T10:25:17Z</time>
      </trkpt>
      <trkpt lat="41.946082" lon="0.757170">
        <ele>743.059</ele>
        <time>2015-12-19T10:25:23Z</time>
      </trkpt>
      <trkpt lat="41.946177" lon="0.757221">
        <ele>744.003</ele>
        <time>2015-12-19T10:25:29Z</time>
      </trkpt>
      <trkpt lat="41.946274" lon="0.757277">
        <ele>745.023</ele>
        <time>2015-12-19T10:25:35Z</time>
      </trkpt>
      <trkpt lat="41.946366" lon="0.757324">
        <ele>746.008</ele>
        <time>2015-12-19T10:25:41Z</time>
      </trkpt>
      <trkpt lat="41.946458" lon="0.757356">
        <ele>745.036</ele>
        <time>2015-12-19T10:25:47Z</time>
      </trkpt>
      <trkpt lat="41.946549" lon="0.757383">
        <ele>745.016</ele>
        <time>2015-12-19T10:25:53Z</time>
      </trkpt>
      <trkpt lat="41.946646" lon="0.757394">
        <ele>746.082</ele>
        <time>2015-12-19T10:25:59Z</time>
      </trkpt>
      <trkpt lat="41.946745" lon="0.757429">
        <ele>747.076</ele>
        <time>2015-12-19T10:26:05Z</time>
      </trkpt>
      <trkpt lat="41.946850" lon="0.757436">
        <ele>749.050</ele>
        <time>2015-12-19T10:26:11Z</time>
      </trkpt>
      <trkpt lat="41.946954" lon="0.757454">
        <ele>749.068</ele>
        <time>2015-12-19T10:26:17Z</time>
      </trkpt>
      <trkpt lat="41.947061" lon="0.757473">
        <ele>751.054</ele>
        <time>2015-12-19T10:26:23Z</time>
      </trkpt>
      <trkpt lat="41.947151" lon="0.757492">
        <ele>752.054</ele>
        <time>2015-12-19T10:26:28Z</time>
      </trkpt>
      <trkpt lat="41.947244" lon="0.757519">
        <ele>753.069</ele>
        <time>2015-12-19T10:26:33Z</time>
      </trkpt>
      <trkpt lat="41.947335" lon="0.757531">
        <ele>753.004</ele>
        <time>2015-12-19T10:26:38Z</time>
      </trkpt>
      <trkpt lat="41.947431" lon="0.757547">
        <ele>753.024</ele>
        <time>2015-12-19T10:26:44Z</time>
      </trkpt>
      <trkpt lat="41.947525" lon="0.757549">
        <ele>754.008</ele>
        <time>2015-12-19T10:26:50Z</time>
      </trkpt>
      <trkpt lat="41.947617" lon="0.757561">
        <ele>755.017</ele>
        <time>2015-12-19T10:26:55Z</time>
      </trkpt>
      <trkpt lat="41.947708" lon="0.757573">
        <ele>757.027</ele>
        <time>2015-12-19T10:27:00Z</time>
      </trkpt>
      <trkpt lat="41.947814" lon="0.757581">
        <ele>759.053</ele>
        <time>2015-12-19T10:27:06Z</time>
      </trkpt>
      <trkpt lat="41.947919" lon="0.757586">
        <ele>760.017</ele>
        <time>2015-12-19T10:27:12Z</time>
      </trkpt>
      <trkpt lat="41.948021" lon="0.757597">
        <ele>761.071</ele>
        <time>2015-12-19T10:27:18Z</time>
      </trkpt>
      <trkpt lat="41.948121" lon="0.757619">
        <ele>762.099</ele>
        <time>2015-12-19T10:27:24Z</time>
      </trkpt>
      <trkpt lat="41.948210" lon="0.757642">
        <ele>763.045</ele>
        <time>2015-12-19T10:27:29Z</time>
      </trkpt>
      <trkpt lat="41.948316" lon="0.757656">
        <ele>763.025</ele>
        <time>2015-12-19T10:27:35Z</time>
      </trkpt>
      <trkpt lat="41.948405" lon="0.757676">
        <ele>764.014</ele>
        <time>2015-12-19T10:27:40Z</time>
      </trkpt>
      <trkpt lat="41.948510" lon="0.757687">
        <ele>765.054</ele>
        <time>2015-12-19T10:27:46Z</time>
      </trkpt>
      <trkpt lat="41.948603" lon="0.757701">
        <ele>766.009</ele>
        <time>2015-12-19T10:27:51Z</time>
      </trkpt>
      <trkpt lat="41.948695" lon="0.757711">
        <ele>767.008</ele>
        <time>2015-12-19T10:27:56Z</time>
      </trkpt>
      <trkpt lat="41.948787" lon="0.757716">
        <ele>768.082</ele>
        <time>2015-12-19T10:28:01Z</time>
      </trkpt>
      <trkpt lat="41.948879" lon="0.757733">
        <ele>769.072</ele>
        <time>2015-12-19T10:28:06Z</time>
      </trkpt>
      <trkpt lat="41.948969" lon="0.757744">
        <ele>769.018</ele>
        <time>2015-12-19T10:28:10Z</time>
      </trkpt>
      <trkpt lat="41.949074" lon="0.757757">
        <ele>771.042</ele>
        <time>2015-12-19T10:28:17Z</time>
      </trkpt>
      <trkpt lat="41.949181" lon="0.757785">
        <ele>771.016</ele>
        <time>2015-12-19T10:28:23Z</time>
      </trkpt>
      <trkpt lat="41.949272" lon="0.757797">
        <ele>772.054</ele>
        <time>2015-12-19T10:28:28Z</time>
      </trkpt>
      <trkpt lat="41.949363" lon="0.757811">
        <ele>772.060</ele>
        <time>2015-12-19T10:28:33Z</time>
      </trkpt>
      <trkpt lat="41.949470" lon="0.757829">
        <ele>773.070</ele>
        <time>2015-12-19T10:28:39Z</time>
      </trkpt>
      <trkpt lat="41.949572" lon="0.757841">
        <ele>774.089</ele>
        <time>2015-12-19T10:28:45Z</time>
      </trkpt>
      <trkpt lat="41.949677" lon="0.757850">
        <ele>775.006</ele>
        <time>2015-12-19T10:28:51Z</time>
      </trkpt>
      <trkpt lat="41.949781" lon="0.757866">
        <ele>776.026</ele>
        <time>2015-12-19T10:28:57Z</time>
      </trkpt>
      <trkpt lat="41.949872" lon="0.757879">
        <ele>776.008</ele>
        <time>2015-12-19T10:29:02Z</time>
      </trkpt>
      <trkpt lat="41.949964" lon="0.757890">
        <ele>776.069</ele>
        <time>2015-12-19T10:29:07Z</time>
      </trkpt>
      <trkpt lat="41.950056" lon="0.757904">
        <ele>777.099</ele>
        <time>2015-12-19T10:29:12Z</time>
      </trkpt>
      <trkpt lat="41.950150" lon="0.757918">
        <ele>778.055</ele>
        <time>2015-12-19T10:29:17Z</time>
      </trkpt>
      <trkpt lat="41.950246" lon="0.757926">
        <ele>778.049</ele>
        <time>2015-12-19T10:29:22Z</time>
      </trkpt>
      <trkpt lat="41.950349" lon="0.757943">
        <ele>779.013</ele>
        <time>2015-12-19T10:29:27Z</time>
      </trkpt>
      <trkpt lat="41.950453" lon="0.757961">
        <ele>781.041</ele>
        <time>2015-12-19T10:29:32Z</time>
      </trkpt>
      <trkpt lat="41.950554" lon="0.757975">
        <ele>782.077</ele>
        <time>2015-12-19T10:29:37Z</time>
      </trkpt>
      <trkpt lat="41.950654" lon="0.757989">
        <ele>782.037</ele>
        <time>2015-12-19T10:29:42Z</time>
      </trkpt>
      <trkpt lat="41.950752" lon="0.757999">
        <ele>783.081</ele>
        <time>2015-12-19T10:29:47Z</time>
      </trkpt>
      <trkpt lat="41.950849" lon="0.758019">
        <ele>784.061</ele>
        <time>2015-12-19T10:29:52Z</time>
      </trkpt>
      <trkpt lat="41.950943" lon="0.758029">
        <ele>784.017</ele>
        <time>2015-12-19T10:29:57Z</time>
      </trkpt>
      <trkpt lat="41.951035" lon="0.758042">
        <ele>785.008</ele>
        <time>2015-12-19T10:30:02Z</time>
      </trkpt>
      <trkpt lat="41.951127" lon="0.758059">
        <ele>786.049</ele>
        <time>2015-12-19T10:30:07Z</time>
      </trkpt>
      <trkpt lat="41.951220" lon="0.758068">
        <ele>786.069</ele>
        <time>2015-12-19T10:30:12Z</time>
      </trkpt>
      <trkpt lat="41.951313" lon="0.758078">
        <ele>787.065</ele>
        <time>2015-12-19T10:30:17Z</time>
      </trkpt>
      <trkpt lat="41.951405" lon="0.758082">
        <ele>788.099</ele>
        <time>2015-12-19T10:30:22Z</time>
      </trkpt>
      <trkpt lat="41.951509" lon="0.758090">
        <ele>789.013</ele>
        <time>2015-12-19T10:30:27Z</time>
      </trkpt>
      <trkpt lat="41.951598" lon="0.758105">
        <ele>790.071</ele>
        <time>2015-12-19T10:30:31Z</time>
      </trkpt>
      <trkpt lat="41.951696" lon="0.758130">
        <ele>791.027</ele>
        <time>2015-12-19T10:30:37Z</time>
      </trkpt>
      <trkpt lat="41.951793" lon="0.758140">
        <ele>792.067</ele>
        <time>2015-12-19T10:30:43Z</time>
      </trkpt>
      <trkpt lat="41.951892" lon="0.758160">
        <ele>793.028</ele>
        <time>2015-12-19T10:30:49Z</time>
      </trkpt>
      <trkpt lat="41.951995" lon="0.758174">
        <ele>793.089</ele>
        <time>2015-12-19T10:30:55Z</time>
      </trkpt>
      <trkpt lat="41.952101" lon="0.758195">
        <ele>794.017</ele>
        <time>2015-12-19T10:31:01Z</time>
      </trkpt>
      <trkpt lat="41.952203" lon="0.758215">
        <ele>795.008</ele>
        <time>2015-12-19T10:31:06Z</time>
      </trkpt>
      <trkpt lat="41.952313" lon="0.758237">
        <ele>795.023</ele>
        <time>2015-12-19T10:31:11Z</time>
      </trkpt>
      <trkpt lat="41.952419" lon="0.758252">
        <ele>796.073</ele>
        <time>2015-12-19T10:31:16Z</time>
      </trkpt>
      <trkpt lat="41.952522" lon="0.758264">
        <ele>797.039</ele>
        <time>2015-12-19T10:31:21Z</time>
      </trkpt>
      <trkpt lat="41.952628" lon="0.758277">
        <ele>798.083</ele>
        <time>2015-12-19T10:31:26Z</time>
      </trkpt>
      <trkpt lat="41.952734" lon="0.758288">
        <ele>798.027</ele>
        <time>2015-12-19T10:31:31Z</time>
      </trkpt>
      <trkpt lat="41.952836" lon="0.758303">
        <ele>799.015</ele>
        <time>2015-12-19T10:31:35Z</time>
      </trkpt>
      <trkpt lat="41.952934" lon="0.758318">
        <ele>800.051</ele>
        <time>2015-12-19T10:31:41Z</time>
      </trkpt>
      <trkpt lat="41.953028" lon="0.758336">
        <ele>800.031</ele>
        <time>2015-12-19T10:31:46Z</time>
      </trkpt>
      <trkpt lat="41.953118" lon="0.758345">
        <ele>800.018</ele>
        <time>2015-12-19T10:31:51Z</time>
      </trkpt>
      <trkpt lat="41.953219" lon="0.758355">
        <ele>801.098</ele>
        <time>2015-12-19T10:31:57Z</time>
      </trkpt>
      <trkpt lat="41.953322" lon="0.758367">
        <ele>802.017</ele>
        <time>2015-12-19T10:32:03Z</time>
      </trkpt>
      <trkpt lat="41.953426" lon="0.758379">
        <ele>803.008</ele>
        <time>2015-12-19T10:32:09Z</time>
      </trkpt>
      <trkpt lat="41.953526" lon="0.758398">
        <ele>804.012</ele>
        <time>2015-12-19T10:32:15Z</time>
      </trkpt>
      <trkpt lat="41.953619" lon="0.758411">
        <ele>805.052</ele>
        <time>2015-12-19T10:32:21Z</time>
      </trkpt>
      <trkpt lat="41.953717" lon="0.758416">
        <ele>805.048</ele>
        <time>2015-12-19T10:32:27Z</time>
      </trkpt>
      <trkpt lat="41.953816" lon="0.758429">
        <ele>806.072</ele>
        <time>2015-12-19T10:32:33Z</time>
      </trkpt>
      <trkpt lat="41.953915" lon="0.758429">
        <ele>807.056</ele>
        <time>2015-12-19T10:32:39Z</time>
      </trkpt>
      <trkpt lat="41.954031" lon="0.758436">
        <ele>808.034</ele>
        <time>2015-12-19T10:32:45Z</time>
      </trkpt>
      <trkpt lat="41.954146" lon="0.758439">
        <ele>809.050</ele>
        <time>2015-12-19T10:32:49Z</time>
      </trkpt>
      <trkpt lat="41.954247" lon="0.758432">
        <ele>808.030</ele>
        <time>2015-12-19T10:32:53Z</time>
      </trkpt>
      <trkpt lat="41.954348" lon="0.758430">
        <ele>809.054</ele>
        <time>2015-12-19T10:32:57Z</time>
      </trkpt>
      <trkpt lat="41.954443" lon="0.758410">
        <ele>811.056</ele>
        <time>2015-12-19T10:33:02Z</time>
      </trkpt>
      <trkpt lat="41.954536" lon="0.758395">
        <ele>813.011</ele>
        <time>2015-12-19T10:33:07Z</time>
      </trkpt>
      <trkpt lat="41.954634" lon="0.758379">
        <ele>814.008</ele>
        <time>2015-12-19T10:33:12Z</time>
      </trkpt>
      <trkpt lat="41.954731" lon="0.758359">
        <ele>815.026</ele>
        <time>2015-12-19T10:33:17Z</time>
      </trkpt>
      <trkpt lat="41.954824" lon="0.758334">
        <ele>817.086</ele>
        <time>2015-12-19T10:33:21Z</time>
      </trkpt>
      <trkpt lat="41.954922" lon="0.758315">
        <ele>818.022</ele>
        <time>2015-12-19T10:33:26Z</time>
      </trkpt>
      <trkpt lat="41.955020" lon="0.758290">
        <ele>818.036</ele>
        <time>2015-12-19T10:33:31Z</time>
      </trkpt>
      <trkpt lat="41.955118" lon="0.758262">
        <ele>819.040</ele>
        <time>2015-12-19T10:33:37Z</time>
      </trkpt>
      <trkpt lat="41.955217" lon="0.758235">
        <ele>821.068</ele>
        <time>2015-12-19T10:33:42Z</time>
      </trkpt>
      <trkpt lat="41.955315" lon="0.758207">
        <ele>822.084</ele>
        <time>2015-12-19T10:33:47Z</time>
      </trkpt>
      <trkpt lat="41.955415" lon="0.758182">
        <ele>822.064</ele>
        <time>2015-12-19T10:33:52Z</time>
      </trkpt>
      <trkpt lat="41.955507" lon="0.758142">
        <ele>823.078</ele>
        <time>2015-12-19T10:33:57Z</time>
      </trkpt>
      <trkpt lat="41.955600" lon="0.758117">
        <ele>823.033</ele>
        <time>2015-12-19T10:34:02Z</time>
      </trkpt>
      <trkpt lat="41.955692" lon="0.758079">
        <ele>824.026</ele>
        <time>2015-12-19T10:34:07Z</time>
      </trkpt>
      <trkpt lat="41.955787" lon="0.758061">
        <ele>825.008</ele>
        <time>2015-12-19T10:34:12Z</time>
      </trkpt>
      <trkpt lat="41.955883" lon="0.758037">
        <ele>825.078</ele>
        <time>2015-12-19T10:34:16Z</time>
      </trkpt>
      <trkpt lat="41.955977" lon="0.758012">
        <ele>826.058</ele>
        <time>2015-12-19T10:34:20Z</time>
      </trkpt>
      <trkpt lat="41.956087" lon="0.757989">
        <ele>826.094</ele>
        <time>2015-12-19T10:34:25Z</time>
      </trkpt>
      <trkpt lat="41.956179" lon="0.757967">
        <ele>827.038</ele>
        <time>2015-12-19T10:34:29Z</time>
      </trkpt>
      <trkpt lat="41.956278" lon="0.757959">
        <ele>826.032</ele>
        <time>2015-12-19T10:34:35Z</time>
      </trkpt>
      <trkpt lat="41.956378" lon="0.757963">
        <ele>826.010</ele>
        <time>2015-12-19T10:34:42Z</time>
      </trkpt>
      <trkpt lat="41.956479" lon="0.757946">
        <ele>825.066</ele>
        <time>2015-12-19T10:41:17Z</time>
      </trkpt>
      <trkpt lat="41.956586" lon="0.757929">
        <ele>825.066</ele>
        <time>2015-12-19T10:41:24Z</time>
      </trkpt>
      <trkpt lat="41.956679" lon="0.757900">
        <ele>826.021</ele>
        <time>2015-12-19T10:41:30Z</time>
      </trkpt>
      <trkpt lat="41.956784" lon="0.757879">
        <ele>827.041</ele>
        <time>2015-12-19T10:41:36Z</time>
      </trkpt>
      <trkpt lat="41.956880" lon="0.757854">
        <ele>827.005</ele>
        <time>2015-12-19T10:41:41Z</time>
      </trkpt>
      <trkpt lat="41.956981" lon="0.757830">
        <ele>827.008</ele>
        <time>2015-12-19T10:41:46Z</time>
      </trkpt>
      <trkpt lat="41.957087" lon="0.757802">
        <ele>828.033</ele>
        <time>2015-12-19T10:41:51Z</time>
      </trkpt>
      <trkpt lat="41.957192" lon="0.757769">
        <ele>828.043</ele>
        <time>2015-12-19T10:41:56Z</time>
      </trkpt>
      <trkpt lat="41.957297" lon="0.757742">
        <ele>829.029</ele>
        <time>2015-12-19T10:42:01Z</time>
      </trkpt>
      <trkpt lat="41.957399" lon="0.757721">
        <ele>829.053</ele>
        <time>2015-12-19T10:42:06Z</time>
      </trkpt>
      <trkpt lat="41.957505" lon="0.757714">
        <ele>830.077</ele>
        <time>2015-12-19T10:42:11Z</time>
      </trkpt>
      <trkpt lat="41.957612" lon="0.757716">
        <ele>830.035</ele>
        <time>2015-12-19T10:42:16Z</time>
      </trkpt>
      <trkpt lat="41.957720" lon="0.757720">
        <ele>831.011</ele>
        <time>2015-12-19T10:42:21Z</time>
      </trkpt>
      <trkpt lat="41.957826" lon="0.757738">
        <ele>832.011</ele>
        <time>2015-12-19T10:42:26Z</time>
      </trkpt>
      <trkpt lat="41.957933" lon="0.757782">
        <ele>832.019</ele>
        <time>2015-12-19T10:42:31Z</time>
      </trkpt>
      <trkpt lat="41.958032" lon="0.757836">
        <ele>833.009</ele>
        <time>2015-12-19T10:42:36Z</time>
      </trkpt>
      <trkpt lat="41.958123" lon="0.757920">
        <ele>834.019</ele>
        <time>2015-12-19T10:42:41Z</time>
      </trkpt>
      <trkpt lat="41.958206" lon="0.758011">
        <ele>835.008</ele>
        <time>2015-12-19T10:42:46Z</time>
      </trkpt>
      <trkpt lat="41.958278" lon="0.758109">
        <ele>836.082</ele>
        <time>2015-12-19T10:42:51Z</time>
      </trkpt>
      <trkpt lat="41.958344" lon="0.758217">
        <ele>838.092</ele>
        <time>2015-12-19T10:42:55Z</time>
      </trkpt>
      <trkpt lat="41.958405" lon="0.758329">
        <ele>839.028</ele>
        <time>2015-12-19T10:43:00Z</time>
      </trkpt>
      <trkpt lat="41.958464" lon="0.758441">
        <ele>840.042</ele>
        <time>2015-12-19T10:43:06Z</time>
      </trkpt>
      <trkpt lat="41.958530" lon="0.758561">
        <ele>841.066</ele>
        <time>2015-12-19T10:43:11Z</time>
      </trkpt>
      <trkpt lat="41.958597" lon="0.758683">
        <ele>842.044</ele>
        <time>2015-12-19T10:43:16Z</time>
      </trkpt>
      <trkpt lat="41.958646" lon="0.758785">
        <ele>842.070</ele>
        <time>2015-12-19T10:43:20Z</time>
      </trkpt>
      <trkpt lat="41.958701" lon="0.758891">
        <ele>842.020</ele>
        <time>2015-12-19T10:43:24Z</time>
      </trkpt>
      <trkpt lat="41.958759" lon="0.759004">
        <ele>843.094</ele>
        <time>2015-12-19T10:43:28Z</time>
      </trkpt>
      <trkpt lat="41.958820" lon="0.759117">
        <ele>844.057</ele>
        <time>2015-12-19T10:43:32Z</time>
      </trkpt>
      <trkpt lat="41.958881" lon="0.759228">
        <ele>844.022</ele>
        <time>2015-12-19T10:43:36Z</time>
      </trkpt>
      <trkpt lat="41.958941" lon="0.759346">
        <ele>845.008</ele>
        <time>2015-12-19T10:43:40Z</time>
      </trkpt>
      <trkpt lat="41.959003" lon="0.759463">
        <ele>845.010</ele>
        <time>2015-12-19T10:43:44Z</time>
      </trkpt>
      <trkpt lat="41.959071" lon="0.759578">
        <ele>845.060</ele>
        <time>2015-12-19T10:43:48Z</time>
      </trkpt>
      <trkpt lat="41.959141" lon="0.759681">
        <ele>846.096</ele>
        <time>2015-12-19T10:43:52Z</time>
      </trkpt>
      <trkpt lat="41.959216" lon="0.759780">
        <ele>847.080</ele>
        <time>2015-12-19T10:43:56Z</time>
      </trkpt>
      <trkpt lat="41.959302" lon="0.759865">
        <ele>847.084</ele>
        <time>2015-12-19T10:44:00Z</time>
      </trkpt>
      <trkpt lat="41.959396" lon="0.759952">
        <ele>847.072</ele>
        <time>2015-12-19T10:44:04Z</time>
      </trkpt>
      <trkpt lat="41.959496" lon="0.760023">
        <ele>848.018</ele>
        <time>2015-12-19T10:44:08Z</time>
      </trkpt>
      <trkpt lat="41.959604" lon="0.760079">
        <ele>849.098</ele>
        <time>2015-12-19T10:44:12Z</time>
      </trkpt>
      <trkpt lat="41.959716" lon="0.760120">
        <ele>849.047</ele>
        <time>2015-12-19T10:44:16Z</time>
      </trkpt>
      <trkpt lat="41.959833" lon="0.760142">
        <ele>849.029</ele>
        <time>2015-12-19T10:44:20Z</time>
      </trkpt>
      <trkpt lat="41.959944" lon="0.760156">
        <ele>850.021</ele>
        <time>2015-12-19T10:44:24Z</time>
      </trkpt>
      <trkpt lat="41.960059" lon="0.760156">
        <ele>849.008</ele>
        <time>2015-12-19T10:44:28Z</time>
      </trkpt>
      <trkpt lat="41.960172" lon="0.760145">
        <ele>850.045</ele>
        <time>2015-12-19T10:44:32Z</time>
      </trkpt>
      <trkpt lat="41.960289" lon="0.760138">
        <ele>849.065</ele>
        <time>2015-12-19T10:44:36Z</time>
      </trkpt>
      <trkpt lat="41.960428" lon="0.760124">
        <ele>850.071</ele>
        <time>2015-12-19T10:44:40Z</time>
      </trkpt>
      <trkpt lat="41.960535" lon="0.760104">
        <ele>851.095</ele>
        <time>2015-12-19T10:44:44Z</time>
      </trkpt>
      <trkpt lat="41.960642" lon="0.760082">
        <ele>851.039</ele>
        <time>2015-12-19T10:44:48Z</time>
      </trkpt>
      <trkpt lat="41.960748" lon="0.760070">
        <ele>851.077</ele>
        <time>2015-12-19T10:44:53Z</time>
      </trkpt>
      <trkpt lat="41.960858" lon="0.760055">
        <ele>852.063</ele>
        <time>2015-12-19T10:44:57Z</time>
      </trkpt>
      <trkpt lat="41.960858" lon="0.760055">
        <ele>852.023</ele>
        <time>2015-12-19T10:44:57Z</time>
      </trkpt>
      <trkpt lat="41.960964" lon="0.760034">
        <ele>852.011</ele>
        <time>2015-12-19T10:45:01Z</time>
      </trkpt>
      <trkpt lat="41.961076" lon="0.760007">
        <ele>852.021</ele>
        <time>2015-12-19T10:45:05Z</time>
      </trkpt>
      <trkpt lat="41.961180" lon="0.759967">
        <ele>853.003</ele>
        <time>2015-12-19T10:45:09Z</time>
      </trkpt>
      <trkpt lat="41.961282" lon="0.759914">
        <ele>853.008</ele>
        <time>2015-12-19T10:45:13Z</time>
      </trkpt>
      <trkpt lat="41.961380" lon="0.759858">
        <ele>854.072</ele>
        <time>2015-12-19T10:45:17Z</time>
      </trkpt>
      <trkpt lat="41.961475" lon="0.759783">
        <ele>854.082</ele>
        <time>2015-12-19T10:45:21Z</time>
      </trkpt>
      <trkpt lat="41.961564" lon="0.759702">
        <ele>854.088</ele>
        <time>2015-12-19T10:45:25Z</time>
      </trkpt>
      <trkpt lat="41.961654" lon="0.759609">
        <ele>854.032</ele>
        <time>2015-12-19T10:45:29Z</time>
      </trkpt>
      <trkpt lat="41.961737" lon="0.759505">
        <ele>854.086</ele>
        <time>2015-12-19T10:45:33Z</time>
      </trkpt>
      <trkpt lat="41.961825" lon="0.759397">
        <ele>854.014</ele>
        <time>2015-12-19T10:45:37Z</time>
      </trkpt>
      <trkpt lat="41.961913" lon="0.759290">
        <ele>854.090</ele>
        <time>2015-12-19T10:45:41Z</time>
      </trkpt>
      <trkpt lat="41.961994" lon="0.759192">
        <ele>855.040</ele>
        <time>2015-12-19T10:45:44Z</time>
      </trkpt>
      <trkpt lat="41.962073" lon="0.759097">
        <ele>855.015</ele>
        <time>2015-12-19T10:45:47Z</time>
      </trkpt>
      <trkpt lat="41.962153" lon="0.759000">
        <ele>855.065</ele>
        <time>2015-12-19T10:45:50Z</time>
      </trkpt>
      <trkpt lat="41.962231" lon="0.758908">
        <ele>856.011</ele>
        <time>2015-12-19T10:45:53Z</time>
      </trkpt>
      <trkpt lat="41.962308" lon="0.758819">
        <ele>856.008</ele>
        <time>2015-12-19T10:45:56Z</time>
      </trkpt>
      <trkpt lat="41.962383" lon="0.758733">
        <ele>856.062</ele>
        <time>2015-12-19T10:45:59Z</time>
      </trkpt>
      <trkpt lat="41.962456" lon="0.758652">
        <ele>857.022</ele>
        <time>2015-12-19T10:46:02Z</time>
      </trkpt>
      <trkpt lat="41.962532" lon="0.758572">
        <ele>857.018</ele>
        <time>2015-12-19T10:46:05Z</time>
      </trkpt>
      <trkpt lat="41.962608" lon="0.758491">
        <ele>858.032</ele>
        <time>2015-12-19T10:46:08Z</time>
      </trkpt>
      <trkpt lat="41.962687" lon="0.758417">
        <ele>858.096</ele>
        <time>2015-12-19T10:46:11Z</time>
      </trkpt>
      <trkpt lat="41.962773" lon="0.758345">
        <ele>858.034</ele>
        <time>2015-12-19T10:46:14Z</time>
      </trkpt>
      <trkpt lat="41.962859" lon="0.758275">
        <ele>859.050</ele>
        <time>2015-12-19T10:46:17Z</time>
      </trkpt>
      <trkpt lat="41.962947" lon="0.758206">
        <ele>859.070</ele>
        <time>2015-12-19T10:46:20Z</time>
      </trkpt>
      <trkpt lat="41.963038" lon="0.758142">
        <ele>859.057</ele>
        <time>2015-12-19T10:46:23Z</time>
      </trkpt>
      <trkpt lat="41.963130" lon="0.758088">
        <ele>860.000</ele>
        <time>2015-12-19T10:46:26Z</time>
      </trkpt>
      <trkpt lat="41.963225" lon="0.758034">
        <ele>860.020</ele>
        <time>2015-12-19T10:46:28Z</time>
      </trkpt>
      <trkpt lat="41.963356" lon="0.757965">
        <ele>860.008</ele>
        <time>2015-12-19T10:46:32Z</time>
      </trkpt>
      <trkpt lat="41.963456" lon="0.757922">
        <ele>861.026</ele>
        <time>2015-12-19T10:46:35Z</time>
      </trkpt>
      <trkpt lat="41.963568" lon="0.757879">
        <ele>860.076</ele>
        <time>2015-12-19T10:46:38Z</time>
      </trkpt>
      <trkpt lat="41.963680" lon="0.757840">
        <ele>861.052</ele>
        <time>2015-12-19T10:46:42Z</time>
      </trkpt>
      <trkpt lat="41.963791" lon="0.757809">
        <ele>861.016</ele>
        <time>2015-12-19T10:46:45Z</time>
      </trkpt>
      <trkpt lat="41.963903" lon="0.757789">
        <ele>861.010</ele>
        <time>2015-12-19T10:46:48Z</time>
      </trkpt>
      <trkpt lat="41.964011" lon="0.757768">
        <ele>861.018</ele>
        <time>2015-12-19T10:46:51Z</time>
      </trkpt>
      <trkpt lat="41.964120" lon="0.757752">
        <ele>862.044</ele>
        <time>2015-12-19T10:46:54Z</time>
      </trkpt>
      <trkpt lat="41.964226" lon="0.757735">
        <ele>863.024</ele>
        <time>2015-12-19T10:46:57Z</time>
      </trkpt>
      <trkpt lat="41.964332" lon="0.757716">
        <ele>863.095</ele>
        <time>2015-12-19T10:47:00Z</time>
      </trkpt>
      <trkpt lat="41.964440" lon="0.757702">
        <ele>864.049</ele>
        <time>2015-12-19T10:47:03Z</time>
      </trkpt>
      <trkpt lat="41.964547" lon="0.757690">
        <ele>864.023</ele>
        <time>2015-12-19T10:47:06Z</time>
      </trkpt>
      <trkpt lat="41.964660" lon="0.757677">
        <ele>864.008</ele>
        <time>2015-12-19T10:47:09Z</time>
      </trkpt>
      <trkpt lat="41.964775" lon="0.757659">
        <ele>864.080</ele>
        <time>2015-12-19T10:47:12Z</time>
      </trkpt>
      <trkpt lat="41.964891" lon="0.757644">
        <ele>864.010</ele>
        <time>2015-12-19T10:47:15Z</time>
      </trkpt>
      <trkpt lat="41.965008" lon="0.757624">
        <ele>864.026</ele>
        <time>2015-12-19T10:47:18Z</time>
      </trkpt>
      <trkpt lat="41.965120" lon="0.757602">
        <ele>864.020</ele>
        <time>2015-12-19T10:47:21Z</time>
      </trkpt>
      <trkpt lat="41.965234" lon="0.757588">
        <ele>864.094</ele>
        <time>2015-12-19T10:47:24Z</time>
      </trkpt>
      <trkpt lat="41.965350" lon="0.757574">
        <ele>865.022</ele>
        <time>2015-12-19T10:47:27Z</time>
      </trkpt>
      <trkpt lat="41.965465" lon="0.757561">
        <ele>865.078</ele>
        <time>2015-12-19T10:47:30Z</time>
      </trkpt>
      <trkpt lat="41.965584" lon="0.757552">
        <ele>865.048</ele>
        <time>2015-12-19T10:47:33Z</time>
      </trkpt>
      <trkpt lat="41.965701" lon="0.757534">
        <ele>866.028</ele>
        <time>2015-12-19T10:47:36Z</time>
      </trkpt>
      <trkpt lat="41.965814" lon="0.757514">
        <ele>866.089</ele>
        <time>2015-12-19T10:47:39Z</time>
      </trkpt>
      <trkpt lat="41.965929" lon="0.757494">
        <ele>866.017</ele>
        <time>2015-12-19T10:47:42Z</time>
      </trkpt>
      <trkpt lat="41.966041" lon="0.757454">
        <ele>867.008</ele>
        <time>2015-12-19T10:47:45Z</time>
      </trkpt>
      <trkpt lat="41.966147" lon="0.757396">
        <ele>867.013</ele>
        <time>2015-12-19T10:47:48Z</time>
      </trkpt>
      <trkpt lat="41.966251" lon="0.757328">
        <ele>867.013</ele>
        <time>2015-12-19T10:47:51Z</time>
      </trkpt>
      <trkpt lat="41.966351" lon="0.757251">
        <ele>867.079</ele>
        <time>2015-12-19T10:47:54Z</time>
      </trkpt>
      <trkpt lat="41.966458" lon="0.757174">
        <ele>867.063</ele>
        <time>2015-12-19T10:47:57Z</time>
      </trkpt>
      <trkpt lat="41.966568" lon="0.757099">
        <ele>867.067</ele>
        <time>2015-12-19T10:48:00Z</time>
      </trkpt>
      <trkpt lat="41.966678" lon="0.757021">
        <ele>867.035</ele>
        <time>2015-12-19T10:48:03Z</time>
      </trkpt>
      <trkpt lat="41.966795" lon="0.756956">
        <ele>868.021</ele>
        <time>2015-12-19T10:48:06Z</time>
      </trkpt>
      <trkpt lat="41.966916" lon="0.756923">
        <ele>868.091</ele>
        <time>2015-12-19T10:48:09Z</time>
      </trkpt>
      <trkpt lat="41.967038" lon="0.756923">
        <ele>868.053</ele>
        <time>2015-12-19T10:48:12Z</time>
      </trkpt>
      <trkpt lat="41.967154" lon="0.756962">
        <ele>868.004</ele>
        <time>2015-12-19T10:48:15Z</time>
      </trkpt>
      <trkpt lat="41.967250" lon="0.757016">
        <ele>869.014</ele>
        <time>2015-12-19T10:48:18Z</time>
      </trkpt>
      <trkpt lat="41.967343" lon="0.757070">
        <ele>869.008</ele>
        <time>2015-12-19T10:48:21Z</time>
      </trkpt>
      <trkpt lat="41.967436" lon="0.757119">
        <ele>869.056</ele>
        <time>2015-12-19T10:48:24Z</time>
      </trkpt>
      <trkpt lat="41.967524" lon="0.757160">
        <ele>870.036</ele>
        <time>2015-12-19T10:48:26Z</time>
      </trkpt>
      <trkpt lat="41.967610" lon="0.757201">
        <ele>870.032</ele>
        <time>2015-12-19T10:48:30Z</time>
      </trkpt>
      <trkpt lat="41.967712" lon="0.757242">
        <ele>871.056</ele>
        <time>2015-12-19T10:48:34Z</time>
      </trkpt>
      <trkpt lat="41.967822" lon="0.757274">
        <ele>872.070</ele>
        <time>2015-12-19T10:48:38Z</time>
      </trkpt>
      <trkpt lat="41.967929" lon="0.757295">
        <ele>872.078</ele>
        <time>2015-12-19T10:48:42Z</time>
      </trkpt>
      <trkpt lat="41.968035" lon="0.757306">
        <ele>873.044</ele>
        <time>2015-12-19T10:48:46Z</time>
      </trkpt>
      <trkpt lat="41.968138" lon="0.757311">
        <ele>873.054</ele>
        <time>2015-12-19T10:48:50Z</time>
      </trkpt>
      <trkpt lat="41.968243" lon="0.757314">
        <ele>874.095</ele>
        <time>2015-12-19T10:48:54Z</time>
      </trkpt>
      <trkpt lat="41.968341" lon="0.757319">
        <ele>875.049</ele>
        <time>2015-12-19T10:48:58Z</time>
      </trkpt>
      <trkpt lat="41.968440" lon="0.757322">
        <ele>876.023</ele>
        <time>2015-12-19T10:49:02Z</time>
      </trkpt>
      <trkpt lat="41.968538" lon="0.757326">
        <ele>876.008</ele>
        <time>2015-12-19T10:49:06Z</time>
      </trkpt>
      <trkpt lat="41.968639" lon="0.757320">
        <ele>876.080</ele>
        <time>2015-12-19T10:49:10Z</time>
      </trkpt>
      <trkpt lat="41.968735" lon="0.757306">
        <ele>877.020</ele>
        <time>2015-12-19T10:49:14Z</time>
      </trkpt>
      <trkpt lat="41.968832" lon="0.757277">
        <ele>878.046</ele>
        <time>2015-12-19T10:49:18Z</time>
      </trkpt>
      <trkpt lat="41.968926" lon="0.757239">
        <ele>878.070</ele>
        <time>2015-12-19T10:49:22Z</time>
      </trkpt>
      <trkpt lat="41.969019" lon="0.757192">
        <ele>879.034</ele>
        <time>2015-12-19T10:49:26Z</time>
      </trkpt>
      <trkpt lat="41.969107" lon="0.757141">
        <ele>879.032</ele>
        <time>2015-12-19T10:49:30Z</time>
      </trkpt>
      <trkpt lat="41.969193" lon="0.757076">
        <ele>880.088</ele>
        <time>2015-12-19T10:49:34Z</time>
      </trkpt>
      <trkpt lat="41.969276" lon="0.757010">
        <ele>880.068</ele>
        <time>2015-12-19T10:49:38Z</time>
      </trkpt>
      <trkpt lat="41.969359" lon="0.756939">
        <ele>881.012</ele>
        <time>2015-12-19T10:49:42Z</time>
      </trkpt>
      <trkpt lat="41.969436" lon="0.756875">
        <ele>881.032</ele>
        <time>2015-12-19T10:49:46Z</time>
      </trkpt>
      <trkpt lat="41.969515" lon="0.756798">
        <ele>882.005</ele>
        <time>2015-12-19T10:49:50Z</time>
      </trkpt>
      <trkpt lat="41.969611" lon="0.756703">
        <ele>883.008</ele>
        <time>2015-12-19T10:49:54Z</time>
      </trkpt>
      <trkpt lat="41.969707" lon="0.756608">
        <ele>883.092</ele>
        <time>2015-12-19T10:49:59Z</time>
      </trkpt>
      <trkpt lat="41.969781" lon="0.756532">
        <ele>885.052</ele>
        <time>2015-12-19T10:50:03Z</time>
      </trkpt>
      <trkpt lat="41.969855" lon="0.756457">
        <ele>885.088</ele>
        <time>2015-12-19T10:50:08Z</time>
      </trkpt>
      <trkpt lat="41.969930" lon="0.756371">
        <ele>886.022</ele>
        <time>2015-12-19T10:50:12Z</time>
      </trkpt>
      <trkpt lat="41.970002" lon="0.756291">
        <ele>886.076</ele>
        <time>2015-12-19T10:50:16Z</time>
      </trkpt>
      <trkpt lat="41.970075" lon="0.756215">
        <ele>886.074</ele>
        <time>2015-12-19T10:50:20Z</time>
      </trkpt>
      <trkpt lat="41.970150" lon="0.756146">
        <ele>886.010</ele>
        <time>2015-12-19T10:50:24Z</time>
      </trkpt>
      <trkpt lat="41.970223" lon="0.756069">
        <ele>887.080</ele>
        <time>2015-12-19T10:50:28Z</time>
      </trkpt>
      <trkpt lat="41.970314" lon="0.755986">
        <ele>888.099</ele>
        <time>2015-12-19T10:50:33Z</time>
      </trkpt>
      <trkpt lat="41.970391" lon="0.755922">
        <ele>888.007</ele>
        <time>2015-12-19T10:50:37Z</time>
      </trkpt>
      <trkpt lat="41.970470" lon="0.755853">
        <ele>888.027</ele>
        <time>2015-12-19T10:50:41Z</time>
      </trkpt>
      <trkpt lat="41.970553" lon="0.755797">
        <ele>889.008</ele>
        <time>2015-12-19T10:50:45Z</time>
      </trkpt>
      <trkpt lat="41.970635" lon="0.755739">
        <ele>889.030</ele>
        <time>2015-12-19T10:50:49Z</time>
      </trkpt>
      <trkpt lat="41.970736" lon="0.755684">
        <ele>890.090</ele>
        <time>2015-12-19T10:50:54Z</time>
      </trkpt>
      <trkpt lat="41.970835" lon="0.755636">
        <ele>891.026</ele>
        <time>2015-12-19T10:50:59Z</time>
      </trkpt>
      <trkpt lat="41.970938" lon="0.755599">
        <ele>891.020</ele>
        <time>2015-12-19T10:51:04Z</time>
      </trkpt>
      <trkpt lat="41.971043" lon="0.755566">
        <ele>892.094</ele>
        <time>2015-12-19T10:51:09Z</time>
      </trkpt>
      <trkpt lat="41.971148" lon="0.755549">
        <ele>893.072</ele>
        <time>2015-12-19T10:51:14Z</time>
      </trkpt>
      <trkpt lat="41.971273" lon="0.755533">
        <ele>893.058</ele>
        <time>2015-12-19T10:51:19Z</time>
      </trkpt>
      <trkpt lat="41.971376" lon="0.755524">
        <ele>893.038</ele>
        <time>2015-12-19T10:51:24Z</time>
      </trkpt>
      <trkpt lat="41.971480" lon="0.755535">
        <ele>894.098</ele>
        <time>2015-12-19T10:51:30Z</time>
      </trkpt>
      <trkpt lat="41.971583" lon="0.755545">
        <ele>895.015</ele>
        <time>2015-12-19T10:51:35Z</time>
      </trkpt>
      <trkpt lat="41.971682" lon="0.755551">
        <ele>895.026</ele>
        <time>2015-12-19T10:51:40Z</time>
      </trkpt>
      <trkpt lat="41.971779" lon="0.755560">
        <ele>896.008</ele>
        <time>2015-12-19T10:51:45Z</time>
      </trkpt>
      <trkpt lat="41.971878" lon="0.755575">
        <ele>897.030</ele>
        <time>2015-12-19T10:51:50Z</time>
      </trkpt>
      <trkpt lat="41.971976" lon="0.755588">
        <ele>896.020</ele>
        <time>2015-12-19T10:51:55Z</time>
      </trkpt>
      <trkpt lat="41.972071" lon="0.755610">
        <ele>898.016</ele>
        <time>2015-12-19T10:52:00Z</time>
      </trkpt>
      <trkpt lat="41.972163" lon="0.755627">
        <ele>900.040</ele>
        <time>2015-12-19T10:52:05Z</time>
      </trkpt>
      <trkpt lat="41.972253" lon="0.755644">
        <ele>900.064</ele>
        <time>2015-12-19T10:52:10Z</time>
      </trkpt>
      <trkpt lat="41.972345" lon="0.755655">
        <ele>901.052</ele>
        <time>2015-12-19T10:52:15Z</time>
      </trkpt>
      <trkpt lat="41.972441" lon="0.755670">
        <ele>902.068</ele>
        <time>2015-12-19T10:52:20Z</time>
      </trkpt>
      <trkpt lat="41.972536" lon="0.755672">
        <ele>903.048</ele>
        <time>2015-12-19T10:52:25Z</time>
      </trkpt>
      <trkpt lat="41.972647" lon="0.755687">
        <ele>903.033</ele>
        <time>2015-12-19T10:52:30Z</time>
      </trkpt>
      <trkpt lat="41.972738" lon="0.755693">
        <ele>904.023</ele>
        <time>2015-12-19T10:52:35Z</time>
      </trkpt>
      <trkpt lat="41.972833" lon="0.755703">
        <ele>905.015</ele>
        <time>2015-12-19T10:52:40Z</time>
      </trkpt>
      <trkpt lat="41.972926" lon="0.755700">
        <ele>905.008</ele>
        <time>2015-12-19T10:52:46Z</time>
      </trkpt>
      <trkpt lat="41.973033" lon="0.755696">
        <ele>906.034</ele>
        <time>2015-12-19T10:52:52Z</time>
      </trkpt>
      <trkpt lat="41.973125" lon="0.755680">
        <ele>908.084</ele>
        <time>2015-12-19T10:52:57Z</time>
      </trkpt>
      <trkpt lat="41.973214" lon="0.755656">
        <ele>909.070</ele>
        <time>2015-12-19T10:53:02Z</time>
      </trkpt>
      <trkpt lat="41.973302" lon="0.755628">
        <ele>909.084</ele>
        <time>2015-12-19T10:53:07Z</time>
      </trkpt>
      <trkpt lat="41.973393" lon="0.755597">
        <ele>909.058</ele>
        <time>2015-12-19T10:53:12Z</time>
      </trkpt>
      <trkpt lat="41.973480" lon="0.755556">
        <ele>910.046</ele>
        <time>2015-12-19T10:53:17Z</time>
      </trkpt>
      <trkpt lat="41.973564" lon="0.755508">
        <ele>911.042</ele>
        <time>2015-12-19T10:53:22Z</time>
      </trkpt>
      <trkpt lat="41.973646" lon="0.755450">
        <ele>912.042</ele>
        <time>2015-12-19T10:53:27Z</time>
      </trkpt>
      <trkpt lat="41.973726" lon="0.755387">
        <ele>912.051</ele>
        <time>2015-12-19T10:53:32Z</time>
      </trkpt>
      <trkpt lat="41.973815" lon="0.755314">
        <ele>913.001</ele>
        <time>2015-12-19T10:53:38Z</time>
      </trkpt>
      <trkpt lat="41.973899" lon="0.755235">
        <ele>913.011</ele>
        <time>2015-12-19T10:53:44Z</time>
      </trkpt>
      <trkpt lat="41.973986" lon="0.755151">
        <ele>913.008</ele>
        <time>2015-12-19T10:53:50Z</time>
      </trkpt>
      <trkpt lat="41.974060" lon="0.755045">
        <ele>914.086</ele>
        <time>2015-12-19T10:53:56Z</time>
      </trkpt>
      <trkpt lat="41.974119" lon="0.754947">
        <ele>914.036</ele>
        <time>2015-12-19T10:54:01Z</time>
      </trkpt>
      <trkpt lat="41.974176" lon="0.754849">
        <ele>915.012</ele>
        <time>2015-12-19T10:54:06Z</time>
      </trkpt>
      <trkpt lat="41.974224" lon="0.754743">
        <ele>915.096</ele>
        <time>2015-12-19T10:54:10Z</time>
      </trkpt>
      <trkpt lat="41.974268" lon="0.754633">
        <ele>915.040</ele>
        <time>2015-12-19T10:54:16Z</time>
      </trkpt>
      <trkpt lat="41.974322" lon="0.754509">
        <ele>916.058</ele>
        <time>2015-12-19T10:54:22Z</time>
      </trkpt>
      <trkpt lat="41.974364" lon="0.754380">
        <ele>917.024</ele>
        <time>2015-12-19T10:54:28Z</time>
      </trkpt>
      <trkpt lat="41.974389" lon="0.754263">
        <ele>918.014</ele>
        <time>2015-12-19T10:54:33Z</time>
      </trkpt>
      <trkpt lat="41.974413" lon="0.754141">
        <ele>919.029</ele>
        <time>2015-12-19T10:54:38Z</time>
      </trkpt>
      <trkpt lat="41.974438" lon="0.754023">
        <ele>919.000</ele>
        <time>2015-12-19T10:54:43Z</time>
      </trkpt>
      <trkpt lat="41.974467" lon="0.753898">
        <ele>919.020</ele>
        <time>2015-12-19T10:54:48Z</time>
      </trkpt>
      <trkpt lat="41.974486" lon="0.753766">
        <ele>919.008</ele>
        <time>2015-12-19T10:54:53Z</time>
      </trkpt>
      <trkpt lat="41.974509" lon="0.753638">
        <ele>920.043</ele>
        <time>2015-12-19T10:54:58Z</time>
      </trkpt>
      <trkpt lat="41.974530" lon="0.753506">
        <ele>921.053</ele>
        <time>2015-12-19T10:55:03Z</time>
      </trkpt>
      <trkpt lat="41.974543" lon="0.753376">
        <ele>922.089</ele>
        <time>2015-12-19T10:55:08Z</time>
      </trkpt>
      <trkpt lat="41.974566" lon="0.753253">
        <ele>922.083</ele>
        <time>2015-12-19T10:55:13Z</time>
      </trkpt>
      <trkpt lat="41.974591" lon="0.753134">
        <ele>922.057</ele>
        <time>2015-12-19T10:55:18Z</time>
      </trkpt>
      <trkpt lat="41.974619" lon="0.753019">
        <ele>923.045</ele>
        <time>2015-12-19T10:55:23Z</time>
      </trkpt>
      <trkpt lat="41.974649" lon="0.752901">
        <ele>924.041</ele>
        <time>2015-12-19T10:55:28Z</time>
      </trkpt>
      <trkpt lat="41.974682" lon="0.752778">
        <ele>924.051</ele>
        <time>2015-12-19T10:55:33Z</time>
      </trkpt>
      <trkpt lat="41.974722" lon="0.752652">
        <ele>924.038</ele>
        <time>2015-12-19T10:55:38Z</time>
      </trkpt>
      <trkpt lat="41.974766" lon="0.752525">
        <ele>925.070</ele>
        <time>2015-12-19T10:55:43Z</time>
      </trkpt>
      <trkpt lat="41.974818" lon="0.752405">
        <ele>926.017</ele>
        <time>2015-12-19T10:55:47Z</time>
      </trkpt>
      <trkpt lat="41.974869" lon="0.752284">
        <ele>926.008</ele>
        <time>2015-12-19T10:55:52Z</time>
      </trkpt>
      <trkpt lat="41.974926" lon="0.752169">
        <ele>927.054</ele>
        <time>2015-12-19T10:55:58Z</time>
      </trkpt>
      <trkpt lat="41.974982" lon="0.752056">
        <ele>927.044</ele>
        <time>2015-12-19T10:56:03Z</time>
      </trkpt>
      <trkpt lat="41.975042" lon="0.751951">
        <ele>927.010</ele>
        <time>2015-12-19T10:56:08Z</time>
      </trkpt>
      <trkpt lat="41.975110" lon="0.751851">
        <ele>928.074</ele>
        <time>2015-12-19T10:56:13Z</time>
      </trkpt>
      <trkpt lat="41.975180" lon="0.751758">
        <ele>929.058</ele>
        <time>2015-12-19T10:56:18Z</time>
      </trkpt>
      <trkpt lat="41.975252" lon="0.751666">
        <ele>929.076</ele>
        <time>2015-12-19T10:56:23Z</time>
      </trkpt>
      <trkpt lat="41.975325" lon="0.751580">
        <ele>930.052</ele>
        <time>2015-12-19T10:56:28Z</time>
      </trkpt>
      <trkpt lat="41.975403" lon="0.751502">
        <ele>932.032</ele>
        <time>2015-12-19T10:56:33Z</time>
      </trkpt>
      <trkpt lat="41.975481" lon="0.751423">
        <ele>933.059</ele>
        <time>2015-12-19T10:56:38Z</time>
      </trkpt>
      <trkpt lat="41.975560" lon="0.751354">
        <ele>934.003</ele>
        <time>2015-12-19T10:56:43Z</time>
      </trkpt>
      <trkpt lat="41.975643" lon="0.751284">
        <ele>935.023</ele>
        <time>2015-12-19T10:56:48Z</time>
      </trkpt>
      <trkpt lat="41.975727" lon="0.751214">
        <ele>936.008</ele>
        <time>2015-12-19T10:56:53Z</time>
      </trkpt>
      <trkpt lat="41.975815" lon="0.751155">
        <ele>937.046</ele>
        <time>2015-12-19T10:56:58Z</time>
      </trkpt>
      <trkpt lat="41.975908" lon="0.751106">
        <ele>938.096</ele>
        <time>2015-12-19T10:57:03Z</time>
      </trkpt>
      <trkpt lat="41.975997" lon="0.751056">
        <ele>940.032</ele>
        <time>2015-12-19T10:57:08Z</time>
      </trkpt>
      <trkpt lat="41.976093" lon="0.751003">
        <ele>941.096</ele>
        <time>2015-12-19T10:57:13Z</time>
      </trkpt>
      <trkpt lat="41.976194" lon="0.750954">
        <ele>941.080</ele>
        <time>2015-12-19T10:57:18Z</time>
      </trkpt>
      <trkpt lat="41.976292" lon="0.750915">
        <ele>942.088</ele>
        <time>2015-12-19T10:57:23Z</time>
      </trkpt>
      <trkpt lat="41.976387" lon="0.750881">
        <ele>943.054</ele>
        <time>2015-12-19T10:57:28Z</time>
      </trkpt>
      <trkpt lat="41.976482" lon="0.750868">
        <ele>944.044</ele>
        <time>2015-12-19T10:57:33Z</time>
      </trkpt>
      <trkpt lat="41.976577" lon="0.750861">
        <ele>945.035</ele>
        <time>2015-12-19T10:57:38Z</time>
      </trkpt>
      <trkpt lat="41.976674" lon="0.750851">
        <ele>946.086</ele>
        <time>2015-12-19T10:57:42Z</time>
      </trkpt>
      <trkpt lat="41.976771" lon="0.750848">
        <ele>947.014</ele>
        <time>2015-12-19T10:57:47Z</time>
      </trkpt>
      <trkpt lat="41.976868" lon="0.750846">
        <ele>947.008</ele>
        <time>2015-12-19T10:57:53Z</time>
      </trkpt>
      <trkpt lat="41.976963" lon="0.750849">
        <ele>947.024</ele>
        <time>2015-12-19T10:57:58Z</time>
      </trkpt>
      <trkpt lat="41.977057" lon="0.750871">
        <ele>948.084</ele>
        <time>2015-12-19T10:58:03Z</time>
      </trkpt>
      <trkpt lat="41.977155" lon="0.750886">
        <ele>949.090</ele>
        <time>2015-12-19T10:58:08Z</time>
      </trkpt>
      <trkpt lat="41.977252" lon="0.750896">
        <ele>950.024</ele>
        <time>2015-12-19T10:58:13Z</time>
      </trkpt>
      <trkpt lat="41.977349" lon="0.750906">
        <ele>951.068</ele>
        <time>2015-12-19T10:58:18Z</time>
      </trkpt>
      <trkpt lat="41.977450" lon="0.750928">
        <ele>952.086</ele>
        <time>2015-12-19T10:58:23Z</time>
      </trkpt>
      <trkpt lat="41.977546" lon="0.750945">
        <ele>953.092</ele>
        <time>2015-12-19T10:58:28Z</time>
      </trkpt>
      <trkpt lat="41.977643" lon="0.750950">
        <ele>954.092</ele>
        <time>2015-12-19T10:58:33Z</time>
      </trkpt>
      <trkpt lat="41.977747" lon="0.750960">
        <ele>955.014</ele>
        <time>2015-12-19T10:58:38Z</time>
      </trkpt>
      <trkpt lat="41.977851" lon="0.750960">
        <ele>956.054</ele>
        <time>2015-12-19T10:58:43Z</time>
      </trkpt>
      <trkpt lat="41.977950" lon="0.750951">
        <ele>957.009</ele>
        <time>2015-12-19T10:58:48Z</time>
      </trkpt>
      <trkpt lat="41.978048" lon="0.750946">
        <ele>957.008</ele>
        <time>2015-12-19T10:58:54Z</time>
      </trkpt>
      <trkpt lat="41.978140" lon="0.750947">
        <ele>957.072</ele>
        <time>2015-12-19T10:59:06Z</time>
      </trkpt>
      <trkpt lat="41.978252" lon="0.750905">
        <ele>959.032</ele>
        <time>2015-12-19T11:04:31Z</time>
      </trkpt>
      <trkpt lat="41.978348" lon="0.750858">
        <ele>962.048</ele>
        <time>2015-12-19T11:04:35Z</time>
      </trkpt>
      <trkpt lat="41.978438" lon="0.750811">
        <ele>957.012</ele>
        <time>2015-12-19T11:04:38Z</time>
      </trkpt>
      <trkpt lat="41.978529" lon="0.750756">
        <ele>959.036</ele>
        <time>2015-12-19T11:04:41Z</time>
      </trkpt>
      <trkpt lat="41.978622" lon="0.750716">
        <ele>960.024</ele>
        <time>2015-12-19T11:04:44Z</time>
      </trkpt>
      <trkpt lat="41.978717" lon="0.750653">
        <ele>964.040</ele>
        <time>2015-12-19T11:04:47Z</time>
      </trkpt>
      <trkpt lat="41.978807" lon="0.750569">
        <ele>963.020</ele>
        <time>2015-12-19T11:04:50Z</time>
      </trkpt>
      <trkpt lat="41.978896" lon="0.750484">
        <ele>963.036</ele>
        <time>2015-12-19T11:04:53Z</time>
      </trkpt>
      <trkpt lat="41.979002" lon="0.750493">
        <ele>963.017</ele>
        <time>2015-12-19T11:04:57Z</time>
      </trkpt>
      <trkpt lat="41.979097" lon="0.750579">
        <ele>962.018</ele>
        <time>2015-12-19T11:05:02Z</time>
      </trkpt>
      <trkpt lat="41.979166" lon="0.750690">
        <ele>963.008</ele>
        <time>2015-12-19T11:05:06Z</time>
      </trkpt>
      <trkpt lat="41.979225" lon="0.750812">
        <ele>963.034</ele>
        <time>2015-12-19T11:05:10Z</time>
      </trkpt>
      <trkpt lat="41.979265" lon="0.750930">
        <ele>965.044</ele>
        <time>2015-12-19T11:05:15Z</time>
      </trkpt>
      <trkpt lat="41.979316" lon="0.751042">
        <ele>960.070</ele>
        <time>2015-12-19T11:05:24Z</time>
      </trkpt>
      <trkpt lat="41.979378" lon="0.751142">
        <ele>957.054</ele>
        <time>2015-12-19T11:08:27Z</time>
      </trkpt>
      <trkpt lat="41.979413" lon="0.751259">
        <ele>958.038</ele>
        <time>2015-12-19T11:08:36Z</time>
      </trkpt>
      <trkpt lat="41.979384" lon="0.751134">
        <ele>956.096</ele>
        <time>2015-12-19T11:09:33Z</time>
      </trkpt>
      <trkpt lat="41.979330" lon="0.751010">
        <ele>956.062</ele>
        <time>2015-12-19T11:09:50Z</time>
      </trkpt>
      <trkpt lat="41.979302" lon="0.750882">
        <ele>956.032</ele>
        <time>2015-12-19T11:09:55Z</time>
      </trkpt>
      <trkpt lat="41.979242" lon="0.750763">
        <ele>955.073</ele>
        <time>2015-12-19T11:09:59Z</time>
      </trkpt>
      <trkpt lat="41.979160" lon="0.750676">
        <ele>958.085</ele>
        <time>2015-12-19T11:10:03Z</time>
      </trkpt>
      <trkpt lat="41.979082" lon="0.750573">
        <ele>956.013</ele>
        <time>2015-12-19T11:10:07Z</time>
      </trkpt>
      <trkpt lat="41.978977" lon="0.750535">
        <ele>958.008</ele>
        <time>2015-12-19T11:10:11Z</time>
      </trkpt>
      <trkpt lat="41.978819" lon="0.750550">
        <ele>958.078</ele>
        <time>2015-12-19T11:10:15Z</time>
      </trkpt>
      <trkpt lat="41.978695" lon="0.750607">
        <ele>957.078</ele>
        <time>2015-12-19T11:10:18Z</time>
      </trkpt>
      <trkpt lat="41.978575" lon="0.750676">
        <ele>958.014</ele>
        <time>2015-12-19T11:10:21Z</time>
      </trkpt>
      <trkpt lat="41.978474" lon="0.750734">
        <ele>958.038</ele>
        <time>2015-12-19T11:10:23Z</time>
      </trkpt>
      <trkpt lat="41.978360" lon="0.750779">
        <ele>956.022</ele>
        <time>2015-12-19T11:10:25Z</time>
      </trkpt>
      <trkpt lat="41.978260" lon="0.750785">
        <ele>955.040</ele>
        <time>2015-12-19T11:10:27Z</time>
      </trkpt>
      <trkpt lat="41.978172" lon="0.750741">
        <ele>954.046</ele>
        <time>2015-12-19T11:10:29Z</time>
      </trkpt>
      <trkpt lat="41.978171" lon="0.750602">
        <ele>955.076</ele>
        <time>2015-12-19T11:10:32Z</time>
      </trkpt>
      <trkpt lat="41.978254" lon="0.750499">
        <ele>953.096</ele>
        <time>2015-12-19T11:10:35Z</time>
      </trkpt>
      <trkpt lat="41.978332" lon="0.750417">
        <ele>952.031</ele>
        <time>2015-12-19T11:10:38Z</time>
      </trkpt>
      <trkpt lat="41.978433" lon="0.750465">
        <ele>955.024</ele>
        <time>2015-12-19T11:10:42Z</time>
      </trkpt>
      <trkpt lat="41.978509" lon="0.750571">
        <ele>957.008</ele>
        <time>2015-12-19T11:10:46Z</time>
      </trkpt>
      <trkpt lat="41.978614" lon="0.750535">
        <ele>958.060</ele>
        <time>2015-12-19T11:10:51Z</time>
      </trkpt>
      <trkpt lat="41.978702" lon="0.750477">
        <ele>958.070</ele>
        <time>2015-12-19T11:10:56Z</time>
      </trkpt>
      <trkpt lat="41.978749" lon="0.750372">
        <ele>955.066</ele>
        <time>2015-12-19T11:32:44Z</time>
      </trkpt>
      <trkpt lat="41.978845" lon="0.750369">
        <ele>957.090</ele>
        <time>2015-12-19T11:33:05Z</time>
      </trkpt>
      <trkpt lat="41.978922" lon="0.750302">
        <ele>956.084</ele>
        <time>2015-12-19T11:33:12Z</time>
      </trkpt>
      <trkpt lat="41.978976" lon="0.750191">
        <ele>957.062</ele>
        <time>2015-12-19T11:33:18Z</time>
      </trkpt>
      <trkpt lat="41.979046" lon="0.750104">
        <ele>956.068</ele>
        <time>2015-12-19T11:33:22Z</time>
      </trkpt>
      <trkpt lat="41.979126" lon="0.749992">
        <ele>955.058</ele>
        <time>2015-12-19T11:33:26Z</time>
      </trkpt>
      <trkpt lat="41.979203" lon="0.749899">
        <ele>953.053</ele>
        <time>2015-12-19T11:33:31Z</time>
      </trkpt>
      <trkpt lat="41.979195" lon="0.750024">
        <ele>953.004</ele>
        <time>2015-12-19T11:33:40Z</time>
      </trkpt>
      <trkpt lat="41.979137" lon="0.750116">
        <ele>954.014</ele>
        <time>2015-12-19T11:33:44Z</time>
      </trkpt>
      <trkpt lat="41.979113" lon="0.750233">
        <ele>954.008</ele>
        <time>2015-12-19T11:33:48Z</time>
      </trkpt>
      <trkpt lat="41.979118" lon="0.750373">
        <ele>955.026</ele>
        <time>2015-12-19T11:33:53Z</time>
      </trkpt>
      <trkpt lat="41.979112" lon="0.750502">
        <ele>957.046</ele>
        <time>2015-12-19T11:33:58Z</time>
      </trkpt>
      <trkpt lat="41.979085" lon="0.750622">
        <ele>957.082</ele>
        <time>2015-12-19T11:34:03Z</time>
      </trkpt>
      <trkpt lat="41.979040" lon="0.750731">
        <ele>959.086</ele>
        <time>2015-12-19T11:34:08Z</time>
      </trkpt>
      <trkpt lat="41.978980" lon="0.750840">
        <ele>960.040</ele>
        <time>2015-12-19T11:34:15Z</time>
      </trkpt>
      <trkpt lat="41.978881" lon="0.750924">
        <ele>962.088</ele>
        <time>2015-12-19T11:34:22Z</time>
      </trkpt>
      <trkpt lat="41.978801" lon="0.751028">
        <ele>963.044</ele>
        <time>2015-12-19T11:34:30Z</time>
      </trkpt>
      <trkpt lat="41.978731" lon="0.751132">
        <ele>963.034</ele>
        <time>2015-12-19T11:34:36Z</time>
      </trkpt>
      <trkpt lat="41.978678" lon="0.751250">
        <ele>963.061</ele>
        <time>2015-12-19T11:34:42Z</time>
      </trkpt>
      <trkpt lat="41.978663" lon="0.751380">
        <ele>965.021</ele>
        <time>2015-12-19T11:34:48Z</time>
      </trkpt>
      <trkpt lat="41.978641" lon="0.751516">
        <ele>967.013</ele>
        <time>2015-12-19T11:34:55Z</time>
      </trkpt>
      <trkpt lat="41.978612" lon="0.751648">
        <ele>967.008</ele>
        <time>2015-12-19T11:35:02Z</time>
      </trkpt>
      <trkpt lat="41.978570" lon="0.751756">
        <ele>968.087</ele>
        <time>2015-12-19T11:35:08Z</time>
      </trkpt>
      <trkpt lat="41.978521" lon="0.751860">
        <ele>969.077</ele>
        <time>2015-12-19T11:35:14Z</time>
      </trkpt>
      <trkpt lat="41.978464" lon="0.751973">
        <ele>968.043</ele>
        <time>2015-12-19T11:35:21Z</time>
      </trkpt>
      <trkpt lat="41.978389" lon="0.752064">
        <ele>969.037</ele>
        <time>2015-12-19T11:35:28Z</time>
      </trkpt>
      <trkpt lat="41.978347" lon="0.752183">
        <ele>970.071</ele>
        <time>2015-12-19T11:35:35Z</time>
      </trkpt>
      <trkpt lat="41.978309" lon="0.752302">
        <ele>971.019</ele>
        <time>2015-12-19T11:35:42Z</time>
      </trkpt>
      <trkpt lat="41.978265" lon="0.752425">
        <ele>972.045</ele>
        <time>2015-12-19T11:35:49Z</time>
      </trkpt>
      <trkpt lat="41.978199" lon="0.752527">
        <ele>971.065</ele>
        <time>2015-12-19T11:35:55Z</time>
      </trkpt>
      <trkpt lat="41.978121" lon="0.752595">
        <ele>972.061</ele>
        <time>2015-12-19T11:36:01Z</time>
      </trkpt>
      <trkpt lat="41.978045" lon="0.752676">
        <ele>972.021</ele>
        <time>2015-12-19T11:36:08Z</time>
      </trkpt>
      <trkpt lat="41.977970" lon="0.752756">
        <ele>974.013</ele>
        <time>2015-12-19T11:36:13Z</time>
      </trkpt>
      <trkpt lat="41.977908" lon="0.752863">
        <ele>974.008</ele>
        <time>2015-12-19T11:36:18Z</time>
      </trkpt>
      <trkpt lat="41.977854" lon="0.752989">
        <ele>974.087</ele>
        <time>2015-12-19T11:36:23Z</time>
      </trkpt>
      <trkpt lat="41.977805" lon="0.753112">
        <ele>973.057</ele>
        <time>2015-12-19T11:36:27Z</time>
      </trkpt>
      <trkpt lat="41.977752" lon="0.753257">
        <ele>973.063</ele>
        <time>2015-12-19T11:36:31Z</time>
      </trkpt>
      <trkpt lat="41.977716" lon="0.753391">
        <ele>973.057</ele>
        <time>2015-12-19T11:36:34Z</time>
      </trkpt>
      <trkpt lat="41.977679" lon="0.753542">
        <ele>972.011</ele>
        <time>2015-12-19T11:36:37Z</time>
      </trkpt>
      <trkpt lat="41.977658" lon="0.753661">
        <ele>972.019</ele>
        <time>2015-12-19T11:36:39Z</time>
      </trkpt>
      <trkpt lat="41.977640" lon="0.753795">
        <ele>972.025</ele>
        <time>2015-12-19T11:36:41Z</time>
      </trkpt>
      <trkpt lat="41.977625" lon="0.753922">
        <ele>973.045</ele>
        <time>2015-12-19T11:36:43Z</time>
      </trkpt>
      <trkpt lat="41.977595" lon="0.754050">
        <ele>973.021</ele>
        <time>2015-12-19T11:36:45Z</time>
      </trkpt>
      <trkpt lat="41.977573" lon="0.754175">
        <ele>974.041</ele>
        <time>2015-12-19T11:36:47Z</time>
      </trkpt>
      <trkpt lat="41.977562" lon="0.754332">
        <ele>975.005</ele>
        <time>2015-12-19T11:36:50Z</time>
      </trkpt>
      <trkpt lat="41.977561" lon="0.754491">
        <ele>975.008</ele>
        <time>2015-12-19T11:36:53Z</time>
      </trkpt>
      <trkpt lat="41.977568" lon="0.754644">
        <ele>976.013</ele>
        <time>2015-12-19T11:36:56Z</time>
      </trkpt>
      <trkpt lat="41.977572" lon="0.754809">
        <ele>977.083</ele>
        <time>2015-12-19T11:36:59Z</time>
      </trkpt>
      <trkpt lat="41.977572" lon="0.754975">
        <ele>976.049</ele>
        <time>2015-12-19T11:37:02Z</time>
      </trkpt>
      <trkpt lat="41.977560" lon="0.755135">
        <ele>977.053</ele>
        <time>2015-12-19T11:37:05Z</time>
      </trkpt>
      <trkpt lat="41.977547" lon="0.755296">
        <ele>978.017</ele>
        <time>2015-12-19T11:37:08Z</time>
      </trkpt>
      <trkpt lat="41.977532" lon="0.755462">
        <ele>978.015</ele>
        <time>2015-12-19T11:37:11Z</time>
      </trkpt>
      <trkpt lat="41.977516" lon="0.755632">
        <ele>978.081</ele>
        <time>2015-12-19T11:37:14Z</time>
      </trkpt>
      <trkpt lat="41.977505" lon="0.755754">
        <ele>977.031</ele>
        <time>2015-12-19T11:37:16Z</time>
      </trkpt>
      <trkpt lat="41.977487" lon="0.755927">
        <ele>977.048</ele>
        <time>2015-12-19T11:37:19Z</time>
      </trkpt>
      <trkpt lat="41.977466" lon="0.756092">
        <ele>977.061</ele>
        <time>2015-12-19T11:37:22Z</time>
      </trkpt>
      <trkpt lat="41.977444" lon="0.756261">
        <ele>976.017</ele>
        <time>2015-12-19T11:37:25Z</time>
      </trkpt>
      <trkpt lat="41.977410" lon="0.756451">
        <ele>975.008</ele>
        <time>2015-12-19T11:37:28Z</time>
      </trkpt>
      <trkpt lat="41.977375" lon="0.756579">
        <ele>974.015</ele>
        <time>2015-12-19T11:37:30Z</time>
      </trkpt>
      <trkpt lat="41.977341" lon="0.756730">
        <ele>973.055</ele>
        <time>2015-12-19T11:37:32Z</time>
      </trkpt>
      <trkpt lat="41.977303" lon="0.756881">
        <ele>972.091</ele>
        <time>2015-12-19T11:37:34Z</time>
      </trkpt>
      <trkpt lat="41.977257" lon="0.757042">
        <ele>972.075</ele>
        <time>2015-12-19T11:37:36Z</time>
      </trkpt>
      <trkpt lat="41.977190" lon="0.757193">
        <ele>972.019</ele>
        <time>2015-12-19T11:37:38Z</time>
      </trkpt>
      <trkpt lat="41.977116" lon="0.757345">
        <ele>972.057</ele>
        <time>2015-12-19T11:37:40Z</time>
      </trkpt>
      <trkpt lat="41.977035" lon="0.757502">
        <ele>972.033</ele>
        <time>2015-12-19T11:37:41Z</time>
      </trkpt>
      <trkpt lat="41.976954" lon="0.757645">
        <ele>971.043</ele>
        <time>2015-12-19T11:37:43Z</time>
      </trkpt>
      <trkpt lat="41.976874" lon="0.757791">
        <ele>971.033</ele>
        <time>2015-12-19T11:37:45Z</time>
      </trkpt>
      <trkpt lat="41.976783" lon="0.757921">
        <ele>971.023</ele>
        <time>2015-12-19T11:37:47Z</time>
      </trkpt>
      <trkpt lat="41.976714" lon="0.758040">
        <ele>971.015</ele>
        <time>2015-12-19T11:37:50Z</time>
      </trkpt>
      <trkpt lat="41.976658" lon="0.758162">
        <ele>971.008</ele>
        <time>2015-12-19T11:37:52Z</time>
      </trkpt>
      <trkpt lat="41.976618" lon="0.758282">
        <ele>972.034</ele>
        <time>2015-12-19T11:37:54Z</time>
      </trkpt>
      <trkpt lat="41.976601" lon="0.758409">
        <ele>973.054</ele>
        <time>2015-12-19T11:37:56Z</time>
      </trkpt>
      <trkpt lat="41.976581" lon="0.758554">
        <ele>974.020</ele>
        <time>2015-12-19T11:37:59Z</time>
      </trkpt>
      <trkpt lat="41.976574" lon="0.758700">
        <ele>976.044</ele>
        <time>2015-12-19T11:38:02Z</time>
      </trkpt>
      <trkpt lat="41.976587" lon="0.758849">
        <ele>977.018</ele>
        <time>2015-12-19T11:38:05Z</time>
      </trkpt>
      <trkpt lat="41.976596" lon="0.759001">
        <ele>977.096</ele>
        <time>2015-12-19T11:38:08Z</time>
      </trkpt>
      <trkpt lat="41.976608" lon="0.759164">
        <ele>978.052</ele>
        <time>2015-12-19T11:38:11Z</time>
      </trkpt>
      <trkpt lat="41.976616" lon="0.759334">
        <ele>979.072</ele>
        <time>2015-12-19T11:38:14Z</time>
      </trkpt>
      <trkpt lat="41.976623" lon="0.759506">
        <ele>980.031</ele>
        <time>2015-12-19T11:38:17Z</time>
      </trkpt>
      <trkpt lat="41.976610" lon="0.759636">
        <ele>979.061</ele>
        <time>2015-12-19T11:38:19Z</time>
      </trkpt>
      <trkpt lat="41.976572" lon="0.759803">
        <ele>980.007</ele>
        <time>2015-12-19T11:38:22Z</time>
      </trkpt>
      <trkpt lat="41.976505" lon="0.759963">
        <ele>978.008</ele>
        <time>2015-12-19T11:38:25Z</time>
      </trkpt>
      <trkpt lat="41.976436" lon="0.760118">
        <ele>977.034</ele>
        <time>2015-12-19T11:38:28Z</time>
      </trkpt>
      <trkpt lat="41.976372" lon="0.760276">
        <ele>977.064</ele>
        <time>2015-12-19T11:38:31Z</time>
      </trkpt>
      <trkpt lat="41.976316" lon="0.760441">
        <ele>977.070</ele>
        <time>2015-12-19T11:38:34Z</time>
      </trkpt>
      <trkpt lat="41.976278" lon="0.760567">
        <ele>976.084</ele>
        <time>2015-12-19T11:38:36Z</time>
      </trkpt>
      <trkpt lat="41.976253" lon="0.760699">
        <ele>976.078</ele>
        <time>2015-12-19T11:38:38Z</time>
      </trkpt>
      <trkpt lat="41.976229" lon="0.760824">
        <ele>976.026</ele>
        <time>2015-12-19T11:38:40Z</time>
      </trkpt>
      <trkpt lat="41.976183" lon="0.760955">
        <ele>975.092</ele>
        <time>2015-12-19T11:38:42Z</time>
      </trkpt>
      <trkpt lat="41.976146" lon="0.761071">
        <ele>975.062</ele>
        <time>2015-12-19T11:38:44Z</time>
      </trkpt>
      <trkpt lat="41.976097" lon="0.761234">
        <ele>975.086</ele>
        <time>2015-12-19T11:38:47Z</time>
      </trkpt>
      <trkpt lat="41.976062" lon="0.761355">
        <ele>975.060</ele>
        <time>2015-12-19T11:38:49Z</time>
      </trkpt>
      <trkpt lat="41.976026" lon="0.761554">
        <ele>975.026</ele>
        <time>2015-12-19T11:38:51Z</time>
      </trkpt>
      <trkpt lat="41.975983" lon="0.761680">
        <ele>975.008</ele>
        <time>2015-12-19T11:38:53Z</time>
      </trkpt>
      <trkpt lat="41.975933" lon="0.761792">
        <ele>974.039</ele>
        <time>2015-12-19T11:38:55Z</time>
      </trkpt>
      <trkpt lat="41.975856" lon="0.761870">
        <ele>974.099</ele>
        <time>2015-12-19T11:38:57Z</time>
      </trkpt>
      <trkpt lat="41.975773" lon="0.761924">
        <ele>974.015</ele>
        <time>2015-12-19T11:38:59Z</time>
      </trkpt>
      <trkpt lat="41.975695" lon="0.761985">
        <ele>973.029</ele>
        <time>2015-12-19T11:39:01Z</time>
      </trkpt>
      <trkpt lat="41.975611" lon="0.762047">
        <ele>971.063</ele>
        <time>2015-12-19T11:39:04Z</time>
      </trkpt>
      <trkpt lat="41.975530" lon="0.762112">
        <ele>972.021</ele>
        <time>2015-12-19T11:39:06Z</time>
      </trkpt>
      <trkpt lat="41.975440" lon="0.762177">
        <ele>971.097</ele>
        <time>2015-12-19T11:39:08Z</time>
      </trkpt>
      <trkpt lat="41.975345" lon="0.762224">
        <ele>972.087</ele>
        <time>2015-12-19T11:39:10Z</time>
      </trkpt>
      <trkpt lat="41.975242" lon="0.762256">
        <ele>971.055</ele>
        <time>2015-12-19T11:39:12Z</time>
      </trkpt>
      <trkpt lat="41.975145" lon="0.762279">
        <ele>971.007</ele>
        <time>2015-12-19T11:39:14Z</time>
      </trkpt>
      <trkpt lat="41.975039" lon="0.762312">
        <ele>970.017</ele>
        <time>2015-12-19T11:39:16Z</time>
      </trkpt>
      <trkpt lat="41.974929" lon="0.762344">
        <ele>970.008</ele>
        <time>2015-12-19T11:39:18Z</time>
      </trkpt>
      <trkpt lat="41.974814" lon="0.762357">
        <ele>970.026</ele>
        <time>2015-12-19T11:39:20Z</time>
      </trkpt>
      <trkpt lat="41.974694" lon="0.762364">
        <ele>969.086</ele>
        <time>2015-12-19T11:39:22Z</time>
      </trkpt>
      <trkpt lat="41.974580" lon="0.762354">
        <ele>969.082</ele>
        <time>2015-12-19T11:39:24Z</time>
      </trkpt>
      <trkpt lat="41.974467" lon="0.762344">
        <ele>968.066</ele>
        <time>2015-12-19T11:39:26Z</time>
      </trkpt>
      <trkpt lat="41.974350" lon="0.762336">
        <ele>967.020</ele>
        <time>2015-12-19T11:39:28Z</time>
      </trkpt>
      <trkpt lat="41.974220" lon="0.762331">
        <ele>967.098</ele>
        <time>2015-12-19T11:39:30Z</time>
      </trkpt>
      <trkpt lat="41.974085" lon="0.762307">
        <ele>966.054</ele>
        <time>2015-12-19T11:39:32Z</time>
      </trkpt>
      <trkpt lat="41.973955" lon="0.762286">
        <ele>966.084</ele>
        <time>2015-12-19T11:39:34Z</time>
      </trkpt>
      <trkpt lat="41.973834" lon="0.762329">
        <ele>965.049</ele>
        <time>2015-12-19T11:39:36Z</time>
      </trkpt>
      <trkpt lat="41.973725" lon="0.762420">
        <ele>964.002</ele>
        <time>2015-12-19T11:39:38Z</time>
      </trkpt>
      <trkpt lat="41.973608" lon="0.762497">
        <ele>964.022</ele>
        <time>2015-12-19T11:39:40Z</time>
      </trkpt>
      <trkpt lat="41.973494" lon="0.762556">
        <ele>964.008</ele>
        <time>2015-12-19T11:39:42Z</time>
      </trkpt>
      <trkpt lat="41.973392" lon="0.762620">
        <ele>964.095</ele>
        <time>2015-12-19T11:39:44Z</time>
      </trkpt>
      <trkpt lat="41.973290" lon="0.762708">
        <ele>964.065</ele>
        <time>2015-12-19T11:39:46Z</time>
      </trkpt>
      <trkpt lat="41.973183" lon="0.762800">
        <ele>964.011</ele>
        <time>2015-12-19T11:39:48Z</time>
      </trkpt>
      <trkpt lat="41.973083" lon="0.762888">
        <ele>964.015</ele>
        <time>2015-12-19T11:39:50Z</time>
      </trkpt>
      <trkpt lat="41.972990" lon="0.762993">
        <ele>964.069</ele>
        <time>2015-12-19T11:39:52Z</time>
      </trkpt>
      <trkpt lat="41.972918" lon="0.763123">
        <ele>965.027</ele>
        <time>2015-12-19T11:39:54Z</time>
      </trkpt>
      <trkpt lat="41.972859" lon="0.763279">
        <ele>964.073</ele>
        <time>2015-12-19T11:39:56Z</time>
      </trkpt>
      <trkpt lat="41.972823" lon="0.763446">
        <ele>965.083</ele>
        <time>2015-12-19T11:39:58Z</time>
      </trkpt>
      <trkpt lat="41.972818" lon="0.763596">
        <ele>965.028</ele>
        <time>2015-12-19T11:40:00Z</time>
      </trkpt>
      <trkpt lat="41.972812" lon="0.763765">
        <ele>966.089</ele>
        <time>2015-12-19T11:40:02Z</time>
      </trkpt>
      <trkpt lat="41.972820" lon="0.763938">
        <ele>965.017</ele>
        <time>2015-12-19T11:40:04Z</time>
      </trkpt>
      <trkpt lat="41.972821" lon="0.764106">
        <ele>966.008</ele>
        <time>2015-12-19T11:40:06Z</time>
      </trkpt>
      <trkpt lat="41.972827" lon="0.764278">
        <ele>965.043</ele>
        <time>2015-12-19T11:40:08Z</time>
      </trkpt>
      <trkpt lat="41.972819" lon="0.764451">
        <ele>965.043</ele>
        <time>2015-12-19T11:40:10Z</time>
      </trkpt>
      <trkpt lat="41.972781" lon="0.764628">
        <ele>965.069</ele>
        <time>2015-12-19T11:40:12Z</time>
      </trkpt>
      <trkpt lat="41.972752" lon="0.764792">
        <ele>965.053</ele>
        <time>2015-12-19T11:40:14Z</time>
      </trkpt>
      <trkpt lat="41.972720" lon="0.764953">
        <ele>965.057</ele>
        <time>2015-12-19T11:40:16Z</time>
      </trkpt>
      <trkpt lat="41.972688" lon="0.765127">
        <ele>964.085</ele>
        <time>2015-12-19T11:40:18Z</time>
      </trkpt>
      <trkpt lat="41.972657" lon="0.765299">
        <ele>963.051</ele>
        <time>2015-12-19T11:40:20Z</time>
      </trkpt>
      <trkpt lat="41.972625" lon="0.765465">
        <ele>963.091</ele>
        <time>2015-12-19T11:40:22Z</time>
      </trkpt>
      <trkpt lat="41.972600" lon="0.765618">
        <ele>963.096</ele>
        <time>2015-12-19T11:40:24Z</time>
      </trkpt>
      <trkpt lat="41.972570" lon="0.765792">
        <ele>963.031</ele>
        <time>2015-12-19T11:40:26Z</time>
      </trkpt>
      <trkpt lat="41.972540" lon="0.765967">
        <ele>964.024</ele>
        <time>2015-12-19T11:40:28Z</time>
      </trkpt>
      <trkpt lat="41.972507" lon="0.766144">
        <ele>963.008</ele>
        <time>2015-12-19T11:40:30Z</time>
      </trkpt>
      <trkpt lat="41.972476" lon="0.766313">
        <ele>963.010</ele>
        <time>2015-12-19T11:40:32Z</time>
      </trkpt>
      <trkpt lat="41.972432" lon="0.766598">
        <ele>963.070</ele>
        <time>2015-12-19T11:40:34Z</time>
      </trkpt>
      <trkpt lat="41.972369" lon="0.766799">
        <ele>962.026</ele>
        <time>2015-12-19T11:40:36Z</time>
      </trkpt>
      <trkpt lat="41.972286" lon="0.766991">
        <ele>960.080</ele>
        <time>2015-12-19T11:40:38Z</time>
      </trkpt>
      <trkpt lat="41.972179" lon="0.767150">
        <ele>960.034</ele>
        <time>2015-12-19T11:40:40Z</time>
      </trkpt>
      <trkpt lat="41.972069" lon="0.767287">
        <ele>959.082</ele>
        <time>2015-12-19T11:40:42Z</time>
      </trkpt>
      <trkpt lat="41.971959" lon="0.767403">
        <ele>959.028</ele>
        <time>2015-12-19T11:40:44Z</time>
      </trkpt>
      <trkpt lat="41.971853" lon="0.767523">
        <ele>959.088</ele>
        <time>2015-12-19T11:40:46Z</time>
      </trkpt>
      <trkpt lat="41.971751" lon="0.767649">
        <ele>957.022</ele>
        <time>2015-12-19T11:40:49Z</time>
      </trkpt>
      <trkpt lat="41.971674" lon="0.767787">
        <ele>956.062</ele>
        <time>2015-12-19T11:40:51Z</time>
      </trkpt>
      <trkpt lat="41.971606" lon="0.767909">
        <ele>956.008</ele>
        <time>2015-12-19T11:40:53Z</time>
      </trkpt>
      <trkpt lat="41.971523" lon="0.768016">
        <ele>957.008</ele>
        <time>2015-12-19T11:40:55Z</time>
      </trkpt>
      <trkpt lat="41.971438" lon="0.768070">
        <ele>957.093</ele>
        <time>2015-12-19T11:40:57Z</time>
      </trkpt>
      <trkpt lat="41.971312" lon="0.768134">
        <ele>957.013</ele>
        <time>2015-12-19T11:41:00Z</time>
      </trkpt>
      <trkpt lat="41.971232" lon="0.768204">
        <ele>957.019</ele>
        <time>2015-12-19T11:41:02Z</time>
      </trkpt>
      <trkpt lat="41.971162" lon="0.768304">
        <ele>957.093</ele>
        <time>2015-12-19T11:41:04Z</time>
      </trkpt>
      <trkpt lat="41.971106" lon="0.768432">
        <ele>957.097</ele>
        <time>2015-12-19T11:41:06Z</time>
      </trkpt>
      <trkpt lat="41.971061" lon="0.768558">
        <ele>958.075</ele>
        <time>2015-12-19T11:41:08Z</time>
      </trkpt>
      <trkpt lat="41.971023" lon="0.768686">
        <ele>959.071</ele>
        <time>2015-12-19T11:41:10Z</time>
      </trkpt>
      <trkpt lat="41.970986" lon="0.768823">
        <ele>959.081</ele>
        <time>2015-12-19T11:41:12Z</time>
      </trkpt>
      <trkpt lat="41.970951" lon="0.768953">
        <ele>959.075</ele>
        <time>2015-12-19T11:41:14Z</time>
      </trkpt>
      <trkpt lat="41.970926" lon="0.769085">
        <ele>959.028</ele>
        <time>2015-12-19T11:41:16Z</time>
      </trkpt>
      <trkpt lat="41.970902" lon="0.769223">
        <ele>960.020</ele>
        <time>2015-12-19T11:41:18Z</time>
      </trkpt>
      <trkpt lat="41.970877" lon="0.769360">
        <ele>960.008</ele>
        <time>2015-12-19T11:41:20Z</time>
      </trkpt>
      <trkpt lat="41.970844" lon="0.769488">
        <ele>959.058</ele>
        <time>2015-12-19T11:41:22Z</time>
      </trkpt>
      <trkpt lat="41.970797" lon="0.769635">
        <ele>960.078</ele>
        <time>2015-12-19T11:41:24Z</time>
      </trkpt>
      <trkpt lat="41.970776" lon="0.769776">
        <ele>960.064</ele>
        <time>2015-12-19T11:41:26Z</time>
      </trkpt>
      <trkpt lat="41.970779" lon="0.769908">
        <ele>961.088</ele>
        <time>2015-12-19T11:41:28Z</time>
      </trkpt>
      <trkpt lat="41.970797" lon="0.770033">
        <ele>960.082</ele>
        <time>2015-12-19T11:41:30Z</time>
      </trkpt>
      <trkpt lat="41.970823" lon="0.770151">
        <ele>961.030</ele>
        <time>2015-12-19T11:41:32Z</time>
      </trkpt>
      <trkpt lat="41.970852" lon="0.770312">
        <ele>961.046</ele>
        <time>2015-12-19T11:41:35Z</time>
      </trkpt>
      <trkpt lat="41.970858" lon="0.770483">
        <ele>962.036</ele>
        <time>2015-12-19T11:41:38Z</time>
      </trkpt>
      <trkpt lat="41.970873" lon="0.770605">
        <ele>962.048</ele>
        <time>2015-12-19T11:41:40Z</time>
      </trkpt>
      <trkpt lat="41.970899" lon="0.770782">
        <ele>963.061</ele>
        <time>2015-12-19T11:41:43Z</time>
      </trkpt>
      <trkpt lat="41.970931" lon="0.770903">
        <ele>963.017</ele>
        <time>2015-12-19T11:41:45Z</time>
      </trkpt>
      <trkpt lat="41.970946" lon="0.771035">
        <ele>963.008</ele>
        <time>2015-12-19T11:41:47Z</time>
      </trkpt>
      <trkpt lat="41.970950" lon="0.771215">
        <ele>963.075</ele>
        <time>2015-12-19T11:41:50Z</time>
      </trkpt>
      <trkpt lat="41.970963" lon="0.771337">
        <ele>964.075</ele>
        <time>2015-12-19T11:41:52Z</time>
      </trkpt>
      <trkpt lat="41.970962" lon="0.771466">
        <ele>964.051</ele>
        <time>2015-12-19T11:41:54Z</time>
      </trkpt>
      <trkpt lat="41.970960" lon="0.771595">
        <ele>963.075</ele>
        <time>2015-12-19T11:41:56Z</time>
      </trkpt>
      <trkpt lat="41.970944" lon="0.771763">
        <ele>964.029</ele>
        <time>2015-12-19T11:41:59Z</time>
      </trkpt>
      <trkpt lat="41.970937" lon="0.771928">
        <ele>963.087</ele>
        <time>2015-12-19T11:42:02Z</time>
      </trkpt>
      <trkpt lat="41.970951" lon="0.772055">
        <ele>963.033</ele>
        <time>2015-12-19T11:42:04Z</time>
      </trkpt>
      <trkpt lat="41.971006" lon="0.772226">
        <ele>963.043</ele>
        <time>2015-12-19T11:42:07Z</time>
      </trkpt>
      <trkpt lat="41.971056" lon="0.772334">
        <ele>963.082</ele>
        <time>2015-12-19T11:42:09Z</time>
      </trkpt>
      <trkpt lat="41.971101" lon="0.772452">
        <ele>964.043</ele>
        <time>2015-12-19T11:42:11Z</time>
      </trkpt>
      <trkpt lat="41.971143" lon="0.772571">
        <ele>964.017</ele>
        <time>2015-12-19T11:42:13Z</time>
      </trkpt>
      <trkpt lat="41.971190" lon="0.772684">
        <ele>963.008</ele>
        <time>2015-12-19T11:42:15Z</time>
      </trkpt>
      <trkpt lat="41.971225" lon="0.772816">
        <ele>963.099</ele>
        <time>2015-12-19T11:42:17Z</time>
      </trkpt>
      <trkpt lat="41.971262" lon="0.772954">
        <ele>963.039</ele>
        <time>2015-12-19T11:42:19Z</time>
      </trkpt>
      <trkpt lat="41.971305" lon="0.773081">
        <ele>964.095</ele>
        <time>2015-12-19T11:42:20Z</time>
      </trkpt>
      <trkpt lat="41.971348" lon="0.773207">
        <ele>966.019</ele>
        <time>2015-12-19T11:42:22Z</time>
      </trkpt>
      <trkpt lat="41.971386" lon="0.773349">
        <ele>965.033</ele>
        <time>2015-12-19T11:42:24Z</time>
      </trkpt>
      <trkpt lat="41.971445" lon="0.773543">
        <ele>966.051</ele>
        <time>2015-12-19T11:42:27Z</time>
      </trkpt>
      <trkpt lat="41.971509" lon="0.773701">
        <ele>966.097</ele>
        <time>2015-12-19T11:42:30Z</time>
      </trkpt>
      <trkpt lat="41.971568" lon="0.773839">
        <ele>968.067</ele>
        <time>2015-12-19T11:42:33Z</time>
      </trkpt>
      <trkpt lat="41.971615" lon="0.773948">
        <ele>967.036</ele>
        <time>2015-12-19T11:42:35Z</time>
      </trkpt>
      <trkpt lat="41.971657" lon="0.774057">
        <ele>967.017</ele>
        <time>2015-12-19T11:42:38Z</time>
      </trkpt>
      <trkpt lat="41.971699" lon="0.774171">
        <ele>967.018</ele>
        <time>2015-12-19T11:42:40Z</time>
      </trkpt>
      <trkpt lat="41.971761" lon="0.774323">
        <ele>968.008</ele>
        <time>2015-12-19T11:42:43Z</time>
      </trkpt>
      <trkpt lat="41.971810" lon="0.774432">
        <ele>967.034</ele>
        <time>2015-12-19T11:42:45Z</time>
      </trkpt>
      <trkpt lat="41.971853" lon="0.774545">
        <ele>967.014</ele>
        <time>2015-12-19T11:42:47Z</time>
      </trkpt>
      <trkpt lat="41.971890" lon="0.774713">
        <ele>968.030</ele>
        <time>2015-12-19T11:42:50Z</time>
      </trkpt>
      <trkpt lat="41.971891" lon="0.774854">
        <ele>969.054</ele>
        <time>2015-12-19T11:42:53Z</time>
      </trkpt>
      <trkpt lat="41.971880" lon="0.774982">
        <ele>970.018</ele>
        <time>2015-12-19T11:42:56Z</time>
      </trkpt>
      <trkpt lat="41.971902" lon="0.775133">
        <ele>970.056</ele>
        <time>2015-12-19T11:43:00Z</time>
      </trkpt>
      <trkpt lat="41.971914" lon="0.775289">
        <ele>970.022</ele>
        <time>2015-12-19T11:43:04Z</time>
      </trkpt>
      <trkpt lat="41.971939" lon="0.775446">
        <ele>970.012</ele>
        <time>2015-12-19T11:43:08Z</time>
      </trkpt>
      <trkpt lat="41.971970" lon="0.775588">
        <ele>971.031</ele>
        <time>2015-12-19T11:43:12Z</time>
      </trkpt>
      <trkpt lat="41.972014" lon="0.775715">
        <ele>973.061</ele>
        <time>2015-12-19T11:43:17Z</time>
      </trkpt>
      <trkpt lat="41.972081" lon="0.775821">
        <ele>975.007</ele>
        <time>2015-12-19T11:43:22Z</time>
      </trkpt>
      <trkpt lat="41.972153" lon="0.775919">
        <ele>977.008</ele>
        <time>2015-12-19T11:43:27Z</time>
      </trkpt>
      <trkpt lat="41.972221" lon="0.776024">
        <ele>979.054</ele>
        <time>2015-12-19T11:43:32Z</time>
      </trkpt>
      <trkpt lat="41.972285" lon="0.776134">
        <ele>980.034</ele>
        <time>2015-12-19T11:43:37Z</time>
      </trkpt>
      <trkpt lat="41.972353" lon="0.776244">
        <ele>982.060</ele>
        <time>2015-12-19T11:43:42Z</time>
      </trkpt>
      <trkpt lat="41.972427" lon="0.776356">
        <ele>982.034</ele>
        <time>2015-12-19T11:43:47Z</time>
      </trkpt>
      <trkpt lat="41.972498" lon="0.776449">
        <ele>983.018</ele>
        <time>2015-12-19T11:43:51Z</time>
      </trkpt>
      <trkpt lat="41.972581" lon="0.776537">
        <ele>983.056</ele>
        <time>2015-12-19T11:43:55Z</time>
      </trkpt>
      <trkpt lat="41.972658" lon="0.776633">
        <ele>983.042</ele>
        <time>2015-12-19T11:43:59Z</time>
      </trkpt>
      <trkpt lat="41.972715" lon="0.776763">
        <ele>982.012</ele>
        <time>2015-12-19T11:44:03Z</time>
      </trkpt>
      <trkpt lat="41.972762" lon="0.776916">
        <ele>983.029</ele>
        <time>2015-12-19T11:44:06Z</time>
      </trkpt>
      <trkpt lat="41.972793" lon="0.777035">
        <ele>983.000</ele>
        <time>2015-12-19T11:44:09Z</time>
      </trkpt>
      <trkpt lat="41.972824" lon="0.777170">
        <ele>983.020</ele>
        <time>2015-12-19T11:44:12Z</time>
      </trkpt>
      <trkpt lat="41.972850" lon="0.777317">
        <ele>983.008</ele>
        <time>2015-12-19T11:44:15Z</time>
      </trkpt>
      <trkpt lat="41.972868" lon="0.777476">
        <ele>983.063</ele>
        <time>2015-12-19T11:44:18Z</time>
      </trkpt>
      <trkpt lat="41.972878" lon="0.777598">
        <ele>983.043</ele>
        <time>2015-12-19T11:44:20Z</time>
      </trkpt>
      <trkpt lat="41.972886" lon="0.777723">
        <ele>984.069</ele>
        <time>2015-12-19T11:44:22Z</time>
      </trkpt>
      <trkpt lat="41.972881" lon="0.777860">
        <ele>983.043</ele>
        <time>2015-12-19T11:44:24Z</time>
      </trkpt>
      <trkpt lat="41.972863" lon="0.777983">
        <ele>983.057</ele>
        <time>2015-12-19T11:44:27Z</time>
      </trkpt>
      <trkpt lat="41.972830" lon="0.778102">
        <ele>982.095</ele>
        <time>2015-12-19T11:44:29Z</time>
      </trkpt>
      <trkpt lat="41.972782" lon="0.778221">
        <ele>981.051</ele>
        <time>2015-12-19T11:44:31Z</time>
      </trkpt>
      <trkpt lat="41.972724" lon="0.778327">
        <ele>981.091</ele>
        <time>2015-12-19T11:44:33Z</time>
      </trkpt>
      <trkpt lat="41.972662" lon="0.778422">
        <ele>980.029</ele>
        <time>2015-12-19T11:44:35Z</time>
      </trkpt>
      <trkpt lat="41.972593" lon="0.778519">
        <ele>979.000</ele>
        <time>2015-12-19T11:44:37Z</time>
      </trkpt>
      <trkpt lat="41.972521" lon="0.778611">
        <ele>978.020</ele>
        <time>2015-12-19T11:44:39Z</time>
      </trkpt>
      <trkpt lat="41.972454" lon="0.778698">
        <ele>977.008</ele>
        <time>2015-12-19T11:44:41Z</time>
      </trkpt>
      <trkpt lat="41.972382" lon="0.778783">
        <ele>977.063</ele>
        <time>2015-12-19T11:44:43Z</time>
      </trkpt>
      <trkpt lat="41.972312" lon="0.778885">
        <ele>976.033</ele>
        <time>2015-12-19T11:44:45Z</time>
      </trkpt>
      <trkpt lat="41.972245" lon="0.778993">
        <ele>976.029</ele>
        <time>2015-12-19T11:44:47Z</time>
      </trkpt>
      <trkpt lat="41.972192" lon="0.779127">
        <ele>975.053</ele>
        <time>2015-12-19T11:44:49Z</time>
      </trkpt>
      <trkpt lat="41.972145" lon="0.779268">
        <ele>974.027</ele>
        <time>2015-12-19T11:44:51Z</time>
      </trkpt>
      <trkpt lat="41.972106" lon="0.779428">
        <ele>974.025</ele>
        <time>2015-12-19T11:44:53Z</time>
      </trkpt>
      <trkpt lat="41.972074" lon="0.779603">
        <ele>975.081</ele>
        <time>2015-12-19T11:44:55Z</time>
      </trkpt>
      <trkpt lat="41.972047" lon="0.779770">
        <ele>975.041</ele>
        <time>2015-12-19T11:44:57Z</time>
      </trkpt>
      <trkpt lat="41.972037" lon="0.779927">
        <ele>975.047</ele>
        <time>2015-12-19T11:44:59Z</time>
      </trkpt>
      <trkpt lat="41.972029" lon="0.780077">
        <ele>976.029</ele>
        <time>2015-12-19T11:45:01Z</time>
      </trkpt>
      <trkpt lat="41.972034" lon="0.780247">
        <ele>976.021</ele>
        <time>2015-12-19T11:45:03Z</time>
      </trkpt>
      <trkpt lat="41.972044" lon="0.780423">
        <ele>976.008</ele>
        <time>2015-12-19T11:45:05Z</time>
      </trkpt>
      <trkpt lat="41.972023" lon="0.780574">
        <ele>977.095</ele>
        <time>2015-12-19T11:45:07Z</time>
      </trkpt>
      <trkpt lat="41.972006" lon="0.780722">
        <ele>977.095</ele>
        <time>2015-12-19T11:45:09Z</time>
      </trkpt>
      <trkpt lat="41.972002" lon="0.780864">
        <ele>977.041</ele>
        <time>2015-12-19T11:45:11Z</time>
      </trkpt>
      <trkpt lat="41.972019" lon="0.781004">
        <ele>977.015</ele>
        <time>2015-12-19T11:45:13Z</time>
      </trkpt>
      <trkpt lat="41.972045" lon="0.781159">
        <ele>977.099</ele>
        <time>2015-12-19T11:45:15Z</time>
      </trkpt>
      <trkpt lat="41.972057" lon="0.781302">
        <ele>977.037</ele>
        <time>2015-12-19T11:45:17Z</time>
      </trkpt>
      <trkpt lat="41.972050" lon="0.781462">
        <ele>977.073</ele>
        <time>2015-12-19T11:45:19Z</time>
      </trkpt>
      <trkpt lat="41.972035" lon="0.781626">
        <ele>976.093</ele>
        <time>2015-12-19T11:45:21Z</time>
      </trkpt>
      <trkpt lat="41.972034" lon="0.781773">
        <ele>976.091</ele>
        <time>2015-12-19T11:45:23Z</time>
      </trkpt>
      <trkpt lat="41.972025" lon="0.781918">
        <ele>976.081</ele>
        <time>2015-12-19T11:45:25Z</time>
      </trkpt>
      <trkpt lat="41.972015" lon="0.782098">
        <ele>975.019</ele>
        <time>2015-12-19T11:45:28Z</time>
      </trkpt>
      <trkpt lat="41.971970" lon="0.782216">
        <ele>972.008</ele>
        <time>2015-12-19T11:45:30Z</time>
      </trkpt>
      <trkpt lat="41.971929" lon="0.782369">
        <ele>970.090</ele>
        <time>2015-12-19T11:45:32Z</time>
      </trkpt>
      <trkpt lat="41.971910" lon="0.782548">
        <ele>968.080</ele>
        <time>2015-12-19T11:45:34Z</time>
      </trkpt>
      <trkpt lat="41.971904" lon="0.782744">
        <ele>966.026</ele>
        <time>2015-12-19T11:45:36Z</time>
      </trkpt>
      <trkpt lat="41.971896" lon="0.782922">
        <ele>963.070</ele>
        <time>2015-12-19T11:45:38Z</time>
      </trkpt>
      <trkpt lat="41.971888" lon="0.783128">
        <ele>960.064</ele>
        <time>2015-12-19T11:45:40Z</time>
      </trkpt>
      <trkpt lat="41.971886" lon="0.783362">
        <ele>959.012</ele>
        <time>2015-12-19T11:45:42Z</time>
      </trkpt>
      <trkpt lat="41.971888" lon="0.783494">
        <ele>957.038</ele>
        <time>2015-12-19T11:45:43Z</time>
      </trkpt>
      <trkpt lat="41.971902" lon="0.783614">
        <ele>956.068</ele>
        <time>2015-12-19T11:45:44Z</time>
      </trkpt>
      <trkpt lat="41.971903" lon="0.783743">
        <ele>955.062</ele>
        <time>2015-12-19T11:45:45Z</time>
      </trkpt>
      <trkpt lat="41.971912" lon="0.783954">
        <ele>955.083</ele>
        <time>2015-12-19T11:45:47Z</time>
      </trkpt>
      <trkpt lat="41.971893" lon="0.784171">
        <ele>954.011</ele>
        <time>2015-12-19T11:45:49Z</time>
      </trkpt>
      <trkpt lat="41.971869" lon="0.784288">
        <ele>952.008</ele>
        <time>2015-12-19T11:45:50Z</time>
      </trkpt>
      <trkpt lat="41.971785" lon="0.784485">
        <ele>951.057</ele>
        <time>2015-12-19T11:45:52Z</time>
      </trkpt>
      <trkpt lat="41.971671" lon="0.784668">
        <ele>950.057</ele>
        <time>2015-12-19T11:45:53Z</time>
      </trkpt>
      <trkpt lat="41.971575" lon="0.784876">
        <ele>948.073</ele>
        <time>2015-12-19T11:45:55Z</time>
      </trkpt>
      <trkpt lat="41.971511" lon="0.785081">
        <ele>948.017</ele>
        <time>2015-12-19T11:45:57Z</time>
      </trkpt>
      <trkpt lat="41.971450" lon="0.785285">
        <ele>947.081</ele>
        <time>2015-12-19T11:45:59Z</time>
      </trkpt>
      <trkpt lat="41.971417" lon="0.785404">
        <ele>947.039</ele>
        <time>2015-12-19T11:46:00Z</time>
      </trkpt>
      <trkpt lat="41.971351" lon="0.785622">
        <ele>946.085</ele>
        <time>2015-12-19T11:46:02Z</time>
      </trkpt>
      <trkpt lat="41.971314" lon="0.785744">
        <ele>945.055</ele>
        <time>2015-12-19T11:46:03Z</time>
      </trkpt>
      <trkpt lat="41.971234" lon="0.785965">
        <ele>944.047</ele>
        <time>2015-12-19T11:46:05Z</time>
      </trkpt>
      <trkpt lat="41.971192" lon="0.786078">
        <ele>943.029</ele>
        <time>2015-12-19T11:46:07Z</time>
      </trkpt>
      <trkpt lat="41.971100" lon="0.786301">
        <ele>942.021</ele>
        <time>2015-12-19T11:46:08Z</time>
      </trkpt>
      <trkpt lat="41.971017" lon="0.786512">
        <ele>942.008</ele>
        <time>2015-12-19T11:46:10Z</time>
      </trkpt>
      <trkpt lat="41.970932" lon="0.786707">
        <ele>942.035</ele>
        <time>2015-12-19T11:46:12Z</time>
      </trkpt>
      <trkpt lat="41.970868" lon="0.786916">
        <ele>941.035</ele>
        <time>2015-12-19T11:46:15Z</time>
      </trkpt>
      <trkpt lat="41.970846" lon="0.787133">
        <ele>940.031</ele>
        <time>2015-12-19T11:46:17Z</time>
      </trkpt>
      <trkpt lat="41.970845" lon="0.787355">
        <ele>939.095</ele>
        <time>2015-12-19T11:46:19Z</time>
      </trkpt>
      <trkpt lat="41.970841" lon="0.787483">
        <ele>938.079</ele>
        <time>2015-12-19T11:46:20Z</time>
      </trkpt>
      <trkpt lat="41.970841" lon="0.787722">
        <ele>938.067</ele>
        <time>2015-12-19T11:46:22Z</time>
      </trkpt>
      <trkpt lat="41.970843" lon="0.787849">
        <ele>937.073</ele>
        <time>2015-12-19T11:46:23Z</time>
      </trkpt>
      <trkpt lat="41.970850" lon="0.788095">
        <ele>936.033</ele>
        <time>2015-12-19T11:46:25Z</time>
      </trkpt>
      <trkpt lat="41.970840" lon="0.788337">
        <ele>935.073</ele>
        <time>2015-12-19T11:46:27Z</time>
      </trkpt>
      <trkpt lat="41.970824" lon="0.788469">
        <ele>935.085</ele>
        <time>2015-12-19T11:46:28Z</time>
      </trkpt>
      <trkpt lat="41.970797" lon="0.788696">
        <ele>935.013</ele>
        <time>2015-12-19T11:46:30Z</time>
      </trkpt>
      <trkpt lat="41.970811" lon="0.788870">
        <ele>936.008</ele>
        <time>2015-12-19T11:46:32Z</time>
      </trkpt>
      <trkpt lat="41.970845" lon="0.789027">
        <ele>936.098</ele>
        <time>2015-12-19T11:46:34Z</time>
      </trkpt>
      <trkpt lat="41.970893" lon="0.789196">
        <ele>935.078</ele>
        <time>2015-12-19T11:46:36Z</time>
      </trkpt>
      <trkpt lat="41.970963" lon="0.789367">
        <ele>934.074</ele>
        <time>2015-12-19T11:46:38Z</time>
      </trkpt>
      <trkpt lat="41.971017" lon="0.789527">
        <ele>934.098</ele>
        <time>2015-12-19T11:46:40Z</time>
      </trkpt>
      <trkpt lat="41.971066" lon="0.789693">
        <ele>933.042</ele>
        <time>2015-12-19T11:46:42Z</time>
      </trkpt>
      <trkpt lat="41.971098" lon="0.789865">
        <ele>934.030</ele>
        <time>2015-12-19T11:46:44Z</time>
      </trkpt>
      <trkpt lat="41.971119" lon="0.790050">
        <ele>934.056</ele>
        <time>2015-12-19T11:46:46Z</time>
      </trkpt>
      <trkpt lat="41.971117" lon="0.790213">
        <ele>933.016</ele>
        <time>2015-12-19T11:46:48Z</time>
      </trkpt>
      <trkpt lat="41.971106" lon="0.790388">
        <ele>934.058</ele>
        <time>2015-12-19T11:46:50Z</time>
      </trkpt>
      <trkpt lat="41.971097" lon="0.790546">
        <ele>933.052</ele>
        <time>2015-12-19T11:46:52Z</time>
      </trkpt>
      <trkpt lat="41.971080" lon="0.790700">
        <ele>932.017</ele>
        <time>2015-12-19T11:46:54Z</time>
      </trkpt>
      <trkpt lat="41.971047" lon="0.790824">
        <ele>933.008</ele>
        <time>2015-12-19T11:46:56Z</time>
      </trkpt>
      <trkpt lat="41.971013" lon="0.790937">
        <ele>931.036</ele>
        <time>2015-12-19T11:46:58Z</time>
      </trkpt>
      <trkpt lat="41.970965" lon="0.791075">
        <ele>933.026</ele>
        <time>2015-12-19T11:47:01Z</time>
      </trkpt>
      <trkpt lat="41.970921" lon="0.791182">
        <ele>934.012</ele>
        <time>2015-12-19T11:47:04Z</time>
      </trkpt>
      <trkpt lat="41.970875" lon="0.791316">
        <ele>935.036</ele>
        <time>2015-12-19T11:47:07Z</time>
      </trkpt>
      <trkpt lat="41.970827" lon="0.791458">
        <ele>935.020</ele>
        <time>2015-12-19T11:47:10Z</time>
      </trkpt>
      <trkpt lat="41.970768" lon="0.791582">
        <ele>936.038</ele>
        <time>2015-12-19T11:47:13Z</time>
      </trkpt>
      <trkpt lat="41.970691" lon="0.791680">
        <ele>937.024</ele>
        <time>2015-12-19T11:47:16Z</time>
      </trkpt>
      <trkpt lat="41.970610" lon="0.791789">
        <ele>937.084</ele>
        <time>2015-12-19T11:47:20Z</time>
      </trkpt>
      <trkpt lat="41.970545" lon="0.791906">
        <ele>938.077</ele>
        <time>2015-12-19T11:47:24Z</time>
      </trkpt>
      <trkpt lat="41.970515" lon="0.792030">
        <ele>939.061</ele>
        <time>2015-12-19T11:47:28Z</time>
      </trkpt>
      <trkpt lat="41.970502" lon="0.792166">
        <ele>939.027</ele>
        <time>2015-12-19T11:47:32Z</time>
      </trkpt>
      <trkpt lat="41.970494" lon="0.792294">
        <ele>939.008</ele>
        <time>2015-12-19T11:47:36Z</time>
      </trkpt>
      <trkpt lat="41.970452" lon="0.792427">
        <ele>939.088</ele>
        <time>2015-12-19T11:47:40Z</time>
      </trkpt>
      <trkpt lat="41.970419" lon="0.792560">
        <ele>941.038</ele>
        <time>2015-12-19T11:47:46Z</time>
      </trkpt>
      <trkpt lat="41.970375" lon="0.792684">
        <ele>942.064</ele>
        <time>2015-12-19T11:47:50Z</time>
      </trkpt>
      <trkpt lat="41.970334" lon="0.792806">
        <ele>942.058</ele>
        <time>2015-12-19T11:47:53Z</time>
      </trkpt>
      <trkpt lat="41.970286" lon="0.792940">
        <ele>942.022</ele>
        <time>2015-12-19T11:47:58Z</time>
      </trkpt>
      <trkpt lat="41.970266" lon="0.793079">
        <ele>943.040</ele>
        <time>2015-12-19T11:48:02Z</time>
      </trkpt>
      <trkpt lat="41.970265" lon="0.793207">
        <ele>943.016</ele>
        <time>2015-12-19T11:48:05Z</time>
      </trkpt>
      <trkpt lat="41.970257" lon="0.793338">
        <ele>943.026</ele>
        <time>2015-12-19T11:48:09Z</time>
      </trkpt>
      <trkpt lat="41.970237" lon="0.793495">
        <ele>942.044</ele>
        <time>2015-12-19T11:48:12Z</time>
      </trkpt>
      <trkpt lat="41.970214" lon="0.793660">
        <ele>943.005</ele>
        <time>2015-12-19T11:48:15Z</time>
      </trkpt>
      <trkpt lat="41.970199" lon="0.793818">
        <ele>943.015</ele>
        <time>2015-12-19T11:48:18Z</time>
      </trkpt>
      <trkpt lat="41.970182" lon="0.793945">
        <ele>943.008</ele>
        <time>2015-12-19T11:48:21Z</time>
      </trkpt>
      <trkpt lat="41.970151" lon="0.794060">
        <ele>943.095</ele>
        <time>2015-12-19T11:48:24Z</time>
      </trkpt>
      <trkpt lat="41.970101" lon="0.794162">
        <ele>942.095</ele>
        <time>2015-12-19T11:48:28Z</time>
      </trkpt>
      <trkpt lat="41.970001" lon="0.794190">
        <ele>943.061</ele>
        <time>2015-12-19T11:48:33Z</time>
      </trkpt>
      <trkpt lat="41.969927" lon="0.794104">
        <ele>944.045</ele>
        <time>2015-12-19T11:48:38Z</time>
      </trkpt>
      <trkpt lat="41.969832" lon="0.794073">
        <ele>945.069</ele>
        <time>2015-12-19T11:48:44Z</time>
      </trkpt>
      <trkpt lat="41.969853" lon="0.793942">
        <ele>942.097</ele>
        <time>2015-12-19T11:50:45Z</time>
      </trkpt>
      <trkpt lat="41.969883" lon="0.793827">
        <ele>943.093</ele>
        <time>2015-12-19T11:50:52Z</time>
      </trkpt>
      <trkpt lat="41.969916" lon="0.793710">
        <ele>943.023</ele>
        <time>2015-12-19T11:51:01Z</time>
      </trkpt>
      <trkpt lat="41.969922" lon="0.793582">
        <ele>944.087</ele>
        <time>2015-12-19T11:51:11Z</time>
      </trkpt>
      <trkpt lat="41.969957" lon="0.793463">
        <ele>944.042</ele>
        <time>2015-12-19T11:51:20Z</time>
      </trkpt>
      <trkpt lat="41.969995" lon="0.793345">
        <ele>944.026</ele>
        <time>2015-12-19T11:51:29Z</time>
      </trkpt>
      <trkpt lat="41.970042" lon="0.793229">
        <ele>946.008</ele>
        <time>2015-12-19T11:51:40Z</time>
      </trkpt>
      <trkpt lat="41.970072" lon="0.793109">
        <ele>947.089</ele>
        <time>2015-12-19T11:51:51Z</time>
      </trkpt>
      <trkpt lat="41.970079" lon="0.792989">
        <ele>946.069</ele>
        <time>2015-12-19T11:52:00Z</time>
      </trkpt>
      <trkpt lat="41.970060" lon="0.792871">
        <ele>944.075</ele>
        <time>2015-12-19T11:52:08Z</time>
      </trkpt>
      <trkpt lat="41.969985" lon="0.792785">
        <ele>944.059</ele>
        <time>2015-12-19T11:52:17Z</time>
      </trkpt>
      <trkpt lat="41.969905" lon="0.792710">
        <ele>946.073</ele>
        <time>2015-12-19T11:52:24Z</time>
      </trkpt>
      <trkpt lat="41.969991" lon="0.792773">
        <ele>948.041</ele>
        <time>2015-12-19T11:54:35Z</time>
      </trkpt>
      <trkpt lat="41.970063" lon="0.792848">
        <ele>945.087</ele>
        <time>2015-12-19T11:54:44Z</time>
      </trkpt>
      <trkpt lat="41.970090" lon="0.792973">
        <ele>948.067</ele>
        <time>2015-12-19T11:54:53Z</time>
      </trkpt>
      <trkpt lat="41.970091" lon="0.793108">
        <ele>948.044</ele>
        <time>2015-12-19T11:55:02Z</time>
      </trkpt>
      <trkpt lat="41.970078" lon="0.793231">
        <ele>947.005</ele>
        <time>2015-12-19T11:55:10Z</time>
      </trkpt>
      <trkpt lat="41.970031" lon="0.793346">
        <ele>944.015</ele>
        <time>2015-12-19T11:55:20Z</time>
      </trkpt>
      <trkpt lat="41.969977" lon="0.793460">
        <ele>944.008</ele>
        <time>2015-12-19T11:55:28Z</time>
      </trkpt>
      <trkpt lat="41.969950" lon="0.793604">
        <ele>947.065</ele>
        <time>2015-12-19T11:55:37Z</time>
      </trkpt>
      <trkpt lat="41.969952" lon="0.793733">
        <ele>949.065</ele>
        <time>2015-12-19T11:55:45Z</time>
      </trkpt>
      <trkpt lat="41.969912" lon="0.793845">
        <ele>948.031</ele>
        <time>2015-12-19T11:55:53Z</time>
      </trkpt>
      <trkpt lat="41.969900" lon="0.793965">
        <ele>948.035</ele>
        <time>2015-12-19T11:56:02Z</time>
      </trkpt>
      <trkpt lat="41.969843" lon="0.794061">
        <ele>944.039</ele>
        <time>2015-12-19T11:56:24Z</time>
      </trkpt>
      <trkpt lat="41.969935" lon="0.794122">
        <ele>943.097</ele>
        <time>2015-12-19T11:56:38Z</time>
      </trkpt>
      <trkpt lat="41.970028" lon="0.794191">
        <ele>941.023</ele>
        <time>2015-12-19T11:56:44Z</time>
      </trkpt>
      <trkpt lat="41.970133" lon="0.794163">
        <ele>941.093</ele>
        <time>2015-12-19T11:56:49Z</time>
      </trkpt>
      <trkpt lat="41.970179" lon="0.794053">
        <ele>941.042</ele>
        <time>2015-12-19T11:56:52Z</time>
      </trkpt>
      <trkpt lat="41.970206" lon="0.793921">
        <ele>940.022</ele>
        <time>2015-12-19T11:56:55Z</time>
      </trkpt>
      <trkpt lat="41.970214" lon="0.793783">
        <ele>940.014</ele>
        <time>2015-12-19T11:56:58Z</time>
      </trkpt>
      <trkpt lat="41.970211" lon="0.793640">
        <ele>941.008</ele>
        <time>2015-12-19T11:57:01Z</time>
      </trkpt>
      <trkpt lat="41.970233" lon="0.793508">
        <ele>941.025</ele>
        <time>2015-12-19T11:57:04Z</time>
      </trkpt>
      <trkpt lat="41.970250" lon="0.793386">
        <ele>942.035</ele>
        <time>2015-12-19T11:57:08Z</time>
      </trkpt>
      <trkpt lat="41.970265" lon="0.793263">
        <ele>943.051</ele>
        <time>2015-12-19T11:57:14Z</time>
      </trkpt>
      <trkpt lat="41.970267" lon="0.793126">
        <ele>943.085</ele>
        <time>2015-12-19T11:57:19Z</time>
      </trkpt>
      <trkpt lat="41.970279" lon="0.793003">
        <ele>943.079</ele>
        <time>2015-12-19T11:57:23Z</time>
      </trkpt>
      <trkpt lat="41.970301" lon="0.792864">
        <ele>942.087</ele>
        <time>2015-12-19T11:57:26Z</time>
      </trkpt>
      <trkpt lat="41.970372" lon="0.792688">
        <ele>941.013</ele>
        <time>2015-12-19T11:57:28Z</time>
      </trkpt>
      <trkpt lat="41.970444" lon="0.792476">
        <ele>941.083</ele>
        <time>2015-12-19T11:57:31Z</time>
      </trkpt>
      <trkpt lat="41.970483" lon="0.792321">
        <ele>940.076</ele>
        <time>2015-12-19T11:57:33Z</time>
      </trkpt>
      <trkpt lat="41.970509" lon="0.792164">
        <ele>941.090</ele>
        <time>2015-12-19T11:57:35Z</time>
      </trkpt>
      <trkpt lat="41.970532" lon="0.792007">
        <ele>940.019</ele>
        <time>2015-12-19T11:57:37Z</time>
      </trkpt>
      <trkpt lat="41.970581" lon="0.791866">
        <ele>940.008</ele>
        <time>2015-12-19T11:57:39Z</time>
      </trkpt>
      <trkpt lat="41.970656" lon="0.791740">
        <ele>938.028</ele>
        <time>2015-12-19T11:57:42Z</time>
      </trkpt>
      <trkpt lat="41.970747" lon="0.791624">
        <ele>938.088</ele>
        <time>2015-12-19T11:57:44Z</time>
      </trkpt>
      <trkpt lat="41.970844" lon="0.791475">
        <ele>938.074</ele>
        <time>2015-12-19T11:57:46Z</time>
      </trkpt>
      <trkpt lat="41.970909" lon="0.791285">
        <ele>937.098</ele>
        <time>2015-12-19T11:57:48Z</time>
      </trkpt>
      <trkpt lat="41.970954" lon="0.791122">
        <ele>936.032</ele>
        <time>2015-12-19T11:57:50Z</time>
      </trkpt>
      <trkpt lat="41.971000" lon="0.790961">
        <ele>935.020</ele>
        <time>2015-12-19T11:57:52Z</time>
      </trkpt>
      <trkpt lat="41.971036" lon="0.790824">
        <ele>934.016</ele>
        <time>2015-12-19T11:57:54Z</time>
      </trkpt>
      <trkpt lat="41.971070" lon="0.790676">
        <ele>934.016</ele>
        <time>2015-12-19T11:57:58Z</time>
      </trkpt>
      <trkpt lat="41.971097" lon="0.790523">
        <ele>934.079</ele>
        <time>2015-12-19T11:58:01Z</time>
      </trkpt>
      <trkpt lat="41.971103" lon="0.790348">
        <ele>934.005</ele>
        <time>2015-12-19T11:58:04Z</time>
      </trkpt>
      <trkpt lat="41.971107" lon="0.790174">
        <ele>934.025</ele>
        <time>2015-12-19T11:58:07Z</time>
      </trkpt>
      <trkpt lat="41.971114" lon="0.790008">
        <ele>934.008</ele>
        <time>2015-12-19T11:58:10Z</time>
      </trkpt>
      <trkpt lat="41.971103" lon="0.789860">
        <ele>934.088</ele>
        <time>2015-12-19T11:58:13Z</time>
      </trkpt>
      <trkpt lat="41.971078" lon="0.789725">
        <ele>933.058</ele>
        <time>2015-12-19T11:58:16Z</time>
      </trkpt>
      <trkpt lat="41.971047" lon="0.789594">
        <ele>933.094</ele>
        <time>2015-12-19T11:58:19Z</time>
      </trkpt>
      <trkpt lat="41.971004" lon="0.789476">
        <ele>934.078</ele>
        <time>2015-12-19T11:58:22Z</time>
      </trkpt>
      <trkpt lat="41.970947" lon="0.789344">
        <ele>934.072</ele>
        <time>2015-12-19T11:58:26Z</time>
      </trkpt>
      <trkpt lat="41.970888" lon="0.789208">
        <ele>934.090</ele>
        <time>2015-12-19T11:58:30Z</time>
      </trkpt>
      <trkpt lat="41.970843" lon="0.789067">
        <ele>935.076</ele>
        <time>2015-12-19T11:58:34Z</time>
      </trkpt>
      <trkpt lat="41.970815" lon="0.788940">
        <ele>936.026</ele>
        <time>2015-12-19T11:58:38Z</time>
      </trkpt>
      <trkpt lat="41.970787" lon="0.788809">
        <ele>936.087</ele>
        <time>2015-12-19T11:58:43Z</time>
      </trkpt>
      <trkpt lat="41.970702" lon="0.788727">
        <ele>937.042</ele>
        <time>2015-12-19T11:58:47Z</time>
      </trkpt>
      <trkpt lat="41.970615" lon="0.788650">
        <ele>936.026</ele>
        <time>2015-12-19T11:58:50Z</time>
      </trkpt>
      <trkpt lat="41.970501" lon="0.788580">
        <ele>935.008</ele>
        <time>2015-12-19T11:58:53Z</time>
      </trkpt>
      <trkpt lat="41.970398" lon="0.788552">
        <ele>934.019</ele>
        <time>2015-12-19T12:00:34Z</time>
      </trkpt>
      <trkpt lat="41.970274" lon="0.788434">
        <ele>932.049</ele>
        <time>2015-12-19T12:00:37Z</time>
      </trkpt>
      <trkpt lat="41.970151" lon="0.788379">
        <ele>930.015</ele>
        <time>2015-12-19T12:00:39Z</time>
      </trkpt>
      <trkpt lat="41.970013" lon="0.788339">
        <ele>928.069</ele>
        <time>2015-12-19T12:00:41Z</time>
      </trkpt>
      <trkpt lat="41.969888" lon="0.788280">
        <ele>928.033</ele>
        <time>2015-12-19T12:00:43Z</time>
      </trkpt>
      <trkpt lat="41.969762" lon="0.788214">
        <ele>927.051</ele>
        <time>2015-12-19T12:00:45Z</time>
      </trkpt>
      <trkpt lat="41.969657" lon="0.788114">
        <ele>928.027</ele>
        <time>2015-12-19T12:00:47Z</time>
      </trkpt>
      <trkpt lat="41.969578" lon="0.787984">
        <ele>928.057</ele>
        <time>2015-12-19T12:00:49Z</time>
      </trkpt>
      <trkpt lat="41.969514" lon="0.787857">
        <ele>928.096</ele>
        <time>2015-12-19T12:00:51Z</time>
      </trkpt>
      <trkpt lat="41.969452" lon="0.787754">
        <ele>928.031</ele>
        <time>2015-12-19T12:00:53Z</time>
      </trkpt>
      <trkpt lat="41.969374" lon="0.787650">
        <ele>928.024</ele>
        <time>2015-12-19T12:00:55Z</time>
      </trkpt>
      <trkpt lat="41.969289" lon="0.787532">
        <ele>926.008</ele>
        <time>2015-12-19T12:00:57Z</time>
      </trkpt>
      <trkpt lat="41.969184" lon="0.787414">
        <ele>925.050</ele>
        <time>2015-12-19T12:00:59Z</time>
      </trkpt>
      <trkpt lat="41.969070" lon="0.787290">
        <ele>924.060</ele>
        <time>2015-12-19T12:01:01Z</time>
      </trkpt>
      <trkpt lat="41.968961" lon="0.787138">
        <ele>923.086</ele>
        <time>2015-12-19T12:01:03Z</time>
      </trkpt>
      <trkpt lat="41.968868" lon="0.786979">
        <ele>922.040</ele>
        <time>2015-12-19T12:01:05Z</time>
      </trkpt>
      <trkpt lat="41.968773" lon="0.786846">
        <ele>921.024</ele>
        <time>2015-12-19T12:01:07Z</time>
      </trkpt>
      <trkpt lat="41.968656" lon="0.786649">
        <ele>919.082</ele>
        <time>2015-12-19T12:01:09Z</time>
      </trkpt>
      <trkpt lat="41.968555" lon="0.786630">
        <ele>918.018</ele>
        <time>2015-12-19T12:01:12Z</time>
      </trkpt>
      <trkpt lat="41.968549" lon="0.786754">
        <ele>917.068</ele>
        <time>2015-12-19T12:01:17Z</time>
      </trkpt>
      <trkpt lat="41.968622" lon="0.786864">
        <ele>918.032</ele>
        <time>2015-12-19T12:01:20Z</time>
      </trkpt>
      <trkpt lat="41.968718" lon="0.786998">
        <ele>918.092</ele>
        <time>2015-12-19T12:01:23Z</time>
      </trkpt>
      <trkpt lat="41.968810" lon="0.787124">
        <ele>919.011</ele>
        <time>2015-12-19T12:01:26Z</time>
      </trkpt>
      <trkpt lat="41.968877" lon="0.787262">
        <ele>920.008</ele>
        <time>2015-12-19T12:01:29Z</time>
      </trkpt>
      <trkpt lat="41.968944" lon="0.787409">
        <ele>919.034</ele>
        <time>2015-12-19T12:01:32Z</time>
      </trkpt>
      <trkpt lat="41.968985" lon="0.787539">
        <ele>918.064</ele>
        <time>2015-12-19T12:01:34Z</time>
      </trkpt>
      <trkpt lat="41.969035" lon="0.787664">
        <ele>918.080</ele>
        <time>2015-12-19T12:01:36Z</time>
      </trkpt>
      <trkpt lat="41.969104" lon="0.787788">
        <ele>918.064</ele>
        <time>2015-12-19T12:01:38Z</time>
      </trkpt>
      <trkpt lat="41.969170" lon="0.787936">
        <ele>917.058</ele>
        <time>2015-12-19T12:01:40Z</time>
      </trkpt>
      <trkpt lat="41.969220" lon="0.788081">
        <ele>917.066</ele>
        <time>2015-12-19T12:01:42Z</time>
      </trkpt>
      <trkpt lat="41.969261" lon="0.788222">
        <ele>917.072</ele>
        <time>2015-12-19T12:01:44Z</time>
      </trkpt>
      <trkpt lat="41.969293" lon="0.788376">
        <ele>917.042</ele>
        <time>2015-12-19T12:01:46Z</time>
      </trkpt>
      <trkpt lat="41.969340" lon="0.788517">
        <ele>918.086</ele>
        <time>2015-12-19T12:01:48Z</time>
      </trkpt>
      <trkpt lat="41.969381" lon="0.788628">
        <ele>918.060</ele>
        <time>2015-12-19T12:01:50Z</time>
      </trkpt>
      <trkpt lat="41.969373" lon="0.788778">
        <ele>917.026</ele>
        <time>2015-12-19T12:01:52Z</time>
      </trkpt>
      <trkpt lat="41.969338" lon="0.788943">
        <ele>916.008</ele>
        <time>2015-12-19T12:01:54Z</time>
      </trkpt>
      <trkpt lat="41.969306" lon="0.789113">
        <ele>915.089</ele>
        <time>2015-12-19T12:01:56Z</time>
      </trkpt>
      <trkpt lat="41.969271" lon="0.789298">
        <ele>914.019</ele>
        <time>2015-12-19T12:01:58Z</time>
      </trkpt>
      <trkpt lat="41.969238" lon="0.789463">
        <ele>914.035</ele>
        <time>2015-12-19T12:02:00Z</time>
      </trkpt>
      <trkpt lat="41.969205" lon="0.789626">
        <ele>914.039</ele>
        <time>2015-12-19T12:02:02Z</time>
      </trkpt>
      <trkpt lat="41.969174" lon="0.789795">
        <ele>914.083</ele>
        <time>2015-12-19T12:02:04Z</time>
      </trkpt>
      <trkpt lat="41.969147" lon="0.789968">
        <ele>912.091</ele>
        <time>2015-12-19T12:02:06Z</time>
      </trkpt>
      <trkpt lat="41.969105" lon="0.790128">
        <ele>912.097</ele>
        <time>2015-12-19T12:02:08Z</time>
      </trkpt>
      <trkpt lat="41.969065" lon="0.790301">
        <ele>911.097</ele>
        <time>2015-12-19T12:02:10Z</time>
      </trkpt>
      <trkpt lat="41.969032" lon="0.790494">
        <ele>910.092</ele>
        <time>2015-12-19T12:02:12Z</time>
      </trkpt>
      <trkpt lat="41.969003" lon="0.790678">
        <ele>910.073</ele>
        <time>2015-12-19T12:02:14Z</time>
      </trkpt>
      <trkpt lat="41.968990" lon="0.790852">
        <ele>909.020</ele>
        <time>2015-12-19T12:02:16Z</time>
      </trkpt>
      <trkpt lat="41.968972" lon="0.791047">
        <ele>908.008</ele>
        <time>2015-12-19T12:02:18Z</time>
      </trkpt>
      <trkpt lat="41.968949" lon="0.791250">
        <ele>908.040</ele>
        <time>2015-12-19T12:02:20Z</time>
      </trkpt>
      <trkpt lat="41.968910" lon="0.791435">
        <ele>908.010</ele>
        <time>2015-12-19T12:02:22Z</time>
      </trkpt>
      <trkpt lat="41.968866" lon="0.791607">
        <ele>907.076</ele>
        <time>2015-12-19T12:02:24Z</time>
      </trkpt>
      <trkpt lat="41.968830" lon="0.791778">
        <ele>907.020</ele>
        <time>2015-12-19T12:02:26Z</time>
      </trkpt>
      <trkpt lat="41.968808" lon="0.791946">
        <ele>908.074</ele>
        <time>2015-12-19T12:02:28Z</time>
      </trkpt>
      <trkpt lat="41.968791" lon="0.792090">
        <ele>907.022</ele>
        <time>2015-12-19T12:02:30Z</time>
      </trkpt>
      <trkpt lat="41.968762" lon="0.792243">
        <ele>907.078</ele>
        <time>2015-12-19T12:02:32Z</time>
      </trkpt>
      <trkpt lat="41.968730" lon="0.792466">
        <ele>907.018</ele>
        <time>2015-12-19T12:02:34Z</time>
      </trkpt>
      <trkpt lat="41.968722" lon="0.792604">
        <ele>907.084</ele>
        <time>2015-12-19T12:02:36Z</time>
      </trkpt>
      <trkpt lat="41.968723" lon="0.792751">
        <ele>906.007</ele>
        <time>2015-12-19T12:02:38Z</time>
      </trkpt>
      <trkpt lat="41.968704" lon="0.792884">
        <ele>906.017</ele>
        <time>2015-12-19T12:02:40Z</time>
      </trkpt>
      <trkpt lat="41.968678" lon="0.793022">
        <ele>905.008</ele>
        <time>2015-12-19T12:02:42Z</time>
      </trkpt>
      <trkpt lat="41.968663" lon="0.793185">
        <ele>905.079</ele>
        <time>2015-12-19T12:02:45Z</time>
      </trkpt>
      <trkpt lat="41.968665" lon="0.793359">
        <ele>905.049</ele>
        <time>2015-12-19T12:02:47Z</time>
      </trkpt>
      <trkpt lat="41.968679" lon="0.793502">
        <ele>905.025</ele>
        <time>2015-12-19T12:02:49Z</time>
      </trkpt>
      <trkpt lat="41.968697" lon="0.793637">
        <ele>905.089</ele>
        <time>2015-12-19T12:02:51Z</time>
      </trkpt>
      <trkpt lat="41.968725" lon="0.793784">
        <ele>905.083</ele>
        <time>2015-12-19T12:02:53Z</time>
      </trkpt>
      <trkpt lat="41.968760" lon="0.793935">
        <ele>906.041</ele>
        <time>2015-12-19T12:02:55Z</time>
      </trkpt>
      <trkpt lat="41.968804" lon="0.794088">
        <ele>906.097</ele>
        <time>2015-12-19T12:02:57Z</time>
      </trkpt>
      <trkpt lat="41.968830" lon="0.794251">
        <ele>906.057</ele>
        <time>2015-12-19T12:02:59Z</time>
      </trkpt>
      <trkpt lat="41.968848" lon="0.794419">
        <ele>907.016</ele>
        <time>2015-12-19T12:03:01Z</time>
      </trkpt>
      <trkpt lat="41.968841" lon="0.794594">
        <ele>905.076</ele>
        <time>2015-12-19T12:03:03Z</time>
      </trkpt>
      <trkpt lat="41.968818" lon="0.794758">
        <ele>905.013</ele>
        <time>2015-12-19T12:03:05Z</time>
      </trkpt>
      <trkpt lat="41.968791" lon="0.794923">
        <ele>904.008</ele>
        <time>2015-12-19T12:03:07Z</time>
      </trkpt>
      <trkpt lat="41.968750" lon="0.795074">
        <ele>904.082</ele>
        <time>2015-12-19T12:03:09Z</time>
      </trkpt>
      <trkpt lat="41.968700" lon="0.795227">
        <ele>902.012</ele>
        <time>2015-12-19T12:03:11Z</time>
      </trkpt>
      <trkpt lat="41.968655" lon="0.795377">
        <ele>902.028</ele>
        <time>2015-12-19T12:03:13Z</time>
      </trkpt>
      <trkpt lat="41.968607" lon="0.795539">
        <ele>901.092</ele>
        <time>2015-12-19T12:03:15Z</time>
      </trkpt>
      <trkpt lat="41.968543" lon="0.795708">
        <ele>899.036</ele>
        <time>2015-12-19T12:03:17Z</time>
      </trkpt>
      <trkpt lat="41.968499" lon="0.795880">
        <ele>899.064</ele>
        <time>2015-12-19T12:03:19Z</time>
      </trkpt>
      <trkpt lat="41.968476" lon="0.796037">
        <ele>899.060</ele>
        <time>2015-12-19T12:03:21Z</time>
      </trkpt>
      <trkpt lat="41.968443" lon="0.796165">
        <ele>899.050</ele>
        <time>2015-12-19T12:03:23Z</time>
      </trkpt>
      <trkpt lat="41.968370" lon="0.796288">
        <ele>899.095</ele>
        <time>2015-12-19T12:03:25Z</time>
      </trkpt>
      <trkpt lat="41.968285" lon="0.796410">
        <ele>898.049</ele>
        <time>2015-12-19T12:03:27Z</time>
      </trkpt>
      <trkpt lat="41.968201" lon="0.796544">
        <ele>898.023</ele>
        <time>2015-12-19T12:03:29Z</time>
      </trkpt>
      <trkpt lat="41.968144" lon="0.796682">
        <ele>898.008</ele>
        <time>2015-12-19T12:03:31Z</time>
      </trkpt>
      <trkpt lat="41.968092" lon="0.796819">
        <ele>898.050</ele>
        <time>2015-12-19T12:03:33Z</time>
      </trkpt>
      <trkpt lat="41.968033" lon="0.796964">
        <ele>898.090</ele>
        <time>2015-12-19T12:03:35Z</time>
      </trkpt>
      <trkpt lat="41.967958" lon="0.797109">
        <ele>896.086</ele>
        <time>2015-12-19T12:03:37Z</time>
      </trkpt>
      <trkpt lat="41.967859" lon="0.797226">
        <ele>893.050</ele>
        <time>2015-12-19T12:03:39Z</time>
      </trkpt>
      <trkpt lat="41.967734" lon="0.797350">
        <ele>891.044</ele>
        <time>2015-12-19T12:03:41Z</time>
      </trkpt>
      <trkpt lat="41.967656" lon="0.797418">
        <ele>889.032</ele>
        <time>2015-12-19T12:03:42Z</time>
      </trkpt>
      <trkpt lat="41.967514" lon="0.797546">
        <ele>887.038</ele>
        <time>2015-12-19T12:03:44Z</time>
      </trkpt>
      <trkpt lat="41.967388" lon="0.797679">
        <ele>885.048</ele>
        <time>2015-12-19T12:03:46Z</time>
      </trkpt>
      <trkpt lat="41.967265" lon="0.797777">
        <ele>884.024</ele>
        <time>2015-12-19T12:03:48Z</time>
      </trkpt>
      <trkpt lat="41.967150" lon="0.797849">
        <ele>883.004</ele>
        <time>2015-12-19T12:03:50Z</time>
      </trkpt>
      <trkpt lat="41.967053" lon="0.797902">
        <ele>882.014</ele>
        <time>2015-12-19T12:03:52Z</time>
      </trkpt>
      <trkpt lat="41.966961" lon="0.798000">
        <ele>882.008</ele>
        <time>2015-12-19T12:03:54Z</time>
      </trkpt>
      <trkpt lat="41.966876" lon="0.798145">
        <ele>880.043</ele>
        <time>2015-12-19T12:03:56Z</time>
      </trkpt>
      <trkpt lat="41.966831" lon="0.798317">
        <ele>879.073</ele>
        <time>2015-12-19T12:03:58Z</time>
      </trkpt>
      <trkpt lat="41.966810" lon="0.798489">
        <ele>879.019</ele>
        <time>2015-12-19T12:04:00Z</time>
      </trkpt>
      <trkpt lat="41.966813" lon="0.798655">
        <ele>879.083</ele>
        <time>2015-12-19T12:04:02Z</time>
      </trkpt>
      <trkpt lat="41.966827" lon="0.798827">
        <ele>879.077</ele>
        <time>2015-12-19T12:04:04Z</time>
      </trkpt>
      <trkpt lat="41.966846" lon="0.798999">
        <ele>879.055</ele>
        <time>2015-12-19T12:04:06Z</time>
      </trkpt>
      <trkpt lat="41.966862" lon="0.799164">
        <ele>879.091</ele>
        <time>2015-12-19T12:04:08Z</time>
      </trkpt>
      <trkpt lat="41.966882" lon="0.799422">
        <ele>878.051</ele>
        <time>2015-12-19T12:04:10Z</time>
      </trkpt>
      <trkpt lat="41.966899" lon="0.799604">
        <ele>877.038</ele>
        <time>2015-12-19T12:04:12Z</time>
      </trkpt>
      <trkpt lat="41.966949" lon="0.799787">
        <ele>876.070</ele>
        <time>2015-12-19T12:04:14Z</time>
      </trkpt>
      <trkpt lat="41.967002" lon="0.799961">
        <ele>876.017</ele>
        <time>2015-12-19T12:04:16Z</time>
      </trkpt>
      <trkpt lat="41.967054" lon="0.800139">
        <ele>877.008</ele>
        <time>2015-12-19T12:04:19Z</time>
      </trkpt>
      <trkpt lat="41.967102" lon="0.800322">
        <ele>876.034</ele>
        <time>2015-12-19T12:04:21Z</time>
      </trkpt>
      <trkpt lat="41.967156" lon="0.800528">
        <ele>875.034</ele>
        <time>2015-12-19T12:04:23Z</time>
      </trkpt>
      <trkpt lat="41.967209" lon="0.800715">
        <ele>874.070</ele>
        <time>2015-12-19T12:04:25Z</time>
      </trkpt>
      <trkpt lat="41.967245" lon="0.800899">
        <ele>875.074</ele>
        <time>2015-12-19T12:04:27Z</time>
      </trkpt>
      <trkpt lat="41.967258" lon="0.801081">
        <ele>873.068</ele>
        <time>2015-12-19T12:04:29Z</time>
      </trkpt>
      <trkpt lat="41.967259" lon="0.801271">
        <ele>872.056</ele>
        <time>2015-12-19T12:04:31Z</time>
      </trkpt>
      <trkpt lat="41.967262" lon="0.801437">
        <ele>871.052</ele>
        <time>2015-12-19T12:04:33Z</time>
      </trkpt>
      <trkpt lat="41.967254" lon="0.801581">
        <ele>871.052</ele>
        <time>2015-12-19T12:04:35Z</time>
      </trkpt>
      <trkpt lat="41.967231" lon="0.801738">
        <ele>870.037</ele>
        <time>2015-12-19T12:04:37Z</time>
      </trkpt>
      <trkpt lat="41.967213" lon="0.801914">
        <ele>868.049</ele>
        <time>2015-12-19T12:04:39Z</time>
      </trkpt>
      <trkpt lat="41.967192" lon="0.802075">
        <ele>866.013</ele>
        <time>2015-12-19T12:04:41Z</time>
      </trkpt>
      <trkpt lat="41.967169" lon="0.802231">
        <ele>864.008</ele>
        <time>2015-12-19T12:04:43Z</time>
      </trkpt>
      <trkpt lat="41.967144" lon="0.802392">
        <ele>862.024</ele>
        <time>2015-12-19T12:04:45Z</time>
      </trkpt>
      <trkpt lat="41.967097" lon="0.802550">
        <ele>859.074</ele>
        <time>2015-12-19T12:04:47Z</time>
      </trkpt>
      <trkpt lat="41.967030" lon="0.802702">
        <ele>858.090</ele>
        <time>2015-12-19T12:04:49Z</time>
      </trkpt>
      <trkpt lat="41.966948" lon="0.802831">
        <ele>856.074</ele>
        <time>2015-12-19T12:04:51Z</time>
      </trkpt>
      <trkpt lat="41.966871" lon="0.802920">
        <ele>854.088</ele>
        <time>2015-12-19T12:04:53Z</time>
      </trkpt>
      <trkpt lat="41.966775" lon="0.802953">
        <ele>852.026</ele>
        <time>2015-12-19T12:04:55Z</time>
      </trkpt>
      <trkpt lat="41.966656" lon="0.802980">
        <ele>849.072</ele>
        <time>2015-12-19T12:04:57Z</time>
      </trkpt>
      <trkpt lat="41.966537" lon="0.803002">
        <ele>847.012</ele>
        <time>2015-12-19T12:04:59Z</time>
      </trkpt>
      <trkpt lat="41.966421" lon="0.803016">
        <ele>845.026</ele>
        <time>2015-12-19T12:05:01Z</time>
      </trkpt>
      <trkpt lat="41.966302" lon="0.803039">
        <ele>842.047</ele>
        <time>2015-12-19T12:05:03Z</time>
      </trkpt>
      <trkpt lat="41.966194" lon="0.803068">
        <ele>841.011</ele>
        <time>2015-12-19T12:05:05Z</time>
      </trkpt>
      <trkpt lat="41.966085" lon="0.803085">
        <ele>839.008</ele>
        <time>2015-12-19T12:05:07Z</time>
      </trkpt>
      <trkpt lat="41.965965" lon="0.803077">
        <ele>838.083</ele>
        <time>2015-12-19T12:05:09Z</time>
      </trkpt>
      <trkpt lat="41.965852" lon="0.802997">
        <ele>836.013</ele>
        <time>2015-12-19T12:05:11Z</time>
      </trkpt>
      <trkpt lat="41.965772" lon="0.802877">
        <ele>836.099</ele>
        <time>2015-12-19T12:05:13Z</time>
      </trkpt>
      <trkpt lat="41.965720" lon="0.802739">
        <ele>835.023</ele>
        <time>2015-12-19T12:05:15Z</time>
      </trkpt>
      <trkpt lat="41.965694" lon="0.802568">
        <ele>834.097</ele>
        <time>2015-12-19T12:05:17Z</time>
      </trkpt>
      <trkpt lat="41.965677" lon="0.802396">
        <ele>834.065</ele>
        <time>2015-12-19T12:05:19Z</time>
      </trkpt>
      <trkpt lat="41.965650" lon="0.802244">
        <ele>833.051</ele>
        <time>2015-12-19T12:05:21Z</time>
      </trkpt>
      <trkpt lat="41.965619" lon="0.802095">
        <ele>832.071</ele>
        <time>2015-12-19T12:05:23Z</time>
      </trkpt>
      <trkpt lat="41.965603" lon="0.801940">
        <ele>830.028</ele>
        <time>2015-12-19T12:05:25Z</time>
      </trkpt>
      <trkpt lat="41.965587" lon="0.801808">
        <ele>830.089</ele>
        <time>2015-12-19T12:05:27Z</time>
      </trkpt>
      <trkpt lat="41.965529" lon="0.801711">
        <ele>831.017</ele>
        <time>2015-12-19T12:05:30Z</time>
      </trkpt>
      <trkpt lat="41.965410" lon="0.801702">
        <ele>829.008</ele>
        <time>2015-12-19T12:05:34Z</time>
      </trkpt>
      <trkpt lat="41.965341" lon="0.801804">
        <ele>828.083</ele>
        <time>2015-12-19T12:05:36Z</time>
      </trkpt>
      <trkpt lat="41.965300" lon="0.801955">
        <ele>826.083</ele>
        <time>2015-12-19T12:05:38Z</time>
      </trkpt>
      <trkpt lat="41.965232" lon="0.802093">
        <ele>823.039</ele>
        <time>2015-12-19T12:05:40Z</time>
      </trkpt>
      <trkpt lat="41.965125" lon="0.802205">
        <ele>821.043</ele>
        <time>2015-12-19T12:05:42Z</time>
      </trkpt>
      <trkpt lat="41.965014" lon="0.802319">
        <ele>819.077</ele>
        <time>2015-12-19T12:05:44Z</time>
      </trkpt>
      <trkpt lat="41.964848" lon="0.802531">
        <ele>817.055</ele>
        <time>2015-12-19T12:05:46Z</time>
      </trkpt>
      <trkpt lat="41.964751" lon="0.802673">
        <ele>814.071</ele>
        <time>2015-12-19T12:05:48Z</time>
      </trkpt>
      <trkpt lat="41.964651" lon="0.802824">
        <ele>812.031</ele>
        <time>2015-12-19T12:05:50Z</time>
      </trkpt>
      <trkpt lat="41.964552" lon="0.802950">
        <ele>810.075</ele>
        <time>2015-12-19T12:05:52Z</time>
      </trkpt>
      <trkpt lat="41.964477" lon="0.803094">
        <ele>808.028</ele>
        <time>2015-12-19T12:05:54Z</time>
      </trkpt>
      <trkpt lat="41.964422" lon="0.803231">
        <ele>806.020</ele>
        <time>2015-12-19T12:05:56Z</time>
      </trkpt>
      <trkpt lat="41.964413" lon="0.803392">
        <ele>805.008</ele>
        <time>2015-12-19T12:05:58Z</time>
      </trkpt>
      <trkpt lat="41.964457" lon="0.803558">
        <ele>805.098</ele>
        <time>2015-12-19T12:06:00Z</time>
      </trkpt>
      <trkpt lat="41.964509" lon="0.803668">
        <ele>805.088</ele>
        <time>2015-12-19T12:06:02Z</time>
      </trkpt>
      <trkpt lat="41.964574" lon="0.803783">
        <ele>805.034</ele>
        <time>2015-12-19T12:06:06Z</time>
      </trkpt>
      <trkpt lat="41.964500" lon="0.803666">
        <ele>803.058</ele>
        <time>2015-12-19T12:06:46Z</time>
      </trkpt>
      <trkpt lat="41.964457" lon="0.803557">
        <ele>803.062</ele>
        <time>2015-12-19T12:06:50Z</time>
      </trkpt>
      <trkpt lat="41.964422" lon="0.803412">
        <ele>805.020</ele>
        <time>2015-12-19T12:06:54Z</time>
      </trkpt>
      <trkpt lat="41.964385" lon="0.803288">
        <ele>806.066</ele>
        <time>2015-12-19T12:06:58Z</time>
      </trkpt>
      <trkpt lat="41.964313" lon="0.803182">
        <ele>805.026</ele>
        <time>2015-12-19T12:07:02Z</time>
      </trkpt>
      <trkpt lat="41.964240" lon="0.803080">
        <ele>806.036</ele>
        <time>2015-12-19T12:07:05Z</time>
      </trkpt>
      <trkpt lat="41.964174" lon="0.802978">
        <ele>806.017</ele>
        <time>2015-12-19T12:07:08Z</time>
      </trkpt>
      <trkpt lat="41.964083" lon="0.802917">
        <ele>805.018</ele>
        <time>2015-12-19T12:07:11Z</time>
      </trkpt>
      <trkpt lat="41.963950" lon="0.802904">
        <ele>805.008</ele>
        <time>2015-12-19T12:07:14Z</time>
      </trkpt>
      <trkpt lat="41.963839" lon="0.802878">
        <ele>805.024</ele>
        <time>2015-12-19T12:07:16Z</time>
      </trkpt>
      <trkpt lat="41.963754" lon="0.802833">
        <ele>805.054</ele>
        <time>2015-12-19T12:07:18Z</time>
      </trkpt>
      <trkpt lat="41.963665" lon="0.802797">
        <ele>804.010</ele>
        <time>2015-12-19T12:07:20Z</time>
      </trkpt>
      <trkpt lat="41.963565" lon="0.802687">
        <ele>804.034</ele>
        <time>2015-12-19T12:07:23Z</time>
      </trkpt>
      <trkpt lat="41.963533" lon="0.802544">
        <ele>805.068</ele>
        <time>2015-12-19T12:07:26Z</time>
      </trkpt>
      <trkpt lat="41.963523" lon="0.802408">
        <ele>805.066</ele>
        <time>2015-12-19T12:07:31Z</time>
      </trkpt>
      <trkpt lat="41.963532" lon="0.802258">
        <ele>807.062</ele>
        <time>2015-12-19T12:07:35Z</time>
      </trkpt>
      <trkpt lat="41.963517" lon="0.802119">
        <ele>808.022</ele>
        <time>2015-12-19T12:07:40Z</time>
      </trkpt>
      <trkpt lat="41.963495" lon="0.801986">
        <ele>809.075</ele>
        <time>2015-12-19T12:07:45Z</time>
      </trkpt>
      <trkpt lat="41.963458" lon="0.801876">
        <ele>808.028</ele>
        <time>2015-12-19T12:07:50Z</time>
      </trkpt>
      <trkpt lat="41.963436" lon="0.801754">
        <ele>809.020</ele>
        <time>2015-12-19T12:07:54Z</time>
      </trkpt>
      <trkpt lat="41.963414" lon="0.801615">
        <ele>810.008</ele>
        <time>2015-12-19T12:07:59Z</time>
      </trkpt>
      <trkpt lat="41.963351" lon="0.801526">
        <ele>810.048</ele>
        <time>2015-12-19T12:08:03Z</time>
      </trkpt>
      <trkpt lat="41.963266" lon="0.801414">
        <ele>811.068</ele>
        <time>2015-12-19T12:08:07Z</time>
      </trkpt>
      <trkpt lat="41.963222" lon="0.801277">
        <ele>812.014</ele>
        <time>2015-12-19T12:08:11Z</time>
      </trkpt>
      <trkpt lat="41.963215" lon="0.801132">
        <ele>813.098</ele>
        <time>2015-12-19T12:08:15Z</time>
      </trkpt>
      <trkpt lat="41.963194" lon="0.801014">
        <ele>814.082</ele>
        <time>2015-12-19T12:08:19Z</time>
      </trkpt>
      <trkpt lat="41.963167" lon="0.800872">
        <ele>814.030</ele>
        <time>2015-12-19T12:08:24Z</time>
      </trkpt>
      <trkpt lat="41.963175" lon="0.800751">
        <ele>815.076</ele>
        <time>2015-12-19T12:08:28Z</time>
      </trkpt>
      <trkpt lat="41.963204" lon="0.800608">
        <ele>815.096</ele>
        <time>2015-12-19T12:08:33Z</time>
      </trkpt>
      <trkpt lat="41.963205" lon="0.800458">
        <ele>816.024</ele>
        <time>2015-12-19T12:08:38Z</time>
      </trkpt>
      <trkpt lat="41.963201" lon="0.800322">
        <ele>817.004</ele>
        <time>2015-12-19T12:08:42Z</time>
      </trkpt>
      <trkpt lat="41.963185" lon="0.800203">
        <ele>818.014</ele>
        <time>2015-12-19T12:08:45Z</time>
      </trkpt>
      <trkpt lat="41.963141" lon="0.800057">
        <ele>817.008</ele>
        <time>2015-12-19T12:08:49Z</time>
      </trkpt>
      <trkpt lat="41.963108" lon="0.799916">
        <ele>817.043</ele>
        <time>2015-12-19T12:08:53Z</time>
      </trkpt>
      <trkpt lat="41.963102" lon="0.799767">
        <ele>817.083</ele>
        <time>2015-12-19T12:08:57Z</time>
      </trkpt>
      <trkpt lat="41.963137" lon="0.799630">
        <ele>818.059</ele>
        <time>2015-12-19T12:09:02Z</time>
      </trkpt>
      <trkpt lat="41.963207" lon="0.799552">
        <ele>817.023</ele>
        <time>2015-12-19T12:09:05Z</time>
      </trkpt>
      <trkpt lat="41.963289" lon="0.799432">
        <ele>816.047</ele>
        <time>2015-12-19T12:09:08Z</time>
      </trkpt>
      <trkpt lat="41.963293" lon="0.799275">
        <ele>816.095</ele>
        <time>2015-12-19T12:09:11Z</time>
      </trkpt>
      <trkpt lat="41.963329" lon="0.799135">
        <ele>816.081</ele>
        <time>2015-12-19T12:09:15Z</time>
      </trkpt>
      <trkpt lat="41.963445" lon="0.799102">
        <ele>814.061</ele>
        <time>2015-12-19T12:09:19Z</time>
      </trkpt>
      <trkpt lat="41.963579" lon="0.799101">
        <ele>814.056</ele>
        <time>2015-12-19T12:09:22Z</time>
      </trkpt>
      <trkpt lat="41.963690" lon="0.799085">
        <ele>814.059</ele>
        <time>2015-12-19T12:09:24Z</time>
      </trkpt>
      <trkpt lat="41.963787" lon="0.798967">
        <ele>814.014</ele>
        <time>2015-12-19T12:09:27Z</time>
      </trkpt>
      <trkpt lat="41.963834" lon="0.798810">
        <ele>813.008</ele>
        <time>2015-12-19T12:09:30Z</time>
      </trkpt>
      <trkpt lat="41.963843" lon="0.798644">
        <ele>813.056</ele>
        <time>2015-12-19T12:09:32Z</time>
      </trkpt>
      <trkpt lat="41.963838" lon="0.798495">
        <ele>812.036</ele>
        <time>2015-12-19T12:09:34Z</time>
      </trkpt>
      <trkpt lat="41.963825" lon="0.798330">
        <ele>812.052</ele>
        <time>2015-12-19T12:09:36Z</time>
      </trkpt>
      <trkpt lat="41.963811" lon="0.798175">
        <ele>811.086</ele>
        <time>2015-12-19T12:09:38Z</time>
      </trkpt>
      <trkpt lat="41.963814" lon="0.798017">
        <ele>811.020</ele>
        <time>2015-12-19T12:09:40Z</time>
      </trkpt>
      <trkpt lat="41.963814" lon="0.797788">
        <ele>810.038</ele>
        <time>2015-12-19T12:09:43Z</time>
      </trkpt>
      <trkpt lat="41.963808" lon="0.797640">
        <ele>810.084</ele>
        <time>2015-12-19T12:09:45Z</time>
      </trkpt>
      <trkpt lat="41.963802" lon="0.797504">
        <ele>810.074</ele>
        <time>2015-12-19T12:09:47Z</time>
      </trkpt>
      <trkpt lat="41.963809" lon="0.797381">
        <ele>810.055</ele>
        <time>2015-12-19T12:09:49Z</time>
      </trkpt>
      <trkpt lat="41.963806" lon="0.797214">
        <ele>809.007</ele>
        <time>2015-12-19T12:09:52Z</time>
      </trkpt>
      <trkpt lat="41.963778" lon="0.797075">
        <ele>808.017</ele>
        <time>2015-12-19T12:09:55Z</time>
      </trkpt>
      <trkpt lat="41.963730" lon="0.796915">
        <ele>806.008</ele>
        <time>2015-12-19T12:09:57Z</time>
      </trkpt>
      <trkpt lat="41.963692" lon="0.796739">
        <ele>805.026</ele>
        <time>2015-12-19T12:09:59Z</time>
      </trkpt>
      <trkpt lat="41.963655" lon="0.796582">
        <ele>804.026</ele>
        <time>2015-12-19T12:10:01Z</time>
      </trkpt>
      <trkpt lat="41.963628" lon="0.796423">
        <ele>804.032</ele>
        <time>2015-12-19T12:10:03Z</time>
      </trkpt>
      <trkpt lat="41.963586" lon="0.796255">
        <ele>802.086</ele>
        <time>2015-12-19T12:10:05Z</time>
      </trkpt>
      <trkpt lat="41.963527" lon="0.796078">
        <ele>802.010</ele>
        <time>2015-12-19T12:10:07Z</time>
      </trkpt>
      <trkpt lat="41.963450" lon="0.795906">
        <ele>799.068</ele>
        <time>2015-12-19T12:10:09Z</time>
      </trkpt>
      <trkpt lat="41.963380" lon="0.795738">
        <ele>799.064</ele>
        <time>2015-12-19T12:10:11Z</time>
      </trkpt>
      <trkpt lat="41.963311" lon="0.795575">
        <ele>798.044</ele>
        <time>2015-12-19T12:10:13Z</time>
      </trkpt>
      <trkpt lat="41.963267" lon="0.795407">
        <ele>796.039</ele>
        <time>2015-12-19T12:10:15Z</time>
      </trkpt>
      <trkpt lat="41.963252" lon="0.795211">
        <ele>795.001</ele>
        <time>2015-12-19T12:10:17Z</time>
      </trkpt>
      <trkpt lat="41.963257" lon="0.795017">
        <ele>794.021</ele>
        <time>2015-12-19T12:10:19Z</time>
      </trkpt>
      <trkpt lat="41.963297" lon="0.794834">
        <ele>794.008</ele>
        <time>2015-12-19T12:10:21Z</time>
      </trkpt>
      <trkpt lat="41.963359" lon="0.794670">
        <ele>795.044</ele>
        <time>2015-12-19T12:10:23Z</time>
      </trkpt>
      <trkpt lat="41.963393" lon="0.794521">
        <ele>795.064</ele>
        <time>2015-12-19T12:10:25Z</time>
      </trkpt>
      <trkpt lat="41.963402" lon="0.794370">
        <ele>796.010</ele>
        <time>2015-12-19T12:10:27Z</time>
      </trkpt>
      <trkpt lat="41.963368" lon="0.794210">
        <ele>796.024</ele>
        <time>2015-12-19T12:10:29Z</time>
      </trkpt>
      <trkpt lat="41.963321" lon="0.794058">
        <ele>795.018</ele>
        <time>2015-12-19T12:10:31Z</time>
      </trkpt>
      <trkpt lat="41.963270" lon="0.793905">
        <ele>794.036</ele>
        <time>2015-12-19T12:10:33Z</time>
      </trkpt>
      <trkpt lat="41.963239" lon="0.793746">
        <ele>794.052</ele>
        <time>2015-12-19T12:10:35Z</time>
      </trkpt>
      <trkpt lat="41.963226" lon="0.793570">
        <ele>793.092</ele>
        <time>2015-12-19T12:10:37Z</time>
      </trkpt>
      <trkpt lat="41.963202" lon="0.793373">
        <ele>791.045</ele>
        <time>2015-12-19T12:10:39Z</time>
      </trkpt>
      <trkpt lat="41.963160" lon="0.793191">
        <ele>790.047</ele>
        <time>2015-12-19T12:10:41Z</time>
      </trkpt>
      <trkpt lat="41.963087" lon="0.793027">
        <ele>790.011</ele>
        <time>2015-12-19T12:10:43Z</time>
      </trkpt>
      <trkpt lat="41.963013" lon="0.792854">
        <ele>789.008</ele>
        <time>2015-12-19T12:10:45Z</time>
      </trkpt>
      <trkpt lat="41.962933" lon="0.792693">
        <ele>789.065</ele>
        <time>2015-12-19T12:10:47Z</time>
      </trkpt>
      <trkpt lat="41.962868" lon="0.792561">
        <ele>788.095</ele>
        <time>2015-12-19T12:10:49Z</time>
      </trkpt>
      <trkpt lat="41.962763" lon="0.792479">
        <ele>786.011</ele>
        <time>2015-12-19T12:10:51Z</time>
      </trkpt>
      <trkpt lat="41.962629" lon="0.792495">
        <ele>787.055</ele>
        <time>2015-12-19T12:10:53Z</time>
      </trkpt>
      <trkpt lat="41.962536" lon="0.792533">
        <ele>787.069</ele>
        <time>2015-12-19T12:10:55Z</time>
      </trkpt>
      <trkpt lat="41.962424" lon="0.792532">
        <ele>788.097</ele>
        <time>2015-12-19T12:10:58Z</time>
      </trkpt>
      <trkpt lat="41.962326" lon="0.792455">
        <ele>790.083</ele>
        <time>2015-12-19T12:11:03Z</time>
      </trkpt>
      <trkpt lat="41.962268" lon="0.792336">
        <ele>789.013</ele>
        <time>2015-12-19T12:11:06Z</time>
      </trkpt>
      <trkpt lat="41.962196" lon="0.792197">
        <ele>787.015</ele>
        <time>2015-12-19T12:11:09Z</time>
      </trkpt>
      <trkpt lat="41.962120" lon="0.792070">
        <ele>787.065</ele>
        <time>2015-12-19T12:11:11Z</time>
      </trkpt>
      <trkpt lat="41.962040" lon="0.791944">
        <ele>785.011</ele>
        <time>2015-12-19T12:11:13Z</time>
      </trkpt>
      <trkpt lat="41.961955" lon="0.791816">
        <ele>785.008</ele>
        <time>2015-12-19T12:11:15Z</time>
      </trkpt>
      <trkpt lat="41.961870" lon="0.791696">
        <ele>783.082</ele>
        <time>2015-12-19T12:11:17Z</time>
      </trkpt>
      <trkpt lat="41.961796" lon="0.791534">
        <ele>782.062</ele>
        <time>2015-12-19T12:11:19Z</time>
      </trkpt>
      <trkpt lat="41.961743" lon="0.791354">
        <ele>781.098</ele>
        <time>2015-12-19T12:11:21Z</time>
      </trkpt>
      <trkpt lat="41.961697" lon="0.791168">
        <ele>781.032</ele>
        <time>2015-12-19T12:11:23Z</time>
      </trkpt>
      <trkpt lat="41.961656" lon="0.790994">
        <ele>781.016</ele>
        <time>2015-12-19T12:11:25Z</time>
      </trkpt>
      <trkpt lat="41.961623" lon="0.790842">
        <ele>781.084</ele>
        <time>2015-12-19T12:11:27Z</time>
      </trkpt>
      <trkpt lat="41.961540" lon="0.790768">
        <ele>781.080</ele>
        <time>2015-12-19T12:11:29Z</time>
      </trkpt>
      <trkpt lat="41.961462" lon="0.790834">
        <ele>781.020</ele>
        <time>2015-12-19T12:11:30Z</time>
      </trkpt>
      <trkpt lat="41.961364" lon="0.790896">
        <ele>781.086</ele>
        <time>2015-12-19T12:11:32Z</time>
      </trkpt>
      <trkpt lat="41.961244" lon="0.790962">
        <ele>780.060</ele>
        <time>2015-12-19T12:11:34Z</time>
      </trkpt>
      <trkpt lat="41.961126" lon="0.791022">
        <ele>779.026</ele>
        <time>2015-12-19T12:11:36Z</time>
      </trkpt>
      <trkpt lat="41.961017" lon="0.791066">
        <ele>780.008</ele>
        <time>2015-12-19T12:11:38Z</time>
      </trkpt>
      <trkpt lat="41.960904" lon="0.791090">
        <ele>780.019</ele>
        <time>2015-12-19T12:11:40Z</time>
      </trkpt>
      <trkpt lat="41.960785" lon="0.791097">
        <ele>780.089</ele>
        <time>2015-12-19T12:11:42Z</time>
      </trkpt>
      <trkpt lat="41.960672" lon="0.791108">
        <ele>780.035</ele>
        <time>2015-12-19T12:11:44Z</time>
      </trkpt>
      <trkpt lat="41.960565" lon="0.791112">
        <ele>780.069</ele>
        <time>2015-12-19T12:11:46Z</time>
      </trkpt>
      <trkpt lat="41.960448" lon="0.791125">
        <ele>779.033</ele>
        <time>2015-12-19T12:11:48Z</time>
      </trkpt>
      <trkpt lat="41.960332" lon="0.791137">
        <ele>779.041</ele>
        <time>2015-12-19T12:11:51Z</time>
      </trkpt>
      <trkpt lat="41.960245" lon="0.791172">
        <ele>779.027</ele>
        <time>2015-12-19T12:11:53Z</time>
      </trkpt>
      <trkpt lat="41.960114" lon="0.791215">
        <ele>778.047</ele>
        <time>2015-12-19T12:11:56Z</time>
      </trkpt>
      <trkpt lat="41.960005" lon="0.791229">
        <ele>777.042</ele>
        <time>2015-12-19T12:11:58Z</time>
      </trkpt>
      <trkpt lat="41.959896" lon="0.791200">
        <ele>777.022</ele>
        <time>2015-12-19T12:12:00Z</time>
      </trkpt>
      <trkpt lat="41.959802" lon="0.791176">
        <ele>776.014</ele>
        <time>2015-12-19T12:12:02Z</time>
      </trkpt>
      <trkpt lat="41.959708" lon="0.791156">
        <ele>776.008</ele>
        <time>2015-12-19T12:12:04Z</time>
      </trkpt>
      <trkpt lat="41.959612" lon="0.791177">
        <ele>775.085</ele>
        <time>2015-12-19T12:12:06Z</time>
      </trkpt>
      <trkpt lat="41.959486" lon="0.791233">
        <ele>774.035</ele>
        <time>2015-12-19T12:12:09Z</time>
      </trkpt>
      <trkpt lat="41.959376" lon="0.791329">
        <ele>774.021</ele>
        <time>2015-12-19T12:12:12Z</time>
      </trkpt>
      <trkpt lat="41.959277" lon="0.791360">
        <ele>773.075</ele>
        <time>2015-12-19T12:12:15Z</time>
      </trkpt>
      <trkpt lat="41.959180" lon="0.791330">
        <ele>773.049</ele>
        <time>2015-12-19T12:12:19Z</time>
      </trkpt>
      <trkpt lat="41.959112" lon="0.791234">
        <ele>771.097</ele>
        <time>2015-12-19T12:12:23Z</time>
      </trkpt>
      <trkpt lat="41.959059" lon="0.791109">
        <ele>769.073</ele>
        <time>2015-12-19T12:12:26Z</time>
      </trkpt>
      <trkpt lat="41.959009" lon="0.790992">
        <ele>769.063</ele>
        <time>2015-12-19T12:12:29Z</time>
      </trkpt>
      <trkpt lat="41.958978" lon="0.790866">
        <ele>769.017</ele>
        <time>2015-12-19T12:12:32Z</time>
      </trkpt>
      <trkpt lat="41.958936" lon="0.790733">
        <ele>767.087</ele>
        <time>2015-12-19T12:12:34Z</time>
      </trkpt>
      <trkpt lat="41.958886" lon="0.790597">
        <ele>765.015</ele>
        <time>2015-12-19T12:12:36Z</time>
      </trkpt>
      <trkpt lat="41.958833" lon="0.790445">
        <ele>764.008</ele>
        <time>2015-12-19T12:12:38Z</time>
      </trkpt>
      <trkpt lat="41.958757" lon="0.790307">
        <ele>764.042</ele>
        <time>2015-12-19T12:12:40Z</time>
      </trkpt>
      <trkpt lat="41.958657" lon="0.790225">
        <ele>764.072</ele>
        <time>2015-12-19T12:12:42Z</time>
      </trkpt>
      <trkpt lat="41.958540" lon="0.790224">
        <ele>764.058</ele>
        <time>2015-12-19T12:12:44Z</time>
      </trkpt>
      <trkpt lat="41.958452" lon="0.790319">
        <ele>764.032</ele>
        <time>2015-12-19T12:12:46Z</time>
      </trkpt>
      <trkpt lat="41.958387" lon="0.790429">
        <ele>765.086</ele>
        <time>2015-12-19T12:12:48Z</time>
      </trkpt>
      <trkpt lat="41.958330" lon="0.790543">
        <ele>765.034</ele>
        <time>2015-12-19T12:12:50Z</time>
      </trkpt>
      <trkpt lat="41.958282" lon="0.790689">
        <ele>767.020</ele>
        <time>2015-12-19T12:12:53Z</time>
      </trkpt>
      <trkpt lat="41.958251" lon="0.790844">
        <ele>769.050</ele>
        <time>2015-12-19T12:12:57Z</time>
      </trkpt>
      <trkpt lat="41.958215" lon="0.790959">
        <ele>770.075</ele>
        <time>2015-12-19T12:13:01Z</time>
      </trkpt>
      <trkpt lat="41.958180" lon="0.791099">
        <ele>772.028</ele>
        <time>2015-12-19T12:13:05Z</time>
      </trkpt>
      <trkpt lat="41.958141" lon="0.791230">
        <ele>775.020</ele>
        <time>2015-12-19T12:13:09Z</time>
      </trkpt>
      <trkpt lat="41.958107" lon="0.791358">
        <ele>778.008</ele>
        <time>2015-12-19T12:13:14Z</time>
      </trkpt>
      <trkpt lat="41.958068" lon="0.791483">
        <ele>778.018</ele>
        <time>2015-12-19T12:13:21Z</time>
      </trkpt>
      <trkpt lat="41.958022" lon="0.791607">
        <ele>779.038</ele>
        <time>2015-12-19T12:13:26Z</time>
      </trkpt>
      <trkpt lat="41.957947" lon="0.791698">
        <ele>779.074</ele>
        <time>2015-12-19T12:13:32Z</time>
      </trkpt>
      <trkpt lat="41.957891" lon="0.791815">
        <ele>779.028</ele>
        <time>2015-12-19T12:13:38Z</time>
      </trkpt>
      <trkpt lat="41.957859" lon="0.791938">
        <ele>783.042</ele>
        <time>2015-12-19T12:13:45Z</time>
      </trkpt>
      <trkpt lat="41.957838" lon="0.792068">
        <ele>782.060</ele>
        <time>2015-12-19T12:13:51Z</time>
      </trkpt>
      <trkpt lat="41.957821" lon="0.792190">
        <ele>783.076</ele>
        <time>2015-12-19T12:13:56Z</time>
      </trkpt>
      <trkpt lat="41.957767" lon="0.792305">
        <ele>781.046</ele>
        <time>2015-12-19T12:14:02Z</time>
      </trkpt>
      <trkpt lat="41.957691" lon="0.792385">
        <ele>780.038</ele>
        <time>2015-12-19T12:14:08Z</time>
      </trkpt>
      <trkpt lat="41.957606" lon="0.792433">
        <ele>781.070</ele>
        <time>2015-12-19T12:14:14Z</time>
      </trkpt>
      <trkpt lat="41.957546" lon="0.792536">
        <ele>782.017</ele>
        <time>2015-12-19T12:14:20Z</time>
      </trkpt>
      <trkpt lat="41.957500" lon="0.792648">
        <ele>784.008</ele>
        <time>2015-12-19T12:14:24Z</time>
      </trkpt>
      <trkpt lat="41.957433" lon="0.792744">
        <ele>782.054</ele>
        <time>2015-12-19T12:14:28Z</time>
      </trkpt>
      <trkpt lat="41.957331" lon="0.792728">
        <ele>782.044</ele>
        <time>2015-12-19T12:14:33Z</time>
      </trkpt>
      <trkpt lat="41.957318" lon="0.792607">
        <ele>782.060</ele>
        <time>2015-12-19T12:14:37Z</time>
      </trkpt>
      <trkpt lat="41.957307" lon="0.792473">
        <ele>785.024</ele>
        <time>2015-12-19T12:14:43Z</time>
      </trkpt>
      <trkpt lat="41.957266" lon="0.792350">
        <ele>786.048</ele>
        <time>2015-12-19T12:14:49Z</time>
      </trkpt>
      <trkpt lat="41.957236" lon="0.792236">
        <ele>786.056</ele>
        <time>2015-12-19T12:14:54Z</time>
      </trkpt>
      <trkpt lat="41.957209" lon="0.792099">
        <ele>788.082</ele>
        <time>2015-12-19T12:15:00Z</time>
      </trkpt>
      <trkpt lat="41.957176" lon="0.791980">
        <ele>791.082</ele>
        <time>2015-12-19T12:15:06Z</time>
      </trkpt>
      <trkpt lat="41.957087" lon="0.791933">
        <ele>791.021</ele>
        <time>2015-12-19T12:15:12Z</time>
      </trkpt>
      <trkpt lat="41.957040" lon="0.791814">
        <ele>791.041</ele>
        <time>2015-12-19T12:17:51Z</time>
      </trkpt>
      <trkpt lat="41.957006" lon="0.791696">
        <ele>791.005</ele>
        <time>2015-12-19T12:17:55Z</time>
      </trkpt>
      <trkpt lat="41.956967" lon="0.791579">
        <ele>792.008</ele>
        <time>2015-12-19T12:17:59Z</time>
      </trkpt>
      <trkpt lat="41.956935" lon="0.791460">
        <ele>792.063</ele>
        <time>2015-12-19T12:18:03Z</time>
      </trkpt>
      <trkpt lat="41.956901" lon="0.791342">
        <ele>793.013</ele>
        <time>2015-12-19T12:18:06Z</time>
      </trkpt>
      <trkpt lat="41.956851" lon="0.791206">
        <ele>794.079</ele>
        <time>2015-12-19T12:18:10Z</time>
      </trkpt>
      <trkpt lat="41.956793" lon="0.791087">
        <ele>795.013</ele>
        <time>2015-12-19T12:18:14Z</time>
      </trkpt>
      <trkpt lat="41.956741" lon="0.790981">
        <ele>795.027</ele>
        <time>2015-12-19T12:18:18Z</time>
      </trkpt>
      <trkpt lat="41.956686" lon="0.790869">
        <ele>796.025</ele>
        <time>2015-12-19T12:18:22Z</time>
      </trkpt>
      <trkpt lat="41.956634" lon="0.790754">
        <ele>795.061</ele>
        <time>2015-12-19T12:18:26Z</time>
      </trkpt>
      <trkpt lat="41.956613" lon="0.790633">
        <ele>796.071</ele>
        <time>2015-12-19T12:18:29Z</time>
      </trkpt>
      <trkpt lat="41.956586" lon="0.790478">
        <ele>797.043</ele>
        <time>2015-12-19T12:18:33Z</time>
      </trkpt>
      <trkpt lat="41.956537" lon="0.790354">
        <ele>796.064</ele>
        <time>2015-12-19T12:18:37Z</time>
      </trkpt>
      <trkpt lat="41.956500" lon="0.790237">
        <ele>796.010</ele>
        <time>2015-12-19T12:18:41Z</time>
      </trkpt>
      <trkpt lat="41.956498" lon="0.790086">
        <ele>796.008</ele>
        <time>2015-12-19T12:18:45Z</time>
      </trkpt>
      <trkpt lat="41.956508" lon="0.789961">
        <ele>796.025</ele>
        <time>2015-12-19T12:18:48Z</time>
      </trkpt>
      <trkpt lat="41.956528" lon="0.789818">
        <ele>796.035</ele>
        <time>2015-12-19T12:18:51Z</time>
      </trkpt>
      <trkpt lat="41.956548" lon="0.789672">
        <ele>797.051</ele>
        <time>2015-12-19T12:18:54Z</time>
      </trkpt>
      <trkpt lat="41.956567" lon="0.789529">
        <ele>797.015</ele>
        <time>2015-12-19T12:18:57Z</time>
      </trkpt>
      <trkpt lat="41.956586" lon="0.789381">
        <ele>797.059</ele>
        <time>2015-12-19T12:18:59Z</time>
      </trkpt>
      <trkpt lat="41.956607" lon="0.789220">
        <ele>798.077</ele>
        <time>2015-12-19T12:19:02Z</time>
      </trkpt>
      <trkpt lat="41.956643" lon="0.789083">
        <ele>799.063</ele>
        <time>2015-12-19T12:19:05Z</time>
      </trkpt>
      <trkpt lat="41.956684" lon="0.788929">
        <ele>801.033</ele>
        <time>2015-12-19T12:19:09Z</time>
      </trkpt>
      <trkpt lat="41.956689" lon="0.788790">
        <ele>801.096</ele>
        <time>2015-12-19T12:19:12Z</time>
      </trkpt>
      <trkpt lat="41.956683" lon="0.788652">
        <ele>803.031</ele>
        <time>2015-12-19T12:19:15Z</time>
      </trkpt>
      <trkpt lat="41.956685" lon="0.788514">
        <ele>803.024</ele>
        <time>2015-12-19T12:19:18Z</time>
      </trkpt>
      <trkpt lat="41.956684" lon="0.788389">
        <ele>803.008</ele>
        <time>2015-12-19T12:19:22Z</time>
      </trkpt>
      <trkpt lat="41.956670" lon="0.788261">
        <ele>804.070</ele>
        <time>2015-12-19T12:19:25Z</time>
      </trkpt>
      <trkpt lat="41.956661" lon="0.788127">
        <ele>805.070</ele>
        <time>2015-12-19T12:19:28Z</time>
      </trkpt>
      <trkpt lat="41.956664" lon="0.787985">
        <ele>804.066</ele>
        <time>2015-12-19T12:19:31Z</time>
      </trkpt>
      <trkpt lat="41.956687" lon="0.787840">
        <ele>805.050</ele>
        <time>2015-12-19T12:19:34Z</time>
      </trkpt>
      <trkpt lat="41.956725" lon="0.787706">
        <ele>804.024</ele>
        <time>2015-12-19T12:19:37Z</time>
      </trkpt>
      <trkpt lat="41.956756" lon="0.787570">
        <ele>804.022</ele>
        <time>2015-12-19T12:19:40Z</time>
      </trkpt>
      <trkpt lat="41.956777" lon="0.787428">
        <ele>805.058</ele>
        <time>2015-12-19T12:19:43Z</time>
      </trkpt>
      <trkpt lat="41.956783" lon="0.787293">
        <ele>805.098</ele>
        <time>2015-12-19T12:19:46Z</time>
      </trkpt>
      <trkpt lat="41.956769" lon="0.787161">
        <ele>807.045</ele>
        <time>2015-12-19T12:19:50Z</time>
      </trkpt>
      <trkpt lat="41.956703" lon="0.787071">
        <ele>807.047</ele>
        <time>2015-12-19T12:19:54Z</time>
      </trkpt>
      <trkpt lat="41.956614" lon="0.787007">
        <ele>807.011</ele>
        <time>2015-12-19T12:19:58Z</time>
      </trkpt>
      <trkpt lat="41.956551" lon="0.786903">
        <ele>809.008</ele>
        <time>2015-12-19T12:20:02Z</time>
      </trkpt>
      <trkpt lat="41.956487" lon="0.786783">
        <ele>809.045</ele>
        <time>2015-12-19T12:20:06Z</time>
      </trkpt>
      <trkpt lat="41.956434" lon="0.786644">
        <ele>811.025</ele>
        <time>2015-12-19T12:20:10Z</time>
      </trkpt>
      <trkpt lat="41.956402" lon="0.786515">
        <ele>810.021</ele>
        <time>2015-12-19T12:20:13Z</time>
      </trkpt>
      <trkpt lat="41.956373" lon="0.786374">
        <ele>810.025</ele>
        <time>2015-12-19T12:20:16Z</time>
      </trkpt>
      <trkpt lat="41.956343" lon="0.786239">
        <ele>810.059</ele>
        <time>2015-12-19T12:20:19Z</time>
      </trkpt>
      <trkpt lat="41.956308" lon="0.786105">
        <ele>810.037</ele>
        <time>2015-12-19T12:20:22Z</time>
      </trkpt>
      <trkpt lat="41.956268" lon="0.785977">
        <ele>810.063</ele>
        <time>2015-12-19T12:20:25Z</time>
      </trkpt>
      <trkpt lat="41.956221" lon="0.785861">
        <ele>811.093</ele>
        <time>2015-12-19T12:20:28Z</time>
      </trkpt>
      <trkpt lat="41.956182" lon="0.785737">
        <ele>811.017</ele>
        <time>2015-12-19T12:20:31Z</time>
      </trkpt>
      <trkpt lat="41.956155" lon="0.785605">
        <ele>811.087</ele>
        <time>2015-12-19T12:20:34Z</time>
      </trkpt>
      <trkpt lat="41.956142" lon="0.785460">
        <ele>811.015</ele>
        <time>2015-12-19T12:20:37Z</time>
      </trkpt>
      <trkpt lat="41.956138" lon="0.785325">
        <ele>811.008</ele>
        <time>2015-12-19T12:20:40Z</time>
      </trkpt>
      <trkpt lat="41.956128" lon="0.785184">
        <ele>812.042</ele>
        <time>2015-12-19T12:20:44Z</time>
      </trkpt>
      <trkpt lat="41.956114" lon="0.785042">
        <ele>812.072</ele>
        <time>2015-12-19T12:20:47Z</time>
      </trkpt>
      <trkpt lat="41.956086" lon="0.784850">
        <ele>811.068</ele>
        <time>2015-12-19T12:20:50Z</time>
      </trkpt>
      <trkpt lat="41.956054" lon="0.784705">
        <ele>811.082</ele>
        <time>2015-12-19T12:20:53Z</time>
      </trkpt>
      <trkpt lat="41.956014" lon="0.784590">
        <ele>811.026</ele>
        <time>2015-12-19T12:20:57Z</time>
      </trkpt>
      <trkpt lat="41.956054" lon="0.784737">
        <ele>811.064</ele>
        <time>2015-12-19T12:21:16Z</time>
      </trkpt>
      <trkpt lat="41.956084" lon="0.784866">
        <ele>812.060</ele>
        <time>2015-12-19T12:21:19Z</time>
      </trkpt>
      <trkpt lat="41.956108" lon="0.784993">
        <ele>812.040</ele>
        <time>2015-12-19T12:21:22Z</time>
      </trkpt>
      <trkpt lat="41.956121" lon="0.785122">
        <ele>813.013</ele>
        <time>2015-12-19T12:21:25Z</time>
      </trkpt>
      <trkpt lat="41.956135" lon="0.785252">
        <ele>814.043</ele>
        <time>2015-12-19T12:21:28Z</time>
      </trkpt>
      <trkpt lat="41.956146" lon="0.785382">
        <ele>814.007</ele>
        <time>2015-12-19T12:21:31Z</time>
      </trkpt>
      <trkpt lat="41.956151" lon="0.785535">
        <ele>813.008</ele>
        <time>2015-12-19T12:21:34Z</time>
      </trkpt>
      <trkpt lat="41.956175" lon="0.785693">
        <ele>814.022</ele>
        <time>2015-12-19T12:21:37Z</time>
      </trkpt>
      <trkpt lat="41.956223" lon="0.785834">
        <ele>813.012</ele>
        <time>2015-12-19T12:21:40Z</time>
      </trkpt>
      <trkpt lat="41.956279" lon="0.785979">
        <ele>813.058</ele>
        <time>2015-12-19T12:21:43Z</time>
      </trkpt>
      <trkpt lat="41.956316" lon="0.786107">
        <ele>813.012</ele>
        <time>2015-12-19T12:21:45Z</time>
      </trkpt>
      <trkpt lat="41.956344" lon="0.786224">
        <ele>813.056</ele>
        <time>2015-12-19T12:21:47Z</time>
      </trkpt>
      <trkpt lat="41.956378" lon="0.786344">
        <ele>813.074</ele>
        <time>2015-12-19T12:21:49Z</time>
      </trkpt>
      <trkpt lat="41.956407" lon="0.786488">
        <ele>812.060</ele>
        <time>2015-12-19T12:21:51Z</time>
      </trkpt>
      <trkpt lat="41.956445" lon="0.786624">
        <ele>812.020</ele>
        <time>2015-12-19T12:21:53Z</time>
      </trkpt>
      <trkpt lat="41.956499" lon="0.786752">
        <ele>811.087</ele>
        <time>2015-12-19T12:21:55Z</time>
      </trkpt>
      <trkpt lat="41.956561" lon="0.786876">
        <ele>812.042</ele>
        <time>2015-12-19T12:21:57Z</time>
      </trkpt>
      <trkpt lat="41.956636" lon="0.786978">
        <ele>811.026</ele>
        <time>2015-12-19T12:21:59Z</time>
      </trkpt>
      <trkpt lat="41.956710" lon="0.787057">
        <ele>810.008</ele>
        <time>2015-12-19T12:22:01Z</time>
      </trkpt>
      <trkpt lat="41.956785" lon="0.787225">
        <ele>809.079</ele>
        <time>2015-12-19T12:22:04Z</time>
      </trkpt>
      <trkpt lat="41.956792" lon="0.787398">
        <ele>808.029</ele>
        <time>2015-12-19T12:22:06Z</time>
      </trkpt>
      <trkpt lat="41.956767" lon="0.787561">
        <ele>808.075</ele>
        <time>2015-12-19T12:22:08Z</time>
      </trkpt>
      <trkpt lat="41.956728" lon="0.787720">
        <ele>808.019</ele>
        <time>2015-12-19T12:22:10Z</time>
      </trkpt>
      <trkpt lat="41.956683" lon="0.787882">
        <ele>807.053</ele>
        <time>2015-12-19T12:22:12Z</time>
      </trkpt>
      <trkpt lat="41.956673" lon="0.788057">
        <ele>806.051</ele>
        <time>2015-12-19T12:22:14Z</time>
      </trkpt>
      <trkpt lat="41.956676" lon="0.788218">
        <ele>806.047</ele>
        <time>2015-12-19T12:22:16Z</time>
      </trkpt>
      <trkpt lat="41.956681" lon="0.788370">
        <ele>806.017</ele>
        <time>2015-12-19T12:22:18Z</time>
      </trkpt>
      <trkpt lat="41.956674" lon="0.788522">
        <ele>805.066</ele>
        <time>2015-12-19T12:22:20Z</time>
      </trkpt>
      <trkpt lat="41.956682" lon="0.788671">
        <ele>804.029</ele>
        <time>2015-12-19T12:22:22Z</time>
      </trkpt>
      <trkpt lat="41.956693" lon="0.788833">
        <ele>804.021</ele>
        <time>2015-12-19T12:22:24Z</time>
      </trkpt>
      <trkpt lat="41.956677" lon="0.789005">
        <ele>804.008</ele>
        <time>2015-12-19T12:22:26Z</time>
      </trkpt>
      <trkpt lat="41.956636" lon="0.789178">
        <ele>803.017</ele>
        <time>2015-12-19T12:22:28Z</time>
      </trkpt>
      <trkpt lat="41.956604" lon="0.789358">
        <ele>802.067</ele>
        <time>2015-12-19T12:22:30Z</time>
      </trkpt>
      <trkpt lat="41.956577" lon="0.789531">
        <ele>801.093</ele>
        <time>2015-12-19T12:22:31Z</time>
      </trkpt>
      <trkpt lat="41.956544" lon="0.789699">
        <ele>801.027</ele>
        <time>2015-12-19T12:22:34Z</time>
      </trkpt>
      <trkpt lat="41.956520" lon="0.789873">
        <ele>800.051</ele>
        <time>2015-12-19T12:22:35Z</time>
      </trkpt>
      <trkpt lat="41.956502" lon="0.790035">
        <ele>800.079</ele>
        <time>2015-12-19T12:22:37Z</time>
      </trkpt>
      <trkpt lat="41.956512" lon="0.790181">
        <ele>800.055</ele>
        <time>2015-12-19T12:22:40Z</time>
      </trkpt>
      <trkpt lat="41.956546" lon="0.790305">
        <ele>800.055</ele>
        <time>2015-12-19T12:22:42Z</time>
      </trkpt>
      <trkpt lat="41.956579" lon="0.790421">
        <ele>801.044</ele>
        <time>2015-12-19T12:22:44Z</time>
      </trkpt>
      <trkpt lat="41.956620" lon="0.790572">
        <ele>801.005</ele>
        <time>2015-12-19T12:22:47Z</time>
      </trkpt>
      <trkpt lat="41.956635" lon="0.790702">
        <ele>801.015</ele>
        <time>2015-12-19T12:22:49Z</time>
      </trkpt>
      <trkpt lat="41.956686" lon="0.790837">
        <ele>801.008</ele>
        <time>2015-12-19T12:22:51Z</time>
      </trkpt>
      <trkpt lat="41.956749" lon="0.790963">
        <ele>800.065</ele>
        <time>2015-12-19T12:22:53Z</time>
      </trkpt>
      <trkpt lat="41.956811" lon="0.791118">
        <ele>799.085</ele>
        <time>2015-12-19T12:22:55Z</time>
      </trkpt>
      <trkpt lat="41.956869" lon="0.791279">
        <ele>798.061</ele>
        <time>2015-12-19T12:22:57Z</time>
      </trkpt>
      <trkpt lat="41.956922" lon="0.791453">
        <ele>798.035</ele>
        <time>2015-12-19T12:22:59Z</time>
      </trkpt>
      <trkpt lat="41.956967" lon="0.791608">
        <ele>797.029</ele>
        <time>2015-12-19T12:23:01Z</time>
      </trkpt>
      <trkpt lat="41.957009" lon="0.791754">
        <ele>796.087</ele>
        <time>2015-12-19T12:23:03Z</time>
      </trkpt>
      <trkpt lat="41.957040" lon="0.791875">
        <ele>795.073</ele>
        <time>2015-12-19T12:23:05Z</time>
      </trkpt>
      <trkpt lat="41.957076" lon="0.792029">
        <ele>792.083</ele>
        <time>2015-12-19T12:23:08Z</time>
      </trkpt>
      <trkpt lat="41.957081" lon="0.792165">
        <ele>792.023</ele>
        <time>2015-12-19T12:23:10Z</time>
      </trkpt>
      <trkpt lat="41.957088" lon="0.792304">
        <ele>790.083</ele>
        <time>2015-12-19T12:23:12Z</time>
      </trkpt>
      <trkpt lat="41.957082" lon="0.792437">
        <ele>790.011</ele>
        <time>2015-12-19T12:23:14Z</time>
      </trkpt>
      <trkpt lat="41.957039" lon="0.792557">
        <ele>790.008</ele>
        <time>2015-12-19T12:23:16Z</time>
      </trkpt>
      <trkpt lat="41.956980" lon="0.792659">
        <ele>790.053</ele>
        <time>2015-12-19T12:23:18Z</time>
      </trkpt>
      <trkpt lat="41.956894" lon="0.792776">
        <ele>790.033</ele>
        <time>2015-12-19T12:23:21Z</time>
      </trkpt>
      <trkpt lat="41.956820" lon="0.792862">
        <ele>789.069</ele>
        <time>2015-12-19T12:23:24Z</time>
      </trkpt>
      <trkpt lat="41.956750" lon="0.792947">
        <ele>790.023</ele>
        <time>2015-12-19T12:23:27Z</time>
      </trkpt>
      <trkpt lat="41.956671" lon="0.793042">
        <ele>790.057</ele>
        <time>2015-12-19T12:23:31Z</time>
      </trkpt>
      <trkpt lat="41.956595" lon="0.793149">
        <ele>791.025</ele>
        <time>2015-12-19T12:23:35Z</time>
      </trkpt>
      <trkpt lat="41.956505" lon="0.793254">
        <ele>790.091</ele>
        <time>2015-12-19T12:23:39Z</time>
      </trkpt>
      <trkpt lat="41.956427" lon="0.793320">
        <ele>790.071</ele>
        <time>2015-12-19T12:23:42Z</time>
      </trkpt>
      <trkpt lat="41.956344" lon="0.793408">
        <ele>790.098</ele>
        <time>2015-12-19T12:23:45Z</time>
      </trkpt>
      <trkpt lat="41.956268" lon="0.793506">
        <ele>791.015</ele>
        <time>2015-12-19T12:23:48Z</time>
      </trkpt>
      <trkpt lat="41.956204" lon="0.793604">
        <ele>791.026</ele>
        <time>2015-12-19T12:23:51Z</time>
      </trkpt>
      <trkpt lat="41.956133" lon="0.793711">
        <ele>792.008</ele>
        <time>2015-12-19T12:23:55Z</time>
      </trkpt>
      <trkpt lat="41.956070" lon="0.793837">
        <ele>791.020</ele>
        <time>2015-12-19T12:23:59Z</time>
      </trkpt>
      <trkpt lat="41.956057" lon="0.794015">
        <ele>790.020</ele>
        <time>2015-12-19T12:24:02Z</time>
      </trkpt>
      <trkpt lat="41.956091" lon="0.794160">
        <ele>789.046</ele>
        <time>2015-12-19T12:24:04Z</time>
      </trkpt>
      <trkpt lat="41.956127" lon="0.794285">
        <ele>789.010</ele>
        <time>2015-12-19T12:24:06Z</time>
      </trkpt>
      <trkpt lat="41.956173" lon="0.794395">
        <ele>789.054</ele>
        <time>2015-12-19T12:24:08Z</time>
      </trkpt>
      <trkpt lat="41.956216" lon="0.794548">
        <ele>790.092</ele>
        <time>2015-12-19T12:24:11Z</time>
      </trkpt>
      <trkpt lat="41.956213" lon="0.794689">
        <ele>790.028</ele>
        <time>2015-12-19T12:24:14Z</time>
      </trkpt>
      <trkpt lat="41.956206" lon="0.794841">
        <ele>790.098</ele>
        <time>2015-12-19T12:24:16Z</time>
      </trkpt>
      <trkpt lat="41.956197" lon="0.794983">
        <ele>790.074</ele>
        <time>2015-12-19T12:24:19Z</time>
      </trkpt>
      <trkpt lat="41.956184" lon="0.795127">
        <ele>790.056</ele>
        <time>2015-12-19T12:24:22Z</time>
      </trkpt>
      <trkpt lat="41.956158" lon="0.795261">
        <ele>791.021</ele>
        <time>2015-12-19T12:24:25Z</time>
      </trkpt>
      <trkpt lat="41.956129" lon="0.795383">
        <ele>793.008</ele>
        <time>2015-12-19T12:24:29Z</time>
      </trkpt>
      <trkpt lat="41.956096" lon="0.795515">
        <ele>793.038</ele>
        <time>2015-12-19T12:24:32Z</time>
      </trkpt>
      <trkpt lat="41.956053" lon="0.795650">
        <ele>793.018</ele>
        <time>2015-12-19T12:24:35Z</time>
      </trkpt>
      <trkpt lat="41.955997" lon="0.795776">
        <ele>793.084</ele>
        <time>2015-12-19T12:24:38Z</time>
      </trkpt>
      <trkpt lat="41.955946" lon="0.795896">
        <ele>794.088</ele>
        <time>2015-12-19T12:24:41Z</time>
      </trkpt>
      <trkpt lat="41.955924" lon="0.796028">
        <ele>794.062</ele>
        <time>2015-12-19T12:24:44Z</time>
      </trkpt>
      <trkpt lat="41.955927" lon="0.796173">
        <ele>794.070</ele>
        <time>2015-12-19T12:24:47Z</time>
      </trkpt>
      <trkpt lat="41.955907" lon="0.796332">
        <ele>793.056</ele>
        <time>2015-12-19T12:24:50Z</time>
      </trkpt>
      <trkpt lat="41.955863" lon="0.796478">
        <ele>793.036</ele>
        <time>2015-12-19T12:24:53Z</time>
      </trkpt>
      <trkpt lat="41.955809" lon="0.796623">
        <ele>793.068</ele>
        <time>2015-12-19T12:24:56Z</time>
      </trkpt>
      <trkpt lat="41.955781" lon="0.796777">
        <ele>793.042</ele>
        <time>2015-12-19T12:24:59Z</time>
      </trkpt>
      <trkpt lat="41.955782" lon="0.796945">
        <ele>793.026</ele>
        <time>2015-12-19T12:25:02Z</time>
      </trkpt>
      <trkpt lat="41.955784" lon="0.797129">
        <ele>792.008</ele>
        <time>2015-12-19T12:25:05Z</time>
      </trkpt>
      <trkpt lat="41.955780" lon="0.797310">
        <ele>792.097</ele>
        <time>2015-12-19T12:25:08Z</time>
      </trkpt>
      <trkpt lat="41.955746" lon="0.797482">
        <ele>792.097</ele>
        <time>2015-12-19T12:25:11Z</time>
      </trkpt>
      <trkpt lat="41.955702" lon="0.797636">
        <ele>793.063</ele>
        <time>2015-12-19T12:25:14Z</time>
      </trkpt>
      <trkpt lat="41.955669" lon="0.797777">
        <ele>794.027</ele>
        <time>2015-12-19T12:25:17Z</time>
      </trkpt>
      <trkpt lat="41.955656" lon="0.797924">
        <ele>793.031</ele>
        <time>2015-12-19T12:25:20Z</time>
      </trkpt>
      <trkpt lat="41.955673" lon="0.798074">
        <ele>794.019</ele>
        <time>2015-12-19T12:25:23Z</time>
      </trkpt>
      <trkpt lat="41.955716" lon="0.798216">
        <ele>793.065</ele>
        <time>2015-12-19T12:25:26Z</time>
      </trkpt>
      <trkpt lat="41.955760" lon="0.798331">
        <ele>792.065</ele>
        <time>2015-12-19T12:25:28Z</time>
      </trkpt>
      <trkpt lat="41.955794" lon="0.798495">
        <ele>791.082</ele>
        <time>2015-12-19T12:25:30Z</time>
      </trkpt>
      <trkpt lat="41.955804" lon="0.798700">
        <ele>790.043</ele>
        <time>2015-12-19T12:25:32Z</time>
      </trkpt>
      <trkpt lat="41.955816" lon="0.798898">
        <ele>789.017</ele>
        <time>2015-12-19T12:25:34Z</time>
      </trkpt>
      <trkpt lat="41.955822" lon="0.799078">
        <ele>789.008</ele>
        <time>2015-12-19T12:25:36Z</time>
      </trkpt>
      <trkpt lat="41.955825" lon="0.799256">
        <ele>788.029</ele>
        <time>2015-12-19T12:25:38Z</time>
      </trkpt>
      <trkpt lat="41.955845" lon="0.799418">
        <ele>789.069</ele>
        <time>2015-12-19T12:25:40Z</time>
      </trkpt>
      <trkpt lat="41.955858" lon="0.799562">
        <ele>789.085</ele>
        <time>2015-12-19T12:25:42Z</time>
      </trkpt>
      <trkpt lat="41.955852" lon="0.799685">
        <ele>790.079</ele>
        <time>2015-12-19T12:25:44Z</time>
      </trkpt>
      <trkpt lat="41.955842" lon="0.799806">
        <ele>790.023</ele>
        <time>2015-12-19T12:25:46Z</time>
      </trkpt>
      <trkpt lat="41.955818" lon="0.799966">
        <ele>791.031</ele>
        <time>2015-12-19T12:25:49Z</time>
      </trkpt>
      <trkpt lat="41.955794" lon="0.800132">
        <ele>791.057</ele>
        <time>2015-12-19T12:25:52Z</time>
      </trkpt>
      <trkpt lat="41.955786" lon="0.800262">
        <ele>790.077</ele>
        <time>2015-12-19T12:25:54Z</time>
      </trkpt>
      <trkpt lat="41.955770" lon="0.800420">
        <ele>788.075</ele>
        <time>2015-12-19T12:25:56Z</time>
      </trkpt>
      <trkpt lat="41.955728" lon="0.800572">
        <ele>787.028</ele>
        <time>2015-12-19T12:25:58Z</time>
      </trkpt>
      <trkpt lat="41.955667" lon="0.800714">
        <ele>786.020</ele>
        <time>2015-12-19T12:26:00Z</time>
      </trkpt>
      <trkpt lat="41.955594" lon="0.800858">
        <ele>786.008</ele>
        <time>2015-12-19T12:26:02Z</time>
      </trkpt>
      <trkpt lat="41.955552" lon="0.801030">
        <ele>784.088</ele>
        <time>2015-12-19T12:26:04Z</time>
      </trkpt>
      <trkpt lat="41.955532" lon="0.801226">
        <ele>782.088</ele>
        <time>2015-12-19T12:26:06Z</time>
      </trkpt>
      <trkpt lat="41.955548" lon="0.801404">
        <ele>782.084</ele>
        <time>2015-12-19T12:26:08Z</time>
      </trkpt>
      <trkpt lat="41.955590" lon="0.801554">
        <ele>782.068</ele>
        <time>2015-12-19T12:26:10Z</time>
      </trkpt>
      <trkpt lat="41.955653" lon="0.801671">
        <ele>780.082</ele>
        <time>2015-12-19T12:26:11Z</time>
      </trkpt>
      <trkpt lat="41.955702" lon="0.801791">
        <ele>779.090</ele>
        <time>2015-12-19T12:26:13Z</time>
      </trkpt>
      <trkpt lat="41.955737" lon="0.801927">
        <ele>779.016</ele>
        <time>2015-12-19T12:26:15Z</time>
      </trkpt>
      <trkpt lat="41.955753" lon="0.802092">
        <ele>777.056</ele>
        <time>2015-12-19T12:26:17Z</time>
      </trkpt>
      <trkpt lat="41.955753" lon="0.802289">
        <ele>775.057</ele>
        <time>2015-12-19T12:26:19Z</time>
      </trkpt>
      <trkpt lat="41.955734" lon="0.802509">
        <ele>773.000</ele>
        <time>2015-12-19T12:26:21Z</time>
      </trkpt>
      <trkpt lat="41.955711" lon="0.802625">
        <ele>772.020</ele>
        <time>2015-12-19T12:26:22Z</time>
      </trkpt>
      <trkpt lat="41.955670" lon="0.802855">
        <ele>770.008</ele>
        <time>2015-12-19T12:26:25Z</time>
      </trkpt>
      <trkpt lat="41.955617" lon="0.803070">
        <ele>769.016</ele>
        <time>2015-12-19T12:26:27Z</time>
      </trkpt>
      <trkpt lat="41.955569" lon="0.803280">
        <ele>769.026</ele>
        <time>2015-12-19T12:26:29Z</time>
      </trkpt>
      <trkpt lat="41.955530" lon="0.803470">
        <ele>770.022</ele>
        <time>2015-12-19T12:26:31Z</time>
      </trkpt>
      <trkpt lat="41.955498" lon="0.803620">
        <ele>770.086</ele>
        <time>2015-12-19T12:26:33Z</time>
      </trkpt>
      <trkpt lat="41.955473" lon="0.803743">
        <ele>771.080</ele>
        <time>2015-12-19T12:26:35Z</time>
      </trkpt>
      <trkpt lat="41.955444" lon="0.803861">
        <ele>772.068</ele>
        <time>2015-12-19T12:26:37Z</time>
      </trkpt>
      <trkpt lat="41.955417" lon="0.803985">
        <ele>772.034</ele>
        <time>2015-12-19T12:26:39Z</time>
      </trkpt>
      <trkpt lat="41.955383" lon="0.804146">
        <ele>771.074</ele>
        <time>2015-12-19T12:26:42Z</time>
      </trkpt>
      <trkpt lat="41.955348" lon="0.804258">
        <ele>771.026</ele>
        <time>2015-12-19T12:26:44Z</time>
      </trkpt>
      <trkpt lat="41.955288" lon="0.804415">
        <ele>771.047</ele>
        <time>2015-12-19T12:26:47Z</time>
      </trkpt>
      <trkpt lat="41.955199" lon="0.804523">
        <ele>772.011</ele>
        <time>2015-12-19T12:26:50Z</time>
      </trkpt>
      <trkpt lat="41.955103" lon="0.804623">
        <ele>772.008</ele>
        <time>2015-12-19T12:26:53Z</time>
      </trkpt>
      <trkpt lat="41.955019" lon="0.804732">
        <ele>772.053</ele>
        <time>2015-12-19T12:26:56Z</time>
      </trkpt>
      <trkpt lat="41.954959" lon="0.804827">
        <ele>772.033</ele>
        <time>2015-12-19T12:26:59Z</time>
      </trkpt>
      <trkpt lat="41.954910" lon="0.804947">
        <ele>772.059</ele>
        <time>2015-12-19T12:27:03Z</time>
      </trkpt>
      <trkpt lat="41.954927" lon="0.805069">
        <ele>774.013</ele>
        <time>2015-12-19T12:27:09Z</time>
      </trkpt>
      <trkpt lat="41.955020" lon="0.805073">
        <ele>773.017</ele>
        <time>2015-12-19T12:27:15Z</time>
      </trkpt>
      <trkpt lat="41.955116" lon="0.805099">
        <ele>773.045</ele>
        <time>2015-12-19T12:27:19Z</time>
      </trkpt>
      <trkpt lat="41.955243" lon="0.805136">
        <ele>772.021</ele>
        <time>2015-12-19T12:27:23Z</time>
      </trkpt>
      <trkpt lat="41.955334" lon="0.805170">
        <ele>771.071</ele>
        <time>2015-12-19T12:27:25Z</time>
      </trkpt>
      <trkpt lat="41.955453" lon="0.805217">
        <ele>770.035</ele>
        <time>2015-12-19T12:27:27Z</time>
      </trkpt>
      <trkpt lat="41.955586" lon="0.805274">
        <ele>768.086</ele>
        <time>2015-12-19T12:27:29Z</time>
      </trkpt>
      <trkpt lat="41.955728" lon="0.805329">
        <ele>767.014</ele>
        <time>2015-12-19T12:27:31Z</time>
      </trkpt>
      <trkpt lat="41.955891" lon="0.805406">
        <ele>765.008</ele>
        <time>2015-12-19T12:27:33Z</time>
      </trkpt>
      <trkpt lat="41.955980" lon="0.805448">
        <ele>765.064</ele>
        <time>2015-12-19T12:27:34Z</time>
      </trkpt>
      <trkpt lat="41.956068" lon="0.805487">
        <ele>763.064</ele>
        <time>2015-12-19T12:27:35Z</time>
      </trkpt>
      <trkpt lat="41.956238" lon="0.805571">
        <ele>762.060</ele>
        <time>2015-12-19T12:27:37Z</time>
      </trkpt>
      <trkpt lat="41.956388" lon="0.805641">
        <ele>761.094</ele>
        <time>2015-12-19T12:27:39Z</time>
      </trkpt>
      <trkpt lat="41.956505" lon="0.805728">
        <ele>760.088</ele>
        <time>2015-12-19T12:27:41Z</time>
      </trkpt>
      <trkpt lat="41.956598" lon="0.805857">
        <ele>759.056</ele>
        <time>2015-12-19T12:27:43Z</time>
      </trkpt>
      <trkpt lat="41.956673" lon="0.806017">
        <ele>759.092</ele>
        <time>2015-12-19T12:27:45Z</time>
      </trkpt>
      <trkpt lat="41.956724" lon="0.806185">
        <ele>757.092</ele>
        <time>2015-12-19T12:27:47Z</time>
      </trkpt>
      <trkpt lat="41.956761" lon="0.806358">
        <ele>756.043</ele>
        <time>2015-12-19T12:27:49Z</time>
      </trkpt>
      <trkpt lat="41.956793" lon="0.806538">
        <ele>755.064</ele>
        <time>2015-12-19T12:27:51Z</time>
      </trkpt>
      <trkpt lat="41.956824" lon="0.806739">
        <ele>753.010</ele>
        <time>2015-12-19T12:27:53Z</time>
      </trkpt>
      <trkpt lat="41.956847" lon="0.806966">
        <ele>751.008</ele>
        <time>2015-12-19T12:27:55Z</time>
      </trkpt>
      <trkpt lat="41.956863" lon="0.807093">
        <ele>750.085</ele>
        <time>2015-12-19T12:27:56Z</time>
      </trkpt>
      <trkpt lat="41.956922" lon="0.807411">
        <ele>749.025</ele>
        <time>2015-12-19T12:27:58Z</time>
      </trkpt>
      <trkpt lat="41.956989" lon="0.807565">
        <ele>747.071</ele>
        <time>2015-12-19T12:28:00Z</time>
      </trkpt>
      <trkpt lat="41.957096" lon="0.807628">
        <ele>748.025</ele>
        <time>2015-12-19T12:28:02Z</time>
      </trkpt>
      <trkpt lat="41.957204" lon="0.807660">
        <ele>748.049</ele>
        <time>2015-12-19T12:28:04Z</time>
      </trkpt>
      <trkpt lat="41.957298" lon="0.807719">
        <ele>749.047</ele>
        <time>2015-12-19T12:28:07Z</time>
      </trkpt>
      <trkpt lat="41.957388" lon="0.807813">
        <ele>747.083</ele>
        <time>2015-12-19T12:28:09Z</time>
      </trkpt>
      <trkpt lat="41.957455" lon="0.807950">
        <ele>746.073</ele>
        <time>2015-12-19T12:28:11Z</time>
      </trkpt>
      <trkpt lat="41.957504" lon="0.808102">
        <ele>746.086</ele>
        <time>2015-12-19T12:28:13Z</time>
      </trkpt>
      <trkpt lat="41.957535" lon="0.808270">
        <ele>745.060</ele>
        <time>2015-12-19T12:28:15Z</time>
      </trkpt>
      <trkpt lat="41.957572" lon="0.808448">
        <ele>744.026</ele>
        <time>2015-12-19T12:28:17Z</time>
      </trkpt>
      <trkpt lat="41.957583" lon="0.808749">
        <ele>742.008</ele>
        <time>2015-12-19T12:28:20Z</time>
      </trkpt>
      <trkpt lat="41.957578" lon="0.808951">
        <ele>741.089</ele>
        <time>2015-12-19T12:28:22Z</time>
      </trkpt>
      <trkpt lat="41.957552" lon="0.809125">
        <ele>740.059</ele>
        <time>2015-12-19T12:28:24Z</time>
      </trkpt>
      <trkpt lat="41.957541" lon="0.809299">
        <ele>739.075</ele>
        <time>2015-12-19T12:28:26Z</time>
      </trkpt>
      <trkpt lat="41.957579" lon="0.809451">
        <ele>738.019</ele>
        <time>2015-12-19T12:28:28Z</time>
      </trkpt>
      <trkpt lat="41.957651" lon="0.809558">
        <ele>738.063</ele>
        <time>2015-12-19T12:28:30Z</time>
      </trkpt>
      <trkpt lat="41.957713" lon="0.809684">
        <ele>737.031</ele>
        <time>2015-12-19T12:28:32Z</time>
      </trkpt>
      <trkpt lat="41.957763" lon="0.809840">
        <ele>737.097</ele>
        <time>2015-12-19T12:28:34Z</time>
      </trkpt>
      <trkpt lat="41.957801" lon="0.810030">
        <ele>736.087</ele>
        <time>2015-12-19T12:28:36Z</time>
      </trkpt>
      <trkpt lat="41.957824" lon="0.810231">
        <ele>734.075</ele>
        <time>2015-12-19T12:28:38Z</time>
      </trkpt>
      <trkpt lat="41.957854" lon="0.810419">
        <ele>733.028</ele>
        <time>2015-12-19T12:28:40Z</time>
      </trkpt>
      <trkpt lat="41.957900" lon="0.810608">
        <ele>733.020</ele>
        <time>2015-12-19T12:28:42Z</time>
      </trkpt>
      <trkpt lat="41.957955" lon="0.810781">
        <ele>733.008</ele>
        <time>2015-12-19T12:28:44Z</time>
      </trkpt>
      <trkpt lat="41.957998" lon="0.810963">
        <ele>732.018</ele>
        <time>2015-12-19T12:28:46Z</time>
      </trkpt>
      <trkpt lat="41.957994" lon="0.811162">
        <ele>730.028</ele>
        <time>2015-12-19T12:28:48Z</time>
      </trkpt>
      <trkpt lat="41.958032" lon="0.811357">
        <ele>730.074</ele>
        <time>2015-12-19T12:28:50Z</time>
      </trkpt>
      <trkpt lat="41.958121" lon="0.811548">
        <ele>729.038</ele>
        <time>2015-12-19T12:28:52Z</time>
      </trkpt>
      <trkpt lat="41.958210" lon="0.811726">
        <ele>727.062</ele>
        <time>2015-12-19T12:28:54Z</time>
      </trkpt>
      <trkpt lat="41.958294" lon="0.811930">
        <ele>727.040</ele>
        <time>2015-12-19T12:28:56Z</time>
      </trkpt>
      <trkpt lat="41.958331" lon="0.812044">
        <ele>726.046</ele>
        <time>2015-12-19T12:28:57Z</time>
      </trkpt>
      <trkpt lat="41.958406" lon="0.812232">
        <ele>725.066</ele>
        <time>2015-12-19T12:28:59Z</time>
      </trkpt>
      <trkpt lat="41.958497" lon="0.812393">
        <ele>724.018</ele>
        <time>2015-12-19T12:29:01Z</time>
      </trkpt>
      <trkpt lat="41.958606" lon="0.812550">
        <ele>722.098</ele>
        <time>2015-12-19T12:29:03Z</time>
      </trkpt>
      <trkpt lat="41.958675" lon="0.812706">
        <ele>721.017</ele>
        <time>2015-12-19T12:29:05Z</time>
      </trkpt>
      <trkpt lat="41.958702" lon="0.812895">
        <ele>720.008</ele>
        <time>2015-12-19T12:29:07Z</time>
      </trkpt>
      <trkpt lat="41.958690" lon="0.813088">
        <ele>718.042</ele>
        <time>2015-12-19T12:29:09Z</time>
      </trkpt>
      <trkpt lat="41.958690" lon="0.813265">
        <ele>717.022</ele>
        <time>2015-12-19T12:29:11Z</time>
      </trkpt>
      <trkpt lat="41.958758" lon="0.813433">
        <ele>716.098</ele>
        <time>2015-12-19T12:29:13Z</time>
      </trkpt>
      <trkpt lat="41.958828" lon="0.813599">
        <ele>715.032</ele>
        <time>2015-12-19T12:29:15Z</time>
      </trkpt>
      <trkpt lat="41.958890" lon="0.813794">
        <ele>713.076</ele>
        <time>2015-12-19T12:29:17Z</time>
      </trkpt>
      <trkpt lat="41.958965" lon="0.814118">
        <ele>711.034</ele>
        <time>2015-12-19T12:29:19Z</time>
      </trkpt>
      <trkpt lat="41.958994" lon="0.814239">
        <ele>711.090</ele>
        <time>2015-12-19T12:29:20Z</time>
      </trkpt>
      <trkpt lat="41.959044" lon="0.814452">
        <ele>710.030</ele>
        <time>2015-12-19T12:29:22Z</time>
      </trkpt>
      <trkpt lat="41.959085" lon="0.814676">
        <ele>710.074</ele>
        <time>2015-12-19T12:29:24Z</time>
      </trkpt>
      <trkpt lat="41.959109" lon="0.814800">
        <ele>708.056</ele>
        <time>2015-12-19T12:29:25Z</time>
      </trkpt>
      <trkpt lat="41.959130" lon="0.814923">
        <ele>707.021</ele>
        <time>2015-12-19T12:29:26Z</time>
      </trkpt>
      <trkpt lat="41.959146" lon="0.815155">
        <ele>706.008</ele>
        <time>2015-12-19T12:29:28Z</time>
      </trkpt>
      <trkpt lat="41.959146" lon="0.815356">
        <ele>704.028</ele>
        <time>2015-12-19T12:29:30Z</time>
      </trkpt>
      <trkpt lat="41.959172" lon="0.815489">
        <ele>704.038</ele>
        <time>2015-12-19T12:29:33Z</time>
      </trkpt>
      <trkpt lat="41.959204" lon="0.815630">
        <ele>702.074</ele>
        <time>2015-12-19T12:29:37Z</time>
      </trkpt>
      <trkpt lat="41.959231" lon="0.815801">
        <ele>701.068</ele>
        <time>2015-12-19T12:29:40Z</time>
      </trkpt>
      <trkpt lat="41.959260" lon="0.815946">
        <ele>701.082</ele>
        <time>2015-12-19T12:29:43Z</time>
      </trkpt>
      <trkpt lat="41.959291" lon="0.816114">
        <ele>700.070</ele>
        <time>2015-12-19T12:29:45Z</time>
      </trkpt>
      <trkpt lat="41.959299" lon="0.816294">
        <ele>699.026</ele>
        <time>2015-12-19T12:29:47Z</time>
      </trkpt>
      <trkpt lat="41.959319" lon="0.816499">
        <ele>698.086</ele>
        <time>2015-12-19T12:29:49Z</time>
      </trkpt>
      <trkpt lat="41.959346" lon="0.816719">
        <ele>696.024</ele>
        <time>2015-12-19T12:29:51Z</time>
      </trkpt>
      <trkpt lat="41.959358" lon="0.816940">
        <ele>695.004</ele>
        <time>2015-12-19T12:29:53Z</time>
      </trkpt>
      <trkpt lat="41.959374" lon="0.817165">
        <ele>694.014</ele>
        <time>2015-12-19T12:29:55Z</time>
      </trkpt>
      <trkpt lat="41.959387" lon="0.817294">
        <ele>693.008</ele>
        <time>2015-12-19T12:29:56Z</time>
      </trkpt>
      <trkpt lat="41.959411" lon="0.817527">
        <ele>691.063</ele>
        <time>2015-12-19T12:29:58Z</time>
      </trkpt>
      <trkpt lat="41.959435" lon="0.817649">
        <ele>690.093</ele>
        <time>2015-12-19T12:29:59Z</time>
      </trkpt>
      <trkpt lat="41.959495" lon="0.817880">
        <ele>689.089</ele>
        <time>2015-12-19T12:30:01Z</time>
      </trkpt>
      <trkpt lat="41.959530" lon="0.818082">
        <ele>688.023</ele>
        <time>2015-12-19T12:30:03Z</time>
      </trkpt>
      <trkpt lat="41.959552" lon="0.818279">
        <ele>686.037</ele>
        <time>2015-12-19T12:30:05Z</time>
      </trkpt>
      <trkpt lat="41.959625" lon="0.818455">
        <ele>685.035</ele>
        <time>2015-12-19T12:30:07Z</time>
      </trkpt>
      <trkpt lat="41.959743" lon="0.818620">
        <ele>683.081</ele>
        <time>2015-12-19T12:30:09Z</time>
      </trkpt>
      <trkpt lat="41.959849" lon="0.818777">
        <ele>681.051</ele>
        <time>2015-12-19T12:30:11Z</time>
      </trkpt>
      <trkpt lat="41.959892" lon="0.818882">
        <ele>680.094</ele>
        <time>2015-12-19T12:30:12Z</time>
      </trkpt>
      <trkpt lat="41.959936" lon="0.819096">
        <ele>679.057</ele>
        <time>2015-12-19T12:30:14Z</time>
      </trkpt>
      <trkpt lat="41.959960" lon="0.819327">
        <ele>677.022</ele>
        <time>2015-12-19T12:30:16Z</time>
      </trkpt>
      <trkpt lat="41.959975" lon="0.819451">
        <ele>676.008</ele>
        <time>2015-12-19T12:30:17Z</time>
      </trkpt>
      <trkpt lat="41.959992" lon="0.819572">
        <ele>674.050</ele>
        <time>2015-12-19T12:30:18Z</time>
      </trkpt>
      <trkpt lat="41.960011" lon="0.819695">
        <ele>673.060</ele>
        <time>2015-12-19T12:30:19Z</time>
      </trkpt>
      <trkpt lat="41.960039" lon="0.819838">
        <ele>673.086</ele>
        <time>2015-12-19T12:30:20Z</time>
      </trkpt>
      <trkpt lat="41.960062" lon="0.819973">
        <ele>672.060</ele>
        <time>2015-12-19T12:30:21Z</time>
      </trkpt>
      <trkpt lat="41.960081" lon="0.820109">
        <ele>672.064</ele>
        <time>2015-12-19T12:30:22Z</time>
      </trkpt>
      <trkpt lat="41.960101" lon="0.820239">
        <ele>671.022</ele>
        <time>2015-12-19T12:30:23Z</time>
      </trkpt>
      <trkpt lat="41.960137" lon="0.820488">
        <ele>669.038</ele>
        <time>2015-12-19T12:30:25Z</time>
      </trkpt>
      <trkpt lat="41.960172" lon="0.820714">
        <ele>667.088</ele>
        <time>2015-12-19T12:30:27Z</time>
      </trkpt>
      <trkpt lat="41.960197" lon="0.820840">
        <ele>667.092</ele>
        <time>2015-12-19T12:30:28Z</time>
      </trkpt>
      <trkpt lat="41.960229" lon="0.821072">
        <ele>666.073</ele>
        <time>2015-12-19T12:30:30Z</time>
      </trkpt>
      <trkpt lat="41.960240" lon="0.821194">
        <ele>665.020</ele>
        <time>2015-12-19T12:30:31Z</time>
      </trkpt>
      <trkpt lat="41.960257" lon="0.821438">
        <ele>663.008</ele>
        <time>2015-12-19T12:30:33Z</time>
      </trkpt>
      <trkpt lat="41.960287" lon="0.821652">
        <ele>662.060</ele>
        <time>2015-12-19T12:30:35Z</time>
      </trkpt>
      <trkpt lat="41.960309" lon="0.821770">
        <ele>661.070</ele>
        <time>2015-12-19T12:30:36Z</time>
      </trkpt>
      <trkpt lat="41.960374" lon="0.821985">
        <ele>660.096</ele>
        <time>2015-12-19T12:30:38Z</time>
      </trkpt>
      <trkpt lat="41.960441" lon="0.822181">
        <ele>658.090</ele>
        <time>2015-12-19T12:30:40Z</time>
      </trkpt>
      <trkpt lat="41.960532" lon="0.822356">
        <ele>655.084</ele>
        <time>2015-12-19T12:30:42Z</time>
      </trkpt>
      <trkpt lat="41.960622" lon="0.822508">
        <ele>654.022</ele>
        <time>2015-12-19T12:30:44Z</time>
      </trkpt>
      <trkpt lat="41.960692" lon="0.822672">
        <ele>652.058</ele>
        <time>2015-12-19T12:30:46Z</time>
      </trkpt>
      <trkpt lat="41.960746" lon="0.822837">
        <ele>650.048</ele>
        <time>2015-12-19T12:30:48Z</time>
      </trkpt>
      <trkpt lat="41.960809" lon="0.823001">
        <ele>650.099</ele>
        <time>2015-12-19T12:30:50Z</time>
      </trkpt>
      <trkpt lat="41.960851" lon="0.823184">
        <ele>648.007</ele>
        <time>2015-12-19T12:30:52Z</time>
      </trkpt>
      <trkpt lat="41.960855" lon="0.823362">
        <ele>647.027</ele>
        <time>2015-12-19T12:30:54Z</time>
      </trkpt>
      <trkpt lat="41.960866" lon="0.823522">
        <ele>646.008</ele>
        <time>2015-12-19T12:30:56Z</time>
      </trkpt>
      <trkpt lat="41.960886" lon="0.823643">
        <ele>645.090</ele>
        <time>2015-12-19T12:30:58Z</time>
      </trkpt>
      <trkpt lat="41.960968" lon="0.823694">
        <ele>644.090</ele>
        <time>2015-12-19T12:31:01Z</time>
      </trkpt>
      <trkpt lat="41.961031" lon="0.823598">
        <ele>643.096</ele>
        <time>2015-12-19T12:31:04Z</time>
      </trkpt>
      <trkpt lat="41.961062" lon="0.823454">
        <ele>642.050</ele>
        <time>2015-12-19T12:31:07Z</time>
      </trkpt>
      <trkpt lat="41.961118" lon="0.823224">
        <ele>641.024</ele>
        <time>2015-12-19T12:31:10Z</time>
      </trkpt>
      <trkpt lat="41.961144" lon="0.823102">
        <ele>640.022</ele>
        <time>2015-12-19T12:31:12Z</time>
      </trkpt>
      <trkpt lat="41.961149" lon="0.822957">
        <ele>639.088</ele>
        <time>2015-12-19T12:31:14Z</time>
      </trkpt>
      <trkpt lat="41.961139" lon="0.822820">
        <ele>639.038</ele>
        <time>2015-12-19T12:31:16Z</time>
      </trkpt>
      <trkpt lat="41.961129" lon="0.822679">
        <ele>637.075</ele>
        <time>2015-12-19T12:31:19Z</time>
      </trkpt>
      <trkpt lat="41.961227" lon="0.822746">
        <ele>636.028</ele>
        <time>2015-12-19T12:32:04Z</time>
      </trkpt>
      <trkpt lat="41.961258" lon="0.822861">
        <ele>635.020</ele>
        <time>2015-12-19T12:32:06Z</time>
      </trkpt>
      <trkpt lat="41.961316" lon="0.823001">
        <ele>634.008</ele>
        <time>2015-12-19T12:32:08Z</time>
      </trkpt>
      <trkpt lat="41.961374" lon="0.823156">
        <ele>634.028</ele>
        <time>2015-12-19T12:32:10Z</time>
      </trkpt>
      <trkpt lat="41.961440" lon="0.823301">
        <ele>632.018</ele>
        <time>2015-12-19T12:32:12Z</time>
      </trkpt>
      <trkpt lat="41.961542" lon="0.823427">
        <ele>631.094</ele>
        <time>2015-12-19T12:32:14Z</time>
      </trkpt>
      <trkpt lat="41.961661" lon="0.823553">
        <ele>628.048</ele>
        <time>2015-12-19T12:32:16Z</time>
      </trkpt>
      <trkpt lat="41.961731" lon="0.823630">
        <ele>626.042</ele>
        <time>2015-12-19T12:32:17Z</time>
      </trkpt>
      <trkpt lat="41.961851" lon="0.823787">
        <ele>624.070</ele>
        <time>2015-12-19T12:32:19Z</time>
      </trkpt>
      <trkpt lat="41.961915" lon="0.823885">
        <ele>623.086</ele>
        <time>2015-12-19T12:32:20Z</time>
      </trkpt>
      <trkpt lat="41.962029" lon="0.824069">
        <ele>621.086</ele>
        <time>2015-12-19T12:32:22Z</time>
      </trkpt>
      <trkpt lat="41.962090" lon="0.824163">
        <ele>620.039</ele>
        <time>2015-12-19T12:32:23Z</time>
      </trkpt>
      <trkpt lat="41.962209" lon="0.824331">
        <ele>618.001</ele>
        <time>2015-12-19T12:32:25Z</time>
      </trkpt>
      <trkpt lat="41.962315" lon="0.824487">
        <ele>616.021</ele>
        <time>2015-12-19T12:32:27Z</time>
      </trkpt>
      <trkpt lat="41.962424" lon="0.824642">
        <ele>614.008</ele>
        <time>2015-12-19T12:32:29Z</time>
      </trkpt>
      <trkpt lat="41.962528" lon="0.824799">
        <ele>611.014</ele>
        <time>2015-12-19T12:32:31Z</time>
      </trkpt>
      <trkpt lat="41.962635" lon="0.824955">
        <ele>609.074</ele>
        <time>2015-12-19T12:32:33Z</time>
      </trkpt>
      <trkpt lat="41.962750" lon="0.825120">
        <ele>606.090</ele>
        <time>2015-12-19T12:32:35Z</time>
      </trkpt>
      <trkpt lat="41.962815" lon="0.825228">
        <ele>605.044</ele>
        <time>2015-12-19T12:32:36Z</time>
      </trkpt>
      <trkpt lat="41.962867" lon="0.825330">
        <ele>604.088</ele>
        <time>2015-12-19T12:32:37Z</time>
      </trkpt>
      <trkpt lat="41.962933" lon="0.825441">
        <ele>604.086</ele>
        <time>2015-12-19T12:32:38Z</time>
      </trkpt>
      <trkpt lat="41.962998" lon="0.825546">
        <ele>602.032</ele>
        <time>2015-12-19T12:32:39Z</time>
      </trkpt>
      <trkpt lat="41.963109" lon="0.825739">
        <ele>600.032</ele>
        <time>2015-12-19T12:32:41Z</time>
      </trkpt>
      <trkpt lat="41.963202" lon="0.825915">
        <ele>598.051</ele>
        <time>2015-12-19T12:32:43Z</time>
      </trkpt>
      <trkpt lat="41.963299" lon="0.826085">
        <ele>596.001</ele>
        <time>2015-12-19T12:32:45Z</time>
      </trkpt>
      <trkpt lat="41.963367" lon="0.826280">
        <ele>595.011</ele>
        <time>2015-12-19T12:32:47Z</time>
      </trkpt>
      <trkpt lat="41.963372" lon="0.826448">
        <ele>594.008</ele>
        <time>2015-12-19T12:32:49Z</time>
      </trkpt>
      <trkpt lat="41.963344" lon="0.826591">
        <ele>594.046</ele>
        <time>2015-12-19T12:32:51Z</time>
      </trkpt>
      <trkpt lat="41.963273" lon="0.826708">
        <ele>592.016</ele>
        <time>2015-12-19T12:32:53Z</time>
      </trkpt>
      <trkpt lat="41.963170" lon="0.826800">
        <ele>591.082</ele>
        <time>2015-12-19T12:32:55Z</time>
      </trkpt>
      <trkpt lat="41.963062" lon="0.826859">
        <ele>590.086</ele>
        <time>2015-12-19T12:32:57Z</time>
      </trkpt>
      <trkpt lat="41.963006" lon="0.826954">
        <ele>589.020</ele>
        <time>2015-12-19T12:32:59Z</time>
      </trkpt>
      <trkpt lat="41.963028" lon="0.827073">
        <ele>589.028</ele>
        <time>2015-12-19T12:33:01Z</time>
      </trkpt>
      <trkpt lat="41.963131" lon="0.827230">
        <ele>587.024</ele>
        <time>2015-12-19T12:33:03Z</time>
      </trkpt>
      <trkpt lat="41.963213" lon="0.827355">
        <ele>585.044</ele>
        <time>2015-12-19T12:33:05Z</time>
      </trkpt>
      <trkpt lat="41.963340" lon="0.827604">
        <ele>583.042</ele>
        <time>2015-12-19T12:33:08Z</time>
      </trkpt>
      <trkpt lat="41.963423" lon="0.827778">
        <ele>583.022</ele>
        <time>2015-12-19T12:33:10Z</time>
      </trkpt>
      <trkpt lat="41.963508" lon="0.827936">
        <ele>580.014</ele>
        <time>2015-12-19T12:33:12Z</time>
      </trkpt>
      <trkpt lat="41.963586" lon="0.828098">
        <ele>579.008</ele>
        <time>2015-12-19T12:33:14Z</time>
      </trkpt>
      <trkpt lat="41.963641" lon="0.828197">
        <ele>579.055</ele>
        <time>2015-12-19T12:33:15Z</time>
      </trkpt>
      <trkpt lat="41.963733" lon="0.828396">
        <ele>577.025</ele>
        <time>2015-12-19T12:33:17Z</time>
      </trkpt>
      <trkpt lat="41.963810" lon="0.828539">
        <ele>576.041</ele>
        <time>2015-12-19T12:33:19Z</time>
      </trkpt>
      <trkpt lat="41.963862" lon="0.828681">
        <ele>575.095</ele>
        <time>2015-12-19T12:33:22Z</time>
      </trkpt>
      <trkpt lat="41.963893" lon="0.828797">
        <ele>576.049</ele>
        <time>2015-12-19T12:33:28Z</time>
      </trkpt>
      <trkpt lat="41.963987" lon="0.828800">
        <ele>571.077</ele>
        <time>2015-12-19T12:34:36Z</time>
      </trkpt>
      <trkpt lat="41.963928" lon="0.828698">
        <ele>572.053</ele>
        <time>2015-12-19T12:35:35Z</time>
      </trkpt>
      <trkpt lat="41.963921" lon="0.828573">
        <ele>570.033</ele>
        <time>2015-12-19T12:35:45Z</time>
      </trkpt>
      <trkpt lat="41.963899" lon="0.828453">
        <ele>568.025</ele>
        <time>2015-12-19T12:35:58Z</time>
      </trkpt>
      <trkpt lat="41.963897" lon="0.828326">
        <ele>567.026</ele>
        <time>2015-12-19T12:36:11Z</time>
      </trkpt>
      <trkpt lat="41.963992" lon="0.828316">
        <ele>566.008</ele>
        <time>2015-12-19T12:36:24Z</time>
      </trkpt>
      <trkpt lat="41.964072" lon="0.828371">
        <ele>562.008</ele>
        <time>2015-12-19T12:36:44Z</time>
      </trkpt>
      <trkpt lat="41.964055" lon="0.828493">
        <ele>559.093</ele>
        <time>2015-12-19T12:38:00Z</time>
      </trkpt>
      <trkpt lat="41.964101" lon="0.828386">
        <ele>560.073</ele>
        <time>2015-12-19T12:40:15Z</time>
      </trkpt>
      <trkpt lat="41.964023" lon="0.828322">
        <ele>561.099</ele>
        <time>2015-12-19T12:42:24Z</time>
      </trkpt>
      <trkpt lat="41.963936" lon="0.828291">
        <ele>567.023</ele>
        <time>2015-12-19T12:43:01Z</time>
      </trkpt>
      <trkpt lat="41.963905" lon="0.828412">
        <ele>570.037</ele>
        <time>2015-12-19T12:43:11Z</time>
      </trkpt>
      <trkpt lat="41.963904" lon="0.828537">
        <ele>572.045</ele>
        <time>2015-12-19T12:43:27Z</time>
      </trkpt>
      <trkpt lat="41.963906" lon="0.828665">
        <ele>576.021</ele>
        <time>2015-12-19T12:43:40Z</time>
      </trkpt>
      <trkpt lat="41.963912" lon="0.828790">
        <ele>577.071</ele>
        <time>2015-12-19T12:43:55Z</time>
      </trkpt>
      <trkpt lat="41.963877" lon="0.828916">
        <ele>576.053</ele>
        <time>2015-12-19T12:45:07Z</time>
      </trkpt>
      <trkpt lat="41.963876" lon="0.829052">
        <ele>576.004</ele>
        <time>2015-12-19T12:45:15Z</time>
      </trkpt>
      <trkpt lat="41.963873" lon="0.829180">
        <ele>575.014</ele>
        <time>2015-12-19T12:45:22Z</time>
      </trkpt>
      <trkpt lat="41.963871" lon="0.829322">
        <ele>576.008</ele>
        <time>2015-12-19T12:45:27Z</time>
      </trkpt>
      <trkpt lat="41.963851" lon="0.829450">
        <ele>577.036</ele>
        <time>2015-12-19T12:45:32Z</time>
      </trkpt>
      <trkpt lat="41.963845" lon="0.829601">
        <ele>577.066</ele>
        <time>2015-12-19T12:45:37Z</time>
      </trkpt>
      <trkpt lat="41.963846" lon="0.829740">
        <ele>576.022</ele>
        <time>2015-12-19T12:45:41Z</time>
      </trkpt>
      <trkpt lat="41.963844" lon="0.829862">
        <ele>576.056</ele>
        <time>2015-12-19T12:45:44Z</time>
      </trkpt>
      <trkpt lat="41.963864" lon="0.829988">
        <ele>575.080</ele>
        <time>2015-12-19T12:45:47Z</time>
      </trkpt>
      <trkpt lat="41.963901" lon="0.830144">
        <ele>575.068</ele>
        <time>2015-12-19T12:45:50Z</time>
      </trkpt>
      <trkpt lat="41.963925" lon="0.830344">
        <ele>575.064</ele>
        <time>2015-12-19T12:45:53Z</time>
      </trkpt>
      <trkpt lat="41.963915" lon="0.830499">
        <ele>575.024</ele>
        <time>2015-12-19T12:45:56Z</time>
      </trkpt>
      <trkpt lat="41.963901" lon="0.830632">
        <ele>576.031</ele>
        <time>2015-12-19T12:45:58Z</time>
      </trkpt>
      <trkpt lat="41.963890" lon="0.830778">
        <ele>576.061</ele>
        <time>2015-12-19T12:46:02Z</time>
      </trkpt>
      <trkpt lat="41.963897" lon="0.830937">
        <ele>577.007</ele>
        <time>2015-12-19T12:46:06Z</time>
      </trkpt>
      <trkpt lat="41.963847" lon="0.831077">
        <ele>576.008</ele>
        <time>2015-12-19T12:46:11Z</time>
      </trkpt>
      <trkpt lat="41.963776" lon="0.831185">
        <ele>575.094</ele>
        <time>2015-12-19T12:46:15Z</time>
      </trkpt>
      <trkpt lat="41.963755" lon="0.831318">
        <ele>574.054</ele>
        <time>2015-12-19T12:46:19Z</time>
      </trkpt>
      <trkpt lat="41.963696" lon="0.831412">
        <ele>573.050</ele>
        <time>2015-12-19T12:46:28Z</time>
      </trkpt>
      <trkpt lat="41.963590" lon="0.831422">
        <ele>573.074</ele>
        <time>2015-12-19T12:46:34Z</time>
      </trkpt>
      <trkpt lat="41.963483" lon="0.831477">
        <ele>573.038</ele>
        <time>2015-12-19T12:46:39Z</time>
      </trkpt>
      <trkpt lat="41.963393" lon="0.831546">
        <ele>574.036</ele>
        <time>2015-12-19T12:46:43Z</time>
      </trkpt>
      <trkpt lat="41.963311" lon="0.831614">
        <ele>575.052</ele>
        <time>2015-12-19T12:46:47Z</time>
      </trkpt>
      <trkpt lat="41.963298" lon="0.831760">
        <ele>573.042</ele>
        <time>2015-12-19T12:46:52Z</time>
      </trkpt>
      <trkpt lat="41.963334" lon="0.831924">
        <ele>572.082</ele>
        <time>2015-12-19T12:46:55Z</time>
      </trkpt>
      <trkpt lat="41.963287" lon="0.832062">
        <ele>573.043</ele>
        <time>2015-12-19T12:46:58Z</time>
      </trkpt>
      <trkpt lat="41.963215" lon="0.832185">
        <ele>573.017</ele>
        <time>2015-12-19T12:47:02Z</time>
      </trkpt>
      <trkpt lat="41.963149" lon="0.832297">
        <ele>573.008</ele>
        <time>2015-12-19T12:47:06Z</time>
      </trkpt>
      <trkpt lat="41.963054" lon="0.832395">
        <ele>574.089</ele>
        <time>2015-12-19T12:47:10Z</time>
      </trkpt>
      <trkpt lat="41.963024" lon="0.832546">
        <ele>572.019</ele>
        <time>2015-12-19T12:47:13Z</time>
      </trkpt>
      <trkpt lat="41.962992" lon="0.832699">
        <ele>571.025</ele>
        <time>2015-12-19T12:47:15Z</time>
      </trkpt>
      <trkpt lat="41.962954" lon="0.832855">
        <ele>570.019</ele>
        <time>2015-12-19T12:47:17Z</time>
      </trkpt>
      <trkpt lat="41.962921" lon="0.832992">
        <ele>570.033</ele>
        <time>2015-12-19T12:47:19Z</time>
      </trkpt>
      <trkpt lat="41.962895" lon="0.833127">
        <ele>571.031</ele>
        <time>2015-12-19T12:47:22Z</time>
      </trkpt>
      <trkpt lat="41.962871" lon="0.833249">
        <ele>570.037</ele>
        <time>2015-12-19T12:47:24Z</time>
      </trkpt>
      <trkpt lat="41.962846" lon="0.833386">
        <ele>570.087</ele>
        <time>2015-12-19T12:47:27Z</time>
      </trkpt>
      <trkpt lat="41.962820" lon="0.833507">
        <ele>571.011</ele>
        <time>2015-12-19T12:47:30Z</time>
      </trkpt>
      <trkpt lat="41.962780" lon="0.833659">
        <ele>572.021</ele>
        <time>2015-12-19T12:47:34Z</time>
      </trkpt>
      <trkpt lat="41.962751" lon="0.833800">
        <ele>573.003</ele>
        <time>2015-12-19T12:47:38Z</time>
      </trkpt>
      <trkpt lat="41.962725" lon="0.833943">
        <ele>575.008</ele>
        <time>2015-12-19T12:47:43Z</time>
      </trkpt>
      <trkpt lat="41.962688" lon="0.834082">
        <ele>575.062</ele>
        <time>2015-12-19T12:47:48Z</time>
      </trkpt>
      <trkpt lat="41.962666" lon="0.834203">
        <ele>576.032</ele>
        <time>2015-12-19T12:47:52Z</time>
      </trkpt>
      <trkpt lat="41.962636" lon="0.834322">
        <ele>577.078</ele>
        <time>2015-12-19T12:47:56Z</time>
      </trkpt>
      <trkpt lat="41.962615" lon="0.834471">
        <ele>577.022</ele>
        <time>2015-12-19T12:48:01Z</time>
      </trkpt>
      <trkpt lat="41.962590" lon="0.834610">
        <ele>577.066</ele>
        <time>2015-12-19T12:48:05Z</time>
      </trkpt>
      <trkpt lat="41.962557" lon="0.834727">
        <ele>577.054</ele>
        <time>2015-12-19T12:48:08Z</time>
      </trkpt>
      <trkpt lat="41.962518" lon="0.834839">
        <ele>577.050</ele>
        <time>2015-12-19T12:48:11Z</time>
      </trkpt>
      <trkpt lat="41.962499" lon="0.834961">
        <ele>578.080</ele>
        <time>2015-12-19T12:48:14Z</time>
      </trkpt>
      <trkpt lat="41.962464" lon="0.835072">
        <ele>578.081</ele>
        <time>2015-12-19T12:48:17Z</time>
      </trkpt>
      <trkpt lat="41.962416" lon="0.835215">
        <ele>578.061</ele>
        <time>2015-12-19T12:48:21Z</time>
      </trkpt>
      <trkpt lat="41.962376" lon="0.835329">
        <ele>577.017</ele>
        <time>2015-12-19T12:48:24Z</time>
      </trkpt>
      <trkpt lat="41.962338" lon="0.835475">
        <ele>575.008</ele>
        <time>2015-12-19T12:48:27Z</time>
      </trkpt>
      <trkpt lat="41.962309" lon="0.835637">
        <ele>575.099</ele>
        <time>2015-12-19T12:48:30Z</time>
      </trkpt>
      <trkpt lat="41.962288" lon="0.835788">
        <ele>574.079</ele>
        <time>2015-12-19T12:48:33Z</time>
      </trkpt>
      <trkpt lat="41.962253" lon="0.835925">
        <ele>572.085</ele>
        <time>2015-12-19T12:48:37Z</time>
      </trkpt>
      <trkpt lat="41.962221" lon="0.836042">
        <ele>570.099</ele>
        <time>2015-12-19T12:48:43Z</time>
      </trkpt>
      <trkpt lat="41.962259" lon="0.835918">
        <ele>567.063</ele>
        <time>2015-12-19T12:56:17Z</time>
      </trkpt>
      <trkpt lat="41.962286" lon="0.835796">
        <ele>568.021</ele>
        <time>2015-12-19T12:56:23Z</time>
      </trkpt>
      <trkpt lat="41.962304" lon="0.835663">
        <ele>568.037</ele>
        <time>2015-12-19T12:56:30Z</time>
      </trkpt>
      <trkpt lat="41.962322" lon="0.835529">
        <ele>568.067</ele>
        <time>2015-12-19T12:56:36Z</time>
      </trkpt>
      <trkpt lat="41.962355" lon="0.835399">
        <ele>568.082</ele>
        <time>2015-12-19T12:56:42Z</time>
      </trkpt>
      <trkpt lat="41.962394" lon="0.835268">
        <ele>569.043</ele>
        <time>2015-12-19T12:56:48Z</time>
      </trkpt>
      <trkpt lat="41.962434" lon="0.835158">
        <ele>570.017</ele>
        <time>2015-12-19T12:56:53Z</time>
      </trkpt>
      <trkpt lat="41.962471" lon="0.835044">
        <ele>571.008</ele>
        <time>2015-12-19T12:56:58Z</time>
      </trkpt>
      <trkpt lat="41.962507" lon="0.834930">
        <ele>570.099</ele>
        <time>2015-12-19T12:57:03Z</time>
      </trkpt>
      <trkpt lat="41.962528" lon="0.834784">
        <ele>571.079</ele>
        <time>2015-12-19T12:57:09Z</time>
      </trkpt>
      <trkpt lat="41.962562" lon="0.834668">
        <ele>571.095</ele>
        <time>2015-12-19T12:57:13Z</time>
      </trkpt>
      <trkpt lat="41.962596" lon="0.834533">
        <ele>572.019</ele>
        <time>2015-12-19T12:57:18Z</time>
      </trkpt>
      <trkpt lat="41.962618" lon="0.834411">
        <ele>572.053</ele>
        <time>2015-12-19T12:57:22Z</time>
      </trkpt>
      <trkpt lat="41.962644" lon="0.834268">
        <ele>571.061</ele>
        <time>2015-12-19T12:57:26Z</time>
      </trkpt>
      <trkpt lat="41.962675" lon="0.834133">
        <ele>571.027</ele>
        <time>2015-12-19T12:57:29Z</time>
      </trkpt>
      <trkpt lat="41.962705" lon="0.833985">
        <ele>571.057</ele>
        <time>2015-12-19T12:57:32Z</time>
      </trkpt>
      <trkpt lat="41.962736" lon="0.833844">
        <ele>571.073</ele>
        <time>2015-12-19T12:57:35Z</time>
      </trkpt>
      <trkpt lat="41.962782" lon="0.833650">
        <ele>569.085</ele>
        <time>2015-12-19T12:57:38Z</time>
      </trkpt>
      <trkpt lat="41.962819" lon="0.833499">
        <ele>568.013</ele>
        <time>2015-12-19T12:57:40Z</time>
      </trkpt>
      <trkpt lat="41.962856" lon="0.833364">
        <ele>567.008</ele>
        <time>2015-12-19T12:57:42Z</time>
      </trkpt>
      <trkpt lat="41.962883" lon="0.833180">
        <ele>568.028</ele>
        <time>2015-12-19T12:57:45Z</time>
      </trkpt>
      <trkpt lat="41.962907" lon="0.833058">
        <ele>568.078</ele>
        <time>2015-12-19T12:57:47Z</time>
      </trkpt>
      <trkpt lat="41.962937" lon="0.832939">
        <ele>567.074</ele>
        <time>2015-12-19T12:57:49Z</time>
      </trkpt>
      <trkpt lat="41.962968" lon="0.832791">
        <ele>567.038</ele>
        <time>2015-12-19T12:57:52Z</time>
      </trkpt>
      <trkpt lat="41.962995" lon="0.832664">
        <ele>568.062</ele>
        <time>2015-12-19T12:57:55Z</time>
      </trkpt>
      <trkpt lat="41.963028" lon="0.832526">
        <ele>569.060</ele>
        <time>2015-12-19T12:57:59Z</time>
      </trkpt>
      <trkpt lat="41.963054" lon="0.832394">
        <ele>571.026</ele>
        <time>2015-12-19T12:58:03Z</time>
      </trkpt>
      <trkpt lat="41.963108" lon="0.832296">
        <ele>572.056</ele>
        <time>2015-12-19T12:58:08Z</time>
      </trkpt>
      <trkpt lat="41.963185" lon="0.832191">
        <ele>571.051</ele>
        <time>2015-12-19T12:58:14Z</time>
      </trkpt>
      <trkpt lat="41.963240" lon="0.832084">
        <ele>570.001</ele>
        <time>2015-12-19T12:58:17Z</time>
      </trkpt>
      <trkpt lat="41.963302" lon="0.831946">
        <ele>569.011</ele>
        <time>2015-12-19T12:58:20Z</time>
      </trkpt>
      <trkpt lat="41.963321" lon="0.831795">
        <ele>570.008</ele>
        <time>2015-12-19T12:58:23Z</time>
      </trkpt>
      <trkpt lat="41.963284" lon="0.831682">
        <ele>571.076</ele>
        <time>2015-12-19T12:58:30Z</time>
      </trkpt>
      <trkpt lat="41.963354" lon="0.831571">
        <ele>571.096</ele>
        <time>2015-12-19T12:58:37Z</time>
      </trkpt>
      <trkpt lat="41.963456" lon="0.831492">
        <ele>571.062</ele>
        <time>2015-12-19T12:58:41Z</time>
      </trkpt>
      <trkpt lat="41.963551" lon="0.831430">
        <ele>571.016</ele>
        <time>2015-12-19T12:58:45Z</time>
      </trkpt>
      <trkpt lat="41.963645" lon="0.831405">
        <ele>573.050</ele>
        <time>2015-12-19T12:58:49Z</time>
      </trkpt>
      <trkpt lat="41.963732" lon="0.831324">
        <ele>573.048</ele>
        <time>2015-12-19T12:58:54Z</time>
      </trkpt>
      <trkpt lat="41.963758" lon="0.831207">
        <ele>573.024</ele>
        <time>2015-12-19T12:58:58Z</time>
      </trkpt>
      <trkpt lat="41.963809" lon="0.831087">
        <ele>574.024</ele>
        <time>2015-12-19T12:59:03Z</time>
      </trkpt>
      <trkpt lat="41.963870" lon="0.830975">
        <ele>573.027</ele>
        <time>2015-12-19T12:59:09Z</time>
      </trkpt>
      <trkpt lat="41.963875" lon="0.830835">
        <ele>572.068</ele>
        <time>2015-12-19T12:59:14Z</time>
      </trkpt>
      <trkpt lat="41.963890" lon="0.830691">
        <ele>573.014</ele>
        <time>2015-12-19T12:59:19Z</time>
      </trkpt>
      <trkpt lat="41.963906" lon="0.830558">
        <ele>573.008</ele>
        <time>2015-12-19T12:59:23Z</time>
      </trkpt>
      <trkpt lat="41.963916" lon="0.830403">
        <ele>573.093</ele>
        <time>2015-12-19T12:59:26Z</time>
      </trkpt>
      <trkpt lat="41.963926" lon="0.830264">
        <ele>573.043</ele>
        <time>2015-12-19T12:59:29Z</time>
      </trkpt>
      <trkpt lat="41.963906" lon="0.830142">
        <ele>574.079</ele>
        <time>2015-12-19T12:59:33Z</time>
      </trkpt>
      <trkpt lat="41.963875" lon="0.830020">
        <ele>574.093</ele>
        <time>2015-12-19T12:59:38Z</time>
      </trkpt>
      <trkpt lat="41.963847" lon="0.829902">
        <ele>575.017</ele>
        <time>2015-12-19T12:59:44Z</time>
      </trkpt>
      <trkpt lat="41.963849" lon="0.829755">
        <ele>576.085</ele>
        <time>2015-12-19T12:59:50Z</time>
      </trkpt>
      <trkpt lat="41.963847" lon="0.829625">
        <ele>577.061</ele>
        <time>2015-12-19T12:59:55Z</time>
      </trkpt>
      <trkpt lat="41.963844" lon="0.829494">
        <ele>576.061</ele>
        <time>2015-12-19T12:59:59Z</time>
      </trkpt>
      <trkpt lat="41.963856" lon="0.829367">
        <ele>576.014</ele>
        <time>2015-12-19T13:00:04Z</time>
      </trkpt>
      <trkpt lat="41.963887" lon="0.829242">
        <ele>576.054</ele>
        <time>2015-12-19T13:00:07Z</time>
      </trkpt>
      <trkpt lat="41.963893" lon="0.829096">
        <ele>575.009</ele>
        <time>2015-12-19T13:00:10Z</time>
      </trkpt>
      <trkpt lat="41.963887" lon="0.828964">
        <ele>574.008</ele>
        <time>2015-12-19T13:00:13Z</time>
      </trkpt>
      <trkpt lat="41.963876" lon="0.828812">
        <ele>574.042</ele>
        <time>2015-12-19T13:00:18Z</time>
      </trkpt>
      <trkpt lat="41.963854" lon="0.828670">
        <ele>574.092</ele>
        <time>2015-12-19T13:00:22Z</time>
      </trkpt>
      <trkpt lat="41.963812" lon="0.828547">
        <ele>574.028</ele>
        <time>2015-12-19T13:00:27Z</time>
      </trkpt>
      <trkpt lat="41.963746" lon="0.828459">
        <ele>574.062</ele>
        <time>2015-12-19T13:00:32Z</time>
      </trkpt>
      <trkpt lat="41.963685" lon="0.828355">
        <ele>575.026</ele>
        <time>2015-12-19T13:00:37Z</time>
      </trkpt>
      <trkpt lat="41.963641" lon="0.828238">
        <ele>576.074</ele>
        <time>2015-12-19T13:00:43Z</time>
      </trkpt>
      <trkpt lat="41.963585" lon="0.828133">
        <ele>577.090</ele>
        <time>2015-12-19T13:00:51Z</time>
      </trkpt>
      <trkpt lat="41.963518" lon="0.828043">
        <ele>579.060</ele>
        <time>2015-12-19T13:01:00Z</time>
      </trkpt>
      <trkpt lat="41.963462" lon="0.827942">
        <ele>582.082</ele>
        <time>2015-12-19T13:01:09Z</time>
      </trkpt>
      <trkpt lat="41.963416" lon="0.827824">
        <ele>585.043</ele>
        <time>2015-12-19T13:01:18Z</time>
      </trkpt>
      <trkpt lat="41.963362" lon="0.827715">
        <ele>585.017</ele>
        <time>2015-12-19T13:01:26Z</time>
      </trkpt>
      <trkpt lat="41.963312" lon="0.827605">
        <ele>586.008</ele>
        <time>2015-12-19T13:01:34Z</time>
      </trkpt>
      <trkpt lat="41.963254" lon="0.827488">
        <ele>585.079</ele>
        <time>2015-12-19T13:01:42Z</time>
      </trkpt>
      <trkpt lat="41.963187" lon="0.827372">
        <ele>586.099</ele>
        <time>2015-12-19T13:01:50Z</time>
      </trkpt>
      <trkpt lat="41.963125" lon="0.827267">
        <ele>587.015</ele>
        <time>2015-12-19T13:01:58Z</time>
      </trkpt>
      <trkpt lat="41.963062" lon="0.827167">
        <ele>587.029</ele>
        <time>2015-12-19T13:02:05Z</time>
      </trkpt>
      <trkpt lat="41.963013" lon="0.827066">
        <ele>587.043</ele>
        <time>2015-12-19T13:02:11Z</time>
      </trkpt>
      <trkpt lat="41.963012" lon="0.826936">
        <ele>588.051</ele>
        <time>2015-12-19T13:02:19Z</time>
      </trkpt>
      <trkpt lat="41.963089" lon="0.826850">
        <ele>591.027</ele>
        <time>2015-12-19T13:02:27Z</time>
      </trkpt>
      <trkpt lat="41.963171" lon="0.826785">
        <ele>594.047</ele>
        <time>2015-12-19T13:02:35Z</time>
      </trkpt>
      <trkpt lat="41.963245" lon="0.826700">
        <ele>596.037</ele>
        <time>2015-12-19T13:02:43Z</time>
      </trkpt>
      <trkpt lat="41.963315" lon="0.826600">
        <ele>595.049</ele>
        <time>2015-12-19T13:02:51Z</time>
      </trkpt>
      <trkpt lat="41.963348" lon="0.826482">
        <ele>596.013</ele>
        <time>2015-12-19T13:02:58Z</time>
      </trkpt>
      <trkpt lat="41.963355" lon="0.826349">
        <ele>595.008</ele>
        <time>2015-12-19T13:03:06Z</time>
      </trkpt>
      <trkpt lat="41.963328" lon="0.826220">
        <ele>595.084</ele>
        <time>2015-12-19T13:03:14Z</time>
      </trkpt>
      <trkpt lat="41.963280" lon="0.826117">
        <ele>595.094</ele>
        <time>2015-12-19T13:03:21Z</time>
      </trkpt>
      <trkpt lat="41.963220" lon="0.826011">
        <ele>596.010</ele>
        <time>2015-12-19T13:03:29Z</time>
      </trkpt>
      <trkpt lat="41.963160" lon="0.825907">
        <ele>596.044</ele>
        <time>2015-12-19T13:03:37Z</time>
      </trkpt>
      <trkpt lat="41.963098" lon="0.825811">
        <ele>598.098</ele>
        <time>2015-12-19T13:03:45Z</time>
      </trkpt>
      <trkpt lat="41.963047" lon="0.825710">
        <ele>599.026</ele>
        <time>2015-12-19T13:03:54Z</time>
      </trkpt>
      <trkpt lat="41.962985" lon="0.825612">
        <ele>600.062</ele>
        <time>2015-12-19T13:04:03Z</time>
      </trkpt>
      <trkpt lat="41.962934" lon="0.825511">
        <ele>602.022</ele>
        <time>2015-12-19T13:04:12Z</time>
      </trkpt>
      <trkpt lat="41.962880" lon="0.825400">
        <ele>602.082</ele>
        <time>2015-12-19T13:04:21Z</time>
      </trkpt>
      <trkpt lat="41.962820" lon="0.825301">
        <ele>603.043</ele>
        <time>2015-12-19T13:04:30Z</time>
      </trkpt>
      <trkpt lat="41.962756" lon="0.825200">
        <ele>603.017</ele>
        <time>2015-12-19T13:04:40Z</time>
      </trkpt>
      <trkpt lat="41.962690" lon="0.825111">
        <ele>605.008</ele>
        <time>2015-12-19T13:04:49Z</time>
      </trkpt>
      <trkpt lat="41.962632" lon="0.825007">
        <ele>606.029</ele>
        <time>2015-12-19T13:04:59Z</time>
      </trkpt>
      <trkpt lat="41.962553" lon="0.824934">
        <ele>607.029</ele>
        <time>2015-12-19T13:05:08Z</time>
      </trkpt>
      <trkpt lat="41.962492" lon="0.824839">
        <ele>609.065</ele>
        <time>2015-12-19T13:05:19Z</time>
      </trkpt>
      <trkpt lat="41.962429" lon="0.824739">
        <ele>611.049</ele>
        <time>2015-12-19T13:05:29Z</time>
      </trkpt>
      <trkpt lat="41.962368" lon="0.824638">
        <ele>613.093</ele>
        <time>2015-12-19T13:05:37Z</time>
      </trkpt>
      <trkpt lat="41.962309" lon="0.824540">
        <ele>614.071</ele>
        <time>2015-12-19T13:05:45Z</time>
      </trkpt>
      <trkpt lat="41.962243" lon="0.824450">
        <ele>615.027</ele>
        <time>2015-12-19T13:05:53Z</time>
      </trkpt>
      <trkpt lat="41.962181" lon="0.824362">
        <ele>614.067</ele>
        <time>2015-12-19T13:06:02Z</time>
      </trkpt>
      <trkpt lat="41.962125" lon="0.824259">
        <ele>615.085</ele>
        <time>2015-12-19T13:06:11Z</time>
      </trkpt>
      <trkpt lat="41.962058" lon="0.824158">
        <ele>617.089</ele>
        <time>2015-12-19T13:06:20Z</time>
      </trkpt>
      <trkpt lat="41.961991" lon="0.824070">
        <ele>617.017</ele>
        <time>2015-12-19T13:06:28Z</time>
      </trkpt>
      <trkpt lat="41.961922" lon="0.823978">
        <ele>619.008</ele>
        <time>2015-12-19T13:06:37Z</time>
      </trkpt>
      <trkpt lat="41.961857" lon="0.823884">
        <ele>621.049</ele>
        <time>2015-12-19T13:06:46Z</time>
      </trkpt>
      <trkpt lat="41.961789" lon="0.823797">
        <ele>622.049</ele>
        <time>2015-12-19T13:06:54Z</time>
      </trkpt>
      <trkpt lat="41.961728" lon="0.823707">
        <ele>624.015</ele>
        <time>2015-12-19T13:07:02Z</time>
      </trkpt>
      <trkpt lat="41.961654" lon="0.823620">
        <ele>625.079</ele>
        <time>2015-12-19T13:07:11Z</time>
      </trkpt>
      <trkpt lat="41.961587" lon="0.823536">
        <ele>627.053</ele>
        <time>2015-12-19T13:07:20Z</time>
      </trkpt>
      <trkpt lat="41.961519" lon="0.823452">
        <ele>629.091</ele>
        <time>2015-12-19T13:07:28Z</time>
      </trkpt>
      <trkpt lat="41.961456" lon="0.823363">
        <ele>629.087</ele>
        <time>2015-12-19T13:07:34Z</time>
      </trkpt>
      <trkpt lat="41.961400" lon="0.823258">
        <ele>631.087</ele>
        <time>2015-12-19T13:07:43Z</time>
      </trkpt>
      <trkpt lat="41.961349" lon="0.823154">
        <ele>632.085</ele>
        <time>2015-12-19T13:07:53Z</time>
      </trkpt>
      <trkpt lat="41.961289" lon="0.823042">
        <ele>632.089</ele>
        <time>2015-12-19T13:08:07Z</time>
      </trkpt>
      <trkpt lat="41.961250" lon="0.822927">
        <ele>633.017</ele>
        <time>2015-12-19T13:08:14Z</time>
      </trkpt>
      <trkpt lat="41.961204" lon="0.822816">
        <ele>636.008</ele>
        <time>2015-12-19T13:08:22Z</time>
      </trkpt>
      <trkpt lat="41.961149" lon="0.822718">
        <ele>636.019</ele>
        <time>2015-12-19T13:08:30Z</time>
      </trkpt>
      <trkpt lat="41.961145" lon="0.822845">
        <ele>634.069</ele>
        <time>2015-12-19T13:08:39Z</time>
      </trkpt>
      <trkpt lat="41.961154" lon="0.822982">
        <ele>635.055</ele>
        <time>2015-12-19T13:08:47Z</time>
      </trkpt>
      <trkpt lat="41.961143" lon="0.823110">
        <ele>636.099</ele>
        <time>2015-12-19T13:08:54Z</time>
      </trkpt>
      <trkpt lat="41.961117" lon="0.823234">
        <ele>636.073</ele>
        <time>2015-12-19T13:08:59Z</time>
      </trkpt>
      <trkpt lat="41.961090" lon="0.823362">
        <ele>636.061</ele>
        <time>2015-12-19T13:09:04Z</time>
      </trkpt>
      <trkpt lat="41.961063" lon="0.823484">
        <ele>637.067</ele>
        <time>2015-12-19T13:09:09Z</time>
      </trkpt>
      <trkpt lat="41.961033" lon="0.823600">
        <ele>638.087</ele>
        <time>2015-12-19T13:09:14Z</time>
      </trkpt>
      <trkpt lat="41.960958" lon="0.823693">
        <ele>639.094</ele>
        <time>2015-12-19T13:09:20Z</time>
      </trkpt>
      <trkpt lat="41.960887" lon="0.823602">
        <ele>640.057</ele>
        <time>2015-12-19T13:09:27Z</time>
      </trkpt>
      <trkpt lat="41.960873" lon="0.823472">
        <ele>641.022</ele>
        <time>2015-12-19T13:09:33Z</time>
      </trkpt>
      <trkpt lat="41.960862" lon="0.823340">
        <ele>641.008</ele>
        <time>2015-12-19T13:09:39Z</time>
      </trkpt>
      <trkpt lat="41.960857" lon="0.823200">
        <ele>642.090</ele>
        <time>2015-12-19T13:09:45Z</time>
      </trkpt>
      <trkpt lat="41.960816" lon="0.823076">
        <ele>642.050</ele>
        <time>2015-12-19T13:09:51Z</time>
      </trkpt>
      <trkpt lat="41.960771" lon="0.822956">
        <ele>643.086</ele>
        <time>2015-12-19T13:09:57Z</time>
      </trkpt>
      <trkpt lat="41.960721" lon="0.822837">
        <ele>645.020</ele>
        <time>2015-12-19T13:10:03Z</time>
      </trkpt>
      <trkpt lat="41.960679" lon="0.822721">
        <ele>645.054</ele>
        <time>2015-12-19T13:10:09Z</time>
      </trkpt>
      <trkpt lat="41.960644" lon="0.822606">
        <ele>646.052</ele>
        <time>2015-12-19T13:10:15Z</time>
      </trkpt>
      <trkpt lat="41.960589" lon="0.822491">
        <ele>647.038</ele>
        <time>2015-12-19T13:10:23Z</time>
      </trkpt>
      <trkpt lat="41.960529" lon="0.822383">
        <ele>648.088</ele>
        <time>2015-12-19T13:10:30Z</time>
      </trkpt>
      <trkpt lat="41.960470" lon="0.822272">
        <ele>650.038</ele>
        <time>2015-12-19T13:10:38Z</time>
      </trkpt>
      <trkpt lat="41.960419" lon="0.822165">
        <ele>650.070</ele>
        <time>2015-12-19T13:10:46Z</time>
      </trkpt>
      <trkpt lat="41.960376" lon="0.822039">
        <ele>653.017</ele>
        <time>2015-12-19T13:10:54Z</time>
      </trkpt>
      <trkpt lat="41.960330" lon="0.821916">
        <ele>654.008</ele>
        <time>2015-12-19T13:11:01Z</time>
      </trkpt>
      <trkpt lat="41.960302" lon="0.821779">
        <ele>656.014</ele>
        <time>2015-12-19T13:11:08Z</time>
      </trkpt>
      <trkpt lat="41.960273" lon="0.821665">
        <ele>658.054</ele>
        <time>2015-12-19T13:11:14Z</time>
      </trkpt>
      <trkpt lat="41.960248" lon="0.821544">
        <ele>659.060</ele>
        <time>2015-12-19T13:11:20Z</time>
      </trkpt>
      <trkpt lat="41.960229" lon="0.821412">
        <ele>660.034</ele>
        <time>2015-12-19T13:11:26Z</time>
      </trkpt>
      <trkpt lat="41.960219" lon="0.821270">
        <ele>661.058</ele>
        <time>2015-12-19T13:11:32Z</time>
      </trkpt>
      <trkpt lat="41.960209" lon="0.821147">
        <ele>661.056</ele>
        <time>2015-12-19T13:11:37Z</time>
      </trkpt>
      <trkpt lat="41.960195" lon="0.821007">
        <ele>662.062</ele>
        <time>2015-12-19T13:11:43Z</time>
      </trkpt>
      <trkpt lat="41.960167" lon="0.820876">
        <ele>662.062</ele>
        <time>2015-12-19T13:11:49Z</time>
      </trkpt>
      <trkpt lat="41.960141" lon="0.820752">
        <ele>663.016</ele>
        <time>2015-12-19T13:11:55Z</time>
      </trkpt>
      <trkpt lat="41.960121" lon="0.820616">
        <ele>665.076</ele>
        <time>2015-12-19T13:12:02Z</time>
      </trkpt>
      <trkpt lat="41.960098" lon="0.820491">
        <ele>666.013</ele>
        <time>2015-12-19T13:12:08Z</time>
      </trkpt>
      <trkpt lat="41.960083" lon="0.820353">
        <ele>667.008</ele>
        <time>2015-12-19T13:12:14Z</time>
      </trkpt>
      <trkpt lat="41.960068" lon="0.820219">
        <ele>668.012</ele>
        <time>2015-12-19T13:12:20Z</time>
      </trkpt>
      <trkpt lat="41.960052" lon="0.820089">
        <ele>668.022</ele>
        <time>2015-12-19T13:12:26Z</time>
      </trkpt>
      <trkpt lat="41.960032" lon="0.819961">
        <ele>669.058</ele>
        <time>2015-12-19T13:12:32Z</time>
      </trkpt>
      <trkpt lat="41.960017" lon="0.819838">
        <ele>671.052</ele>
        <time>2015-12-19T13:12:38Z</time>
      </trkpt>
      <trkpt lat="41.959995" lon="0.819707">
        <ele>674.036</ele>
        <time>2015-12-19T13:12:45Z</time>
      </trkpt>
      <trkpt lat="41.959963" lon="0.819585">
        <ele>674.084</ele>
        <time>2015-12-19T13:12:51Z</time>
      </trkpt>
      <trkpt lat="41.959947" lon="0.819462">
        <ele>675.050</ele>
        <time>2015-12-19T13:12:58Z</time>
      </trkpt>
      <trkpt lat="41.959930" lon="0.819338">
        <ele>677.070</ele>
        <time>2015-12-19T13:13:05Z</time>
      </trkpt>
      <trkpt lat="41.959918" lon="0.819215">
        <ele>677.092</ele>
        <time>2015-12-19T13:13:11Z</time>
      </trkpt>
      <trkpt lat="41.959896" lon="0.819092">
        <ele>678.073</ele>
        <time>2015-12-19T13:13:17Z</time>
      </trkpt>
      <trkpt lat="41.959867" lon="0.818977">
        <ele>679.020</ele>
        <time>2015-12-19T13:13:23Z</time>
      </trkpt>
      <trkpt lat="41.959825" lon="0.818862">
        <ele>677.008</ele>
        <time>2015-12-19T13:13:29Z</time>
      </trkpt>
      <trkpt lat="41.959774" lon="0.818751">
        <ele>678.070</ele>
        <time>2015-12-19T13:13:35Z</time>
      </trkpt>
      <trkpt lat="41.959711" lon="0.818661">
        <ele>678.080</ele>
        <time>2015-12-19T13:13:41Z</time>
      </trkpt>
      <trkpt lat="41.959651" lon="0.818569">
        <ele>678.026</ele>
        <time>2015-12-19T13:13:47Z</time>
      </trkpt>
      <trkpt lat="41.959587" lon="0.818466">
        <ele>680.090</ele>
        <time>2015-12-19T13:13:54Z</time>
      </trkpt>
      <trkpt lat="41.959529" lon="0.818354">
        <ele>681.094</ele>
        <time>2015-12-19T13:14:00Z</time>
      </trkpt>
      <trkpt lat="41.959506" lon="0.818224">
        <ele>683.042</ele>
        <time>2015-12-19T13:14:08Z</time>
      </trkpt>
      <trkpt lat="41.959499" lon="0.818086">
        <ele>685.068</ele>
        <time>2015-12-19T13:14:15Z</time>
      </trkpt>
      <trkpt lat="41.959468" lon="0.817956">
        <ele>686.048</ele>
        <time>2015-12-19T13:14:22Z</time>
      </trkpt>
      <trkpt lat="41.959443" lon="0.817830">
        <ele>689.083</ele>
        <time>2015-12-19T13:14:29Z</time>
      </trkpt>
      <trkpt lat="41.959405" lon="0.817719">
        <ele>689.025</ele>
        <time>2015-12-19T13:14:35Z</time>
      </trkpt>
      <trkpt lat="41.959373" lon="0.817594">
        <ele>690.017</ele>
        <time>2015-12-19T13:14:41Z</time>
      </trkpt>
      <trkpt lat="41.959357" lon="0.817470">
        <ele>692.008</ele>
        <time>2015-12-19T13:14:47Z</time>
      </trkpt>
      <trkpt lat="41.959348" lon="0.817347">
        <ele>693.099</ele>
        <time>2015-12-19T13:14:53Z</time>
      </trkpt>
      <trkpt lat="41.959337" lon="0.817216">
        <ele>694.089</ele>
        <time>2015-12-19T13:14:59Z</time>
      </trkpt>
      <trkpt lat="41.959331" lon="0.817080">
        <ele>695.095</ele>
        <time>2015-12-19T13:15:05Z</time>
      </trkpt>
      <trkpt lat="41.959318" lon="0.816958">
        <ele>695.099</ele>
        <time>2015-12-19T13:15:10Z</time>
      </trkpt>
      <trkpt lat="41.959309" lon="0.816838">
        <ele>695.053</ele>
        <time>2015-12-19T13:15:15Z</time>
      </trkpt>
      <trkpt lat="41.959297" lon="0.816718">
        <ele>696.061</ele>
        <time>2015-12-19T13:15:20Z</time>
      </trkpt>
      <trkpt lat="41.959281" lon="0.816597">
        <ele>696.047</ele>
        <time>2015-12-19T13:15:25Z</time>
      </trkpt>
      <trkpt lat="41.959259" lon="0.816473">
        <ele>695.037</ele>
        <time>2015-12-19T13:15:30Z</time>
      </trkpt>
      <trkpt lat="41.959244" lon="0.816351">
        <ele>698.037</ele>
        <time>2015-12-19T13:15:34Z</time>
      </trkpt>
      <trkpt lat="41.959242" lon="0.816224">
        <ele>698.049</ele>
        <time>2015-12-19T13:15:39Z</time>
      </trkpt>
      <trkpt lat="41.959234" lon="0.816096">
        <ele>697.013</ele>
        <time>2015-12-19T13:15:44Z</time>
      </trkpt>
      <trkpt lat="41.959215" lon="0.815970">
        <ele>697.008</ele>
        <time>2015-12-19T13:15:49Z</time>
      </trkpt>
      <trkpt lat="41.959198" lon="0.815843">
        <ele>698.034</ele>
        <time>2015-12-19T13:15:55Z</time>
      </trkpt>
      <trkpt lat="41.959179" lon="0.815722">
        <ele>699.044</ele>
        <time>2015-12-19T13:16:00Z</time>
      </trkpt>
      <trkpt lat="41.959158" lon="0.815586">
        <ele>699.080</ele>
        <time>2015-12-19T13:16:06Z</time>
      </trkpt>
      <trkpt lat="41.959129" lon="0.815463">
        <ele>698.034</ele>
        <time>2015-12-19T13:16:12Z</time>
      </trkpt>
      <trkpt lat="41.959124" lon="0.815320">
        <ele>700.038</ele>
        <time>2015-12-19T13:16:18Z</time>
      </trkpt>
      <trkpt lat="41.959129" lon="0.815195">
        <ele>701.086</ele>
        <time>2015-12-19T13:16:23Z</time>
      </trkpt>
      <trkpt lat="41.959120" lon="0.815055">
        <ele>701.092</ele>
        <time>2015-12-19T13:16:29Z</time>
      </trkpt>
      <trkpt lat="41.959113" lon="0.814929">
        <ele>701.082</ele>
        <time>2015-12-19T13:16:34Z</time>
      </trkpt>
      <trkpt lat="41.959091" lon="0.814789">
        <ele>702.046</ele>
        <time>2015-12-19T13:16:40Z</time>
      </trkpt>
      <trkpt lat="41.959067" lon="0.814656">
        <ele>702.088</ele>
        <time>2015-12-19T13:16:46Z</time>
      </trkpt>
      <trkpt lat="41.959038" lon="0.814529">
        <ele>703.016</ele>
        <time>2015-12-19T13:16:52Z</time>
      </trkpt>
      <trkpt lat="41.959005" lon="0.814402">
        <ele>703.008</ele>
        <time>2015-12-19T13:16:58Z</time>
      </trkpt>
      <trkpt lat="41.958968" lon="0.814281">
        <ele>704.025</ele>
        <time>2015-12-19T13:17:04Z</time>
      </trkpt>
      <trkpt lat="41.958917" lon="0.814170">
        <ele>706.085</ele>
        <time>2015-12-19T13:17:10Z</time>
      </trkpt>
      <trkpt lat="41.958892" lon="0.814050">
        <ele>708.061</ele>
        <time>2015-12-19T13:17:16Z</time>
      </trkpt>
      <trkpt lat="41.958875" lon="0.813919">
        <ele>709.025</ele>
        <time>2015-12-19T13:17:22Z</time>
      </trkpt>
      <trkpt lat="41.958841" lon="0.813787">
        <ele>710.049</ele>
        <time>2015-12-19T13:17:28Z</time>
      </trkpt>
      <trkpt lat="41.958799" lon="0.813661">
        <ele>711.047</ele>
        <time>2015-12-19T13:17:33Z</time>
      </trkpt>
      <trkpt lat="41.958753" lon="0.813537">
        <ele>711.043</ele>
        <time>2015-12-19T13:17:39Z</time>
      </trkpt>
      <trkpt lat="41.958703" lon="0.813415">
        <ele>710.013</ele>
        <time>2015-12-19T13:17:45Z</time>
      </trkpt>
      <trkpt lat="41.958661" lon="0.813294">
        <ele>711.069</ele>
        <time>2015-12-19T13:17:52Z</time>
      </trkpt>
      <trkpt lat="41.958656" lon="0.813156">
        <ele>713.004</ele>
        <time>2015-12-19T13:17:58Z</time>
      </trkpt>
      <trkpt lat="41.958673" lon="0.813026">
        <ele>715.024</ele>
        <time>2015-12-19T13:18:04Z</time>
      </trkpt>
      <trkpt lat="41.958681" lon="0.812903">
        <ele>716.008</ele>
        <time>2015-12-19T13:18:10Z</time>
      </trkpt>
      <trkpt lat="41.958656" lon="0.812783">
        <ele>718.017</ele>
        <time>2015-12-19T13:18:16Z</time>
      </trkpt>
      <trkpt lat="41.958604" lon="0.812683">
        <ele>719.057</ele>
        <time>2015-12-19T13:18:22Z</time>
      </trkpt>
      <trkpt lat="41.958549" lon="0.812572">
        <ele>718.033</ele>
        <time>2015-12-19T13:18:28Z</time>
      </trkpt>
      <trkpt lat="41.958501" lon="0.812453">
        <ele>718.077</ele>
        <time>2015-12-19T13:18:34Z</time>
      </trkpt>
      <trkpt lat="41.958430" lon="0.812354">
        <ele>719.091</ele>
        <time>2015-12-19T13:18:40Z</time>
      </trkpt>
      <trkpt lat="41.958378" lon="0.812250">
        <ele>718.039</ele>
        <time>2015-12-19T13:18:45Z</time>
      </trkpt>
      <trkpt lat="41.958334" lon="0.812123">
        <ele>720.095</ele>
        <time>2015-12-19T13:18:51Z</time>
      </trkpt>
      <trkpt lat="41.958292" lon="0.812000">
        <ele>722.045</ele>
        <time>2015-12-19T13:18:57Z</time>
      </trkpt>
      <trkpt lat="41.958246" lon="0.811879">
        <ele>722.061</ele>
        <time>2015-12-19T13:19:03Z</time>
      </trkpt>
      <trkpt lat="41.958205" lon="0.811761">
        <ele>722.021</ele>
        <time>2015-12-19T13:19:09Z</time>
      </trkpt>
      <trkpt lat="41.958149" lon="0.811662">
        <ele>723.013</ele>
        <time>2015-12-19T13:19:15Z</time>
      </trkpt>
      <trkpt lat="41.958088" lon="0.811544">
        <ele>722.008</ele>
        <time>2015-12-19T13:19:20Z</time>
      </trkpt>
      <trkpt lat="41.958029" lon="0.811430">
        <ele>723.067</ele>
        <time>2015-12-19T13:19:26Z</time>
      </trkpt>
      <trkpt lat="41.957990" lon="0.811305">
        <ele>724.097</ele>
        <time>2015-12-19T13:19:32Z</time>
      </trkpt>
      <trkpt lat="41.957970" lon="0.811181">
        <ele>725.073</ele>
        <time>2015-12-19T13:19:39Z</time>
      </trkpt>
      <trkpt lat="41.957969" lon="0.811050">
        <ele>726.087</ele>
        <time>2015-12-19T13:19:45Z</time>
      </trkpt>
      <trkpt lat="41.957956" lon="0.810919">
        <ele>728.061</ele>
        <time>2015-12-19T13:19:51Z</time>
      </trkpt>
      <trkpt lat="41.957914" lon="0.810803">
        <ele>729.079</ele>
        <time>2015-12-19T13:19:57Z</time>
      </trkpt>
      <trkpt lat="41.957875" lon="0.810673">
        <ele>729.015</ele>
        <time>2015-12-19T13:20:03Z</time>
      </trkpt>
      <trkpt lat="41.957835" lon="0.810555">
        <ele>730.045</ele>
        <time>2015-12-19T13:20:09Z</time>
      </trkpt>
      <trkpt lat="41.957833" lon="0.810414">
        <ele>731.045</ele>
        <time>2015-12-19T13:20:15Z</time>
      </trkpt>
      <trkpt lat="41.957807" lon="0.810282">
        <ele>733.047</ele>
        <time>2015-12-19T13:20:21Z</time>
      </trkpt>
      <trkpt lat="41.957793" lon="0.810143">
        <ele>734.011</ele>
        <time>2015-12-19T13:20:27Z</time>
      </trkpt>
      <trkpt lat="41.957772" lon="0.810022">
        <ele>734.008</ele>
        <time>2015-12-19T13:20:32Z</time>
      </trkpt>
      <trkpt lat="41.957749" lon="0.809904">
        <ele>735.085</ele>
        <time>2015-12-19T13:20:37Z</time>
      </trkpt>
      <trkpt lat="41.957705" lon="0.809777">
        <ele>736.095</ele>
        <time>2015-12-19T13:20:43Z</time>
      </trkpt>
      <trkpt lat="41.957649" lon="0.809654">
        <ele>737.031</ele>
        <time>2015-12-19T13:20:48Z</time>
      </trkpt>
      <trkpt lat="41.957589" lon="0.809535">
        <ele>737.015</ele>
        <time>2015-12-19T13:20:53Z</time>
      </trkpt>
      <trkpt lat="41.957528" lon="0.809383">
        <ele>738.049</ele>
        <time>2015-12-19T13:20:59Z</time>
      </trkpt>
      <trkpt lat="41.957530" lon="0.809235">
        <ele>736.097</ele>
        <time>2015-12-19T13:21:03Z</time>
      </trkpt>
      <trkpt lat="41.957553" lon="0.809097">
        <ele>737.073</ele>
        <time>2015-12-19T13:21:08Z</time>
      </trkpt>
      <trkpt lat="41.957564" lon="0.808970">
        <ele>737.093</ele>
        <time>2015-12-19T13:21:13Z</time>
      </trkpt>
      <trkpt lat="41.957568" lon="0.808846">
        <ele>738.081</ele>
        <time>2015-12-19T13:21:19Z</time>
      </trkpt>
      <trkpt lat="41.957568" lon="0.808716">
        <ele>738.061</ele>
        <time>2015-12-19T13:21:24Z</time>
      </trkpt>
      <trkpt lat="41.957563" lon="0.808578">
        <ele>738.017</ele>
        <time>2015-12-19T13:21:29Z</time>
      </trkpt>
      <trkpt lat="41.957549" lon="0.808449">
        <ele>739.008</ele>
        <time>2015-12-19T13:21:34Z</time>
      </trkpt>
      <trkpt lat="41.957526" lon="0.808327">
        <ele>740.099</ele>
        <time>2015-12-19T13:21:40Z</time>
      </trkpt>
      <trkpt lat="41.957482" lon="0.808214">
        <ele>741.049</ele>
        <time>2015-12-19T13:21:46Z</time>
      </trkpt>
      <trkpt lat="41.957458" lon="0.808087">
        <ele>742.085</ele>
        <time>2015-12-19T13:21:52Z</time>
      </trkpt>
      <trkpt lat="41.957414" lon="0.807955">
        <ele>742.079</ele>
        <time>2015-12-19T13:21:58Z</time>
      </trkpt>
      <trkpt lat="41.957353" lon="0.807856">
        <ele>742.013</ele>
        <time>2015-12-19T13:22:03Z</time>
      </trkpt>
      <trkpt lat="41.957278" lon="0.807773">
        <ele>741.021</ele>
        <time>2015-12-19T13:22:08Z</time>
      </trkpt>
      <trkpt lat="41.957177" lon="0.807715">
        <ele>741.027</ele>
        <time>2015-12-19T13:22:14Z</time>
      </trkpt>
      <trkpt lat="41.957065" lon="0.807690">
        <ele>742.087</ele>
        <time>2015-12-19T13:22:18Z</time>
      </trkpt>
      <trkpt lat="41.956976" lon="0.807642">
        <ele>741.087</ele>
        <time>2015-12-19T13:22:21Z</time>
      </trkpt>
      <trkpt lat="41.956915" lon="0.807541">
        <ele>741.042</ele>
        <time>2015-12-19T13:22:24Z</time>
      </trkpt>
      <trkpt lat="41.956881" lon="0.807396">
        <ele>742.026</ele>
        <time>2015-12-19T13:22:28Z</time>
      </trkpt>
      <trkpt lat="41.956863" lon="0.807255">
        <ele>743.008</ele>
        <time>2015-12-19T13:22:33Z</time>
      </trkpt>
      <trkpt lat="41.956842" lon="0.807110">
        <ele>745.089</ele>
        <time>2015-12-19T13:22:38Z</time>
      </trkpt>
      <trkpt lat="41.956817" lon="0.806982">
        <ele>749.019</ele>
        <time>2015-12-19T13:22:43Z</time>
      </trkpt>
      <trkpt lat="41.956810" lon="0.806845">
        <ele>752.055</ele>
        <time>2015-12-19T13:22:50Z</time>
      </trkpt>
      <trkpt lat="41.956790" lon="0.806704">
        <ele>754.069</ele>
        <time>2015-12-19T13:22:57Z</time>
      </trkpt>
      <trkpt lat="41.956763" lon="0.806575">
        <ele>755.083</ele>
        <time>2015-12-19T13:23:03Z</time>
      </trkpt>
      <trkpt lat="41.956739" lon="0.806442">
        <ele>754.081</ele>
        <time>2015-12-19T13:23:09Z</time>
      </trkpt>
      <trkpt lat="41.956712" lon="0.806318">
        <ele>754.097</ele>
        <time>2015-12-19T13:23:15Z</time>
      </trkpt>
      <trkpt lat="41.956684" lon="0.806194">
        <ele>753.077</ele>
        <time>2015-12-19T13:23:21Z</time>
      </trkpt>
      <trkpt lat="41.956671" lon="0.806072">
        <ele>753.053</ele>
        <time>2015-12-19T13:23:27Z</time>
      </trkpt>
      <trkpt lat="41.956631" lon="0.805960">
        <ele>752.004</ele>
        <time>2015-12-19T13:23:33Z</time>
      </trkpt>
      <trkpt lat="41.956578" lon="0.805844">
        <ele>751.014</ele>
        <time>2015-12-19T13:23:39Z</time>
      </trkpt>
      <trkpt lat="41.956518" lon="0.805746">
        <ele>751.008</ele>
        <time>2015-12-19T13:23:45Z</time>
      </trkpt>
      <trkpt lat="41.956438" lon="0.805686">
        <ele>753.066</ele>
        <time>2015-12-19T13:23:51Z</time>
      </trkpt>
      <trkpt lat="41.956343" lon="0.805641">
        <ele>754.066</ele>
        <time>2015-12-19T13:23:57Z</time>
      </trkpt>
      <trkpt lat="41.956244" lon="0.805595">
        <ele>755.022</ele>
        <time>2015-12-19T13:24:03Z</time>
      </trkpt>
      <trkpt lat="41.956142" lon="0.805554">
        <ele>756.056</ele>
        <time>2015-12-19T13:24:09Z</time>
      </trkpt>
      <trkpt lat="41.956043" lon="0.805517">
        <ele>758.050</ele>
        <time>2015-12-19T13:24:15Z</time>
      </trkpt>
      <trkpt lat="41.955955" lon="0.805474">
        <ele>758.058</ele>
        <time>2015-12-19T13:24:21Z</time>
      </trkpt>
      <trkpt lat="41.955857" lon="0.805428">
        <ele>759.034</ele>
        <time>2015-12-19T13:24:28Z</time>
      </trkpt>
      <trkpt lat="41.955766" lon="0.805383">
        <ele>761.054</ele>
        <time>2015-12-19T13:24:34Z</time>
      </trkpt>
      <trkpt lat="41.955672" lon="0.805344">
        <ele>762.074</ele>
        <time>2015-12-19T13:24:41Z</time>
      </trkpt>
      <trkpt lat="41.955577" lon="0.805302">
        <ele>763.056</ele>
        <time>2015-12-19T13:24:49Z</time>
      </trkpt>
      <trkpt lat="41.955480" lon="0.805260">
        <ele>765.021</ele>
        <time>2015-12-19T13:24:56Z</time>
      </trkpt>
      <trkpt lat="41.955388" lon="0.805226">
        <ele>765.008</ele>
        <time>2015-12-19T13:25:02Z</time>
      </trkpt>
      <trkpt lat="41.955294" lon="0.805192">
        <ele>766.088</ele>
        <time>2015-12-19T13:25:08Z</time>
      </trkpt>
      <trkpt lat="41.955206" lon="0.805160">
        <ele>767.028</ele>
        <time>2015-12-19T13:25:14Z</time>
      </trkpt>
      <trkpt lat="41.955106" lon="0.805125">
        <ele>768.084</ele>
        <time>2015-12-19T13:25:21Z</time>
      </trkpt>
      <trkpt lat="41.955006" lon="0.805094">
        <ele>768.048</ele>
        <time>2015-12-19T13:25:28Z</time>
      </trkpt>
      <trkpt lat="41.954910" lon="0.805065">
        <ele>768.042</ele>
        <time>2015-12-19T13:25:35Z</time>
      </trkpt>
      <trkpt lat="41.954812" lon="0.805053">
        <ele>769.020</ele>
        <time>2015-12-19T13:25:43Z</time>
      </trkpt>
      <trkpt lat="41.954720" lon="0.805099">
        <ele>769.016</ele>
        <time>2015-12-19T13:25:49Z</time>
      </trkpt>
      <trkpt lat="41.954627" lon="0.805131">
        <ele>769.056</ele>
        <time>2015-12-19T13:25:54Z</time>
      </trkpt>
      <trkpt lat="41.954523" lon="0.805142">
        <ele>768.085</ele>
        <time>2015-12-19T13:25:58Z</time>
      </trkpt>
      <trkpt lat="41.954408" lon="0.805139">
        <ele>767.089</ele>
        <time>2015-12-19T13:26:02Z</time>
      </trkpt>
      <trkpt lat="41.954315" lon="0.805124">
        <ele>767.017</ele>
        <time>2015-12-19T13:26:05Z</time>
      </trkpt>
      <trkpt lat="41.954223" lon="0.805086">
        <ele>766.008</ele>
        <time>2015-12-19T13:26:08Z</time>
      </trkpt>
      <trkpt lat="41.954125" lon="0.805070">
        <ele>766.029</ele>
        <time>2015-12-19T13:26:11Z</time>
      </trkpt>
      <trkpt lat="41.954010" lon="0.805055">
        <ele>765.079</ele>
        <time>2015-12-19T13:26:14Z</time>
      </trkpt>
      <trkpt lat="41.953884" lon="0.805033">
        <ele>764.025</ele>
        <time>2015-12-19T13:26:17Z</time>
      </trkpt>
      <trkpt lat="41.953762" lon="0.805031">
        <ele>763.029</ele>
        <time>2015-12-19T13:26:19Z</time>
      </trkpt>
      <trkpt lat="41.953637" lon="0.805029">
        <ele>761.013</ele>
        <time>2015-12-19T13:26:23Z</time>
      </trkpt>
      <trkpt lat="41.953538" lon="0.805051">
        <ele>760.091</ele>
        <time>2015-12-19T13:26:26Z</time>
      </trkpt>
      <trkpt lat="41.953436" lon="0.805092">
        <ele>759.057</ele>
        <time>2015-12-19T13:26:29Z</time>
      </trkpt>
      <trkpt lat="41.953341" lon="0.805139">
        <ele>758.017</ele>
        <time>2015-12-19T13:26:32Z</time>
      </trkpt>
      <trkpt lat="41.953253" lon="0.805192">
        <ele>758.031</ele>
        <time>2015-12-19T13:26:37Z</time>
      </trkpt>
      <trkpt lat="41.953170" lon="0.805250">
        <ele>757.061</ele>
        <time>2015-12-19T13:28:44Z</time>
      </trkpt>
      <trkpt lat="41.953061" lon="0.805320">
        <ele>755.007</ele>
        <time>2015-12-19T13:28:51Z</time>
      </trkpt>
      <trkpt lat="41.952953" lon="0.805349">
        <ele>754.008</ele>
        <time>2015-12-19T13:28:53Z</time>
      </trkpt>
      <trkpt lat="41.952820" lon="0.805396">
        <ele>753.034</ele>
        <time>2015-12-19T13:28:55Z</time>
      </trkpt>
      <trkpt lat="41.952709" lon="0.805437">
        <ele>752.014</ele>
        <time>2015-12-19T13:28:57Z</time>
      </trkpt>
      <trkpt lat="41.952624" lon="0.805499">
        <ele>751.080</ele>
        <time>2015-12-19T13:28:59Z</time>
      </trkpt>
      <trkpt lat="41.952501" lon="0.805569">
        <ele>749.054</ele>
        <time>2015-12-19T13:29:01Z</time>
      </trkpt>
      <trkpt lat="41.952392" lon="0.805696">
        <ele>748.018</ele>
        <time>2015-12-19T13:29:03Z</time>
      </trkpt>
      <trkpt lat="41.952285" lon="0.805855">
        <ele>747.046</ele>
        <time>2015-12-19T13:29:05Z</time>
      </trkpt>
      <trkpt lat="41.952174" lon="0.805988">
        <ele>745.072</ele>
        <time>2015-12-19T13:29:07Z</time>
      </trkpt>
      <trkpt lat="41.952043" lon="0.806119">
        <ele>745.032</ele>
        <time>2015-12-19T13:29:09Z</time>
      </trkpt>
      <trkpt lat="41.951893" lon="0.806239">
        <ele>745.017</ele>
        <time>2015-12-19T13:29:11Z</time>
      </trkpt>
      <trkpt lat="41.951737" lon="0.806346">
        <ele>743.087</ele>
        <time>2015-12-19T13:29:13Z</time>
      </trkpt>
      <trkpt lat="41.951580" lon="0.806452">
        <ele>743.015</ele>
        <time>2015-12-19T13:29:15Z</time>
      </trkpt>
      <trkpt lat="41.951428" lon="0.806544">
        <ele>743.008</ele>
        <time>2015-12-19T13:29:17Z</time>
      </trkpt>
      <trkpt lat="41.951306" lon="0.806623">
        <ele>742.062</ele>
        <time>2015-12-19T13:29:19Z</time>
      </trkpt>
      <trkpt lat="41.951163" lon="0.806677">
        <ele>739.012</ele>
        <time>2015-12-19T13:29:21Z</time>
      </trkpt>
      <trkpt lat="41.951034" lon="0.806731">
        <ele>739.058</ele>
        <time>2015-12-19T13:29:23Z</time>
      </trkpt>
      <trkpt lat="41.950902" lon="0.806772">
        <ele>738.052</ele>
        <time>2015-12-19T13:29:25Z</time>
      </trkpt>
      <trkpt lat="41.950775" lon="0.806805">
        <ele>734.016</ele>
        <time>2015-12-19T13:29:27Z</time>
      </trkpt>
      <trkpt lat="41.950651" lon="0.806805">
        <ele>732.084</ele>
        <time>2015-12-19T13:29:29Z</time>
      </trkpt>
      <trkpt lat="41.950548" lon="0.806725">
        <ele>729.020</ele>
        <time>2015-12-19T13:29:31Z</time>
      </trkpt>
      <trkpt lat="41.950440" lon="0.806630">
        <ele>728.060</ele>
        <time>2015-12-19T13:29:33Z</time>
      </trkpt>
      <trkpt lat="41.950319" lon="0.806622">
        <ele>729.017</ele>
        <time>2015-12-19T13:29:35Z</time>
      </trkpt>
      <trkpt lat="41.950216" lon="0.806661">
        <ele>728.087</ele>
        <time>2015-12-19T13:29:37Z</time>
      </trkpt>
      <trkpt lat="41.950122" lon="0.806696">
        <ele>728.015</ele>
        <time>2015-12-19T13:29:39Z</time>
      </trkpt>
      <trkpt lat="41.950008" lon="0.806731">
        <ele>728.008</ele>
        <time>2015-12-19T13:29:41Z</time>
      </trkpt>
      <trkpt lat="41.949896" lon="0.806756">
        <ele>727.082</ele>
        <time>2015-12-19T13:29:43Z</time>
      </trkpt>
      <trkpt lat="41.949791" lon="0.806755">
        <ele>726.062</ele>
        <time>2015-12-19T13:29:45Z</time>
      </trkpt>
      <trkpt lat="41.949690" lon="0.806758">
        <ele>727.018</ele>
        <time>2015-12-19T13:29:47Z</time>
      </trkpt>
      <trkpt lat="41.949581" lon="0.806764">
        <ele>726.022</ele>
        <time>2015-12-19T13:29:49Z</time>
      </trkpt>
      <trkpt lat="41.949473" lon="0.806764">
        <ele>726.086</ele>
        <time>2015-12-19T13:29:51Z</time>
      </trkpt>
      <trkpt lat="41.949373" lon="0.806766">
        <ele>725.074</ele>
        <time>2015-12-19T13:29:53Z</time>
      </trkpt>
      <trkpt lat="41.949276" lon="0.806771">
        <ele>726.050</ele>
        <time>2015-12-19T13:29:55Z</time>
      </trkpt>
      <trkpt lat="41.949179" lon="0.806744">
        <ele>726.010</ele>
        <time>2015-12-19T13:29:57Z</time>
      </trkpt>
      <trkpt lat="41.949089" lon="0.806661">
        <ele>725.013</ele>
        <time>2015-12-19T13:29:59Z</time>
      </trkpt>
      <trkpt lat="41.949011" lon="0.806521">
        <ele>725.043</ele>
        <time>2015-12-19T13:30:01Z</time>
      </trkpt>
      <trkpt lat="41.948927" lon="0.806375">
        <ele>724.007</ele>
        <time>2015-12-19T13:30:03Z</time>
      </trkpt>
      <trkpt lat="41.948819" lon="0.806222">
        <ele>723.008</ele>
        <time>2015-12-19T13:30:05Z</time>
      </trkpt>
      <trkpt lat="41.948712" lon="0.806055">
        <ele>721.082</ele>
        <time>2015-12-19T13:30:06Z</time>
      </trkpt>
      <trkpt lat="41.948608" lon="0.805909">
        <ele>720.072</ele>
        <time>2015-12-19T13:30:08Z</time>
      </trkpt>
      <trkpt lat="41.948509" lon="0.805740">
        <ele>718.088</ele>
        <time>2015-12-19T13:30:10Z</time>
      </trkpt>
      <trkpt lat="41.948448" lon="0.805642">
        <ele>717.032</ele>
        <time>2015-12-19T13:30:11Z</time>
      </trkpt>
      <trkpt lat="41.948344" lon="0.805477">
        <ele>716.086</ele>
        <time>2015-12-19T13:30:14Z</time>
      </trkpt>
      <trkpt lat="41.948231" lon="0.805315">
        <ele>714.094</ele>
        <time>2015-12-19T13:30:16Z</time>
      </trkpt>
      <trkpt lat="41.948165" lon="0.805218">
        <ele>713.040</ele>
        <time>2015-12-19T13:30:17Z</time>
      </trkpt>
      <trkpt lat="41.948100" lon="0.805134">
        <ele>712.020</ele>
        <time>2015-12-19T13:30:18Z</time>
      </trkpt>
      <trkpt lat="41.948026" lon="0.805047">
        <ele>711.037</ele>
        <time>2015-12-19T13:30:19Z</time>
      </trkpt>
      <trkpt lat="41.947950" lon="0.804959">
        <ele>711.049</ele>
        <time>2015-12-19T13:30:20Z</time>
      </trkpt>
      <trkpt lat="41.947878" lon="0.804884">
        <ele>711.013</ele>
        <time>2015-12-19T13:30:21Z</time>
      </trkpt>
      <trkpt lat="41.947805" lon="0.804802">
        <ele>711.008</ele>
        <time>2015-12-19T13:30:22Z</time>
      </trkpt>
      <trkpt lat="41.947682" lon="0.804672">
        <ele>712.074</ele>
        <time>2015-12-19T13:30:24Z</time>
      </trkpt>
      <trkpt lat="41.947580" lon="0.804523">
        <ele>712.044</ele>
        <time>2015-12-19T13:30:26Z</time>
      </trkpt>
      <trkpt lat="41.947508" lon="0.804393">
        <ele>713.050</ele>
        <time>2015-12-19T13:30:28Z</time>
      </trkpt>
      <trkpt lat="41.947459" lon="0.804283">
        <ele>714.044</ele>
        <time>2015-12-19T13:30:30Z</time>
      </trkpt>
      <trkpt lat="41.947393" lon="0.804171">
        <ele>713.078</ele>
        <time>2015-12-19T13:30:32Z</time>
      </trkpt>
      <trkpt lat="41.947323" lon="0.804086">
        <ele>713.016</ele>
        <time>2015-12-19T13:30:34Z</time>
      </trkpt>
      <trkpt lat="41.947227" lon="0.804016">
        <ele>712.072</ele>
        <time>2015-12-19T13:30:36Z</time>
      </trkpt>
      <trkpt lat="41.947124" lon="0.803949">
        <ele>712.032</ele>
        <time>2015-12-19T13:30:38Z</time>
      </trkpt>
      <trkpt lat="41.947014" lon="0.803887">
        <ele>712.094</ele>
        <time>2015-12-19T13:30:40Z</time>
      </trkpt>
      <trkpt lat="41.946907" lon="0.803825">
        <ele>712.057</ele>
        <time>2015-12-19T13:30:42Z</time>
      </trkpt>
      <trkpt lat="41.946802" lon="0.803767">
        <ele>712.022</ele>
        <time>2015-12-19T13:30:44Z</time>
      </trkpt>
      <trkpt lat="41.946707" lon="0.803718">
        <ele>712.008</ele>
        <time>2015-12-19T13:30:46Z</time>
      </trkpt>
      <trkpt lat="41.946620" lon="0.803663">
        <ele>712.080</ele>
        <time>2015-12-19T13:30:48Z</time>
      </trkpt>
      <trkpt lat="41.946496" lon="0.803599">
        <ele>712.070</ele>
        <time>2015-12-19T13:30:51Z</time>
      </trkpt>
      <trkpt lat="41.946389" lon="0.803525">
        <ele>712.036</ele>
        <time>2015-12-19T13:30:54Z</time>
      </trkpt>
      <trkpt lat="41.946287" lon="0.803456">
        <ele>713.090</ele>
        <time>2015-12-19T13:30:57Z</time>
      </trkpt>
      <trkpt lat="41.946188" lon="0.803402">
        <ele>713.094</ele>
        <time>2015-12-19T13:31:00Z</time>
      </trkpt>
      <trkpt lat="41.946101" lon="0.803358">
        <ele>714.062</ele>
        <time>2015-12-19T13:31:03Z</time>
      </trkpt>
      <trkpt lat="41.946004" lon="0.803355">
        <ele>715.098</ele>
        <time>2015-12-19T13:31:07Z</time>
      </trkpt>
      <trkpt lat="41.945885" lon="0.803347">
        <ele>715.028</ele>
        <time>2015-12-19T13:31:11Z</time>
      </trkpt>
      <trkpt lat="41.945794" lon="0.803344">
        <ele>714.054</ele>
        <time>2015-12-19T13:31:14Z</time>
      </trkpt>
      <trkpt lat="41.945701" lon="0.803336">
        <ele>715.056</ele>
        <time>2015-12-19T13:31:17Z</time>
      </trkpt>
      <trkpt lat="41.945602" lon="0.803351">
        <ele>715.011</ele>
        <time>2015-12-19T13:31:20Z</time>
      </trkpt>
      <trkpt lat="41.945510" lon="0.803369">
        <ele>715.008</ele>
        <time>2015-12-19T13:31:23Z</time>
      </trkpt>
      <trkpt lat="41.945409" lon="0.803358">
        <ele>715.096</ele>
        <time>2015-12-19T13:31:26Z</time>
      </trkpt>
      <trkpt lat="41.945311" lon="0.803328">
        <ele>715.026</ele>
        <time>2015-12-19T13:31:29Z</time>
      </trkpt>
      <trkpt lat="41.945212" lon="0.803291">
        <ele>715.092</ele>
        <time>2015-12-19T13:31:32Z</time>
      </trkpt>
      <trkpt lat="41.945111" lon="0.803247">
        <ele>715.026</ele>
        <time>2015-12-19T13:31:35Z</time>
      </trkpt>
      <trkpt lat="41.945015" lon="0.803203">
        <ele>715.080</ele>
        <time>2015-12-19T13:31:38Z</time>
      </trkpt>
      <trkpt lat="41.944924" lon="0.803155">
        <ele>716.028</ele>
        <time>2015-12-19T13:31:41Z</time>
      </trkpt>
      <trkpt lat="41.944837" lon="0.803099">
        <ele>716.014</ele>
        <time>2015-12-19T13:31:43Z</time>
      </trkpt>
      <trkpt lat="41.944754" lon="0.803033">
        <ele>716.014</ele>
        <time>2015-12-19T13:31:46Z</time>
      </trkpt>
      <trkpt lat="41.944655" lon="0.802960">
        <ele>716.023</ele>
        <time>2015-12-19T13:31:49Z</time>
      </trkpt>
      <trkpt lat="41.944558" lon="0.802900">
        <ele>716.083</ele>
        <time>2015-12-19T13:31:52Z</time>
      </trkpt>
      <trkpt lat="41.944464" lon="0.802845">
        <ele>716.011</ele>
        <time>2015-12-19T13:31:56Z</time>
      </trkpt>
      <trkpt lat="41.944373" lon="0.802784">
        <ele>716.008</ele>
        <time>2015-12-19T13:31:59Z</time>
      </trkpt>
      <trkpt lat="41.944287" lon="0.802716">
        <ele>717.043</ele>
        <time>2015-12-19T13:32:02Z</time>
      </trkpt>
      <trkpt lat="41.944203" lon="0.802638">
        <ele>717.033</ele>
        <time>2015-12-19T13:32:05Z</time>
      </trkpt>
      <trkpt lat="41.944124" lon="0.802548">
        <ele>717.029</ele>
        <time>2015-12-19T13:32:08Z</time>
      </trkpt>
      <trkpt lat="41.944048" lon="0.802443">
        <ele>717.013</ele>
        <time>2015-12-19T13:32:11Z</time>
      </trkpt>
      <trkpt lat="41.943980" lon="0.802320">
        <ele>717.047</ele>
        <time>2015-12-19T13:32:14Z</time>
      </trkpt>
      <trkpt lat="41.943916" lon="0.802193">
        <ele>718.065</ele>
        <time>2015-12-19T13:32:17Z</time>
      </trkpt>
      <trkpt lat="41.943854" lon="0.802067">
        <ele>719.071</ele>
        <time>2015-12-19T13:32:20Z</time>
      </trkpt>
      <trkpt lat="41.943788" lon="0.801947">
        <ele>719.031</ele>
        <time>2015-12-19T13:32:23Z</time>
      </trkpt>
      <trkpt lat="41.943722" lon="0.801832">
        <ele>720.043</ele>
        <time>2015-12-19T13:32:26Z</time>
      </trkpt>
      <trkpt lat="41.943658" lon="0.801715">
        <ele>721.064</ele>
        <time>2015-12-19T13:32:29Z</time>
      </trkpt>
      <trkpt lat="41.943595" lon="0.801600">
        <ele>723.010</ele>
        <time>2015-12-19T13:32:32Z</time>
      </trkpt>
      <trkpt lat="41.943535" lon="0.801481">
        <ele>724.008</ele>
        <time>2015-12-19T13:32:35Z</time>
      </trkpt>
      <trkpt lat="41.943473" lon="0.801360">
        <ele>725.095</ele>
        <time>2015-12-19T13:32:38Z</time>
      </trkpt>
      <trkpt lat="41.943417" lon="0.801237">
        <ele>725.085</ele>
        <time>2015-12-19T13:32:41Z</time>
      </trkpt>
      <trkpt lat="41.943343" lon="0.801135">
        <ele>726.061</ele>
        <time>2015-12-19T13:32:44Z</time>
      </trkpt>
      <trkpt lat="41.943248" lon="0.801069">
        <ele>726.055</ele>
        <time>2015-12-19T13:32:47Z</time>
      </trkpt>
      <trkpt lat="41.943151" lon="0.801040">
        <ele>726.069</ele>
        <time>2015-12-19T13:32:50Z</time>
      </trkpt>
      <trkpt lat="41.943052" lon="0.801052">
        <ele>727.037</ele>
        <time>2015-12-19T13:32:55Z</time>
      </trkpt>
      <trkpt lat="41.942963" lon="0.801088">
        <ele>727.013</ele>
        <time>2015-12-19T13:33:02Z</time>
      </trkpt>
      <trkpt lat="41.942871" lon="0.801107">
        <ele>729.053</ele>
        <time>2015-12-19T13:33:10Z</time>
      </trkpt>
      <trkpt lat="41.942768" lon="0.801116">
        <ele>730.077</ele>
        <time>2015-12-19T13:33:18Z</time>
      </trkpt>
      <trkpt lat="41.942667" lon="0.801107">
        <ele>731.061</ele>
        <time>2015-12-19T13:33:26Z</time>
      </trkpt>
      <trkpt lat="41.942570" lon="0.801080">
        <ele>731.027</ele>
        <time>2015-12-19T13:33:34Z</time>
      </trkpt>
      <trkpt lat="41.942470" lon="0.801079">
        <ele>731.008</ele>
        <time>2015-12-19T13:33:43Z</time>
      </trkpt>
      <trkpt lat="41.942366" lon="0.801075">
        <ele>731.088</ele>
        <time>2015-12-19T13:33:50Z</time>
      </trkpt>
      <trkpt lat="41.942274" lon="0.801069">
        <ele>733.088</ele>
        <time>2015-12-19T13:33:57Z</time>
      </trkpt>
      <trkpt lat="41.942186" lon="0.801133">
        <ele>734.094</ele>
        <time>2015-12-19T13:34:05Z</time>
      </trkpt>
      <trkpt lat="41.942093" lon="0.801200">
        <ele>735.068</ele>
        <time>2015-12-19T13:34:12Z</time>
      </trkpt>
      <trkpt lat="41.942016" lon="0.801291">
        <ele>736.042</ele>
        <time>2015-12-19T13:34:19Z</time>
      </trkpt>
      <trkpt lat="41.941939" lon="0.801371">
        <ele>737.040</ele>
        <time>2015-12-19T13:34:25Z</time>
      </trkpt>
      <trkpt lat="41.941857" lon="0.801442">
        <ele>738.016</ele>
        <time>2015-12-19T13:34:31Z</time>
      </trkpt>
      <trkpt lat="41.941775" lon="0.801520">
        <ele>738.036</ele>
        <time>2015-12-19T13:34:37Z</time>
      </trkpt>
      <trkpt lat="41.941692" lon="0.801599">
        <ele>738.062</ele>
        <time>2015-12-19T13:34:43Z</time>
      </trkpt>
      <trkpt lat="41.941605" lon="0.801675">
        <ele>740.083</ele>
        <time>2015-12-19T13:34:49Z</time>
      </trkpt>
      <trkpt lat="41.941529" lon="0.801747">
        <ele>739.011</ele>
        <time>2015-12-19T13:34:54Z</time>
      </trkpt>
      <trkpt lat="41.941439" lon="0.801827">
        <ele>740.008</ele>
        <time>2015-12-19T13:34:59Z</time>
      </trkpt>
      <trkpt lat="41.941345" lon="0.801910">
        <ele>740.037</ele>
        <time>2015-12-19T13:35:03Z</time>
      </trkpt>
      <trkpt lat="41.941248" lon="0.801987">
        <ele>741.057</ele>
        <time>2015-12-19T13:35:07Z</time>
      </trkpt>
      <trkpt lat="41.941173" lon="0.802057">
        <ele>741.043</ele>
        <time>2015-12-19T13:35:10Z</time>
      </trkpt>
      <trkpt lat="41.941059" lon="0.802146">
        <ele>741.017</ele>
        <time>2015-12-19T13:35:13Z</time>
      </trkpt>
      <trkpt lat="41.940969" lon="0.802227">
        <ele>741.041</ele>
        <time>2015-12-19T13:35:16Z</time>
      </trkpt>
      <trkpt lat="41.940859" lon="0.802310">
        <ele>742.019</ele>
        <time>2015-12-19T13:35:20Z</time>
      </trkpt>
      <trkpt lat="41.940740" lon="0.802388">
        <ele>742.045</ele>
        <time>2015-12-19T13:35:23Z</time>
      </trkpt>
      <trkpt lat="41.940645" lon="0.802450">
        <ele>741.085</ele>
        <time>2015-12-19T13:35:25Z</time>
      </trkpt>
      <trkpt lat="41.940561" lon="0.802512">
        <ele>741.027</ele>
        <time>2015-12-19T13:35:27Z</time>
      </trkpt>
      <trkpt lat="41.940481" lon="0.802571">
        <ele>741.068</ele>
        <time>2015-12-19T13:35:29Z</time>
      </trkpt>
      <trkpt lat="41.940398" lon="0.802626">
        <ele>741.014</ele>
        <time>2015-12-19T13:35:31Z</time>
      </trkpt>
      <trkpt lat="41.940313" lon="0.802703">
        <ele>741.008</ele>
        <time>2015-12-19T13:35:33Z</time>
      </trkpt>
      <trkpt lat="41.940216" lon="0.802786">
        <ele>741.033</ele>
        <time>2015-12-19T13:35:35Z</time>
      </trkpt>
      <trkpt lat="41.940121" lon="0.802856">
        <ele>742.073</ele>
        <time>2015-12-19T13:35:37Z</time>
      </trkpt>
      <trkpt lat="41.940001" lon="0.802949">
        <ele>742.059</ele>
        <time>2015-12-19T13:35:40Z</time>
      </trkpt>
      <trkpt lat="41.939884" lon="0.803027">
        <ele>741.033</ele>
        <time>2015-12-19T13:35:43Z</time>
      </trkpt>
      <trkpt lat="41.939769" lon="0.803109">
        <ele>741.097</ele>
        <time>2015-12-19T13:35:46Z</time>
      </trkpt>
      <trkpt lat="41.939685" lon="0.803165">
        <ele>741.055</ele>
        <time>2015-12-19T13:35:48Z</time>
      </trkpt>
      <trkpt lat="41.939576" lon="0.803251">
        <ele>742.011</ele>
        <time>2015-12-19T13:35:51Z</time>
      </trkpt>
      <trkpt lat="41.939476" lon="0.803334">
        <ele>742.051</ele>
        <time>2015-12-19T13:35:54Z</time>
      </trkpt>
      <trkpt lat="41.939366" lon="0.803404">
        <ele>742.086</ele>
        <time>2015-12-19T13:35:57Z</time>
      </trkpt>
      <trkpt lat="41.939265" lon="0.803484">
        <ele>742.060</ele>
        <time>2015-12-19T13:36:00Z</time>
      </trkpt>
      <trkpt lat="41.939160" lon="0.803563">
        <ele>742.026</ele>
        <time>2015-12-19T13:36:03Z</time>
      </trkpt>
      <trkpt lat="41.939053" lon="0.803652">
        <ele>742.008</ele>
        <time>2015-12-19T13:36:06Z</time>
      </trkpt>
      <trkpt lat="41.938942" lon="0.803737">
        <ele>742.059</ele>
        <time>2015-12-19T13:36:09Z</time>
      </trkpt>
      <trkpt lat="41.938830" lon="0.803819">
        <ele>742.019</ele>
        <time>2015-12-19T13:36:12Z</time>
      </trkpt>
      <trkpt lat="41.938714" lon="0.803892">
        <ele>742.085</ele>
        <time>2015-12-19T13:36:15Z</time>
      </trkpt>
      <trkpt lat="41.938603" lon="0.803970">
        <ele>742.069</ele>
        <time>2015-12-19T13:36:18Z</time>
      </trkpt>
      <trkpt lat="41.938493" lon="0.804045">
        <ele>743.023</ele>
        <time>2015-12-19T13:36:21Z</time>
      </trkpt>
      <trkpt lat="41.938386" lon="0.804116">
        <ele>744.021</ele>
        <time>2015-12-19T13:36:24Z</time>
      </trkpt>
      <trkpt lat="41.938274" lon="0.804176">
        <ele>744.067</ele>
        <time>2015-12-19T13:36:27Z</time>
      </trkpt>
      <trkpt lat="41.938159" lon="0.804243">
        <ele>744.067</ele>
        <time>2015-12-19T13:36:30Z</time>
      </trkpt>
      <trkpt lat="41.938046" lon="0.804317">
        <ele>743.045</ele>
        <time>2015-12-19T13:36:33Z</time>
      </trkpt>
      <trkpt lat="41.937931" lon="0.804398">
        <ele>743.047</ele>
        <time>2015-12-19T13:36:36Z</time>
      </trkpt>
      <trkpt lat="41.937808" lon="0.804471">
        <ele>743.011</ele>
        <time>2015-12-19T13:36:39Z</time>
      </trkpt>
      <trkpt lat="41.937694" lon="0.804556">
        <ele>743.008</ele>
        <time>2015-12-19T13:36:42Z</time>
      </trkpt>
      <trkpt lat="41.937615" lon="0.804620">
        <ele>743.035</ele>
        <time>2015-12-19T13:36:44Z</time>
      </trkpt>
      <trkpt lat="41.937528" lon="0.804692">
        <ele>742.025</ele>
        <time>2015-12-19T13:36:46Z</time>
      </trkpt>
      <trkpt lat="41.937447" lon="0.804753">
        <ele>742.021</ele>
        <time>2015-12-19T13:36:47Z</time>
      </trkpt>
      <trkpt lat="41.937362" lon="0.804816">
        <ele>742.015</ele>
        <time>2015-12-19T13:36:49Z</time>
      </trkpt>
      <trkpt lat="41.937264" lon="0.804866">
        <ele>741.059</ele>
        <time>2015-12-19T13:36:51Z</time>
      </trkpt>
      <trkpt lat="41.937168" lon="0.804918">
        <ele>740.077</ele>
        <time>2015-12-19T13:36:53Z</time>
      </trkpt>
      <trkpt lat="41.937059" lon="0.804979">
        <ele>739.023</ele>
        <time>2015-12-19T13:36:56Z</time>
      </trkpt>
      <trkpt lat="41.936948" lon="0.805065">
        <ele>738.023</ele>
        <time>2015-12-19T13:36:58Z</time>
      </trkpt>
      <trkpt lat="41.936840" lon="0.805178">
        <ele>737.025</ele>
        <time>2015-12-19T13:37:00Z</time>
      </trkpt>
      <trkpt lat="41.936750" lon="0.805301">
        <ele>736.026</ele>
        <time>2015-12-19T13:37:02Z</time>
      </trkpt>
      <trkpt lat="41.936670" lon="0.805444">
        <ele>735.008</ele>
        <time>2015-12-19T13:37:04Z</time>
      </trkpt>
      <trkpt lat="41.936612" lon="0.805600">
        <ele>735.008</ele>
        <time>2015-12-19T13:37:06Z</time>
      </trkpt>
      <trkpt lat="41.936536" lon="0.805722">
        <ele>734.053</ele>
        <time>2015-12-19T13:37:08Z</time>
      </trkpt>
      <trkpt lat="41.936434" lon="0.805808">
        <ele>734.043</ele>
        <time>2015-12-19T13:37:10Z</time>
      </trkpt>
      <trkpt lat="41.936313" lon="0.805886">
        <ele>732.029</ele>
        <time>2015-12-19T13:37:12Z</time>
      </trkpt>
      <trkpt lat="41.936192" lon="0.805982">
        <ele>730.033</ele>
        <time>2015-12-19T13:37:14Z</time>
      </trkpt>
      <trkpt lat="41.936067" lon="0.806093">
        <ele>729.087</ele>
        <time>2015-12-19T13:37:16Z</time>
      </trkpt>
      <trkpt lat="41.935931" lon="0.806225">
        <ele>727.075</ele>
        <time>2015-12-19T13:37:18Z</time>
      </trkpt>
      <trkpt lat="41.935790" lon="0.806363">
        <ele>726.081</ele>
        <time>2015-12-19T13:37:20Z</time>
      </trkpt>
      <trkpt lat="41.935708" lon="0.806434">
        <ele>725.071</ele>
        <time>2015-12-19T13:37:21Z</time>
      </trkpt>
      <trkpt lat="41.935566" lon="0.806566">
        <ele>722.045</ele>
        <time>2015-12-19T13:37:23Z</time>
      </trkpt>
      <trkpt lat="41.935494" lon="0.806639">
        <ele>722.047</ele>
        <time>2015-12-19T13:37:24Z</time>
      </trkpt>
      <trkpt lat="41.935355" lon="0.806782">
        <ele>720.011</ele>
        <time>2015-12-19T13:37:26Z</time>
      </trkpt>
      <trkpt lat="41.935223" lon="0.806908">
        <ele>719.008</ele>
        <time>2015-12-19T13:37:28Z</time>
      </trkpt>
      <trkpt lat="41.935087" lon="0.807038">
        <ele>718.025</ele>
        <time>2015-12-19T13:37:30Z</time>
      </trkpt>
      <trkpt lat="41.935008" lon="0.807106">
        <ele>717.015</ele>
        <time>2015-12-19T13:37:31Z</time>
      </trkpt>
      <trkpt lat="41.934929" lon="0.807178">
        <ele>716.091</ele>
        <time>2015-12-19T13:37:32Z</time>
      </trkpt>
      <trkpt lat="41.934789" lon="0.807328">
        <ele>713.095</ele>
        <time>2015-12-19T13:37:34Z</time>
      </trkpt>
      <trkpt lat="41.934680" lon="0.807469">
        <ele>712.099</ele>
        <time>2015-12-19T13:37:36Z</time>
      </trkpt>
      <trkpt lat="41.934580" lon="0.807654">
        <ele>710.067</ele>
        <time>2015-12-19T13:37:38Z</time>
      </trkpt>
      <trkpt lat="41.934482" lon="0.807853">
        <ele>708.083</ele>
        <time>2015-12-19T13:37:40Z</time>
      </trkpt>
      <trkpt lat="41.934386" lon="0.808033">
        <ele>706.053</ele>
        <time>2015-12-19T13:37:42Z</time>
      </trkpt>
      <trkpt lat="41.934302" lon="0.808167">
        <ele>705.022</ele>
        <time>2015-12-19T13:37:44Z</time>
      </trkpt>
      <trkpt lat="41.934242" lon="0.808312">
        <ele>703.062</ele>
        <time>2015-12-19T13:37:46Z</time>
      </trkpt>
      <trkpt lat="41.934227" lon="0.808503">
        <ele>702.008</ele>
        <time>2015-12-19T13:37:48Z</time>
      </trkpt>
      <trkpt lat="41.934211" lon="0.808692">
        <ele>702.008</ele>
        <time>2015-12-19T13:37:50Z</time>
      </trkpt>
      <trkpt lat="41.934157" lon="0.808885">
        <ele>701.053</ele>
        <time>2015-12-19T13:37:52Z</time>
      </trkpt>
      <trkpt lat="41.934071" lon="0.809054">
        <ele>700.073</ele>
        <time>2015-12-19T13:37:54Z</time>
      </trkpt>
      <trkpt lat="41.933962" lon="0.809208">
        <ele>697.079</ele>
        <time>2015-12-19T13:37:56Z</time>
      </trkpt>
      <trkpt lat="41.933859" lon="0.809366">
        <ele>696.083</ele>
        <time>2015-12-19T13:37:58Z</time>
      </trkpt>
      <trkpt lat="41.933783" lon="0.809560">
        <ele>695.037</ele>
        <time>2015-12-19T13:38:00Z</time>
      </trkpt>
      <trkpt lat="41.933741" lon="0.809673">
        <ele>694.095</ele>
        <time>2015-12-19T13:38:01Z</time>
      </trkpt>
      <trkpt lat="41.933667" lon="0.809856">
        <ele>694.071</ele>
        <time>2015-12-19T13:38:03Z</time>
      </trkpt>
      <trkpt lat="41.933618" lon="0.810025">
        <ele>694.021</ele>
        <time>2015-12-19T13:38:05Z</time>
      </trkpt>
      <trkpt lat="41.933526" lon="0.810153">
        <ele>694.046</ele>
        <time>2015-12-19T13:38:07Z</time>
      </trkpt>
      <trkpt lat="41.933426" lon="0.810183">
        <ele>694.088</ele>
        <time>2015-12-19T13:38:09Z</time>
      </trkpt>
      <trkpt lat="41.933438" lon="0.810313">
        <ele>692.016</ele>
        <time>2015-12-19T13:40:57Z</time>
      </trkpt>
      <trkpt lat="41.933496" lon="0.810413">
        <ele>693.008</ele>
        <time>2015-12-19T13:41:02Z</time>
      </trkpt>
      <trkpt lat="41.933555" lon="0.810525">
        <ele>695.085</ele>
        <time>2015-12-19T13:41:07Z</time>
      </trkpt>
      <trkpt lat="41.933604" lon="0.810631">
        <ele>696.085</ele>
        <time>2015-12-19T13:41:13Z</time>
      </trkpt>
      <trkpt lat="41.933637" lon="0.810750">
        <ele>698.051</ele>
        <time>2015-12-19T13:41:19Z</time>
      </trkpt>
      <trkpt lat="41.933639" lon="0.810907">
        <ele>697.085</ele>
        <time>2015-12-19T13:41:26Z</time>
      </trkpt>
      <trkpt lat="41.933643" lon="0.811093">
        <ele>696.049</ele>
        <time>2015-12-19T13:41:29Z</time>
      </trkpt>
      <trkpt lat="41.933649" lon="0.811240">
        <ele>696.087</ele>
        <time>2015-12-19T13:41:31Z</time>
      </trkpt>
      <trkpt lat="41.933661" lon="0.811386">
        <ele>696.053</ele>
        <time>2015-12-19T13:41:33Z</time>
      </trkpt>
      <trkpt lat="41.933681" lon="0.811535">
        <ele>696.043</ele>
        <time>2015-12-19T13:41:35Z</time>
      </trkpt>
      <trkpt lat="41.933698" lon="0.811672">
        <ele>696.018</ele>
        <time>2015-12-19T13:41:37Z</time>
      </trkpt>
      <trkpt lat="41.933696" lon="0.811807">
        <ele>696.098</ele>
        <time>2015-12-19T13:41:39Z</time>
      </trkpt>
      <trkpt lat="41.933693" lon="0.811944">
        <ele>695.017</ele>
        <time>2015-12-19T13:41:41Z</time>
      </trkpt>
      <trkpt lat="41.933700" lon="0.812083">
        <ele>695.008</ele>
        <time>2015-12-19T13:41:43Z</time>
      </trkpt>
      <trkpt lat="41.933705" lon="0.812223">
        <ele>694.042</ele>
        <time>2015-12-19T13:41:45Z</time>
      </trkpt>
      <trkpt lat="41.933711" lon="0.812369">
        <ele>694.052</ele>
        <time>2015-12-19T13:41:47Z</time>
      </trkpt>
      <trkpt lat="41.933725" lon="0.812521">
        <ele>693.048</ele>
        <time>2015-12-19T13:41:49Z</time>
      </trkpt>
      <trkpt lat="41.933741" lon="0.812687">
        <ele>693.052</ele>
        <time>2015-12-19T13:41:51Z</time>
      </trkpt>
      <trkpt lat="41.933765" lon="0.812840">
        <ele>693.076</ele>
        <time>2015-12-19T13:41:53Z</time>
      </trkpt>
      <trkpt lat="41.933783" lon="0.812975">
        <ele>693.014</ele>
        <time>2015-12-19T13:41:55Z</time>
      </trkpt>
      <trkpt lat="41.933793" lon="0.813111">
        <ele>693.050</ele>
        <time>2015-12-19T13:41:57Z</time>
      </trkpt>
      <trkpt lat="41.933814" lon="0.813246">
        <ele>693.040</ele>
        <time>2015-12-19T13:41:59Z</time>
      </trkpt>
      <trkpt lat="41.933839" lon="0.813376">
        <ele>693.077</ele>
        <time>2015-12-19T13:42:01Z</time>
      </trkpt>
      <trkpt lat="41.933844" lon="0.813498">
        <ele>694.061</ele>
        <time>2015-12-19T13:42:03Z</time>
      </trkpt>
      <trkpt lat="41.933852" lon="0.813673">
        <ele>695.027</ele>
        <time>2015-12-19T13:42:06Z</time>
      </trkpt>
      <trkpt lat="41.933852" lon="0.813811">
        <ele>696.008</ele>
        <time>2015-12-19T13:42:09Z</time>
      </trkpt>
      <trkpt lat="41.933852" lon="0.813955">
        <ele>696.048</ele>
        <time>2015-12-19T13:42:12Z</time>
      </trkpt>
      <trkpt lat="41.933869" lon="0.814113">
        <ele>696.098</ele>
        <time>2015-12-19T13:42:15Z</time>
      </trkpt>
      <trkpt lat="41.933919" lon="0.814279">
        <ele>696.024</ele>
        <time>2015-12-19T13:42:18Z</time>
      </trkpt>
      <trkpt lat="41.933969" lon="0.814405">
        <ele>695.048</ele>
        <time>2015-12-19T13:42:20Z</time>
      </trkpt>
      <trkpt lat="41.934030" lon="0.814528">
        <ele>695.012</ele>
        <time>2015-12-19T13:42:22Z</time>
      </trkpt>
      <trkpt lat="41.934080" lon="0.814634">
        <ele>696.020</ele>
        <time>2015-12-19T13:42:24Z</time>
      </trkpt>
      <trkpt lat="41.934138" lon="0.814760">
        <ele>696.076</ele>
        <time>2015-12-19T13:42:27Z</time>
      </trkpt>
      <trkpt lat="41.934194" lon="0.814901">
        <ele>696.026</ele>
        <time>2015-12-19T13:42:30Z</time>
      </trkpt>
      <trkpt lat="41.934241" lon="0.815033">
        <ele>696.091</ele>
        <time>2015-12-19T13:42:32Z</time>
      </trkpt>
      <trkpt lat="41.934272" lon="0.815160">
        <ele>697.081</ele>
        <time>2015-12-19T13:42:35Z</time>
      </trkpt>
      <trkpt lat="41.934300" lon="0.815299">
        <ele>699.019</ele>
        <time>2015-12-19T13:42:39Z</time>
      </trkpt>
      <trkpt lat="41.934317" lon="0.815420">
        <ele>700.008</ele>
        <time>2015-12-19T13:42:43Z</time>
      </trkpt>
      <trkpt lat="41.934331" lon="0.815567">
        <ele>702.020</ele>
        <time>2015-12-19T13:42:49Z</time>
      </trkpt>
      <trkpt lat="41.934332" lon="0.815713">
        <ele>703.050</ele>
        <time>2015-12-19T13:42:54Z</time>
      </trkpt>
      <trkpt lat="41.934302" lon="0.815850">
        <ele>704.066</ele>
        <time>2015-12-19T13:42:59Z</time>
      </trkpt>
      <trkpt lat="41.934224" lon="0.815950">
        <ele>704.090</ele>
        <time>2015-12-19T13:43:04Z</time>
      </trkpt>
      <trkpt lat="41.934139" lon="0.816037">
        <ele>704.064</ele>
        <time>2015-12-19T13:43:09Z</time>
      </trkpt>
      <trkpt lat="41.934070" lon="0.816154">
        <ele>703.032</ele>
        <time>2015-12-19T13:43:14Z</time>
      </trkpt>
      <trkpt lat="41.934018" lon="0.816262">
        <ele>703.058</ele>
        <time>2015-12-19T13:43:18Z</time>
      </trkpt>
      <trkpt lat="41.933978" lon="0.816379">
        <ele>705.028</ele>
        <time>2015-12-19T13:43:22Z</time>
      </trkpt>
      <trkpt lat="41.933957" lon="0.816504">
        <ele>706.093</ele>
        <time>2015-12-19T13:43:26Z</time>
      </trkpt>
      <trkpt lat="41.933968" lon="0.816636">
        <ele>707.065</ele>
        <time>2015-12-19T13:43:31Z</time>
      </trkpt>
      <trkpt lat="41.934020" lon="0.816752">
        <ele>707.021</ele>
        <time>2015-12-19T13:43:37Z</time>
      </trkpt>
      <trkpt lat="41.934107" lon="0.816804">
        <ele>706.008</ele>
        <time>2015-12-19T13:43:41Z</time>
      </trkpt>
      <trkpt lat="41.934202" lon="0.816795">
        <ele>706.030</ele>
        <time>2015-12-19T13:43:44Z</time>
      </trkpt>
      <trkpt lat="41.934300" lon="0.816752">
        <ele>705.050</ele>
        <time>2015-12-19T13:43:47Z</time>
      </trkpt>
      <trkpt lat="41.934412" lon="0.816720">
        <ele>704.046</ele>
        <time>2015-12-19T13:43:50Z</time>
      </trkpt>
      <trkpt lat="41.934524" lon="0.816721">
        <ele>704.080</ele>
        <time>2015-12-19T13:43:53Z</time>
      </trkpt>
      <trkpt lat="41.934639" lon="0.816788">
        <ele>704.094</ele>
        <time>2015-12-19T13:43:56Z</time>
      </trkpt>
      <trkpt lat="41.934692" lon="0.816886">
        <ele>703.022</ele>
        <time>2015-12-19T13:43:58Z</time>
      </trkpt>
      <trkpt lat="41.934728" lon="0.817030">
        <ele>702.048</ele>
        <time>2015-12-19T13:44:00Z</time>
      </trkpt>
      <trkpt lat="41.934771" lon="0.817145">
        <ele>702.078</ele>
        <time>2015-12-19T13:44:02Z</time>
      </trkpt>
      <trkpt lat="41.934811" lon="0.817274">
        <ele>702.016</ele>
        <time>2015-12-19T13:44:04Z</time>
      </trkpt>
      <trkpt lat="41.934852" lon="0.817403">
        <ele>702.076</ele>
        <time>2015-12-19T13:44:06Z</time>
      </trkpt>
      <trkpt lat="41.934898" lon="0.817566">
        <ele>702.013</ele>
        <time>2015-12-19T13:44:09Z</time>
      </trkpt>
      <trkpt lat="41.934940" lon="0.817717">
        <ele>702.008</ele>
        <time>2015-12-19T13:44:12Z</time>
      </trkpt>
      <trkpt lat="41.934970" lon="0.817881">
        <ele>702.052</ele>
        <time>2015-12-19T13:44:15Z</time>
      </trkpt>
      <trkpt lat="41.934984" lon="0.818010">
        <ele>701.022</ele>
        <time>2015-12-19T13:44:17Z</time>
      </trkpt>
      <trkpt lat="41.934998" lon="0.818152">
        <ele>700.038</ele>
        <time>2015-12-19T13:44:19Z</time>
      </trkpt>
      <trkpt lat="41.935041" lon="0.818294">
        <ele>700.082</ele>
        <time>2015-12-19T13:44:21Z</time>
      </trkpt>
      <trkpt lat="41.935131" lon="0.818453">
        <ele>700.046</ele>
        <time>2015-12-19T13:44:23Z</time>
      </trkpt>
      <trkpt lat="41.935194" lon="0.818544">
        <ele>700.024</ele>
        <time>2015-12-19T13:44:25Z</time>
      </trkpt>
      <trkpt lat="41.935260" lon="0.818643">
        <ele>701.070</ele>
        <time>2015-12-19T13:44:27Z</time>
      </trkpt>
      <trkpt lat="41.935331" lon="0.818785">
        <ele>700.020</ele>
        <time>2015-12-19T13:44:30Z</time>
      </trkpt>
      <trkpt lat="41.935371" lon="0.818907">
        <ele>700.099</ele>
        <time>2015-12-19T13:44:32Z</time>
      </trkpt>
      <trkpt lat="41.935429" lon="0.819039">
        <ele>698.007</ele>
        <time>2015-12-19T13:44:34Z</time>
      </trkpt>
      <trkpt lat="41.935484" lon="0.819205">
        <ele>697.027</ele>
        <time>2015-12-19T13:44:36Z</time>
      </trkpt>
      <trkpt lat="41.935521" lon="0.819389">
        <ele>696.008</ele>
        <time>2015-12-19T13:44:38Z</time>
      </trkpt>
      <trkpt lat="41.935551" lon="0.819553">
        <ele>694.070</ele>
        <time>2015-12-19T13:44:40Z</time>
      </trkpt>
      <trkpt lat="41.935594" lon="0.819702">
        <ele>693.040</ele>
        <time>2015-12-19T13:44:42Z</time>
      </trkpt>
      <trkpt lat="41.935673" lon="0.819841">
        <ele>692.086</ele>
        <time>2015-12-19T13:44:44Z</time>
      </trkpt>
      <trkpt lat="41.935745" lon="0.819989">
        <ele>691.020</ele>
        <time>2015-12-19T13:44:47Z</time>
      </trkpt>
      <trkpt lat="41.935772" lon="0.820144">
        <ele>692.084</ele>
        <time>2015-12-19T13:44:49Z</time>
      </trkpt>
      <trkpt lat="41.935733" lon="0.820274">
        <ele>693.012</ele>
        <time>2015-12-19T13:44:51Z</time>
      </trkpt>
      <trkpt lat="41.935685" lon="0.820427">
        <ele>693.098</ele>
        <time>2015-12-19T13:44:53Z</time>
      </trkpt>
      <trkpt lat="41.935642" lon="0.820586">
        <ele>691.088</ele>
        <time>2015-12-19T13:44:55Z</time>
      </trkpt>
      <trkpt lat="41.935621" lon="0.820739">
        <ele>692.076</ele>
        <time>2015-12-19T13:44:57Z</time>
      </trkpt>
      <trkpt lat="41.935629" lon="0.820883">
        <ele>693.090</ele>
        <time>2015-12-19T13:44:59Z</time>
      </trkpt>
      <trkpt lat="41.935662" lon="0.821018">
        <ele>693.019</ele>
        <time>2015-12-19T13:45:01Z</time>
      </trkpt>
      <trkpt lat="41.935722" lon="0.821158">
        <ele>693.008</ele>
        <time>2015-12-19T13:45:04Z</time>
      </trkpt>
      <trkpt lat="41.935759" lon="0.821290">
        <ele>694.058</ele>
        <time>2015-12-19T13:45:07Z</time>
      </trkpt>
      <trkpt lat="41.935757" lon="0.821452">
        <ele>694.048</ele>
        <time>2015-12-19T13:45:10Z</time>
      </trkpt>
      <trkpt lat="41.935767" lon="0.821601">
        <ele>695.034</ele>
        <time>2015-12-19T13:45:13Z</time>
      </trkpt>
      <trkpt lat="41.935786" lon="0.821740">
        <ele>696.078</ele>
        <time>2015-12-19T13:45:16Z</time>
      </trkpt>
      <trkpt lat="41.935794" lon="0.821864">
        <ele>696.042</ele>
        <time>2015-12-19T13:45:19Z</time>
      </trkpt>
      <trkpt lat="41.935809" lon="0.822005">
        <ele>697.070</ele>
        <time>2015-12-19T13:45:23Z</time>
      </trkpt>
      <trkpt lat="41.935834" lon="0.822134">
        <ele>699.096</ele>
        <time>2015-12-19T13:45:28Z</time>
      </trkpt>
      <trkpt lat="41.935863" lon="0.822267">
        <ele>700.026</ele>
        <time>2015-12-19T13:45:35Z</time>
      </trkpt>
      <trkpt lat="41.935895" lon="0.822393">
        <ele>701.061</ele>
        <time>2015-12-19T13:45:41Z</time>
      </trkpt>
      <trkpt lat="41.935927" lon="0.822523">
        <ele>702.021</ele>
        <time>2015-12-19T13:45:47Z</time>
      </trkpt>
      <trkpt lat="41.935958" lon="0.822638">
        <ele>702.013</ele>
        <time>2015-12-19T13:45:52Z</time>
      </trkpt>
      <trkpt lat="41.935994" lon="0.822757">
        <ele>703.008</ele>
        <time>2015-12-19T13:45:57Z</time>
      </trkpt>
      <trkpt lat="41.936026" lon="0.822880">
        <ele>703.087</ele>
        <time>2015-12-19T13:46:02Z</time>
      </trkpt>
      <trkpt lat="41.936057" lon="0.823007">
        <ele>704.037</ele>
        <time>2015-12-19T13:46:06Z</time>
      </trkpt>
      <trkpt lat="41.936040" lon="0.823140">
        <ele>704.063</ele>
        <time>2015-12-19T13:46:10Z</time>
      </trkpt>
      <trkpt lat="41.935972" lon="0.823249">
        <ele>705.057</ele>
        <time>2015-12-19T13:46:14Z</time>
      </trkpt>
      <trkpt lat="41.935879" lon="0.823284">
        <ele>705.011</ele>
        <time>2015-12-19T13:46:18Z</time>
      </trkpt>
      <trkpt lat="41.935783" lon="0.823274">
        <ele>706.099</ele>
        <time>2015-12-19T13:46:21Z</time>
      </trkpt>
      <trkpt lat="41.935688" lon="0.823239">
        <ele>706.085</ele>
        <time>2015-12-19T13:46:25Z</time>
      </trkpt>
      <trkpt lat="41.935595" lon="0.823202">
        <ele>705.025</ele>
        <time>2015-12-19T13:46:29Z</time>
      </trkpt>
      <trkpt lat="41.935499" lon="0.823178">
        <ele>705.017</ele>
        <time>2015-12-19T13:46:34Z</time>
      </trkpt>
      <trkpt lat="41.935401" lon="0.823142">
        <ele>705.087</ele>
        <time>2015-12-19T13:46:40Z</time>
      </trkpt>
      <trkpt lat="41.935306" lon="0.823113">
        <ele>705.015</ele>
        <time>2015-12-19T13:46:47Z</time>
      </trkpt>
      <trkpt lat="41.935209" lon="0.823095">
        <ele>704.008</ele>
        <time>2015-12-19T13:46:53Z</time>
      </trkpt>
      <trkpt lat="41.935110" lon="0.823096">
        <ele>704.012</ele>
        <time>2015-12-19T13:46:59Z</time>
      </trkpt>
      <trkpt lat="41.935010" lon="0.823122">
        <ele>704.062</ele>
        <time>2015-12-19T13:47:05Z</time>
      </trkpt>
      <trkpt lat="41.934926" lon="0.823186">
        <ele>705.088</ele>
        <time>2015-12-19T13:47:11Z</time>
      </trkpt>
      <trkpt lat="41.934900" lon="0.823304">
        <ele>705.032</ele>
        <time>2015-12-19T13:47:16Z</time>
      </trkpt>
      <trkpt lat="41.934870" lon="0.823443">
        <ele>704.076</ele>
        <time>2015-12-19T13:47:20Z</time>
      </trkpt>
      <trkpt lat="41.934844" lon="0.823561">
        <ele>703.074</ele>
        <time>2015-12-19T13:47:22Z</time>
      </trkpt>
      <trkpt lat="41.934817" lon="0.823717">
        <ele>703.010</ele>
        <time>2015-12-19T13:47:24Z</time>
      </trkpt>
      <trkpt lat="41.934808" lon="0.823844">
        <ele>703.010</ele>
        <time>2015-12-19T13:47:26Z</time>
      </trkpt>
      <trkpt lat="41.934816" lon="0.824013">
        <ele>703.033</ele>
        <time>2015-12-19T13:47:29Z</time>
      </trkpt>
      <trkpt lat="41.934833" lon="0.824174">
        <ele>703.023</ele>
        <time>2015-12-19T13:47:32Z</time>
      </trkpt>
      <trkpt lat="41.934860" lon="0.824312">
        <ele>703.015</ele>
        <time>2015-12-19T13:47:35Z</time>
      </trkpt>
      <trkpt lat="41.934897" lon="0.824438">
        <ele>703.008</ele>
        <time>2015-12-19T13:47:38Z</time>
      </trkpt>
      <trkpt lat="41.934946" lon="0.824578">
        <ele>703.034</ele>
        <time>2015-12-19T13:47:41Z</time>
      </trkpt>
      <trkpt lat="41.935027" lon="0.824710">
        <ele>703.084</ele>
        <time>2015-12-19T13:47:44Z</time>
      </trkpt>
      <trkpt lat="41.935140" lon="0.824837">
        <ele>703.080</ele>
        <time>2015-12-19T13:47:47Z</time>
      </trkpt>
      <trkpt lat="41.935212" lon="0.824945">
        <ele>703.084</ele>
        <time>2015-12-19T13:47:49Z</time>
      </trkpt>
      <trkpt lat="41.935276" lon="0.825052">
        <ele>703.068</ele>
        <time>2015-12-19T13:47:51Z</time>
      </trkpt>
      <trkpt lat="41.935335" lon="0.825196">
        <ele>703.066</ele>
        <time>2015-12-19T13:47:54Z</time>
      </trkpt>
      <trkpt lat="41.935353" lon="0.825325">
        <ele>704.072</ele>
        <time>2015-12-19T13:47:57Z</time>
      </trkpt>
      <trkpt lat="41.935380" lon="0.825459">
        <ele>704.092</ele>
        <time>2015-12-19T13:48:02Z</time>
      </trkpt>
      <trkpt lat="41.935416" lon="0.825577">
        <ele>705.081</ele>
        <time>2015-12-19T13:48:09Z</time>
      </trkpt>
      <trkpt lat="41.935454" lon="0.825692">
        <ele>707.061</ele>
        <time>2015-12-19T13:48:17Z</time>
      </trkpt>
      <trkpt lat="41.935500" lon="0.825811">
        <ele>709.017</ele>
        <time>2015-12-19T13:48:27Z</time>
      </trkpt>
      <trkpt lat="41.935536" lon="0.825924">
        <ele>710.008</ele>
        <time>2015-12-19T13:48:36Z</time>
      </trkpt>
      <trkpt lat="41.935572" lon="0.826042">
        <ele>712.049</ele>
        <time>2015-12-19T13:48:46Z</time>
      </trkpt>
      <trkpt lat="41.935605" lon="0.826156">
        <ele>713.099</ele>
        <time>2015-12-19T13:48:55Z</time>
      </trkpt>
      <trkpt lat="41.935627" lon="0.826275">
        <ele>716.055</ele>
        <time>2015-12-19T13:49:05Z</time>
      </trkpt>
      <trkpt lat="41.935678" lon="0.826386">
        <ele>717.049</ele>
        <time>2015-12-19T13:49:14Z</time>
      </trkpt>
      <trkpt lat="41.935723" lon="0.826499">
        <ele>718.073</ele>
        <time>2015-12-19T13:49:23Z</time>
      </trkpt>
      <trkpt lat="41.935785" lon="0.826602">
        <ele>720.011</ele>
        <time>2015-12-19T13:49:32Z</time>
      </trkpt>
      <trkpt lat="41.935831" lon="0.826709">
        <ele>721.017</ele>
        <time>2015-12-19T13:49:39Z</time>
      </trkpt>
      <trkpt lat="41.935886" lon="0.826813">
        <ele>721.067</ele>
        <time>2015-12-19T13:49:46Z</time>
      </trkpt>
      <trkpt lat="41.935966" lon="0.826888">
        <ele>722.074</ele>
        <time>2015-12-19T13:49:53Z</time>
      </trkpt>
      <trkpt lat="41.936043" lon="0.826955">
        <ele>723.056</ele>
        <time>2015-12-19T13:50:00Z</time>
      </trkpt>
      <trkpt lat="41.936121" lon="0.827016">
        <ele>723.021</ele>
        <time>2015-12-19T13:50:07Z</time>
      </trkpt>
      <trkpt lat="41.936201" lon="0.827100">
        <ele>723.008</ele>
        <time>2015-12-19T13:50:14Z</time>
      </trkpt>
      <trkpt lat="41.936259" lon="0.827202">
        <ele>723.028</ele>
        <time>2015-12-19T13:50:20Z</time>
      </trkpt>
      <trkpt lat="41.936300" lon="0.827315">
        <ele>724.038</ele>
        <time>2015-12-19T13:50:25Z</time>
      </trkpt>
      <trkpt lat="41.936335" lon="0.827442">
        <ele>725.064</ele>
        <time>2015-12-19T13:50:30Z</time>
      </trkpt>
      <trkpt lat="41.936359" lon="0.827584">
        <ele>725.038</ele>
        <time>2015-12-19T13:50:36Z</time>
      </trkpt>
      <trkpt lat="41.936377" lon="0.827713">
        <ele>725.072</ele>
        <time>2015-12-19T13:50:40Z</time>
      </trkpt>
      <trkpt lat="41.936392" lon="0.827835">
        <ele>725.030</ele>
        <time>2015-12-19T13:50:43Z</time>
      </trkpt>
      <trkpt lat="41.936432" lon="0.827980">
        <ele>725.056</ele>
        <time>2015-12-19T13:50:47Z</time>
      </trkpt>
      <trkpt lat="41.936484" lon="0.828126">
        <ele>726.056</ele>
        <time>2015-12-19T13:50:51Z</time>
      </trkpt>
      <trkpt lat="41.936552" lon="0.828251">
        <ele>726.087</ele>
        <time>2015-12-19T13:50:54Z</time>
      </trkpt>
      <trkpt lat="41.936629" lon="0.828355">
        <ele>726.042</ele>
        <time>2015-12-19T13:50:57Z</time>
      </trkpt>
      <trkpt lat="41.936697" lon="0.828462">
        <ele>727.026</ele>
        <time>2015-12-19T13:51:00Z</time>
      </trkpt>
      <trkpt lat="41.936756" lon="0.828582">
        <ele>727.008</ele>
        <time>2015-12-19T13:51:03Z</time>
      </trkpt>
      <trkpt lat="41.936792" lon="0.828713">
        <ele>727.069</ele>
        <time>2015-12-19T13:51:06Z</time>
      </trkpt>
      <trkpt lat="41.936830" lon="0.828846">
        <ele>726.059</ele>
        <time>2015-12-19T13:51:09Z</time>
      </trkpt>
      <trkpt lat="41.936868" lon="0.828978">
        <ele>726.055</ele>
        <time>2015-12-19T13:51:12Z</time>
      </trkpt>
      <trkpt lat="41.936925" lon="0.829103">
        <ele>726.029</ele>
        <time>2015-12-19T13:51:15Z</time>
      </trkpt>
      <trkpt lat="41.936988" lon="0.829244">
        <ele>725.023</ele>
        <time>2015-12-19T13:51:18Z</time>
      </trkpt>
      <trkpt lat="41.937043" lon="0.829410">
        <ele>725.091</ele>
        <time>2015-12-19T13:51:21Z</time>
      </trkpt>
      <trkpt lat="41.937094" lon="0.829575">
        <ele>726.067</ele>
        <time>2015-12-19T13:51:24Z</time>
      </trkpt>
      <trkpt lat="41.937149" lon="0.829695">
        <ele>727.027</ele>
        <time>2015-12-19T13:51:27Z</time>
      </trkpt>
      <trkpt lat="41.937210" lon="0.829820">
        <ele>727.034</ele>
        <time>2015-12-19T13:51:31Z</time>
      </trkpt>
      <trkpt lat="41.937277" lon="0.829936">
        <ele>727.055</ele>
        <time>2015-12-19T13:51:35Z</time>
      </trkpt>
      <trkpt lat="41.937335" lon="0.830052">
        <ele>728.010</ele>
        <time>2015-12-19T13:51:39Z</time>
      </trkpt>
      <trkpt lat="41.937390" lon="0.830188">
        <ele>727.008</ele>
        <time>2015-12-19T13:51:43Z</time>
      </trkpt>
      <trkpt lat="41.937439" lon="0.830298">
        <ele>727.074</ele>
        <time>2015-12-19T13:51:46Z</time>
      </trkpt>
      <trkpt lat="41.937498" lon="0.830415">
        <ele>727.024</ele>
        <time>2015-12-19T13:51:49Z</time>
      </trkpt>
      <trkpt lat="41.937555" lon="0.830509">
        <ele>726.020</ele>
        <time>2015-12-19T13:51:51Z</time>
      </trkpt>
      <trkpt lat="41.937612" lon="0.830632">
        <ele>726.024</ele>
        <time>2015-12-19T13:51:53Z</time>
      </trkpt>
      <trkpt lat="41.937636" lon="0.830758">
        <ele>726.088</ele>
        <time>2015-12-19T13:51:55Z</time>
      </trkpt>
      <trkpt lat="41.937656" lon="0.830954">
        <ele>725.066</ele>
        <time>2015-12-19T13:51:57Z</time>
      </trkpt>
      <trkpt lat="41.937644" lon="0.831108">
        <ele>725.052</ele>
        <time>2015-12-19T13:52:00Z</time>
      </trkpt>
      <trkpt lat="41.937636" lon="0.831258">
        <ele>725.062</ele>
        <time>2015-12-19T13:52:03Z</time>
      </trkpt>
      <trkpt lat="41.937640" lon="0.831394">
        <ele>726.028</ele>
        <time>2015-12-19T13:52:06Z</time>
      </trkpt>
      <trkpt lat="41.937645" lon="0.831525">
        <ele>727.089</ele>
        <time>2015-12-19T13:52:09Z</time>
      </trkpt>
      <trkpt lat="41.937657" lon="0.831650">
        <ele>727.017</ele>
        <time>2015-12-19T13:52:12Z</time>
      </trkpt>
      <trkpt lat="41.937665" lon="0.831778">
        <ele>728.008</ele>
        <time>2015-12-19T13:52:16Z</time>
      </trkpt>
      <trkpt lat="41.937668" lon="0.831909">
        <ele>729.013</ele>
        <time>2015-12-19T13:52:22Z</time>
      </trkpt>
      <trkpt lat="41.937669" lon="0.832032">
        <ele>730.053</ele>
        <time>2015-12-19T13:52:28Z</time>
      </trkpt>
      <trkpt lat="41.937683" lon="0.832161">
        <ele>731.089</ele>
        <time>2015-12-19T13:52:35Z</time>
      </trkpt>
      <trkpt lat="41.937708" lon="0.832289">
        <ele>733.023</ele>
        <time>2015-12-19T13:52:43Z</time>
      </trkpt>
      <trkpt lat="41.937781" lon="0.832359">
        <ele>734.097</ele>
        <time>2015-12-19T13:52:50Z</time>
      </trkpt>
      <trkpt lat="41.937865" lon="0.832407">
        <ele>734.035</ele>
        <time>2015-12-19T13:52:57Z</time>
      </trkpt>
      <trkpt lat="41.937950" lon="0.832477">
        <ele>735.061</ele>
        <time>2015-12-19T13:53:05Z</time>
      </trkpt>
      <trkpt lat="41.938023" lon="0.832569">
        <ele>736.031</ele>
        <time>2015-12-19T13:53:13Z</time>
      </trkpt>
      <trkpt lat="41.938101" lon="0.832655">
        <ele>737.021</ele>
        <time>2015-12-19T13:53:21Z</time>
      </trkpt>
      <trkpt lat="41.938171" lon="0.832732">
        <ele>738.041</ele>
        <time>2015-12-19T13:53:28Z</time>
      </trkpt>
      <trkpt lat="41.938248" lon="0.832812">
        <ele>738.005</ele>
        <time>2015-12-19T13:53:36Z</time>
      </trkpt>
      <trkpt lat="41.938326" lon="0.832890">
        <ele>739.008</ele>
        <time>2015-12-19T13:53:44Z</time>
      </trkpt>
      <trkpt lat="41.938398" lon="0.832972">
        <ele>741.043</ele>
        <time>2015-12-19T13:53:51Z</time>
      </trkpt>
      <trkpt lat="41.938441" lon="0.833091">
        <ele>741.033</ele>
        <time>2015-12-19T13:54:00Z</time>
      </trkpt>
      <trkpt lat="41.938483" lon="0.833209">
        <ele>741.039</ele>
        <time>2015-12-19T13:54:06Z</time>
      </trkpt>
      <trkpt lat="41.938528" lon="0.833320">
        <ele>741.073</ele>
        <time>2015-12-19T13:54:11Z</time>
      </trkpt>
      <trkpt lat="41.938587" lon="0.833422">
        <ele>741.047</ele>
        <time>2015-12-19T13:54:15Z</time>
      </trkpt>
      <trkpt lat="41.938659" lon="0.833505">
        <ele>741.025</ele>
        <time>2015-12-19T13:54:18Z</time>
      </trkpt>
      <trkpt lat="41.938731" lon="0.833609">
        <ele>740.081</ele>
        <time>2015-12-19T13:54:21Z</time>
      </trkpt>
      <trkpt lat="41.938786" lon="0.833736">
        <ele>739.061</ele>
        <time>2015-12-19T13:54:24Z</time>
      </trkpt>
      <trkpt lat="41.938840" lon="0.833855">
        <ele>738.099</ele>
        <time>2015-12-19T13:54:27Z</time>
      </trkpt>
      <trkpt lat="41.938981" lon="0.833909">
        <ele>737.007</ele>
        <time>2015-12-19T13:54:30Z</time>
      </trkpt>
      <trkpt lat="41.939082" lon="0.833933">
        <ele>736.027</ele>
        <time>2015-12-19T13:54:32Z</time>
      </trkpt>
      <trkpt lat="41.939168" lon="0.833967">
        <ele>736.008</ele>
        <time>2015-12-19T13:54:34Z</time>
      </trkpt>
      <trkpt lat="41.939264" lon="0.834011">
        <ele>735.020</ele>
        <time>2015-12-19T13:54:36Z</time>
      </trkpt>
      <trkpt lat="41.939373" lon="0.834052">
        <ele>735.080</ele>
        <time>2015-12-19T13:54:38Z</time>
      </trkpt>
      <trkpt lat="41.939460" lon="0.834134">
        <ele>734.016</ele>
        <time>2015-12-19T13:54:40Z</time>
      </trkpt>
      <trkpt lat="41.939525" lon="0.834250">
        <ele>734.010</ele>
        <time>2015-12-19T13:54:42Z</time>
      </trkpt>
      <trkpt lat="41.939574" lon="0.834367">
        <ele>734.084</ele>
        <time>2015-12-19T13:54:44Z</time>
      </trkpt>
      <trkpt lat="41.939629" lon="0.834475">
        <ele>735.082</ele>
        <time>2015-12-19T13:54:47Z</time>
      </trkpt>
      <trkpt lat="41.939688" lon="0.834583">
        <ele>736.048</ele>
        <time>2015-12-19T13:54:52Z</time>
      </trkpt>
      <trkpt lat="41.939721" lon="0.834708">
        <ele>736.028</ele>
        <time>2015-12-19T13:54:58Z</time>
      </trkpt>
      <trkpt lat="41.939746" lon="0.834837">
        <ele>738.055</ele>
        <time>2015-12-19T13:55:04Z</time>
      </trkpt>
      <trkpt lat="41.939792" lon="0.834979">
        <ele>738.007</ele>
        <time>2015-12-19T13:55:10Z</time>
      </trkpt>
      <trkpt lat="41.939805" lon="0.835104">
        <ele>739.017</ele>
        <time>2015-12-19T13:55:16Z</time>
      </trkpt>
      <trkpt lat="41.939753" lon="0.835224">
        <ele>740.008</ele>
        <time>2015-12-19T13:55:23Z</time>
      </trkpt>
      <trkpt lat="41.939689" lon="0.835312">
        <ele>741.056</ele>
        <time>2015-12-19T13:55:28Z</time>
      </trkpt>
      <trkpt lat="41.939677" lon="0.835446">
        <ele>742.046</ele>
        <time>2015-12-19T13:55:34Z</time>
      </trkpt>
      <trkpt lat="41.939754" lon="0.835524">
        <ele>742.022</ele>
        <time>2015-12-19T13:55:40Z</time>
      </trkpt>
      <trkpt lat="41.939856" lon="0.835517">
        <ele>744.026</ele>
        <time>2015-12-19T13:55:48Z</time>
      </trkpt>
      <trkpt lat="41.939946" lon="0.835486">
        <ele>745.050</ele>
        <time>2015-12-19T13:55:56Z</time>
      </trkpt>
      <trkpt lat="41.940036" lon="0.835460">
        <ele>747.018</ele>
        <time>2015-12-19T13:56:04Z</time>
      </trkpt>
      <trkpt lat="41.940134" lon="0.835487">
        <ele>748.054</ele>
        <time>2015-12-19T13:56:13Z</time>
      </trkpt>
      <trkpt lat="41.940214" lon="0.835564">
        <ele>749.054</ele>
        <time>2015-12-19T13:56:21Z</time>
      </trkpt>
      <trkpt lat="41.940284" lon="0.835659">
        <ele>749.097</ele>
        <time>2015-12-19T13:56:29Z</time>
      </trkpt>
      <trkpt lat="41.940329" lon="0.835770">
        <ele>751.023</ele>
        <time>2015-12-19T13:56:37Z</time>
      </trkpt>
      <trkpt lat="41.940347" lon="0.835902">
        <ele>752.025</ele>
        <time>2015-12-19T13:56:44Z</time>
      </trkpt>
      <trkpt lat="41.940343" lon="0.836028">
        <ele>753.008</ele>
        <time>2015-12-19T13:56:51Z</time>
      </trkpt>
      <trkpt lat="41.940309" lon="0.836145">
        <ele>753.080</ele>
        <time>2015-12-19T13:56:59Z</time>
      </trkpt>
      <trkpt lat="41.940286" lon="0.836278">
        <ele>753.080</ele>
        <time>2015-12-19T13:57:05Z</time>
      </trkpt>
      <trkpt lat="41.940249" lon="0.836405">
        <ele>754.016</ele>
        <time>2015-12-19T13:57:11Z</time>
      </trkpt>
      <trkpt lat="41.940213" lon="0.836550">
        <ele>753.090</ele>
        <time>2015-12-19T13:57:15Z</time>
      </trkpt>
      <trkpt lat="41.940270" lon="0.836648">
        <ele>753.024</ele>
        <time>2015-12-19T13:57:18Z</time>
      </trkpt>
      <trkpt lat="41.940352" lon="0.836716">
        <ele>753.042</ele>
        <time>2015-12-19T13:57:21Z</time>
      </trkpt>
      <trkpt lat="41.940442" lon="0.836809">
        <ele>752.088</ele>
        <time>2015-12-19T13:57:25Z</time>
      </trkpt>
      <trkpt lat="41.940461" lon="0.836939">
        <ele>751.068</ele>
        <time>2015-12-19T13:57:28Z</time>
      </trkpt>
      <trkpt lat="41.940452" lon="0.837110">
        <ele>749.096</ele>
        <time>2015-12-19T13:57:31Z</time>
      </trkpt>
      <trkpt lat="41.940466" lon="0.837285">
        <ele>749.031</ele>
        <time>2015-12-19T13:57:34Z</time>
      </trkpt>
      <trkpt lat="41.940534" lon="0.837403">
        <ele>748.024</ele>
        <time>2015-12-19T13:57:36Z</time>
      </trkpt>
      <trkpt lat="41.940618" lon="0.837492">
        <ele>747.008</ele>
        <time>2015-12-19T13:57:38Z</time>
      </trkpt>
      <trkpt lat="41.940705" lon="0.837583">
        <ele>747.020</ele>
        <time>2015-12-19T13:57:40Z</time>
      </trkpt>
      <trkpt lat="41.940782" lon="0.837679">
        <ele>747.010</ele>
        <time>2015-12-19T13:57:42Z</time>
      </trkpt>
      <trkpt lat="41.940847" lon="0.837764">
        <ele>746.026</ele>
        <time>2015-12-19T13:57:44Z</time>
      </trkpt>
      <trkpt lat="41.940936" lon="0.837882">
        <ele>746.060</ele>
        <time>2015-12-19T13:57:47Z</time>
      </trkpt>
      <trkpt lat="41.940998" lon="0.837999">
        <ele>746.024</ele>
        <time>2015-12-19T13:57:51Z</time>
      </trkpt>
      <trkpt lat="41.941055" lon="0.838111">
        <ele>746.082</ele>
        <time>2015-12-19T13:57:55Z</time>
      </trkpt>
      <trkpt lat="41.941112" lon="0.838208">
        <ele>747.038</ele>
        <time>2015-12-19T13:57:59Z</time>
      </trkpt>
      <trkpt lat="41.941195" lon="0.838306">
        <ele>747.078</ele>
        <time>2015-12-19T13:58:04Z</time>
      </trkpt>
      <trkpt lat="41.941269" lon="0.838402">
        <ele>747.082</ele>
        <time>2015-12-19T13:58:09Z</time>
      </trkpt>
      <trkpt lat="41.941351" lon="0.838479">
        <ele>748.043</ele>
        <time>2015-12-19T13:58:17Z</time>
      </trkpt>
      <trkpt lat="41.941419" lon="0.838558">
        <ele>749.017</ele>
        <time>2015-12-19T13:58:24Z</time>
      </trkpt>
      <trkpt lat="41.941496" lon="0.838640">
        <ele>751.008</ele>
        <time>2015-12-19T13:58:32Z</time>
      </trkpt>
      <trkpt lat="41.941548" lon="0.838749">
        <ele>753.089</ele>
        <time>2015-12-19T13:58:39Z</time>
      </trkpt>
      <trkpt lat="41.941576" lon="0.838866">
        <ele>755.079</ele>
        <time>2015-12-19T13:59:03Z</time>
      </trkpt>
      <trkpt lat="41.941558" lon="0.838986">
        <ele>756.095</ele>
        <time>2015-12-19T13:59:12Z</time>
      </trkpt>
      <trkpt lat="41.941578" lon="0.839107">
        <ele>758.079</ele>
        <time>2015-12-19T13:59:19Z</time>
      </trkpt>
      <trkpt lat="41.941626" lon="0.839216">
        <ele>760.053</ele>
        <time>2015-12-19T13:59:27Z</time>
      </trkpt>
      <trkpt lat="41.941629" lon="0.839349">
        <ele>762.031</ele>
        <time>2015-12-19T13:59:36Z</time>
      </trkpt>
      <trkpt lat="41.941629" lon="0.839483">
        <ele>763.017</ele>
        <time>2015-12-19T13:59:45Z</time>
      </trkpt>
      <trkpt lat="41.941663" lon="0.839602">
        <ele>764.097</ele>
        <time>2015-12-19T13:59:53Z</time>
      </trkpt>
      <trkpt lat="41.941737" lon="0.839679">
        <ele>765.052</ele>
        <time>2015-12-19T14:00:02Z</time>
      </trkpt>
      <trkpt lat="41.941769" lon="0.839798">
        <ele>767.053</ele>
        <time>2015-12-19T14:00:10Z</time>
      </trkpt>
      <trkpt lat="41.941772" lon="0.839919">
        <ele>767.008</ele>
        <time>2015-12-19T14:00:17Z</time>
      </trkpt>
      <trkpt lat="41.941762" lon="0.840039">
        <ele>767.008</ele>
        <time>2015-12-19T14:00:23Z</time>
      </trkpt>
      <trkpt lat="41.941774" lon="0.840164">
        <ele>767.076</ele>
        <time>2015-12-19T14:00:29Z</time>
      </trkpt>
      <trkpt lat="41.941789" lon="0.840295">
        <ele>768.026</ele>
        <time>2015-12-19T14:00:35Z</time>
      </trkpt>
      <trkpt lat="41.941779" lon="0.840434">
        <ele>767.022</ele>
        <time>2015-12-19T14:00:41Z</time>
      </trkpt>
      <trkpt lat="41.941746" lon="0.840546">
        <ele>766.016</ele>
        <time>2015-12-19T14:00:45Z</time>
      </trkpt>
      <trkpt lat="41.941728" lon="0.840674">
        <ele>766.090</ele>
        <time>2015-12-19T14:00:49Z</time>
      </trkpt>
      <trkpt lat="41.941731" lon="0.840799">
        <ele>764.088</ele>
        <time>2015-12-19T14:00:53Z</time>
      </trkpt>
      <trkpt lat="41.941749" lon="0.840943">
        <ele>763.034</ele>
        <time>2015-12-19T14:00:58Z</time>
      </trkpt>
      <trkpt lat="41.941778" lon="0.841065">
        <ele>762.034</ele>
        <time>2015-12-19T14:01:02Z</time>
      </trkpt>
      <trkpt lat="41.941806" lon="0.841210">
        <ele>762.057</ele>
        <time>2015-12-19T14:01:07Z</time>
      </trkpt>
      <trkpt lat="41.941832" lon="0.841330">
        <ele>760.000</ele>
        <time>2015-12-19T14:01:12Z</time>
      </trkpt>
      <trkpt lat="41.941867" lon="0.841453">
        <ele>758.020</ele>
        <time>2015-12-19T14:01:19Z</time>
      </trkpt>
      <trkpt lat="41.941840" lon="0.841579">
        <ele>757.008</ele>
        <time>2015-12-19T14:01:24Z</time>
      </trkpt>
      <trkpt lat="41.941814" lon="0.841696">
        <ele>755.076</ele>
        <time>2015-12-19T14:01:28Z</time>
      </trkpt>
      <trkpt lat="41.941799" lon="0.841830">
        <ele>753.056</ele>
        <time>2015-12-19T14:01:31Z</time>
      </trkpt>
      <trkpt lat="41.941805" lon="0.841965">
        <ele>752.072</ele>
        <time>2015-12-19T14:01:34Z</time>
      </trkpt>
      <trkpt lat="41.941821" lon="0.842113">
        <ele>750.076</ele>
        <time>2015-12-19T14:01:38Z</time>
      </trkpt>
      <trkpt lat="41.941818" lon="0.842252">
        <ele>748.040</ele>
        <time>2015-12-19T14:01:42Z</time>
      </trkpt>
      <trkpt lat="41.941804" lon="0.842400">
        <ele>746.038</ele>
        <time>2015-12-19T14:01:47Z</time>
      </trkpt>
      <trkpt lat="41.941794" lon="0.842551">
        <ele>745.074</ele>
        <time>2015-12-19T14:01:51Z</time>
      </trkpt>
      <trkpt lat="41.941796" lon="0.842697">
        <ele>744.024</ele>
        <time>2015-12-19T14:01:56Z</time>
      </trkpt>
      <trkpt lat="41.941815" lon="0.842843">
        <ele>743.076</ele>
        <time>2015-12-19T14:02:01Z</time>
      </trkpt>
      <trkpt lat="41.941773" lon="0.842966">
        <ele>743.090</ele>
        <time>2015-12-19T14:02:06Z</time>
      </trkpt>
      <trkpt lat="41.941707" lon="0.843047">
        <ele>742.019</ele>
        <time>2015-12-19T14:02:11Z</time>
      </trkpt>
      <trkpt lat="41.941665" lon="0.843154">
        <ele>741.008</ele>
        <time>2015-12-19T14:02:17Z</time>
      </trkpt>
      <trkpt lat="41.941750" lon="0.843206">
        <ele>735.028</ele>
        <time>2015-12-19T14:09:53Z</time>
      </trkpt>
      <trkpt lat="41.941843" lon="0.843234">
        <ele>734.038</ele>
        <time>2015-12-19T14:10:50Z</time>
      </trkpt>
      <trkpt lat="41.941937" lon="0.843219">
        <ele>736.024</ele>
        <time>2015-12-19T14:12:13Z</time>
      </trkpt>
      <trkpt lat="41.942016" lon="0.843158">
        <ele>733.088</ele>
        <time>2015-12-19T14:12:46Z</time>
      </trkpt>
      <trkpt lat="41.942076" lon="0.843067">
        <ele>732.042</ele>
        <time>2015-12-19T14:13:48Z</time>
      </trkpt>
      <trkpt lat="41.942120" lon="0.842960">
        <ele>732.070</ele>
        <time>2015-12-19T14:13:58Z</time>
      </trkpt>
      <trkpt lat="41.942186" lon="0.842878">
        <ele>732.016</ele>
        <time>2015-12-19T14:14:18Z</time>
      </trkpt>
      <trkpt lat="41.942278" lon="0.842885">
        <ele>731.036</ele>
        <time>2015-12-19T14:14:38Z</time>
      </trkpt>
      <trkpt lat="41.942188" lon="0.842911">
        <ele>735.096</ele>
        <time>2015-12-19T14:16:08Z</time>
      </trkpt>
      <trkpt lat="41.942126" lon="0.843007">
        <ele>736.031</ele>
        <time>2015-12-19T14:16:19Z</time>
      </trkpt>
      <trkpt lat="41.942076" lon="0.843113">
        <ele>735.024</ele>
        <time>2015-12-19T14:16:31Z</time>
      </trkpt>
      <trkpt lat="41.941995" lon="0.843170">
        <ele>736.008</ele>
        <time>2015-12-19T14:16:52Z</time>
      </trkpt>
      <trkpt lat="41.941916" lon="0.843235">
        <ele>735.020</ele>
        <time>2015-12-19T14:17:15Z</time>
      </trkpt>
      <trkpt lat="41.941828" lon="0.843267">
        <ele>736.080</ele>
        <time>2015-12-19T14:20:49Z</time>
      </trkpt>
      <trkpt lat="41.941741" lon="0.843215">
        <ele>738.016</ele>
        <time>2015-12-19T14:21:02Z</time>
      </trkpt>
      <trkpt lat="41.941653" lon="0.843169">
        <ele>737.060</ele>
        <time>2015-12-19T14:21:16Z</time>
      </trkpt>
      <trkpt lat="41.941696" lon="0.843055">
        <ele>740.044</ele>
        <time>2015-12-19T14:26:32Z</time>
      </trkpt>
      <trkpt lat="41.941761" lon="0.842954">
        <ele>740.082</ele>
        <time>2015-12-19T14:26:42Z</time>
      </trkpt>
      <trkpt lat="41.941788" lon="0.842837">
        <ele>741.078</ele>
        <time>2015-12-19T14:26:52Z</time>
      </trkpt>
      <trkpt lat="41.941791" lon="0.842707">
        <ele>743.068</ele>
        <time>2015-12-19T14:27:03Z</time>
      </trkpt>
      <trkpt lat="41.941792" lon="0.842575">
        <ele>745.089</ele>
        <time>2015-12-19T14:27:13Z</time>
      </trkpt>
      <trkpt lat="41.941794" lon="0.842444">
        <ele>745.006</ele>
        <time>2015-12-19T14:27:23Z</time>
      </trkpt>
      <trkpt lat="41.941798" lon="0.842316">
        <ele>747.026</ele>
        <time>2015-12-19T14:27:35Z</time>
      </trkpt>
      <trkpt lat="41.941803" lon="0.842184">
        <ele>748.008</ele>
        <time>2015-12-19T14:27:47Z</time>
      </trkpt>
      <trkpt lat="41.941804" lon="0.842056">
        <ele>751.069</ele>
        <time>2015-12-19T14:27:56Z</time>
      </trkpt>
      <trkpt lat="41.941784" lon="0.841929">
        <ele>750.049</ele>
        <time>2015-12-19T14:28:05Z</time>
      </trkpt>
      <trkpt lat="41.941779" lon="0.841804">
        <ele>752.035</ele>
        <time>2015-12-19T14:28:17Z</time>
      </trkpt>
      <trkpt lat="41.941790" lon="0.841678">
        <ele>753.079</ele>
        <time>2015-12-19T14:28:32Z</time>
      </trkpt>
      <trkpt lat="41.941817" lon="0.841558">
        <ele>755.083</ele>
        <time>2015-12-19T14:28:50Z</time>
      </trkpt>
      <trkpt lat="41.941822" lon="0.841434">
        <ele>756.081</ele>
        <time>2015-12-19T14:29:04Z</time>
      </trkpt>
      <trkpt lat="41.941779" lon="0.841309">
        <ele>758.067</ele>
        <time>2015-12-19T14:29:17Z</time>
      </trkpt>
      <trkpt lat="41.941769" lon="0.841180">
        <ele>760.017</ele>
        <time>2015-12-19T14:29:33Z</time>
      </trkpt>
      <trkpt lat="41.941750" lon="0.841049">
        <ele>761.064</ele>
        <time>2015-12-19T14:29:42Z</time>
      </trkpt>
      <trkpt lat="41.941724" lon="0.840932">
        <ele>762.006</ele>
        <time>2015-12-19T14:29:50Z</time>
      </trkpt>
      <trkpt lat="41.941710" lon="0.840801">
        <ele>763.016</ele>
        <time>2015-12-19T14:29:59Z</time>
      </trkpt>
      <trkpt lat="41.941705" lon="0.840676">
        <ele>764.008</ele>
        <time>2015-12-19T14:30:07Z</time>
      </trkpt>
      <trkpt lat="41.941726" lon="0.840554">
        <ele>766.097</ele>
        <time>2015-12-19T14:30:15Z</time>
      </trkpt>
      <trkpt lat="41.941758" lon="0.840435">
        <ele>768.077</ele>
        <time>2015-12-19T14:30:24Z</time>
      </trkpt>
      <trkpt lat="41.941769" lon="0.840312">
        <ele>766.063</ele>
        <time>2015-12-19T14:30:32Z</time>
      </trkpt>
      <trkpt lat="41.941769" lon="0.840188">
        <ele>766.047</ele>
        <time>2015-12-19T14:30:39Z</time>
      </trkpt>
      <trkpt lat="41.941764" lon="0.840032">
        <ele>766.071</ele>
        <time>2015-12-19T14:30:44Z</time>
      </trkpt>
      <trkpt lat="41.941767" lon="0.839877">
        <ele>765.059</ele>
        <time>2015-12-19T14:30:49Z</time>
      </trkpt>
      <trkpt lat="41.941743" lon="0.839725">
        <ele>763.075</ele>
        <time>2015-12-19T14:30:53Z</time>
      </trkpt>
      <trkpt lat="41.941682" lon="0.839619">
        <ele>762.065</ele>
        <time>2015-12-19T14:30:56Z</time>
      </trkpt>
      <trkpt lat="41.941628" lon="0.839487">
        <ele>759.075</ele>
        <time>2015-12-19T14:31:00Z</time>
      </trkpt>
      <trkpt lat="41.941622" lon="0.839341">
        <ele>758.028</ele>
        <time>2015-12-19T14:31:03Z</time>
      </trkpt>
      <trkpt lat="41.941618" lon="0.839215">
        <ele>757.020</ele>
        <time>2015-12-19T14:31:06Z</time>
      </trkpt>
      <trkpt lat="41.941575" lon="0.839104">
        <ele>754.008</ele>
        <time>2015-12-19T14:31:09Z</time>
      </trkpt>
      <trkpt lat="41.941540" lon="0.838978">
        <ele>753.038</ele>
        <time>2015-12-19T14:31:12Z</time>
      </trkpt>
      <trkpt lat="41.941559" lon="0.838845">
        <ele>753.018</ele>
        <time>2015-12-19T14:31:15Z</time>
      </trkpt>
      <trkpt lat="41.941545" lon="0.838719">
        <ele>751.074</ele>
        <time>2015-12-19T14:31:18Z</time>
      </trkpt>
      <trkpt lat="41.941445" lon="0.838560">
        <ele>748.028</ele>
        <time>2015-12-19T14:31:20Z</time>
      </trkpt>
      <trkpt lat="41.941329" lon="0.838445">
        <ele>747.012</ele>
        <time>2015-12-19T14:31:22Z</time>
      </trkpt>
      <trkpt lat="41.941196" lon="0.838321">
        <ele>746.090</ele>
        <time>2015-12-19T14:31:24Z</time>
      </trkpt>
      <trkpt lat="41.941090" lon="0.838135">
        <ele>744.076</ele>
        <time>2015-12-19T14:31:26Z</time>
      </trkpt>
      <trkpt lat="41.940991" lon="0.837955">
        <ele>741.066</ele>
        <time>2015-12-19T14:31:28Z</time>
      </trkpt>
      <trkpt lat="41.940935" lon="0.837853">
        <ele>740.087</ele>
        <time>2015-12-19T14:31:29Z</time>
      </trkpt>
      <trkpt lat="41.940811" lon="0.837695">
        <ele>741.042</ele>
        <time>2015-12-19T14:31:31Z</time>
      </trkpt>
      <trkpt lat="41.940692" lon="0.837559">
        <ele>741.026</ele>
        <time>2015-12-19T14:31:33Z</time>
      </trkpt>
      <trkpt lat="41.940579" lon="0.837441">
        <ele>741.008</ele>
        <time>2015-12-19T14:31:35Z</time>
      </trkpt>
      <trkpt lat="41.940492" lon="0.837328">
        <ele>741.049</ele>
        <time>2015-12-19T14:31:37Z</time>
      </trkpt>
      <trkpt lat="41.940435" lon="0.837186">
        <ele>742.039</ele>
        <time>2015-12-19T14:31:40Z</time>
      </trkpt>
      <trkpt lat="41.940445" lon="0.837048">
        <ele>745.025</ele>
        <time>2015-12-19T14:31:45Z</time>
      </trkpt>
      <trkpt lat="41.940440" lon="0.836919">
        <ele>748.029</ele>
        <time>2015-12-19T14:31:50Z</time>
      </trkpt>
      <trkpt lat="41.940416" lon="0.836798">
        <ele>748.013</ele>
        <time>2015-12-19T14:31:56Z</time>
      </trkpt>
      <trkpt lat="41.940340" lon="0.836725">
        <ele>749.091</ele>
        <time>2015-12-19T14:32:01Z</time>
      </trkpt>
      <trkpt lat="41.940256" lon="0.836638">
        <ele>751.077</ele>
        <time>2015-12-19T14:32:06Z</time>
      </trkpt>
      <trkpt lat="41.940198" lon="0.836532">
        <ele>751.027</ele>
        <time>2015-12-19T14:32:09Z</time>
      </trkpt>
      <trkpt lat="41.940217" lon="0.836395">
        <ele>752.034</ele>
        <time>2015-12-19T14:32:14Z</time>
      </trkpt>
      <trkpt lat="41.940249" lon="0.836266">
        <ele>753.055</ele>
        <time>2015-12-19T14:32:19Z</time>
      </trkpt>
      <trkpt lat="41.940277" lon="0.836150">
        <ele>753.010</ele>
        <time>2015-12-19T14:32:22Z</time>
      </trkpt>
      <trkpt lat="41.940315" lon="0.836026">
        <ele>752.008</ele>
        <time>2015-12-19T14:32:26Z</time>
      </trkpt>
      <trkpt lat="41.940326" lon="0.835898">
        <ele>751.014</ele>
        <time>2015-12-19T14:32:28Z</time>
      </trkpt>
      <trkpt lat="41.940290" lon="0.835717">
        <ele>750.024</ele>
        <time>2015-12-19T14:32:30Z</time>
      </trkpt>
      <trkpt lat="41.940218" lon="0.835577">
        <ele>749.050</ele>
        <time>2015-12-19T14:32:32Z</time>
      </trkpt>
      <trkpt lat="41.940126" lon="0.835494">
        <ele>747.034</ele>
        <time>2015-12-19T14:32:34Z</time>
      </trkpt>
      <trkpt lat="41.940031" lon="0.835438">
        <ele>746.078</ele>
        <time>2015-12-19T14:32:36Z</time>
      </trkpt>
      <trkpt lat="41.939939" lon="0.835462">
        <ele>745.096</ele>
        <time>2015-12-19T14:32:38Z</time>
      </trkpt>
      <trkpt lat="41.939836" lon="0.835487">
        <ele>743.012</ele>
        <time>2015-12-19T14:32:40Z</time>
      </trkpt>
      <trkpt lat="41.939701" lon="0.835481">
        <ele>742.072</ele>
        <time>2015-12-19T14:32:43Z</time>
      </trkpt>
      <trkpt lat="41.939623" lon="0.835357">
        <ele>740.012</ele>
        <time>2015-12-19T14:32:46Z</time>
      </trkpt>
      <trkpt lat="41.939683" lon="0.835250">
        <ele>739.032</ele>
        <time>2015-12-19T14:32:48Z</time>
      </trkpt>
      <trkpt lat="41.939758" lon="0.835164">
        <ele>739.005</ele>
        <time>2015-12-19T14:32:50Z</time>
      </trkpt>
      <trkpt lat="41.939780" lon="0.835040">
        <ele>738.008</ele>
        <time>2015-12-19T14:32:52Z</time>
      </trkpt>
      <trkpt lat="41.939740" lon="0.834903">
        <ele>738.072</ele>
        <time>2015-12-19T14:32:54Z</time>
      </trkpt>
      <trkpt lat="41.939704" lon="0.834774">
        <ele>738.072</ele>
        <time>2015-12-19T14:32:56Z</time>
      </trkpt>
      <trkpt lat="41.939657" lon="0.834592">
        <ele>736.048</ele>
        <time>2015-12-19T14:32:58Z</time>
      </trkpt>
      <trkpt lat="41.939568" lon="0.834406">
        <ele>736.042</ele>
        <time>2015-12-19T14:33:00Z</time>
      </trkpt>
      <trkpt lat="41.939484" lon="0.834203">
        <ele>734.016</ele>
        <time>2015-12-19T14:33:02Z</time>
      </trkpt>
      <trkpt lat="41.939377" lon="0.834079">
        <ele>734.034</ele>
        <time>2015-12-19T14:33:04Z</time>
      </trkpt>
      <trkpt lat="41.939258" lon="0.834011">
        <ele>734.040</ele>
        <time>2015-12-19T14:33:06Z</time>
      </trkpt>
      <trkpt lat="41.939143" lon="0.833974">
        <ele>735.070</ele>
        <time>2015-12-19T14:33:08Z</time>
      </trkpt>
      <trkpt lat="41.939043" lon="0.833931">
        <ele>736.031</ele>
        <time>2015-12-19T14:33:11Z</time>
      </trkpt>
      <trkpt lat="41.938926" lon="0.833918">
        <ele>736.061</ele>
        <time>2015-12-19T14:33:15Z</time>
      </trkpt>
      <trkpt lat="41.938841" lon="0.833859">
        <ele>735.007</ele>
        <time>2015-12-19T14:33:18Z</time>
      </trkpt>
      <trkpt lat="41.938756" lon="0.833777">
        <ele>734.008</ele>
        <time>2015-12-19T14:33:22Z</time>
      </trkpt>
      <trkpt lat="41.938720" lon="0.833666">
        <ele>736.074</ele>
        <time>2015-12-19T14:33:27Z</time>
      </trkpt>
      <trkpt lat="41.938675" lon="0.833551">
        <ele>736.064</ele>
        <time>2015-12-19T14:33:32Z</time>
      </trkpt>
      <trkpt lat="41.938611" lon="0.833441">
        <ele>736.030</ele>
        <time>2015-12-19T14:33:36Z</time>
      </trkpt>
      <trkpt lat="41.938529" lon="0.833347">
        <ele>737.044</ele>
        <time>2015-12-19T14:33:41Z</time>
      </trkpt>
      <trkpt lat="41.938466" lon="0.833227">
        <ele>738.038</ele>
        <time>2015-12-19T14:33:46Z</time>
      </trkpt>
      <trkpt lat="41.938412" lon="0.833107">
        <ele>739.096</ele>
        <time>2015-12-19T14:33:51Z</time>
      </trkpt>
      <trkpt lat="41.938356" lon="0.832983">
        <ele>738.062</ele>
        <time>2015-12-19T14:33:55Z</time>
      </trkpt>
      <trkpt lat="41.938297" lon="0.832859">
        <ele>739.092</ele>
        <time>2015-12-19T14:33:58Z</time>
      </trkpt>
      <trkpt lat="41.938225" lon="0.832773">
        <ele>739.062</ele>
        <time>2015-12-19T14:34:00Z</time>
      </trkpt>
      <trkpt lat="41.938110" lon="0.832682">
        <ele>737.083</ele>
        <time>2015-12-19T14:34:02Z</time>
      </trkpt>
      <trkpt lat="41.938023" lon="0.832565">
        <ele>736.011</ele>
        <time>2015-12-19T14:34:04Z</time>
      </trkpt>
      <trkpt lat="41.937932" lon="0.832456">
        <ele>735.008</ele>
        <time>2015-12-19T14:34:06Z</time>
      </trkpt>
      <trkpt lat="41.937832" lon="0.832397">
        <ele>731.097</ele>
        <time>2015-12-19T14:34:08Z</time>
      </trkpt>
      <trkpt lat="41.937728" lon="0.832304">
        <ele>729.057</ele>
        <time>2015-12-19T14:34:10Z</time>
      </trkpt>
      <trkpt lat="41.937653" lon="0.832228">
        <ele>728.033</ele>
        <time>2015-12-19T14:34:12Z</time>
      </trkpt>
      <trkpt lat="41.937620" lon="0.832088">
        <ele>726.077</ele>
        <time>2015-12-19T14:34:14Z</time>
      </trkpt>
      <trkpt lat="41.937618" lon="0.831929">
        <ele>726.061</ele>
        <time>2015-12-19T14:34:16Z</time>
      </trkpt>
      <trkpt lat="41.937630" lon="0.831721">
        <ele>725.039</ele>
        <time>2015-12-19T14:34:18Z</time>
      </trkpt>
      <trkpt lat="41.937631" lon="0.831514">
        <ele>725.095</ele>
        <time>2015-12-19T14:34:20Z</time>
      </trkpt>
      <trkpt lat="41.937624" lon="0.831318">
        <ele>725.095</ele>
        <time>2015-12-19T14:34:22Z</time>
      </trkpt>
      <trkpt lat="41.937623" lon="0.831137">
        <ele>724.077</ele>
        <time>2015-12-19T14:34:24Z</time>
      </trkpt>
      <trkpt lat="41.937621" lon="0.830951">
        <ele>724.061</ele>
        <time>2015-12-19T14:34:26Z</time>
      </trkpt>
      <trkpt lat="41.937599" lon="0.830755">
        <ele>725.027</ele>
        <time>2015-12-19T14:34:28Z</time>
      </trkpt>
      <trkpt lat="41.937556" lon="0.830606">
        <ele>725.008</ele>
        <time>2015-12-19T14:34:30Z</time>
      </trkpt>
      <trkpt lat="41.937500" lon="0.830486">
        <ele>725.028</ele>
        <time>2015-12-19T14:34:32Z</time>
      </trkpt>
      <trkpt lat="41.937435" lon="0.830366">
        <ele>726.078</ele>
        <time>2015-12-19T14:34:34Z</time>
      </trkpt>
      <trkpt lat="41.937386" lon="0.830249">
        <ele>726.054</ele>
        <time>2015-12-19T14:34:36Z</time>
      </trkpt>
      <trkpt lat="41.937316" lon="0.830116">
        <ele>726.078</ele>
        <time>2015-12-19T14:34:39Z</time>
      </trkpt>
      <trkpt lat="41.937257" lon="0.829980">
        <ele>728.062</ele>
        <time>2015-12-19T14:34:42Z</time>
      </trkpt>
      <trkpt lat="41.937201" lon="0.829866">
        <ele>727.040</ele>
        <time>2015-12-19T14:34:44Z</time>
      </trkpt>
      <trkpt lat="41.937132" lon="0.829719">
        <ele>727.096</ele>
        <time>2015-12-19T14:34:47Z</time>
      </trkpt>
      <trkpt lat="41.937070" lon="0.829575">
        <ele>727.026</ele>
        <time>2015-12-19T14:34:50Z</time>
      </trkpt>
      <trkpt lat="41.937024" lon="0.829463">
        <ele>726.054</ele>
        <time>2015-12-19T14:34:52Z</time>
      </trkpt>
      <trkpt lat="41.936979" lon="0.829324">
        <ele>726.056</ele>
        <time>2015-12-19T14:34:54Z</time>
      </trkpt>
      <trkpt lat="41.936932" lon="0.829206">
        <ele>726.011</ele>
        <time>2015-12-19T14:34:56Z</time>
      </trkpt>
      <trkpt lat="41.936849" lon="0.829031">
        <ele>725.008</ele>
        <time>2015-12-19T14:34:58Z</time>
      </trkpt>
      <trkpt lat="41.936812" lon="0.828910">
        <ele>725.066</ele>
        <time>2015-12-19T14:35:00Z</time>
      </trkpt>
      <trkpt lat="41.936784" lon="0.828787">
        <ele>725.036</ele>
        <time>2015-12-19T14:35:02Z</time>
      </trkpt>
      <trkpt lat="41.936748" lon="0.828674">
        <ele>725.092</ele>
        <time>2015-12-19T14:35:04Z</time>
      </trkpt>
      <trkpt lat="41.936712" lon="0.828563">
        <ele>725.076</ele>
        <time>2015-12-19T14:35:06Z</time>
      </trkpt>
      <trkpt lat="41.936646" lon="0.828452">
        <ele>726.090</ele>
        <time>2015-12-19T14:35:08Z</time>
      </trkpt>
      <trkpt lat="41.936582" lon="0.828346">
        <ele>726.038</ele>
        <time>2015-12-19T14:35:10Z</time>
      </trkpt>
      <trkpt lat="41.936510" lon="0.828244">
        <ele>726.054</ele>
        <time>2015-12-19T14:35:12Z</time>
      </trkpt>
      <trkpt lat="41.936441" lon="0.828134">
        <ele>726.014</ele>
        <time>2015-12-19T14:35:15Z</time>
      </trkpt>
      <trkpt lat="41.936385" lon="0.828022">
        <ele>727.027</ele>
        <time>2015-12-19T14:35:17Z</time>
      </trkpt>
      <trkpt lat="41.936348" lon="0.827900">
        <ele>728.068</ele>
        <time>2015-12-19T14:35:19Z</time>
      </trkpt>
      <trkpt lat="41.936319" lon="0.827785">
        <ele>729.014</ele>
        <time>2015-12-19T14:35:21Z</time>
      </trkpt>
      <trkpt lat="41.936309" lon="0.827661">
        <ele>729.008</ele>
        <time>2015-12-19T14:35:23Z</time>
      </trkpt>
      <trkpt lat="41.936287" lon="0.827489">
        <ele>728.093</ele>
        <time>2015-12-19T14:35:26Z</time>
      </trkpt>
      <trkpt lat="41.936252" lon="0.827316">
        <ele>725.053</ele>
        <time>2015-12-19T14:35:29Z</time>
      </trkpt>
      <trkpt lat="41.936203" lon="0.827170">
        <ele>724.049</ele>
        <time>2015-12-19T14:35:32Z</time>
      </trkpt>
      <trkpt lat="41.936142" lon="0.827081">
        <ele>724.053</ele>
        <time>2015-12-19T14:35:34Z</time>
      </trkpt>
      <trkpt lat="41.936061" lon="0.826995">
        <ele>722.047</ele>
        <time>2015-12-19T14:35:36Z</time>
      </trkpt>
      <trkpt lat="41.935965" lon="0.826914">
        <ele>722.035</ele>
        <time>2015-12-19T14:35:38Z</time>
      </trkpt>
      <trkpt lat="41.935882" lon="0.826807">
        <ele>721.071</ele>
        <time>2015-12-19T14:35:40Z</time>
      </trkpt>
      <trkpt lat="41.935790" lon="0.826672">
        <ele>719.011</ele>
        <time>2015-12-19T14:35:42Z</time>
      </trkpt>
      <trkpt lat="41.935708" lon="0.826526">
        <ele>719.087</ele>
        <time>2015-12-19T14:35:44Z</time>
      </trkpt>
      <trkpt lat="41.935645" lon="0.826390">
        <ele>716.042</ele>
        <time>2015-12-19T14:35:46Z</time>
      </trkpt>
      <trkpt lat="41.935591" lon="0.826254">
        <ele>714.026</ele>
        <time>2015-12-19T14:35:48Z</time>
      </trkpt>
      <trkpt lat="41.935557" lon="0.826110">
        <ele>712.008</ele>
        <time>2015-12-19T14:35:50Z</time>
      </trkpt>
      <trkpt lat="41.935502" lon="0.825923">
        <ele>710.089</ele>
        <time>2015-12-19T14:35:52Z</time>
      </trkpt>
      <trkpt lat="41.935437" lon="0.825726">
        <ele>708.019</ele>
        <time>2015-12-19T14:35:54Z</time>
      </trkpt>
      <trkpt lat="41.935373" lon="0.825507">
        <ele>706.075</ele>
        <time>2015-12-19T14:35:56Z</time>
      </trkpt>
      <trkpt lat="41.935323" lon="0.825298">
        <ele>704.079</ele>
        <time>2015-12-19T14:35:58Z</time>
      </trkpt>
      <trkpt lat="41.935268" lon="0.825086">
        <ele>702.043</ele>
        <time>2015-12-19T14:36:00Z</time>
      </trkpt>
      <trkpt lat="41.935173" lon="0.824904">
        <ele>702.081</ele>
        <time>2015-12-19T14:36:02Z</time>
      </trkpt>
      <trkpt lat="41.935062" lon="0.824754">
        <ele>702.077</ele>
        <time>2015-12-19T14:36:04Z</time>
      </trkpt>
      <trkpt lat="41.934965" lon="0.824619">
        <ele>702.077</ele>
        <time>2015-12-19T14:36:06Z</time>
      </trkpt>
      <trkpt lat="41.934906" lon="0.824456">
        <ele>701.094</ele>
        <time>2015-12-19T14:36:08Z</time>
      </trkpt>
      <trkpt lat="41.934855" lon="0.824278">
        <ele>701.057</ele>
        <time>2015-12-19T14:36:10Z</time>
      </trkpt>
      <trkpt lat="41.934823" lon="0.824095">
        <ele>701.022</ele>
        <time>2015-12-19T14:36:12Z</time>
      </trkpt>
      <trkpt lat="41.934800" lon="0.823904">
        <ele>701.008</ele>
        <time>2015-12-19T14:36:14Z</time>
      </trkpt>
      <trkpt lat="41.934804" lon="0.823720">
        <ele>702.080</ele>
        <time>2015-12-19T14:36:16Z</time>
      </trkpt>
      <trkpt lat="41.934839" lon="0.823557">
        <ele>704.070</ele>
        <time>2015-12-19T14:36:18Z</time>
      </trkpt>
      <trkpt lat="41.934872" lon="0.823414">
        <ele>705.036</ele>
        <time>2015-12-19T14:36:20Z</time>
      </trkpt>
      <trkpt lat="41.934908" lon="0.823203">
        <ele>706.050</ele>
        <time>2015-12-19T14:36:23Z</time>
      </trkpt>
      <trkpt lat="41.934997" lon="0.823102">
        <ele>705.074</ele>
        <time>2015-12-19T14:36:26Z</time>
      </trkpt>
      <trkpt lat="41.935098" lon="0.823092">
        <ele>706.072</ele>
        <time>2015-12-19T14:36:28Z</time>
      </trkpt>
      <trkpt lat="41.935210" lon="0.823117">
        <ele>705.068</ele>
        <time>2015-12-19T14:36:30Z</time>
      </trkpt>
      <trkpt lat="41.935338" lon="0.823145">
        <ele>705.098</ele>
        <time>2015-12-19T14:36:32Z</time>
      </trkpt>
      <trkpt lat="41.935470" lon="0.823189">
        <ele>704.076</ele>
        <time>2015-12-19T14:36:35Z</time>
      </trkpt>
      <trkpt lat="41.935620" lon="0.823225">
        <ele>705.090</ele>
        <time>2015-12-19T14:36:37Z</time>
      </trkpt>
      <trkpt lat="41.935776" lon="0.823272">
        <ele>704.019</ele>
        <time>2015-12-19T14:36:39Z</time>
      </trkpt>
      <trkpt lat="41.935905" lon="0.823248">
        <ele>704.008</ele>
        <time>2015-12-19T14:36:41Z</time>
      </trkpt>
      <trkpt lat="41.936007" lon="0.823161">
        <ele>704.078</ele>
        <time>2015-12-19T14:36:43Z</time>
      </trkpt>
      <trkpt lat="41.936026" lon="0.823012">
        <ele>705.048</ele>
        <time>2015-12-19T14:36:45Z</time>
      </trkpt>
      <trkpt lat="41.936005" lon="0.822856">
        <ele>703.064</ele>
        <time>2015-12-19T14:36:47Z</time>
      </trkpt>
      <trkpt lat="41.935957" lon="0.822708">
        <ele>701.048</ele>
        <time>2015-12-19T14:36:49Z</time>
      </trkpt>
      <trkpt lat="41.935917" lon="0.822563">
        <ele>700.062</ele>
        <time>2015-12-19T14:36:51Z</time>
      </trkpt>
      <trkpt lat="41.935872" lon="0.822397">
        <ele>698.080</ele>
        <time>2015-12-19T14:36:53Z</time>
      </trkpt>
      <trkpt lat="41.935828" lon="0.822211">
        <ele>698.036</ele>
        <time>2015-12-19T14:36:55Z</time>
      </trkpt>
      <trkpt lat="41.935786" lon="0.822028">
        <ele>697.036</ele>
        <time>2015-12-19T14:36:57Z</time>
      </trkpt>
      <trkpt lat="41.935757" lon="0.821829">
        <ele>697.014</ele>
        <time>2015-12-19T14:36:59Z</time>
      </trkpt>
      <trkpt lat="41.935740" lon="0.821706">
        <ele>695.054</ele>
        <time>2015-12-19T14:37:00Z</time>
      </trkpt>
      <trkpt lat="41.935708" lon="0.821505">
        <ele>694.009</ele>
        <time>2015-12-19T14:37:02Z</time>
      </trkpt>
      <trkpt lat="41.935718" lon="0.821322">
        <ele>694.008</ele>
        <time>2015-12-19T14:37:04Z</time>
      </trkpt>
      <trkpt lat="41.935678" lon="0.821154">
        <ele>694.042</ele>
        <time>2015-12-19T14:37:06Z</time>
      </trkpt>
      <trkpt lat="41.935611" lon="0.821014">
        <ele>694.012</ele>
        <time>2015-12-19T14:37:08Z</time>
      </trkpt>
      <trkpt lat="41.935583" lon="0.820843">
        <ele>692.038</ele>
        <time>2015-12-19T14:37:10Z</time>
      </trkpt>
      <trkpt lat="41.935590" lon="0.820660">
        <ele>693.022</ele>
        <time>2015-12-19T14:37:12Z</time>
      </trkpt>
      <trkpt lat="41.935635" lon="0.820485">
        <ele>693.036</ele>
        <time>2015-12-19T14:37:14Z</time>
      </trkpt>
      <trkpt lat="41.935697" lon="0.820327">
        <ele>693.074</ele>
        <time>2015-12-19T14:37:16Z</time>
      </trkpt>
      <trkpt lat="41.935740" lon="0.820179">
        <ele>694.090</ele>
        <time>2015-12-19T14:37:18Z</time>
      </trkpt>
      <trkpt lat="41.935737" lon="0.820017">
        <ele>694.050</ele>
        <time>2015-12-19T14:37:20Z</time>
      </trkpt>
      <trkpt lat="41.935676" lon="0.819891">
        <ele>693.048</ele>
        <time>2015-12-19T14:37:22Z</time>
      </trkpt>
      <trkpt lat="41.935610" lon="0.819775">
        <ele>693.061</ele>
        <time>2015-12-19T14:37:24Z</time>
      </trkpt>
      <trkpt lat="41.935554" lon="0.819659">
        <ele>693.017</ele>
        <time>2015-12-19T14:37:26Z</time>
      </trkpt>
      <trkpt lat="41.935512" lon="0.819514">
        <ele>694.008</ele>
        <time>2015-12-19T14:37:29Z</time>
      </trkpt>
      <trkpt lat="41.935488" lon="0.819394">
        <ele>696.095</ele>
        <time>2015-12-19T14:37:33Z</time>
      </trkpt>
      <trkpt lat="41.935465" lon="0.819257">
        <ele>696.095</ele>
        <time>2015-12-19T14:37:37Z</time>
      </trkpt>
      <trkpt lat="41.935447" lon="0.819128">
        <ele>697.051</ele>
        <time>2015-12-19T14:37:42Z</time>
      </trkpt>
      <trkpt lat="41.935391" lon="0.819017">
        <ele>697.015</ele>
        <time>2015-12-19T14:37:49Z</time>
      </trkpt>
      <trkpt lat="41.935359" lon="0.818898">
        <ele>698.059</ele>
        <time>2015-12-19T14:37:55Z</time>
      </trkpt>
      <trkpt lat="41.935322" lon="0.818770">
        <ele>698.077</ele>
        <time>2015-12-19T14:38:01Z</time>
      </trkpt>
      <trkpt lat="41.935258" lon="0.818657">
        <ele>698.043</ele>
        <time>2015-12-19T14:38:07Z</time>
      </trkpt>
      <trkpt lat="41.935188" lon="0.818572">
        <ele>698.073</ele>
        <time>2015-12-19T14:38:11Z</time>
      </trkpt>
      <trkpt lat="41.935114" lon="0.818461">
        <ele>698.036</ele>
        <time>2015-12-19T14:38:14Z</time>
      </trkpt>
      <trkpt lat="41.935040" lon="0.818348">
        <ele>698.017</ele>
        <time>2015-12-19T14:38:17Z</time>
      </trkpt>
      <trkpt lat="41.934978" lon="0.818217">
        <ele>696.018</ele>
        <time>2015-12-19T14:38:20Z</time>
      </trkpt>
      <trkpt lat="41.934948" lon="0.818062">
        <ele>696.008</ele>
        <time>2015-12-19T14:38:23Z</time>
      </trkpt>
      <trkpt lat="41.934942" lon="0.817926">
        <ele>697.044</ele>
        <time>2015-12-19T14:38:26Z</time>
      </trkpt>
      <trkpt lat="41.934947" lon="0.817770">
        <ele>697.044</ele>
        <time>2015-12-19T14:38:30Z</time>
      </trkpt>
      <trkpt lat="41.934916" lon="0.817628">
        <ele>697.020</ele>
        <time>2015-12-19T14:38:34Z</time>
      </trkpt>
      <trkpt lat="41.934872" lon="0.817477">
        <ele>697.014</ele>
        <time>2015-12-19T14:38:38Z</time>
      </trkpt>
      <trkpt lat="41.934833" lon="0.817346">
        <ele>698.078</ele>
        <time>2015-12-19T14:38:41Z</time>
      </trkpt>
      <trkpt lat="41.934796" lon="0.817213">
        <ele>697.026</ele>
        <time>2015-12-19T14:38:44Z</time>
      </trkpt>
      <trkpt lat="41.934756" lon="0.817080">
        <ele>697.042</ele>
        <time>2015-12-19T14:38:47Z</time>
      </trkpt>
      <trkpt lat="41.934714" lon="0.816953">
        <ele>697.052</ele>
        <time>2015-12-19T14:38:50Z</time>
      </trkpt>
      <trkpt lat="41.934669" lon="0.816833">
        <ele>697.014</ele>
        <time>2015-12-19T14:38:53Z</time>
      </trkpt>
      <trkpt lat="41.934598" lon="0.816702">
        <ele>698.054</ele>
        <time>2015-12-19T14:38:57Z</time>
      </trkpt>
      <trkpt lat="41.934513" lon="0.816655">
        <ele>699.009</ele>
        <time>2015-12-19T14:38:59Z</time>
      </trkpt>
      <trkpt lat="41.934417" lon="0.816657">
        <ele>699.008</ele>
        <time>2015-12-19T14:39:02Z</time>
      </trkpt>
      <trkpt lat="41.934324" lon="0.816689">
        <ele>701.052</ele>
        <time>2015-12-19T14:39:06Z</time>
      </trkpt>
      <trkpt lat="41.934231" lon="0.816729">
        <ele>702.062</ele>
        <time>2015-12-19T14:39:09Z</time>
      </trkpt>
      <trkpt lat="41.934141" lon="0.816767">
        <ele>702.098</ele>
        <time>2015-12-19T14:39:12Z</time>
      </trkpt>
      <trkpt lat="41.934050" lon="0.816791">
        <ele>704.072</ele>
        <time>2015-12-19T14:39:15Z</time>
      </trkpt>
      <trkpt lat="41.933962" lon="0.816759">
        <ele>704.026</ele>
        <time>2015-12-19T14:39:18Z</time>
      </trkpt>
      <trkpt lat="41.933910" lon="0.816656">
        <ele>704.024</ele>
        <time>2015-12-19T14:39:21Z</time>
      </trkpt>
      <trkpt lat="41.933915" lon="0.816424">
        <ele>701.040</ele>
        <time>2015-12-19T14:39:24Z</time>
      </trkpt>
      <trkpt lat="41.933954" lon="0.816279">
        <ele>700.050</ele>
        <time>2015-12-19T14:39:26Z</time>
      </trkpt>
      <trkpt lat="41.934005" lon="0.816155">
        <ele>701.071</ele>
        <time>2015-12-19T14:39:28Z</time>
      </trkpt>
      <trkpt lat="41.934088" lon="0.816042">
        <ele>700.041</ele>
        <time>2015-12-19T14:39:30Z</time>
      </trkpt>
      <trkpt lat="41.934168" lon="0.815962">
        <ele>701.015</ele>
        <time>2015-12-19T14:39:32Z</time>
      </trkpt>
      <trkpt lat="41.934253" lon="0.815850">
        <ele>701.008</ele>
        <time>2015-12-19T14:39:34Z</time>
      </trkpt>
      <trkpt lat="41.934298" lon="0.815694">
        <ele>700.048</ele>
        <time>2015-12-19T14:39:36Z</time>
      </trkpt>
      <trkpt lat="41.934294" lon="0.815534">
        <ele>699.018</ele>
        <time>2015-12-19T14:39:38Z</time>
      </trkpt>
      <trkpt lat="41.934276" lon="0.815352">
        <ele>698.084</ele>
        <time>2015-12-19T14:39:40Z</time>
      </trkpt>
      <trkpt lat="41.934242" lon="0.815178">
        <ele>697.028</ele>
        <time>2015-12-19T14:39:42Z</time>
      </trkpt>
      <trkpt lat="41.934202" lon="0.814992">
        <ele>696.022</ele>
        <time>2015-12-19T14:39:44Z</time>
      </trkpt>
      <trkpt lat="41.934133" lon="0.814816">
        <ele>696.040</ele>
        <time>2015-12-19T14:39:46Z</time>
      </trkpt>
      <trkpt lat="41.934055" lon="0.814666">
        <ele>696.046</ele>
        <time>2015-12-19T14:39:48Z</time>
      </trkpt>
      <trkpt lat="41.933989" lon="0.814520">
        <ele>693.046</ele>
        <time>2015-12-19T14:39:50Z</time>
      </trkpt>
      <trkpt lat="41.933924" lon="0.814368">
        <ele>693.045</ele>
        <time>2015-12-19T14:39:52Z</time>
      </trkpt>
      <trkpt lat="41.933869" lon="0.814228">
        <ele>693.047</ele>
        <time>2015-12-19T14:39:54Z</time>
      </trkpt>
      <trkpt lat="41.933825" lon="0.814084">
        <ele>694.011</ele>
        <time>2015-12-19T14:39:57Z</time>
      </trkpt>
      <trkpt lat="41.933821" lon="0.813956">
        <ele>692.008</ele>
        <time>2015-12-19T14:39:59Z</time>
      </trkpt>
      <trkpt lat="41.933806" lon="0.813803">
        <ele>693.065</ele>
        <time>2015-12-19T14:40:02Z</time>
      </trkpt>
      <trkpt lat="41.933811" lon="0.813629">
        <ele>692.065</ele>
        <time>2015-12-19T14:40:05Z</time>
      </trkpt>
      <trkpt lat="41.933816" lon="0.813494">
        <ele>692.021</ele>
        <time>2015-12-19T14:40:07Z</time>
      </trkpt>
      <trkpt lat="41.933798" lon="0.813341">
        <ele>691.015</ele>
        <time>2015-12-19T14:40:09Z</time>
      </trkpt>
      <trkpt lat="41.933763" lon="0.813134">
        <ele>692.089</ele>
        <time>2015-12-19T14:40:11Z</time>
      </trkpt>
      <trkpt lat="41.933737" lon="0.813002">
        <ele>692.097</ele>
        <time>2015-12-19T14:40:13Z</time>
      </trkpt>
      <trkpt lat="41.933718" lon="0.812866">
        <ele>692.073</ele>
        <time>2015-12-19T14:40:15Z</time>
      </trkpt>
      <trkpt lat="41.933697" lon="0.812727">
        <ele>692.033</ele>
        <time>2015-12-19T14:40:18Z</time>
      </trkpt>
      <trkpt lat="41.933672" lon="0.812582">
        <ele>693.049</ele>
        <time>2015-12-19T14:40:19Z</time>
      </trkpt>
      <trkpt lat="41.933660" lon="0.812461">
        <ele>693.002</ele>
        <time>2015-12-19T14:40:21Z</time>
      </trkpt>
      <trkpt lat="41.933648" lon="0.812303">
        <ele>693.022</ele>
        <time>2015-12-19T14:40:25Z</time>
      </trkpt>
      <trkpt lat="41.933650" lon="0.812143">
        <ele>694.008</ele>
        <time>2015-12-19T14:40:28Z</time>
      </trkpt>
      <trkpt lat="41.933651" lon="0.811996">
        <ele>693.075</ele>
        <time>2015-12-19T14:40:31Z</time>
      </trkpt>
      <trkpt lat="41.933648" lon="0.811845">
        <ele>694.025</ele>
        <time>2015-12-19T14:40:34Z</time>
      </trkpt>
      <trkpt lat="41.933653" lon="0.811705">
        <ele>694.051</ele>
        <time>2015-12-19T14:40:37Z</time>
      </trkpt>
      <trkpt lat="41.933646" lon="0.811569">
        <ele>694.015</ele>
        <time>2015-12-19T14:40:40Z</time>
      </trkpt>
      <trkpt lat="41.933628" lon="0.811440">
        <ele>694.069</ele>
        <time>2015-12-19T14:40:43Z</time>
      </trkpt>
      <trkpt lat="41.933607" lon="0.811310">
        <ele>694.057</ele>
        <time>2015-12-19T14:40:46Z</time>
      </trkpt>
      <trkpt lat="41.933589" lon="0.811183">
        <ele>694.063</ele>
        <time>2015-12-19T14:40:49Z</time>
      </trkpt>
      <trkpt lat="41.933591" lon="0.811038">
        <ele>694.093</ele>
        <time>2015-12-19T14:40:53Z</time>
      </trkpt>
      <trkpt lat="41.933583" lon="0.810896">
        <ele>696.074</ele>
        <time>2015-12-19T14:40:57Z</time>
      </trkpt>
      <trkpt lat="41.933571" lon="0.810776">
        <ele>698.056</ele>
        <time>2015-12-19T14:41:02Z</time>
      </trkpt>
      <trkpt lat="41.933551" lon="0.810643">
        <ele>697.021</ele>
        <time>2015-12-19T14:41:07Z</time>
      </trkpt>
      <trkpt lat="41.933493" lon="0.810511">
        <ele>696.008</ele>
        <time>2015-12-19T14:41:10Z</time>
      </trkpt>
      <trkpt lat="41.933391" lon="0.810355">
        <ele>695.038</ele>
        <time>2015-12-19T14:41:13Z</time>
      </trkpt>
      <trkpt lat="41.933329" lon="0.810247">
        <ele>695.098</ele>
        <time>2015-12-19T14:41:15Z</time>
      </trkpt>
      <trkpt lat="41.933264" lon="0.810150">
        <ele>694.054</ele>
        <time>2015-12-19T14:41:17Z</time>
      </trkpt>
      <trkpt lat="41.933213" lon="0.810013">
        <ele>693.038</ele>
        <time>2015-12-19T14:41:19Z</time>
      </trkpt>
      <trkpt lat="41.933130" lon="0.809876">
        <ele>692.092</ele>
        <time>2015-12-19T14:41:21Z</time>
      </trkpt>
      <trkpt lat="41.933039" lon="0.809721">
        <ele>691.070</ele>
        <time>2015-12-19T14:41:23Z</time>
      </trkpt>
      <trkpt lat="41.932982" lon="0.809626">
        <ele>690.036</ele>
        <time>2015-12-19T14:41:24Z</time>
      </trkpt>
      <trkpt lat="41.932868" lon="0.809447">
        <ele>689.036</ele>
        <time>2015-12-19T14:41:26Z</time>
      </trkpt>
      <trkpt lat="41.932747" lon="0.809317">
        <ele>688.041</ele>
        <time>2015-12-19T14:41:28Z</time>
      </trkpt>
      <trkpt lat="41.932641" lon="0.809205">
        <ele>688.081</ele>
        <time>2015-12-19T14:41:30Z</time>
      </trkpt>
      <trkpt lat="41.932528" lon="0.809122">
        <ele>687.009</ele>
        <time>2015-12-19T14:41:32Z</time>
      </trkpt>
      <trkpt lat="41.932392" lon="0.809135">
        <ele>685.008</ele>
        <time>2015-12-19T14:41:33Z</time>
      </trkpt>
      <trkpt lat="41.932238" lon="0.809173">
        <ele>684.025</ele>
        <time>2015-12-19T14:41:36Z</time>
      </trkpt>
      <trkpt lat="41.932083" lon="0.809231">
        <ele>683.025</ele>
        <time>2015-12-19T14:41:38Z</time>
      </trkpt>
      <trkpt lat="41.931947" lon="0.809345">
        <ele>683.021</ele>
        <time>2015-12-19T14:41:40Z</time>
      </trkpt>
      <trkpt lat="41.931840" lon="0.809456">
        <ele>682.055</ele>
        <time>2015-12-19T14:41:42Z</time>
      </trkpt>
      <trkpt lat="41.931738" lon="0.809571">
        <ele>681.089</ele>
        <time>2015-12-19T14:41:44Z</time>
      </trkpt>
      <trkpt lat="41.931628" lon="0.809688">
        <ele>680.097</ele>
        <time>2015-12-19T14:41:46Z</time>
      </trkpt>
      <trkpt lat="41.931510" lon="0.809791">
        <ele>680.083</ele>
        <time>2015-12-19T14:41:48Z</time>
      </trkpt>
      <trkpt lat="41.931393" lon="0.809875">
        <ele>681.093</ele>
        <time>2015-12-19T14:41:50Z</time>
      </trkpt>
      <trkpt lat="41.931279" lon="0.809967">
        <ele>680.093</ele>
        <time>2015-12-19T14:41:52Z</time>
      </trkpt>
      <trkpt lat="41.931184" lon="0.810091">
        <ele>679.065</ele>
        <time>2015-12-19T14:41:54Z</time>
      </trkpt>
      <trkpt lat="41.931058" lon="0.810232">
        <ele>677.021</ele>
        <time>2015-12-19T14:41:56Z</time>
      </trkpt>
      <trkpt lat="41.930915" lon="0.810352">
        <ele>675.008</ele>
        <time>2015-12-19T14:41:58Z</time>
      </trkpt>
      <trkpt lat="41.930756" lon="0.810440">
        <ele>673.070</ele>
        <time>2015-12-19T14:42:00Z</time>
      </trkpt>
      <trkpt lat="41.930673" lon="0.810492">
        <ele>672.010</ele>
        <time>2015-12-19T14:42:01Z</time>
      </trkpt>
      <trkpt lat="41.930545" lon="0.810590">
        <ele>671.066</ele>
        <time>2015-12-19T14:42:03Z</time>
      </trkpt>
      <trkpt lat="41.930436" lon="0.810702">
        <ele>670.040</ele>
        <time>2015-12-19T14:42:05Z</time>
      </trkpt>
      <trkpt lat="41.930334" lon="0.810723">
        <ele>668.084</ele>
        <time>2015-12-19T14:42:07Z</time>
      </trkpt>
      <trkpt lat="41.930306" lon="0.810583">
        <ele>665.062</ele>
        <time>2015-12-19T14:42:10Z</time>
      </trkpt>
      <trkpt lat="41.930414" lon="0.810506">
        <ele>662.018</ele>
        <time>2015-12-19T14:42:13Z</time>
      </trkpt>
      <trkpt lat="41.930504" lon="0.810369">
        <ele>660.028</ele>
        <time>2015-12-19T14:42:15Z</time>
      </trkpt>
      <trkpt lat="41.930574" lon="0.810211">
        <ele>657.044</ele>
        <time>2015-12-19T14:42:17Z</time>
      </trkpt>
      <trkpt lat="41.930648" lon="0.810046">
        <ele>656.005</ele>
        <time>2015-12-19T14:42:19Z</time>
      </trkpt>
      <trkpt lat="41.930672" lon="0.809929">
        <ele>653.015</ele>
        <time>2015-12-19T14:42:20Z</time>
      </trkpt>
      <trkpt lat="41.930711" lon="0.809753">
        <ele>652.008</ele>
        <time>2015-12-19T14:42:22Z</time>
      </trkpt>
      <trkpt lat="41.930714" lon="0.809556">
        <ele>650.045</ele>
        <time>2015-12-19T14:42:24Z</time>
      </trkpt>
      <trkpt lat="41.930684" lon="0.809398">
        <ele>648.045</ele>
        <time>2015-12-19T14:42:26Z</time>
      </trkpt>
      <trkpt lat="41.930666" lon="0.809197">
        <ele>644.051</ele>
        <time>2015-12-19T14:42:28Z</time>
      </trkpt>
      <trkpt lat="41.930694" lon="0.808984">
        <ele>643.015</ele>
        <time>2015-12-19T14:42:30Z</time>
      </trkpt>
      <trkpt lat="41.930748" lon="0.808786">
        <ele>641.029</ele>
        <time>2015-12-19T14:42:32Z</time>
      </trkpt>
      <trkpt lat="41.930796" lon="0.808682">
        <ele>640.017</ele>
        <time>2015-12-19T14:42:33Z</time>
      </trkpt>
      <trkpt lat="41.930878" lon="0.808496">
        <ele>638.013</ele>
        <time>2015-12-19T14:42:35Z</time>
      </trkpt>
      <trkpt lat="41.930944" lon="0.808309">
        <ele>635.073</ele>
        <time>2015-12-19T14:42:37Z</time>
      </trkpt>
      <trkpt lat="41.931003" lon="0.808115">
        <ele>634.032</ele>
        <time>2015-12-19T14:42:38Z</time>
      </trkpt>
      <trkpt lat="41.931076" lon="0.807935">
        <ele>631.092</ele>
        <time>2015-12-19T14:42:40Z</time>
      </trkpt>
      <trkpt lat="41.931144" lon="0.807783">
        <ele>629.011</ele>
        <time>2015-12-19T14:42:42Z</time>
      </trkpt>
      <trkpt lat="41.931194" lon="0.807622">
        <ele>628.008</ele>
        <time>2015-12-19T14:42:44Z</time>
      </trkpt>
      <trkpt lat="41.931261" lon="0.807449">
        <ele>626.024</ele>
        <time>2015-12-19T14:42:46Z</time>
      </trkpt>
      <trkpt lat="41.931340" lon="0.807285">
        <ele>624.074</ele>
        <time>2015-12-19T14:42:49Z</time>
      </trkpt>
      <trkpt lat="41.931404" lon="0.807150">
        <ele>622.070</ele>
        <time>2015-12-19T14:42:51Z</time>
      </trkpt>
      <trkpt lat="41.931486" lon="0.807005">
        <ele>621.044</ele>
        <time>2015-12-19T14:42:53Z</time>
      </trkpt>
      <trkpt lat="41.931520" lon="0.806813">
        <ele>620.098</ele>
        <time>2015-12-19T14:42:55Z</time>
      </trkpt>
      <trkpt lat="41.931518" lon="0.806636">
        <ele>614.086</ele>
        <time>2015-12-19T14:42:57Z</time>
      </trkpt>
      <trkpt lat="41.931543" lon="0.806462">
        <ele>611.062</ele>
        <time>2015-12-19T14:42:59Z</time>
      </trkpt>
      <trkpt lat="41.931584" lon="0.806300">
        <ele>611.022</ele>
        <time>2015-12-19T14:43:01Z</time>
      </trkpt>
      <trkpt lat="41.931656" lon="0.806151">
        <ele>610.075</ele>
        <time>2015-12-19T14:43:03Z</time>
      </trkpt>
      <trkpt lat="41.931773" lon="0.806074">
        <ele>609.028</ele>
        <time>2015-12-19T14:43:05Z</time>
      </trkpt>
      <trkpt lat="41.931882" lon="0.805978">
        <ele>608.020</ele>
        <time>2015-12-19T14:43:07Z</time>
      </trkpt>
      <trkpt lat="41.931969" lon="0.805857">
        <ele>608.008</ele>
        <time>2015-12-19T14:43:09Z</time>
      </trkpt>
      <trkpt lat="41.932063" lon="0.805743">
        <ele>607.038</ele>
        <time>2015-12-19T14:43:11Z</time>
      </trkpt>
      <trkpt lat="41.932120" lon="0.805621">
        <ele>607.038</ele>
        <time>2015-12-19T14:43:13Z</time>
      </trkpt>
      <trkpt lat="41.932181" lon="0.805475">
        <ele>607.024</ele>
        <time>2015-12-19T14:43:15Z</time>
      </trkpt>
      <trkpt lat="41.932230" lon="0.805315">
        <ele>603.068</ele>
        <time>2015-12-19T14:43:17Z</time>
      </trkpt>
      <trkpt lat="41.932231" lon="0.805166">
        <ele>601.052</ele>
        <time>2015-12-19T14:43:19Z</time>
      </trkpt>
      <trkpt lat="41.932204" lon="0.805000">
        <ele>600.080</ele>
        <time>2015-12-19T14:43:21Z</time>
      </trkpt>
      <trkpt lat="41.932183" lon="0.804801">
        <ele>599.036</ele>
        <time>2015-12-19T14:43:23Z</time>
      </trkpt>
      <trkpt lat="41.932161" lon="0.804577">
        <ele>598.026</ele>
        <time>2015-12-19T14:43:25Z</time>
      </trkpt>
      <trkpt lat="41.932148" lon="0.804457">
        <ele>597.063</ele>
        <time>2015-12-19T14:43:26Z</time>
      </trkpt>
      <trkpt lat="41.932123" lon="0.804246">
        <ele>596.044</ele>
        <time>2015-12-19T14:43:28Z</time>
      </trkpt>
      <trkpt lat="41.932091" lon="0.804030">
        <ele>595.018</ele>
        <time>2015-12-19T14:43:30Z</time>
      </trkpt>
      <trkpt lat="41.932064" lon="0.803820">
        <ele>596.008</ele>
        <time>2015-12-19T14:43:32Z</time>
      </trkpt>
      <trkpt lat="41.932045" lon="0.803642">
        <ele>596.057</ele>
        <time>2015-12-19T14:43:34Z</time>
      </trkpt>
      <trkpt lat="41.932030" lon="0.803509">
        <ele>597.037</ele>
        <time>2015-12-19T14:43:36Z</time>
      </trkpt>
      <trkpt lat="41.932011" lon="0.803391">
        <ele>597.093</ele>
        <time>2015-12-19T14:43:38Z</time>
      </trkpt>
      <trkpt lat="41.931979" lon="0.803268">
        <ele>598.067</ele>
        <time>2015-12-19T14:43:41Z</time>
      </trkpt>
      <trkpt lat="41.931951" lon="0.803129">
        <ele>599.011</ele>
        <time>2015-12-19T14:43:44Z</time>
      </trkpt>
      <trkpt lat="41.931900" lon="0.803007">
        <ele>599.099</ele>
        <time>2015-12-19T14:43:47Z</time>
      </trkpt>
      <trkpt lat="41.931854" lon="0.802890">
        <ele>599.045</ele>
        <time>2015-12-19T14:43:50Z</time>
      </trkpt>
      <trkpt lat="41.931814" lon="0.802777">
        <ele>600.015</ele>
        <time>2015-12-19T14:43:52Z</time>
      </trkpt>
      <trkpt lat="41.931779" lon="0.802665">
        <ele>600.079</ele>
        <time>2015-12-19T14:43:55Z</time>
      </trkpt>
      <trkpt lat="41.931733" lon="0.802560">
        <ele>601.005</ele>
        <time>2015-12-19T14:43:58Z</time>
      </trkpt>
      <trkpt lat="41.931680" lon="0.802421">
        <ele>601.025</ele>
        <time>2015-12-19T14:44:02Z</time>
      </trkpt>
      <trkpt lat="41.931642" lon="0.802308">
        <ele>600.008</ele>
        <time>2015-12-19T14:44:05Z</time>
      </trkpt>
      <trkpt lat="41.931596" lon="0.802197">
        <ele>601.068</ele>
        <time>2015-12-19T14:44:09Z</time>
      </trkpt>
      <trkpt lat="41.931546" lon="0.802088">
        <ele>600.058</ele>
        <time>2015-12-19T14:44:12Z</time>
      </trkpt>
      <trkpt lat="41.931490" lon="0.801975">
        <ele>600.044</ele>
        <time>2015-12-19T14:44:15Z</time>
      </trkpt>
      <trkpt lat="41.931429" lon="0.801867">
        <ele>599.078</ele>
        <time>2015-12-19T14:44:18Z</time>
      </trkpt>
      <trkpt lat="41.931367" lon="0.801754">
        <ele>597.042</ele>
        <time>2015-12-19T14:44:21Z</time>
      </trkpt>
      <trkpt lat="41.931298" lon="0.801652">
        <ele>598.020</ele>
        <time>2015-12-19T14:44:24Z</time>
      </trkpt>
      <trkpt lat="41.931237" lon="0.801545">
        <ele>599.096</ele>
        <time>2015-12-19T14:44:27Z</time>
      </trkpt>
      <trkpt lat="41.931175" lon="0.801441">
        <ele>599.016</ele>
        <time>2015-12-19T14:44:30Z</time>
      </trkpt>
      <trkpt lat="41.931110" lon="0.801354">
        <ele>599.092</ele>
        <time>2015-12-19T14:44:33Z</time>
      </trkpt>
      <trkpt lat="41.931038" lon="0.801241">
        <ele>599.073</ele>
        <time>2015-12-19T14:44:37Z</time>
      </trkpt>
      <trkpt lat="41.930966" lon="0.801112">
        <ele>598.020</ele>
        <time>2015-12-19T14:44:41Z</time>
      </trkpt>
      <trkpt lat="41.930894" lon="0.801000">
        <ele>597.008</ele>
        <time>2015-12-19T14:44:45Z</time>
      </trkpt>
      <trkpt lat="41.930826" lon="0.800877">
        <ele>597.050</ele>
        <time>2015-12-19T14:44:49Z</time>
      </trkpt>
      <trkpt lat="41.930757" lon="0.800756">
        <ele>597.020</ele>
        <time>2015-12-19T14:44:53Z</time>
      </trkpt>
      <trkpt lat="41.930689" lon="0.800640">
        <ele>597.016</ele>
        <time>2015-12-19T14:44:56Z</time>
      </trkpt>
      <trkpt lat="41.930617" lon="0.800541">
        <ele>597.030</ele>
        <time>2015-12-19T14:44:59Z</time>
      </trkpt>
      <trkpt lat="41.930568" lon="0.800431">
        <ele>597.014</ele>
        <time>2015-12-19T14:45:02Z</time>
      </trkpt>
      <trkpt lat="41.930482" lon="0.800363">
        <ele>596.012</ele>
        <time>2015-12-19T14:45:09Z</time>
      </trkpt>
      <trkpt lat="41.930379" lon="0.800382">
        <ele>597.078</ele>
        <time>2015-12-19T14:45:14Z</time>
      </trkpt>
      <trkpt lat="41.930288" lon="0.800382">
        <ele>597.018</ele>
        <time>2015-12-19T14:45:20Z</time>
      </trkpt>
      <trkpt lat="41.930190" lon="0.800400">
        <ele>597.091</ele>
        <time>2015-12-19T14:45:24Z</time>
      </trkpt>
      <trkpt lat="41.930089" lon="0.800441">
        <ele>597.081</ele>
        <time>2015-12-19T14:45:28Z</time>
      </trkpt>
      <trkpt lat="41.929997" lon="0.800475">
        <ele>596.019</ele>
        <time>2015-12-19T14:45:31Z</time>
      </trkpt>
      <trkpt lat="41.929870" lon="0.800519">
        <ele>595.008</ele>
        <time>2015-12-19T14:45:34Z</time>
      </trkpt>
      <trkpt lat="41.929775" lon="0.800571">
        <ele>596.090</ele>
        <time>2015-12-19T14:45:36Z</time>
      </trkpt>
      <trkpt lat="41.929688" lon="0.800601">
        <ele>595.040</ele>
        <time>2015-12-19T14:45:38Z</time>
      </trkpt>
      <trkpt lat="41.929583" lon="0.800662">
        <ele>594.056</ele>
        <time>2015-12-19T14:45:41Z</time>
      </trkpt>
      <trkpt lat="41.929541" lon="0.800771">
        <ele>598.060</ele>
        <time>2015-12-19T14:47:16Z</time>
      </trkpt>
      <trkpt lat="41.929455" lon="0.800827">
        <ele>596.084</ele>
        <time>2015-12-19T14:48:21Z</time>
      </trkpt>
      <trkpt lat="41.929353" lon="0.800773">
        <ele>592.012</ele>
        <time>2015-12-19T14:48:25Z</time>
      </trkpt>
      <trkpt lat="41.929269" lon="0.800716">
        <ele>592.068</ele>
        <time>2015-12-19T14:48:27Z</time>
      </trkpt>
      <trkpt lat="41.929171" lon="0.800702">
        <ele>591.098</ele>
        <time>2015-12-19T14:48:29Z</time>
      </trkpt>
      <trkpt lat="41.929032" lon="0.800712">
        <ele>589.024</ele>
        <time>2015-12-19T14:48:31Z</time>
      </trkpt>
      <trkpt lat="41.928951" lon="0.800792">
        <ele>589.004</ele>
        <time>2015-12-19T14:48:33Z</time>
      </trkpt>
      <trkpt lat="41.928858" lon="0.800880">
        <ele>589.014</ele>
        <time>2015-12-19T14:48:36Z</time>
      </trkpt>
      <trkpt lat="41.928781" lon="0.800947">
        <ele>588.008</ele>
        <time>2015-12-19T14:48:38Z</time>
      </trkpt>
      <trkpt lat="41.928655" lon="0.800968">
        <ele>587.093</ele>
        <time>2015-12-19T14:48:41Z</time>
      </trkpt>
      <trkpt lat="41.928558" lon="0.801003">
        <ele>587.083</ele>
        <time>2015-12-19T14:48:43Z</time>
      </trkpt>
      <trkpt lat="41.928454" lon="0.801050">
        <ele>583.049</ele>
        <time>2015-12-19T14:48:47Z</time>
      </trkpt>
      <trkpt lat="41.928366" lon="0.801025">
        <ele>583.013</ele>
        <time>2015-12-19T14:48:50Z</time>
      </trkpt>
      <trkpt lat="41.928371" lon="0.800888">
        <ele>577.027</ele>
        <time>2015-12-19T14:48:52Z</time>
      </trkpt>
      <trkpt lat="41.928359" lon="0.800741">
        <ele>572.035</ele>
        <time>2015-12-19T14:48:56Z</time>
      </trkpt>
      <trkpt lat="41.928422" lon="0.800641">
        <ele>572.071</ele>
        <time>2015-12-19T14:49:06Z</time>
      </trkpt>
      <trkpt lat="41.928475" lon="0.800522">
        <ele>572.021</ele>
        <time>2015-12-19T14:49:10Z</time>
      </trkpt>
      <trkpt lat="41.928577" lon="0.800433">
        <ele>573.088</ele>
        <time>2015-12-19T14:49:14Z</time>
      </trkpt>
      <trkpt lat="41.928663" lon="0.800347">
        <ele>572.024</ele>
        <time>2015-12-19T14:49:17Z</time>
      </trkpt>
      <trkpt lat="41.928743" lon="0.800216">
        <ele>572.026</ele>
        <time>2015-12-19T14:49:20Z</time>
      </trkpt>
      <trkpt lat="41.928823" lon="0.800043">
        <ele>571.008</ele>
        <time>2015-12-19T14:49:24Z</time>
      </trkpt>
      <trkpt lat="41.928875" lon="0.799917">
        <ele>570.039</ele>
        <time>2015-12-19T14:49:26Z</time>
      </trkpt>
      <trkpt lat="41.928921" lon="0.799809">
        <ele>571.019</ele>
        <time>2015-12-19T14:49:28Z</time>
      </trkpt>
      <trkpt lat="41.928946" lon="0.799687">
        <ele>570.025</ele>
        <time>2015-12-19T14:49:30Z</time>
      </trkpt>
      <trkpt lat="41.928986" lon="0.799557">
        <ele>568.019</ele>
        <time>2015-12-19T14:49:32Z</time>
      </trkpt>
      <trkpt lat="41.929031" lon="0.799448">
        <ele>569.073</ele>
        <time>2015-12-19T14:49:34Z</time>
      </trkpt>
      <trkpt lat="41.929073" lon="0.799319">
        <ele>568.081</ele>
        <time>2015-12-19T14:49:38Z</time>
      </trkpt>
      <trkpt lat="41.929113" lon="0.799194">
        <ele>568.087</ele>
        <time>2015-12-19T14:49:41Z</time>
      </trkpt>
      <trkpt lat="41.929164" lon="0.799059">
        <ele>568.097</ele>
        <time>2015-12-19T14:49:44Z</time>
      </trkpt>
      <trkpt lat="41.929187" lon="0.798935">
        <ele>567.028</ele>
        <time>2015-12-19T14:49:47Z</time>
      </trkpt>
      <trkpt lat="41.929163" lon="0.799071">
        <ele>567.089</ele>
        <time>2015-12-19T14:50:41Z</time>
      </trkpt>
      <trkpt lat="41.929104" lon="0.799209">
        <ele>567.017</ele>
        <time>2015-12-19T14:50:46Z</time>
      </trkpt>
      <trkpt lat="41.929064" lon="0.799319">
        <ele>568.008</ele>
        <time>2015-12-19T14:50:49Z</time>
      </trkpt>
      <trkpt lat="41.928998" lon="0.799446">
        <ele>568.013</ele>
        <time>2015-12-19T14:50:53Z</time>
      </trkpt>
      <trkpt lat="41.928923" lon="0.799523">
        <ele>566.023</ele>
        <time>2015-12-19T14:50:56Z</time>
      </trkpt>
      <trkpt lat="41.928850" lon="0.799594">
        <ele>566.059</ele>
        <time>2015-12-19T14:50:57Z</time>
      </trkpt>
      <trkpt lat="41.928766" lon="0.799695">
        <ele>567.053</ele>
        <time>2015-12-19T14:50:59Z</time>
      </trkpt>
      <trkpt lat="41.928713" lon="0.799849">
        <ele>566.037</ele>
        <time>2015-12-19T14:51:01Z</time>
      </trkpt>
      <trkpt lat="41.928692" lon="0.799980">
        <ele>565.035</ele>
        <time>2015-12-19T14:51:03Z</time>
      </trkpt>
      <trkpt lat="41.928624" lon="0.800111">
        <ele>568.031</ele>
        <time>2015-12-19T14:51:10Z</time>
      </trkpt>
      <trkpt lat="41.928539" lon="0.800208">
        <ele>564.071</ele>
        <time>2015-12-19T14:51:14Z</time>
      </trkpt>
      <trkpt lat="41.928487" lon="0.800105">
        <ele>563.087</ele>
        <time>2015-12-19T14:51:19Z</time>
      </trkpt>
      <trkpt lat="41.928486" lon="0.799961">
        <ele>563.042</ele>
        <time>2015-12-19T14:51:22Z</time>
      </trkpt>
      <trkpt lat="41.928373" lon="0.799962">
        <ele>559.026</ele>
        <time>2015-12-19T14:51:24Z</time>
      </trkpt>
      <trkpt lat="41.928251" lon="0.799982">
        <ele>559.008</ele>
        <time>2015-12-19T14:51:26Z</time>
      </trkpt>
      <trkpt lat="41.928128" lon="0.799920">
        <ele>557.099</ele>
        <time>2015-12-19T14:51:28Z</time>
      </trkpt>
      <trkpt lat="41.928036" lon="0.799783">
        <ele>554.099</ele>
        <time>2015-12-19T14:51:30Z</time>
      </trkpt>
      <trkpt lat="41.927921" lon="0.799611">
        <ele>552.095</ele>
        <time>2015-12-19T14:51:32Z</time>
      </trkpt>
      <trkpt lat="41.927792" lon="0.799457">
        <ele>550.069</ele>
        <time>2015-12-19T14:51:34Z</time>
      </trkpt>
      <trkpt lat="41.927718" lon="0.799377">
        <ele>549.033</ele>
        <time>2015-12-19T14:51:35Z</time>
      </trkpt>
      <trkpt lat="41.927568" lon="0.799252">
        <ele>548.071</ele>
        <time>2015-12-19T14:51:37Z</time>
      </trkpt>
      <trkpt lat="41.927420" lon="0.799136">
        <ele>544.057</ele>
        <time>2015-12-19T14:51:39Z</time>
      </trkpt>
      <trkpt lat="41.927265" lon="0.799074">
        <ele>542.097</ele>
        <time>2015-12-19T14:51:41Z</time>
      </trkpt>
      <trkpt lat="41.927173" lon="0.799063">
        <ele>541.032</ele>
        <time>2015-12-19T14:51:42Z</time>
      </trkpt>
      <trkpt lat="41.927016" lon="0.799073">
        <ele>538.092</ele>
        <time>2015-12-19T14:51:44Z</time>
      </trkpt>
      <trkpt lat="41.926857" lon="0.799145">
        <ele>536.011</ele>
        <time>2015-12-19T14:51:46Z</time>
      </trkpt>
      <trkpt lat="41.926789" lon="0.799224">
        <ele>534.008</ele>
        <time>2015-12-19T14:51:47Z</time>
      </trkpt>
      <trkpt lat="41.926706" lon="0.799322">
        <ele>533.044</ele>
        <time>2015-12-19T14:51:48Z</time>
      </trkpt>
      <trkpt lat="41.926548" lon="0.799502">
        <ele>529.024</ele>
        <time>2015-12-19T14:51:49Z</time>
      </trkpt>
      <trkpt lat="41.926460" lon="0.799593">
        <ele>527.020</ele>
        <time>2015-12-19T14:51:50Z</time>
      </trkpt>
      <trkpt lat="41.926377" lon="0.799695">
        <ele>527.094</ele>
        <time>2015-12-19T14:51:51Z</time>
      </trkpt>
      <trkpt lat="41.926280" lon="0.799795">
        <ele>526.058</ele>
        <time>2015-12-19T14:51:52Z</time>
      </trkpt>
      <trkpt lat="41.926179" lon="0.799874">
        <ele>524.086</ele>
        <time>2015-12-19T14:51:53Z</time>
      </trkpt>
      <trkpt lat="41.926071" lon="0.799946">
        <ele>523.052</ele>
        <time>2015-12-19T14:51:54Z</time>
      </trkpt>
      <trkpt lat="41.925944" lon="0.800014">
        <ele>522.052</ele>
        <time>2015-12-19T14:51:55Z</time>
      </trkpt>
      <trkpt lat="41.925827" lon="0.800062">
        <ele>521.047</ele>
        <time>2015-12-19T14:51:56Z</time>
      </trkpt>
      <trkpt lat="41.925694" lon="0.800099">
        <ele>520.029</ele>
        <time>2015-12-19T14:51:57Z</time>
      </trkpt>
      <trkpt lat="41.925572" lon="0.800142">
        <ele>519.021</ele>
        <time>2015-12-19T14:51:58Z</time>
      </trkpt>
      <trkpt lat="41.925468" lon="0.800213">
        <ele>516.008</ele>
        <time>2015-12-19T14:51:59Z</time>
      </trkpt>
      <trkpt lat="41.925344" lon="0.800281">
        <ele>514.065</ele>
        <time>2015-12-19T14:52:00Z</time>
      </trkpt>
      <trkpt lat="41.925239" lon="0.800345">
        <ele>513.075</ele>
        <time>2015-12-19T14:52:01Z</time>
      </trkpt>
      <trkpt lat="41.925132" lon="0.800420">
        <ele>511.031</ele>
        <time>2015-12-19T14:52:02Z</time>
      </trkpt>
      <trkpt lat="41.925023" lon="0.800510">
        <ele>509.095</ele>
        <time>2015-12-19T14:52:03Z</time>
      </trkpt>
      <trkpt lat="41.924926" lon="0.800578">
        <ele>507.099</ele>
        <time>2015-12-19T14:52:04Z</time>
      </trkpt>
      <trkpt lat="41.924823" lon="0.800657">
        <ele>505.057</ele>
        <time>2015-12-19T14:52:05Z</time>
      </trkpt>
      <trkpt lat="41.924736" lon="0.800744">
        <ele>503.073</ele>
        <time>2015-12-19T14:52:06Z</time>
      </trkpt>
      <trkpt lat="41.924653" lon="0.800807">
        <ele>502.063</ele>
        <time>2015-12-19T14:52:08Z</time>
      </trkpt>
      <trkpt lat="41.924554" lon="0.800880">
        <ele>501.065</ele>
        <time>2015-12-19T14:52:09Z</time>
      </trkpt>
      <trkpt lat="41.924478" lon="0.800961">
        <ele>499.068</ele>
        <time>2015-12-19T14:52:10Z</time>
      </trkpt>
      <trkpt lat="41.924404" lon="0.801057">
        <ele>498.014</ele>
        <time>2015-12-19T14:52:11Z</time>
      </trkpt>
      <trkpt lat="41.924333" lon="0.801151">
        <ele>497.008</ele>
        <time>2015-12-19T14:52:12Z</time>
      </trkpt>
      <trkpt lat="41.924246" lon="0.801391">
        <ele>494.067</ele>
        <time>2015-12-19T14:52:14Z</time>
      </trkpt>
      <trkpt lat="41.924234" lon="0.801540">
        <ele>492.067</ele>
        <time>2015-12-19T14:52:15Z</time>
      </trkpt>
      <trkpt lat="41.924250" lon="0.801681">
        <ele>490.063</ele>
        <time>2015-12-19T14:52:16Z</time>
      </trkpt>
      <trkpt lat="41.924281" lon="0.801828">
        <ele>487.077</ele>
        <time>2015-12-19T14:52:17Z</time>
      </trkpt>
      <trkpt lat="41.924313" lon="0.801965">
        <ele>486.081</ele>
        <time>2015-12-19T14:52:18Z</time>
      </trkpt>
      <trkpt lat="41.924347" lon="0.802107">
        <ele>485.039</ele>
        <time>2015-12-19T14:52:19Z</time>
      </trkpt>
      <trkpt lat="41.924399" lon="0.802251">
        <ele>483.055</ele>
        <time>2015-12-19T14:52:20Z</time>
      </trkpt>
      <trkpt lat="41.924436" lon="0.802387">
        <ele>482.015</ele>
        <time>2015-12-19T14:52:21Z</time>
      </trkpt>
      <trkpt lat="41.924458" lon="0.802545">
        <ele>480.063</ele>
        <time>2015-12-19T14:52:22Z</time>
      </trkpt>
      <trkpt lat="41.924459" lon="0.802699">
        <ele>478.044</ele>
        <time>2015-12-19T14:52:23Z</time>
      </trkpt>
      <trkpt lat="41.924450" lon="0.802845">
        <ele>476.018</ele>
        <time>2015-12-19T14:52:24Z</time>
      </trkpt>
      <trkpt lat="41.924443" lon="0.803013">
        <ele>474.008</ele>
        <time>2015-12-19T14:52:25Z</time>
      </trkpt>
      <trkpt lat="41.924430" lon="0.803139">
        <ele>473.077</ele>
        <time>2015-12-19T14:52:26Z</time>
      </trkpt>
      <trkpt lat="41.924409" lon="0.803274">
        <ele>470.057</ele>
        <time>2015-12-19T14:52:27Z</time>
      </trkpt>
      <trkpt lat="41.924389" lon="0.803416">
        <ele>468.083</ele>
        <time>2015-12-19T14:52:28Z</time>
      </trkpt>
      <trkpt lat="41.924366" lon="0.803538">
        <ele>465.037</ele>
        <time>2015-12-19T14:52:29Z</time>
      </trkpt>
      <trkpt lat="41.924343" lon="0.803668">
        <ele>464.031</ele>
        <time>2015-12-19T14:52:30Z</time>
      </trkpt>
      <trkpt lat="41.924328" lon="0.803789">
        <ele>462.049</ele>
        <time>2015-12-19T14:52:31Z</time>
      </trkpt>
      <trkpt lat="41.924320" lon="0.803916">
        <ele>461.075</ele>
        <time>2015-12-19T14:52:32Z</time>
      </trkpt>
      <trkpt lat="41.924324" lon="0.804047">
        <ele>461.075</ele>
        <time>2015-12-19T14:52:33Z</time>
      </trkpt>
      <trkpt lat="41.924337" lon="0.804233">
        <ele>461.013</ele>
        <time>2015-12-19T14:52:35Z</time>
      </trkpt>
      <trkpt lat="41.924361" lon="0.804431">
        <ele>461.043</ele>
        <time>2015-12-19T14:52:37Z</time>
      </trkpt>
      <trkpt lat="41.924371" lon="0.804610">
        <ele>459.007</ele>
        <time>2015-12-19T14:52:39Z</time>
      </trkpt>
      <trkpt lat="41.924375" lon="0.804753">
        <ele>458.008</ele>
        <time>2015-12-19T14:52:41Z</time>
      </trkpt>
      <trkpt lat="41.924327" lon="0.804882">
        <ele>459.052</ele>
        <time>2015-12-19T14:52:44Z</time>
      </trkpt>
      <trkpt lat="41.924265" lon="0.804989">
        <ele>456.062</ele>
        <time>2015-12-19T14:52:48Z</time>
      </trkpt>
      <trkpt lat="41.924257" lon="0.805130">
        <ele>454.028</ele>
        <time>2015-12-19T14:52:51Z</time>
      </trkpt>
      <trkpt lat="41.924306" lon="0.805301">
        <ele>453.032</ele>
        <time>2015-12-19T14:52:54Z</time>
      </trkpt>
      <trkpt lat="41.924366" lon="0.805482">
        <ele>452.036</ele>
        <time>2015-12-19T14:52:57Z</time>
      </trkpt>
      <trkpt lat="41.924419" lon="0.805658">
        <ele>451.014</ele>
        <time>2015-12-19T14:53:00Z</time>
      </trkpt>
      <trkpt lat="41.924469" lon="0.805767">
        <ele>452.050</ele>
        <time>2015-12-19T14:53:02Z</time>
      </trkpt>
      <trkpt lat="41.924531" lon="0.805871">
        <ele>453.090</ele>
        <time>2015-12-19T14:53:04Z</time>
      </trkpt>
      <trkpt lat="41.924598" lon="0.805969">
        <ele>454.086</ele>
        <time>2015-12-19T14:53:06Z</time>
      </trkpt>
      <trkpt lat="41.924678" lon="0.806058">
        <ele>454.060</ele>
        <time>2015-12-19T14:53:08Z</time>
      </trkpt>
      <trkpt lat="41.924772" lon="0.806138">
        <ele>453.026</ele>
        <time>2015-12-19T14:53:10Z</time>
      </trkpt>
      <trkpt lat="41.924860" lon="0.806237">
        <ele>453.008</ele>
        <time>2015-12-19T14:53:12Z</time>
      </trkpt>
      <trkpt lat="41.924942" lon="0.806338">
        <ele>455.099</ele>
        <time>2015-12-19T14:53:13Z</time>
      </trkpt>
      <trkpt lat="41.925031" lon="0.806451">
        <ele>454.069</ele>
        <time>2015-12-19T14:53:15Z</time>
      </trkpt>
      <trkpt lat="41.925088" lon="0.806547">
        <ele>454.095</ele>
        <time>2015-12-19T14:53:17Z</time>
      </trkpt>
      <trkpt lat="41.925110" lon="0.806679">
        <ele>453.079</ele>
        <time>2015-12-19T14:53:19Z</time>
      </trkpt>
      <trkpt lat="41.925124" lon="0.806832">
        <ele>454.093</ele>
        <time>2015-12-19T14:53:21Z</time>
      </trkpt>
      <trkpt lat="41.925099" lon="0.806980">
        <ele>455.071</ele>
        <time>2015-12-19T14:53:23Z</time>
      </trkpt>
      <trkpt lat="41.925104" lon="0.807147">
        <ele>453.067</ele>
        <time>2015-12-19T14:53:26Z</time>
      </trkpt>
      <trkpt lat="41.925086" lon="0.807271">
        <ele>452.067</ele>
        <time>2015-12-19T14:53:28Z</time>
      </trkpt>
      <trkpt lat="41.925056" lon="0.807441">
        <ele>455.086</ele>
        <time>2015-12-19T14:53:31Z</time>
      </trkpt>
      <trkpt lat="41.925038" lon="0.807583">
        <ele>455.060</ele>
        <time>2015-12-19T14:53:34Z</time>
      </trkpt>
      <trkpt lat="41.925025" lon="0.807707">
        <ele>455.026</ele>
        <time>2015-12-19T14:53:36Z</time>
      </trkpt>
      <trkpt lat="41.925005" lon="0.807864">
        <ele>455.008</ele>
        <time>2015-12-19T14:53:38Z</time>
      </trkpt>
      <trkpt lat="41.925023" lon="0.808026">
        <ele>456.029</ele>
        <time>2015-12-19T14:53:40Z</time>
      </trkpt>
      <trkpt lat="41.925070" lon="0.808157">
        <ele>455.039</ele>
        <time>2015-12-19T14:53:42Z</time>
      </trkpt>
      <trkpt lat="41.925120" lon="0.808289">
        <ele>455.045</ele>
        <time>2015-12-19T14:53:44Z</time>
      </trkpt>
      <trkpt lat="41.925160" lon="0.808442">
        <ele>455.099</ele>
        <time>2015-12-19T14:53:46Z</time>
      </trkpt>
      <trkpt lat="41.925198" lon="0.808565">
        <ele>454.023</ele>
        <time>2015-12-19T14:53:48Z</time>
      </trkpt>
      <trkpt lat="41.925242" lon="0.808708">
        <ele>453.061</ele>
        <time>2015-12-19T14:53:50Z</time>
      </trkpt>
      <trkpt lat="41.925268" lon="0.808844">
        <ele>452.057</ele>
        <time>2015-12-19T14:53:52Z</time>
      </trkpt>
      <trkpt lat="41.925328" lon="0.808972">
        <ele>451.067</ele>
        <time>2015-12-19T14:53:54Z</time>
      </trkpt>
      <trkpt lat="41.925377" lon="0.809100">
        <ele>449.085</ele>
        <time>2015-12-19T14:53:56Z</time>
      </trkpt>
      <trkpt lat="41.925424" lon="0.809226">
        <ele>450.089</ele>
        <time>2015-12-19T14:53:58Z</time>
      </trkpt>
      <trkpt lat="41.925472" lon="0.809347">
        <ele>449.017</ele>
        <time>2015-12-19T14:54:00Z</time>
      </trkpt>
      <trkpt lat="41.925509" lon="0.809481">
        <ele>448.008</ele>
        <time>2015-12-19T14:54:02Z</time>
      </trkpt>
      <trkpt lat="41.925547" lon="0.809615">
        <ele>448.069</ele>
        <time>2015-12-19T14:54:04Z</time>
      </trkpt>
      <trkpt lat="41.925579" lon="0.809734">
        <ele>448.039</ele>
        <time>2015-12-19T14:54:06Z</time>
      </trkpt>
      <trkpt lat="41.925612" lon="0.809863">
        <ele>447.065</ele>
        <time>2015-12-19T14:54:08Z</time>
      </trkpt>
      <trkpt lat="41.925636" lon="0.810012">
        <ele>446.049</ele>
        <time>2015-12-19T14:54:10Z</time>
      </trkpt>
      <trkpt lat="41.925634" lon="0.810170">
        <ele>445.083</ele>
        <time>2015-12-19T14:54:13Z</time>
      </trkpt>
      <trkpt lat="41.925621" lon="0.810328">
        <ele>444.071</ele>
        <time>2015-12-19T14:54:16Z</time>
      </trkpt>
      <trkpt lat="41.925646" lon="0.810485">
        <ele>445.097</ele>
        <time>2015-12-19T14:54:20Z</time>
      </trkpt>
      <trkpt lat="41.925704" lon="0.810610">
        <ele>444.057</ele>
        <time>2015-12-19T14:54:23Z</time>
      </trkpt>
      <trkpt lat="41.925725" lon="0.810747">
        <ele>444.066</ele>
        <time>2015-12-19T14:54:26Z</time>
      </trkpt>
      <trkpt lat="41.925745" lon="0.810890">
        <ele>443.029</ele>
        <time>2015-12-19T14:54:29Z</time>
      </trkpt>
      <trkpt lat="41.925764" lon="0.811036">
        <ele>444.021</ele>
        <time>2015-12-19T14:54:32Z</time>
      </trkpt>
      <trkpt lat="41.925780" lon="0.811162">
        <ele>443.008</ele>
        <time>2015-12-19T14:54:35Z</time>
      </trkpt>
      <trkpt lat="41.925818" lon="0.811274">
        <ele>442.077</ele>
        <time>2015-12-19T14:54:37Z</time>
      </trkpt>
      <trkpt lat="41.925820" lon="0.811402">
        <ele>442.097</ele>
        <time>2015-12-19T14:54:43Z</time>
      </trkpt>
      <trkpt lat="41.925827" lon="0.811261">
        <ele>444.023</ele>
        <time>2015-12-19T14:54:55Z</time>
      </trkpt>
      <trkpt lat="41.925793" lon="0.811146">
        <ele>444.067</ele>
        <time>2015-12-19T14:54:59Z</time>
      </trkpt>
      <trkpt lat="41.925771" lon="0.811025">
        <ele>444.011</ele>
        <time>2015-12-19T14:55:06Z</time>
      </trkpt>
      <trkpt lat="41.925858" lon="0.811063">
        <ele>444.059</ele>
        <time>2015-12-19T14:55:16Z</time>
      </trkpt>
      <trkpt lat="41.925892" lon="0.811189">
        <ele>445.065</ele>
        <time>2015-12-19T14:55:20Z</time>
      </trkpt>
      <trkpt lat="41.925940" lon="0.811304">
        <ele>445.045</ele>
        <time>2015-12-19T14:55:24Z</time>
      </trkpt>
      <trkpt lat="41.925980" lon="0.811417">
        <ele>448.089</ele>
        <time>2015-12-19T14:55:30Z</time>
      </trkpt>
      <trkpt lat="41.926010" lon="0.811533">
        <ele>456.006</ele>
        <time>2015-12-19T14:55:48Z</time>
      </trkpt>
      <trkpt lat="41.925908" lon="0.811481">
        <ele>486.026</ele>
        <time>2015-12-19T14:57:40Z</time>
      </trkpt>
      <trkpt lat="41.925929" lon="0.811360">
        <ele>464.008</ele>
        <time>2015-12-19T14:58:07Z</time>
      </trkpt>
      <trkpt lat="41.925846" lon="0.811310">
        <ele>451.069</ele>
        <time>2015-12-19T14:58:27Z</time>
      </trkpt>
      <trkpt lat="41.925892" lon="0.811418">
        <ele>455.069</ele>
        <time>2015-12-19T14:59:47Z</time>
      </trkpt>
      <trkpt lat="41.925991" lon="0.811470">
        <ele>450.085</ele>
        <time>2015-12-19T14:59:55Z</time>
      </trkpt>
      <trkpt lat="41.926065" lon="0.811546">
        <ele>447.029</ele>
        <time>2015-12-19T15:00:26Z</time>
      </trkpt>
      <trkpt lat="41.925999" lon="0.811672">
        <ele>450.073</ele>
        <time>2015-12-19T15:00:32Z</time>
      </trkpt>
      <trkpt lat="41.925936" lon="0.811796">
        <ele>451.071</ele>
        <time>2015-12-19T15:00:36Z</time>
      </trkpt>
      <trkpt lat="41.925892" lon="0.811906">
        <ele>451.087</ele>
        <time>2015-12-19T15:00:40Z</time>
      </trkpt>
      <trkpt lat="41.925794" lon="0.812007">
        <ele>451.027</ele>
        <time>2015-12-19T15:00:44Z</time>
      </trkpt>
      <trkpt lat="41.925935" lon="0.811792">
        <ele>451.073</ele>
        <time>2015-12-19T15:00:47Z</time>
      </trkpt>
      <trkpt lat="41.925854" lon="0.811735">
        <ele>459.085</ele>
        <time>2015-12-19T15:01:22Z</time>
      </trkpt>
      <trkpt lat="41.925764" lon="0.811721">
        <ele>467.013</ele>
        <time>2015-12-19T15:01:32Z</time>
      </trkpt>
      <trkpt lat="41.925723" lon="0.811376">
        <ele>469.008</ele>
        <time>2015-12-19T15:01:37Z</time>
      </trkpt>
      <trkpt lat="41.925628" lon="0.811433">
        <ele>483.078</ele>
        <time>2015-12-19T15:01:39Z</time>
      </trkpt>
      <trkpt lat="41.925726" lon="0.811570">
        <ele>475.078</ele>
        <time>2015-12-19T15:01:42Z</time>
      </trkpt>
      <trkpt lat="41.925833" lon="0.811552">
        <ele>468.094</ele>
        <time>2015-12-19T15:01:45Z</time>
      </trkpt>
      <trkpt lat="41.925924" lon="0.811527">
        <ele>460.098</ele>
        <time>2015-12-19T15:01:56Z</time>
      </trkpt>
      <trkpt lat="41.926020" lon="0.811520">
        <ele>458.092</ele>
        <time>2015-12-19T15:05:03Z</time>
      </trkpt>
      <trkpt lat="41.925973" lon="0.811639">
        <ele>457.080</ele>
        <time>2015-12-19T15:07:34Z</time>
      </trkpt>
      <trkpt lat="41.925883" lon="0.811687">
        <ele>462.036</ele>
        <time>2015-12-19T15:08:15Z</time>
      </trkpt>
      <trkpt lat="41.925811" lon="0.811827">
        <ele>466.036</ele>
        <time>2015-12-19T15:08:33Z</time>
      </trkpt>
      <trkpt lat="41.924696" lon="0.812048">
        <ele>466.094</ele>
        <time>2015-12-19T15:08:36Z</time>
      </trkpt>
      <trkpt lat="41.924383" lon="0.812256">
        <ele>466.057</ele>
        <time>2015-12-19T15:08:37Z</time>
      </trkpt>
      <trkpt lat="41.924323" lon="0.812152">
        <ele>467.022</ele>
        <time>2015-12-19T15:08:39Z</time>
      </trkpt>
      <trkpt lat="41.924788" lon="0.811240">
        <ele>453.008</ele>
        <time>2015-12-19T15:08:40Z</time>
      </trkpt>
      <trkpt lat="41.924792" lon="0.811092">
        <ele>453.050</ele>
        <time>2015-12-19T15:08:42Z</time>
      </trkpt>
      <trkpt lat="41.924762" lon="0.810958">
        <ele>453.090</ele>
        <time>2015-12-19T15:08:43Z</time>
      </trkpt>
      <trkpt lat="41.924826" lon="0.811096">
        <ele>454.096</ele>
        <time>2015-12-19T15:08:44Z</time>
      </trkpt>
      <trkpt lat="41.924924" lon="0.811317">
        <ele>454.060</ele>
        <time>2015-12-19T15:08:45Z</time>
      </trkpt>
      <trkpt lat="41.925021" lon="0.811239">
        <ele>454.064</ele>
        <time>2015-12-19T15:08:47Z</time>
      </trkpt>
      <trkpt lat="41.924947" lon="0.811319">
        <ele>454.042</ele>
        <time>2015-12-19T15:08:52Z</time>
      </trkpt>
      <trkpt lat="41.924873" lon="0.811393">
        <ele>452.038</ele>
        <time>2015-12-19T15:08:55Z</time>
      </trkpt>
      <trkpt lat="41.924954" lon="0.811307">
        <ele>452.088</ele>
        <time>2015-12-19T15:09:05Z</time>
      </trkpt>
      <trkpt lat="41.925031" lon="0.811236">
        <ele>452.092</ele>
        <time>2015-12-19T15:09:07Z</time>
      </trkpt>
      <trkpt lat="41.924762" lon="0.811767">
        <ele>461.073</ele>
        <time>2015-12-19T15:09:11Z</time>
      </trkpt>
      <trkpt lat="41.924872" lon="0.811090">
        <ele>461.020</ele>
        <time>2015-12-19T15:09:26Z</time>
      </trkpt>
      <trkpt lat="41.924592" lon="0.811013">
        <ele>464.008</ele>
        <time>2015-12-19T15:09:29Z</time>
      </trkpt>
      <trkpt lat="41.924961" lon="0.811842">
        <ele>467.020</ele>
        <time>2015-12-19T15:09:41Z</time>
      </trkpt>
      <trkpt lat="41.925020" lon="0.811959">
        <ele>475.030</ele>
        <time>2015-12-19T15:09:43Z</time>
      </trkpt>
      <trkpt lat="41.925165" lon="0.812316">
        <ele>477.016</ele>
        <time>2015-12-19T15:09:44Z</time>
      </trkpt>
      <trkpt lat="41.925216" lon="0.812450">
        <ele>474.060</ele>
        <time>2015-12-19T15:09:46Z</time>
      </trkpt>
      <trkpt lat="41.925300" lon="0.812533">
        <ele>476.014</ele>
        <time>2015-12-19T15:09:49Z</time>
      </trkpt>
      <trkpt lat="41.925715" lon="0.811921">
        <ele>472.072</ele>
        <time>2015-12-19T15:09:50Z</time>
      </trkpt>
      <trkpt lat="41.925837" lon="0.811811">
        <ele>466.028</ele>
        <time>2015-12-19T15:09:51Z</time>
      </trkpt>
      <trkpt lat="41.926171" lon="0.811507">
        <ele>462.018</ele>
        <time>2015-12-19T15:09:52Z</time>
      </trkpt>
      <trkpt lat="41.926093" lon="0.811427">
        <ele>451.086</ele>
        <time>2015-12-19T15:10:02Z</time>
      </trkpt>
      <trkpt lat="41.926022" lon="0.811334">
        <ele>452.060</ele>
        <time>2015-12-19T15:10:09Z</time>
      </trkpt>
      <trkpt lat="41.925943" lon="0.811263">
        <ele>449.026</ele>
        <time>2015-12-19T15:10:17Z</time>
      </trkpt>
      <trkpt lat="41.925878" lon="0.811178">
        <ele>446.008</ele>
        <time>2015-12-19T15:10:25Z</time>
      </trkpt>
      <trkpt lat="41.925864" lon="0.811051">
        <ele>449.099</ele>
        <time>2015-12-19T15:10:36Z</time>
      </trkpt>
      <trkpt lat="41.925770" lon="0.811014">
        <ele>453.019</ele>
        <time>2015-12-19T15:12:35Z</time>
      </trkpt>
      <trkpt lat="41.925759" lon="0.810890">
        <ele>449.035</ele>
        <time>2015-12-19T15:13:03Z</time>
      </trkpt>
      <trkpt lat="41.925754" lon="0.810750">
        <ele>450.019</ele>
        <time>2015-12-19T15:13:08Z</time>
      </trkpt>
      <trkpt lat="41.925723" lon="0.810627">
        <ele>449.033</ele>
        <time>2015-12-19T15:13:12Z</time>
      </trkpt>
      <trkpt lat="41.925677" lon="0.810492">
        <ele>449.031</ele>
        <time>2015-12-19T15:13:16Z</time>
      </trkpt>
      <trkpt lat="41.925657" lon="0.810350">
        <ele>448.087</ele>
        <time>2015-12-19T15:13:20Z</time>
      </trkpt>
      <trkpt lat="41.925661" lon="0.810228">
        <ele>447.067</ele>
        <time>2015-12-19T15:13:23Z</time>
      </trkpt>
      <trkpt lat="41.925668" lon="0.810100">
        <ele>447.044</ele>
        <time>2015-12-19T15:13:27Z</time>
      </trkpt>
      <trkpt lat="41.925671" lon="0.809966">
        <ele>448.005</ele>
        <time>2015-12-19T15:13:31Z</time>
      </trkpt>
      <trkpt lat="41.925642" lon="0.809836">
        <ele>447.015</ele>
        <time>2015-12-19T15:13:35Z</time>
      </trkpt>
      <trkpt lat="41.925608" lon="0.809691">
        <ele>448.008</ele>
        <time>2015-12-19T15:13:39Z</time>
      </trkpt>
      <trkpt lat="41.925571" lon="0.809552">
        <ele>447.025</ele>
        <time>2015-12-19T15:13:44Z</time>
      </trkpt>
      <trkpt lat="41.925529" lon="0.809403">
        <ele>448.055</ele>
        <time>2015-12-19T15:13:47Z</time>
      </trkpt>
      <trkpt lat="41.925484" lon="0.809266">
        <ele>448.041</ele>
        <time>2015-12-19T15:13:52Z</time>
      </trkpt>
      <trkpt lat="41.925422" lon="0.809125">
        <ele>448.025</ele>
        <time>2015-12-19T15:13:56Z</time>
      </trkpt>
      <trkpt lat="41.925381" lon="0.809013">
        <ele>448.049</ele>
        <time>2015-12-19T15:13:59Z</time>
      </trkpt>
      <trkpt lat="41.925323" lon="0.808873">
        <ele>448.037</ele>
        <time>2015-12-19T15:14:03Z</time>
      </trkpt>
      <trkpt lat="41.925283" lon="0.808763">
        <ele>448.013</ele>
        <time>2015-12-19T15:14:06Z</time>
      </trkpt>
      <trkpt lat="41.925240" lon="0.808620">
        <ele>449.083</ele>
        <time>2015-12-19T15:14:10Z</time>
      </trkpt>
      <trkpt lat="41.925200" lon="0.808479">
        <ele>449.085</ele>
        <time>2015-12-19T15:14:14Z</time>
      </trkpt>
      <trkpt lat="41.925165" lon="0.808346">
        <ele>450.089</ele>
        <time>2015-12-19T15:14:18Z</time>
      </trkpt>
      <trkpt lat="41.925123" lon="0.808210">
        <ele>450.017</ele>
        <time>2015-12-19T15:14:22Z</time>
      </trkpt>
      <trkpt lat="41.925077" lon="0.808072">
        <ele>450.008</ele>
        <time>2015-12-19T15:14:26Z</time>
      </trkpt>
      <trkpt lat="41.925039" lon="0.807932">
        <ele>451.049</ele>
        <time>2015-12-19T15:14:30Z</time>
      </trkpt>
      <trkpt lat="41.925033" lon="0.807790">
        <ele>451.049</ele>
        <time>2015-12-19T15:14:34Z</time>
      </trkpt>
      <trkpt lat="41.925044" lon="0.807651">
        <ele>452.075</ele>
        <time>2015-12-19T15:14:38Z</time>
      </trkpt>
      <trkpt lat="41.925057" lon="0.807522">
        <ele>452.089</ele>
        <time>2015-12-19T15:14:42Z</time>
      </trkpt>
      <trkpt lat="41.925066" lon="0.807386">
        <ele>453.093</ele>
        <time>2015-12-19T15:14:46Z</time>
      </trkpt>
      <trkpt lat="41.925083" lon="0.807239">
        <ele>454.051</ele>
        <time>2015-12-19T15:14:50Z</time>
      </trkpt>
      <trkpt lat="41.925096" lon="0.807115">
        <ele>454.087</ele>
        <time>2015-12-19T15:14:53Z</time>
      </trkpt>
      <trkpt lat="41.925110" lon="0.806940">
        <ele>455.097</ele>
        <time>2015-12-19T15:14:56Z</time>
      </trkpt>
      <trkpt lat="41.925124" lon="0.806816">
        <ele>456.061</ele>
        <time>2015-12-19T15:14:59Z</time>
      </trkpt>
      <trkpt lat="41.925134" lon="0.806694">
        <ele>455.021</ele>
        <time>2015-12-19T15:15:02Z</time>
      </trkpt>
      <trkpt lat="41.925113" lon="0.806563">
        <ele>457.013</ele>
        <time>2015-12-19T15:15:06Z</time>
      </trkpt>
      <trkpt lat="41.925047" lon="0.806451">
        <ele>454.008</ele>
        <time>2015-12-19T15:15:10Z</time>
      </trkpt>
      <trkpt lat="41.924986" lon="0.806359">
        <ele>453.017</ele>
        <time>2015-12-19T15:15:14Z</time>
      </trkpt>
      <trkpt lat="41.924914" lon="0.806270">
        <ele>453.097</ele>
        <time>2015-12-19T15:15:17Z</time>
      </trkpt>
      <trkpt lat="41.924840" lon="0.806183">
        <ele>453.063</ele>
        <time>2015-12-19T15:15:20Z</time>
      </trkpt>
      <trkpt lat="41.924767" lon="0.806100">
        <ele>454.057</ele>
        <time>2015-12-19T15:15:23Z</time>
      </trkpt>
      <trkpt lat="41.924698" lon="0.806017">
        <ele>455.071</ele>
        <time>2015-12-19T15:15:26Z</time>
      </trkpt>
      <trkpt lat="41.924615" lon="0.805905">
        <ele>455.079</ele>
        <time>2015-12-19T15:15:30Z</time>
      </trkpt>
      <trkpt lat="41.924552" lon="0.805814">
        <ele>456.075</ele>
        <time>2015-12-19T15:15:33Z</time>
      </trkpt>
      <trkpt lat="41.924497" lon="0.805713">
        <ele>456.095</ele>
        <time>2015-12-19T15:15:36Z</time>
      </trkpt>
      <trkpt lat="41.924449" lon="0.805600">
        <ele>455.053</ele>
        <time>2015-12-19T15:15:39Z</time>
      </trkpt>
      <trkpt lat="41.924404" lon="0.805480">
        <ele>456.004</ele>
        <time>2015-12-19T15:15:42Z</time>
      </trkpt>
      <trkpt lat="41.924361" lon="0.805368">
        <ele>456.014</ele>
        <time>2015-12-19T15:15:45Z</time>
      </trkpt>
      <trkpt lat="41.924324" lon="0.805258">
        <ele>456.008</ele>
        <time>2015-12-19T15:15:48Z</time>
      </trkpt>
      <trkpt lat="41.924285" lon="0.805115">
        <ele>456.086</ele>
        <time>2015-12-19T15:15:52Z</time>
      </trkpt>
      <trkpt lat="41.924272" lon="0.804995">
        <ele>457.096</ele>
        <time>2015-12-19T15:15:57Z</time>
      </trkpt>
      <trkpt lat="41.924220" lon="0.804857">
        <ele>456.072</ele>
        <time>2015-12-19T15:16:03Z</time>
      </trkpt>
      <trkpt lat="41.924194" lon="0.804705">
        <ele>456.046</ele>
        <time>2015-12-19T15:16:07Z</time>
      </trkpt>
      <trkpt lat="41.924185" lon="0.804560">
        <ele>457.040</ele>
        <time>2015-12-19T15:16:11Z</time>
      </trkpt>
      <trkpt lat="41.924198" lon="0.804413">
        <ele>456.098</ele>
        <time>2015-12-19T15:16:16Z</time>
      </trkpt>
      <trkpt lat="41.924167" lon="0.804299">
        <ele>457.024</ele>
        <time>2015-12-19T15:16:29Z</time>
      </trkpt>
      <trkpt lat="41.924189" lon="0.804176">
        <ele>457.034</ele>
        <time>2015-12-19T15:16:34Z</time>
      </trkpt>
      <trkpt lat="41.924204" lon="0.804056">
        <ele>458.077</ele>
        <time>2015-12-19T15:16:38Z</time>
      </trkpt>
      <trkpt lat="41.924200" lon="0.803934">
        <ele>458.061</ele>
        <time>2015-12-19T15:16:42Z</time>
      </trkpt>
      <trkpt lat="41.924185" lon="0.803806">
        <ele>459.027</ele>
        <time>2015-12-19T15:16:46Z</time>
      </trkpt>
      <trkpt lat="41.924158" lon="0.803683">
        <ele>458.008</ele>
        <time>2015-12-19T15:17:37Z</time>
      </trkpt>
      <trkpt lat="41.924119" lon="0.803555">
        <ele>458.028</ele>
        <time>2015-12-19T15:17:44Z</time>
      </trkpt>
      <trkpt lat="41.924101" lon="0.803435">
        <ele>459.078</ele>
        <time>2015-12-19T15:17:55Z</time>
      </trkpt>
      <trkpt lat="41.924094" lon="0.803302">
        <ele>460.084</ele>
        <time>2015-12-19T15:18:03Z</time>
      </trkpt>
      <trkpt lat="41.924073" lon="0.803162">
        <ele>460.028</ele>
        <time>2015-12-19T15:18:09Z</time>
      </trkpt>
      <trkpt lat="41.924059" lon="0.803018">
        <ele>460.072</ele>
        <time>2015-12-19T15:18:14Z</time>
      </trkpt>
      <trkpt lat="41.924056" lon="0.802863">
        <ele>460.040</ele>
        <time>2015-12-19T15:18:18Z</time>
      </trkpt>
      <trkpt lat="41.924059" lon="0.802717">
        <ele>458.026</ele>
        <time>2015-12-19T15:18:21Z</time>
      </trkpt>
      <trkpt lat="41.924057" lon="0.802579">
        <ele>459.076</ele>
        <time>2015-12-19T15:18:24Z</time>
      </trkpt>
      <trkpt lat="41.924045" lon="0.802423">
        <ele>458.053</ele>
        <time>2015-12-19T15:18:28Z</time>
      </trkpt>
      <trkpt lat="41.924015" lon="0.802297">
        <ele>458.004</ele>
        <time>2015-12-19T15:18:32Z</time>
      </trkpt>
      <trkpt lat="41.923982" lon="0.802169">
        <ele>458.014</ele>
        <time>2015-12-19T15:18:36Z</time>
      </trkpt>
      <trkpt lat="41.923943" lon="0.802051">
        <ele>459.008</ele>
        <time>2015-12-19T15:18:40Z</time>
      </trkpt>
      <trkpt lat="41.923909" lon="0.801923">
        <ele>457.086</ele>
        <time>2015-12-19T15:18:44Z</time>
      </trkpt>
      <trkpt lat="41.923878" lon="0.801800">
        <ele>457.086</ele>
        <time>2015-12-19T15:18:48Z</time>
      </trkpt>
      <trkpt lat="41.923857" lon="0.801673">
        <ele>457.042</ele>
        <time>2015-12-19T15:18:52Z</time>
      </trkpt>
      <trkpt lat="41.923860" lon="0.801549">
        <ele>458.066</ele>
        <time>2015-12-19T15:18:56Z</time>
      </trkpt>
      <trkpt lat="41.923842" lon="0.801424">
        <ele>458.070</ele>
        <time>2015-12-19T15:19:00Z</time>
      </trkpt>
      <trkpt lat="41.923834" lon="0.801296">
        <ele>458.088</ele>
        <time>2015-12-19T15:19:04Z</time>
      </trkpt>
      <trkpt lat="41.923826" lon="0.801152">
        <ele>457.054</ele>
        <time>2015-12-19T15:19:07Z</time>
      </trkpt>
      <trkpt lat="41.923812" lon="0.801008">
        <ele>458.054</ele>
        <time>2015-12-19T15:19:11Z</time>
      </trkpt>
      <trkpt lat="41.923796" lon="0.800858">
        <ele>459.095</ele>
        <time>2015-12-19T15:19:15Z</time>
      </trkpt>
      <trkpt lat="41.923791" lon="0.800718">
        <ele>460.049</ele>
        <time>2015-12-19T15:19:19Z</time>
      </trkpt>
      <trkpt lat="41.923785" lon="0.800574">
        <ele>459.023</ele>
        <time>2015-12-19T15:19:23Z</time>
      </trkpt>
      <trkpt lat="41.923771" lon="0.800430">
        <ele>460.008</ele>
        <time>2015-12-19T15:19:28Z</time>
      </trkpt>
      <trkpt lat="41.923760" lon="0.800287">
        <ele>461.050</ele>
        <time>2015-12-19T15:19:32Z</time>
      </trkpt>
      <trkpt lat="41.923740" lon="0.800164">
        <ele>460.050</ele>
        <time>2015-12-19T15:19:36Z</time>
      </trkpt>
      <trkpt lat="41.923744" lon="0.800030">
        <ele>460.056</ele>
        <time>2015-12-19T15:19:40Z</time>
      </trkpt>
      <trkpt lat="41.923762" lon="0.799904">
        <ele>460.050</ele>
        <time>2015-12-19T15:19:44Z</time>
      </trkpt>
      <trkpt lat="41.923792" lon="0.799766">
        <ele>462.014</ele>
        <time>2015-12-19T15:19:49Z</time>
      </trkpt>
      <trkpt lat="41.923829" lon="0.799654">
        <ele>463.082</ele>
        <time>2015-12-19T15:19:53Z</time>
      </trkpt>
      <trkpt lat="41.923856" lon="0.799526">
        <ele>462.058</ele>
        <time>2015-12-19T15:19:57Z</time>
      </trkpt>
      <trkpt lat="41.923892" lon="0.799392">
        <ele>463.078</ele>
        <time>2015-12-19T15:20:01Z</time>
      </trkpt>
      <trkpt lat="41.923923" lon="0.799273">
        <ele>462.094</ele>
        <time>2015-12-19T15:20:05Z</time>
      </trkpt>
      <trkpt lat="41.923947" lon="0.799148">
        <ele>463.057</ele>
        <time>2015-12-19T15:20:09Z</time>
      </trkpt>
      <trkpt lat="41.923977" lon="0.799017">
        <ele>463.022</ele>
        <time>2015-12-19T15:20:14Z</time>
      </trkpt>
      <trkpt lat="41.924012" lon="0.798900">
        <ele>467.008</ele>
        <time>2015-12-19T15:20:20Z</time>
      </trkpt>
      <trkpt lat="41.924082" lon="0.798803">
        <ele>467.070</ele>
        <time>2015-12-19T15:20:26Z</time>
      </trkpt>
      <trkpt lat="41.924162" lon="0.798715">
        <ele>460.090</ele>
        <time>2015-12-19T15:20:30Z</time>
      </trkpt>
      <trkpt lat="41.924245" lon="0.798642">
        <ele>461.096</ele>
        <time>2015-12-19T15:20:34Z</time>
      </trkpt>
      <trkpt lat="41.924321" lon="0.798573">
        <ele>462.070</ele>
        <time>2015-12-19T15:20:38Z</time>
      </trkpt>
      <trkpt lat="41.924404" lon="0.798501">
        <ele>465.024</ele>
        <time>2015-12-19T15:20:42Z</time>
      </trkpt>
      <trkpt lat="41.924465" lon="0.798406">
        <ele>467.092</ele>
        <time>2015-12-19T15:20:47Z</time>
      </trkpt>
      <trkpt lat="41.924523" lon="0.798293">
        <ele>470.048</ele>
        <time>2015-12-19T15:20:57Z</time>
      </trkpt>
      <trkpt lat="41.924562" lon="0.798165">
        <ele>472.068</ele>
        <time>2015-12-19T15:21:02Z</time>
      </trkpt>
      <trkpt lat="41.924597" lon="0.798035">
        <ele>470.095</ele>
        <time>2015-12-19T15:21:06Z</time>
      </trkpt>
      <trkpt lat="41.924613" lon="0.797910">
        <ele>470.049</ele>
        <time>2015-12-19T15:21:10Z</time>
      </trkpt>
      <trkpt lat="41.924635" lon="0.797790">
        <ele>475.023</ele>
        <time>2015-12-19T15:21:15Z</time>
      </trkpt>
      <trkpt lat="41.924672" lon="0.797670">
        <ele>477.008</ele>
        <time>2015-12-19T15:21:20Z</time>
      </trkpt>
      <trkpt lat="41.924703" lon="0.797530">
        <ele>476.020</ele>
        <time>2015-12-19T15:21:24Z</time>
      </trkpt>
      <trkpt lat="41.924721" lon="0.797408">
        <ele>474.070</ele>
        <time>2015-12-19T15:21:27Z</time>
      </trkpt>
      <trkpt lat="41.924723" lon="0.797269">
        <ele>474.086</ele>
        <time>2015-12-19T15:21:31Z</time>
      </trkpt>
      <trkpt lat="41.924732" lon="0.797142">
        <ele>475.040</ele>
        <time>2015-12-19T15:21:35Z</time>
      </trkpt>
      <trkpt lat="41.924774" lon="0.797031">
        <ele>473.044</ele>
        <time>2015-12-19T15:21:40Z</time>
      </trkpt>
      <trkpt lat="41.924837" lon="0.796926">
        <ele>474.022</ele>
        <time>2015-12-19T15:21:45Z</time>
      </trkpt>
      <trkpt lat="41.924903" lon="0.796832">
        <ele>473.038</ele>
        <time>2015-12-19T15:21:49Z</time>
      </trkpt>
      <trkpt lat="41.924964" lon="0.796738">
        <ele>474.038</ele>
        <time>2015-12-19T15:21:53Z</time>
      </trkpt>
      <trkpt lat="41.925052" lon="0.796606">
        <ele>472.084</ele>
        <time>2015-12-19T15:21:58Z</time>
      </trkpt>
      <trkpt lat="41.925108" lon="0.796504">
        <ele>471.007</ele>
        <time>2015-12-19T15:22:02Z</time>
      </trkpt>
      <trkpt lat="41.925169" lon="0.796406">
        <ele>472.017</ele>
        <time>2015-12-19T15:22:06Z</time>
      </trkpt>
      <trkpt lat="41.925247" lon="0.796294">
        <ele>471.008</ele>
        <time>2015-12-19T15:22:11Z</time>
      </trkpt>
      <trkpt lat="41.925320" lon="0.796195">
        <ele>472.089</ele>
        <time>2015-12-19T15:22:16Z</time>
      </trkpt>
      <trkpt lat="41.925392" lon="0.796099">
        <ele>472.059</ele>
        <time>2015-12-19T15:22:20Z</time>
      </trkpt>
      <trkpt lat="41.925461" lon="0.796018">
        <ele>471.015</ele>
        <time>2015-12-19T15:22:24Z</time>
      </trkpt>
      <trkpt lat="41.925520" lon="0.795925">
        <ele>472.079</ele>
        <time>2015-12-19T15:22:28Z</time>
      </trkpt>
      <trkpt lat="41.925564" lon="0.795787">
        <ele>473.063</ele>
        <time>2015-12-19T15:22:33Z</time>
      </trkpt>
      <trkpt lat="41.925564" lon="0.795662">
        <ele>472.071</ele>
        <time>2015-12-19T15:22:37Z</time>
      </trkpt>
      <trkpt lat="41.925564" lon="0.795529">
        <ele>471.027</ele>
        <time>2015-12-19T15:22:41Z</time>
      </trkpt>
      <trkpt lat="41.925532" lon="0.795390">
        <ele>474.047</ele>
        <time>2015-12-19T15:22:46Z</time>
      </trkpt>
      <trkpt lat="41.925469" lon="0.795265">
        <ele>472.088</ele>
        <time>2015-12-19T15:22:51Z</time>
      </trkpt>
      <trkpt lat="41.925409" lon="0.795174">
        <ele>472.024</ele>
        <time>2015-12-19T15:22:55Z</time>
      </trkpt>
      <trkpt lat="41.925323" lon="0.795095">
        <ele>471.026</ele>
        <time>2015-12-19T15:23:00Z</time>
      </trkpt>
      <trkpt lat="41.925230" lon="0.795025">
        <ele>468.008</ele>
        <time>2015-12-19T15:23:05Z</time>
      </trkpt>
      <trkpt lat="41.925179" lon="0.794920">
        <ele>468.029</ele>
        <time>2015-12-19T15:23:12Z</time>
      </trkpt>
      <trkpt lat="41.925128" lon="0.794787">
        <ele>469.029</ele>
        <time>2015-12-19T15:23:16Z</time>
      </trkpt>
      <trkpt lat="41.925089" lon="0.794652">
        <ele>468.055</ele>
        <time>2015-12-19T15:23:20Z</time>
      </trkpt>
      <trkpt lat="41.925070" lon="0.794526">
        <ele>468.099</ele>
        <time>2015-12-19T15:23:24Z</time>
      </trkpt>
      <trkpt lat="41.925031" lon="0.794380">
        <ele>466.023</ele>
        <time>2015-12-19T15:23:28Z</time>
      </trkpt>
      <trkpt lat="41.924953" lon="0.794285">
        <ele>467.091</ele>
        <time>2015-12-19T15:23:32Z</time>
      </trkpt>
      <trkpt lat="41.924873" lon="0.794201">
        <ele>468.037</ele>
        <time>2015-12-19T15:23:36Z</time>
      </trkpt>
      <trkpt lat="41.924813" lon="0.794111">
        <ele>464.077</ele>
        <time>2015-12-19T15:23:40Z</time>
      </trkpt>
      <trkpt lat="41.924750" lon="0.794000">
        <ele>460.065</ele>
        <time>2015-12-19T15:23:45Z</time>
      </trkpt>
      <trkpt lat="41.924703" lon="0.793869">
        <ele>461.068</ele>
        <time>2015-12-19T15:23:51Z</time>
      </trkpt>
      <trkpt lat="41.924645" lon="0.793745">
        <ele>459.014</ele>
        <time>2015-12-19T15:23:56Z</time>
      </trkpt>
      <trkpt lat="41.924621" lon="0.793596">
        <ele>462.008</ele>
        <time>2015-12-19T15:24:01Z</time>
      </trkpt>
      <trkpt lat="41.924612" lon="0.793473">
        <ele>465.037</ele>
        <time>2015-12-19T15:24:05Z</time>
      </trkpt>
      <trkpt lat="41.924608" lon="0.793346">
        <ele>466.037</ele>
        <time>2015-12-19T15:24:09Z</time>
      </trkpt>
      <trkpt lat="41.924628" lon="0.793220">
        <ele>466.063</ele>
        <time>2015-12-19T15:24:13Z</time>
      </trkpt>
      <trkpt lat="41.924667" lon="0.793091">
        <ele>468.097</ele>
        <time>2015-12-19T15:24:17Z</time>
      </trkpt>
      <trkpt lat="41.924704" lon="0.792970">
        <ele>470.051</ele>
        <time>2015-12-19T15:24:21Z</time>
      </trkpt>
      <trkpt lat="41.924744" lon="0.792858">
        <ele>471.099</ele>
        <time>2015-12-19T15:24:25Z</time>
      </trkpt>
      <trkpt lat="41.924784" lon="0.792722">
        <ele>470.075</ele>
        <time>2015-12-19T15:24:30Z</time>
      </trkpt>
      <trkpt lat="41.924810" lon="0.792578">
        <ele>470.015</ele>
        <time>2015-12-19T15:24:35Z</time>
      </trkpt>
      <trkpt lat="41.924824" lon="0.792459">
        <ele>471.011</ele>
        <time>2015-12-19T15:24:39Z</time>
      </trkpt>
      <trkpt lat="41.924832" lon="0.792337">
        <ele>470.021</ele>
        <time>2015-12-19T15:24:43Z</time>
      </trkpt>
      <trkpt lat="41.924827" lon="0.792196">
        <ele>472.003</ele>
        <time>2015-12-19T15:24:49Z</time>
      </trkpt>
      <trkpt lat="41.924808" lon="0.792045">
        <ele>473.008</ele>
        <time>2015-12-19T15:24:54Z</time>
      </trkpt>
      <trkpt lat="41.924785" lon="0.791898">
        <ele>475.062</ele>
        <time>2015-12-19T15:24:59Z</time>
      </trkpt>
      <trkpt lat="41.924760" lon="0.791779">
        <ele>477.012</ele>
        <time>2015-12-19T15:25:04Z</time>
      </trkpt>
      <trkpt lat="41.924711" lon="0.791664">
        <ele>476.018</ele>
        <time>2015-12-19T15:25:08Z</time>
      </trkpt>
      <trkpt lat="41.924657" lon="0.791560">
        <ele>478.082</ele>
        <time>2015-12-19T15:25:12Z</time>
      </trkpt>
      <trkpt lat="41.924593" lon="0.791458">
        <ele>478.016</ele>
        <time>2015-12-19T15:25:16Z</time>
      </trkpt>
      <trkpt lat="41.924529" lon="0.791359">
        <ele>478.074</ele>
        <time>2015-12-19T15:25:20Z</time>
      </trkpt>
      <trkpt lat="41.924459" lon="0.791270">
        <ele>478.030</ele>
        <time>2015-12-19T15:25:24Z</time>
      </trkpt>
      <trkpt lat="41.924381" lon="0.791165">
        <ele>478.060</ele>
        <time>2015-12-19T15:25:29Z</time>
      </trkpt>
      <trkpt lat="41.924302" lon="0.791068">
        <ele>479.094</ele>
        <time>2015-12-19T15:25:34Z</time>
      </trkpt>
      <trkpt lat="41.924220" lon="0.790981">
        <ele>477.057</ele>
        <time>2015-12-19T15:25:39Z</time>
      </trkpt>
      <trkpt lat="41.924132" lon="0.790897">
        <ele>480.022</ele>
        <time>2015-12-19T15:25:44Z</time>
      </trkpt>
      <trkpt lat="41.924039" lon="0.790824">
        <ele>481.008</ele>
        <time>2015-12-19T15:25:49Z</time>
      </trkpt>
      <trkpt lat="41.923963" lon="0.790758">
        <ele>481.090</ele>
        <time>2015-12-19T15:25:53Z</time>
      </trkpt>
      <trkpt lat="41.923871" lon="0.790671">
        <ele>479.080</ele>
        <time>2015-12-19T15:25:58Z</time>
      </trkpt>
      <trkpt lat="41.923801" lon="0.790582">
        <ele>479.046</ele>
        <time>2015-12-19T15:26:02Z</time>
      </trkpt>
      <trkpt lat="41.923737" lon="0.790483">
        <ele>478.040</ele>
        <time>2015-12-19T15:26:06Z</time>
      </trkpt>
      <trkpt lat="41.923666" lon="0.790374">
        <ele>478.044</ele>
        <time>2015-12-19T15:26:10Z</time>
      </trkpt>
      <trkpt lat="41.923613" lon="0.790257">
        <ele>480.012</ele>
        <time>2015-12-19T15:26:15Z</time>
      </trkpt>
      <trkpt lat="41.923570" lon="0.790123">
        <ele>479.038</ele>
        <time>2015-12-19T15:26:21Z</time>
      </trkpt>
      <trkpt lat="41.923521" lon="0.790004">
        <ele>477.098</ele>
        <time>2015-12-19T15:26:26Z</time>
      </trkpt>
      <trkpt lat="41.923464" lon="0.789881">
        <ele>476.049</ele>
        <time>2015-12-19T15:26:31Z</time>
      </trkpt>
      <trkpt lat="41.923410" lon="0.789749">
        <ele>476.002</ele>
        <time>2015-12-19T15:26:36Z</time>
      </trkpt>
      <trkpt lat="41.923363" lon="0.789615">
        <ele>478.022</ele>
        <time>2015-12-19T15:26:41Z</time>
      </trkpt>
      <trkpt lat="41.923344" lon="0.789477">
        <ele>481.008</ele>
        <time>2015-12-19T15:26:46Z</time>
      </trkpt>
      <trkpt lat="41.923316" lon="0.789361">
        <ele>482.095</ele>
        <time>2015-12-19T15:26:50Z</time>
      </trkpt>
      <trkpt lat="41.923272" lon="0.789249">
        <ele>482.015</ele>
        <time>2015-12-19T15:26:54Z</time>
      </trkpt>
      <trkpt lat="41.923217" lon="0.789132">
        <ele>482.061</ele>
        <time>2015-12-19T15:26:58Z</time>
      </trkpt>
      <trkpt lat="41.923166" lon="0.789020">
        <ele>484.045</ele>
        <time>2015-12-19T15:27:03Z</time>
      </trkpt>
      <trkpt lat="41.923121" lon="0.788903">
        <ele>485.069</ele>
        <time>2015-12-19T15:27:09Z</time>
      </trkpt>
      <trkpt lat="41.923062" lon="0.788785">
        <ele>483.027</ele>
        <time>2015-12-19T15:27:14Z</time>
      </trkpt>
      <trkpt lat="41.922995" lon="0.788682">
        <ele>483.083</ele>
        <time>2015-12-19T15:27:19Z</time>
      </trkpt>
      <trkpt lat="41.922917" lon="0.788600">
        <ele>483.023</ele>
        <time>2015-12-19T15:27:24Z</time>
      </trkpt>
      <trkpt lat="41.922832" lon="0.788541">
        <ele>486.068</ele>
        <time>2015-12-19T15:27:29Z</time>
      </trkpt>
      <trkpt lat="41.922741" lon="0.788488">
        <ele>486.042</ele>
        <time>2015-12-19T15:27:34Z</time>
      </trkpt>
      <trkpt lat="41.922668" lon="0.788411">
        <ele>484.026</ele>
        <time>2015-12-19T15:27:39Z</time>
      </trkpt>
      <trkpt lat="41.922615" lon="0.788290">
        <ele>483.008</ele>
        <time>2015-12-19T15:27:44Z</time>
      </trkpt>
      <trkpt lat="41.922591" lon="0.788153">
        <ele>483.017</ele>
        <time>2015-12-19T15:27:49Z</time>
      </trkpt>
      <trkpt lat="41.922578" lon="0.788014">
        <ele>484.067</ele>
        <time>2015-12-19T15:27:54Z</time>
      </trkpt>
      <trkpt lat="41.922581" lon="0.787890">
        <ele>485.023</ele>
        <time>2015-12-19T15:27:58Z</time>
      </trkpt>
      <trkpt lat="41.922566" lon="0.787744">
        <ele>487.017</ele>
        <time>2015-12-19T15:28:02Z</time>
      </trkpt>
      <trkpt lat="41.922527" lon="0.787610">
        <ele>487.011</ele>
        <time>2015-12-19T15:28:08Z</time>
      </trkpt>
      <trkpt lat="41.922505" lon="0.787471">
        <ele>489.019</ele>
        <time>2015-12-19T15:28:13Z</time>
      </trkpt>
      <trkpt lat="41.922480" lon="0.787334">
        <ele>488.065</ele>
        <time>2015-12-19T15:28:18Z</time>
      </trkpt>
      <trkpt lat="41.922475" lon="0.787212">
        <ele>488.095</ele>
        <time>2015-12-19T15:28:22Z</time>
      </trkpt>
      <trkpt lat="41.922476" lon="0.787089">
        <ele>489.042</ele>
        <time>2015-12-19T15:28:26Z</time>
      </trkpt>
      <trkpt lat="41.922476" lon="0.786965">
        <ele>489.022</ele>
        <time>2015-12-19T15:28:30Z</time>
      </trkpt>
      <trkpt lat="41.922455" lon="0.786820">
        <ele>488.014</ele>
        <time>2015-12-19T15:28:35Z</time>
      </trkpt>
      <trkpt lat="41.922428" lon="0.786695">
        <ele>488.008</ele>
        <time>2015-12-19T15:28:39Z</time>
      </trkpt>
      <trkpt lat="41.922406" lon="0.786573">
        <ele>489.055</ele>
        <time>2015-12-19T15:28:43Z</time>
      </trkpt>
      <trkpt lat="41.922387" lon="0.786450">
        <ele>490.025</ele>
        <time>2015-12-19T15:28:47Z</time>
      </trkpt>
      <trkpt lat="41.922367" lon="0.786311">
        <ele>491.081</ele>
        <time>2015-12-19T15:28:52Z</time>
      </trkpt>
      <trkpt lat="41.922338" lon="0.786179">
        <ele>491.085</ele>
        <time>2015-12-19T15:28:57Z</time>
      </trkpt>
      <trkpt lat="41.922312" lon="0.786044">
        <ele>491.059</ele>
        <time>2015-12-19T15:29:02Z</time>
      </trkpt>
      <trkpt lat="41.922290" lon="0.785905">
        <ele>491.087</ele>
        <time>2015-12-19T15:29:07Z</time>
      </trkpt>
      <trkpt lat="41.922280" lon="0.785725">
        <ele>493.043</ele>
        <time>2015-12-19T15:29:12Z</time>
      </trkpt>
      <trkpt lat="41.922274" lon="0.785583">
        <ele>492.043</ele>
        <time>2015-12-19T15:29:16Z</time>
      </trkpt>
      <trkpt lat="41.922240" lon="0.785436">
        <ele>492.045</ele>
        <time>2015-12-19T15:29:21Z</time>
      </trkpt>
      <trkpt lat="41.922199" lon="0.785305">
        <ele>492.047</ele>
        <time>2015-12-19T15:29:25Z</time>
      </trkpt>
      <trkpt lat="41.922180" lon="0.785161">
        <ele>493.011</ele>
        <time>2015-12-19T15:29:29Z</time>
      </trkpt>
      <trkpt lat="41.922155" lon="0.785031">
        <ele>493.008</ele>
        <time>2015-12-19T15:29:33Z</time>
      </trkpt>
      <trkpt lat="41.922127" lon="0.784901">
        <ele>493.095</ele>
        <time>2015-12-19T15:29:37Z</time>
      </trkpt>
      <trkpt lat="41.922134" lon="0.784774">
        <ele>494.045</ele>
        <time>2015-12-19T15:29:41Z</time>
      </trkpt>
      <trkpt lat="41.922146" lon="0.784645">
        <ele>495.011</ele>
        <time>2015-12-19T15:29:45Z</time>
      </trkpt>
      <trkpt lat="41.922162" lon="0.784523">
        <ele>495.075</ele>
        <time>2015-12-19T15:29:49Z</time>
      </trkpt>
      <trkpt lat="41.922185" lon="0.784394">
        <ele>493.069</ele>
        <time>2015-12-19T15:29:53Z</time>
      </trkpt>
      <trkpt lat="41.922216" lon="0.784271">
        <ele>492.087</ele>
        <time>2015-12-19T15:29:57Z</time>
      </trkpt>
      <trkpt lat="41.922256" lon="0.784153">
        <ele>493.073</ele>
        <time>2015-12-19T15:30:01Z</time>
      </trkpt>
      <trkpt lat="41.922289" lon="0.784026">
        <ele>494.043</ele>
        <time>2015-12-19T15:30:06Z</time>
      </trkpt>
      <trkpt lat="41.922309" lon="0.783888">
        <ele>494.031</ele>
        <time>2015-12-19T15:30:11Z</time>
      </trkpt>
      <trkpt lat="41.922313" lon="0.783766">
        <ele>497.061</ele>
        <time>2015-12-19T15:30:17Z</time>
      </trkpt>
      <trkpt lat="41.922319" lon="0.783644">
        <ele>497.007</ele>
        <time>2015-12-19T15:30:25Z</time>
      </trkpt>
      <trkpt lat="41.922370" lon="0.783527">
        <ele>499.008</ele>
        <time>2015-12-19T15:30:30Z</time>
      </trkpt>
      <trkpt lat="41.922396" lon="0.783403">
        <ele>499.034</ele>
        <time>2015-12-19T15:30:34Z</time>
      </trkpt>
      <trkpt lat="41.922416" lon="0.783285">
        <ele>500.044</ele>
        <time>2015-12-19T15:30:39Z</time>
      </trkpt>
      <trkpt lat="41.922478" lon="0.783190">
        <ele>501.070</ele>
        <time>2015-12-19T15:30:44Z</time>
      </trkpt>
      <trkpt lat="41.922527" lon="0.783069">
        <ele>501.084</ele>
        <time>2015-12-19T15:30:50Z</time>
      </trkpt>
      <trkpt lat="41.922560" lon="0.782931">
        <ele>502.078</ele>
        <time>2015-12-19T15:30:55Z</time>
      </trkpt>
      <trkpt lat="41.922602" lon="0.782800">
        <ele>502.066</ele>
        <time>2015-12-19T15:31:00Z</time>
      </trkpt>
      <trkpt lat="41.922635" lon="0.782681">
        <ele>500.072</ele>
        <time>2015-12-19T15:31:04Z</time>
      </trkpt>
      <trkpt lat="41.922669" lon="0.782549">
        <ele>500.012</ele>
        <time>2015-12-19T15:31:08Z</time>
      </trkpt>
      <trkpt lat="41.922701" lon="0.782428">
        <ele>500.069</ele>
        <time>2015-12-19T15:31:12Z</time>
      </trkpt>
      <trkpt lat="41.922733" lon="0.782301">
        <ele>501.004</ele>
        <time>2015-12-19T15:31:16Z</time>
      </trkpt>
      <trkpt lat="41.922756" lon="0.782176">
        <ele>500.024</ele>
        <time>2015-12-19T15:31:20Z</time>
      </trkpt>
      <trkpt lat="41.922774" lon="0.782055">
        <ele>503.008</ele>
        <time>2015-12-19T15:31:24Z</time>
      </trkpt>
      <trkpt lat="41.922784" lon="0.781911">
        <ele>504.087</ele>
        <time>2015-12-19T15:31:29Z</time>
      </trkpt>
      <trkpt lat="41.922780" lon="0.781765">
        <ele>503.047</ele>
        <time>2015-12-19T15:31:34Z</time>
      </trkpt>
      <trkpt lat="41.922768" lon="0.781641">
        <ele>501.023</ele>
        <time>2015-12-19T15:31:38Z</time>
      </trkpt>
      <trkpt lat="41.922747" lon="0.781516">
        <ele>501.027</ele>
        <time>2015-12-19T15:31:42Z</time>
      </trkpt>
      <trkpt lat="41.922718" lon="0.781395">
        <ele>501.031</ele>
        <time>2015-12-19T15:31:46Z</time>
      </trkpt>
      <trkpt lat="41.922677" lon="0.781280">
        <ele>501.059</ele>
        <time>2015-12-19T15:31:50Z</time>
      </trkpt>
      <trkpt lat="41.922626" lon="0.781173">
        <ele>502.095</ele>
        <time>2015-12-19T15:31:53Z</time>
      </trkpt>
      <trkpt lat="41.922572" lon="0.781064">
        <ele>501.025</ele>
        <time>2015-12-19T15:31:57Z</time>
      </trkpt>
      <trkpt lat="41.922509" lon="0.780972">
        <ele>501.024</ele>
        <time>2015-12-19T15:32:01Z</time>
      </trkpt>
      <trkpt lat="41.922442" lon="0.780880">
        <ele>501.004</ele>
        <time>2015-12-19T15:32:05Z</time>
      </trkpt>
      <trkpt lat="41.922362" lon="0.780778">
        <ele>500.014</ele>
        <time>2015-12-19T15:32:10Z</time>
      </trkpt>
      <trkpt lat="41.922290" lon="0.780697">
        <ele>501.008</ele>
        <time>2015-12-19T15:32:15Z</time>
      </trkpt>
      <trkpt lat="41.922217" lon="0.780619">
        <ele>501.013</ele>
        <time>2015-12-19T15:32:19Z</time>
      </trkpt>
      <trkpt lat="41.922144" lon="0.780532">
        <ele>501.043</ele>
        <time>2015-12-19T15:32:23Z</time>
      </trkpt>
      <trkpt lat="41.922070" lon="0.780454">
        <ele>500.069</ele>
        <time>2015-12-19T15:32:27Z</time>
      </trkpt>
      <trkpt lat="41.921997" lon="0.780370">
        <ele>501.063</ele>
        <time>2015-12-19T15:32:31Z</time>
      </trkpt>
      <trkpt lat="41.921928" lon="0.780282">
        <ele>502.037</ele>
        <time>2015-12-19T15:32:35Z</time>
      </trkpt>
      <trkpt lat="41.921854" lon="0.780198">
        <ele>502.025</ele>
        <time>2015-12-19T15:32:39Z</time>
      </trkpt>
      <trkpt lat="41.921784" lon="0.780115">
        <ele>503.041</ele>
        <time>2015-12-19T15:32:43Z</time>
      </trkpt>
      <trkpt lat="41.921711" lon="0.780030">
        <ele>502.041</ele>
        <time>2015-12-19T15:32:47Z</time>
      </trkpt>
      <trkpt lat="41.921645" lon="0.779946">
        <ele>502.099</ele>
        <time>2015-12-19T15:32:51Z</time>
      </trkpt>
      <trkpt lat="41.921577" lon="0.779860">
        <ele>503.007</ele>
        <time>2015-12-19T15:32:55Z</time>
      </trkpt>
      <trkpt lat="41.921498" lon="0.779750">
        <ele>504.027</ele>
        <time>2015-12-19T15:33:00Z</time>
      </trkpt>
      <trkpt lat="41.921421" lon="0.779642">
        <ele>505.008</ele>
        <time>2015-12-19T15:33:05Z</time>
      </trkpt>
      <trkpt lat="41.921361" lon="0.779552">
        <ele>506.030</ele>
        <time>2015-12-19T15:33:09Z</time>
      </trkpt>
      <trkpt lat="41.921301" lon="0.779454">
        <ele>506.040</ele>
        <time>2015-12-19T15:33:13Z</time>
      </trkpt>
      <trkpt lat="41.921238" lon="0.779361">
        <ele>507.036</ele>
        <time>2015-12-19T15:33:17Z</time>
      </trkpt>
      <trkpt lat="41.921175" lon="0.779262">
        <ele>509.060</ele>
        <time>2015-12-19T15:33:20Z</time>
      </trkpt>
      <trkpt lat="41.921109" lon="0.779176">
        <ele>511.024</ele>
        <time>2015-12-19T15:33:24Z</time>
      </trkpt>
      <trkpt lat="41.921042" lon="0.779063">
        <ele>512.082</ele>
        <time>2015-12-19T15:33:29Z</time>
      </trkpt>
      <trkpt lat="41.920990" lon="0.778936">
        <ele>513.088</ele>
        <time>2015-12-19T15:33:34Z</time>
      </trkpt>
      <trkpt lat="41.920941" lon="0.778810">
        <ele>514.078</ele>
        <time>2015-12-19T15:33:40Z</time>
      </trkpt>
      <trkpt lat="41.920888" lon="0.778690">
        <ele>514.077</ele>
        <time>2015-12-19T15:33:45Z</time>
      </trkpt>
      <trkpt lat="41.920838" lon="0.778567">
        <ele>514.061</ele>
        <time>2015-12-19T15:33:50Z</time>
      </trkpt>
      <trkpt lat="41.920786" lon="0.778445">
        <ele>514.027</ele>
        <time>2015-12-19T15:33:55Z</time>
      </trkpt>
      <trkpt lat="41.920729" lon="0.778320">
        <ele>515.008</ele>
        <time>2015-12-19T15:34:00Z</time>
      </trkpt>
      <trkpt lat="41.920674" lon="0.778194">
        <ele>516.068</ele>
        <time>2015-12-19T15:34:05Z</time>
      </trkpt>
      <trkpt lat="41.920620" lon="0.778067">
        <ele>516.098</ele>
        <time>2015-12-19T15:34:10Z</time>
      </trkpt>
      <trkpt lat="41.920566" lon="0.777937">
        <ele>517.044</ele>
        <time>2015-12-19T15:34:15Z</time>
      </trkpt>
      <trkpt lat="41.920510" lon="0.777811">
        <ele>518.028</ele>
        <time>2015-12-19T15:34:20Z</time>
      </trkpt>
      <trkpt lat="41.920457" lon="0.777689">
        <ele>519.092</ele>
        <time>2015-12-19T15:34:25Z</time>
      </trkpt>
      <trkpt lat="41.920399" lon="0.777566">
        <ele>519.080</ele>
        <time>2015-12-19T15:34:30Z</time>
      </trkpt>
      <trkpt lat="41.920330" lon="0.777450">
        <ele>520.016</ele>
        <time>2015-12-19T15:34:35Z</time>
      </trkpt>
      <trkpt lat="41.920270" lon="0.777353">
        <ele>520.086</ele>
        <time>2015-12-19T15:34:39Z</time>
      </trkpt>
      <trkpt lat="41.920210" lon="0.777256">
        <ele>521.044</ele>
        <time>2015-12-19T15:34:43Z</time>
      </trkpt>
      <trkpt lat="41.920145" lon="0.777157">
        <ele>522.005</ele>
        <time>2015-12-19T15:34:46Z</time>
      </trkpt>
      <trkpt lat="41.920085" lon="0.777058">
        <ele>521.015</ele>
        <time>2015-12-19T15:34:50Z</time>
      </trkpt>
      <trkpt lat="41.920026" lon="0.776956">
        <ele>521.008</ele>
        <time>2015-12-19T15:34:54Z</time>
      </trkpt>
      <trkpt lat="41.919971" lon="0.776853">
        <ele>522.075</ele>
        <time>2015-12-19T15:34:58Z</time>
      </trkpt>
      <trkpt lat="41.919909" lon="0.776752">
        <ele>523.065</ele>
        <time>2015-12-19T15:35:03Z</time>
      </trkpt>
      <trkpt lat="41.919852" lon="0.776648">
        <ele>524.071</ele>
        <time>2015-12-19T15:35:07Z</time>
      </trkpt>
      <trkpt lat="41.919793" lon="0.776547">
        <ele>524.035</ele>
        <time>2015-12-19T15:35:11Z</time>
      </trkpt>
      <trkpt lat="41.919733" lon="0.776450">
        <ele>524.019</ele>
        <time>2015-12-19T15:35:15Z</time>
      </trkpt>
      <trkpt lat="41.919664" lon="0.776350">
        <ele>524.037</ele>
        <time>2015-12-19T15:35:19Z</time>
      </trkpt>
      <trkpt lat="41.919591" lon="0.776251">
        <ele>525.023</ele>
        <time>2015-12-19T15:35:23Z</time>
      </trkpt>
      <trkpt lat="41.919503" lon="0.776158">
        <ele>525.093</ele>
        <time>2015-12-19T15:35:27Z</time>
      </trkpt>
      <trkpt lat="41.919412" lon="0.776070">
        <ele>526.089</ele>
        <time>2015-12-19T15:35:31Z</time>
      </trkpt>
      <trkpt lat="41.919316" lon="0.775978">
        <ele>526.006</ele>
        <time>2015-12-19T15:35:35Z</time>
      </trkpt>
      <trkpt lat="41.919222" lon="0.775900">
        <ele>525.026</ele>
        <time>2015-12-19T15:35:39Z</time>
      </trkpt>
      <trkpt lat="41.919120" lon="0.775824">
        <ele>524.008</ele>
        <time>2015-12-19T15:35:43Z</time>
      </trkpt>
      <trkpt lat="41.919017" lon="0.775758">
        <ele>525.059</ele>
        <time>2015-12-19T15:35:47Z</time>
      </trkpt>
      <trkpt lat="41.918934" lon="0.775711">
        <ele>525.059</ele>
        <time>2015-12-19T15:35:50Z</time>
      </trkpt>
      <trkpt lat="41.918829" lon="0.775661">
        <ele>526.075</ele>
        <time>2015-12-19T15:35:54Z</time>
      </trkpt>
      <trkpt lat="41.918723" lon="0.775617">
        <ele>526.089</ele>
        <time>2015-12-19T15:35:58Z</time>
      </trkpt>
      <trkpt lat="41.918625" lon="0.775567">
        <ele>526.083</ele>
        <time>2015-12-19T15:36:02Z</time>
      </trkpt>
      <trkpt lat="41.918504" lon="0.775510">
        <ele>524.051</ele>
        <time>2015-12-19T15:36:06Z</time>
      </trkpt>
      <trkpt lat="41.918405" lon="0.775463">
        <ele>525.037</ele>
        <time>2015-12-19T15:36:10Z</time>
      </trkpt>
      <trkpt lat="41.918307" lon="0.775409">
        <ele>527.077</ele>
        <time>2015-12-19T15:36:14Z</time>
      </trkpt>
      <trkpt lat="41.918214" lon="0.775371">
        <ele>527.062</ele>
        <time>2015-12-19T15:36:18Z</time>
      </trkpt>
      <trkpt lat="41.918114" lon="0.775332">
        <ele>528.083</ele>
        <time>2015-12-19T15:36:23Z</time>
      </trkpt>
      <trkpt lat="41.918020" lon="0.775284">
        <ele>528.011</ele>
        <time>2015-12-19T15:36:27Z</time>
      </trkpt>
      <trkpt lat="41.917928" lon="0.775227">
        <ele>530.008</ele>
        <time>2015-12-19T15:36:31Z</time>
      </trkpt>
      <trkpt lat="41.917830" lon="0.775160">
        <ele>530.087</ele>
        <time>2015-12-19T15:36:36Z</time>
      </trkpt>
      <trkpt lat="41.917744" lon="0.775084">
        <ele>529.017</ele>
        <time>2015-12-19T15:36:41Z</time>
      </trkpt>
      <trkpt lat="41.917661" lon="0.775011">
        <ele>531.073</ele>
        <time>2015-12-19T15:36:46Z</time>
      </trkpt>
      <trkpt lat="41.917581" lon="0.774940">
        <ele>530.027</ele>
        <time>2015-12-19T15:36:51Z</time>
      </trkpt>
      <trkpt lat="41.917492" lon="0.774870">
        <ele>531.051</ele>
        <time>2015-12-19T15:36:56Z</time>
      </trkpt>
      <trkpt lat="41.917401" lon="0.774791">
        <ele>532.019</ele>
        <time>2015-12-19T15:37:01Z</time>
      </trkpt>
      <trkpt lat="41.917310" lon="0.774708">
        <ele>534.075</ele>
        <time>2015-12-19T15:37:06Z</time>
      </trkpt>
      <trkpt lat="41.917233" lon="0.774644">
        <ele>533.035</ele>
        <time>2015-12-19T15:37:10Z</time>
      </trkpt>
      <trkpt lat="41.917136" lon="0.774569">
        <ele>532.019</ele>
        <time>2015-12-19T15:37:15Z</time>
      </trkpt>
      <trkpt lat="41.917047" lon="0.774495">
        <ele>533.009</ele>
        <time>2015-12-19T15:37:20Z</time>
      </trkpt>
      <trkpt lat="41.916964" lon="0.774422">
        <ele>533.019</ele>
        <time>2015-12-19T15:37:25Z</time>
      </trkpt>
      <trkpt lat="41.916879" lon="0.774338">
        <ele>535.008</ele>
        <time>2015-12-19T15:37:30Z</time>
      </trkpt>
      <trkpt lat="41.916791" lon="0.774257">
        <ele>536.032</ele>
        <time>2015-12-19T15:37:34Z</time>
      </trkpt>
      <trkpt lat="41.916705" lon="0.774182">
        <ele>537.012</ele>
        <time>2015-12-19T15:37:39Z</time>
      </trkpt>
      <trkpt lat="41.916625" lon="0.774112">
        <ele>538.078</ele>
        <time>2015-12-19T15:37:44Z</time>
      </trkpt>
      <trkpt lat="41.916545" lon="0.774041">
        <ele>540.062</ele>
        <time>2015-12-19T15:37:49Z</time>
      </trkpt>
      <trkpt lat="41.916468" lon="0.773958">
        <ele>540.086</ele>
        <time>2015-12-19T15:37:55Z</time>
      </trkpt>
      <trkpt lat="41.916387" lon="0.773875">
        <ele>541.074</ele>
        <time>2015-12-19T15:38:00Z</time>
      </trkpt>
      <trkpt lat="41.916322" lon="0.773769">
        <ele>542.040</ele>
        <time>2015-12-19T15:38:05Z</time>
      </trkpt>
      <trkpt lat="41.916266" lon="0.773648">
        <ele>543.020</ele>
        <time>2015-12-19T15:38:10Z</time>
      </trkpt>
      <trkpt lat="41.916208" lon="0.773526">
        <ele>543.026</ele>
        <time>2015-12-19T15:38:15Z</time>
      </trkpt>
      <trkpt lat="41.916117" lon="0.773390">
        <ele>543.047</ele>
        <time>2015-12-19T15:38:21Z</time>
      </trkpt>
      <trkpt lat="41.916032" lon="0.773338">
        <ele>543.011</ele>
        <time>2015-12-19T15:38:25Z</time>
      </trkpt>
      <trkpt lat="41.915936" lon="0.773321">
        <ele>542.008</ele>
        <time>2015-12-19T15:38:29Z</time>
      </trkpt>
      <trkpt lat="41.915831" lon="0.773325">
        <ele>542.063</ele>
        <time>2015-12-19T15:38:33Z</time>
      </trkpt>
      <trkpt lat="41.915718" lon="0.773331">
        <ele>543.043</ele>
        <time>2015-12-19T15:38:37Z</time>
      </trkpt>
      <trkpt lat="41.915600" lon="0.773336">
        <ele>543.049</ele>
        <time>2015-12-19T15:38:41Z</time>
      </trkpt>
      <trkpt lat="41.915485" lon="0.773340">
        <ele>543.063</ele>
        <time>2015-12-19T15:38:45Z</time>
      </trkpt>
      <trkpt lat="41.915365" lon="0.773346">
        <ele>543.017</ele>
        <time>2015-12-19T15:38:49Z</time>
      </trkpt>
      <trkpt lat="41.915275" lon="0.773351">
        <ele>543.055</ele>
        <time>2015-12-19T15:38:52Z</time>
      </trkpt>
      <trkpt lat="41.915183" lon="0.773372">
        <ele>543.021</ele>
        <time>2015-12-19T15:38:55Z</time>
      </trkpt>
      <trkpt lat="41.915097" lon="0.773414">
        <ele>544.021</ele>
        <time>2015-12-19T15:38:58Z</time>
      </trkpt>
      <trkpt lat="41.915002" lon="0.773515">
        <ele>543.075</ele>
        <time>2015-12-19T15:39:02Z</time>
      </trkpt>
      <trkpt lat="41.914949" lon="0.773640">
        <ele>545.028</ele>
        <time>2015-12-19T15:39:05Z</time>
      </trkpt>
      <trkpt lat="41.914903" lon="0.773765">
        <ele>545.020</ele>
        <time>2015-12-19T15:39:09Z</time>
      </trkpt>
      <trkpt lat="41.914862" lon="0.773887">
        <ele>545.008</ele>
        <time>2015-12-19T15:39:13Z</time>
      </trkpt>
      <trkpt lat="41.914823" lon="0.774012">
        <ele>545.078</ele>
        <time>2015-12-19T15:39:17Z</time>
      </trkpt>
      <trkpt lat="41.914789" lon="0.774134">
        <ele>547.058</ele>
        <time>2015-12-19T15:39:21Z</time>
      </trkpt>
      <trkpt lat="41.914750" lon="0.774254">
        <ele>545.064</ele>
        <time>2015-12-19T15:39:26Z</time>
      </trkpt>
      <trkpt lat="41.914697" lon="0.774377">
        <ele>546.048</ele>
        <time>2015-12-19T15:39:31Z</time>
      </trkpt>
      <trkpt lat="41.914629" lon="0.774486">
        <ele>549.072</ele>
        <time>2015-12-19T15:39:36Z</time>
      </trkpt>
      <trkpt lat="41.914558" lon="0.774585">
        <ele>551.080</ele>
        <time>2015-12-19T15:39:41Z</time>
      </trkpt>
      <trkpt lat="41.914483" lon="0.774680">
        <ele>552.026</ele>
        <time>2015-12-19T15:39:46Z</time>
      </trkpt>
      <trkpt lat="41.914412" lon="0.774787">
        <ele>552.016</ele>
        <time>2015-12-19T15:39:51Z</time>
      </trkpt>
      <trkpt lat="41.914358" lon="0.774903">
        <ele>555.093</ele>
        <time>2015-12-19T15:39:56Z</time>
      </trkpt>
      <trkpt lat="41.914327" lon="0.775052">
        <ele>556.065</ele>
        <time>2015-12-19T15:40:02Z</time>
      </trkpt>
      <trkpt lat="41.914302" lon="0.775181">
        <ele>557.021</ele>
        <time>2015-12-19T15:40:07Z</time>
      </trkpt>
      <trkpt lat="41.914281" lon="0.775306">
        <ele>557.008</ele>
        <time>2015-12-19T15:40:12Z</time>
      </trkpt>
      <trkpt lat="41.914215" lon="0.775415">
        <ele>559.050</ele>
        <time>2015-12-19T15:40:18Z</time>
      </trkpt>
      <trkpt lat="41.914120" lon="0.775477">
        <ele>557.050</ele>
        <time>2015-12-19T15:40:23Z</time>
      </trkpt>
      <trkpt lat="41.914028" lon="0.775498">
        <ele>557.066</ele>
        <time>2015-12-19T15:40:28Z</time>
      </trkpt>
      <trkpt lat="41.913936" lon="0.775521">
        <ele>558.070</ele>
        <time>2015-12-19T15:40:33Z</time>
      </trkpt>
      <trkpt lat="41.913838" lon="0.775531">
        <ele>559.094</ele>
        <time>2015-12-19T15:40:38Z</time>
      </trkpt>
      <trkpt lat="41.913742" lon="0.775514">
        <ele>560.052</ele>
        <time>2015-12-19T15:40:44Z</time>
      </trkpt>
      <trkpt lat="41.913635" lon="0.775492">
        <ele>559.038</ele>
        <time>2015-12-19T15:40:49Z</time>
      </trkpt>
      <trkpt lat="41.913542" lon="0.775416">
        <ele>557.088</ele>
        <time>2015-12-19T15:40:54Z</time>
      </trkpt>
      <trkpt lat="41.913494" lon="0.775290">
        <ele>559.011</ele>
        <time>2015-12-19T15:40:59Z</time>
      </trkpt>
      <trkpt lat="41.913478" lon="0.775148">
        <ele>559.021</ele>
        <time>2015-12-19T15:41:04Z</time>
      </trkpt>
      <trkpt lat="41.913471" lon="0.775025">
        <ele>559.003</ele>
        <time>2015-12-19T15:41:08Z</time>
      </trkpt>
      <trkpt lat="41.913475" lon="0.774903">
        <ele>559.008</ele>
        <time>2015-12-19T15:41:12Z</time>
      </trkpt>
      <trkpt lat="41.913486" lon="0.774773">
        <ele>559.062</ele>
        <time>2015-12-19T15:41:16Z</time>
      </trkpt>
      <trkpt lat="41.913506" lon="0.774651">
        <ele>560.022</ele>
        <time>2015-12-19T15:41:20Z</time>
      </trkpt>
      <trkpt lat="41.913529" lon="0.774530">
        <ele>560.038</ele>
        <time>2015-12-19T15:41:24Z</time>
      </trkpt>
      <trkpt lat="41.913552" lon="0.774388">
        <ele>560.092</ele>
        <time>2015-12-19T15:41:29Z</time>
      </trkpt>
      <trkpt lat="41.913548" lon="0.774236">
        <ele>564.066</ele>
        <time>2015-12-19T15:44:10Z</time>
      </trkpt>
      <trkpt lat="41.913543" lon="0.774107">
        <ele>564.014</ele>
        <time>2015-12-19T15:44:14Z</time>
      </trkpt>
      <trkpt lat="41.913537" lon="0.773973">
        <ele>564.020</ele>
        <time>2015-12-19T15:44:18Z</time>
      </trkpt>
      <trkpt lat="41.913525" lon="0.773816">
        <ele>564.060</ele>
        <time>2015-12-19T15:44:22Z</time>
      </trkpt>
      <trkpt lat="41.913518" lon="0.773693">
        <ele>563.092</ele>
        <time>2015-12-19T15:44:25Z</time>
      </trkpt>
      <trkpt lat="41.913510" lon="0.773533">
        <ele>564.073</ele>
        <time>2015-12-19T15:44:29Z</time>
      </trkpt>
      <trkpt lat="41.913500" lon="0.773383">
        <ele>565.020</ele>
        <time>2015-12-19T15:44:34Z</time>
      </trkpt>
      <trkpt lat="41.913489" lon="0.773229">
        <ele>565.008</ele>
        <time>2015-12-19T15:44:38Z</time>
      </trkpt>
      <trkpt lat="41.913472" lon="0.773081">
        <ele>565.060</ele>
        <time>2015-12-19T15:44:42Z</time>
      </trkpt>
      <trkpt lat="41.913459" lon="0.772924">
        <ele>565.010</ele>
        <time>2015-12-19T15:44:46Z</time>
      </trkpt>
      <trkpt lat="41.913445" lon="0.772775">
        <ele>565.036</ele>
        <time>2015-12-19T15:44:50Z</time>
      </trkpt>
      <trkpt lat="41.913436" lon="0.772627">
        <ele>565.060</ele>
        <time>2015-12-19T15:44:54Z</time>
      </trkpt>
      <trkpt lat="41.913425" lon="0.772488">
        <ele>565.064</ele>
        <time>2015-12-19T15:44:58Z</time>
      </trkpt>
      <trkpt lat="41.913406" lon="0.772351">
        <ele>565.082</ele>
        <time>2015-12-19T15:45:02Z</time>
      </trkpt>
      <trkpt lat="41.913401" lon="0.772216">
        <ele>566.078</ele>
        <time>2015-12-19T15:45:06Z</time>
      </trkpt>
      <trkpt lat="41.913393" lon="0.772075">
        <ele>567.088</ele>
        <time>2015-12-19T15:45:10Z</time>
      </trkpt>
      <trkpt lat="41.913369" lon="0.771947">
        <ele>568.056</ele>
        <time>2015-12-19T15:45:14Z</time>
      </trkpt>
      <trkpt lat="41.913326" lon="0.771825">
        <ele>568.059</ele>
        <time>2015-12-19T15:45:18Z</time>
      </trkpt>
      <trkpt lat="41.913272" lon="0.771713">
        <ele>569.014</ele>
        <time>2015-12-19T15:45:22Z</time>
      </trkpt>
      <trkpt lat="41.913203" lon="0.771629">
        <ele>572.008</ele>
        <time>2015-12-19T15:45:26Z</time>
      </trkpt>
      <trkpt lat="41.913111" lon="0.771549">
        <ele>572.096</ele>
        <time>2015-12-19T15:45:30Z</time>
      </trkpt>
      <trkpt lat="41.913031" lon="0.771481">
        <ele>572.036</ele>
        <time>2015-12-19T15:45:34Z</time>
      </trkpt>
      <trkpt lat="41.912947" lon="0.771424">
        <ele>572.042</ele>
        <time>2015-12-19T15:45:38Z</time>
      </trkpt>
      <trkpt lat="41.912858" lon="0.771376">
        <ele>573.096</ele>
        <time>2015-12-19T15:45:42Z</time>
      </trkpt>
      <trkpt lat="41.912750" lon="0.771331">
        <ele>575.080</ele>
        <time>2015-12-19T15:45:48Z</time>
      </trkpt>
      <trkpt lat="41.912661" lon="0.771310">
        <ele>575.048</ele>
        <time>2015-12-19T15:45:52Z</time>
      </trkpt>
      <trkpt lat="41.912567" lon="0.771285">
        <ele>576.064</ele>
        <time>2015-12-19T15:45:56Z</time>
      </trkpt>
      <trkpt lat="41.912474" lon="0.771274">
        <ele>577.084</ele>
        <time>2015-12-19T15:46:00Z</time>
      </trkpt>
      <trkpt lat="41.912381" lon="0.771253">
        <ele>578.014</ele>
        <time>2015-12-19T15:46:04Z</time>
      </trkpt>
      <trkpt lat="41.912269" lon="0.771221">
        <ele>578.054</ele>
        <time>2015-12-19T15:46:09Z</time>
      </trkpt>
      <trkpt lat="41.912182" lon="0.771178">
        <ele>578.009</ele>
        <time>2015-12-19T15:46:13Z</time>
      </trkpt>
      <trkpt lat="41.912102" lon="0.771102">
        <ele>577.008</ele>
        <time>2015-12-19T15:46:17Z</time>
      </trkpt>
      <trkpt lat="41.912041" lon="0.771006">
        <ele>577.052</ele>
        <time>2015-12-19T15:46:21Z</time>
      </trkpt>
      <trkpt lat="41.911998" lon="0.770886">
        <ele>578.012</ele>
        <time>2015-12-19T15:46:25Z</time>
      </trkpt>
      <trkpt lat="41.911960" lon="0.770767">
        <ele>579.018</ele>
        <time>2015-12-19T15:46:29Z</time>
      </trkpt>
      <trkpt lat="41.911921" lon="0.770644">
        <ele>579.042</ele>
        <time>2015-12-19T15:46:33Z</time>
      </trkpt>
      <trkpt lat="41.911888" lon="0.770523">
        <ele>579.046</ele>
        <time>2015-12-19T15:46:37Z</time>
      </trkpt>
      <trkpt lat="41.911845" lon="0.770412">
        <ele>580.044</ele>
        <time>2015-12-19T15:46:41Z</time>
      </trkpt>
      <trkpt lat="41.911795" lon="0.770312">
        <ele>580.050</ele>
        <time>2015-12-19T15:46:45Z</time>
      </trkpt>
      <trkpt lat="41.911749" lon="0.770206">
        <ele>580.060</ele>
        <time>2015-12-19T15:46:49Z</time>
      </trkpt>
      <trkpt lat="41.911700" lon="0.770070">
        <ele>580.076</ele>
        <time>2015-12-19T15:46:54Z</time>
      </trkpt>
      <trkpt lat="41.911669" lon="0.769956">
        <ele>581.090</ele>
        <time>2015-12-19T15:46:57Z</time>
      </trkpt>
      <trkpt lat="41.911640" lon="0.769842">
        <ele>582.019</ele>
        <time>2015-12-19T15:47:01Z</time>
      </trkpt>
      <trkpt lat="41.911607" lon="0.769703">
        <ele>581.008</ele>
        <time>2015-12-19T15:47:06Z</time>
      </trkpt>
      <trkpt lat="41.911583" lon="0.769563">
        <ele>583.078</ele>
        <time>2015-12-19T15:47:11Z</time>
      </trkpt>
      <trkpt lat="41.911553" lon="0.769429">
        <ele>585.058</ele>
        <time>2015-12-19T15:47:17Z</time>
      </trkpt>
      <trkpt lat="41.911525" lon="0.769301">
        <ele>586.014</ele>
        <time>2015-12-19T15:47:22Z</time>
      </trkpt>
      <trkpt lat="41.911491" lon="0.769168">
        <ele>587.068</ele>
        <time>2015-12-19T15:47:27Z</time>
      </trkpt>
      <trkpt lat="41.911431" lon="0.769044">
        <ele>588.072</ele>
        <time>2015-12-19T15:47:32Z</time>
      </trkpt>
      <trkpt lat="41.911374" lon="0.768949">
        <ele>588.050</ele>
        <time>2015-12-19T15:47:36Z</time>
      </trkpt>
      <trkpt lat="41.911313" lon="0.768853">
        <ele>590.096</ele>
        <time>2015-12-19T15:47:40Z</time>
      </trkpt>
      <trkpt lat="41.911230" lon="0.768753">
        <ele>590.016</ele>
        <time>2015-12-19T15:47:45Z</time>
      </trkpt>
      <trkpt lat="41.911131" lon="0.768690">
        <ele>590.022</ele>
        <time>2015-12-19T15:47:50Z</time>
      </trkpt>
      <trkpt lat="41.911032" lon="0.768676">
        <ele>589.062</ele>
        <time>2015-12-19T15:47:54Z</time>
      </trkpt>
      <trkpt lat="41.910939" lon="0.768680">
        <ele>590.008</ele>
        <time>2015-12-19T15:47:57Z</time>
      </trkpt>
      <trkpt lat="41.910844" lon="0.768677">
        <ele>590.008</ele>
        <time>2015-12-19T15:48:00Z</time>
      </trkpt>
      <trkpt lat="41.910744" lon="0.768673">
        <ele>590.073</ele>
        <time>2015-12-19T15:48:03Z</time>
      </trkpt>
      <trkpt lat="41.910641" lon="0.768672">
        <ele>589.033</ele>
        <time>2015-12-19T15:48:06Z</time>
      </trkpt>
      <trkpt lat="41.910539" lon="0.768659">
        <ele>589.099</ele>
        <time>2015-12-19T15:48:09Z</time>
      </trkpt>
      <trkpt lat="41.910442" lon="0.768608">
        <ele>589.053</ele>
        <time>2015-12-19T15:48:12Z</time>
      </trkpt>
      <trkpt lat="41.910379" lon="0.768514">
        <ele>590.057</ele>
        <time>2015-12-19T15:48:15Z</time>
      </trkpt>
      <trkpt lat="41.910333" lon="0.768346">
        <ele>591.065</ele>
        <time>2015-12-19T15:48:19Z</time>
      </trkpt>
      <trkpt lat="41.910299" lon="0.768224">
        <ele>592.031</ele>
        <time>2015-12-19T15:48:23Z</time>
      </trkpt>
      <trkpt lat="41.910242" lon="0.768119">
        <ele>592.061</ele>
        <time>2015-12-19T15:48:27Z</time>
      </trkpt>
      <trkpt lat="41.910162" lon="0.768051">
        <ele>592.057</ele>
        <time>2015-12-19T15:48:31Z</time>
      </trkpt>
      <trkpt lat="41.910073" lon="0.768002">
        <ele>591.000</ele>
        <time>2015-12-19T15:48:36Z</time>
      </trkpt>
      <trkpt lat="41.909987" lon="0.767950">
        <ele>591.020</ele>
        <time>2015-12-19T15:48:40Z</time>
      </trkpt>
      <trkpt lat="41.909906" lon="0.767860">
        <ele>591.008</ele>
        <time>2015-12-19T15:48:44Z</time>
      </trkpt>
      <trkpt lat="41.909843" lon="0.767760">
        <ele>592.056</ele>
        <time>2015-12-19T15:48:48Z</time>
      </trkpt>
      <trkpt lat="41.909781" lon="0.767663">
        <ele>592.096</ele>
        <time>2015-12-19T15:48:52Z</time>
      </trkpt>
      <trkpt lat="41.909721" lon="0.767533">
        <ele>592.072</ele>
        <time>2015-12-19T15:48:57Z</time>
      </trkpt>
      <trkpt lat="41.909644" lon="0.767426">
        <ele>593.096</ele>
        <time>2015-12-19T15:49:02Z</time>
      </trkpt>
      <trkpt lat="41.909542" lon="0.767369">
        <ele>595.030</ele>
        <time>2015-12-19T15:49:07Z</time>
      </trkpt>
      <trkpt lat="41.909433" lon="0.767367">
        <ele>597.028</ele>
        <time>2015-12-19T15:49:12Z</time>
      </trkpt>
      <trkpt lat="41.909328" lon="0.767359">
        <ele>597.084</ele>
        <time>2015-12-19T15:49:17Z</time>
      </trkpt>
      <trkpt lat="41.909224" lon="0.767345">
        <ele>597.024</ele>
        <time>2015-12-19T15:49:22Z</time>
      </trkpt>
      <trkpt lat="41.909115" lon="0.767308">
        <ele>597.045</ele>
        <time>2015-12-19T15:49:27Z</time>
      </trkpt>
      <trkpt lat="41.909011" lon="0.767246">
        <ele>597.047</ele>
        <time>2015-12-19T15:49:32Z</time>
      </trkpt>
      <trkpt lat="41.908937" lon="0.767168">
        <ele>601.011</ele>
        <time>2015-12-19T15:49:36Z</time>
      </trkpt>
      <trkpt lat="41.908861" lon="0.767090">
        <ele>600.008</ele>
        <time>2015-12-19T15:49:40Z</time>
      </trkpt>
      <trkpt lat="41.908765" lon="0.767001">
        <ele>600.035</ele>
        <time>2015-12-19T15:49:44Z</time>
      </trkpt>
      <trkpt lat="41.908671" lon="0.766917">
        <ele>602.055</ele>
        <time>2015-12-19T15:49:49Z</time>
      </trkpt>
      <trkpt lat="41.908583" lon="0.766844">
        <ele>604.081</ele>
        <time>2015-12-19T15:49:55Z</time>
      </trkpt>
      <trkpt lat="41.908499" lon="0.766755">
        <ele>605.015</ele>
        <time>2015-12-19T15:50:00Z</time>
      </trkpt>
      <trkpt lat="41.908439" lon="0.766665">
        <ele>606.039</ele>
        <time>2015-12-19T15:50:04Z</time>
      </trkpt>
      <trkpt lat="41.908378" lon="0.766540">
        <ele>608.087</ele>
        <time>2015-12-19T15:50:09Z</time>
      </trkpt>
      <trkpt lat="41.908317" lon="0.766418">
        <ele>609.043</ele>
        <time>2015-12-19T15:50:14Z</time>
      </trkpt>
      <trkpt lat="41.908255" lon="0.766311">
        <ele>610.053</ele>
        <time>2015-12-19T15:50:19Z</time>
      </trkpt>
      <trkpt lat="41.908246" lon="0.766179">
        <ele>610.051</ele>
        <time>2015-12-19T15:50:24Z</time>
      </trkpt>
      <trkpt lat="41.908243" lon="0.766036">
        <ele>610.001</ele>
        <time>2015-12-19T15:50:27Z</time>
      </trkpt>
      <trkpt lat="41.908229" lon="0.765869">
        <ele>609.011</ele>
        <time>2015-12-19T15:50:30Z</time>
      </trkpt>
      <trkpt lat="41.908211" lon="0.765706">
        <ele>609.008</ele>
        <time>2015-12-19T15:50:33Z</time>
      </trkpt>
      <trkpt lat="41.908200" lon="0.765547">
        <ele>609.016</ele>
        <time>2015-12-19T15:50:36Z</time>
      </trkpt>
      <trkpt lat="41.908190" lon="0.765390">
        <ele>610.036</ele>
        <time>2015-12-19T15:50:39Z</time>
      </trkpt>
      <trkpt lat="41.908195" lon="0.765261">
        <ele>611.092</ele>
        <time>2015-12-19T15:50:43Z</time>
      </trkpt>
      <trkpt lat="41.908216" lon="0.765130">
        <ele>613.056</ele>
        <time>2015-12-19T15:50:48Z</time>
      </trkpt>
      <trkpt lat="41.908253" lon="0.765013">
        <ele>614.050</ele>
        <time>2015-12-19T15:50:52Z</time>
      </trkpt>
      <trkpt lat="41.908282" lon="0.764881">
        <ele>614.038</ele>
        <time>2015-12-19T15:50:56Z</time>
      </trkpt>
      <trkpt lat="41.908306" lon="0.764657">
        <ele>614.064</ele>
        <time>2015-12-19T15:50:59Z</time>
      </trkpt>
      <trkpt lat="41.908271" lon="0.764524">
        <ele>615.034</ele>
        <time>2015-12-19T15:51:02Z</time>
      </trkpt>
      <trkpt lat="41.908214" lon="0.764422">
        <ele>614.047</ele>
        <time>2015-12-19T15:51:05Z</time>
      </trkpt>
      <trkpt lat="41.908163" lon="0.764318">
        <ele>614.029</ele>
        <time>2015-12-19T15:51:08Z</time>
      </trkpt>
      <trkpt lat="41.908114" lon="0.764178">
        <ele>615.021</ele>
        <time>2015-12-19T15:51:12Z</time>
      </trkpt>
      <trkpt lat="41.908118" lon="0.764043">
        <ele>616.008</ele>
        <time>2015-12-19T15:51:18Z</time>
      </trkpt>
      <trkpt lat="41.908185" lon="0.763962">
        <ele>616.055</ele>
        <time>2015-12-19T15:51:25Z</time>
      </trkpt>
      <trkpt lat="41.908262" lon="0.763877">
        <ele>622.055</ele>
        <time>2015-12-19T15:51:33Z</time>
      </trkpt>
      <trkpt lat="41.908341" lon="0.763792">
        <ele>617.071</ele>
        <time>2015-12-19T15:51:41Z</time>
      </trkpt>
      <trkpt lat="41.908393" lon="0.763677">
        <ele>619.075</ele>
        <time>2015-12-19T15:51:49Z</time>
      </trkpt>
      <trkpt lat="41.908423" lon="0.763553">
        <ele>624.059</ele>
        <time>2015-12-19T15:51:57Z</time>
      </trkpt>
      <trkpt lat="41.908451" lon="0.763438">
        <ele>624.047</ele>
        <time>2015-12-19T15:52:04Z</time>
      </trkpt>
      <trkpt lat="41.908480" lon="0.763313">
        <ele>627.043</ele>
        <time>2015-12-19T15:52:11Z</time>
      </trkpt>
      <trkpt lat="41.908518" lon="0.763186">
        <ele>628.063</ele>
        <time>2015-12-19T15:52:17Z</time>
      </trkpt>
      <trkpt lat="41.908546" lon="0.763062">
        <ele>627.034</ele>
        <time>2015-12-19T15:52:23Z</time>
      </trkpt>
      <trkpt lat="41.908559" lon="0.762942">
        <ele>628.055</ele>
        <time>2015-12-19T15:52:28Z</time>
      </trkpt>
      <trkpt lat="41.908591" lon="0.762829">
        <ele>629.010</ele>
        <time>2015-12-19T15:52:34Z</time>
      </trkpt>
      <trkpt lat="41.908627" lon="0.762709">
        <ele>631.008</ele>
        <time>2015-12-19T15:52:40Z</time>
      </trkpt>
      <trkpt lat="41.908618" lon="0.762576">
        <ele>632.054</ele>
        <time>2015-12-19T15:52:47Z</time>
      </trkpt>
      <trkpt lat="41.908536" lon="0.762525">
        <ele>629.084</ele>
        <time>2015-12-19T15:52:52Z</time>
      </trkpt>
      <trkpt lat="41.908443" lon="0.762516">
        <ele>629.040</ele>
        <time>2015-12-19T15:52:55Z</time>
      </trkpt>
      <trkpt lat="41.908326" lon="0.762535">
        <ele>629.054</ele>
        <time>2015-12-19T15:52:58Z</time>
      </trkpt>
      <trkpt lat="41.908221" lon="0.762553">
        <ele>629.088</ele>
        <time>2015-12-19T15:53:00Z</time>
      </trkpt>
      <trkpt lat="41.908122" lon="0.762560">
        <ele>629.026</ele>
        <time>2015-12-19T15:53:02Z</time>
      </trkpt>
      <trkpt lat="41.908029" lon="0.762557">
        <ele>629.092</ele>
        <time>2015-12-19T15:53:04Z</time>
      </trkpt>
      <trkpt lat="41.907933" lon="0.762558">
        <ele>630.042</ele>
        <time>2015-12-19T15:53:06Z</time>
      </trkpt>
      <trkpt lat="41.907830" lon="0.762538">
        <ele>628.073</ele>
        <time>2015-12-19T15:53:08Z</time>
      </trkpt>
      <trkpt lat="41.907729" lon="0.762530">
        <ele>628.085</ele>
        <time>2015-12-19T15:53:10Z</time>
      </trkpt>
      <trkpt lat="41.907607" lon="0.762530">
        <ele>629.013</ele>
        <time>2015-12-19T15:53:13Z</time>
      </trkpt>
      <trkpt lat="41.907471" lon="0.762529">
        <ele>628.008</ele>
        <time>2015-12-19T15:53:16Z</time>
      </trkpt>
      <trkpt lat="41.907345" lon="0.762523">
        <ele>629.048</ele>
        <time>2015-12-19T15:53:19Z</time>
      </trkpt>
      <trkpt lat="41.907211" lon="0.762524">
        <ele>629.048</ele>
        <time>2015-12-19T15:53:22Z</time>
      </trkpt>
      <trkpt lat="41.907112" lon="0.762544">
        <ele>629.044</ele>
        <time>2015-12-19T15:53:24Z</time>
      </trkpt>
      <trkpt lat="41.907017" lon="0.762583">
        <ele>630.038</ele>
        <time>2015-12-19T15:53:26Z</time>
      </trkpt>
      <trkpt lat="41.906927" lon="0.762646">
        <ele>630.092</ele>
        <time>2015-12-19T15:53:28Z</time>
      </trkpt>
      <trkpt lat="41.906846" lon="0.762716">
        <ele>629.010</ele>
        <time>2015-12-19T15:53:30Z</time>
      </trkpt>
      <trkpt lat="41.906770" lon="0.762788">
        <ele>630.026</ele>
        <time>2015-12-19T15:53:32Z</time>
      </trkpt>
      <trkpt lat="41.906695" lon="0.762865">
        <ele>630.066</ele>
        <time>2015-12-19T15:53:34Z</time>
      </trkpt>
      <trkpt lat="41.906608" lon="0.762982">
        <ele>631.075</ele>
        <time>2015-12-19T15:53:37Z</time>
      </trkpt>
      <trkpt lat="41.906532" lon="0.763081">
        <ele>632.028</ele>
        <time>2015-12-19T15:53:40Z</time>
      </trkpt>
      <trkpt lat="41.906443" lon="0.763046">
        <ele>634.020</ele>
        <time>2015-12-19T15:54:05Z</time>
      </trkpt>
    </trkseg>
  </trk>
</gpx>
